<?xml version="1.0" encoding="UTF-8" standalone="no" ?>
<gpx xmlns="http://www.topografix.com/GPX/1/1" xmlns:xsi="http://www.w3.org/2001/XMLSchema-instance" xsi:schemaLocation="http://www.topografix.com/GPX/1/1 http://www.topografix.com/GPX/1/1/gpx.xsd" version="1.1" creator="VisuGPX - https://www.visugpx.com">
  <metadata>
    <name>Enduro Gourdon 2016</name>
    <desc><![CDATA[Enduro Gourdon 2016

3 spéciales.]]></desc>
  </metadata>
  <trk>
    <name><![CDATA[Enduro Gourdon 2016]]></name>
    <trkseg>
      <trkpt lat="43.72183" lon="6.97755">
        <ele>740.6</ele>
        <time>2016-09-25T06:51:10Z</time>
      </trkpt>
      <trkpt lat="43.72187" lon="6.97757">
        <ele>740.6</ele>
        <time>2016-09-25T06:51:11Z</time>
      </trkpt>
      <trkpt lat="43.72191" lon="6.97757">
        <ele>740.6</ele>
        <time>2016-09-25T06:51:13Z</time>
      </trkpt>
      <trkpt lat="43.72191" lon="6.97761">
        <ele>740.6</ele>
        <time>2016-09-25T06:51:20Z</time>
      </trkpt>
      <trkpt lat="43.72189" lon="6.97762">
        <ele>740.7</ele>
        <time>2016-09-25T06:52:03Z</time>
      </trkpt>
      <trkpt lat="43.72186" lon="6.97759">
        <ele>740.7</ele>
        <time>2016-09-25T06:52:28Z</time>
      </trkpt>
      <trkpt lat="43.72183" lon="6.97758">
        <ele>740.7</ele>
        <time>2016-09-25T06:52:30Z</time>
      </trkpt>
      <trkpt lat="43.72181" lon="6.97754">
        <ele>740.6</ele>
        <time>2016-09-25T06:52:32Z</time>
      </trkpt>
      <trkpt lat="43.72178" lon="6.97751">
        <ele>740.5</ele>
        <time>2016-09-25T06:52:34Z</time>
      </trkpt>
      <trkpt lat="43.72175" lon="6.9775">
        <ele>740.5</ele>
        <time>2016-09-25T06:52:36Z</time>
      </trkpt>
      <trkpt lat="43.72172" lon="6.97747">
        <ele>740.4</ele>
        <time>2016-09-25T06:52:38Z</time>
      </trkpt>
      <trkpt lat="43.72169" lon="6.97743">
        <ele>740.2</ele>
        <time>2016-09-25T06:52:40Z</time>
      </trkpt>
      <trkpt lat="43.72167" lon="6.9774">
        <ele>740</ele>
        <time>2016-09-25T06:52:42Z</time>
      </trkpt>
      <trkpt lat="43.72164" lon="6.97737">
        <ele>739.8</ele>
        <time>2016-09-25T06:52:44Z</time>
      </trkpt>
      <trkpt lat="43.72161" lon="6.97733">
        <ele>739.5</ele>
        <time>2016-09-25T06:52:46Z</time>
      </trkpt>
      <trkpt lat="43.72158" lon="6.9773">
        <ele>739.3</ele>
        <time>2016-09-25T06:52:47Z</time>
      </trkpt>
      <trkpt lat="43.72156" lon="6.97727">
        <ele>739</ele>
        <time>2016-09-25T06:52:48Z</time>
      </trkpt>
      <trkpt lat="43.72152" lon="6.97722">
        <ele>738.6</ele>
        <time>2016-09-25T06:52:49Z</time>
      </trkpt>
      <trkpt lat="43.72144" lon="6.97717">
        <ele>737.8</ele>
        <time>2016-09-25T06:52:50Z</time>
      </trkpt>
      <trkpt lat="43.72142" lon="6.97724">
        <ele>738.3</ele>
        <time>2016-09-25T06:52:52Z</time>
      </trkpt>
      <trkpt lat="43.7214" lon="6.9773">
        <ele>738.7</ele>
        <time>2016-09-25T06:52:54Z</time>
      </trkpt>
      <trkpt lat="43.72137" lon="6.97732">
        <ele>738.8</ele>
        <time>2016-09-25T06:52:55Z</time>
      </trkpt>
      <trkpt lat="43.72135" lon="6.97736">
        <ele>739.2</ele>
        <time>2016-09-25T06:52:56Z</time>
      </trkpt>
      <trkpt lat="43.72135" lon="6.9774">
        <ele>739.5</ele>
        <time>2016-09-25T06:52:57Z</time>
      </trkpt>
      <trkpt lat="43.72132" lon="6.97746">
        <ele>740.1</ele>
        <time>2016-09-25T06:52:59Z</time>
      </trkpt>
      <trkpt lat="43.72131" lon="6.97752">
        <ele>740.7</ele>
        <time>2016-09-25T06:53:01Z</time>
      </trkpt>
      <trkpt lat="43.72132" lon="6.97756">
        <ele>741.1</ele>
        <time>2016-09-25T06:53:02Z</time>
      </trkpt>
      <trkpt lat="43.72134" lon="6.9776">
        <ele>741.4</ele>
        <time>2016-09-25T06:53:03Z</time>
      </trkpt>
      <trkpt lat="43.72136" lon="6.97762">
        <ele>741.6</ele>
        <time>2016-09-25T06:53:04Z</time>
      </trkpt>
      <trkpt lat="43.72139" lon="6.97765">
        <ele>741.8</ele>
        <time>2016-09-25T06:53:05Z</time>
      </trkpt>
      <trkpt lat="43.72142" lon="6.97767">
        <ele>741.9</ele>
        <time>2016-09-25T06:53:06Z</time>
      </trkpt>
      <trkpt lat="43.72143" lon="6.97772">
        <ele>742.3</ele>
        <time>2016-09-25T06:53:07Z</time>
      </trkpt>
      <trkpt lat="43.72144" lon="6.97776">
        <ele>742.6</ele>
        <time>2016-09-25T06:53:08Z</time>
      </trkpt>
      <trkpt lat="43.72145" lon="6.9778">
        <ele>742.9</ele>
        <time>2016-09-25T06:53:09Z</time>
      </trkpt>
      <trkpt lat="43.72145" lon="6.97784">
        <ele>743.2</ele>
        <time>2016-09-25T06:53:10Z</time>
      </trkpt>
      <trkpt lat="43.72146" lon="6.97788">
        <ele>743.4</ele>
        <time>2016-09-25T06:53:11Z</time>
      </trkpt>
      <trkpt lat="43.72149" lon="6.97793">
        <ele>743.6</ele>
        <time>2016-09-25T06:53:13Z</time>
      </trkpt>
      <trkpt lat="43.72152" lon="6.97794">
        <ele>743.4</ele>
        <time>2016-09-25T06:53:15Z</time>
      </trkpt>
      <trkpt lat="43.7216" lon="6.97797">
        <ele>742.8</ele>
        <time>2016-09-25T07:03:33Z</time>
      </trkpt>
      <trkpt lat="43.72164" lon="6.97798">
        <ele>742.6</ele>
        <time>2016-09-25T07:03:37Z</time>
      </trkpt>
      <trkpt lat="43.72166" lon="6.978">
        <ele>742.4</ele>
        <time>2016-09-25T07:03:41Z</time>
      </trkpt>
      <trkpt lat="43.72164" lon="6.97798">
        <ele>742.6</ele>
        <time>2016-09-25T07:05:05Z</time>
      </trkpt>
      <trkpt lat="43.72161" lon="6.97794">
        <ele>742.8</ele>
        <time>2016-09-25T07:05:08Z</time>
      </trkpt>
      <trkpt lat="43.72159" lon="6.97792">
        <ele>743</ele>
        <time>2016-09-25T07:05:10Z</time>
      </trkpt>
      <trkpt lat="43.72157" lon="6.97788">
        <ele>742.9</ele>
        <time>2016-09-25T07:05:13Z</time>
      </trkpt>
      <trkpt lat="43.72157" lon="6.97784">
        <ele>742.6</ele>
        <time>2016-09-25T07:05:15Z</time>
      </trkpt>
      <trkpt lat="43.72156" lon="6.9778">
        <ele>742.4</ele>
        <time>2016-09-25T07:05:17Z</time>
      </trkpt>
      <trkpt lat="43.72155" lon="6.97775">
        <ele>742.1</ele>
        <time>2016-09-25T07:05:19Z</time>
      </trkpt>
      <trkpt lat="43.72153" lon="6.97771">
        <ele>741.9</ele>
        <time>2016-09-25T07:05:21Z</time>
      </trkpt>
      <trkpt lat="43.7215" lon="6.97768">
        <ele>741.8</ele>
        <time>2016-09-25T07:05:23Z</time>
      </trkpt>
      <trkpt lat="43.72149" lon="6.97764">
        <ele>741.5</ele>
        <time>2016-09-25T07:05:25Z</time>
      </trkpt>
      <trkpt lat="43.72148" lon="6.97759">
        <ele>741.2</ele>
        <time>2016-09-25T07:05:27Z</time>
      </trkpt>
      <trkpt lat="43.72146" lon="6.97755">
        <ele>740.9</ele>
        <time>2016-09-25T07:05:29Z</time>
      </trkpt>
      <trkpt lat="43.72144" lon="6.97752">
        <ele>740.6</ele>
        <time>2016-09-25T07:05:31Z</time>
      </trkpt>
      <trkpt lat="43.72143" lon="6.97747">
        <ele>740.2</ele>
        <time>2016-09-25T07:05:33Z</time>
      </trkpt>
      <trkpt lat="43.72144" lon="6.97742">
        <ele>739.8</ele>
        <time>2016-09-25T07:05:35Z</time>
      </trkpt>
      <trkpt lat="43.72144" lon="6.97737">
        <ele>739.4</ele>
        <time>2016-09-25T07:05:37Z</time>
      </trkpt>
      <trkpt lat="43.72145" lon="6.97732">
        <ele>739.1</ele>
        <time>2016-09-25T07:05:39Z</time>
      </trkpt>
      <trkpt lat="43.72145" lon="6.97727">
        <ele>738.7</ele>
        <time>2016-09-25T07:05:41Z</time>
      </trkpt>
      <trkpt lat="43.72145" lon="6.97722">
        <ele>738.2</ele>
        <time>2016-09-25T07:05:43Z</time>
      </trkpt>
      <trkpt lat="43.72142" lon="6.97716">
        <ele>737.7</ele>
        <time>2016-09-25T07:05:45Z</time>
      </trkpt>
      <trkpt lat="43.72141" lon="6.97709">
        <ele>737</ele>
        <time>2016-09-25T07:05:47Z</time>
      </trkpt>
      <trkpt lat="43.72141" lon="6.97705">
        <ele>736.6</ele>
        <time>2016-09-25T07:05:48Z</time>
      </trkpt>
      <trkpt lat="43.72142" lon="6.97701">
        <ele>736.3</ele>
        <time>2016-09-25T07:05:49Z</time>
      </trkpt>
      <trkpt lat="43.72143" lon="6.97698">
        <ele>736</ele>
        <time>2016-09-25T07:05:50Z</time>
      </trkpt>
      <trkpt lat="43.72145" lon="6.97695">
        <ele>735.8</ele>
        <time>2016-09-25T07:05:51Z</time>
      </trkpt>
      <trkpt lat="43.72149" lon="6.9769">
        <ele>735.8</ele>
        <time>2016-09-25T07:05:53Z</time>
      </trkpt>
      <trkpt lat="43.72152" lon="6.97686">
        <ele>735.8</ele>
        <time>2016-09-25T07:05:55Z</time>
      </trkpt>
      <trkpt lat="43.72154" lon="6.9768">
        <ele>735.6</ele>
        <time>2016-09-25T07:05:57Z</time>
      </trkpt>
      <trkpt lat="43.72156" lon="6.97675">
        <ele>735.5</ele>
        <time>2016-09-25T07:05:59Z</time>
      </trkpt>
      <trkpt lat="43.72158" lon="6.9767">
        <ele>735.4</ele>
        <time>2016-09-25T07:06:01Z</time>
      </trkpt>
      <trkpt lat="43.7217" lon="6.97636">
        <ele>735.7</ele>
        <time>2016-09-25T07:06:15Z</time>
      </trkpt>
      <trkpt lat="43.72172" lon="6.97631">
        <ele>736</ele>
        <time>2016-09-25T07:06:17Z</time>
      </trkpt>
      <trkpt lat="43.72173" lon="6.97626">
        <ele>736.1</ele>
        <time>2016-09-25T07:06:19Z</time>
      </trkpt>
      <trkpt lat="43.72175" lon="6.97621">
        <ele>736.9</ele>
        <time>2016-09-25T07:06:21Z</time>
      </trkpt>
      <trkpt lat="43.72177" lon="6.97615">
        <ele>737.8</ele>
        <time>2016-09-25T07:06:23Z</time>
      </trkpt>
      <trkpt lat="43.72178" lon="6.9761">
        <ele>738.5</ele>
        <time>2016-09-25T07:06:25Z</time>
      </trkpt>
      <trkpt lat="43.72179" lon="6.97605">
        <ele>739.3</ele>
        <time>2016-09-25T07:06:27Z</time>
      </trkpt>
      <trkpt lat="43.7218" lon="6.97599">
        <ele>740</ele>
        <time>2016-09-25T07:06:29Z</time>
      </trkpt>
      <trkpt lat="43.72181" lon="6.97594">
        <ele>740.7</ele>
        <time>2016-09-25T07:06:31Z</time>
      </trkpt>
      <trkpt lat="43.72182" lon="6.97588">
        <ele>741.3</ele>
        <time>2016-09-25T07:06:33Z</time>
      </trkpt>
      <trkpt lat="43.72182" lon="6.97583">
        <ele>741.8</ele>
        <time>2016-09-25T07:06:35Z</time>
      </trkpt>
      <trkpt lat="43.72182" lon="6.97577">
        <ele>742.1</ele>
        <time>2016-09-25T07:06:37Z</time>
      </trkpt>
      <trkpt lat="43.72181" lon="6.97572">
        <ele>742.5</ele>
        <time>2016-09-25T07:06:39Z</time>
      </trkpt>
      <trkpt lat="43.72181" lon="6.97566">
        <ele>742.9</ele>
        <time>2016-09-25T07:06:41Z</time>
      </trkpt>
      <trkpt lat="43.7218" lon="6.9756">
        <ele>743</ele>
        <time>2016-09-25T07:06:43Z</time>
      </trkpt>
      <trkpt lat="43.72179" lon="6.97555">
        <ele>743.2</ele>
        <time>2016-09-25T07:06:45Z</time>
      </trkpt>
      <trkpt lat="43.72178" lon="6.97549">
        <ele>743.2</ele>
        <time>2016-09-25T07:06:47Z</time>
      </trkpt>
      <trkpt lat="43.72176" lon="6.97544">
        <ele>742.9</ele>
        <time>2016-09-25T07:06:49Z</time>
      </trkpt>
      <trkpt lat="43.72174" lon="6.97539">
        <ele>742.3</ele>
        <time>2016-09-25T07:06:51Z</time>
      </trkpt>
      <trkpt lat="43.72171" lon="6.97534">
        <ele>741.6</ele>
        <time>2016-09-25T07:06:53Z</time>
      </trkpt>
      <trkpt lat="43.72169" lon="6.97529">
        <ele>740.9</ele>
        <time>2016-09-25T07:06:55Z</time>
      </trkpt>
      <trkpt lat="43.72167" lon="6.97525">
        <ele>740.4</ele>
        <time>2016-09-25T07:06:57Z</time>
      </trkpt>
      <trkpt lat="43.72165" lon="6.9752">
        <ele>739.9</ele>
        <time>2016-09-25T07:06:59Z</time>
      </trkpt>
      <trkpt lat="43.72164" lon="6.97515">
        <ele>739.4</ele>
        <time>2016-09-25T07:07:01Z</time>
      </trkpt>
      <trkpt lat="43.72162" lon="6.97511">
        <ele>738.9</ele>
        <time>2016-09-25T07:07:03Z</time>
      </trkpt>
      <trkpt lat="43.72161" lon="6.97507">
        <ele>738.6</ele>
        <time>2016-09-25T07:07:05Z</time>
      </trkpt>
      <trkpt lat="43.72159" lon="6.97502">
        <ele>738.2</ele>
        <time>2016-09-25T07:07:07Z</time>
      </trkpt>
      <trkpt lat="43.72157" lon="6.97498">
        <ele>737.6</ele>
        <time>2016-09-25T07:07:09Z</time>
      </trkpt>
      <trkpt lat="43.72155" lon="6.97493">
        <ele>737</ele>
        <time>2016-09-25T07:07:11Z</time>
      </trkpt>
      <trkpt lat="43.72153" lon="6.97489">
        <ele>736.4</ele>
        <time>2016-09-25T07:07:13Z</time>
      </trkpt>
      <trkpt lat="43.72151" lon="6.97484">
        <ele>735.8</ele>
        <time>2016-09-25T07:07:15Z</time>
      </trkpt>
      <trkpt lat="43.72149" lon="6.9748">
        <ele>735.4</ele>
        <time>2016-09-25T07:07:17Z</time>
      </trkpt>
      <trkpt lat="43.72147" lon="6.97475">
        <ele>734.9</ele>
        <time>2016-09-25T07:07:19Z</time>
      </trkpt>
      <trkpt lat="43.72146" lon="6.9747">
        <ele>734.6</ele>
        <time>2016-09-25T07:07:21Z</time>
      </trkpt>
      <trkpt lat="43.72145" lon="6.97464">
        <ele>734.5</ele>
        <time>2016-09-25T07:07:23Z</time>
      </trkpt>
      <trkpt lat="43.72144" lon="6.97458">
        <ele>734.5</ele>
        <time>2016-09-25T07:07:25Z</time>
      </trkpt>
      <trkpt lat="43.72144" lon="6.97453">
        <ele>734.3</ele>
        <time>2016-09-25T07:07:27Z</time>
      </trkpt>
      <trkpt lat="43.72144" lon="6.97447">
        <ele>734</ele>
        <time>2016-09-25T07:07:29Z</time>
      </trkpt>
      <trkpt lat="43.72145" lon="6.97441">
        <ele>734.1</ele>
        <time>2016-09-25T07:07:31Z</time>
      </trkpt>
      <trkpt lat="43.72147" lon="6.97436">
        <ele>734.4</ele>
        <time>2016-09-25T07:07:33Z</time>
      </trkpt>
      <trkpt lat="43.72149" lon="6.97431">
        <ele>734.7</ele>
        <time>2016-09-25T07:07:35Z</time>
      </trkpt>
      <trkpt lat="43.72151" lon="6.97427">
        <ele>735</ele>
        <time>2016-09-25T07:07:37Z</time>
      </trkpt>
      <trkpt lat="43.72154" lon="6.97423">
        <ele>735.5</ele>
        <time>2016-09-25T07:07:39Z</time>
      </trkpt>
      <trkpt lat="43.72157" lon="6.97421">
        <ele>736.1</ele>
        <time>2016-09-25T07:07:41Z</time>
      </trkpt>
      <trkpt lat="43.72161" lon="6.97419">
        <ele>736.9</ele>
        <time>2016-09-25T07:07:43Z</time>
      </trkpt>
      <trkpt lat="43.72164" lon="6.97417">
        <ele>737.6</ele>
        <time>2016-09-25T07:07:45Z</time>
      </trkpt>
      <trkpt lat="43.72167" lon="6.97416">
        <ele>738.4</ele>
        <time>2016-09-25T07:07:47Z</time>
      </trkpt>
      <trkpt lat="43.72171" lon="6.97415">
        <ele>739.2</ele>
        <time>2016-09-25T07:07:49Z</time>
      </trkpt>
      <trkpt lat="43.72175" lon="6.97414">
        <ele>740</ele>
        <time>2016-09-25T07:07:51Z</time>
      </trkpt>
      <trkpt lat="43.72179" lon="6.97412">
        <ele>740.9</ele>
        <time>2016-09-25T07:07:53Z</time>
      </trkpt>
      <trkpt lat="43.72183" lon="6.97411">
        <ele>741.7</ele>
        <time>2016-09-25T07:07:55Z</time>
      </trkpt>
      <trkpt lat="43.72187" lon="6.97409">
        <ele>742.5</ele>
        <time>2016-09-25T07:07:57Z</time>
      </trkpt>
      <trkpt lat="43.72191" lon="6.97407">
        <ele>743.3</ele>
        <time>2016-09-25T07:07:59Z</time>
      </trkpt>
      <trkpt lat="43.72195" lon="6.97405">
        <ele>744.1</ele>
        <time>2016-09-25T07:08:01Z</time>
      </trkpt>
      <trkpt lat="43.72199" lon="6.97403">
        <ele>744.9</ele>
        <time>2016-09-25T07:08:03Z</time>
      </trkpt>
      <trkpt lat="43.72204" lon="6.97401">
        <ele>745.7</ele>
        <time>2016-09-25T07:08:05Z</time>
      </trkpt>
      <trkpt lat="43.72208" lon="6.97399">
        <ele>746.5</ele>
        <time>2016-09-25T07:08:07Z</time>
      </trkpt>
      <trkpt lat="43.72212" lon="6.97397">
        <ele>747.1</ele>
        <time>2016-09-25T07:08:09Z</time>
      </trkpt>
      <trkpt lat="43.72216" lon="6.97395">
        <ele>747.7</ele>
        <time>2016-09-25T07:08:11Z</time>
      </trkpt>
      <trkpt lat="43.7222" lon="6.97394">
        <ele>748.3</ele>
        <time>2016-09-25T07:08:13Z</time>
      </trkpt>
      <trkpt lat="43.72225" lon="6.97393">
        <ele>749</ele>
        <time>2016-09-25T07:08:15Z</time>
      </trkpt>
      <trkpt lat="43.72229" lon="6.97391">
        <ele>749.7</ele>
        <time>2016-09-25T07:08:17Z</time>
      </trkpt>
      <trkpt lat="43.72233" lon="6.97389">
        <ele>750.3</ele>
        <time>2016-09-25T07:08:19Z</time>
      </trkpt>
      <trkpt lat="43.72237" lon="6.97388">
        <ele>751</ele>
        <time>2016-09-25T07:08:21Z</time>
      </trkpt>
      <trkpt lat="43.72241" lon="6.97386">
        <ele>751.7</ele>
        <time>2016-09-25T07:08:23Z</time>
      </trkpt>
      <trkpt lat="43.72245" lon="6.97385">
        <ele>752.4</ele>
        <time>2016-09-25T07:08:25Z</time>
      </trkpt>
      <trkpt lat="43.72249" lon="6.97384">
        <ele>753</ele>
        <time>2016-09-25T07:08:27Z</time>
      </trkpt>
      <trkpt lat="43.72253" lon="6.97383">
        <ele>753.7</ele>
        <time>2016-09-25T07:08:29Z</time>
      </trkpt>
      <trkpt lat="43.72256" lon="6.97381">
        <ele>754.2</ele>
        <time>2016-09-25T07:08:31Z</time>
      </trkpt>
      <trkpt lat="43.72259" lon="6.97378">
        <ele>754.5</ele>
        <time>2016-09-25T07:08:33Z</time>
      </trkpt>
      <trkpt lat="43.72262" lon="6.97374">
        <ele>754.9</ele>
        <time>2016-09-25T07:08:35Z</time>
      </trkpt>
      <trkpt lat="43.72265" lon="6.97369">
        <ele>755.5</ele>
        <time>2016-09-25T07:08:37Z</time>
      </trkpt>
      <trkpt lat="43.72268" lon="6.97365">
        <ele>756</ele>
        <time>2016-09-25T07:08:39Z</time>
      </trkpt>
      <trkpt lat="43.72271" lon="6.9736">
        <ele>756.5</ele>
        <time>2016-09-25T07:08:41Z</time>
      </trkpt>
      <trkpt lat="43.72273" lon="6.97355">
        <ele>756.9</ele>
        <time>2016-09-25T07:08:43Z</time>
      </trkpt>
      <trkpt lat="43.72274" lon="6.97348">
        <ele>757.1</ele>
        <time>2016-09-25T07:08:45Z</time>
      </trkpt>
      <trkpt lat="43.72276" lon="6.97343">
        <ele>757.4</ele>
        <time>2016-09-25T07:08:47Z</time>
      </trkpt>
      <trkpt lat="43.72277" lon="6.97337">
        <ele>757.8</ele>
        <time>2016-09-25T07:08:49Z</time>
      </trkpt>
      <trkpt lat="43.72279" lon="6.97332">
        <ele>758.2</ele>
        <time>2016-09-25T07:08:51Z</time>
      </trkpt>
      <trkpt lat="43.72281" lon="6.97327">
        <ele>758.4</ele>
        <time>2016-09-25T07:08:53Z</time>
      </trkpt>
      <trkpt lat="43.72281" lon="6.97321">
        <ele>758.5</ele>
        <time>2016-09-25T07:08:55Z</time>
      </trkpt>
      <trkpt lat="43.72282" lon="6.97316">
        <ele>758.7</ele>
        <time>2016-09-25T07:08:57Z</time>
      </trkpt>
      <trkpt lat="43.72283" lon="6.9731">
        <ele>759</ele>
        <time>2016-09-25T07:08:59Z</time>
      </trkpt>
      <trkpt lat="43.72285" lon="6.97305">
        <ele>759.2</ele>
        <time>2016-09-25T07:09:01Z</time>
      </trkpt>
      <trkpt lat="43.72285" lon="6.97299">
        <ele>759.3</ele>
        <time>2016-09-25T07:09:03Z</time>
      </trkpt>
      <trkpt lat="43.72285" lon="6.97293">
        <ele>759.4</ele>
        <time>2016-09-25T07:09:05Z</time>
      </trkpt>
      <trkpt lat="43.72286" lon="6.97287">
        <ele>759.5</ele>
        <time>2016-09-25T07:09:07Z</time>
      </trkpt>
      <trkpt lat="43.72286" lon="6.97281">
        <ele>759.3</ele>
        <time>2016-09-25T07:09:09Z</time>
      </trkpt>
      <trkpt lat="43.72285" lon="6.97275">
        <ele>759</ele>
        <time>2016-09-25T07:09:11Z</time>
      </trkpt>
      <trkpt lat="43.72283" lon="6.97269">
        <ele>758.6</ele>
        <time>2016-09-25T07:09:13Z</time>
      </trkpt>
      <trkpt lat="43.72283" lon="6.97263">
        <ele>758.4</ele>
        <time>2016-09-25T07:09:15Z</time>
      </trkpt>
      <trkpt lat="43.72283" lon="6.97258">
        <ele>758.4</ele>
        <time>2016-09-25T07:09:17Z</time>
      </trkpt>
      <trkpt lat="43.72282" lon="6.97252">
        <ele>758.2</ele>
        <time>2016-09-25T07:09:19Z</time>
      </trkpt>
      <trkpt lat="43.72282" lon="6.97246">
        <ele>758</ele>
        <time>2016-09-25T07:09:21Z</time>
      </trkpt>
      <trkpt lat="43.72282" lon="6.9724">
        <ele>757.8</ele>
        <time>2016-09-25T07:09:23Z</time>
      </trkpt>
      <trkpt lat="43.72281" lon="6.97234">
        <ele>757.6</ele>
        <time>2016-09-25T07:09:25Z</time>
      </trkpt>
      <trkpt lat="43.72281" lon="6.97228">
        <ele>757.5</ele>
        <time>2016-09-25T07:09:27Z</time>
      </trkpt>
      <trkpt lat="43.72281" lon="6.97222">
        <ele>757.5</ele>
        <time>2016-09-25T07:09:29Z</time>
      </trkpt>
      <trkpt lat="43.72282" lon="6.97216">
        <ele>757.7</ele>
        <time>2016-09-25T07:09:31Z</time>
      </trkpt>
      <trkpt lat="43.72284" lon="6.9721">
        <ele>758</ele>
        <time>2016-09-25T07:09:33Z</time>
      </trkpt>
      <trkpt lat="43.72285" lon="6.97205">
        <ele>758.4</ele>
        <time>2016-09-25T07:09:35Z</time>
      </trkpt>
      <trkpt lat="43.72287" lon="6.97199">
        <ele>759</ele>
        <time>2016-09-25T07:09:37Z</time>
      </trkpt>
      <trkpt lat="43.72289" lon="6.97194">
        <ele>759.5</ele>
        <time>2016-09-25T07:09:39Z</time>
      </trkpt>
      <trkpt lat="43.72291" lon="6.97189">
        <ele>760.1</ele>
        <time>2016-09-25T07:09:41Z</time>
      </trkpt>
      <trkpt lat="43.72293" lon="6.97183">
        <ele>760.9</ele>
        <time>2016-09-25T07:09:43Z</time>
      </trkpt>
      <trkpt lat="43.72294" lon="6.97178">
        <ele>761.7</ele>
        <time>2016-09-25T07:09:45Z</time>
      </trkpt>
      <trkpt lat="43.72296" lon="6.97173">
        <ele>762.8</ele>
        <time>2016-09-25T07:09:47Z</time>
      </trkpt>
      <trkpt lat="43.72298" lon="6.97168">
        <ele>763.6</ele>
        <time>2016-09-25T07:09:49Z</time>
      </trkpt>
      <trkpt lat="43.72299" lon="6.97163">
        <ele>764.1</ele>
        <time>2016-09-25T07:09:51Z</time>
      </trkpt>
      <trkpt lat="43.72299" lon="6.97157">
        <ele>764.4</ele>
        <time>2016-09-25T07:09:53Z</time>
      </trkpt>
      <trkpt lat="43.72301" lon="6.97152">
        <ele>765.1</ele>
        <time>2016-09-25T07:09:55Z</time>
      </trkpt>
      <trkpt lat="43.72302" lon="6.97146">
        <ele>765.8</ele>
        <time>2016-09-25T07:09:57Z</time>
      </trkpt>
      <trkpt lat="43.72303" lon="6.97141">
        <ele>766.5</ele>
        <time>2016-09-25T07:09:59Z</time>
      </trkpt>
      <trkpt lat="43.72304" lon="6.97136">
        <ele>767.2</ele>
        <time>2016-09-25T07:10:01Z</time>
      </trkpt>
      <trkpt lat="43.72305" lon="6.9713">
        <ele>767.6</ele>
        <time>2016-09-25T07:10:03Z</time>
      </trkpt>
      <trkpt lat="43.72304" lon="6.97124">
        <ele>767.5</ele>
        <time>2016-09-25T07:10:05Z</time>
      </trkpt>
      <trkpt lat="43.72304" lon="6.97119">
        <ele>767.5</ele>
        <time>2016-09-25T07:10:07Z</time>
      </trkpt>
      <trkpt lat="43.72304" lon="6.97113">
        <ele>767.5</ele>
        <time>2016-09-25T07:10:09Z</time>
      </trkpt>
      <trkpt lat="43.72304" lon="6.97107">
        <ele>767.3</ele>
        <time>2016-09-25T07:10:11Z</time>
      </trkpt>
      <trkpt lat="43.72304" lon="6.97101">
        <ele>767.3</ele>
        <time>2016-09-25T07:10:13Z</time>
      </trkpt>
      <trkpt lat="43.72304" lon="6.97096">
        <ele>767.5</ele>
        <time>2016-09-25T07:10:15Z</time>
      </trkpt>
      <trkpt lat="43.72304" lon="6.9709">
        <ele>767.4</ele>
        <time>2016-09-25T07:10:17Z</time>
      </trkpt>
      <trkpt lat="43.72303" lon="6.97084">
        <ele>767.1</ele>
        <time>2016-09-25T07:10:19Z</time>
      </trkpt>
      <trkpt lat="43.72302" lon="6.97078">
        <ele>766.7</ele>
        <time>2016-09-25T07:10:21Z</time>
      </trkpt>
      <trkpt lat="43.72301" lon="6.97072">
        <ele>766.3</ele>
        <time>2016-09-25T07:10:23Z</time>
      </trkpt>
      <trkpt lat="43.72301" lon="6.97066">
        <ele>766.2</ele>
        <time>2016-09-25T07:10:25Z</time>
      </trkpt>
      <trkpt lat="43.723" lon="6.9706">
        <ele>765.9</ele>
        <time>2016-09-25T07:10:27Z</time>
      </trkpt>
      <trkpt lat="43.72299" lon="6.97053">
        <ele>765.4</ele>
        <time>2016-09-25T07:10:29Z</time>
      </trkpt>
      <trkpt lat="43.72298" lon="6.97047">
        <ele>765.1</ele>
        <time>2016-09-25T07:10:31Z</time>
      </trkpt>
      <trkpt lat="43.72298" lon="6.97041">
        <ele>765.1</ele>
        <time>2016-09-25T07:10:33Z</time>
      </trkpt>
      <trkpt lat="43.72298" lon="6.97035">
        <ele>765.1</ele>
        <time>2016-09-25T07:10:35Z</time>
      </trkpt>
      <trkpt lat="43.72297" lon="6.97029">
        <ele>764.9</ele>
        <time>2016-09-25T07:10:37Z</time>
      </trkpt>
      <trkpt lat="43.72297" lon="6.97022">
        <ele>765.2</ele>
        <time>2016-09-25T07:10:39Z</time>
      </trkpt>
      <trkpt lat="43.72297" lon="6.97016">
        <ele>765.3</ele>
        <time>2016-09-25T07:10:41Z</time>
      </trkpt>
      <trkpt lat="43.72296" lon="6.97009">
        <ele>765.3</ele>
        <time>2016-09-25T07:10:43Z</time>
      </trkpt>
      <trkpt lat="43.72296" lon="6.97003">
        <ele>765.1</ele>
        <time>2016-09-25T07:10:45Z</time>
      </trkpt>
      <trkpt lat="43.72295" lon="6.96997">
        <ele>764.9</ele>
        <time>2016-09-25T07:10:47Z</time>
      </trkpt>
      <trkpt lat="43.72294" lon="6.96991">
        <ele>764.7</ele>
        <time>2016-09-25T07:10:49Z</time>
      </trkpt>
      <trkpt lat="43.72293" lon="6.96984">
        <ele>764.6</ele>
        <time>2016-09-25T07:10:51Z</time>
      </trkpt>
      <trkpt lat="43.72292" lon="6.96978">
        <ele>764.3</ele>
        <time>2016-09-25T07:10:53Z</time>
      </trkpt>
      <trkpt lat="43.72291" lon="6.96973">
        <ele>764.1</ele>
        <time>2016-09-25T07:10:55Z</time>
      </trkpt>
      <trkpt lat="43.7229" lon="6.96967">
        <ele>764.1</ele>
        <time>2016-09-25T07:10:57Z</time>
      </trkpt>
      <trkpt lat="43.7229" lon="6.96961">
        <ele>764.3</ele>
        <time>2016-09-25T07:10:59Z</time>
      </trkpt>
      <trkpt lat="43.7229" lon="6.96955">
        <ele>764.6</ele>
        <time>2016-09-25T07:11:01Z</time>
      </trkpt>
      <trkpt lat="43.7229" lon="6.9695">
        <ele>765</ele>
        <time>2016-09-25T07:11:03Z</time>
      </trkpt>
      <trkpt lat="43.72289" lon="6.96904">
        <ele>767</ele>
        <time>2016-09-25T07:11:17Z</time>
      </trkpt>
      <trkpt lat="43.72291" lon="6.96899">
        <ele>768.4</ele>
        <time>2016-09-25T07:11:19Z</time>
      </trkpt>
      <trkpt lat="43.72292" lon="6.96894">
        <ele>768.9</ele>
        <time>2016-09-25T07:11:21Z</time>
      </trkpt>
      <trkpt lat="43.72292" lon="6.96888">
        <ele>769.2</ele>
        <time>2016-09-25T07:11:23Z</time>
      </trkpt>
      <trkpt lat="43.72291" lon="6.96883">
        <ele>769.3</ele>
        <time>2016-09-25T07:11:25Z</time>
      </trkpt>
      <trkpt lat="43.7229" lon="6.96877">
        <ele>769</ele>
        <time>2016-09-25T07:11:27Z</time>
      </trkpt>
      <trkpt lat="43.72289" lon="6.96872">
        <ele>768.7</ele>
        <time>2016-09-25T07:11:29Z</time>
      </trkpt>
      <trkpt lat="43.72288" lon="6.96866">
        <ele>768.2</ele>
        <time>2016-09-25T07:11:31Z</time>
      </trkpt>
      <trkpt lat="43.72287" lon="6.9686">
        <ele>767.5</ele>
        <time>2016-09-25T07:11:33Z</time>
      </trkpt>
      <trkpt lat="43.72286" lon="6.96854">
        <ele>766.7</ele>
        <time>2016-09-25T07:11:35Z</time>
      </trkpt>
      <trkpt lat="43.72284" lon="6.96848">
        <ele>766</ele>
        <time>2016-09-25T07:11:37Z</time>
      </trkpt>
      <trkpt lat="43.72284" lon="6.96842">
        <ele>765.4</ele>
        <time>2016-09-25T07:11:39Z</time>
      </trkpt>
      <trkpt lat="43.72283" lon="6.96836">
        <ele>764.9</ele>
        <time>2016-09-25T07:11:41Z</time>
      </trkpt>
      <trkpt lat="43.72282" lon="6.9683">
        <ele>764.2</ele>
        <time>2016-09-25T07:11:43Z</time>
      </trkpt>
      <trkpt lat="43.72281" lon="6.96824">
        <ele>763.6</ele>
        <time>2016-09-25T07:11:45Z</time>
      </trkpt>
      <trkpt lat="43.72279" lon="6.96818">
        <ele>762.9</ele>
        <time>2016-09-25T07:11:47Z</time>
      </trkpt>
      <trkpt lat="43.72279" lon="6.96812">
        <ele>762.3</ele>
        <time>2016-09-25T07:11:49Z</time>
      </trkpt>
      <trkpt lat="43.72278" lon="6.96805">
        <ele>761.9</ele>
        <time>2016-09-25T07:11:51Z</time>
      </trkpt>
      <trkpt lat="43.72278" lon="6.96799">
        <ele>761.6</ele>
        <time>2016-09-25T07:11:53Z</time>
      </trkpt>
      <trkpt lat="43.72278" lon="6.96792">
        <ele>761.5</ele>
        <time>2016-09-25T07:11:55Z</time>
      </trkpt>
      <trkpt lat="43.72277" lon="6.96786">
        <ele>761.4</ele>
        <time>2016-09-25T07:11:57Z</time>
      </trkpt>
      <trkpt lat="43.72278" lon="6.9678">
        <ele>761.6</ele>
        <time>2016-09-25T07:11:59Z</time>
      </trkpt>
      <trkpt lat="43.72278" lon="6.96774">
        <ele>762</ele>
        <time>2016-09-25T07:12:01Z</time>
      </trkpt>
      <trkpt lat="43.7228" lon="6.96769">
        <ele>762.8</ele>
        <time>2016-09-25T07:12:03Z</time>
      </trkpt>
      <trkpt lat="43.72283" lon="6.96764">
        <ele>764</ele>
        <time>2016-09-25T07:12:05Z</time>
      </trkpt>
      <trkpt lat="43.72287" lon="6.96761">
        <ele>765.4</ele>
        <time>2016-09-25T07:12:07Z</time>
      </trkpt>
      <trkpt lat="43.72291" lon="6.96757">
        <ele>766.7</ele>
        <time>2016-09-25T07:12:09Z</time>
      </trkpt>
      <trkpt lat="43.72294" lon="6.96754">
        <ele>767.6</ele>
        <time>2016-09-25T07:12:11Z</time>
      </trkpt>
      <trkpt lat="43.72298" lon="6.96751">
        <ele>768.2</ele>
        <time>2016-09-25T07:12:13Z</time>
      </trkpt>
      <trkpt lat="43.72302" lon="6.96748">
        <ele>768.8</ele>
        <time>2016-09-25T07:12:15Z</time>
      </trkpt>
      <trkpt lat="43.72306" lon="6.96747">
        <ele>769.5</ele>
        <time>2016-09-25T07:12:17Z</time>
      </trkpt>
      <trkpt lat="43.7231" lon="6.96747">
        <ele>770.2</ele>
        <time>2016-09-25T07:12:19Z</time>
      </trkpt>
      <trkpt lat="43.72315" lon="6.96746">
        <ele>770.9</ele>
        <time>2016-09-25T07:12:21Z</time>
      </trkpt>
      <trkpt lat="43.72319" lon="6.96745">
        <ele>771.7</ele>
        <time>2016-09-25T07:12:23Z</time>
      </trkpt>
      <trkpt lat="43.72324" lon="6.96746">
        <ele>772.5</ele>
        <time>2016-09-25T07:12:25Z</time>
      </trkpt>
      <trkpt lat="43.72328" lon="6.96747">
        <ele>773.4</ele>
        <time>2016-09-25T07:12:27Z</time>
      </trkpt>
      <trkpt lat="43.72333" lon="6.96749">
        <ele>774.3</ele>
        <time>2016-09-25T07:12:29Z</time>
      </trkpt>
      <trkpt lat="43.72337" lon="6.96751">
        <ele>775.3</ele>
        <time>2016-09-25T07:12:31Z</time>
      </trkpt>
      <trkpt lat="43.72342" lon="6.96754">
        <ele>776.3</ele>
        <time>2016-09-25T07:12:33Z</time>
      </trkpt>
      <trkpt lat="43.72345" lon="6.96757">
        <ele>777.3</ele>
        <time>2016-09-25T07:12:35Z</time>
      </trkpt>
      <trkpt lat="43.72349" lon="6.96761">
        <ele>778.3</ele>
        <time>2016-09-25T07:12:37Z</time>
      </trkpt>
      <trkpt lat="43.72352" lon="6.96765">
        <ele>779.2</ele>
        <time>2016-09-25T07:12:39Z</time>
      </trkpt>
      <trkpt lat="43.72354" lon="6.9677">
        <ele>780.1</ele>
        <time>2016-09-25T07:12:41Z</time>
      </trkpt>
      <trkpt lat="43.72356" lon="6.96775">
        <ele>781.1</ele>
        <time>2016-09-25T07:12:43Z</time>
      </trkpt>
      <trkpt lat="43.72358" lon="6.9678">
        <ele>782</ele>
        <time>2016-09-25T07:12:45Z</time>
      </trkpt>
      <trkpt lat="43.7236" lon="6.96786">
        <ele>783</ele>
        <time>2016-09-25T07:12:47Z</time>
      </trkpt>
      <trkpt lat="43.72362" lon="6.96792">
        <ele>784</ele>
        <time>2016-09-25T07:12:49Z</time>
      </trkpt>
      <trkpt lat="43.72364" lon="6.96798">
        <ele>785.2</ele>
        <time>2016-09-25T07:12:51Z</time>
      </trkpt>
      <trkpt lat="43.72365" lon="6.96804">
        <ele>786.4</ele>
        <time>2016-09-25T07:12:53Z</time>
      </trkpt>
      <trkpt lat="43.72367" lon="6.96809">
        <ele>787.4</ele>
        <time>2016-09-25T07:12:55Z</time>
      </trkpt>
      <trkpt lat="43.72369" lon="6.96815">
        <ele>788.6</ele>
        <time>2016-09-25T07:12:57Z</time>
      </trkpt>
      <trkpt lat="43.7237" lon="6.9682">
        <ele>789.8</ele>
        <time>2016-09-25T07:12:59Z</time>
      </trkpt>
      <trkpt lat="43.72371" lon="6.96826">
        <ele>790.9</ele>
        <time>2016-09-25T07:13:01Z</time>
      </trkpt>
      <trkpt lat="43.72372" lon="6.96832">
        <ele>791.9</ele>
        <time>2016-09-25T07:13:03Z</time>
      </trkpt>
      <trkpt lat="43.72373" lon="6.96838">
        <ele>793.2</ele>
        <time>2016-09-25T07:13:05Z</time>
      </trkpt>
      <trkpt lat="43.72375" lon="6.96844">
        <ele>794.4</ele>
        <time>2016-09-25T07:13:07Z</time>
      </trkpt>
      <trkpt lat="43.72376" lon="6.96849">
        <ele>795.3</ele>
        <time>2016-09-25T07:13:09Z</time>
      </trkpt>
      <trkpt lat="43.72378" lon="6.96855">
        <ele>796</ele>
        <time>2016-09-25T07:13:11Z</time>
      </trkpt>
      <trkpt lat="43.72379" lon="6.96861">
        <ele>796.7</ele>
        <time>2016-09-25T07:13:13Z</time>
      </trkpt>
      <trkpt lat="43.7238" lon="6.96866">
        <ele>797.4</ele>
        <time>2016-09-25T07:13:15Z</time>
      </trkpt>
      <trkpt lat="43.72381" lon="6.96872">
        <ele>798.1</ele>
        <time>2016-09-25T07:13:17Z</time>
      </trkpt>
      <trkpt lat="43.72384" lon="6.96877">
        <ele>798.4</ele>
        <time>2016-09-25T07:13:19Z</time>
      </trkpt>
      <trkpt lat="43.72386" lon="6.96883">
        <ele>798.3</ele>
        <time>2016-09-25T07:13:21Z</time>
      </trkpt>
      <trkpt lat="43.72388" lon="6.96888">
        <ele>798.4</ele>
        <time>2016-09-25T07:13:23Z</time>
      </trkpt>
      <trkpt lat="43.7239" lon="6.96894">
        <ele>798.4</ele>
        <time>2016-09-25T07:13:25Z</time>
      </trkpt>
      <trkpt lat="43.72393" lon="6.969">
        <ele>798.4</ele>
        <time>2016-09-25T07:13:27Z</time>
      </trkpt>
      <trkpt lat="43.72395" lon="6.96905">
        <ele>798.5</ele>
        <time>2016-09-25T07:13:29Z</time>
      </trkpt>
      <trkpt lat="43.72397" lon="6.96911">
        <ele>798.6</ele>
        <time>2016-09-25T07:13:31Z</time>
      </trkpt>
      <trkpt lat="43.72399" lon="6.96917">
        <ele>798.7</ele>
        <time>2016-09-25T07:13:33Z</time>
      </trkpt>
      <trkpt lat="43.72401" lon="6.96922">
        <ele>798.9</ele>
        <time>2016-09-25T07:13:35Z</time>
      </trkpt>
      <trkpt lat="43.72403" lon="6.96928">
        <ele>799</ele>
        <time>2016-09-25T07:13:37Z</time>
      </trkpt>
      <trkpt lat="43.72405" lon="6.96933">
        <ele>799.1</ele>
        <time>2016-09-25T07:13:39Z</time>
      </trkpt>
      <trkpt lat="43.72408" lon="6.96939">
        <ele>799.3</ele>
        <time>2016-09-25T07:13:41Z</time>
      </trkpt>
      <trkpt lat="43.7241" lon="6.96944">
        <ele>799.4</ele>
        <time>2016-09-25T07:13:43Z</time>
      </trkpt>
      <trkpt lat="43.72413" lon="6.96949">
        <ele>799.6</ele>
        <time>2016-09-25T07:13:45Z</time>
      </trkpt>
      <trkpt lat="43.72415" lon="6.96955">
        <ele>799.8</ele>
        <time>2016-09-25T07:13:47Z</time>
      </trkpt>
      <trkpt lat="43.72418" lon="6.9696">
        <ele>800.1</ele>
        <time>2016-09-25T07:13:49Z</time>
      </trkpt>
      <trkpt lat="43.72421" lon="6.96965">
        <ele>800.6</ele>
        <time>2016-09-25T07:13:51Z</time>
      </trkpt>
      <trkpt lat="43.72424" lon="6.9697">
        <ele>801.1</ele>
        <time>2016-09-25T07:13:53Z</time>
      </trkpt>
      <trkpt lat="43.72427" lon="6.96975">
        <ele>801.7</ele>
        <time>2016-09-25T07:13:55Z</time>
      </trkpt>
      <trkpt lat="43.72431" lon="6.96979">
        <ele>802.3</ele>
        <time>2016-09-25T07:13:57Z</time>
      </trkpt>
      <trkpt lat="43.72434" lon="6.96984">
        <ele>802.9</ele>
        <time>2016-09-25T07:13:59Z</time>
      </trkpt>
      <trkpt lat="43.72438" lon="6.96987">
        <ele>803.5</ele>
        <time>2016-09-25T07:14:01Z</time>
      </trkpt>
      <trkpt lat="43.72442" lon="6.96991">
        <ele>804.1</ele>
        <time>2016-09-25T07:14:03Z</time>
      </trkpt>
      <trkpt lat="43.72446" lon="6.96994">
        <ele>804.8</ele>
        <time>2016-09-25T07:14:05Z</time>
      </trkpt>
      <trkpt lat="43.7245" lon="6.96997">
        <ele>805.5</ele>
        <time>2016-09-25T07:14:07Z</time>
      </trkpt>
      <trkpt lat="43.72454" lon="6.96999">
        <ele>806.1</ele>
        <time>2016-09-25T07:14:09Z</time>
      </trkpt>
      <trkpt lat="43.72459" lon="6.97001">
        <ele>806.7</ele>
        <time>2016-09-25T07:14:11Z</time>
      </trkpt>
      <trkpt lat="43.72463" lon="6.97003">
        <ele>807</ele>
        <time>2016-09-25T07:14:13Z</time>
      </trkpt>
      <trkpt lat="43.72468" lon="6.97006">
        <ele>807.4</ele>
        <time>2016-09-25T07:14:15Z</time>
      </trkpt>
      <trkpt lat="43.72472" lon="6.97009">
        <ele>807.7</ele>
        <time>2016-09-25T07:14:17Z</time>
      </trkpt>
      <trkpt lat="43.72476" lon="6.97011">
        <ele>808</ele>
        <time>2016-09-25T07:14:19Z</time>
      </trkpt>
      <trkpt lat="43.7248" lon="6.97015">
        <ele>808.4</ele>
        <time>2016-09-25T07:14:21Z</time>
      </trkpt>
      <trkpt lat="43.72483" lon="6.97019">
        <ele>808.9</ele>
        <time>2016-09-25T07:14:23Z</time>
      </trkpt>
      <trkpt lat="43.72486" lon="6.97023">
        <ele>809.4</ele>
        <time>2016-09-25T07:14:25Z</time>
      </trkpt>
      <trkpt lat="43.72488" lon="6.97028">
        <ele>810</ele>
        <time>2016-09-25T07:14:27Z</time>
      </trkpt>
      <trkpt lat="43.72489" lon="6.97034">
        <ele>810.8</ele>
        <time>2016-09-25T07:14:29Z</time>
      </trkpt>
      <trkpt lat="43.7249" lon="6.97041">
        <ele>811.6</ele>
        <time>2016-09-25T07:14:31Z</time>
      </trkpt>
      <trkpt lat="43.72491" lon="6.97047">
        <ele>812.3</ele>
        <time>2016-09-25T07:14:33Z</time>
      </trkpt>
      <trkpt lat="43.72491" lon="6.97054">
        <ele>813.1</ele>
        <time>2016-09-25T07:14:35Z</time>
      </trkpt>
      <trkpt lat="43.7249" lon="6.9706">
        <ele>813.9</ele>
        <time>2016-09-25T07:14:37Z</time>
      </trkpt>
      <trkpt lat="43.7249" lon="6.97067">
        <ele>814.7</ele>
        <time>2016-09-25T07:14:39Z</time>
      </trkpt>
      <trkpt lat="43.72488" lon="6.97073">
        <ele>815.6</ele>
        <time>2016-09-25T07:14:41Z</time>
      </trkpt>
      <trkpt lat="43.72487" lon="6.97079">
        <ele>816.5</ele>
        <time>2016-09-25T07:14:43Z</time>
      </trkpt>
      <trkpt lat="43.72484" lon="6.97085">
        <ele>817.3</ele>
        <time>2016-09-25T07:14:45Z</time>
      </trkpt>
      <trkpt lat="43.72482" lon="6.9709">
        <ele>818.2</ele>
        <time>2016-09-25T07:14:47Z</time>
      </trkpt>
      <trkpt lat="43.72479" lon="6.97095">
        <ele>819.1</ele>
        <time>2016-09-25T07:14:49Z</time>
      </trkpt>
      <trkpt lat="43.72476" lon="6.971">
        <ele>820</ele>
        <time>2016-09-25T07:14:51Z</time>
      </trkpt>
      <trkpt lat="43.72473" lon="6.97105">
        <ele>820.9</ele>
        <time>2016-09-25T07:14:53Z</time>
      </trkpt>
      <trkpt lat="43.7247" lon="6.9711">
        <ele>821.9</ele>
        <time>2016-09-25T07:14:55Z</time>
      </trkpt>
      <trkpt lat="43.72467" lon="6.97116">
        <ele>822.9</ele>
        <time>2016-09-25T07:14:57Z</time>
      </trkpt>
      <trkpt lat="43.72465" lon="6.97122">
        <ele>823.9</ele>
        <time>2016-09-25T07:14:59Z</time>
      </trkpt>
      <trkpt lat="43.72463" lon="6.97127">
        <ele>824.5</ele>
        <time>2016-09-25T07:15:01Z</time>
      </trkpt>
      <trkpt lat="43.72461" lon="6.97133">
        <ele>824.7</ele>
        <time>2016-09-25T07:15:03Z</time>
      </trkpt>
      <trkpt lat="43.72461" lon="6.9714">
        <ele>824.8</ele>
        <time>2016-09-25T07:15:05Z</time>
      </trkpt>
      <trkpt lat="43.72461" lon="6.97146">
        <ele>824.8</ele>
        <time>2016-09-25T07:15:07Z</time>
      </trkpt>
      <trkpt lat="43.72461" lon="6.97152">
        <ele>824.8</ele>
        <time>2016-09-25T07:15:09Z</time>
      </trkpt>
      <trkpt lat="43.72463" lon="6.97158">
        <ele>824.7</ele>
        <time>2016-09-25T07:15:11Z</time>
      </trkpt>
      <trkpt lat="43.72465" lon="6.97163">
        <ele>824.5</ele>
        <time>2016-09-25T07:15:13Z</time>
      </trkpt>
      <trkpt lat="43.72469" lon="6.97167">
        <ele>824.4</ele>
        <time>2016-09-25T07:15:15Z</time>
      </trkpt>
      <trkpt lat="43.72472" lon="6.9717">
        <ele>824.2</ele>
        <time>2016-09-25T07:15:17Z</time>
      </trkpt>
      <trkpt lat="43.72477" lon="6.97173">
        <ele>824</ele>
        <time>2016-09-25T07:15:19Z</time>
      </trkpt>
      <trkpt lat="43.72481" lon="6.97174">
        <ele>823.8</ele>
        <time>2016-09-25T07:15:21Z</time>
      </trkpt>
      <trkpt lat="43.72486" lon="6.97175">
        <ele>823.6</ele>
        <time>2016-09-25T07:15:23Z</time>
      </trkpt>
      <trkpt lat="43.7249" lon="6.97174">
        <ele>823.4</ele>
        <time>2016-09-25T07:15:25Z</time>
      </trkpt>
      <trkpt lat="43.72494" lon="6.97172">
        <ele>823.1</ele>
        <time>2016-09-25T07:15:27Z</time>
      </trkpt>
      <trkpt lat="43.72498" lon="6.97169">
        <ele>822.7</ele>
        <time>2016-09-25T07:15:29Z</time>
      </trkpt>
      <trkpt lat="43.72501" lon="6.97166">
        <ele>822.4</ele>
        <time>2016-09-25T07:15:31Z</time>
      </trkpt>
      <trkpt lat="43.72505" lon="6.97161">
        <ele>821.9</ele>
        <time>2016-09-25T07:15:33Z</time>
      </trkpt>
      <trkpt lat="43.72508" lon="6.97157">
        <ele>821.4</ele>
        <time>2016-09-25T07:15:35Z</time>
      </trkpt>
      <trkpt lat="43.72511" lon="6.97152">
        <ele>821</ele>
        <time>2016-09-25T07:15:37Z</time>
      </trkpt>
      <trkpt lat="43.72514" lon="6.97148">
        <ele>820.4</ele>
        <time>2016-09-25T07:15:39Z</time>
      </trkpt>
      <trkpt lat="43.72517" lon="6.97143">
        <ele>819.9</ele>
        <time>2016-09-25T07:15:41Z</time>
      </trkpt>
      <trkpt lat="43.72519" lon="6.97138">
        <ele>819.3</ele>
        <time>2016-09-25T07:15:43Z</time>
      </trkpt>
      <trkpt lat="43.72522" lon="6.97133">
        <ele>818.7</ele>
        <time>2016-09-25T07:15:45Z</time>
      </trkpt>
      <trkpt lat="43.72525" lon="6.97128">
        <ele>818</ele>
        <time>2016-09-25T07:15:47Z</time>
      </trkpt>
      <trkpt lat="43.72528" lon="6.97123">
        <ele>817.3</ele>
        <time>2016-09-25T07:15:49Z</time>
      </trkpt>
      <trkpt lat="43.72531" lon="6.97117">
        <ele>816.4</ele>
        <time>2016-09-25T07:15:51Z</time>
      </trkpt>
      <trkpt lat="43.72534" lon="6.97113">
        <ele>815.6</ele>
        <time>2016-09-25T07:15:53Z</time>
      </trkpt>
      <trkpt lat="43.72538" lon="6.97109">
        <ele>814.8</ele>
        <time>2016-09-25T07:15:55Z</time>
      </trkpt>
      <trkpt lat="43.72541" lon="6.97104">
        <ele>814.1</ele>
        <time>2016-09-25T07:15:57Z</time>
      </trkpt>
      <trkpt lat="43.72544" lon="6.971">
        <ele>814.1</ele>
        <time>2016-09-25T07:15:59Z</time>
      </trkpt>
      <trkpt lat="43.72547" lon="6.97095">
        <ele>814.1</ele>
        <time>2016-09-25T07:16:01Z</time>
      </trkpt>
      <trkpt lat="43.72549" lon="6.9709">
        <ele>814.1</ele>
        <time>2016-09-25T07:16:03Z</time>
      </trkpt>
      <trkpt lat="43.72552" lon="6.97085">
        <ele>814.2</ele>
        <time>2016-09-25T07:16:05Z</time>
      </trkpt>
      <trkpt lat="43.72555" lon="6.97081">
        <ele>814.3</ele>
        <time>2016-09-25T07:16:07Z</time>
      </trkpt>
      <trkpt lat="43.72558" lon="6.97077">
        <ele>814.5</ele>
        <time>2016-09-25T07:16:09Z</time>
      </trkpt>
      <trkpt lat="43.72561" lon="6.97073">
        <ele>814.7</ele>
        <time>2016-09-25T07:16:11Z</time>
      </trkpt>
      <trkpt lat="43.72564" lon="6.97068">
        <ele>814.9</ele>
        <time>2016-09-25T07:16:13Z</time>
      </trkpt>
      <trkpt lat="43.72566" lon="6.97064">
        <ele>815</ele>
        <time>2016-09-25T07:16:15Z</time>
      </trkpt>
      <trkpt lat="43.72569" lon="6.9706">
        <ele>815.1</ele>
        <time>2016-09-25T07:16:17Z</time>
      </trkpt>
      <trkpt lat="43.72572" lon="6.97056">
        <ele>815.4</ele>
        <time>2016-09-25T07:16:19Z</time>
      </trkpt>
      <trkpt lat="43.72575" lon="6.97052">
        <ele>815.7</ele>
        <time>2016-09-25T07:16:21Z</time>
      </trkpt>
      <trkpt lat="43.72578" lon="6.97047">
        <ele>816</ele>
        <time>2016-09-25T07:16:23Z</time>
      </trkpt>
      <trkpt lat="43.72582" lon="6.97043">
        <ele>816.3</ele>
        <time>2016-09-25T07:16:25Z</time>
      </trkpt>
      <trkpt lat="43.72585" lon="6.97039">
        <ele>816.8</ele>
        <time>2016-09-25T07:16:27Z</time>
      </trkpt>
      <trkpt lat="43.72588" lon="6.97034">
        <ele>817.2</ele>
        <time>2016-09-25T07:16:29Z</time>
      </trkpt>
      <trkpt lat="43.72591" lon="6.97029">
        <ele>817.8</ele>
        <time>2016-09-25T07:16:31Z</time>
      </trkpt>
      <trkpt lat="43.72594" lon="6.97024">
        <ele>818.3</ele>
        <time>2016-09-25T07:16:33Z</time>
      </trkpt>
      <trkpt lat="43.72598" lon="6.97019">
        <ele>819</ele>
        <time>2016-09-25T07:16:35Z</time>
      </trkpt>
      <trkpt lat="43.726" lon="6.97014">
        <ele>819.5</ele>
        <time>2016-09-25T07:16:37Z</time>
      </trkpt>
      <trkpt lat="43.72603" lon="6.97009">
        <ele>820</ele>
        <time>2016-09-25T07:16:39Z</time>
      </trkpt>
      <trkpt lat="43.72606" lon="6.97005">
        <ele>820.5</ele>
        <time>2016-09-25T07:16:41Z</time>
      </trkpt>
      <trkpt lat="43.72608" lon="6.97001">
        <ele>821.1</ele>
        <time>2016-09-25T07:16:43Z</time>
      </trkpt>
      <trkpt lat="43.72611" lon="6.96996">
        <ele>821.6</ele>
        <time>2016-09-25T07:16:45Z</time>
      </trkpt>
      <trkpt lat="43.72613" lon="6.96991">
        <ele>822.1</ele>
        <time>2016-09-25T07:16:47Z</time>
      </trkpt>
      <trkpt lat="43.72616" lon="6.96986">
        <ele>822.7</ele>
        <time>2016-09-25T07:16:49Z</time>
      </trkpt>
      <trkpt lat="43.72618" lon="6.96982">
        <ele>823.3</ele>
        <time>2016-09-25T07:16:51Z</time>
      </trkpt>
      <trkpt lat="43.72621" lon="6.96977">
        <ele>823.9</ele>
        <time>2016-09-25T07:16:53Z</time>
      </trkpt>
      <trkpt lat="43.72623" lon="6.96971">
        <ele>824.4</ele>
        <time>2016-09-25T07:16:55Z</time>
      </trkpt>
      <trkpt lat="43.72625" lon="6.96966">
        <ele>825</ele>
        <time>2016-09-25T07:16:57Z</time>
      </trkpt>
      <trkpt lat="43.72628" lon="6.96961">
        <ele>825.6</ele>
        <time>2016-09-25T07:16:59Z</time>
      </trkpt>
      <trkpt lat="43.7263" lon="6.96956">
        <ele>826</ele>
        <time>2016-09-25T07:17:01Z</time>
      </trkpt>
      <trkpt lat="43.72632" lon="6.96951">
        <ele>826.5</ele>
        <time>2016-09-25T07:17:03Z</time>
      </trkpt>
      <trkpt lat="43.72633" lon="6.96945">
        <ele>826.8</ele>
        <time>2016-09-25T07:17:05Z</time>
      </trkpt>
      <trkpt lat="43.72635" lon="6.96939">
        <ele>827.2</ele>
        <time>2016-09-25T07:17:07Z</time>
      </trkpt>
      <trkpt lat="43.72637" lon="6.96935">
        <ele>827.7</ele>
        <time>2016-09-25T07:17:09Z</time>
      </trkpt>
      <trkpt lat="43.7264" lon="6.9693">
        <ele>828.1</ele>
        <time>2016-09-25T07:17:11Z</time>
      </trkpt>
      <trkpt lat="43.72642" lon="6.96925">
        <ele>828.5</ele>
        <time>2016-09-25T07:17:13Z</time>
      </trkpt>
      <trkpt lat="43.72644" lon="6.9692">
        <ele>828.9</ele>
        <time>2016-09-25T07:17:15Z</time>
      </trkpt>
      <trkpt lat="43.72646" lon="6.96915">
        <ele>829.3</ele>
        <time>2016-09-25T07:17:17Z</time>
      </trkpt>
      <trkpt lat="43.72648" lon="6.9691">
        <ele>829.6</ele>
        <time>2016-09-25T07:17:19Z</time>
      </trkpt>
      <trkpt lat="43.7265" lon="6.96905">
        <ele>829.9</ele>
        <time>2016-09-25T07:17:21Z</time>
      </trkpt>
      <trkpt lat="43.72652" lon="6.969">
        <ele>830.2</ele>
        <time>2016-09-25T07:17:23Z</time>
      </trkpt>
      <trkpt lat="43.72654" lon="6.96895">
        <ele>830.5</ele>
        <time>2016-09-25T07:17:25Z</time>
      </trkpt>
      <trkpt lat="43.72657" lon="6.96891">
        <ele>830.8</ele>
        <time>2016-09-25T07:17:27Z</time>
      </trkpt>
      <trkpt lat="43.72659" lon="6.96887">
        <ele>831.2</ele>
        <time>2016-09-25T07:17:29Z</time>
      </trkpt>
      <trkpt lat="43.72662" lon="6.96882">
        <ele>831.4</ele>
        <time>2016-09-25T07:17:31Z</time>
      </trkpt>
      <trkpt lat="43.72664" lon="6.96877">
        <ele>831.6</ele>
        <time>2016-09-25T07:17:33Z</time>
      </trkpt>
      <trkpt lat="43.72666" lon="6.96872">
        <ele>831.9</ele>
        <time>2016-09-25T07:17:35Z</time>
      </trkpt>
      <trkpt lat="43.72669" lon="6.96868">
        <ele>832.3</ele>
        <time>2016-09-25T07:17:37Z</time>
      </trkpt>
      <trkpt lat="43.72671" lon="6.96863">
        <ele>832.7</ele>
        <time>2016-09-25T07:17:39Z</time>
      </trkpt>
      <trkpt lat="43.72673" lon="6.96857">
        <ele>833</ele>
        <time>2016-09-25T07:17:41Z</time>
      </trkpt>
      <trkpt lat="43.72675" lon="6.96852">
        <ele>833.3</ele>
        <time>2016-09-25T07:17:43Z</time>
      </trkpt>
      <trkpt lat="43.72678" lon="6.96847">
        <ele>833.5</ele>
        <time>2016-09-25T07:17:45Z</time>
      </trkpt>
      <trkpt lat="43.7268" lon="6.96843">
        <ele>833.8</ele>
        <time>2016-09-25T07:17:47Z</time>
      </trkpt>
      <trkpt lat="43.72682" lon="6.96838">
        <ele>834</ele>
        <time>2016-09-25T07:17:49Z</time>
      </trkpt>
      <trkpt lat="43.72684" lon="6.96833">
        <ele>834.3</ele>
        <time>2016-09-25T07:17:51Z</time>
      </trkpt>
      <trkpt lat="43.72687" lon="6.96828">
        <ele>834.5</ele>
        <time>2016-09-25T07:17:53Z</time>
      </trkpt>
      <trkpt lat="43.72689" lon="6.96823">
        <ele>834.7</ele>
        <time>2016-09-25T07:17:55Z</time>
      </trkpt>
      <trkpt lat="43.72691" lon="6.96818">
        <ele>834.9</ele>
        <time>2016-09-25T07:17:57Z</time>
      </trkpt>
      <trkpt lat="43.72693" lon="6.96813">
        <ele>835</ele>
        <time>2016-09-25T07:17:59Z</time>
      </trkpt>
      <trkpt lat="43.72695" lon="6.96807">
        <ele>835.1</ele>
        <time>2016-09-25T07:18:01Z</time>
      </trkpt>
      <trkpt lat="43.72697" lon="6.96802">
        <ele>835.2</ele>
        <time>2016-09-25T07:18:03Z</time>
      </trkpt>
      <trkpt lat="43.72699" lon="6.96797">
        <ele>835.3</ele>
        <time>2016-09-25T07:18:05Z</time>
      </trkpt>
      <trkpt lat="43.72701" lon="6.96792">
        <ele>835.4</ele>
        <time>2016-09-25T07:18:07Z</time>
      </trkpt>
      <trkpt lat="43.72703" lon="6.96788">
        <ele>835.5</ele>
        <time>2016-09-25T07:18:09Z</time>
      </trkpt>
      <trkpt lat="43.72705" lon="6.96783">
        <ele>835.6</ele>
        <time>2016-09-25T07:18:11Z</time>
      </trkpt>
      <trkpt lat="43.72707" lon="6.96778">
        <ele>835.7</ele>
        <time>2016-09-25T07:18:13Z</time>
      </trkpt>
      <trkpt lat="43.72708" lon="6.96772">
        <ele>835.8</ele>
        <time>2016-09-25T07:18:15Z</time>
      </trkpt>
      <trkpt lat="43.72709" lon="6.96767">
        <ele>835.9</ele>
        <time>2016-09-25T07:18:17Z</time>
      </trkpt>
      <trkpt lat="43.7271" lon="6.96761">
        <ele>836.1</ele>
        <time>2016-09-25T07:18:19Z</time>
      </trkpt>
      <trkpt lat="43.72711" lon="6.96755">
        <ele>836.4</ele>
        <time>2016-09-25T07:18:21Z</time>
      </trkpt>
      <trkpt lat="43.72713" lon="6.96749">
        <ele>836.8</ele>
        <time>2016-09-25T07:18:23Z</time>
      </trkpt>
      <trkpt lat="43.72714" lon="6.96744">
        <ele>837.2</ele>
        <time>2016-09-25T07:18:25Z</time>
      </trkpt>
      <trkpt lat="43.72715" lon="6.96737">
        <ele>837.5</ele>
        <time>2016-09-25T07:18:27Z</time>
      </trkpt>
      <trkpt lat="43.72716" lon="6.96731">
        <ele>837.8</ele>
        <time>2016-09-25T07:18:29Z</time>
      </trkpt>
      <trkpt lat="43.72717" lon="6.96725">
        <ele>838</ele>
        <time>2016-09-25T07:18:31Z</time>
      </trkpt>
      <trkpt lat="43.72718" lon="6.96718">
        <ele>838.3</ele>
        <time>2016-09-25T07:18:33Z</time>
      </trkpt>
      <trkpt lat="43.72719" lon="6.96711">
        <ele>838.7</ele>
        <time>2016-09-25T07:18:35Z</time>
      </trkpt>
      <trkpt lat="43.7272" lon="6.96705">
        <ele>839.1</ele>
        <time>2016-09-25T07:18:37Z</time>
      </trkpt>
      <trkpt lat="43.72721" lon="6.96698">
        <ele>839.3</ele>
        <time>2016-09-25T07:18:39Z</time>
      </trkpt>
      <trkpt lat="43.72721" lon="6.96692">
        <ele>839.5</ele>
        <time>2016-09-25T07:18:41Z</time>
      </trkpt>
      <trkpt lat="43.72722" lon="6.96686">
        <ele>839.8</ele>
        <time>2016-09-25T07:18:43Z</time>
      </trkpt>
      <trkpt lat="43.72723" lon="6.9668">
        <ele>840</ele>
        <time>2016-09-25T07:18:45Z</time>
      </trkpt>
      <trkpt lat="43.72724" lon="6.96674">
        <ele>840.5</ele>
        <time>2016-09-25T07:18:47Z</time>
      </trkpt>
      <trkpt lat="43.72725" lon="6.96669">
        <ele>841</ele>
        <time>2016-09-25T07:18:49Z</time>
      </trkpt>
      <trkpt lat="43.72726" lon="6.96664">
        <ele>841.3</ele>
        <time>2016-09-25T07:18:51Z</time>
      </trkpt>
      <trkpt lat="43.72727" lon="6.96658">
        <ele>841.6</ele>
        <time>2016-09-25T07:18:53Z</time>
      </trkpt>
      <trkpt lat="43.72727" lon="6.96652">
        <ele>841.9</ele>
        <time>2016-09-25T07:18:55Z</time>
      </trkpt>
      <trkpt lat="43.72729" lon="6.96646">
        <ele>842.4</ele>
        <time>2016-09-25T07:18:57Z</time>
      </trkpt>
      <trkpt lat="43.72729" lon="6.9664">
        <ele>842.7</ele>
        <time>2016-09-25T07:18:59Z</time>
      </trkpt>
      <trkpt lat="43.7273" lon="6.96634">
        <ele>842.8</ele>
        <time>2016-09-25T07:19:01Z</time>
      </trkpt>
      <trkpt lat="43.7273" lon="6.96628">
        <ele>843</ele>
        <time>2016-09-25T07:19:03Z</time>
      </trkpt>
      <trkpt lat="43.72731" lon="6.96622">
        <ele>843.5</ele>
        <time>2016-09-25T07:19:05Z</time>
      </trkpt>
      <trkpt lat="43.72731" lon="6.96615">
        <ele>843.9</ele>
        <time>2016-09-25T07:19:07Z</time>
      </trkpt>
      <trkpt lat="43.72732" lon="6.96609">
        <ele>844.4</ele>
        <time>2016-09-25T07:19:09Z</time>
      </trkpt>
      <trkpt lat="43.72733" lon="6.96603">
        <ele>844.9</ele>
        <time>2016-09-25T07:19:11Z</time>
      </trkpt>
      <trkpt lat="43.72733" lon="6.96597">
        <ele>845.3</ele>
        <time>2016-09-25T07:19:13Z</time>
      </trkpt>
      <trkpt lat="43.72734" lon="6.96591">
        <ele>845.8</ele>
        <time>2016-09-25T07:19:15Z</time>
      </trkpt>
      <trkpt lat="43.72735" lon="6.96585">
        <ele>846.5</ele>
        <time>2016-09-25T07:19:17Z</time>
      </trkpt>
      <trkpt lat="43.72736" lon="6.96579">
        <ele>847</ele>
        <time>2016-09-25T07:19:19Z</time>
      </trkpt>
      <trkpt lat="43.72736" lon="6.96573">
        <ele>847.3</ele>
        <time>2016-09-25T07:19:21Z</time>
      </trkpt>
      <trkpt lat="43.72735" lon="6.96568">
        <ele>847.3</ele>
        <time>2016-09-25T07:19:23Z</time>
      </trkpt>
      <trkpt lat="43.72736" lon="6.96562">
        <ele>847.7</ele>
        <time>2016-09-25T07:19:25Z</time>
      </trkpt>
      <trkpt lat="43.72736" lon="6.96556">
        <ele>848.2</ele>
        <time>2016-09-25T07:19:27Z</time>
      </trkpt>
      <trkpt lat="43.72737" lon="6.9655">
        <ele>848.6</ele>
        <time>2016-09-25T07:19:29Z</time>
      </trkpt>
      <trkpt lat="43.72737" lon="6.96544">
        <ele>848.9</ele>
        <time>2016-09-25T07:19:31Z</time>
      </trkpt>
      <trkpt lat="43.72737" lon="6.96538">
        <ele>849.3</ele>
        <time>2016-09-25T07:19:33Z</time>
      </trkpt>
      <trkpt lat="43.72737" lon="6.96532">
        <ele>849.7</ele>
        <time>2016-09-25T07:19:35Z</time>
      </trkpt>
      <trkpt lat="43.72737" lon="6.96526">
        <ele>850</ele>
        <time>2016-09-25T07:19:37Z</time>
      </trkpt>
      <trkpt lat="43.72737" lon="6.9652">
        <ele>850.3</ele>
        <time>2016-09-25T07:19:39Z</time>
      </trkpt>
      <trkpt lat="43.72737" lon="6.96515">
        <ele>850.7</ele>
        <time>2016-09-25T07:19:41Z</time>
      </trkpt>
      <trkpt lat="43.72737" lon="6.96509">
        <ele>851</ele>
        <time>2016-09-25T07:19:43Z</time>
      </trkpt>
      <trkpt lat="43.72737" lon="6.96503">
        <ele>851.3</ele>
        <time>2016-09-25T07:19:45Z</time>
      </trkpt>
      <trkpt lat="43.72738" lon="6.96497">
        <ele>851.8</ele>
        <time>2016-09-25T07:19:47Z</time>
      </trkpt>
      <trkpt lat="43.72738" lon="6.96491">
        <ele>852.2</ele>
        <time>2016-09-25T07:19:49Z</time>
      </trkpt>
      <trkpt lat="43.72737" lon="6.96485">
        <ele>852.4</ele>
        <time>2016-09-25T07:19:51Z</time>
      </trkpt>
      <trkpt lat="43.72737" lon="6.96479">
        <ele>852.4</ele>
        <time>2016-09-25T07:19:53Z</time>
      </trkpt>
      <trkpt lat="43.72736" lon="6.96473">
        <ele>852.6</ele>
        <time>2016-09-25T07:19:55Z</time>
      </trkpt>
      <trkpt lat="43.72736" lon="6.96467">
        <ele>852.8</ele>
        <time>2016-09-25T07:19:57Z</time>
      </trkpt>
      <trkpt lat="43.72735" lon="6.96462">
        <ele>852.8</ele>
        <time>2016-09-25T07:19:59Z</time>
      </trkpt>
      <trkpt lat="43.72735" lon="6.96456">
        <ele>853</ele>
        <time>2016-09-25T07:20:01Z</time>
      </trkpt>
      <trkpt lat="43.72735" lon="6.9645">
        <ele>853.3</ele>
        <time>2016-09-25T07:20:03Z</time>
      </trkpt>
      <trkpt lat="43.72735" lon="6.96444">
        <ele>853.4</ele>
        <time>2016-09-25T07:20:05Z</time>
      </trkpt>
      <trkpt lat="43.72735" lon="6.96438">
        <ele>853.6</ele>
        <time>2016-09-25T07:20:07Z</time>
      </trkpt>
      <trkpt lat="43.72735" lon="6.96431">
        <ele>853.8</ele>
        <time>2016-09-25T07:20:09Z</time>
      </trkpt>
      <trkpt lat="43.72735" lon="6.96425">
        <ele>854.1</ele>
        <time>2016-09-25T07:20:11Z</time>
      </trkpt>
      <trkpt lat="43.72735" lon="6.96419">
        <ele>854.3</ele>
        <time>2016-09-25T07:20:13Z</time>
      </trkpt>
      <trkpt lat="43.72734" lon="6.96413">
        <ele>854.5</ele>
        <time>2016-09-25T07:20:15Z</time>
      </trkpt>
      <trkpt lat="43.72734" lon="6.96407">
        <ele>854.6</ele>
        <time>2016-09-25T07:20:17Z</time>
      </trkpt>
      <trkpt lat="43.72734" lon="6.96401">
        <ele>854.7</ele>
        <time>2016-09-25T07:20:19Z</time>
      </trkpt>
      <trkpt lat="43.72733" lon="6.96395">
        <ele>854.8</ele>
        <time>2016-09-25T07:20:21Z</time>
      </trkpt>
      <trkpt lat="43.72733" lon="6.96389">
        <ele>854.9</ele>
        <time>2016-09-25T07:20:23Z</time>
      </trkpt>
      <trkpt lat="43.72733" lon="6.96383">
        <ele>855.3</ele>
        <time>2016-09-25T07:20:25Z</time>
      </trkpt>
      <trkpt lat="43.72733" lon="6.96377">
        <ele>855.4</ele>
        <time>2016-09-25T07:20:27Z</time>
      </trkpt>
      <trkpt lat="43.72733" lon="6.9637">
        <ele>855.2</ele>
        <time>2016-09-25T07:20:29Z</time>
      </trkpt>
      <trkpt lat="43.72733" lon="6.96364">
        <ele>854.8</ele>
        <time>2016-09-25T07:20:31Z</time>
      </trkpt>
      <trkpt lat="43.72732" lon="6.96358">
        <ele>854</ele>
        <time>2016-09-25T07:20:33Z</time>
      </trkpt>
      <trkpt lat="43.72731" lon="6.96352">
        <ele>853.2</ele>
        <time>2016-09-25T07:20:35Z</time>
      </trkpt>
      <trkpt lat="43.7273" lon="6.96345">
        <ele>852.7</ele>
        <time>2016-09-25T07:20:37Z</time>
      </trkpt>
      <trkpt lat="43.7273" lon="6.96339">
        <ele>852.2</ele>
        <time>2016-09-25T07:20:39Z</time>
      </trkpt>
      <trkpt lat="43.72729" lon="6.96333">
        <ele>851.6</ele>
        <time>2016-09-25T07:20:41Z</time>
      </trkpt>
      <trkpt lat="43.72729" lon="6.96327">
        <ele>851.3</ele>
        <time>2016-09-25T07:20:43Z</time>
      </trkpt>
      <trkpt lat="43.72729" lon="6.96321">
        <ele>851</ele>
        <time>2016-09-25T07:20:45Z</time>
      </trkpt>
      <trkpt lat="43.72729" lon="6.96316">
        <ele>850.7</ele>
        <time>2016-09-25T07:20:47Z</time>
      </trkpt>
      <trkpt lat="43.72729" lon="6.9631">
        <ele>850.5</ele>
        <time>2016-09-25T07:20:49Z</time>
      </trkpt>
      <trkpt lat="43.72729" lon="6.96304">
        <ele>850.2</ele>
        <time>2016-09-25T07:20:51Z</time>
      </trkpt>
      <trkpt lat="43.72729" lon="6.96297">
        <ele>849.9</ele>
        <time>2016-09-25T07:20:53Z</time>
      </trkpt>
      <trkpt lat="43.72729" lon="6.96291">
        <ele>849.9</ele>
        <time>2016-09-25T07:20:55Z</time>
      </trkpt>
      <trkpt lat="43.72729" lon="6.96285">
        <ele>848.9</ele>
        <time>2016-09-25T07:20:57Z</time>
      </trkpt>
      <trkpt lat="43.72729" lon="6.96279">
        <ele>847.7</ele>
        <time>2016-09-25T07:20:59Z</time>
      </trkpt>
      <trkpt lat="43.72729" lon="6.96272">
        <ele>846.7</ele>
        <time>2016-09-25T07:21:01Z</time>
      </trkpt>
      <trkpt lat="43.72729" lon="6.96266">
        <ele>845.5</ele>
        <time>2016-09-25T07:21:03Z</time>
      </trkpt>
      <trkpt lat="43.72729" lon="6.96259">
        <ele>844.7</ele>
        <time>2016-09-25T07:21:05Z</time>
      </trkpt>
      <trkpt lat="43.7273" lon="6.96253">
        <ele>844.1</ele>
        <time>2016-09-25T07:21:07Z</time>
      </trkpt>
      <trkpt lat="43.72731" lon="6.96247">
        <ele>843.8</ele>
        <time>2016-09-25T07:21:09Z</time>
      </trkpt>
      <trkpt lat="43.72733" lon="6.9624">
        <ele>843.6</ele>
        <time>2016-09-25T07:21:11Z</time>
      </trkpt>
      <trkpt lat="43.72735" lon="6.96234">
        <ele>843.5</ele>
        <time>2016-09-25T07:21:13Z</time>
      </trkpt>
      <trkpt lat="43.72737" lon="6.96228">
        <ele>843.5</ele>
        <time>2016-09-25T07:21:15Z</time>
      </trkpt>
      <trkpt lat="43.72739" lon="6.96223">
        <ele>843.6</ele>
        <time>2016-09-25T07:21:17Z</time>
      </trkpt>
      <trkpt lat="43.72741" lon="6.96217">
        <ele>843.8</ele>
        <time>2016-09-25T07:21:19Z</time>
      </trkpt>
      <trkpt lat="43.72743" lon="6.96212">
        <ele>844</ele>
        <time>2016-09-25T07:21:21Z</time>
      </trkpt>
      <trkpt lat="43.72745" lon="6.96207">
        <ele>844.3</ele>
        <time>2016-09-25T07:21:23Z</time>
      </trkpt>
      <trkpt lat="43.72747" lon="6.96201">
        <ele>844.7</ele>
        <time>2016-09-25T07:21:25Z</time>
      </trkpt>
      <trkpt lat="43.72749" lon="6.96196">
        <ele>844.8</ele>
        <time>2016-09-25T07:21:27Z</time>
      </trkpt>
      <trkpt lat="43.72751" lon="6.9619">
        <ele>844.8</ele>
        <time>2016-09-25T07:21:29Z</time>
      </trkpt>
      <trkpt lat="43.72753" lon="6.96185">
        <ele>845</ele>
        <time>2016-09-25T07:21:31Z</time>
      </trkpt>
      <trkpt lat="43.72756" lon="6.9618">
        <ele>845.2</ele>
        <time>2016-09-25T07:21:33Z</time>
      </trkpt>
      <trkpt lat="43.72758" lon="6.96175">
        <ele>845.5</ele>
        <time>2016-09-25T07:21:35Z</time>
      </trkpt>
      <trkpt lat="43.7276" lon="6.9617">
        <ele>845.7</ele>
        <time>2016-09-25T07:21:37Z</time>
      </trkpt>
      <trkpt lat="43.72763" lon="6.96165">
        <ele>845.8</ele>
        <time>2016-09-25T07:21:39Z</time>
      </trkpt>
      <trkpt lat="43.72765" lon="6.96161">
        <ele>846</ele>
        <time>2016-09-25T07:21:41Z</time>
      </trkpt>
      <trkpt lat="43.72768" lon="6.96156">
        <ele>846.2</ele>
        <time>2016-09-25T07:21:43Z</time>
      </trkpt>
      <trkpt lat="43.72771" lon="6.96151">
        <ele>846.3</ele>
        <time>2016-09-25T07:21:45Z</time>
      </trkpt>
      <trkpt lat="43.72774" lon="6.96147">
        <ele>846.6</ele>
        <time>2016-09-25T07:21:47Z</time>
      </trkpt>
      <trkpt lat="43.72778" lon="6.96143">
        <ele>846.8</ele>
        <time>2016-09-25T07:21:49Z</time>
      </trkpt>
      <trkpt lat="43.72781" lon="6.96138">
        <ele>847</ele>
        <time>2016-09-25T07:21:51Z</time>
      </trkpt>
      <trkpt lat="43.72784" lon="6.96134">
        <ele>846.9</ele>
        <time>2016-09-25T07:21:53Z</time>
      </trkpt>
      <trkpt lat="43.72787" lon="6.96129">
        <ele>846.6</ele>
        <time>2016-09-25T07:21:55Z</time>
      </trkpt>
      <trkpt lat="43.72791" lon="6.96126">
        <ele>846.8</ele>
        <time>2016-09-25T07:21:57Z</time>
      </trkpt>
      <trkpt lat="43.72794" lon="6.96122">
        <ele>847.6</ele>
        <time>2016-09-25T07:21:59Z</time>
      </trkpt>
      <trkpt lat="43.72797" lon="6.96119">
        <ele>848.4</ele>
        <time>2016-09-25T07:22:01Z</time>
      </trkpt>
      <trkpt lat="43.72801" lon="6.96115">
        <ele>849.2</ele>
        <time>2016-09-25T07:22:03Z</time>
      </trkpt>
      <trkpt lat="43.72804" lon="6.96112">
        <ele>850</ele>
        <time>2016-09-25T07:22:05Z</time>
      </trkpt>
      <trkpt lat="43.72808" lon="6.96109">
        <ele>851</ele>
        <time>2016-09-25T07:22:07Z</time>
      </trkpt>
      <trkpt lat="43.72812" lon="6.96107">
        <ele>852</ele>
        <time>2016-09-25T07:22:09Z</time>
      </trkpt>
      <trkpt lat="43.72816" lon="6.96104">
        <ele>852.9</ele>
        <time>2016-09-25T07:22:11Z</time>
      </trkpt>
      <trkpt lat="43.72818" lon="6.96103">
        <ele>853.5</ele>
        <time>2016-09-25T07:22:12Z</time>
      </trkpt>
      <trkpt lat="43.72823" lon="6.961">
        <ele>854.4</ele>
        <time>2016-09-25T07:22:14Z</time>
      </trkpt>
      <trkpt lat="43.72827" lon="6.96098">
        <ele>855.2</ele>
        <time>2016-09-25T07:22:16Z</time>
      </trkpt>
      <trkpt lat="43.72831" lon="6.96097">
        <ele>856.2</ele>
        <time>2016-09-25T07:22:18Z</time>
      </trkpt>
      <trkpt lat="43.72834" lon="6.96095">
        <ele>856.9</ele>
        <time>2016-09-25T07:22:20Z</time>
      </trkpt>
      <trkpt lat="43.72838" lon="6.96092">
        <ele>857.3</ele>
        <time>2016-09-25T07:22:22Z</time>
      </trkpt>
      <trkpt lat="43.72842" lon="6.96089">
        <ele>857.8</ele>
        <time>2016-09-25T07:22:24Z</time>
      </trkpt>
      <trkpt lat="43.72845" lon="6.96086">
        <ele>858.2</ele>
        <time>2016-09-25T07:22:26Z</time>
      </trkpt>
      <trkpt lat="43.72849" lon="6.96084">
        <ele>858.7</ele>
        <time>2016-09-25T07:22:28Z</time>
      </trkpt>
      <trkpt lat="43.72853" lon="6.96081">
        <ele>858.9</ele>
        <time>2016-09-25T07:22:30Z</time>
      </trkpt>
      <trkpt lat="43.72857" lon="6.96078">
        <ele>859.2</ele>
        <time>2016-09-25T07:22:32Z</time>
      </trkpt>
      <trkpt lat="43.72861" lon="6.96076">
        <ele>859.6</ele>
        <time>2016-09-25T07:22:34Z</time>
      </trkpt>
      <trkpt lat="43.72865" lon="6.96073">
        <ele>859.7</ele>
        <time>2016-09-25T07:22:36Z</time>
      </trkpt>
      <trkpt lat="43.72869" lon="6.9607">
        <ele>859.6</ele>
        <time>2016-09-25T07:22:38Z</time>
      </trkpt>
      <trkpt lat="43.72873" lon="6.96067">
        <ele>859.6</ele>
        <time>2016-09-25T07:22:40Z</time>
      </trkpt>
      <trkpt lat="43.72876" lon="6.96065">
        <ele>859.8</ele>
        <time>2016-09-25T07:22:42Z</time>
      </trkpt>
      <trkpt lat="43.7288" lon="6.96063">
        <ele>860.2</ele>
        <time>2016-09-25T07:22:44Z</time>
      </trkpt>
      <trkpt lat="43.72885" lon="6.96061">
        <ele>860.6</ele>
        <time>2016-09-25T07:22:46Z</time>
      </trkpt>
      <trkpt lat="43.72889" lon="6.96059">
        <ele>861.2</ele>
        <time>2016-09-25T07:22:48Z</time>
      </trkpt>
      <trkpt lat="43.72893" lon="6.96056">
        <ele>861.5</ele>
        <time>2016-09-25T07:22:50Z</time>
      </trkpt>
      <trkpt lat="43.72898" lon="6.96054">
        <ele>861.8</ele>
        <time>2016-09-25T07:22:52Z</time>
      </trkpt>
      <trkpt lat="43.72902" lon="6.96051">
        <ele>862.1</ele>
        <time>2016-09-25T07:22:54Z</time>
      </trkpt>
      <trkpt lat="43.72906" lon="6.96048">
        <ele>862.1</ele>
        <time>2016-09-25T07:22:56Z</time>
      </trkpt>
      <trkpt lat="43.7291" lon="6.96045">
        <ele>862.2</ele>
        <time>2016-09-25T07:22:58Z</time>
      </trkpt>
      <trkpt lat="43.72914" lon="6.96042">
        <ele>862.1</ele>
        <time>2016-09-25T07:23:00Z</time>
      </trkpt>
      <trkpt lat="43.72918" lon="6.96039">
        <ele>862.6</ele>
        <time>2016-09-25T07:23:02Z</time>
      </trkpt>
      <trkpt lat="43.72922" lon="6.96037">
        <ele>863.3</ele>
        <time>2016-09-25T07:23:04Z</time>
      </trkpt>
      <trkpt lat="43.72926" lon="6.96034">
        <ele>864</ele>
        <time>2016-09-25T07:23:06Z</time>
      </trkpt>
      <trkpt lat="43.7293" lon="6.96032">
        <ele>864.7</ele>
        <time>2016-09-25T07:23:08Z</time>
      </trkpt>
      <trkpt lat="43.72934" lon="6.96029">
        <ele>865.4</ele>
        <time>2016-09-25T07:23:10Z</time>
      </trkpt>
      <trkpt lat="43.72939" lon="6.96027">
        <ele>866</ele>
        <time>2016-09-25T07:23:12Z</time>
      </trkpt>
      <trkpt lat="43.72943" lon="6.96025">
        <ele>866.5</ele>
        <time>2016-09-25T07:23:14Z</time>
      </trkpt>
      <trkpt lat="43.72947" lon="6.96022">
        <ele>867</ele>
        <time>2016-09-25T07:23:16Z</time>
      </trkpt>
      <trkpt lat="43.72951" lon="6.9602">
        <ele>867.3</ele>
        <time>2016-09-25T07:23:18Z</time>
      </trkpt>
      <trkpt lat="43.72955" lon="6.96017">
        <ele>867.6</ele>
        <time>2016-09-25T07:23:20Z</time>
      </trkpt>
      <trkpt lat="43.72959" lon="6.96015">
        <ele>867.9</ele>
        <time>2016-09-25T07:23:22Z</time>
      </trkpt>
      <trkpt lat="43.72963" lon="6.96012">
        <ele>868.2</ele>
        <time>2016-09-25T07:23:24Z</time>
      </trkpt>
      <trkpt lat="43.72967" lon="6.9601">
        <ele>868.5</ele>
        <time>2016-09-25T07:23:26Z</time>
      </trkpt>
      <trkpt lat="43.72971" lon="6.96007">
        <ele>868.8</ele>
        <time>2016-09-25T07:23:28Z</time>
      </trkpt>
      <trkpt lat="43.72975" lon="6.96005">
        <ele>869.1</ele>
        <time>2016-09-25T07:23:30Z</time>
      </trkpt>
      <trkpt lat="43.72979" lon="6.96003">
        <ele>869.5</ele>
        <time>2016-09-25T07:23:32Z</time>
      </trkpt>
      <trkpt lat="43.72983" lon="6.96002">
        <ele>869.8</ele>
        <time>2016-09-25T07:23:34Z</time>
      </trkpt>
      <trkpt lat="43.72987" lon="6.96">
        <ele>870.1</ele>
        <time>2016-09-25T07:23:36Z</time>
      </trkpt>
      <trkpt lat="43.72991" lon="6.95998">
        <ele>870.2</ele>
        <time>2016-09-25T07:23:38Z</time>
      </trkpt>
      <trkpt lat="43.72994" lon="6.95996">
        <ele>870.3</ele>
        <time>2016-09-25T07:23:40Z</time>
      </trkpt>
      <trkpt lat="43.72998" lon="6.95993">
        <ele>870.5</ele>
        <time>2016-09-25T07:23:42Z</time>
      </trkpt>
      <trkpt lat="43.73002" lon="6.95991">
        <ele>870.6</ele>
        <time>2016-09-25T07:23:44Z</time>
      </trkpt>
      <trkpt lat="43.73006" lon="6.95989">
        <ele>870.7</ele>
        <time>2016-09-25T07:23:46Z</time>
      </trkpt>
      <trkpt lat="43.7301" lon="6.95987">
        <ele>870.9</ele>
        <time>2016-09-25T07:23:48Z</time>
      </trkpt>
      <trkpt lat="43.73015" lon="6.95986">
        <ele>871.2</ele>
        <time>2016-09-25T07:23:50Z</time>
      </trkpt>
      <trkpt lat="43.73019" lon="6.95984">
        <ele>871.5</ele>
        <time>2016-09-25T07:23:52Z</time>
      </trkpt>
      <trkpt lat="43.73024" lon="6.95983">
        <ele>871.8</ele>
        <time>2016-09-25T07:23:54Z</time>
      </trkpt>
      <trkpt lat="43.73028" lon="6.95982">
        <ele>872.4</ele>
        <time>2016-09-25T07:23:56Z</time>
      </trkpt>
      <trkpt lat="43.73032" lon="6.95981">
        <ele>872.7</ele>
        <time>2016-09-25T07:23:58Z</time>
      </trkpt>
      <trkpt lat="43.73037" lon="6.9598">
        <ele>873.1</ele>
        <time>2016-09-25T07:24:00Z</time>
      </trkpt>
      <trkpt lat="43.73041" lon="6.9598">
        <ele>873.6</ele>
        <time>2016-09-25T07:24:02Z</time>
      </trkpt>
      <trkpt lat="43.73045" lon="6.9598">
        <ele>874.6</ele>
        <time>2016-09-25T07:24:04Z</time>
      </trkpt>
      <trkpt lat="43.73049" lon="6.95979">
        <ele>875.6</ele>
        <time>2016-09-25T07:24:06Z</time>
      </trkpt>
      <trkpt lat="43.73054" lon="6.95978">
        <ele>876.4</ele>
        <time>2016-09-25T07:24:08Z</time>
      </trkpt>
      <trkpt lat="43.73058" lon="6.95977">
        <ele>877.2</ele>
        <time>2016-09-25T07:24:10Z</time>
      </trkpt>
      <trkpt lat="43.73062" lon="6.95976">
        <ele>877.7</ele>
        <time>2016-09-25T07:24:12Z</time>
      </trkpt>
      <trkpt lat="43.73066" lon="6.95974">
        <ele>878.3</ele>
        <time>2016-09-25T07:24:14Z</time>
      </trkpt>
      <trkpt lat="43.7307" lon="6.95972">
        <ele>878.8</ele>
        <time>2016-09-25T07:24:16Z</time>
      </trkpt>
      <trkpt lat="43.73074" lon="6.9597">
        <ele>879.2</ele>
        <time>2016-09-25T07:24:18Z</time>
      </trkpt>
      <trkpt lat="43.73078" lon="6.95968">
        <ele>879.5</ele>
        <time>2016-09-25T07:24:20Z</time>
      </trkpt>
      <trkpt lat="43.73082" lon="6.95966">
        <ele>879.9</ele>
        <time>2016-09-25T07:24:22Z</time>
      </trkpt>
      <trkpt lat="43.73086" lon="6.95963">
        <ele>879.8</ele>
        <time>2016-09-25T07:24:24Z</time>
      </trkpt>
      <trkpt lat="43.7309" lon="6.9596">
        <ele>879.9</ele>
        <time>2016-09-25T07:24:26Z</time>
      </trkpt>
      <trkpt lat="43.73094" lon="6.95957">
        <ele>880.2</ele>
        <time>2016-09-25T07:24:28Z</time>
      </trkpt>
      <trkpt lat="43.73099" lon="6.95954">
        <ele>881.1</ele>
        <time>2016-09-25T07:24:30Z</time>
      </trkpt>
      <trkpt lat="43.73103" lon="6.95952">
        <ele>881.9</ele>
        <time>2016-09-25T07:24:32Z</time>
      </trkpt>
      <trkpt lat="43.73106" lon="6.95948">
        <ele>882.5</ele>
        <time>2016-09-25T07:24:34Z</time>
      </trkpt>
      <trkpt lat="43.7311" lon="6.95945">
        <ele>883.1</ele>
        <time>2016-09-25T07:24:36Z</time>
      </trkpt>
      <trkpt lat="43.73113" lon="6.95943">
        <ele>883.7</ele>
        <time>2016-09-25T07:24:38Z</time>
      </trkpt>
      <trkpt lat="43.73117" lon="6.95941">
        <ele>884.3</ele>
        <time>2016-09-25T07:24:40Z</time>
      </trkpt>
      <trkpt lat="43.73121" lon="6.95938">
        <ele>884.9</ele>
        <time>2016-09-25T07:24:42Z</time>
      </trkpt>
      <trkpt lat="43.73124" lon="6.95936">
        <ele>885.4</ele>
        <time>2016-09-25T07:24:44Z</time>
      </trkpt>
      <trkpt lat="43.73128" lon="6.95934">
        <ele>886</ele>
        <time>2016-09-25T07:24:46Z</time>
      </trkpt>
      <trkpt lat="43.73132" lon="6.95931">
        <ele>886.7</ele>
        <time>2016-09-25T07:24:48Z</time>
      </trkpt>
      <trkpt lat="43.73136" lon="6.95928">
        <ele>887.2</ele>
        <time>2016-09-25T07:24:50Z</time>
      </trkpt>
      <trkpt lat="43.7314" lon="6.95925">
        <ele>887.8</ele>
        <time>2016-09-25T07:24:52Z</time>
      </trkpt>
      <trkpt lat="43.73145" lon="6.95922">
        <ele>888.5</ele>
        <time>2016-09-25T07:24:54Z</time>
      </trkpt>
      <trkpt lat="43.73149" lon="6.9592">
        <ele>889</ele>
        <time>2016-09-25T07:24:56Z</time>
      </trkpt>
      <trkpt lat="43.73152" lon="6.95917">
        <ele>889.3</ele>
        <time>2016-09-25T07:24:58Z</time>
      </trkpt>
      <trkpt lat="43.73156" lon="6.95914">
        <ele>889.5</ele>
        <time>2016-09-25T07:25:00Z</time>
      </trkpt>
      <trkpt lat="43.7316" lon="6.95911">
        <ele>889.8</ele>
        <time>2016-09-25T07:25:02Z</time>
      </trkpt>
      <trkpt lat="43.73164" lon="6.95909">
        <ele>890.1</ele>
        <time>2016-09-25T07:25:04Z</time>
      </trkpt>
      <trkpt lat="43.73168" lon="6.95906">
        <ele>890.4</ele>
        <time>2016-09-25T07:25:06Z</time>
      </trkpt>
      <trkpt lat="43.73171" lon="6.95905">
        <ele>890.7</ele>
        <time>2016-09-25T07:25:08Z</time>
      </trkpt>
      <trkpt lat="43.73175" lon="6.95902">
        <ele>890.7</ele>
        <time>2016-09-25T07:25:10Z</time>
      </trkpt>
      <trkpt lat="43.73178" lon="6.95898">
        <ele>890.6</ele>
        <time>2016-09-25T07:25:12Z</time>
      </trkpt>
      <trkpt lat="43.73182" lon="6.95896">
        <ele>890.7</ele>
        <time>2016-09-25T07:25:14Z</time>
      </trkpt>
      <trkpt lat="43.73186" lon="6.95894">
        <ele>890.8</ele>
        <time>2016-09-25T07:25:16Z</time>
      </trkpt>
      <trkpt lat="43.7319" lon="6.95891">
        <ele>890.7</ele>
        <time>2016-09-25T07:25:18Z</time>
      </trkpt>
      <trkpt lat="43.73193" lon="6.95888">
        <ele>890.5</ele>
        <time>2016-09-25T07:25:20Z</time>
      </trkpt>
      <trkpt lat="43.73197" lon="6.95884">
        <ele>890.1</ele>
        <time>2016-09-25T07:25:22Z</time>
      </trkpt>
      <trkpt lat="43.732" lon="6.95881">
        <ele>889.5</ele>
        <time>2016-09-25T07:25:24Z</time>
      </trkpt>
      <trkpt lat="43.73204" lon="6.95877">
        <ele>888.9</ele>
        <time>2016-09-25T07:25:26Z</time>
      </trkpt>
      <trkpt lat="43.73208" lon="6.95873">
        <ele>888.9</ele>
        <time>2016-09-25T07:25:28Z</time>
      </trkpt>
      <trkpt lat="43.73211" lon="6.95869">
        <ele>889.9</ele>
        <time>2016-09-25T07:25:30Z</time>
      </trkpt>
      <trkpt lat="43.73215" lon="6.95865">
        <ele>891</ele>
        <time>2016-09-25T07:25:32Z</time>
      </trkpt>
      <trkpt lat="43.73218" lon="6.95862">
        <ele>892</ele>
        <time>2016-09-25T07:25:34Z</time>
      </trkpt>
      <trkpt lat="43.73221" lon="6.95858">
        <ele>892.8</ele>
        <time>2016-09-25T07:25:36Z</time>
      </trkpt>
      <trkpt lat="43.73224" lon="6.95854">
        <ele>893.4</ele>
        <time>2016-09-25T07:25:38Z</time>
      </trkpt>
      <trkpt lat="43.73227" lon="6.95851">
        <ele>894</ele>
        <time>2016-09-25T07:25:40Z</time>
      </trkpt>
      <trkpt lat="43.7323" lon="6.95848">
        <ele>894.6</ele>
        <time>2016-09-25T07:25:42Z</time>
      </trkpt>
      <trkpt lat="43.73233" lon="6.95844">
        <ele>895.1</ele>
        <time>2016-09-25T07:25:44Z</time>
      </trkpt>
      <trkpt lat="43.73236" lon="6.9584">
        <ele>895.4</ele>
        <time>2016-09-25T07:25:46Z</time>
      </trkpt>
      <trkpt lat="43.73239" lon="6.95836">
        <ele>895.7</ele>
        <time>2016-09-25T07:25:48Z</time>
      </trkpt>
      <trkpt lat="43.73242" lon="6.95832">
        <ele>896.1</ele>
        <time>2016-09-25T07:25:50Z</time>
      </trkpt>
      <trkpt lat="43.73246" lon="6.95828">
        <ele>896.3</ele>
        <time>2016-09-25T07:25:52Z</time>
      </trkpt>
      <trkpt lat="43.73249" lon="6.95825">
        <ele>896.6</ele>
        <time>2016-09-25T07:25:54Z</time>
      </trkpt>
      <trkpt lat="43.73253" lon="6.95822">
        <ele>896.7</ele>
        <time>2016-09-25T07:25:56Z</time>
      </trkpt>
      <trkpt lat="43.73257" lon="6.95819">
        <ele>896.8</ele>
        <time>2016-09-25T07:25:58Z</time>
      </trkpt>
      <trkpt lat="43.7326" lon="6.95815">
        <ele>896.9</ele>
        <time>2016-09-25T07:26:00Z</time>
      </trkpt>
      <trkpt lat="43.73264" lon="6.95812">
        <ele>896.9</ele>
        <time>2016-09-25T07:26:02Z</time>
      </trkpt>
      <trkpt lat="43.73269" lon="6.9581">
        <ele>897</ele>
        <time>2016-09-25T07:26:04Z</time>
      </trkpt>
      <trkpt lat="43.73273" lon="6.95808">
        <ele>897.1</ele>
        <time>2016-09-25T07:26:06Z</time>
      </trkpt>
      <trkpt lat="43.73278" lon="6.95806">
        <ele>897.3</ele>
        <time>2016-09-25T07:26:08Z</time>
      </trkpt>
      <trkpt lat="43.73283" lon="6.95805">
        <ele>897.5</ele>
        <time>2016-09-25T07:26:10Z</time>
      </trkpt>
      <trkpt lat="43.73288" lon="6.95804">
        <ele>897.8</ele>
        <time>2016-09-25T07:26:12Z</time>
      </trkpt>
      <trkpt lat="43.73292" lon="6.95804">
        <ele>898.4</ele>
        <time>2016-09-25T07:26:14Z</time>
      </trkpt>
      <trkpt lat="43.73297" lon="6.95804">
        <ele>899.4</ele>
        <time>2016-09-25T07:26:16Z</time>
      </trkpt>
      <trkpt lat="43.73301" lon="6.95805">
        <ele>900.4</ele>
        <time>2016-09-25T07:26:18Z</time>
      </trkpt>
      <trkpt lat="43.73306" lon="6.95806">
        <ele>901.6</ele>
        <time>2016-09-25T07:26:20Z</time>
      </trkpt>
      <trkpt lat="43.7331" lon="6.95806">
        <ele>902.7</ele>
        <time>2016-09-25T07:26:22Z</time>
      </trkpt>
      <trkpt lat="43.73314" lon="6.95807">
        <ele>903.7</ele>
        <time>2016-09-25T07:26:24Z</time>
      </trkpt>
      <trkpt lat="43.73318" lon="6.95808">
        <ele>904.7</ele>
        <time>2016-09-25T07:26:26Z</time>
      </trkpt>
      <trkpt lat="43.73322" lon="6.95809">
        <ele>905.8</ele>
        <time>2016-09-25T07:26:28Z</time>
      </trkpt>
      <trkpt lat="43.73326" lon="6.95809">
        <ele>906.8</ele>
        <time>2016-09-25T07:26:30Z</time>
      </trkpt>
      <trkpt lat="43.7333" lon="6.95811">
        <ele>907.9</ele>
        <time>2016-09-25T07:26:32Z</time>
      </trkpt>
      <trkpt lat="43.73334" lon="6.95812">
        <ele>909</ele>
        <time>2016-09-25T07:26:34Z</time>
      </trkpt>
      <trkpt lat="43.73337" lon="6.95812">
        <ele>909.9</ele>
        <time>2016-09-25T07:26:36Z</time>
      </trkpt>
      <trkpt lat="43.73341" lon="6.95813">
        <ele>911</ele>
        <time>2016-09-25T07:26:38Z</time>
      </trkpt>
      <trkpt lat="43.73345" lon="6.95814">
        <ele>912.1</ele>
        <time>2016-09-25T07:26:40Z</time>
      </trkpt>
      <trkpt lat="43.73349" lon="6.95816">
        <ele>913.2</ele>
        <time>2016-09-25T07:26:42Z</time>
      </trkpt>
      <trkpt lat="43.73354" lon="6.95817">
        <ele>914.3</ele>
        <time>2016-09-25T07:26:44Z</time>
      </trkpt>
      <trkpt lat="43.73358" lon="6.95817">
        <ele>915.3</ele>
        <time>2016-09-25T07:26:46Z</time>
      </trkpt>
      <trkpt lat="43.73362" lon="6.95818">
        <ele>916.4</ele>
        <time>2016-09-25T07:26:48Z</time>
      </trkpt>
      <trkpt lat="43.73366" lon="6.95819">
        <ele>917.3</ele>
        <time>2016-09-25T07:26:50Z</time>
      </trkpt>
      <trkpt lat="43.7337" lon="6.95818">
        <ele>918.2</ele>
        <time>2016-09-25T07:26:52Z</time>
      </trkpt>
      <trkpt lat="43.73375" lon="6.95817">
        <ele>918.8</ele>
        <time>2016-09-25T07:26:54Z</time>
      </trkpt>
      <trkpt lat="43.7338" lon="6.95815">
        <ele>919.5</ele>
        <time>2016-09-25T07:26:56Z</time>
      </trkpt>
      <trkpt lat="43.73384" lon="6.95813">
        <ele>919.9</ele>
        <time>2016-09-25T07:26:58Z</time>
      </trkpt>
      <trkpt lat="43.73388" lon="6.9581">
        <ele>920.3</ele>
        <time>2016-09-25T07:27:00Z</time>
      </trkpt>
      <trkpt lat="43.73391" lon="6.95807">
        <ele>920.3</ele>
        <time>2016-09-25T07:27:02Z</time>
      </trkpt>
      <trkpt lat="43.73394" lon="6.95802">
        <ele>920.1</ele>
        <time>2016-09-25T07:27:04Z</time>
      </trkpt>
      <trkpt lat="43.73396" lon="6.95798">
        <ele>920</ele>
        <time>2016-09-25T07:27:06Z</time>
      </trkpt>
      <trkpt lat="43.73398" lon="6.95793">
        <ele>919.4</ele>
        <time>2016-09-25T07:27:08Z</time>
      </trkpt>
      <trkpt lat="43.73398" lon="6.95787">
        <ele>919.2</ele>
        <time>2016-09-25T07:27:10Z</time>
      </trkpt>
      <trkpt lat="43.73399" lon="6.95781">
        <ele>919.2</ele>
        <time>2016-09-25T07:27:12Z</time>
      </trkpt>
      <trkpt lat="43.73399" lon="6.95775">
        <ele>919.1</ele>
        <time>2016-09-25T07:27:14Z</time>
      </trkpt>
      <trkpt lat="43.73398" lon="6.95769">
        <ele>918.7</ele>
        <time>2016-09-25T07:27:16Z</time>
      </trkpt>
      <trkpt lat="43.73397" lon="6.95763">
        <ele>918</ele>
        <time>2016-09-25T07:27:18Z</time>
      </trkpt>
      <trkpt lat="43.73394" lon="6.95757">
        <ele>917</ele>
        <time>2016-09-25T07:27:20Z</time>
      </trkpt>
      <trkpt lat="43.73391" lon="6.95752">
        <ele>915.9</ele>
        <time>2016-09-25T07:27:22Z</time>
      </trkpt>
      <trkpt lat="43.73389" lon="6.95746">
        <ele>914.8</ele>
        <time>2016-09-25T07:27:24Z</time>
      </trkpt>
      <trkpt lat="43.73386" lon="6.95741">
        <ele>913.8</ele>
        <time>2016-09-25T07:27:26Z</time>
      </trkpt>
      <trkpt lat="43.73384" lon="6.95735">
        <ele>912.6</ele>
        <time>2016-09-25T07:27:28Z</time>
      </trkpt>
      <trkpt lat="43.73382" lon="6.95729">
        <ele>911.5</ele>
        <time>2016-09-25T07:27:30Z</time>
      </trkpt>
      <trkpt lat="43.7338" lon="6.95723">
        <ele>910.5</ele>
        <time>2016-09-25T07:27:32Z</time>
      </trkpt>
      <trkpt lat="43.73378" lon="6.95717">
        <ele>909.7</ele>
        <time>2016-09-25T07:27:34Z</time>
      </trkpt>
      <trkpt lat="43.73378" lon="6.9571">
        <ele>909.3</ele>
        <time>2016-09-25T07:27:36Z</time>
      </trkpt>
      <trkpt lat="43.73378" lon="6.95703">
        <ele>909.2</ele>
        <time>2016-09-25T07:27:38Z</time>
      </trkpt>
      <trkpt lat="43.73379" lon="6.95697">
        <ele>909.4</ele>
        <time>2016-09-25T07:27:40Z</time>
      </trkpt>
      <trkpt lat="43.7338" lon="6.95691">
        <ele>909.8</ele>
        <time>2016-09-25T07:27:42Z</time>
      </trkpt>
      <trkpt lat="43.73381" lon="6.95685">
        <ele>910.4</ele>
        <time>2016-09-25T07:27:44Z</time>
      </trkpt>
      <trkpt lat="43.73384" lon="6.9568">
        <ele>911.1</ele>
        <time>2016-09-25T07:27:46Z</time>
      </trkpt>
      <trkpt lat="43.73386" lon="6.95674">
        <ele>911.7</ele>
        <time>2016-09-25T07:27:48Z</time>
      </trkpt>
      <trkpt lat="43.73388" lon="6.95669">
        <ele>912.2</ele>
        <time>2016-09-25T07:27:50Z</time>
      </trkpt>
      <trkpt lat="43.7339" lon="6.95664">
        <ele>912.7</ele>
        <time>2016-09-25T07:27:52Z</time>
      </trkpt>
      <trkpt lat="43.73392" lon="6.95659">
        <ele>913.4</ele>
        <time>2016-09-25T07:27:54Z</time>
      </trkpt>
      <trkpt lat="43.73395" lon="6.95654">
        <ele>913.9</ele>
        <time>2016-09-25T07:27:56Z</time>
      </trkpt>
      <trkpt lat="43.73397" lon="6.95649">
        <ele>914.5</ele>
        <time>2016-09-25T07:27:58Z</time>
      </trkpt>
      <trkpt lat="43.73399" lon="6.95644">
        <ele>914.8</ele>
        <time>2016-09-25T07:28:00Z</time>
      </trkpt>
      <trkpt lat="43.73401" lon="6.95639">
        <ele>915.2</ele>
        <time>2016-09-25T07:28:02Z</time>
      </trkpt>
      <trkpt lat="43.73404" lon="6.95634">
        <ele>915.6</ele>
        <time>2016-09-25T07:28:04Z</time>
      </trkpt>
      <trkpt lat="43.73407" lon="6.9563">
        <ele>916.1</ele>
        <time>2016-09-25T07:28:06Z</time>
      </trkpt>
      <trkpt lat="43.7341" lon="6.95625">
        <ele>916.6</ele>
        <time>2016-09-25T07:28:08Z</time>
      </trkpt>
      <trkpt lat="43.73413" lon="6.95621">
        <ele>917.5</ele>
        <time>2016-09-25T07:28:10Z</time>
      </trkpt>
      <trkpt lat="43.73417" lon="6.95617">
        <ele>918.4</ele>
        <time>2016-09-25T07:28:12Z</time>
      </trkpt>
      <trkpt lat="43.7342" lon="6.95613">
        <ele>919.3</ele>
        <time>2016-09-25T07:28:14Z</time>
      </trkpt>
      <trkpt lat="43.73423" lon="6.95609">
        <ele>920.1</ele>
        <time>2016-09-25T07:28:16Z</time>
      </trkpt>
      <trkpt lat="43.73426" lon="6.95605">
        <ele>920.8</ele>
        <time>2016-09-25T07:28:18Z</time>
      </trkpt>
      <trkpt lat="43.7343" lon="6.95602">
        <ele>921.5</ele>
        <time>2016-09-25T07:28:20Z</time>
      </trkpt>
      <trkpt lat="43.73432" lon="6.95599">
        <ele>922</ele>
        <time>2016-09-25T07:28:22Z</time>
      </trkpt>
      <trkpt lat="43.73435" lon="6.95595">
        <ele>922.6</ele>
        <time>2016-09-25T07:28:24Z</time>
      </trkpt>
      <trkpt lat="43.73438" lon="6.95592">
        <ele>923.1</ele>
        <time>2016-09-25T07:28:26Z</time>
      </trkpt>
      <trkpt lat="43.73442" lon="6.95588">
        <ele>923.7</ele>
        <time>2016-09-25T07:28:28Z</time>
      </trkpt>
      <trkpt lat="43.73445" lon="6.95585">
        <ele>924.2</ele>
        <time>2016-09-25T07:28:30Z</time>
      </trkpt>
      <trkpt lat="43.73448" lon="6.95581">
        <ele>924.6</ele>
        <time>2016-09-25T07:28:32Z</time>
      </trkpt>
      <trkpt lat="43.73451" lon="6.95577">
        <ele>925</ele>
        <time>2016-09-25T07:28:34Z</time>
      </trkpt>
      <trkpt lat="43.73454" lon="6.95573">
        <ele>925.2</ele>
        <time>2016-09-25T07:28:36Z</time>
      </trkpt>
      <trkpt lat="43.73456" lon="6.95567">
        <ele>925.3</ele>
        <time>2016-09-25T07:28:38Z</time>
      </trkpt>
      <trkpt lat="43.73457" lon="6.95561">
        <ele>925.3</ele>
        <time>2016-09-25T07:28:40Z</time>
      </trkpt>
      <trkpt lat="43.73457" lon="6.95554">
        <ele>925.2</ele>
        <time>2016-09-25T07:28:42Z</time>
      </trkpt>
      <trkpt lat="43.73458" lon="6.95548">
        <ele>925.1</ele>
        <time>2016-09-25T07:28:44Z</time>
      </trkpt>
      <trkpt lat="43.73458" lon="6.95541">
        <ele>925</ele>
        <time>2016-09-25T07:28:46Z</time>
      </trkpt>
      <trkpt lat="43.73457" lon="6.95535">
        <ele>925.3</ele>
        <time>2016-09-25T07:28:48Z</time>
      </trkpt>
      <trkpt lat="43.73457" lon="6.95529">
        <ele>925.6</ele>
        <time>2016-09-25T07:28:50Z</time>
      </trkpt>
      <trkpt lat="43.73457" lon="6.95523">
        <ele>925.9</ele>
        <time>2016-09-25T07:28:52Z</time>
      </trkpt>
      <trkpt lat="43.73458" lon="6.95517">
        <ele>926.2</ele>
        <time>2016-09-25T07:28:54Z</time>
      </trkpt>
      <trkpt lat="43.73458" lon="6.9551">
        <ele>926.5</ele>
        <time>2016-09-25T07:28:56Z</time>
      </trkpt>
      <trkpt lat="43.73458" lon="6.95504">
        <ele>926.8</ele>
        <time>2016-09-25T07:28:58Z</time>
      </trkpt>
      <trkpt lat="43.73459" lon="6.95498">
        <ele>927.3</ele>
        <time>2016-09-25T07:29:00Z</time>
      </trkpt>
      <trkpt lat="43.73459" lon="6.95492">
        <ele>927.6</ele>
        <time>2016-09-25T07:29:02Z</time>
      </trkpt>
      <trkpt lat="43.73459" lon="6.95486">
        <ele>927.9</ele>
        <time>2016-09-25T07:29:04Z</time>
      </trkpt>
      <trkpt lat="43.73459" lon="6.9548">
        <ele>928.2</ele>
        <time>2016-09-25T07:29:06Z</time>
      </trkpt>
      <trkpt lat="43.73459" lon="6.95474">
        <ele>928.7</ele>
        <time>2016-09-25T07:29:08Z</time>
      </trkpt>
      <trkpt lat="43.73461" lon="6.95468">
        <ele>929.5</ele>
        <time>2016-09-25T07:29:10Z</time>
      </trkpt>
      <trkpt lat="43.73461" lon="6.95462">
        <ele>930</ele>
        <time>2016-09-25T07:29:12Z</time>
      </trkpt>
      <trkpt lat="43.73461" lon="6.95455">
        <ele>930.3</ele>
        <time>2016-09-25T07:29:14Z</time>
      </trkpt>
      <trkpt lat="43.73461" lon="6.95449">
        <ele>930.7</ele>
        <time>2016-09-25T07:29:16Z</time>
      </trkpt>
      <trkpt lat="43.73461" lon="6.95443">
        <ele>930.8</ele>
        <time>2016-09-25T07:29:18Z</time>
      </trkpt>
      <trkpt lat="43.7346" lon="6.95437">
        <ele>930.9</ele>
        <time>2016-09-25T07:29:20Z</time>
      </trkpt>
      <trkpt lat="43.7346" lon="6.95431">
        <ele>931.2</ele>
        <time>2016-09-25T07:29:22Z</time>
      </trkpt>
      <trkpt lat="43.73461" lon="6.95425">
        <ele>931.8</ele>
        <time>2016-09-25T07:29:24Z</time>
      </trkpt>
      <trkpt lat="43.73462" lon="6.95419">
        <ele>932.2</ele>
        <time>2016-09-25T07:29:26Z</time>
      </trkpt>
      <trkpt lat="43.73462" lon="6.95413">
        <ele>932.6</ele>
        <time>2016-09-25T07:29:28Z</time>
      </trkpt>
      <trkpt lat="43.73462" lon="6.95407">
        <ele>932.9</ele>
        <time>2016-09-25T07:29:30Z</time>
      </trkpt>
      <trkpt lat="43.73462" lon="6.954">
        <ele>933.3</ele>
        <time>2016-09-25T07:29:32Z</time>
      </trkpt>
      <trkpt lat="43.73462" lon="6.95394">
        <ele>933.7</ele>
        <time>2016-09-25T07:29:34Z</time>
      </trkpt>
      <trkpt lat="43.73463" lon="6.95388">
        <ele>934</ele>
        <time>2016-09-25T07:29:36Z</time>
      </trkpt>
      <trkpt lat="43.73463" lon="6.95381">
        <ele>934.5</ele>
        <time>2016-09-25T07:29:38Z</time>
      </trkpt>
      <trkpt lat="43.73464" lon="6.95375">
        <ele>935</ele>
        <time>2016-09-25T07:29:40Z</time>
      </trkpt>
      <trkpt lat="43.73465" lon="6.95369">
        <ele>935.7</ele>
        <time>2016-09-25T07:29:42Z</time>
      </trkpt>
      <trkpt lat="43.73466" lon="6.95363">
        <ele>936.4</ele>
        <time>2016-09-25T07:29:44Z</time>
      </trkpt>
      <trkpt lat="43.73467" lon="6.95357">
        <ele>937.1</ele>
        <time>2016-09-25T07:29:46Z</time>
      </trkpt>
      <trkpt lat="43.73468" lon="6.95351">
        <ele>937.8</ele>
        <time>2016-09-25T07:29:48Z</time>
      </trkpt>
      <trkpt lat="43.7347" lon="6.95345">
        <ele>938.6</ele>
        <time>2016-09-25T07:29:50Z</time>
      </trkpt>
      <trkpt lat="43.73472" lon="6.9534">
        <ele>939.5</ele>
        <time>2016-09-25T07:29:52Z</time>
      </trkpt>
      <trkpt lat="43.73474" lon="6.95334">
        <ele>940.2</ele>
        <time>2016-09-25T07:29:54Z</time>
      </trkpt>
      <trkpt lat="43.73476" lon="6.95328">
        <ele>940.9</ele>
        <time>2016-09-25T07:29:56Z</time>
      </trkpt>
      <trkpt lat="43.73478" lon="6.95322">
        <ele>941.5</ele>
        <time>2016-09-25T07:29:58Z</time>
      </trkpt>
      <trkpt lat="43.7348" lon="6.95316">
        <ele>942</ele>
        <time>2016-09-25T07:30:00Z</time>
      </trkpt>
      <trkpt lat="43.73482" lon="6.95311">
        <ele>942.5</ele>
        <time>2016-09-25T07:30:02Z</time>
      </trkpt>
      <trkpt lat="43.73485" lon="6.95306">
        <ele>943</ele>
        <time>2016-09-25T07:30:04Z</time>
      </trkpt>
      <trkpt lat="43.73487" lon="6.95301">
        <ele>943.5</ele>
        <time>2016-09-25T07:30:06Z</time>
      </trkpt>
      <trkpt lat="43.7349" lon="6.95296">
        <ele>943.9</ele>
        <time>2016-09-25T07:30:08Z</time>
      </trkpt>
      <trkpt lat="43.73493" lon="6.95292">
        <ele>944.2</ele>
        <time>2016-09-25T07:30:10Z</time>
      </trkpt>
      <trkpt lat="43.73496" lon="6.95287">
        <ele>945.2</ele>
        <time>2016-09-25T07:30:12Z</time>
      </trkpt>
      <trkpt lat="43.73499" lon="6.95282">
        <ele>946.1</ele>
        <time>2016-09-25T07:30:14Z</time>
      </trkpt>
      <trkpt lat="43.73501" lon="6.95278">
        <ele>946.9</ele>
        <time>2016-09-25T07:30:16Z</time>
      </trkpt>
      <trkpt lat="43.73504" lon="6.95274">
        <ele>947.6</ele>
        <time>2016-09-25T07:30:18Z</time>
      </trkpt>
      <trkpt lat="43.73507" lon="6.95269">
        <ele>948.4</ele>
        <time>2016-09-25T07:30:20Z</time>
      </trkpt>
      <trkpt lat="43.7351" lon="6.95265">
        <ele>949.1</ele>
        <time>2016-09-25T07:30:22Z</time>
      </trkpt>
      <trkpt lat="43.73513" lon="6.9526">
        <ele>949.7</ele>
        <time>2016-09-25T07:30:24Z</time>
      </trkpt>
      <trkpt lat="43.73516" lon="6.95256">
        <ele>950.4</ele>
        <time>2016-09-25T07:30:26Z</time>
      </trkpt>
      <trkpt lat="43.73519" lon="6.95251">
        <ele>951</ele>
        <time>2016-09-25T07:30:28Z</time>
      </trkpt>
      <trkpt lat="43.73523" lon="6.95247">
        <ele>951.5</ele>
        <time>2016-09-25T07:30:30Z</time>
      </trkpt>
      <trkpt lat="43.73526" lon="6.95242">
        <ele>952</ele>
        <time>2016-09-25T07:30:32Z</time>
      </trkpt>
      <trkpt lat="43.73529" lon="6.95237">
        <ele>952.4</ele>
        <time>2016-09-25T07:30:34Z</time>
      </trkpt>
      <trkpt lat="43.73532" lon="6.95233">
        <ele>952.7</ele>
        <time>2016-09-25T07:30:36Z</time>
      </trkpt>
      <trkpt lat="43.73535" lon="6.95229">
        <ele>953</ele>
        <time>2016-09-25T07:30:38Z</time>
      </trkpt>
      <trkpt lat="43.73539" lon="6.95225">
        <ele>953.2</ele>
        <time>2016-09-25T07:30:40Z</time>
      </trkpt>
      <trkpt lat="43.73542" lon="6.95221">
        <ele>953.4</ele>
        <time>2016-09-25T07:30:42Z</time>
      </trkpt>
      <trkpt lat="43.73545" lon="6.95216">
        <ele>954.1</ele>
        <time>2016-09-25T07:30:44Z</time>
      </trkpt>
      <trkpt lat="43.73547" lon="6.95211">
        <ele>954.6</ele>
        <time>2016-09-25T07:30:46Z</time>
      </trkpt>
      <trkpt lat="43.7355" lon="6.95207">
        <ele>955.5</ele>
        <time>2016-09-25T07:30:48Z</time>
      </trkpt>
      <trkpt lat="43.73552" lon="6.95204">
        <ele>957.1</ele>
        <time>2016-09-25T07:30:50Z</time>
      </trkpt>
      <trkpt lat="43.73555" lon="6.952">
        <ele>958.7</ele>
        <time>2016-09-25T07:30:52Z</time>
      </trkpt>
      <trkpt lat="43.73558" lon="6.95196">
        <ele>960.3</ele>
        <time>2016-09-25T07:30:54Z</time>
      </trkpt>
      <trkpt lat="43.73561" lon="6.95192">
        <ele>961.8</ele>
        <time>2016-09-25T07:30:56Z</time>
      </trkpt>
      <trkpt lat="43.73565" lon="6.95189">
        <ele>963.2</ele>
        <time>2016-09-25T07:30:58Z</time>
      </trkpt>
      <trkpt lat="43.73568" lon="6.95186">
        <ele>964.5</ele>
        <time>2016-09-25T07:31:00Z</time>
      </trkpt>
      <trkpt lat="43.73571" lon="6.95183">
        <ele>965.7</ele>
        <time>2016-09-25T07:31:02Z</time>
      </trkpt>
      <trkpt lat="43.73574" lon="6.95179">
        <ele>966.9</ele>
        <time>2016-09-25T07:31:04Z</time>
      </trkpt>
      <trkpt lat="43.73578" lon="6.95176">
        <ele>968.1</ele>
        <time>2016-09-25T07:31:06Z</time>
      </trkpt>
      <trkpt lat="43.73581" lon="6.95173">
        <ele>969.2</ele>
        <time>2016-09-25T07:31:08Z</time>
      </trkpt>
      <trkpt lat="43.73584" lon="6.9517">
        <ele>970.2</ele>
        <time>2016-09-25T07:31:10Z</time>
      </trkpt>
      <trkpt lat="43.73588" lon="6.95167">
        <ele>971.2</ele>
        <time>2016-09-25T07:31:12Z</time>
      </trkpt>
      <trkpt lat="43.73591" lon="6.95164">
        <ele>972.1</ele>
        <time>2016-09-25T07:31:14Z</time>
      </trkpt>
      <trkpt lat="43.73595" lon="6.95162">
        <ele>972.9</ele>
        <time>2016-09-25T07:31:16Z</time>
      </trkpt>
      <trkpt lat="43.73598" lon="6.95159">
        <ele>973.7</ele>
        <time>2016-09-25T07:31:18Z</time>
      </trkpt>
      <trkpt lat="43.73602" lon="6.95157">
        <ele>974.4</ele>
        <time>2016-09-25T07:31:20Z</time>
      </trkpt>
      <trkpt lat="43.73605" lon="6.95154">
        <ele>975.2</ele>
        <time>2016-09-25T07:31:22Z</time>
      </trkpt>
      <trkpt lat="43.73608" lon="6.9515">
        <ele>976.1</ele>
        <time>2016-09-25T07:31:24Z</time>
      </trkpt>
      <trkpt lat="43.73611" lon="6.95146">
        <ele>977</ele>
        <time>2016-09-25T07:31:26Z</time>
      </trkpt>
      <trkpt lat="43.73613" lon="6.95141">
        <ele>978.1</ele>
        <time>2016-09-25T07:31:28Z</time>
      </trkpt>
      <trkpt lat="43.73614" lon="6.95135">
        <ele>979.2</ele>
        <time>2016-09-25T07:31:30Z</time>
      </trkpt>
      <trkpt lat="43.73614" lon="6.95129">
        <ele>980.4</ele>
        <time>2016-09-25T07:31:32Z</time>
      </trkpt>
      <trkpt lat="43.73613" lon="6.95124">
        <ele>981.7</ele>
        <time>2016-09-25T07:31:34Z</time>
      </trkpt>
      <trkpt lat="43.73612" lon="6.95119">
        <ele>983.6</ele>
        <time>2016-09-25T07:31:36Z</time>
      </trkpt>
      <trkpt lat="43.73609" lon="6.95115">
        <ele>985.2</ele>
        <time>2016-09-25T07:31:38Z</time>
      </trkpt>
      <trkpt lat="43.73605" lon="6.95112">
        <ele>986.4</ele>
        <time>2016-09-25T07:31:40Z</time>
      </trkpt>
      <trkpt lat="43.73601" lon="6.95109">
        <ele>987.3</ele>
        <time>2016-09-25T07:31:42Z</time>
      </trkpt>
      <trkpt lat="43.73597" lon="6.95108">
        <ele>988</ele>
        <time>2016-09-25T07:31:44Z</time>
      </trkpt>
      <trkpt lat="43.73593" lon="6.95106">
        <ele>988.7</ele>
        <time>2016-09-25T07:31:46Z</time>
      </trkpt>
      <trkpt lat="43.73589" lon="6.95105">
        <ele>989.3</ele>
        <time>2016-09-25T07:31:48Z</time>
      </trkpt>
      <trkpt lat="43.73585" lon="6.95104">
        <ele>989.7</ele>
        <time>2016-09-25T07:31:50Z</time>
      </trkpt>
      <trkpt lat="43.7358" lon="6.95104">
        <ele>989.9</ele>
        <time>2016-09-25T07:31:52Z</time>
      </trkpt>
      <trkpt lat="43.73576" lon="6.95104">
        <ele>990</ele>
        <time>2016-09-25T07:31:54Z</time>
      </trkpt>
      <trkpt lat="43.73571" lon="6.95104">
        <ele>990.2</ele>
        <time>2016-09-25T07:31:56Z</time>
      </trkpt>
      <trkpt lat="43.73567" lon="6.95105">
        <ele>990.1</ele>
        <time>2016-09-25T07:31:58Z</time>
      </trkpt>
      <trkpt lat="43.73562" lon="6.95105">
        <ele>990.1</ele>
        <time>2016-09-25T07:32:00Z</time>
      </trkpt>
      <trkpt lat="43.73557" lon="6.95105">
        <ele>990.3</ele>
        <time>2016-09-25T07:32:02Z</time>
      </trkpt>
      <trkpt lat="43.73552" lon="6.95105">
        <ele>990.6</ele>
        <time>2016-09-25T07:32:04Z</time>
      </trkpt>
      <trkpt lat="43.73547" lon="6.95105">
        <ele>990.5</ele>
        <time>2016-09-25T07:32:06Z</time>
      </trkpt>
      <trkpt lat="43.73542" lon="6.95106">
        <ele>990.3</ele>
        <time>2016-09-25T07:32:08Z</time>
      </trkpt>
      <trkpt lat="43.73538" lon="6.95106">
        <ele>990.4</ele>
        <time>2016-09-25T07:32:10Z</time>
      </trkpt>
      <trkpt lat="43.73533" lon="6.95107">
        <ele>990.5</ele>
        <time>2016-09-25T07:32:12Z</time>
      </trkpt>
      <trkpt lat="43.73529" lon="6.95107">
        <ele>990.7</ele>
        <time>2016-09-25T07:32:14Z</time>
      </trkpt>
      <trkpt lat="43.73525" lon="6.95107">
        <ele>990.8</ele>
        <time>2016-09-25T07:32:16Z</time>
      </trkpt>
      <trkpt lat="43.7352" lon="6.95108">
        <ele>991</ele>
        <time>2016-09-25T07:32:18Z</time>
      </trkpt>
      <trkpt lat="43.73516" lon="6.95107">
        <ele>991.5</ele>
        <time>2016-09-25T07:32:20Z</time>
      </trkpt>
      <trkpt lat="43.73512" lon="6.95106">
        <ele>992.1</ele>
        <time>2016-09-25T07:32:22Z</time>
      </trkpt>
      <trkpt lat="43.73507" lon="6.95106">
        <ele>992.3</ele>
        <time>2016-09-25T07:32:24Z</time>
      </trkpt>
      <trkpt lat="43.73503" lon="6.95106">
        <ele>992.6</ele>
        <time>2016-09-25T07:32:26Z</time>
      </trkpt>
      <trkpt lat="43.73499" lon="6.95106">
        <ele>993</ele>
        <time>2016-09-25T07:32:28Z</time>
      </trkpt>
      <trkpt lat="43.73494" lon="6.95105">
        <ele>993.4</ele>
        <time>2016-09-25T07:32:30Z</time>
      </trkpt>
      <trkpt lat="43.7349" lon="6.95105">
        <ele>993.8</ele>
        <time>2016-09-25T07:32:32Z</time>
      </trkpt>
      <trkpt lat="43.73485" lon="6.95105">
        <ele>994.1</ele>
        <time>2016-09-25T07:32:34Z</time>
      </trkpt>
      <trkpt lat="43.73481" lon="6.95104">
        <ele>994.6</ele>
        <time>2016-09-25T07:32:36Z</time>
      </trkpt>
      <trkpt lat="43.73477" lon="6.95104">
        <ele>995</ele>
        <time>2016-09-25T07:32:38Z</time>
      </trkpt>
      <trkpt lat="43.73473" lon="6.95103">
        <ele>995.4</ele>
        <time>2016-09-25T07:32:40Z</time>
      </trkpt>
      <trkpt lat="43.7347" lon="6.95103">
        <ele>995.6</ele>
        <time>2016-09-25T07:32:42Z</time>
      </trkpt>
      <trkpt lat="43.73466" lon="6.95103">
        <ele>995.9</ele>
        <time>2016-09-25T07:32:44Z</time>
      </trkpt>
      <trkpt lat="43.73462" lon="6.95103">
        <ele>996.3</ele>
        <time>2016-09-25T07:32:46Z</time>
      </trkpt>
      <trkpt lat="43.73458" lon="6.95103">
        <ele>996.7</ele>
        <time>2016-09-25T07:32:48Z</time>
      </trkpt>
      <trkpt lat="43.73454" lon="6.95102">
        <ele>997.7</ele>
        <time>2016-09-25T07:32:50Z</time>
      </trkpt>
      <trkpt lat="43.7345" lon="6.95101">
        <ele>998.8</ele>
        <time>2016-09-25T07:32:52Z</time>
      </trkpt>
      <trkpt lat="43.73446" lon="6.951">
        <ele>1000.1</ele>
        <time>2016-09-25T07:32:54Z</time>
      </trkpt>
      <trkpt lat="43.73442" lon="6.95098">
        <ele>1001.6</ele>
        <time>2016-09-25T07:32:56Z</time>
      </trkpt>
      <trkpt lat="43.73438" lon="6.95096">
        <ele>1003.1</ele>
        <time>2016-09-25T07:32:58Z</time>
      </trkpt>
      <trkpt lat="43.73434" lon="6.95094">
        <ele>1004.4</ele>
        <time>2016-09-25T07:33:00Z</time>
      </trkpt>
      <trkpt lat="43.7343" lon="6.95092">
        <ele>1005.8</ele>
        <time>2016-09-25T07:33:02Z</time>
      </trkpt>
      <trkpt lat="43.73426" lon="6.95089">
        <ele>1007.3</ele>
        <time>2016-09-25T07:33:04Z</time>
      </trkpt>
      <trkpt lat="43.73423" lon="6.95087">
        <ele>1008.7</ele>
        <time>2016-09-25T07:33:06Z</time>
      </trkpt>
      <trkpt lat="43.73419" lon="6.95085">
        <ele>1010.1</ele>
        <time>2016-09-25T07:33:08Z</time>
      </trkpt>
      <trkpt lat="43.73416" lon="6.95083">
        <ele>1011.2</ele>
        <time>2016-09-25T07:33:10Z</time>
      </trkpt>
      <trkpt lat="43.73412" lon="6.95082">
        <ele>1012.4</ele>
        <time>2016-09-25T07:33:12Z</time>
      </trkpt>
      <trkpt lat="43.73408" lon="6.95081">
        <ele>1013.3</ele>
        <time>2016-09-25T07:33:14Z</time>
      </trkpt>
      <trkpt lat="43.73404" lon="6.95081">
        <ele>1013.9</ele>
        <time>2016-09-25T07:33:16Z</time>
      </trkpt>
      <trkpt lat="43.734" lon="6.95082">
        <ele>1014.3</ele>
        <time>2016-09-25T07:33:18Z</time>
      </trkpt>
      <trkpt lat="43.73396" lon="6.95083">
        <ele>1014.4</ele>
        <time>2016-09-25T07:33:20Z</time>
      </trkpt>
      <trkpt lat="43.73392" lon="6.95086">
        <ele>1014.4</ele>
        <time>2016-09-25T07:33:22Z</time>
      </trkpt>
      <trkpt lat="43.73389" lon="6.95089">
        <ele>1014</ele>
        <time>2016-09-25T07:33:24Z</time>
      </trkpt>
      <trkpt lat="43.73386" lon="6.95093">
        <ele>1013.3</ele>
        <time>2016-09-25T07:33:26Z</time>
      </trkpt>
      <trkpt lat="43.73384" lon="6.95097">
        <ele>1012.4</ele>
        <time>2016-09-25T07:33:28Z</time>
      </trkpt>
      <trkpt lat="43.73381" lon="6.95101">
        <ele>1011.7</ele>
        <time>2016-09-25T07:33:30Z</time>
      </trkpt>
      <trkpt lat="43.73378" lon="6.95106">
        <ele>1010.9</ele>
        <time>2016-09-25T07:33:32Z</time>
      </trkpt>
      <trkpt lat="43.73375" lon="6.95111">
        <ele>1010.2</ele>
        <time>2016-09-25T07:33:34Z</time>
      </trkpt>
      <trkpt lat="43.73372" lon="6.95115">
        <ele>1009.5</ele>
        <time>2016-09-25T07:33:36Z</time>
      </trkpt>
      <trkpt lat="43.73368" lon="6.9512">
        <ele>1008.8</ele>
        <time>2016-09-25T07:33:38Z</time>
      </trkpt>
      <trkpt lat="43.73365" lon="6.95124">
        <ele>1008.3</ele>
        <time>2016-09-25T07:33:40Z</time>
      </trkpt>
      <trkpt lat="43.73361" lon="6.95129">
        <ele>1007.6</ele>
        <time>2016-09-25T07:33:42Z</time>
      </trkpt>
      <trkpt lat="43.73358" lon="6.95134">
        <ele>1007</ele>
        <time>2016-09-25T07:33:44Z</time>
      </trkpt>
      <trkpt lat="43.73355" lon="6.95138">
        <ele>1006.4</ele>
        <time>2016-09-25T07:33:46Z</time>
      </trkpt>
      <trkpt lat="43.73352" lon="6.95142">
        <ele>1005.9</ele>
        <time>2016-09-25T07:33:48Z</time>
      </trkpt>
      <trkpt lat="43.73349" lon="6.95146">
        <ele>1005.3</ele>
        <time>2016-09-25T07:33:50Z</time>
      </trkpt>
      <trkpt lat="43.73347" lon="6.9515">
        <ele>1004.4</ele>
        <time>2016-09-25T07:33:52Z</time>
      </trkpt>
      <trkpt lat="43.73344" lon="6.95155">
        <ele>1003.6</ele>
        <time>2016-09-25T07:33:54Z</time>
      </trkpt>
      <trkpt lat="43.73341" lon="6.95159">
        <ele>1003</ele>
        <time>2016-09-25T07:33:56Z</time>
      </trkpt>
      <trkpt lat="43.73338" lon="6.95162">
        <ele>1002.7</ele>
        <time>2016-09-25T07:33:58Z</time>
      </trkpt>
      <trkpt lat="43.73335" lon="6.95165">
        <ele>1002.4</ele>
        <time>2016-09-25T07:34:00Z</time>
      </trkpt>
      <trkpt lat="43.73332" lon="6.95168">
        <ele>1002.1</ele>
        <time>2016-09-25T07:34:02Z</time>
      </trkpt>
      <trkpt lat="43.73328" lon="6.95171">
        <ele>1001.9</ele>
        <time>2016-09-25T07:34:04Z</time>
      </trkpt>
      <trkpt lat="43.73324" lon="6.95174">
        <ele>1001.8</ele>
        <time>2016-09-25T07:34:06Z</time>
      </trkpt>
      <trkpt lat="43.7332" lon="6.95176">
        <ele>1002</ele>
        <time>2016-09-25T07:34:08Z</time>
      </trkpt>
      <trkpt lat="43.73316" lon="6.95177">
        <ele>1002.3</ele>
        <time>2016-09-25T07:34:10Z</time>
      </trkpt>
      <trkpt lat="43.73312" lon="6.95178">
        <ele>1002.6</ele>
        <time>2016-09-25T07:34:12Z</time>
      </trkpt>
      <trkpt lat="43.73308" lon="6.9518">
        <ele>1002.8</ele>
        <time>2016-09-25T07:34:14Z</time>
      </trkpt>
      <trkpt lat="43.73304" lon="6.95181">
        <ele>1003.1</ele>
        <time>2016-09-25T07:34:16Z</time>
      </trkpt>
      <trkpt lat="43.733" lon="6.95183">
        <ele>1003.3</ele>
        <time>2016-09-25T07:34:18Z</time>
      </trkpt>
      <trkpt lat="43.73297" lon="6.95183">
        <ele>1003.8</ele>
        <time>2016-09-25T07:34:20Z</time>
      </trkpt>
      <trkpt lat="43.73294" lon="6.95182">
        <ele>1004.5</ele>
        <time>2016-09-25T07:34:22Z</time>
      </trkpt>
      <trkpt lat="43.7329" lon="6.95182">
        <ele>1005</ele>
        <time>2016-09-25T07:34:24Z</time>
      </trkpt>
      <trkpt lat="43.73287" lon="6.95182">
        <ele>1005.4</ele>
        <time>2016-09-25T07:34:26Z</time>
      </trkpt>
      <trkpt lat="43.73284" lon="6.95182">
        <ele>1005.7</ele>
        <time>2016-09-25T07:34:28Z</time>
      </trkpt>
      <trkpt lat="43.7328" lon="6.95181">
        <ele>1006.2</ele>
        <time>2016-09-25T07:34:30Z</time>
      </trkpt>
      <trkpt lat="43.73276" lon="6.95181">
        <ele>1006.7</ele>
        <time>2016-09-25T07:34:32Z</time>
      </trkpt>
      <trkpt lat="43.73272" lon="6.95179">
        <ele>1007.4</ele>
        <time>2016-09-25T07:34:34Z</time>
      </trkpt>
      <trkpt lat="43.73269" lon="6.95178">
        <ele>1008.1</ele>
        <time>2016-09-25T07:34:36Z</time>
      </trkpt>
      <trkpt lat="43.73265" lon="6.95177">
        <ele>1008.7</ele>
        <time>2016-09-25T07:34:38Z</time>
      </trkpt>
      <trkpt lat="43.73261" lon="6.95177">
        <ele>1009.2</ele>
        <time>2016-09-25T07:34:40Z</time>
      </trkpt>
      <trkpt lat="43.73256" lon="6.95176">
        <ele>1009.7</ele>
        <time>2016-09-25T07:34:42Z</time>
      </trkpt>
      <trkpt lat="43.73252" lon="6.95176">
        <ele>1010.1</ele>
        <time>2016-09-25T07:34:44Z</time>
      </trkpt>
      <trkpt lat="43.73247" lon="6.95176">
        <ele>1010.5</ele>
        <time>2016-09-25T07:34:46Z</time>
      </trkpt>
      <trkpt lat="43.73242" lon="6.95177">
        <ele>1010.8</ele>
        <time>2016-09-25T07:34:48Z</time>
      </trkpt>
      <trkpt lat="43.73237" lon="6.95177">
        <ele>1011.2</ele>
        <time>2016-09-25T07:34:50Z</time>
      </trkpt>
      <trkpt lat="43.73233" lon="6.95177">
        <ele>1011.7</ele>
        <time>2016-09-25T07:34:52Z</time>
      </trkpt>
      <trkpt lat="43.73229" lon="6.95176">
        <ele>1012.3</ele>
        <time>2016-09-25T07:34:54Z</time>
      </trkpt>
      <trkpt lat="43.73224" lon="6.95175">
        <ele>1013</ele>
        <time>2016-09-25T07:34:56Z</time>
      </trkpt>
      <trkpt lat="43.7322" lon="6.95174">
        <ele>1013.5</ele>
        <time>2016-09-25T07:34:58Z</time>
      </trkpt>
      <trkpt lat="43.73216" lon="6.95173">
        <ele>1014.1</ele>
        <time>2016-09-25T07:35:00Z</time>
      </trkpt>
      <trkpt lat="43.73211" lon="6.95171">
        <ele>1014.7</ele>
        <time>2016-09-25T07:35:02Z</time>
      </trkpt>
      <trkpt lat="43.73207" lon="6.9517">
        <ele>1015.4</ele>
        <time>2016-09-25T07:35:04Z</time>
      </trkpt>
      <trkpt lat="43.73203" lon="6.9517">
        <ele>1016.2</ele>
        <time>2016-09-25T07:35:06Z</time>
      </trkpt>
      <trkpt lat="43.73199" lon="6.9517">
        <ele>1016.9</ele>
        <time>2016-09-25T07:35:08Z</time>
      </trkpt>
      <trkpt lat="43.73194" lon="6.95171">
        <ele>1017.5</ele>
        <time>2016-09-25T07:35:10Z</time>
      </trkpt>
      <trkpt lat="43.7319" lon="6.95172">
        <ele>1018</ele>
        <time>2016-09-25T07:35:12Z</time>
      </trkpt>
      <trkpt lat="43.73186" lon="6.95173">
        <ele>1018.4</ele>
        <time>2016-09-25T07:35:14Z</time>
      </trkpt>
      <trkpt lat="43.73183" lon="6.95176">
        <ele>1018.6</ele>
        <time>2016-09-25T07:35:16Z</time>
      </trkpt>
      <trkpt lat="43.73179" lon="6.95179">
        <ele>1018.7</ele>
        <time>2016-09-25T07:35:18Z</time>
      </trkpt>
      <trkpt lat="43.73176" lon="6.95183">
        <ele>1018.7</ele>
        <time>2016-09-25T07:35:20Z</time>
      </trkpt>
      <trkpt lat="43.73173" lon="6.95188">
        <ele>1018.6</ele>
        <time>2016-09-25T07:35:22Z</time>
      </trkpt>
      <trkpt lat="43.73171" lon="6.95193">
        <ele>1018.3</ele>
        <time>2016-09-25T07:35:24Z</time>
      </trkpt>
      <trkpt lat="43.7317" lon="6.95199">
        <ele>1018</ele>
        <time>2016-09-25T07:35:26Z</time>
      </trkpt>
      <trkpt lat="43.73169" lon="6.95205">
        <ele>1017.4</ele>
        <time>2016-09-25T07:35:28Z</time>
      </trkpt>
      <trkpt lat="43.73168" lon="6.95211">
        <ele>1017</ele>
        <time>2016-09-25T07:35:30Z</time>
      </trkpt>
      <trkpt lat="43.73167" lon="6.95217">
        <ele>1017</ele>
        <time>2016-09-25T07:35:32Z</time>
      </trkpt>
      <trkpt lat="43.73167" lon="6.95223">
        <ele>1016.8</ele>
        <time>2016-09-25T07:35:34Z</time>
      </trkpt>
      <trkpt lat="43.73166" lon="6.95229">
        <ele>1016.6</ele>
        <time>2016-09-25T07:35:36Z</time>
      </trkpt>
      <trkpt lat="43.73166" lon="6.95235">
        <ele>1016.4</ele>
        <time>2016-09-25T07:35:38Z</time>
      </trkpt>
      <trkpt lat="43.73166" lon="6.95241">
        <ele>1016.1</ele>
        <time>2016-09-25T07:35:40Z</time>
      </trkpt>
      <trkpt lat="43.73166" lon="6.95247">
        <ele>1015.8</ele>
        <time>2016-09-25T07:35:42Z</time>
      </trkpt>
      <trkpt lat="43.73165" lon="6.95253">
        <ele>1015.8</ele>
        <time>2016-09-25T07:35:44Z</time>
      </trkpt>
      <trkpt lat="43.73164" lon="6.95258">
        <ele>1015.8</ele>
        <time>2016-09-25T07:35:46Z</time>
      </trkpt>
      <trkpt lat="43.73163" lon="6.95263">
        <ele>1015.8</ele>
        <time>2016-09-25T07:35:48Z</time>
      </trkpt>
      <trkpt lat="43.73162" lon="6.95269">
        <ele>1015.8</ele>
        <time>2016-09-25T07:35:50Z</time>
      </trkpt>
      <trkpt lat="43.7316" lon="6.95274">
        <ele>1015.8</ele>
        <time>2016-09-25T07:35:52Z</time>
      </trkpt>
      <trkpt lat="43.7316" lon="6.9528">
        <ele>1015.7</ele>
        <time>2016-09-25T07:35:54Z</time>
      </trkpt>
      <trkpt lat="43.73158" lon="6.95285">
        <ele>1015.8</ele>
        <time>2016-09-25T07:35:56Z</time>
      </trkpt>
      <trkpt lat="43.73156" lon="6.9529">
        <ele>1016.1</ele>
        <time>2016-09-25T07:35:58Z</time>
      </trkpt>
      <trkpt lat="43.73153" lon="6.95294">
        <ele>1016.5</ele>
        <time>2016-09-25T07:36:00Z</time>
      </trkpt>
      <trkpt lat="43.7315" lon="6.95298">
        <ele>1016.7</ele>
        <time>2016-09-25T07:36:02Z</time>
      </trkpt>
      <trkpt lat="43.73147" lon="6.95303">
        <ele>1016.8</ele>
        <time>2016-09-25T07:36:04Z</time>
      </trkpt>
      <trkpt lat="43.73144" lon="6.95307">
        <ele>1017</ele>
        <time>2016-09-25T07:36:06Z</time>
      </trkpt>
      <trkpt lat="43.73142" lon="6.95312">
        <ele>1017</ele>
        <time>2016-09-25T07:36:08Z</time>
      </trkpt>
      <trkpt lat="43.73139" lon="6.95316">
        <ele>1017.2</ele>
        <time>2016-09-25T07:36:10Z</time>
      </trkpt>
      <trkpt lat="43.73136" lon="6.9532">
        <ele>1017.3</ele>
        <time>2016-09-25T07:36:12Z</time>
      </trkpt>
      <trkpt lat="43.73133" lon="6.95325">
        <ele>1017.5</ele>
        <time>2016-09-25T07:36:14Z</time>
      </trkpt>
      <trkpt lat="43.7313" lon="6.95329">
        <ele>1017.6</ele>
        <time>2016-09-25T07:36:16Z</time>
      </trkpt>
      <trkpt lat="43.73126" lon="6.95333">
        <ele>1017.8</ele>
        <time>2016-09-25T07:36:18Z</time>
      </trkpt>
      <trkpt lat="43.73123" lon="6.95335">
        <ele>1017.8</ele>
        <time>2016-09-25T07:36:20Z</time>
      </trkpt>
      <trkpt lat="43.73119" lon="6.95337">
        <ele>1017.8</ele>
        <time>2016-09-25T07:36:22Z</time>
      </trkpt>
      <trkpt lat="43.73115" lon="6.95336">
        <ele>1018</ele>
        <time>2016-09-25T07:36:24Z</time>
      </trkpt>
      <trkpt lat="43.73111" lon="6.95333">
        <ele>1018.4</ele>
        <time>2016-09-25T07:36:26Z</time>
      </trkpt>
      <trkpt lat="43.73109" lon="6.95328">
        <ele>1019.1</ele>
        <time>2016-09-25T07:36:28Z</time>
      </trkpt>
      <trkpt lat="43.73108" lon="6.95322">
        <ele>1019.8</ele>
        <time>2016-09-25T07:36:30Z</time>
      </trkpt>
      <trkpt lat="43.7311" lon="6.95317">
        <ele>1020.4</ele>
        <time>2016-09-25T07:36:32Z</time>
      </trkpt>
      <trkpt lat="43.73112" lon="6.95312">
        <ele>1020.9</ele>
        <time>2016-09-25T07:36:34Z</time>
      </trkpt>
      <trkpt lat="43.73115" lon="6.95308">
        <ele>1021.3</ele>
        <time>2016-09-25T07:36:36Z</time>
      </trkpt>
      <trkpt lat="43.73118" lon="6.95303">
        <ele>1021.8</ele>
        <time>2016-09-25T07:36:38Z</time>
      </trkpt>
      <trkpt lat="43.73121" lon="6.95299">
        <ele>1022.3</ele>
        <time>2016-09-25T07:36:40Z</time>
      </trkpt>
      <trkpt lat="43.73123" lon="6.95294">
        <ele>1022.8</ele>
        <time>2016-09-25T07:36:42Z</time>
      </trkpt>
      <trkpt lat="43.73125" lon="6.95289">
        <ele>1023.2</ele>
        <time>2016-09-25T07:36:44Z</time>
      </trkpt>
      <trkpt lat="43.73127" lon="6.95284">
        <ele>1023.1</ele>
        <time>2016-09-25T07:36:46Z</time>
      </trkpt>
      <trkpt lat="43.73128" lon="6.95278">
        <ele>1023.1</ele>
        <time>2016-09-25T07:36:48Z</time>
      </trkpt>
      <trkpt lat="43.73129" lon="6.95273">
        <ele>1023.2</ele>
        <time>2016-09-25T07:36:50Z</time>
      </trkpt>
      <trkpt lat="43.7313" lon="6.95268">
        <ele>1023.2</ele>
        <time>2016-09-25T07:36:52Z</time>
      </trkpt>
      <trkpt lat="43.73132" lon="6.95262">
        <ele>1023.2</ele>
        <time>2016-09-25T07:36:54Z</time>
      </trkpt>
      <trkpt lat="43.73133" lon="6.95256">
        <ele>1023.3</ele>
        <time>2016-09-25T07:36:56Z</time>
      </trkpt>
      <trkpt lat="43.73133" lon="6.9525">
        <ele>1023.5</ele>
        <time>2016-09-25T07:36:58Z</time>
      </trkpt>
      <trkpt lat="43.73132" lon="6.95245">
        <ele>1024.1</ele>
        <time>2016-09-25T07:37:00Z</time>
      </trkpt>
      <trkpt lat="43.73129" lon="6.95242">
        <ele>1025.1</ele>
        <time>2016-09-25T07:37:02Z</time>
      </trkpt>
      <trkpt lat="43.73125" lon="6.95241">
        <ele>1026.1</ele>
        <time>2016-09-25T07:37:04Z</time>
      </trkpt>
      <trkpt lat="43.73121" lon="6.95242">
        <ele>1026.3</ele>
        <time>2016-09-25T07:37:06Z</time>
      </trkpt>
      <trkpt lat="43.73117" lon="6.95245">
        <ele>1026.4</ele>
        <time>2016-09-25T07:37:08Z</time>
      </trkpt>
      <trkpt lat="43.73113" lon="6.95248">
        <ele>1026.4</ele>
        <time>2016-09-25T07:37:10Z</time>
      </trkpt>
      <trkpt lat="43.7311" lon="6.95252">
        <ele>1026.4</ele>
        <time>2016-09-25T07:37:12Z</time>
      </trkpt>
      <trkpt lat="43.73107" lon="6.95255">
        <ele>1026.3</ele>
        <time>2016-09-25T07:37:14Z</time>
      </trkpt>
      <trkpt lat="43.73103" lon="6.95259">
        <ele>1026.2</ele>
        <time>2016-09-25T07:37:16Z</time>
      </trkpt>
      <trkpt lat="43.731" lon="6.95263">
        <ele>1026</ele>
        <time>2016-09-25T07:37:18Z</time>
      </trkpt>
      <trkpt lat="43.73096" lon="6.95268">
        <ele>1025.8</ele>
        <time>2016-09-25T07:37:20Z</time>
      </trkpt>
      <trkpt lat="43.73093" lon="6.95272">
        <ele>1025.6</ele>
        <time>2016-09-25T07:37:22Z</time>
      </trkpt>
      <trkpt lat="43.7309" lon="6.95277">
        <ele>1025.2</ele>
        <time>2016-09-25T07:37:24Z</time>
      </trkpt>
      <trkpt lat="43.73087" lon="6.95282">
        <ele>1024.9</ele>
        <time>2016-09-25T07:37:26Z</time>
      </trkpt>
      <trkpt lat="43.73083" lon="6.95286">
        <ele>1024.6</ele>
        <time>2016-09-25T07:37:28Z</time>
      </trkpt>
      <trkpt lat="43.73079" lon="6.95288">
        <ele>1024.6</ele>
        <time>2016-09-25T07:37:30Z</time>
      </trkpt>
      <trkpt lat="43.73075" lon="6.95286">
        <ele>1024.8</ele>
        <time>2016-09-25T07:37:32Z</time>
      </trkpt>
      <trkpt lat="43.73071" lon="6.95285">
        <ele>1025.1</ele>
        <time>2016-09-25T07:37:34Z</time>
      </trkpt>
      <trkpt lat="43.73067" lon="6.95284">
        <ele>1025.3</ele>
        <time>2016-09-25T07:37:36Z</time>
      </trkpt>
      <trkpt lat="43.73064" lon="6.95283">
        <ele>1025.5</ele>
        <time>2016-09-25T07:37:38Z</time>
      </trkpt>
      <trkpt lat="43.7306" lon="6.95282">
        <ele>1025.8</ele>
        <time>2016-09-25T07:37:40Z</time>
      </trkpt>
      <trkpt lat="43.73056" lon="6.95281">
        <ele>1026.1</ele>
        <time>2016-09-25T07:37:42Z</time>
      </trkpt>
      <trkpt lat="43.73053" lon="6.9528">
        <ele>1026.3</ele>
        <time>2016-09-25T07:37:44Z</time>
      </trkpt>
      <trkpt lat="43.73049" lon="6.95279">
        <ele>1026.5</ele>
        <time>2016-09-25T07:37:46Z</time>
      </trkpt>
      <trkpt lat="43.73046" lon="6.95278">
        <ele>1026.9</ele>
        <time>2016-09-25T07:37:48Z</time>
      </trkpt>
      <trkpt lat="43.73042" lon="6.95276">
        <ele>1027.3</ele>
        <time>2016-09-25T07:37:50Z</time>
      </trkpt>
      <trkpt lat="43.73038" lon="6.95273">
        <ele>1027.9</ele>
        <time>2016-09-25T07:37:52Z</time>
      </trkpt>
      <trkpt lat="43.73034" lon="6.9527">
        <ele>1028.5</ele>
        <time>2016-09-25T07:37:54Z</time>
      </trkpt>
      <trkpt lat="43.7303" lon="6.95267">
        <ele>1029.1</ele>
        <time>2016-09-25T07:37:56Z</time>
      </trkpt>
      <trkpt lat="43.73026" lon="6.95265">
        <ele>1029.6</ele>
        <time>2016-09-25T07:37:58Z</time>
      </trkpt>
      <trkpt lat="43.73022" lon="6.95264">
        <ele>1030</ele>
        <time>2016-09-25T07:38:00Z</time>
      </trkpt>
      <trkpt lat="43.73018" lon="6.95264">
        <ele>1030.3</ele>
        <time>2016-09-25T07:38:02Z</time>
      </trkpt>
      <trkpt lat="43.73013" lon="6.95264">
        <ele>1030.5</ele>
        <time>2016-09-25T07:38:04Z</time>
      </trkpt>
      <trkpt lat="43.73009" lon="6.95264">
        <ele>1030.6</ele>
        <time>2016-09-25T07:38:06Z</time>
      </trkpt>
      <trkpt lat="43.73005" lon="6.95266">
        <ele>1030.7</ele>
        <time>2016-09-25T07:38:08Z</time>
      </trkpt>
      <trkpt lat="43.73" lon="6.95267">
        <ele>1030.7</ele>
        <time>2016-09-25T07:38:10Z</time>
      </trkpt>
      <trkpt lat="43.72996" lon="6.95268">
        <ele>1030.8</ele>
        <time>2016-09-25T07:38:12Z</time>
      </trkpt>
      <trkpt lat="43.72992" lon="6.95268">
        <ele>1031</ele>
        <time>2016-09-25T07:38:14Z</time>
      </trkpt>
      <trkpt lat="43.72988" lon="6.95266">
        <ele>1031.4</ele>
        <time>2016-09-25T07:38:16Z</time>
      </trkpt>
      <trkpt lat="43.72984" lon="6.95264">
        <ele>1032</ele>
        <time>2016-09-25T07:38:18Z</time>
      </trkpt>
      <trkpt lat="43.72981" lon="6.95261">
        <ele>1032.6</ele>
        <time>2016-09-25T07:38:20Z</time>
      </trkpt>
      <trkpt lat="43.72977" lon="6.95259">
        <ele>1033.2</ele>
        <time>2016-09-25T07:38:22Z</time>
      </trkpt>
      <trkpt lat="43.72974" lon="6.95258">
        <ele>1033.5</ele>
        <time>2016-09-25T07:38:24Z</time>
      </trkpt>
      <trkpt lat="43.7297" lon="6.95257">
        <ele>1033.7</ele>
        <time>2016-09-25T07:38:26Z</time>
      </trkpt>
      <trkpt lat="43.72966" lon="6.95257">
        <ele>1034</ele>
        <time>2016-09-25T07:38:28Z</time>
      </trkpt>
      <trkpt lat="43.72963" lon="6.95257">
        <ele>1034.2</ele>
        <time>2016-09-25T07:38:30Z</time>
      </trkpt>
      <trkpt lat="43.7296" lon="6.95257">
        <ele>1034.4</ele>
        <time>2016-09-25T07:38:32Z</time>
      </trkpt>
      <trkpt lat="43.72957" lon="6.95255">
        <ele>1034.6</ele>
        <time>2016-09-25T07:38:34Z</time>
      </trkpt>
      <trkpt lat="43.72955" lon="6.95252">
        <ele>1035.1</ele>
        <time>2016-09-25T07:38:36Z</time>
      </trkpt>
      <trkpt lat="43.72955" lon="6.95247">
        <ele>1035.9</ele>
        <time>2016-09-25T07:38:38Z</time>
      </trkpt>
      <trkpt lat="43.72956" lon="6.95243">
        <ele>1036.6</ele>
        <time>2016-09-25T07:38:40Z</time>
      </trkpt>
      <trkpt lat="43.72958" lon="6.95239">
        <ele>1037.3</ele>
        <time>2016-09-25T07:38:42Z</time>
      </trkpt>
      <trkpt lat="43.7296" lon="6.95235">
        <ele>1037.7</ele>
        <time>2016-09-25T07:38:44Z</time>
      </trkpt>
      <trkpt lat="43.72962" lon="6.95232">
        <ele>1038.2</ele>
        <time>2016-09-25T07:38:46Z</time>
      </trkpt>
      <trkpt lat="43.72964" lon="6.95228">
        <ele>1038.6</ele>
        <time>2016-09-25T07:38:48Z</time>
      </trkpt>
      <trkpt lat="43.72965" lon="6.95225">
        <ele>1039</ele>
        <time>2016-09-25T07:38:50Z</time>
      </trkpt>
      <trkpt lat="43.72967" lon="6.95221">
        <ele>1039.5</ele>
        <time>2016-09-25T07:38:52Z</time>
      </trkpt>
      <trkpt lat="43.72968" lon="6.95218">
        <ele>1040</ele>
        <time>2016-09-25T07:38:54Z</time>
      </trkpt>
      <trkpt lat="43.72969" lon="6.95214">
        <ele>1040.5</ele>
        <time>2016-09-25T07:38:56Z</time>
      </trkpt>
      <trkpt lat="43.72971" lon="6.9521">
        <ele>1041</ele>
        <time>2016-09-25T07:38:58Z</time>
      </trkpt>
      <trkpt lat="43.72972" lon="6.95206">
        <ele>1041.4</ele>
        <time>2016-09-25T07:39:00Z</time>
      </trkpt>
      <trkpt lat="43.72974" lon="6.95203">
        <ele>1041.7</ele>
        <time>2016-09-25T07:39:02Z</time>
      </trkpt>
      <trkpt lat="43.72975" lon="6.95198">
        <ele>1042</ele>
        <time>2016-09-25T07:39:04Z</time>
      </trkpt>
      <trkpt lat="43.72977" lon="6.95195">
        <ele>1042.3</ele>
        <time>2016-09-25T07:39:06Z</time>
      </trkpt>
      <trkpt lat="43.7298" lon="6.95192">
        <ele>1042.5</ele>
        <time>2016-09-25T07:39:08Z</time>
      </trkpt>
      <trkpt lat="43.72982" lon="6.95189">
        <ele>1042.6</ele>
        <time>2016-09-25T07:39:10Z</time>
      </trkpt>
      <trkpt lat="43.72985" lon="6.95186">
        <ele>1042.7</ele>
        <time>2016-09-25T07:39:12Z</time>
      </trkpt>
      <trkpt lat="43.72987" lon="6.95183">
        <ele>1042.8</ele>
        <time>2016-09-25T07:39:14Z</time>
      </trkpt>
      <trkpt lat="43.7299" lon="6.95181">
        <ele>1042.9</ele>
        <time>2016-09-25T07:39:16Z</time>
      </trkpt>
      <trkpt lat="43.72993" lon="6.95178">
        <ele>1043.1</ele>
        <time>2016-09-25T07:39:18Z</time>
      </trkpt>
      <trkpt lat="43.72995" lon="6.95174">
        <ele>1043.4</ele>
        <time>2016-09-25T07:39:20Z</time>
      </trkpt>
      <trkpt lat="43.72996" lon="6.95169">
        <ele>1043.8</ele>
        <time>2016-09-25T07:39:22Z</time>
      </trkpt>
      <trkpt lat="43.72997" lon="6.95165">
        <ele>1044.2</ele>
        <time>2016-09-25T07:39:24Z</time>
      </trkpt>
      <trkpt lat="43.72997" lon="6.9516">
        <ele>1044.7</ele>
        <time>2016-09-25T07:39:26Z</time>
      </trkpt>
      <trkpt lat="43.72996" lon="6.95156">
        <ele>1045.2</ele>
        <time>2016-09-25T07:39:28Z</time>
      </trkpt>
      <trkpt lat="43.72994" lon="6.95152">
        <ele>1045.7</ele>
        <time>2016-09-25T07:39:30Z</time>
      </trkpt>
      <trkpt lat="43.72991" lon="6.95149">
        <ele>1046.1</ele>
        <time>2016-09-25T07:39:32Z</time>
      </trkpt>
      <trkpt lat="43.72988" lon="6.95147">
        <ele>1046.6</ele>
        <time>2016-09-25T07:39:34Z</time>
      </trkpt>
      <trkpt lat="43.72985" lon="6.95145">
        <ele>1047</ele>
        <time>2016-09-25T07:39:36Z</time>
      </trkpt>
      <trkpt lat="43.72983" lon="6.95144">
        <ele>1047.3</ele>
        <time>2016-09-25T07:39:38Z</time>
      </trkpt>
      <trkpt lat="43.7298" lon="6.95144">
        <ele>1047.5</ele>
        <time>2016-09-25T07:39:40Z</time>
      </trkpt>
      <trkpt lat="43.72976" lon="6.95144">
        <ele>1047.8</ele>
        <time>2016-09-25T07:39:42Z</time>
      </trkpt>
      <trkpt lat="43.72973" lon="6.95144">
        <ele>1047.9</ele>
        <time>2016-09-25T07:39:44Z</time>
      </trkpt>
      <trkpt lat="43.7297" lon="6.95144">
        <ele>1048.1</ele>
        <time>2016-09-25T07:39:46Z</time>
      </trkpt>
      <trkpt lat="43.72967" lon="6.95143">
        <ele>1048.4</ele>
        <time>2016-09-25T07:39:48Z</time>
      </trkpt>
      <trkpt lat="43.72963" lon="6.95143">
        <ele>1048.7</ele>
        <time>2016-09-25T07:39:51Z</time>
      </trkpt>
      <trkpt lat="43.72961" lon="6.95142">
        <ele>1049</ele>
        <time>2016-09-25T07:39:53Z</time>
      </trkpt>
      <trkpt lat="43.72958" lon="6.95141">
        <ele>1049.3</ele>
        <time>2016-09-25T07:39:55Z</time>
      </trkpt>
      <trkpt lat="43.72955" lon="6.9514">
        <ele>1049.6</ele>
        <time>2016-09-25T07:39:57Z</time>
      </trkpt>
      <trkpt lat="43.72952" lon="6.95138">
        <ele>1050</ele>
        <time>2016-09-25T07:39:59Z</time>
      </trkpt>
      <trkpt lat="43.72949" lon="6.95137">
        <ele>1050.3</ele>
        <time>2016-09-25T07:40:01Z</time>
      </trkpt>
      <trkpt lat="43.72946" lon="6.95137">
        <ele>1050.6</ele>
        <time>2016-09-25T07:40:03Z</time>
      </trkpt>
      <trkpt lat="43.72943" lon="6.95136">
        <ele>1050.8</ele>
        <time>2016-09-25T07:40:05Z</time>
      </trkpt>
      <trkpt lat="43.7294" lon="6.95136">
        <ele>1051</ele>
        <time>2016-09-25T07:40:07Z</time>
      </trkpt>
      <trkpt lat="43.72937" lon="6.95136">
        <ele>1051.2</ele>
        <time>2016-09-25T07:40:09Z</time>
      </trkpt>
      <trkpt lat="43.72934" lon="6.95137">
        <ele>1051.4</ele>
        <time>2016-09-25T07:40:11Z</time>
      </trkpt>
      <trkpt lat="43.72931" lon="6.95137">
        <ele>1051.6</ele>
        <time>2016-09-25T07:40:13Z</time>
      </trkpt>
      <trkpt lat="43.72928" lon="6.95137">
        <ele>1051.8</ele>
        <time>2016-09-25T07:40:15Z</time>
      </trkpt>
      <trkpt lat="43.72925" lon="6.95137">
        <ele>1052</ele>
        <time>2016-09-25T07:40:17Z</time>
      </trkpt>
      <trkpt lat="43.72922" lon="6.95136">
        <ele>1052.2</ele>
        <time>2016-09-25T07:40:19Z</time>
      </trkpt>
      <trkpt lat="43.72919" lon="6.95136">
        <ele>1052.5</ele>
        <time>2016-09-25T07:40:21Z</time>
      </trkpt>
      <trkpt lat="43.72916" lon="6.95136">
        <ele>1052.6</ele>
        <time>2016-09-25T07:40:23Z</time>
      </trkpt>
      <trkpt lat="43.72913" lon="6.95136">
        <ele>1052.9</ele>
        <time>2016-09-25T07:40:25Z</time>
      </trkpt>
      <trkpt lat="43.7291" lon="6.95136">
        <ele>1053.1</ele>
        <time>2016-09-25T07:40:27Z</time>
      </trkpt>
      <trkpt lat="43.72907" lon="6.95136">
        <ele>1053.3</ele>
        <time>2016-09-25T07:40:29Z</time>
      </trkpt>
      <trkpt lat="43.72903" lon="6.95136">
        <ele>1053.5</ele>
        <time>2016-09-25T07:40:31Z</time>
      </trkpt>
      <trkpt lat="43.729" lon="6.95135">
        <ele>1053.8</ele>
        <time>2016-09-25T07:40:33Z</time>
      </trkpt>
      <trkpt lat="43.72896" lon="6.95134">
        <ele>1054.3</ele>
        <time>2016-09-25T07:40:35Z</time>
      </trkpt>
      <trkpt lat="43.72893" lon="6.95133">
        <ele>1054.7</ele>
        <time>2016-09-25T07:40:37Z</time>
      </trkpt>
      <trkpt lat="43.72889" lon="6.95131">
        <ele>1055.2</ele>
        <time>2016-09-25T07:40:39Z</time>
      </trkpt>
      <trkpt lat="43.72886" lon="6.95129">
        <ele>1055.7</ele>
        <time>2016-09-25T07:40:41Z</time>
      </trkpt>
      <trkpt lat="43.72883" lon="6.95126">
        <ele>1056.4</ele>
        <time>2016-09-25T07:40:43Z</time>
      </trkpt>
      <trkpt lat="43.72881" lon="6.95122">
        <ele>1057.1</ele>
        <time>2016-09-25T07:40:45Z</time>
      </trkpt>
      <trkpt lat="43.7288" lon="6.95117">
        <ele>1057.8</ele>
        <time>2016-09-25T07:40:47Z</time>
      </trkpt>
      <trkpt lat="43.72881" lon="6.95112">
        <ele>1058.4</ele>
        <time>2016-09-25T07:40:49Z</time>
      </trkpt>
      <trkpt lat="43.72883" lon="6.95108">
        <ele>1058.9</ele>
        <time>2016-09-25T07:40:51Z</time>
      </trkpt>
      <trkpt lat="43.72886" lon="6.95105">
        <ele>1059.2</ele>
        <time>2016-09-25T07:40:53Z</time>
      </trkpt>
      <trkpt lat="43.72889" lon="6.95102">
        <ele>1059.5</ele>
        <time>2016-09-25T07:40:55Z</time>
      </trkpt>
      <trkpt lat="43.72891" lon="6.95099">
        <ele>1059.8</ele>
        <time>2016-09-25T07:40:57Z</time>
      </trkpt>
      <trkpt lat="43.72894" lon="6.95096">
        <ele>1060.1</ele>
        <time>2016-09-25T07:40:59Z</time>
      </trkpt>
      <trkpt lat="43.72896" lon="6.95092">
        <ele>1060.5</ele>
        <time>2016-09-25T07:41:01Z</time>
      </trkpt>
      <trkpt lat="43.72899" lon="6.95088">
        <ele>1060.9</ele>
        <time>2016-09-25T07:41:03Z</time>
      </trkpt>
      <trkpt lat="43.72902" lon="6.95084">
        <ele>1061.4</ele>
        <time>2016-09-25T07:41:05Z</time>
      </trkpt>
      <trkpt lat="43.72904" lon="6.95081">
        <ele>1061.8</ele>
        <time>2016-09-25T07:41:07Z</time>
      </trkpt>
      <trkpt lat="43.72907" lon="6.95078">
        <ele>1062.2</ele>
        <time>2016-09-25T07:41:09Z</time>
      </trkpt>
      <trkpt lat="43.72909" lon="6.95074">
        <ele>1062.6</ele>
        <time>2016-09-25T07:41:11Z</time>
      </trkpt>
      <trkpt lat="43.72912" lon="6.95071">
        <ele>1063</ele>
        <time>2016-09-25T07:41:13Z</time>
      </trkpt>
      <trkpt lat="43.72915" lon="6.95069">
        <ele>1063.2</ele>
        <time>2016-09-25T07:41:15Z</time>
      </trkpt>
      <trkpt lat="43.72918" lon="6.95066">
        <ele>1063.5</ele>
        <time>2016-09-25T07:41:17Z</time>
      </trkpt>
      <trkpt lat="43.72921" lon="6.95063">
        <ele>1063.9</ele>
        <time>2016-09-25T07:41:19Z</time>
      </trkpt>
      <trkpt lat="43.72924" lon="6.9506">
        <ele>1064.2</ele>
        <time>2016-09-25T07:41:21Z</time>
      </trkpt>
      <trkpt lat="43.72927" lon="6.95057">
        <ele>1064.6</ele>
        <time>2016-09-25T07:41:23Z</time>
      </trkpt>
      <trkpt lat="43.72929" lon="6.95053">
        <ele>1065.1</ele>
        <time>2016-09-25T07:41:25Z</time>
      </trkpt>
      <trkpt lat="43.72932" lon="6.95051">
        <ele>1065.5</ele>
        <time>2016-09-25T07:41:27Z</time>
      </trkpt>
      <trkpt lat="43.72935" lon="6.95048">
        <ele>1065.8</ele>
        <time>2016-09-25T07:41:29Z</time>
      </trkpt>
      <trkpt lat="43.72938" lon="6.95045">
        <ele>1066.2</ele>
        <time>2016-09-25T07:41:31Z</time>
      </trkpt>
      <trkpt lat="43.72941" lon="6.95042">
        <ele>1066.6</ele>
        <time>2016-09-25T07:41:33Z</time>
      </trkpt>
      <trkpt lat="43.72944" lon="6.95039">
        <ele>1066.8</ele>
        <time>2016-09-25T07:41:35Z</time>
      </trkpt>
      <trkpt lat="43.72947" lon="6.95037">
        <ele>1067</ele>
        <time>2016-09-25T07:41:37Z</time>
      </trkpt>
      <trkpt lat="43.7295" lon="6.95034">
        <ele>1067.1</ele>
        <time>2016-09-25T07:41:39Z</time>
      </trkpt>
      <trkpt lat="43.72953" lon="6.95032">
        <ele>1067.3</ele>
        <time>2016-09-25T07:41:41Z</time>
      </trkpt>
      <trkpt lat="43.72956" lon="6.95028">
        <ele>1067.6</ele>
        <time>2016-09-25T07:41:43Z</time>
      </trkpt>
      <trkpt lat="43.72959" lon="6.95025">
        <ele>1067.8</ele>
        <time>2016-09-25T07:41:45Z</time>
      </trkpt>
      <trkpt lat="43.72962" lon="6.95021">
        <ele>1067.9</ele>
        <time>2016-09-25T07:41:47Z</time>
      </trkpt>
      <trkpt lat="43.72964" lon="6.95017">
        <ele>1068.1</ele>
        <time>2016-09-25T07:41:49Z</time>
      </trkpt>
      <trkpt lat="43.72966" lon="6.95013">
        <ele>1068.2</ele>
        <time>2016-09-25T07:41:51Z</time>
      </trkpt>
      <trkpt lat="43.72968" lon="6.9501">
        <ele>1068.4</ele>
        <time>2016-09-25T07:41:53Z</time>
      </trkpt>
      <trkpt lat="43.72969" lon="6.95006">
        <ele>1068.6</ele>
        <time>2016-09-25T07:41:55Z</time>
      </trkpt>
      <trkpt lat="43.72971" lon="6.95002">
        <ele>1068.8</ele>
        <time>2016-09-25T07:41:57Z</time>
      </trkpt>
      <trkpt lat="43.72973" lon="6.94999">
        <ele>1069</ele>
        <time>2016-09-25T07:41:59Z</time>
      </trkpt>
      <trkpt lat="43.72975" lon="6.94995">
        <ele>1069.2</ele>
        <time>2016-09-25T07:42:01Z</time>
      </trkpt>
      <trkpt lat="43.72977" lon="6.94991">
        <ele>1069.4</ele>
        <time>2016-09-25T07:42:03Z</time>
      </trkpt>
      <trkpt lat="43.72979" lon="6.94988">
        <ele>1069.5</ele>
        <time>2016-09-25T07:42:05Z</time>
      </trkpt>
      <trkpt lat="43.72981" lon="6.94984">
        <ele>1069.7</ele>
        <time>2016-09-25T07:42:07Z</time>
      </trkpt>
      <trkpt lat="43.72984" lon="6.9498">
        <ele>1069.9</ele>
        <time>2016-09-25T07:42:09Z</time>
      </trkpt>
      <trkpt lat="43.72986" lon="6.94976">
        <ele>1070</ele>
        <time>2016-09-25T07:42:11Z</time>
      </trkpt>
      <trkpt lat="43.72988" lon="6.94973">
        <ele>1070.2</ele>
        <time>2016-09-25T07:42:13Z</time>
      </trkpt>
      <trkpt lat="43.7299" lon="6.94969">
        <ele>1070.4</ele>
        <time>2016-09-25T07:42:15Z</time>
      </trkpt>
      <trkpt lat="43.72991" lon="6.94964">
        <ele>1070.7</ele>
        <time>2016-09-25T07:42:17Z</time>
      </trkpt>
      <trkpt lat="43.72993" lon="6.9496">
        <ele>1071.1</ele>
        <time>2016-09-25T07:42:19Z</time>
      </trkpt>
      <trkpt lat="43.72994" lon="6.94956">
        <ele>1071.4</ele>
        <time>2016-09-25T07:42:21Z</time>
      </trkpt>
      <trkpt lat="43.72995" lon="6.94951">
        <ele>1071.7</ele>
        <time>2016-09-25T07:42:23Z</time>
      </trkpt>
      <trkpt lat="43.72995" lon="6.94947">
        <ele>1072.1</ele>
        <time>2016-09-25T07:42:25Z</time>
      </trkpt>
      <trkpt lat="43.72994" lon="6.94942">
        <ele>1072.7</ele>
        <time>2016-09-25T07:42:27Z</time>
      </trkpt>
      <trkpt lat="43.72992" lon="6.94938">
        <ele>1073.2</ele>
        <time>2016-09-25T07:42:29Z</time>
      </trkpt>
      <trkpt lat="43.7299" lon="6.94935">
        <ele>1073.8</ele>
        <time>2016-09-25T07:42:31Z</time>
      </trkpt>
      <trkpt lat="43.72987" lon="6.94932">
        <ele>1074.3</ele>
        <time>2016-09-25T07:42:33Z</time>
      </trkpt>
      <trkpt lat="43.72984" lon="6.9493">
        <ele>1074.8</ele>
        <time>2016-09-25T07:42:35Z</time>
      </trkpt>
      <trkpt lat="43.72981" lon="6.94929">
        <ele>1075.2</ele>
        <time>2016-09-25T07:42:37Z</time>
      </trkpt>
      <trkpt lat="43.72977" lon="6.94928">
        <ele>1075.7</ele>
        <time>2016-09-25T07:42:40Z</time>
      </trkpt>
      <trkpt lat="43.72975" lon="6.94927">
        <ele>1076</ele>
        <time>2016-09-25T07:42:42Z</time>
      </trkpt>
      <trkpt lat="43.72972" lon="6.94927">
        <ele>1076.3</ele>
        <time>2016-09-25T07:42:44Z</time>
      </trkpt>
      <trkpt lat="43.72969" lon="6.94928">
        <ele>1076.5</ele>
        <time>2016-09-25T07:42:46Z</time>
      </trkpt>
      <trkpt lat="43.72966" lon="6.94929">
        <ele>1076.7</ele>
        <time>2016-09-25T07:42:48Z</time>
      </trkpt>
      <trkpt lat="43.72963" lon="6.94929">
        <ele>1077</ele>
        <time>2016-09-25T07:42:50Z</time>
      </trkpt>
      <trkpt lat="43.7296" lon="6.94928">
        <ele>1077.4</ele>
        <time>2016-09-25T07:42:52Z</time>
      </trkpt>
      <trkpt lat="43.72956" lon="6.94927">
        <ele>1077.6</ele>
        <time>2016-09-25T07:42:54Z</time>
      </trkpt>
      <trkpt lat="43.72953" lon="6.94927">
        <ele>1077.7</ele>
        <time>2016-09-25T07:42:56Z</time>
      </trkpt>
      <trkpt lat="43.7295" lon="6.94926">
        <ele>1077.8</ele>
        <time>2016-09-25T07:42:58Z</time>
      </trkpt>
      <trkpt lat="43.72946" lon="6.94925">
        <ele>1077.9</ele>
        <time>2016-09-25T07:43:00Z</time>
      </trkpt>
      <trkpt lat="43.72943" lon="6.94926">
        <ele>1077.9</ele>
        <time>2016-09-25T07:43:02Z</time>
      </trkpt>
      <trkpt lat="43.7294" lon="6.94926">
        <ele>1077.8</ele>
        <time>2016-09-25T07:43:04Z</time>
      </trkpt>
      <trkpt lat="43.72937" lon="6.94927">
        <ele>1077.8</ele>
        <time>2016-09-25T07:43:06Z</time>
      </trkpt>
      <trkpt lat="43.72933" lon="6.94927">
        <ele>1077.8</ele>
        <time>2016-09-25T07:43:08Z</time>
      </trkpt>
      <trkpt lat="43.7293" lon="6.94927">
        <ele>1077.8</ele>
        <time>2016-09-25T07:43:10Z</time>
      </trkpt>
      <trkpt lat="43.72928" lon="6.94928">
        <ele>1077.8</ele>
        <time>2016-09-25T07:43:12Z</time>
      </trkpt>
      <trkpt lat="43.72925" lon="6.94929">
        <ele>1077.8</ele>
        <time>2016-09-25T07:43:14Z</time>
      </trkpt>
      <trkpt lat="43.72922" lon="6.94928">
        <ele>1077.8</ele>
        <time>2016-09-25T07:43:16Z</time>
      </trkpt>
      <trkpt lat="43.72919" lon="6.94927">
        <ele>1077.9</ele>
        <time>2016-09-25T07:43:18Z</time>
      </trkpt>
      <trkpt lat="43.72915" lon="6.94926">
        <ele>1078.1</ele>
        <time>2016-09-25T07:43:20Z</time>
      </trkpt>
      <trkpt lat="43.72912" lon="6.94925">
        <ele>1078.1</ele>
        <time>2016-09-25T07:43:22Z</time>
      </trkpt>
      <trkpt lat="43.72909" lon="6.94925">
        <ele>1078.2</ele>
        <time>2016-09-25T07:43:24Z</time>
      </trkpt>
      <trkpt lat="43.72906" lon="6.94925">
        <ele>1078.2</ele>
        <time>2016-09-25T07:43:26Z</time>
      </trkpt>
      <trkpt lat="43.72902" lon="6.94925">
        <ele>1078.2</ele>
        <time>2016-09-25T07:43:28Z</time>
      </trkpt>
      <trkpt lat="43.72899" lon="6.94926">
        <ele>1078.2</ele>
        <time>2016-09-25T07:43:30Z</time>
      </trkpt>
      <trkpt lat="43.72895" lon="6.94927">
        <ele>1078.1</ele>
        <time>2016-09-25T07:43:32Z</time>
      </trkpt>
      <trkpt lat="43.72892" lon="6.94927">
        <ele>1078.1</ele>
        <time>2016-09-25T07:43:34Z</time>
      </trkpt>
      <trkpt lat="43.72888" lon="6.94926">
        <ele>1078.2</ele>
        <time>2016-09-25T07:43:36Z</time>
      </trkpt>
      <trkpt lat="43.72885" lon="6.94925">
        <ele>1078.4</ele>
        <time>2016-09-25T07:43:38Z</time>
      </trkpt>
      <trkpt lat="43.72882" lon="6.94923">
        <ele>1078.5</ele>
        <time>2016-09-25T07:43:40Z</time>
      </trkpt>
      <trkpt lat="43.72878" lon="6.94921">
        <ele>1078.7</ele>
        <time>2016-09-25T07:43:42Z</time>
      </trkpt>
      <trkpt lat="43.72875" lon="6.94918">
        <ele>1078.9</ele>
        <time>2016-09-25T07:43:44Z</time>
      </trkpt>
      <trkpt lat="43.72872" lon="6.94915">
        <ele>1079.2</ele>
        <time>2016-09-25T07:43:46Z</time>
      </trkpt>
      <trkpt lat="43.72869" lon="6.94913">
        <ele>1079.4</ele>
        <time>2016-09-25T07:43:48Z</time>
      </trkpt>
      <trkpt lat="43.72866" lon="6.9491">
        <ele>1079.7</ele>
        <time>2016-09-25T07:43:50Z</time>
      </trkpt>
      <trkpt lat="43.72864" lon="6.94907">
        <ele>1080.1</ele>
        <time>2016-09-25T07:43:52Z</time>
      </trkpt>
      <trkpt lat="43.7286" lon="6.94904">
        <ele>1080.3</ele>
        <time>2016-09-25T07:43:54Z</time>
      </trkpt>
      <trkpt lat="43.72857" lon="6.94902">
        <ele>1080.6</ele>
        <time>2016-09-25T07:43:56Z</time>
      </trkpt>
      <trkpt lat="43.72854" lon="6.94899">
        <ele>1081</ele>
        <time>2016-09-25T07:43:58Z</time>
      </trkpt>
      <trkpt lat="43.72852" lon="6.94895">
        <ele>1081.4</ele>
        <time>2016-09-25T07:44:00Z</time>
      </trkpt>
      <trkpt lat="43.72852" lon="6.9489">
        <ele>1081.9</ele>
        <time>2016-09-25T07:44:02Z</time>
      </trkpt>
      <trkpt lat="43.72851" lon="6.94885">
        <ele>1082.3</ele>
        <time>2016-09-25T07:44:04Z</time>
      </trkpt>
      <trkpt lat="43.72852" lon="6.9488">
        <ele>1082.7</ele>
        <time>2016-09-25T07:44:06Z</time>
      </trkpt>
      <trkpt lat="43.72853" lon="6.94876">
        <ele>1083</ele>
        <time>2016-09-25T07:44:08Z</time>
      </trkpt>
      <trkpt lat="43.72853" lon="6.94872">
        <ele>1083.4</ele>
        <time>2016-09-25T07:44:10Z</time>
      </trkpt>
      <trkpt lat="43.72854" lon="6.94867">
        <ele>1083.7</ele>
        <time>2016-09-25T07:44:12Z</time>
      </trkpt>
      <trkpt lat="43.72855" lon="6.94863">
        <ele>1084.1</ele>
        <time>2016-09-25T07:44:14Z</time>
      </trkpt>
      <trkpt lat="43.72855" lon="6.94858">
        <ele>1084.5</ele>
        <time>2016-09-25T07:44:16Z</time>
      </trkpt>
      <trkpt lat="43.72855" lon="6.94853">
        <ele>1085</ele>
        <time>2016-09-25T07:44:18Z</time>
      </trkpt>
      <trkpt lat="43.72854" lon="6.94848">
        <ele>1085.6</ele>
        <time>2016-09-25T07:44:20Z</time>
      </trkpt>
      <trkpt lat="43.72852" lon="6.94844">
        <ele>1086</ele>
        <time>2016-09-25T07:44:22Z</time>
      </trkpt>
      <trkpt lat="43.72849" lon="6.9484">
        <ele>1086.5</ele>
        <time>2016-09-25T07:44:24Z</time>
      </trkpt>
      <trkpt lat="43.72847" lon="6.94836">
        <ele>1086.9</ele>
        <time>2016-09-25T07:44:26Z</time>
      </trkpt>
      <trkpt lat="43.72844" lon="6.94833">
        <ele>1087.3</ele>
        <time>2016-09-25T07:44:28Z</time>
      </trkpt>
      <trkpt lat="43.72841" lon="6.94831">
        <ele>1087.7</ele>
        <time>2016-09-25T07:44:30Z</time>
      </trkpt>
      <trkpt lat="43.72838" lon="6.94828">
        <ele>1088</ele>
        <time>2016-09-25T07:44:32Z</time>
      </trkpt>
      <trkpt lat="43.72836" lon="6.94825">
        <ele>1088.4</ele>
        <time>2016-09-25T07:44:34Z</time>
      </trkpt>
      <trkpt lat="43.72834" lon="6.94821">
        <ele>1088.8</ele>
        <time>2016-09-25T07:44:36Z</time>
      </trkpt>
      <trkpt lat="43.72833" lon="6.94817">
        <ele>1089.3</ele>
        <time>2016-09-25T07:44:38Z</time>
      </trkpt>
      <trkpt lat="43.72832" lon="6.94812">
        <ele>1089.7</ele>
        <time>2016-09-25T07:44:40Z</time>
      </trkpt>
      <trkpt lat="43.72833" lon="6.94807">
        <ele>1090.1</ele>
        <time>2016-09-25T07:44:42Z</time>
      </trkpt>
      <trkpt lat="43.72834" lon="6.94803">
        <ele>1090.5</ele>
        <time>2016-09-25T07:44:44Z</time>
      </trkpt>
      <trkpt lat="43.72834" lon="6.94798">
        <ele>1090.9</ele>
        <time>2016-09-25T07:44:46Z</time>
      </trkpt>
      <trkpt lat="43.72836" lon="6.94794">
        <ele>1091.2</ele>
        <time>2016-09-25T07:44:48Z</time>
      </trkpt>
      <trkpt lat="43.72837" lon="6.94789">
        <ele>1091.6</ele>
        <time>2016-09-25T07:44:50Z</time>
      </trkpt>
      <trkpt lat="43.72837" lon="6.94785">
        <ele>1091.9</ele>
        <time>2016-09-25T07:44:52Z</time>
      </trkpt>
      <trkpt lat="43.72837" lon="6.9478">
        <ele>1092.2</ele>
        <time>2016-09-25T07:44:54Z</time>
      </trkpt>
      <trkpt lat="43.72837" lon="6.94776">
        <ele>1092.6</ele>
        <time>2016-09-25T07:44:56Z</time>
      </trkpt>
      <trkpt lat="43.72836" lon="6.94772">
        <ele>1092.9</ele>
        <time>2016-09-25T07:44:58Z</time>
      </trkpt>
      <trkpt lat="43.72835" lon="6.94768">
        <ele>1093.3</ele>
        <time>2016-09-25T07:45:00Z</time>
      </trkpt>
      <trkpt lat="43.72834" lon="6.94765">
        <ele>1093.6</ele>
        <time>2016-09-25T07:45:02Z</time>
      </trkpt>
      <trkpt lat="43.72832" lon="6.94761">
        <ele>1093.9</ele>
        <time>2016-09-25T07:45:04Z</time>
      </trkpt>
      <trkpt lat="43.72831" lon="6.94758">
        <ele>1094.2</ele>
        <time>2016-09-25T07:45:06Z</time>
      </trkpt>
      <trkpt lat="43.72829" lon="6.94754">
        <ele>1094.5</ele>
        <time>2016-09-25T07:45:08Z</time>
      </trkpt>
      <trkpt lat="43.72827" lon="6.94751">
        <ele>1094.9</ele>
        <time>2016-09-25T07:45:10Z</time>
      </trkpt>
      <trkpt lat="43.72826" lon="6.94747">
        <ele>1095.2</ele>
        <time>2016-09-25T07:45:12Z</time>
      </trkpt>
      <trkpt lat="43.72824" lon="6.94744">
        <ele>1095.5</ele>
        <time>2016-09-25T07:45:14Z</time>
      </trkpt>
      <trkpt lat="43.72822" lon="6.94739">
        <ele>1095.9</ele>
        <time>2016-09-25T07:45:17Z</time>
      </trkpt>
      <trkpt lat="43.7282" lon="6.94735">
        <ele>1096.3</ele>
        <time>2016-09-25T07:45:20Z</time>
      </trkpt>
      <trkpt lat="43.72818" lon="6.94732">
        <ele>1096.6</ele>
        <time>2016-09-25T07:45:22Z</time>
      </trkpt>
      <trkpt lat="43.72816" lon="6.94729">
        <ele>1096.9</ele>
        <time>2016-09-25T07:45:24Z</time>
      </trkpt>
      <trkpt lat="43.72813" lon="6.94726">
        <ele>1097.2</ele>
        <time>2016-09-25T07:45:26Z</time>
      </trkpt>
      <trkpt lat="43.72811" lon="6.94723">
        <ele>1097.4</ele>
        <time>2016-09-25T07:45:28Z</time>
      </trkpt>
      <trkpt lat="43.72809" lon="6.9472">
        <ele>1097.7</ele>
        <time>2016-09-25T07:45:30Z</time>
      </trkpt>
      <trkpt lat="43.72807" lon="6.94717">
        <ele>1098</ele>
        <time>2016-09-25T07:45:32Z</time>
      </trkpt>
      <trkpt lat="43.72804" lon="6.94715">
        <ele>1098.2</ele>
        <time>2016-09-25T07:45:34Z</time>
      </trkpt>
      <trkpt lat="43.72802" lon="6.94713">
        <ele>1098.4</ele>
        <time>2016-09-25T07:45:36Z</time>
      </trkpt>
      <trkpt lat="43.728" lon="6.94711">
        <ele>1098.6</ele>
        <time>2016-09-25T07:45:38Z</time>
      </trkpt>
      <trkpt lat="43.72798" lon="6.94707">
        <ele>1099</ele>
        <time>2016-09-25T07:45:40Z</time>
      </trkpt>
      <trkpt lat="43.72797" lon="6.94703">
        <ele>1099.3</ele>
        <time>2016-09-25T07:45:42Z</time>
      </trkpt>
      <trkpt lat="43.72796" lon="6.94699">
        <ele>1099.6</ele>
        <time>2016-09-25T07:45:44Z</time>
      </trkpt>
      <trkpt lat="43.72795" lon="6.94695">
        <ele>1099.9</ele>
        <time>2016-09-25T07:45:46Z</time>
      </trkpt>
      <trkpt lat="43.72794" lon="6.9469">
        <ele>1100.2</ele>
        <time>2016-09-25T07:45:48Z</time>
      </trkpt>
      <trkpt lat="43.72794" lon="6.94686">
        <ele>1100.6</ele>
        <time>2016-09-25T07:45:50Z</time>
      </trkpt>
      <trkpt lat="43.72793" lon="6.94681">
        <ele>1100.9</ele>
        <time>2016-09-25T07:45:52Z</time>
      </trkpt>
      <trkpt lat="43.72792" lon="6.94677">
        <ele>1101.2</ele>
        <time>2016-09-25T07:45:54Z</time>
      </trkpt>
      <trkpt lat="43.72791" lon="6.94673">
        <ele>1101.6</ele>
        <time>2016-09-25T07:45:56Z</time>
      </trkpt>
      <trkpt lat="43.72791" lon="6.94669">
        <ele>1102</ele>
        <time>2016-09-25T07:45:58Z</time>
      </trkpt>
      <trkpt lat="43.7279" lon="6.94664">
        <ele>1102.3</ele>
        <time>2016-09-25T07:46:00Z</time>
      </trkpt>
      <trkpt lat="43.72789" lon="6.94661">
        <ele>1102.7</ele>
        <time>2016-09-25T07:46:02Z</time>
      </trkpt>
      <trkpt lat="43.72788" lon="6.94657">
        <ele>1103.1</ele>
        <time>2016-09-25T07:46:04Z</time>
      </trkpt>
      <trkpt lat="43.72787" lon="6.94652">
        <ele>1103.5</ele>
        <time>2016-09-25T07:46:06Z</time>
      </trkpt>
      <trkpt lat="43.72786" lon="6.94648">
        <ele>1103.9</ele>
        <time>2016-09-25T07:46:08Z</time>
      </trkpt>
      <trkpt lat="43.72785" lon="6.94644">
        <ele>1104.3</ele>
        <time>2016-09-25T07:46:10Z</time>
      </trkpt>
      <trkpt lat="43.72785" lon="6.9464">
        <ele>1104.7</ele>
        <time>2016-09-25T07:46:12Z</time>
      </trkpt>
      <trkpt lat="43.72784" lon="6.94635">
        <ele>1105.1</ele>
        <time>2016-09-25T07:46:14Z</time>
      </trkpt>
      <trkpt lat="43.72783" lon="6.94631">
        <ele>1105.4</ele>
        <time>2016-09-25T07:46:16Z</time>
      </trkpt>
      <trkpt lat="43.72783" lon="6.94627">
        <ele>1105.8</ele>
        <time>2016-09-25T07:46:18Z</time>
      </trkpt>
      <trkpt lat="43.72781" lon="6.94623">
        <ele>1106.3</ele>
        <time>2016-09-25T07:46:20Z</time>
      </trkpt>
      <trkpt lat="43.7278" lon="6.94619">
        <ele>1106.7</ele>
        <time>2016-09-25T07:46:22Z</time>
      </trkpt>
      <trkpt lat="43.72779" lon="6.94615">
        <ele>1107.1</ele>
        <time>2016-09-25T07:46:24Z</time>
      </trkpt>
      <trkpt lat="43.72778" lon="6.94611">
        <ele>1107.5</ele>
        <time>2016-09-25T07:46:26Z</time>
      </trkpt>
      <trkpt lat="43.72777" lon="6.94607">
        <ele>1107.9</ele>
        <time>2016-09-25T07:46:28Z</time>
      </trkpt>
      <trkpt lat="43.72777" lon="6.94603">
        <ele>1108.2</ele>
        <time>2016-09-25T07:46:30Z</time>
      </trkpt>
      <trkpt lat="43.72778" lon="6.946">
        <ele>1108.4</ele>
        <time>2016-09-25T07:46:32Z</time>
      </trkpt>
      <trkpt lat="43.72779" lon="6.94595">
        <ele>1108.7</ele>
        <time>2016-09-25T07:46:34Z</time>
      </trkpt>
      <trkpt lat="43.72779" lon="6.94591">
        <ele>1108.9</ele>
        <time>2016-09-25T07:46:36Z</time>
      </trkpt>
      <trkpt lat="43.7278" lon="6.94588">
        <ele>1109.2</ele>
        <time>2016-09-25T07:46:38Z</time>
      </trkpt>
      <trkpt lat="43.72781" lon="6.94582">
        <ele>1109.5</ele>
        <time>2016-09-25T07:46:41Z</time>
      </trkpt>
      <trkpt lat="43.72781" lon="6.94578">
        <ele>1109.8</ele>
        <time>2016-09-25T07:46:43Z</time>
      </trkpt>
      <trkpt lat="43.72781" lon="6.94573">
        <ele>1110.2</ele>
        <time>2016-09-25T07:46:46Z</time>
      </trkpt>
      <trkpt lat="43.72782" lon="6.94569">
        <ele>1110.5</ele>
        <time>2016-09-25T07:46:48Z</time>
      </trkpt>
      <trkpt lat="43.72782" lon="6.94565">
        <ele>1110.7</ele>
        <time>2016-09-25T07:46:50Z</time>
      </trkpt>
      <trkpt lat="43.72783" lon="6.94561">
        <ele>1111</ele>
        <time>2016-09-25T07:46:52Z</time>
      </trkpt>
      <trkpt lat="43.72783" lon="6.94557">
        <ele>1111.3</ele>
        <time>2016-09-25T07:46:54Z</time>
      </trkpt>
      <trkpt lat="43.72782" lon="6.94553">
        <ele>1111.7</ele>
        <time>2016-09-25T07:46:56Z</time>
      </trkpt>
      <trkpt lat="43.72782" lon="6.94549">
        <ele>1112.1</ele>
        <time>2016-09-25T07:46:58Z</time>
      </trkpt>
      <trkpt lat="43.72781" lon="6.94544">
        <ele>1112.4</ele>
        <time>2016-09-25T07:47:00Z</time>
      </trkpt>
      <trkpt lat="43.72782" lon="6.9454">
        <ele>1112.6</ele>
        <time>2016-09-25T07:47:02Z</time>
      </trkpt>
      <trkpt lat="43.72783" lon="6.94535">
        <ele>1112.6</ele>
        <time>2016-09-25T07:47:04Z</time>
      </trkpt>
      <trkpt lat="43.72785" lon="6.9453">
        <ele>1112.6</ele>
        <time>2016-09-25T07:47:06Z</time>
      </trkpt>
      <trkpt lat="43.72786" lon="6.94524">
        <ele>1112.6</ele>
        <time>2016-09-25T07:47:08Z</time>
      </trkpt>
      <trkpt lat="43.72786" lon="6.94517">
        <ele>1112.7</ele>
        <time>2016-09-25T07:47:10Z</time>
      </trkpt>
      <trkpt lat="43.72787" lon="6.94511">
        <ele>1112.7</ele>
        <time>2016-09-25T07:47:12Z</time>
      </trkpt>
      <trkpt lat="43.72788" lon="6.94504">
        <ele>1112.8</ele>
        <time>2016-09-25T07:47:14Z</time>
      </trkpt>
      <trkpt lat="43.72788" lon="6.945">
        <ele>1112.8</ele>
        <time>2016-09-25T07:47:15Z</time>
      </trkpt>
      <trkpt lat="43.72788" lon="6.94496">
        <ele>1112.9</ele>
        <time>2016-09-25T07:47:16Z</time>
      </trkpt>
      <trkpt lat="43.72789" lon="6.94492">
        <ele>1112.9</ele>
        <time>2016-09-25T07:47:17Z</time>
      </trkpt>
      <trkpt lat="43.72789" lon="6.94488">
        <ele>1112.9</ele>
        <time>2016-09-25T07:47:18Z</time>
      </trkpt>
      <trkpt lat="43.7279" lon="6.94484">
        <ele>1112.9</ele>
        <time>2016-09-25T07:47:19Z</time>
      </trkpt>
      <trkpt lat="43.72791" lon="6.9448">
        <ele>1112.8</ele>
        <time>2016-09-25T07:47:20Z</time>
      </trkpt>
      <trkpt lat="43.72792" lon="6.94476">
        <ele>1112.8</ele>
        <time>2016-09-25T07:47:21Z</time>
      </trkpt>
      <trkpt lat="43.72793" lon="6.94473">
        <ele>1112.8</ele>
        <time>2016-09-25T07:47:22Z</time>
      </trkpt>
      <trkpt lat="43.72793" lon="6.94469">
        <ele>1112.8</ele>
        <time>2016-09-25T07:47:23Z</time>
      </trkpt>
      <trkpt lat="43.72794" lon="6.94465">
        <ele>1112.8</ele>
        <time>2016-09-25T07:47:24Z</time>
      </trkpt>
      <trkpt lat="43.72795" lon="6.94458">
        <ele>1112.8</ele>
        <time>2016-09-25T07:47:26Z</time>
      </trkpt>
      <trkpt lat="43.72796" lon="6.94451">
        <ele>1113</ele>
        <time>2016-09-25T07:47:28Z</time>
      </trkpt>
      <trkpt lat="43.72797" lon="6.94444">
        <ele>1113.1</ele>
        <time>2016-09-25T07:47:30Z</time>
      </trkpt>
      <trkpt lat="43.72798" lon="6.94437">
        <ele>1113.3</ele>
        <time>2016-09-25T07:47:32Z</time>
      </trkpt>
      <trkpt lat="43.72799" lon="6.94431">
        <ele>1113.5</ele>
        <time>2016-09-25T07:47:34Z</time>
      </trkpt>
      <trkpt lat="43.728" lon="6.94424">
        <ele>1113.7</ele>
        <time>2016-09-25T07:47:36Z</time>
      </trkpt>
      <trkpt lat="43.72801" lon="6.94418">
        <ele>1113.9</ele>
        <time>2016-09-25T07:47:38Z</time>
      </trkpt>
      <trkpt lat="43.72801" lon="6.94411">
        <ele>1114.1</ele>
        <time>2016-09-25T07:47:40Z</time>
      </trkpt>
      <trkpt lat="43.728" lon="6.94405">
        <ele>1114.4</ele>
        <time>2016-09-25T07:47:42Z</time>
      </trkpt>
      <trkpt lat="43.72798" lon="6.94399">
        <ele>1114.8</ele>
        <time>2016-09-25T07:47:44Z</time>
      </trkpt>
      <trkpt lat="43.72794" lon="6.94394">
        <ele>1115.1</ele>
        <time>2016-09-25T07:47:46Z</time>
      </trkpt>
      <trkpt lat="43.72792" lon="6.94389">
        <ele>1115.5</ele>
        <time>2016-09-25T07:47:48Z</time>
      </trkpt>
      <trkpt lat="43.7279" lon="6.94383">
        <ele>1116</ele>
        <time>2016-09-25T07:47:50Z</time>
      </trkpt>
      <trkpt lat="43.72792" lon="6.94377">
        <ele>1115.9</ele>
        <time>2016-09-25T07:47:52Z</time>
      </trkpt>
      <trkpt lat="43.72794" lon="6.94371">
        <ele>1116.2</ele>
        <time>2016-09-25T07:47:54Z</time>
      </trkpt>
      <trkpt lat="43.72795" lon="6.94365">
        <ele>1116.7</ele>
        <time>2016-09-25T07:47:56Z</time>
      </trkpt>
      <trkpt lat="43.72796" lon="6.94359">
        <ele>1117.3</ele>
        <time>2016-09-25T07:47:58Z</time>
      </trkpt>
      <trkpt lat="43.72797" lon="6.94352">
        <ele>1117.8</ele>
        <time>2016-09-25T07:48:00Z</time>
      </trkpt>
      <trkpt lat="43.72798" lon="6.94346">
        <ele>1118.3</ele>
        <time>2016-09-25T07:48:02Z</time>
      </trkpt>
      <trkpt lat="43.72799" lon="6.9434">
        <ele>1118.8</ele>
        <time>2016-09-25T07:48:04Z</time>
      </trkpt>
      <trkpt lat="43.72799" lon="6.94333">
        <ele>1119.4</ele>
        <time>2016-09-25T07:48:06Z</time>
      </trkpt>
      <trkpt lat="43.72798" lon="6.94328">
        <ele>1120</ele>
        <time>2016-09-25T07:48:08Z</time>
      </trkpt>
      <trkpt lat="43.72796" lon="6.94322">
        <ele>1120.7</ele>
        <time>2016-09-25T07:48:10Z</time>
      </trkpt>
      <trkpt lat="43.72795" lon="6.94315">
        <ele>1121.4</ele>
        <time>2016-09-25T07:48:12Z</time>
      </trkpt>
      <trkpt lat="43.72794" lon="6.94309">
        <ele>1122.1</ele>
        <time>2016-09-25T07:48:14Z</time>
      </trkpt>
      <trkpt lat="43.72794" lon="6.94302">
        <ele>1122.8</ele>
        <time>2016-09-25T07:48:16Z</time>
      </trkpt>
      <trkpt lat="43.72795" lon="6.94295">
        <ele>1123.3</ele>
        <time>2016-09-25T07:48:18Z</time>
      </trkpt>
      <trkpt lat="43.72796" lon="6.94288">
        <ele>1124</ele>
        <time>2016-09-25T07:48:20Z</time>
      </trkpt>
      <trkpt lat="43.72796" lon="6.94281">
        <ele>1124.8</ele>
        <time>2016-09-25T07:48:22Z</time>
      </trkpt>
      <trkpt lat="43.72797" lon="6.94274">
        <ele>1125.7</ele>
        <time>2016-09-25T07:48:24Z</time>
      </trkpt>
      <trkpt lat="43.72796" lon="6.94267">
        <ele>1126.6</ele>
        <time>2016-09-25T07:48:26Z</time>
      </trkpt>
      <trkpt lat="43.72795" lon="6.94261">
        <ele>1127.6</ele>
        <time>2016-09-25T07:48:28Z</time>
      </trkpt>
      <trkpt lat="43.72793" lon="6.94254">
        <ele>1128.7</ele>
        <time>2016-09-25T07:48:30Z</time>
      </trkpt>
      <trkpt lat="43.72793" lon="6.94248">
        <ele>1129.6</ele>
        <time>2016-09-25T07:48:32Z</time>
      </trkpt>
      <trkpt lat="43.72792" lon="6.94242">
        <ele>1130.5</ele>
        <time>2016-09-25T07:48:34Z</time>
      </trkpt>
      <trkpt lat="43.72791" lon="6.94236">
        <ele>1131.5</ele>
        <time>2016-09-25T07:48:36Z</time>
      </trkpt>
      <trkpt lat="43.7279" lon="6.94231">
        <ele>1132.4</ele>
        <time>2016-09-25T07:48:38Z</time>
      </trkpt>
      <trkpt lat="43.72788" lon="6.94225">
        <ele>1133.3</ele>
        <time>2016-09-25T07:48:40Z</time>
      </trkpt>
      <trkpt lat="43.72786" lon="6.9422">
        <ele>1134.2</ele>
        <time>2016-09-25T07:48:42Z</time>
      </trkpt>
      <trkpt lat="43.72784" lon="6.94215">
        <ele>1135.1</ele>
        <time>2016-09-25T07:48:44Z</time>
      </trkpt>
      <trkpt lat="43.72783" lon="6.9421">
        <ele>1135.8</ele>
        <time>2016-09-25T07:48:46Z</time>
      </trkpt>
      <trkpt lat="43.72782" lon="6.94205">
        <ele>1136.3</ele>
        <time>2016-09-25T07:48:48Z</time>
      </trkpt>
      <trkpt lat="43.72781" lon="6.94201">
        <ele>1136.7</ele>
        <time>2016-09-25T07:48:50Z</time>
      </trkpt>
      <trkpt lat="43.72781" lon="6.94197">
        <ele>1136.8</ele>
        <time>2016-09-25T07:48:52Z</time>
      </trkpt>
      <trkpt lat="43.7278" lon="6.94192">
        <ele>1137.2</ele>
        <time>2016-09-25T07:48:54Z</time>
      </trkpt>
      <trkpt lat="43.72782" lon="6.94188">
        <ele>1137.2</ele>
        <time>2016-09-25T07:48:57Z</time>
      </trkpt>
      <trkpt lat="43.72783" lon="6.94183">
        <ele>1137.3</ele>
        <time>2016-09-25T07:49:00Z</time>
      </trkpt>
      <trkpt lat="43.72782" lon="6.94178">
        <ele>1137.7</ele>
        <time>2016-09-25T07:49:03Z</time>
      </trkpt>
      <trkpt lat="43.72781" lon="6.94174">
        <ele>1137.9</ele>
        <time>2016-09-25T07:49:05Z</time>
      </trkpt>
      <trkpt lat="43.7278" lon="6.9417">
        <ele>1138.2</ele>
        <time>2016-09-25T07:49:07Z</time>
      </trkpt>
      <trkpt lat="43.7278" lon="6.94166">
        <ele>1138.4</ele>
        <time>2016-09-25T07:49:09Z</time>
      </trkpt>
      <trkpt lat="43.7278" lon="6.94161">
        <ele>1138.7</ele>
        <time>2016-09-25T07:49:12Z</time>
      </trkpt>
      <trkpt lat="43.72782" lon="6.94158">
        <ele>1138.6</ele>
        <time>2016-09-25T07:49:15Z</time>
      </trkpt>
      <trkpt lat="43.72782" lon="6.94152">
        <ele>1138.8</ele>
        <time>2016-09-25T07:49:18Z</time>
      </trkpt>
      <trkpt lat="43.72782" lon="6.94148">
        <ele>1139.1</ele>
        <time>2016-09-25T07:49:21Z</time>
      </trkpt>
      <trkpt lat="43.7278" lon="6.94144">
        <ele>1139.5</ele>
        <time>2016-09-25T07:49:24Z</time>
      </trkpt>
      <trkpt lat="43.72778" lon="6.94141">
        <ele>1139.8</ele>
        <time>2016-09-25T07:49:26Z</time>
      </trkpt>
      <trkpt lat="43.72777" lon="6.94138">
        <ele>1140.2</ele>
        <time>2016-09-25T07:49:28Z</time>
      </trkpt>
      <trkpt lat="43.72777" lon="6.94133">
        <ele>1140.4</ele>
        <time>2016-09-25T07:49:31Z</time>
      </trkpt>
      <trkpt lat="43.72778" lon="6.94129">
        <ele>1140.5</ele>
        <time>2016-09-25T07:49:33Z</time>
      </trkpt>
      <trkpt lat="43.72779" lon="6.94124">
        <ele>1140.5</ele>
        <time>2016-09-25T07:49:36Z</time>
      </trkpt>
      <trkpt lat="43.7278" lon="6.9412">
        <ele>1140.5</ele>
        <time>2016-09-25T07:49:38Z</time>
      </trkpt>
      <trkpt lat="43.7278" lon="6.94116">
        <ele>1140.5</ele>
        <time>2016-09-25T07:49:40Z</time>
      </trkpt>
      <trkpt lat="43.72781" lon="6.94112">
        <ele>1140.5</ele>
        <time>2016-09-25T07:49:43Z</time>
      </trkpt>
      <trkpt lat="43.72782" lon="6.94108">
        <ele>1140.4</ele>
        <time>2016-09-25T07:49:45Z</time>
      </trkpt>
      <trkpt lat="43.72784" lon="6.94105">
        <ele>1140.3</ele>
        <time>2016-09-25T07:49:47Z</time>
      </trkpt>
      <trkpt lat="43.72786" lon="6.94101">
        <ele>1140.1</ele>
        <time>2016-09-25T07:49:49Z</time>
      </trkpt>
      <trkpt lat="43.72787" lon="6.94098">
        <ele>1140</ele>
        <time>2016-09-25T07:49:51Z</time>
      </trkpt>
      <trkpt lat="43.72788" lon="6.94094">
        <ele>1139.9</ele>
        <time>2016-09-25T07:49:53Z</time>
      </trkpt>
      <trkpt lat="43.7279" lon="6.9409">
        <ele>1139.7</ele>
        <time>2016-09-25T07:49:55Z</time>
      </trkpt>
      <trkpt lat="43.72791" lon="6.94085">
        <ele>1139.6</ele>
        <time>2016-09-25T07:49:57Z</time>
      </trkpt>
      <trkpt lat="43.72791" lon="6.9408">
        <ele>1139.6</ele>
        <time>2016-09-25T07:49:59Z</time>
      </trkpt>
      <trkpt lat="43.72791" lon="6.94076">
        <ele>1139.7</ele>
        <time>2016-09-25T07:50:01Z</time>
      </trkpt>
      <trkpt lat="43.72793" lon="6.94071">
        <ele>1139.5</ele>
        <time>2016-09-25T07:50:03Z</time>
      </trkpt>
      <trkpt lat="43.72795" lon="6.94067">
        <ele>1139.4</ele>
        <time>2016-09-25T07:50:05Z</time>
      </trkpt>
      <trkpt lat="43.72796" lon="6.94063">
        <ele>1139.2</ele>
        <time>2016-09-25T07:50:07Z</time>
      </trkpt>
      <trkpt lat="43.72798" lon="6.94059">
        <ele>1139.2</ele>
        <time>2016-09-25T07:50:09Z</time>
      </trkpt>
      <trkpt lat="43.72798" lon="6.94055">
        <ele>1139.2</ele>
        <time>2016-09-25T07:50:11Z</time>
      </trkpt>
      <trkpt lat="43.72799" lon="6.94051">
        <ele>1139.2</ele>
        <time>2016-09-25T07:50:13Z</time>
      </trkpt>
      <trkpt lat="43.72799" lon="6.94047">
        <ele>1139.2</ele>
        <time>2016-09-25T07:50:15Z</time>
      </trkpt>
      <trkpt lat="43.728" lon="6.94043">
        <ele>1139.2</ele>
        <time>2016-09-25T07:50:17Z</time>
      </trkpt>
      <trkpt lat="43.72801" lon="6.94039">
        <ele>1139.3</ele>
        <time>2016-09-25T07:50:19Z</time>
      </trkpt>
      <trkpt lat="43.72803" lon="6.94035">
        <ele>1139.3</ele>
        <time>2016-09-25T07:50:21Z</time>
      </trkpt>
      <trkpt lat="43.72804" lon="6.94031">
        <ele>1139.3</ele>
        <time>2016-09-25T07:50:23Z</time>
      </trkpt>
      <trkpt lat="43.72805" lon="6.94027">
        <ele>1139.3</ele>
        <time>2016-09-25T07:50:25Z</time>
      </trkpt>
      <trkpt lat="43.72806" lon="6.94024">
        <ele>1139.3</ele>
        <time>2016-09-25T07:50:27Z</time>
      </trkpt>
      <trkpt lat="43.72808" lon="6.94021">
        <ele>1139.2</ele>
        <time>2016-09-25T07:50:29Z</time>
      </trkpt>
      <trkpt lat="43.72811" lon="6.94018">
        <ele>1139.1</ele>
        <time>2016-09-25T07:50:31Z</time>
      </trkpt>
      <trkpt lat="43.72812" lon="6.94015">
        <ele>1139</ele>
        <time>2016-09-25T07:50:33Z</time>
      </trkpt>
      <trkpt lat="43.72814" lon="6.94011">
        <ele>1138.9</ele>
        <time>2016-09-25T07:50:35Z</time>
      </trkpt>
      <trkpt lat="43.72817" lon="6.94008">
        <ele>1138.8</ele>
        <time>2016-09-25T07:50:37Z</time>
      </trkpt>
      <trkpt lat="43.72819" lon="6.94005">
        <ele>1138.7</ele>
        <time>2016-09-25T07:50:39Z</time>
      </trkpt>
      <trkpt lat="43.72822" lon="6.94003">
        <ele>1138.6</ele>
        <time>2016-09-25T07:50:41Z</time>
      </trkpt>
      <trkpt lat="43.72824" lon="6.94">
        <ele>1138.4</ele>
        <time>2016-09-25T07:50:43Z</time>
      </trkpt>
      <trkpt lat="43.72827" lon="6.93997">
        <ele>1138.3</ele>
        <time>2016-09-25T07:50:45Z</time>
      </trkpt>
      <trkpt lat="43.72829" lon="6.93993">
        <ele>1138.3</ele>
        <time>2016-09-25T07:50:47Z</time>
      </trkpt>
      <trkpt lat="43.72831" lon="6.9399">
        <ele>1138.2</ele>
        <time>2016-09-25T07:50:49Z</time>
      </trkpt>
      <trkpt lat="43.72833" lon="6.93987">
        <ele>1138.1</ele>
        <time>2016-09-25T07:50:51Z</time>
      </trkpt>
      <trkpt lat="43.72834" lon="6.93983">
        <ele>1138.2</ele>
        <time>2016-09-25T07:50:54Z</time>
      </trkpt>
      <trkpt lat="43.72831" lon="6.93981">
        <ele>1138.5</ele>
        <time>2016-09-25T07:50:56Z</time>
      </trkpt>
      <trkpt lat="43.72828" lon="6.93981">
        <ele>1138.7</ele>
        <time>2016-09-25T07:50:58Z</time>
      </trkpt>
      <trkpt lat="43.72825" lon="6.93981">
        <ele>1138.9</ele>
        <time>2016-09-25T07:51:00Z</time>
      </trkpt>
      <trkpt lat="43.72822" lon="6.93981">
        <ele>1139.2</ele>
        <time>2016-09-25T07:51:02Z</time>
      </trkpt>
      <trkpt lat="43.72819" lon="6.93981">
        <ele>1139.4</ele>
        <time>2016-09-25T07:51:04Z</time>
      </trkpt>
      <trkpt lat="43.72816" lon="6.93981">
        <ele>1139.6</ele>
        <time>2016-09-25T07:51:06Z</time>
      </trkpt>
      <trkpt lat="43.72813" lon="6.93981">
        <ele>1139.9</ele>
        <time>2016-09-25T07:51:08Z</time>
      </trkpt>
      <trkpt lat="43.7281" lon="6.93981">
        <ele>1140.1</ele>
        <time>2016-09-25T07:51:10Z</time>
      </trkpt>
      <trkpt lat="43.72807" lon="6.9398">
        <ele>1140.3</ele>
        <time>2016-09-25T07:51:12Z</time>
      </trkpt>
      <trkpt lat="43.72804" lon="6.9398">
        <ele>1140.6</ele>
        <time>2016-09-25T07:51:14Z</time>
      </trkpt>
      <trkpt lat="43.72801" lon="6.93979">
        <ele>1140.8</ele>
        <time>2016-09-25T07:51:16Z</time>
      </trkpt>
      <trkpt lat="43.72797" lon="6.93979">
        <ele>1141.1</ele>
        <time>2016-09-25T07:51:18Z</time>
      </trkpt>
      <trkpt lat="43.72794" lon="6.9398">
        <ele>1141.3</ele>
        <time>2016-09-25T07:51:20Z</time>
      </trkpt>
      <trkpt lat="43.72791" lon="6.9398">
        <ele>1141.6</ele>
        <time>2016-09-25T07:51:22Z</time>
      </trkpt>
      <trkpt lat="43.72787" lon="6.9398">
        <ele>1142</ele>
        <time>2016-09-25T07:51:24Z</time>
      </trkpt>
      <trkpt lat="43.72784" lon="6.9398">
        <ele>1142.3</ele>
        <time>2016-09-25T07:51:26Z</time>
      </trkpt>
      <trkpt lat="43.7278" lon="6.9398">
        <ele>1142.6</ele>
        <time>2016-09-25T07:51:28Z</time>
      </trkpt>
      <trkpt lat="43.72777" lon="6.9398">
        <ele>1143</ele>
        <time>2016-09-25T07:51:30Z</time>
      </trkpt>
      <trkpt lat="43.72774" lon="6.9398">
        <ele>1143.3</ele>
        <time>2016-09-25T07:51:32Z</time>
      </trkpt>
      <trkpt lat="43.7277" lon="6.93979">
        <ele>1143.7</ele>
        <time>2016-09-25T07:51:34Z</time>
      </trkpt>
      <trkpt lat="43.72767" lon="6.93978">
        <ele>1144</ele>
        <time>2016-09-25T07:51:36Z</time>
      </trkpt>
      <trkpt lat="43.72763" lon="6.93977">
        <ele>1144.4</ele>
        <time>2016-09-25T07:51:38Z</time>
      </trkpt>
      <trkpt lat="43.7276" lon="6.93977">
        <ele>1144.8</ele>
        <time>2016-09-25T07:51:40Z</time>
      </trkpt>
      <trkpt lat="43.72756" lon="6.93976">
        <ele>1145.1</ele>
        <time>2016-09-25T07:51:42Z</time>
      </trkpt>
      <trkpt lat="43.72753" lon="6.93975">
        <ele>1145.5</ele>
        <time>2016-09-25T07:51:44Z</time>
      </trkpt>
      <trkpt lat="43.72749" lon="6.93974">
        <ele>1145.8</ele>
        <time>2016-09-25T07:51:46Z</time>
      </trkpt>
      <trkpt lat="43.72745" lon="6.93973">
        <ele>1146.1</ele>
        <time>2016-09-25T07:51:48Z</time>
      </trkpt>
      <trkpt lat="43.72742" lon="6.93972">
        <ele>1146.5</ele>
        <time>2016-09-25T07:51:50Z</time>
      </trkpt>
      <trkpt lat="43.72738" lon="6.93971">
        <ele>1146.8</ele>
        <time>2016-09-25T07:51:52Z</time>
      </trkpt>
      <trkpt lat="43.72735" lon="6.9397">
        <ele>1147.1</ele>
        <time>2016-09-25T07:51:54Z</time>
      </trkpt>
      <trkpt lat="43.72731" lon="6.93969">
        <ele>1147.4</ele>
        <time>2016-09-25T07:51:56Z</time>
      </trkpt>
      <trkpt lat="43.72727" lon="6.93967">
        <ele>1147.7</ele>
        <time>2016-09-25T07:51:58Z</time>
      </trkpt>
      <trkpt lat="43.72724" lon="6.93967">
        <ele>1148</ele>
        <time>2016-09-25T07:52:00Z</time>
      </trkpt>
      <trkpt lat="43.7272" lon="6.93966">
        <ele>1148.3</ele>
        <time>2016-09-25T07:52:02Z</time>
      </trkpt>
      <trkpt lat="43.72717" lon="6.93966">
        <ele>1148.6</ele>
        <time>2016-09-25T07:52:04Z</time>
      </trkpt>
      <trkpt lat="43.72714" lon="6.93965">
        <ele>1148.8</ele>
        <time>2016-09-25T07:52:06Z</time>
      </trkpt>
      <trkpt lat="43.72711" lon="6.93963">
        <ele>1149</ele>
        <time>2016-09-25T07:52:08Z</time>
      </trkpt>
      <trkpt lat="43.72708" lon="6.93963">
        <ele>1149.3</ele>
        <time>2016-09-25T07:52:10Z</time>
      </trkpt>
      <trkpt lat="43.72705" lon="6.93962">
        <ele>1149.7</ele>
        <time>2016-09-25T07:52:12Z</time>
      </trkpt>
      <trkpt lat="43.72702" lon="6.93962">
        <ele>1150.1</ele>
        <time>2016-09-25T07:52:14Z</time>
      </trkpt>
      <trkpt lat="43.72699" lon="6.93961">
        <ele>1150.5</ele>
        <time>2016-09-25T07:52:16Z</time>
      </trkpt>
      <trkpt lat="43.72696" lon="6.9396">
        <ele>1150.9</ele>
        <time>2016-09-25T07:52:18Z</time>
      </trkpt>
      <trkpt lat="43.72693" lon="6.9396">
        <ele>1151.4</ele>
        <time>2016-09-25T07:52:20Z</time>
      </trkpt>
      <trkpt lat="43.7269" lon="6.9396">
        <ele>1151.7</ele>
        <time>2016-09-25T07:52:22Z</time>
      </trkpt>
      <trkpt lat="43.72687" lon="6.9396">
        <ele>1152.1</ele>
        <time>2016-09-25T07:52:24Z</time>
      </trkpt>
      <trkpt lat="43.72684" lon="6.9396">
        <ele>1152.5</ele>
        <time>2016-09-25T07:52:26Z</time>
      </trkpt>
      <trkpt lat="43.72682" lon="6.93959">
        <ele>1152.9</ele>
        <time>2016-09-25T07:52:28Z</time>
      </trkpt>
      <trkpt lat="43.72679" lon="6.93959">
        <ele>1153.3</ele>
        <time>2016-09-25T07:52:30Z</time>
      </trkpt>
      <trkpt lat="43.72676" lon="6.93958">
        <ele>1153.7</ele>
        <time>2016-09-25T07:52:32Z</time>
      </trkpt>
      <trkpt lat="43.72673" lon="6.93957">
        <ele>1154.1</ele>
        <time>2016-09-25T07:52:34Z</time>
      </trkpt>
      <trkpt lat="43.7267" lon="6.93956">
        <ele>1154.5</ele>
        <time>2016-09-25T07:52:36Z</time>
      </trkpt>
      <trkpt lat="43.72666" lon="6.93955">
        <ele>1155</ele>
        <time>2016-09-25T07:52:38Z</time>
      </trkpt>
      <trkpt lat="43.72663" lon="6.93954">
        <ele>1155.4</ele>
        <time>2016-09-25T07:52:40Z</time>
      </trkpt>
      <trkpt lat="43.7266" lon="6.93953">
        <ele>1155.8</ele>
        <time>2016-09-25T07:52:42Z</time>
      </trkpt>
      <trkpt lat="43.72657" lon="6.93953">
        <ele>1156.2</ele>
        <time>2016-09-25T07:52:44Z</time>
      </trkpt>
      <trkpt lat="43.72654" lon="6.93952">
        <ele>1156.7</ele>
        <time>2016-09-25T07:52:46Z</time>
      </trkpt>
      <trkpt lat="43.7265" lon="6.93951">
        <ele>1157.1</ele>
        <time>2016-09-25T07:52:48Z</time>
      </trkpt>
      <trkpt lat="43.72647" lon="6.93951">
        <ele>1157.6</ele>
        <time>2016-09-25T07:52:50Z</time>
      </trkpt>
      <trkpt lat="43.72644" lon="6.9395">
        <ele>1158</ele>
        <time>2016-09-25T07:52:52Z</time>
      </trkpt>
      <trkpt lat="43.7264" lon="6.93949">
        <ele>1158.4</ele>
        <time>2016-09-25T07:52:54Z</time>
      </trkpt>
      <trkpt lat="43.72637" lon="6.93949">
        <ele>1158.9</ele>
        <time>2016-09-25T07:52:56Z</time>
      </trkpt>
      <trkpt lat="43.72634" lon="6.93948">
        <ele>1159.3</ele>
        <time>2016-09-25T07:52:58Z</time>
      </trkpt>
      <trkpt lat="43.7263" lon="6.93948">
        <ele>1159.8</ele>
        <time>2016-09-25T07:53:00Z</time>
      </trkpt>
      <trkpt lat="43.72627" lon="6.93948">
        <ele>1160.2</ele>
        <time>2016-09-25T07:53:02Z</time>
      </trkpt>
      <trkpt lat="43.72624" lon="6.93947">
        <ele>1160.6</ele>
        <time>2016-09-25T07:53:04Z</time>
      </trkpt>
      <trkpt lat="43.72621" lon="6.93947">
        <ele>1161.1</ele>
        <time>2016-09-25T07:53:06Z</time>
      </trkpt>
      <trkpt lat="43.72617" lon="6.93946">
        <ele>1161.5</ele>
        <time>2016-09-25T07:53:08Z</time>
      </trkpt>
      <trkpt lat="43.72614" lon="6.93946">
        <ele>1161.9</ele>
        <time>2016-09-25T07:53:10Z</time>
      </trkpt>
      <trkpt lat="43.72611" lon="6.93945">
        <ele>1162.4</ele>
        <time>2016-09-25T07:53:12Z</time>
      </trkpt>
      <trkpt lat="43.72607" lon="6.93944">
        <ele>1162.8</ele>
        <time>2016-09-25T07:53:14Z</time>
      </trkpt>
      <trkpt lat="43.72604" lon="6.93944">
        <ele>1163.2</ele>
        <time>2016-09-25T07:53:16Z</time>
      </trkpt>
      <trkpt lat="43.72601" lon="6.93943">
        <ele>1163.7</ele>
        <time>2016-09-25T07:53:18Z</time>
      </trkpt>
      <trkpt lat="43.72598" lon="6.93943">
        <ele>1164.1</ele>
        <time>2016-09-25T07:53:20Z</time>
      </trkpt>
      <trkpt lat="43.72594" lon="6.93942">
        <ele>1164.5</ele>
        <time>2016-09-25T07:53:22Z</time>
      </trkpt>
      <trkpt lat="43.72591" lon="6.93941">
        <ele>1164.9</ele>
        <time>2016-09-25T07:53:24Z</time>
      </trkpt>
      <trkpt lat="43.72588" lon="6.93941">
        <ele>1165.4</ele>
        <time>2016-09-25T07:53:26Z</time>
      </trkpt>
      <trkpt lat="43.72584" lon="6.9394">
        <ele>1165.8</ele>
        <time>2016-09-25T07:53:28Z</time>
      </trkpt>
      <trkpt lat="43.72581" lon="6.9394">
        <ele>1166.2</ele>
        <time>2016-09-25T07:53:30Z</time>
      </trkpt>
      <trkpt lat="43.72577" lon="6.93939">
        <ele>1166.7</ele>
        <time>2016-09-25T07:53:32Z</time>
      </trkpt>
      <trkpt lat="43.72574" lon="6.93939">
        <ele>1167.1</ele>
        <time>2016-09-25T07:53:34Z</time>
      </trkpt>
      <trkpt lat="43.72571" lon="6.93938">
        <ele>1167.5</ele>
        <time>2016-09-25T07:53:36Z</time>
      </trkpt>
      <trkpt lat="43.72568" lon="6.93938">
        <ele>1167.9</ele>
        <time>2016-09-25T07:53:38Z</time>
      </trkpt>
      <trkpt lat="43.72565" lon="6.93937">
        <ele>1168.3</ele>
        <time>2016-09-25T07:53:40Z</time>
      </trkpt>
      <trkpt lat="43.72562" lon="6.93937">
        <ele>1168.7</ele>
        <time>2016-09-25T07:53:42Z</time>
      </trkpt>
      <trkpt lat="43.72559" lon="6.93936">
        <ele>1169.1</ele>
        <time>2016-09-25T07:53:44Z</time>
      </trkpt>
      <trkpt lat="43.72555" lon="6.93935">
        <ele>1169.5</ele>
        <time>2016-09-25T07:53:46Z</time>
      </trkpt>
      <trkpt lat="43.72552" lon="6.93934">
        <ele>1169.8</ele>
        <time>2016-09-25T07:53:48Z</time>
      </trkpt>
      <trkpt lat="43.72549" lon="6.93933">
        <ele>1170.2</ele>
        <time>2016-09-25T07:53:50Z</time>
      </trkpt>
      <trkpt lat="43.72546" lon="6.93933">
        <ele>1170.6</ele>
        <time>2016-09-25T07:53:52Z</time>
      </trkpt>
      <trkpt lat="43.72542" lon="6.93932">
        <ele>1171</ele>
        <time>2016-09-25T07:53:54Z</time>
      </trkpt>
      <trkpt lat="43.72539" lon="6.93931">
        <ele>1171.4</ele>
        <time>2016-09-25T07:53:56Z</time>
      </trkpt>
      <trkpt lat="43.72536" lon="6.9393">
        <ele>1171.9</ele>
        <time>2016-09-25T07:53:58Z</time>
      </trkpt>
      <trkpt lat="43.72533" lon="6.9393">
        <ele>1172.4</ele>
        <time>2016-09-25T07:54:00Z</time>
      </trkpt>
      <trkpt lat="43.7253" lon="6.93929">
        <ele>1172.8</ele>
        <time>2016-09-25T07:54:02Z</time>
      </trkpt>
      <trkpt lat="43.72527" lon="6.93928">
        <ele>1173.3</ele>
        <time>2016-09-25T07:54:04Z</time>
      </trkpt>
      <trkpt lat="43.72524" lon="6.93928">
        <ele>1173.7</ele>
        <time>2016-09-25T07:54:06Z</time>
      </trkpt>
      <trkpt lat="43.72522" lon="6.93928">
        <ele>1174.2</ele>
        <time>2016-09-25T07:54:08Z</time>
      </trkpt>
      <trkpt lat="43.72519" lon="6.93927">
        <ele>1174.6</ele>
        <time>2016-09-25T07:54:10Z</time>
      </trkpt>
      <trkpt lat="43.72516" lon="6.93926">
        <ele>1175</ele>
        <time>2016-09-25T07:54:12Z</time>
      </trkpt>
      <trkpt lat="43.72514" lon="6.93924">
        <ele>1175.4</ele>
        <time>2016-09-25T07:54:14Z</time>
      </trkpt>
      <trkpt lat="43.72511" lon="6.93923">
        <ele>1175.8</ele>
        <time>2016-09-25T07:54:16Z</time>
      </trkpt>
      <trkpt lat="43.72508" lon="6.93923">
        <ele>1176.2</ele>
        <time>2016-09-25T07:54:18Z</time>
      </trkpt>
      <trkpt lat="43.72505" lon="6.93922">
        <ele>1176.7</ele>
        <time>2016-09-25T07:54:21Z</time>
      </trkpt>
      <trkpt lat="43.72501" lon="6.9392">
        <ele>1177.2</ele>
        <time>2016-09-25T07:54:24Z</time>
      </trkpt>
      <trkpt lat="43.72498" lon="6.93918">
        <ele>1177.7</ele>
        <time>2016-09-25T07:54:27Z</time>
      </trkpt>
      <trkpt lat="43.72495" lon="6.93917">
        <ele>1178.1</ele>
        <time>2016-09-25T07:54:29Z</time>
      </trkpt>
      <trkpt lat="43.72493" lon="6.93914">
        <ele>1178.4</ele>
        <time>2016-09-25T07:54:31Z</time>
      </trkpt>
      <trkpt lat="43.7249" lon="6.93912">
        <ele>1178.7</ele>
        <time>2016-09-25T07:54:33Z</time>
      </trkpt>
      <trkpt lat="43.72488" lon="6.93909">
        <ele>1179</ele>
        <time>2016-09-25T07:54:35Z</time>
      </trkpt>
      <trkpt lat="43.72485" lon="6.93906">
        <ele>1179.3</ele>
        <time>2016-09-25T07:54:37Z</time>
      </trkpt>
      <trkpt lat="43.72483" lon="6.93903">
        <ele>1179.6</ele>
        <time>2016-09-25T07:54:39Z</time>
      </trkpt>
      <trkpt lat="43.7248" lon="6.939">
        <ele>1180</ele>
        <time>2016-09-25T07:54:41Z</time>
      </trkpt>
      <trkpt lat="43.72477" lon="6.93897">
        <ele>1180.3</ele>
        <time>2016-09-25T07:54:43Z</time>
      </trkpt>
      <trkpt lat="43.72475" lon="6.93894">
        <ele>1180.6</ele>
        <time>2016-09-25T07:54:45Z</time>
      </trkpt>
      <trkpt lat="43.72473" lon="6.9389">
        <ele>1180.9</ele>
        <time>2016-09-25T07:54:47Z</time>
      </trkpt>
      <trkpt lat="43.7247" lon="6.93887">
        <ele>1181.2</ele>
        <time>2016-09-25T07:54:49Z</time>
      </trkpt>
      <trkpt lat="43.72467" lon="6.93885">
        <ele>1181.7</ele>
        <time>2016-09-25T07:54:51Z</time>
      </trkpt>
      <trkpt lat="43.72465" lon="6.93882">
        <ele>1182</ele>
        <time>2016-09-25T07:54:53Z</time>
      </trkpt>
      <trkpt lat="43.72463" lon="6.9388">
        <ele>1182.4</ele>
        <time>2016-09-25T07:54:55Z</time>
      </trkpt>
      <trkpt lat="43.7246" lon="6.93877">
        <ele>1182.8</ele>
        <time>2016-09-25T07:54:57Z</time>
      </trkpt>
      <trkpt lat="43.72457" lon="6.93873">
        <ele>1183.2</ele>
        <time>2016-09-25T07:54:59Z</time>
      </trkpt>
      <trkpt lat="43.72454" lon="6.9387">
        <ele>1183.4</ele>
        <time>2016-09-25T07:55:01Z</time>
      </trkpt>
      <trkpt lat="43.72451" lon="6.93867">
        <ele>1183.6</ele>
        <time>2016-09-25T07:55:03Z</time>
      </trkpt>
      <trkpt lat="43.72448" lon="6.93863">
        <ele>1183.7</ele>
        <time>2016-09-25T07:55:05Z</time>
      </trkpt>
      <trkpt lat="43.72446" lon="6.93859">
        <ele>1183.9</ele>
        <time>2016-09-25T07:55:07Z</time>
      </trkpt>
      <trkpt lat="43.72444" lon="6.93856">
        <ele>1184</ele>
        <time>2016-09-25T07:55:09Z</time>
      </trkpt>
      <trkpt lat="43.72441" lon="6.93852">
        <ele>1184.1</ele>
        <time>2016-09-25T07:55:11Z</time>
      </trkpt>
      <trkpt lat="43.72439" lon="6.93848">
        <ele>1184.3</ele>
        <time>2016-09-25T07:55:13Z</time>
      </trkpt>
      <trkpt lat="43.72436" lon="6.93845">
        <ele>1184.5</ele>
        <time>2016-09-25T07:55:15Z</time>
      </trkpt>
      <trkpt lat="43.72433" lon="6.93842">
        <ele>1184.7</ele>
        <time>2016-09-25T07:55:17Z</time>
      </trkpt>
      <trkpt lat="43.72431" lon="6.93839">
        <ele>1185</ele>
        <time>2016-09-25T07:55:19Z</time>
      </trkpt>
      <trkpt lat="43.72428" lon="6.93836">
        <ele>1185.2</ele>
        <time>2016-09-25T07:55:21Z</time>
      </trkpt>
      <trkpt lat="43.72426" lon="6.93833">
        <ele>1185.4</ele>
        <time>2016-09-25T07:55:23Z</time>
      </trkpt>
      <trkpt lat="43.72423" lon="6.93831">
        <ele>1185.7</ele>
        <time>2016-09-25T07:55:25Z</time>
      </trkpt>
      <trkpt lat="43.7242" lon="6.93829">
        <ele>1186</ele>
        <time>2016-09-25T07:55:27Z</time>
      </trkpt>
      <trkpt lat="43.72417" lon="6.93827">
        <ele>1186.4</ele>
        <time>2016-09-25T07:55:29Z</time>
      </trkpt>
      <trkpt lat="43.72414" lon="6.93824">
        <ele>1186.7</ele>
        <time>2016-09-25T07:55:31Z</time>
      </trkpt>
      <trkpt lat="43.72411" lon="6.93822">
        <ele>1187</ele>
        <time>2016-09-25T07:55:33Z</time>
      </trkpt>
      <trkpt lat="43.72408" lon="6.93819">
        <ele>1187.4</ele>
        <time>2016-09-25T07:55:35Z</time>
      </trkpt>
      <trkpt lat="43.72404" lon="6.93817">
        <ele>1187.7</ele>
        <time>2016-09-25T07:55:37Z</time>
      </trkpt>
      <trkpt lat="43.72401" lon="6.93815">
        <ele>1188.1</ele>
        <time>2016-09-25T07:55:39Z</time>
      </trkpt>
      <trkpt lat="43.72398" lon="6.93812">
        <ele>1188.4</ele>
        <time>2016-09-25T07:55:41Z</time>
      </trkpt>
      <trkpt lat="43.72396" lon="6.9381">
        <ele>1188.7</ele>
        <time>2016-09-25T07:55:43Z</time>
      </trkpt>
      <trkpt lat="43.72393" lon="6.93807">
        <ele>1189</ele>
        <time>2016-09-25T07:55:45Z</time>
      </trkpt>
      <trkpt lat="43.7239" lon="6.93805">
        <ele>1189.4</ele>
        <time>2016-09-25T07:55:47Z</time>
      </trkpt>
      <trkpt lat="43.72387" lon="6.93804">
        <ele>1189.7</ele>
        <time>2016-09-25T07:55:49Z</time>
      </trkpt>
      <trkpt lat="43.72384" lon="6.93802">
        <ele>1190.1</ele>
        <time>2016-09-25T07:55:51Z</time>
      </trkpt>
      <trkpt lat="43.72381" lon="6.938">
        <ele>1190.5</ele>
        <time>2016-09-25T07:55:53Z</time>
      </trkpt>
      <trkpt lat="43.72378" lon="6.93799">
        <ele>1190.8</ele>
        <time>2016-09-25T07:55:55Z</time>
      </trkpt>
      <trkpt lat="43.72375" lon="6.93797">
        <ele>1191.2</ele>
        <time>2016-09-25T07:55:57Z</time>
      </trkpt>
      <trkpt lat="43.72372" lon="6.93795">
        <ele>1191.5</ele>
        <time>2016-09-25T07:55:59Z</time>
      </trkpt>
      <trkpt lat="43.72369" lon="6.93794">
        <ele>1191.7</ele>
        <time>2016-09-25T07:56:01Z</time>
      </trkpt>
      <trkpt lat="43.72366" lon="6.93792">
        <ele>1192</ele>
        <time>2016-09-25T07:56:03Z</time>
      </trkpt>
      <trkpt lat="43.72363" lon="6.9379">
        <ele>1192.2</ele>
        <time>2016-09-25T07:56:05Z</time>
      </trkpt>
      <trkpt lat="43.7236" lon="6.93789">
        <ele>1192.4</ele>
        <time>2016-09-25T07:56:07Z</time>
      </trkpt>
      <trkpt lat="43.72357" lon="6.93789">
        <ele>1192.6</ele>
        <time>2016-09-25T07:56:09Z</time>
      </trkpt>
      <trkpt lat="43.72354" lon="6.93787">
        <ele>1192.9</ele>
        <time>2016-09-25T07:56:11Z</time>
      </trkpt>
      <trkpt lat="43.72352" lon="6.93786">
        <ele>1193</ele>
        <time>2016-09-25T07:56:13Z</time>
      </trkpt>
      <trkpt lat="43.72349" lon="6.93783">
        <ele>1193.1</ele>
        <time>2016-09-25T07:56:15Z</time>
      </trkpt>
      <trkpt lat="43.72346" lon="6.93781">
        <ele>1193.2</ele>
        <time>2016-09-25T07:56:17Z</time>
      </trkpt>
      <trkpt lat="43.72343" lon="6.93778">
        <ele>1193.3</ele>
        <time>2016-09-25T07:56:20Z</time>
      </trkpt>
      <trkpt lat="43.7234" lon="6.93777">
        <ele>1193.6</ele>
        <time>2016-09-25T07:56:22Z</time>
      </trkpt>
      <trkpt lat="43.72337" lon="6.93777">
        <ele>1193.8</ele>
        <time>2016-09-25T07:56:24Z</time>
      </trkpt>
      <trkpt lat="43.72334" lon="6.93776">
        <ele>1194.1</ele>
        <time>2016-09-25T07:56:26Z</time>
      </trkpt>
      <trkpt lat="43.72331" lon="6.93776">
        <ele>1194.4</ele>
        <time>2016-09-25T07:56:28Z</time>
      </trkpt>
      <trkpt lat="43.72328" lon="6.93776">
        <ele>1194.7</ele>
        <time>2016-09-25T07:56:30Z</time>
      </trkpt>
      <trkpt lat="43.72326" lon="6.93777">
        <ele>1195.1</ele>
        <time>2016-09-25T07:56:32Z</time>
      </trkpt>
      <trkpt lat="43.72322" lon="6.93777">
        <ele>1195.5</ele>
        <time>2016-09-25T07:56:35Z</time>
      </trkpt>
      <trkpt lat="43.72319" lon="6.93778">
        <ele>1195.9</ele>
        <time>2016-09-25T07:56:37Z</time>
      </trkpt>
      <trkpt lat="43.72316" lon="6.93778">
        <ele>1196.3</ele>
        <time>2016-09-25T07:56:39Z</time>
      </trkpt>
      <trkpt lat="43.72313" lon="6.93778">
        <ele>1196.6</ele>
        <time>2016-09-25T07:56:41Z</time>
      </trkpt>
      <trkpt lat="43.7231" lon="6.93779">
        <ele>1197</ele>
        <time>2016-09-25T07:56:43Z</time>
      </trkpt>
      <trkpt lat="43.72307" lon="6.93779">
        <ele>1197.3</ele>
        <time>2016-09-25T07:56:45Z</time>
      </trkpt>
      <trkpt lat="43.72304" lon="6.9378">
        <ele>1197.7</ele>
        <time>2016-09-25T07:56:47Z</time>
      </trkpt>
      <trkpt lat="43.72302" lon="6.93781">
        <ele>1198.1</ele>
        <time>2016-09-25T07:56:49Z</time>
      </trkpt>
      <trkpt lat="43.72299" lon="6.93783">
        <ele>1198.5</ele>
        <time>2016-09-25T07:56:51Z</time>
      </trkpt>
      <trkpt lat="43.72296" lon="6.93786">
        <ele>1199.1</ele>
        <time>2016-09-25T07:56:54Z</time>
      </trkpt>
      <trkpt lat="43.72293" lon="6.93788">
        <ele>1199.6</ele>
        <time>2016-09-25T07:56:56Z</time>
      </trkpt>
      <trkpt lat="43.72291" lon="6.9379">
        <ele>1200.1</ele>
        <time>2016-09-25T07:56:58Z</time>
      </trkpt>
      <trkpt lat="43.72288" lon="6.93792">
        <ele>1200.7</ele>
        <time>2016-09-25T07:57:00Z</time>
      </trkpt>
      <trkpt lat="43.72285" lon="6.93794">
        <ele>1201.4</ele>
        <time>2016-09-25T07:57:03Z</time>
      </trkpt>
      <trkpt lat="43.72281" lon="6.93797">
        <ele>1202.2</ele>
        <time>2016-09-25T07:57:06Z</time>
      </trkpt>
      <trkpt lat="43.72279" lon="6.93799">
        <ele>1202.8</ele>
        <time>2016-09-25T07:57:08Z</time>
      </trkpt>
      <trkpt lat="43.72277" lon="6.93803">
        <ele>1203.3</ele>
        <time>2016-09-25T07:57:10Z</time>
      </trkpt>
      <trkpt lat="43.72275" lon="6.93807">
        <ele>1203.8</ele>
        <time>2016-09-25T07:57:12Z</time>
      </trkpt>
      <trkpt lat="43.72273" lon="6.9381">
        <ele>1204.3</ele>
        <time>2016-09-25T07:57:14Z</time>
      </trkpt>
      <trkpt lat="43.72271" lon="6.93813">
        <ele>1204.8</ele>
        <time>2016-09-25T07:57:16Z</time>
      </trkpt>
      <trkpt lat="43.72269" lon="6.93816">
        <ele>1205.3</ele>
        <time>2016-09-25T07:57:18Z</time>
      </trkpt>
      <trkpt lat="43.72267" lon="6.9382">
        <ele>1205.7</ele>
        <time>2016-09-25T07:57:20Z</time>
      </trkpt>
      <trkpt lat="43.72265" lon="6.93823">
        <ele>1206.1</ele>
        <time>2016-09-25T07:57:22Z</time>
      </trkpt>
      <trkpt lat="43.72263" lon="6.93825">
        <ele>1206.5</ele>
        <time>2016-09-25T07:57:24Z</time>
      </trkpt>
      <trkpt lat="43.7226" lon="6.93827">
        <ele>1207</ele>
        <time>2016-09-25T07:57:26Z</time>
      </trkpt>
      <trkpt lat="43.72256" lon="6.93828">
        <ele>1207.5</ele>
        <time>2016-09-25T07:57:28Z</time>
      </trkpt>
      <trkpt lat="43.72254" lon="6.93829">
        <ele>1207.9</ele>
        <time>2016-09-25T07:57:30Z</time>
      </trkpt>
      <trkpt lat="43.72251" lon="6.93831">
        <ele>1208.3</ele>
        <time>2016-09-25T07:57:32Z</time>
      </trkpt>
      <trkpt lat="43.72248" lon="6.93833">
        <ele>1208.7</ele>
        <time>2016-09-25T07:57:34Z</time>
      </trkpt>
      <trkpt lat="43.72246" lon="6.93835">
        <ele>1209.1</ele>
        <time>2016-09-25T07:57:36Z</time>
      </trkpt>
      <trkpt lat="43.72243" lon="6.93836">
        <ele>1209.5</ele>
        <time>2016-09-25T07:57:38Z</time>
      </trkpt>
      <trkpt lat="43.7224" lon="6.93838">
        <ele>1209.9</ele>
        <time>2016-09-25T07:57:40Z</time>
      </trkpt>
      <trkpt lat="43.72237" lon="6.93839">
        <ele>1210.3</ele>
        <time>2016-09-25T07:57:42Z</time>
      </trkpt>
      <trkpt lat="43.72234" lon="6.9384">
        <ele>1210.7</ele>
        <time>2016-09-25T07:57:44Z</time>
      </trkpt>
      <trkpt lat="43.72231" lon="6.93842">
        <ele>1211.1</ele>
        <time>2016-09-25T07:57:46Z</time>
      </trkpt>
      <trkpt lat="43.72228" lon="6.93844">
        <ele>1211.4</ele>
        <time>2016-09-25T07:57:48Z</time>
      </trkpt>
      <trkpt lat="43.72225" lon="6.93846">
        <ele>1211.8</ele>
        <time>2016-09-25T07:57:50Z</time>
      </trkpt>
      <trkpt lat="43.72221" lon="6.93847">
        <ele>1212.1</ele>
        <time>2016-09-25T07:57:52Z</time>
      </trkpt>
      <trkpt lat="43.72218" lon="6.93849">
        <ele>1212.5</ele>
        <time>2016-09-25T07:57:54Z</time>
      </trkpt>
      <trkpt lat="43.72214" lon="6.93849">
        <ele>1212.9</ele>
        <time>2016-09-25T07:57:56Z</time>
      </trkpt>
      <trkpt lat="43.72211" lon="6.93849">
        <ele>1213.3</ele>
        <time>2016-09-25T07:57:58Z</time>
      </trkpt>
      <trkpt lat="43.72208" lon="6.93848">
        <ele>1213.7</ele>
        <time>2016-09-25T07:58:00Z</time>
      </trkpt>
      <trkpt lat="43.72204" lon="6.93848">
        <ele>1214</ele>
        <time>2016-09-25T07:58:02Z</time>
      </trkpt>
      <trkpt lat="43.722" lon="6.93848">
        <ele>1214.4</ele>
        <time>2016-09-25T07:58:04Z</time>
      </trkpt>
      <trkpt lat="43.72197" lon="6.93847">
        <ele>1214.7</ele>
        <time>2016-09-25T07:58:06Z</time>
      </trkpt>
      <trkpt lat="43.72194" lon="6.93847">
        <ele>1215</ele>
        <time>2016-09-25T07:58:08Z</time>
      </trkpt>
      <trkpt lat="43.72191" lon="6.93846">
        <ele>1215.3</ele>
        <time>2016-09-25T07:58:10Z</time>
      </trkpt>
      <trkpt lat="43.72189" lon="6.93845">
        <ele>1215.6</ele>
        <time>2016-09-25T07:58:12Z</time>
      </trkpt>
      <trkpt lat="43.72186" lon="6.93844">
        <ele>1215.9</ele>
        <time>2016-09-25T07:58:14Z</time>
      </trkpt>
      <trkpt lat="43.72183" lon="6.93843">
        <ele>1216.2</ele>
        <time>2016-09-25T07:58:16Z</time>
      </trkpt>
      <trkpt lat="43.72181" lon="6.93842">
        <ele>1216.4</ele>
        <time>2016-09-25T07:58:18Z</time>
      </trkpt>
      <trkpt lat="43.72178" lon="6.93841">
        <ele>1216.8</ele>
        <time>2016-09-25T07:58:20Z</time>
      </trkpt>
      <trkpt lat="43.72175" lon="6.93839">
        <ele>1217.1</ele>
        <time>2016-09-25T07:58:22Z</time>
      </trkpt>
      <trkpt lat="43.72173" lon="6.93837">
        <ele>1217.4</ele>
        <time>2016-09-25T07:58:24Z</time>
      </trkpt>
      <trkpt lat="43.7217" lon="6.93836">
        <ele>1217.8</ele>
        <time>2016-09-25T07:58:26Z</time>
      </trkpt>
      <trkpt lat="43.72168" lon="6.93834">
        <ele>1218.1</ele>
        <time>2016-09-25T07:58:28Z</time>
      </trkpt>
      <trkpt lat="43.72165" lon="6.93832">
        <ele>1218.5</ele>
        <time>2016-09-25T07:58:30Z</time>
      </trkpt>
      <trkpt lat="43.72163" lon="6.9383">
        <ele>1218.8</ele>
        <time>2016-09-25T07:58:32Z</time>
      </trkpt>
      <trkpt lat="43.7216" lon="6.93828">
        <ele>1219.2</ele>
        <time>2016-09-25T07:58:34Z</time>
      </trkpt>
      <trkpt lat="43.72158" lon="6.93826">
        <ele>1219.6</ele>
        <time>2016-09-25T07:58:36Z</time>
      </trkpt>
      <trkpt lat="43.72156" lon="6.93824">
        <ele>1220</ele>
        <time>2016-09-25T07:58:38Z</time>
      </trkpt>
      <trkpt lat="43.72152" lon="6.93821">
        <ele>1220.6</ele>
        <time>2016-09-25T07:58:41Z</time>
      </trkpt>
      <trkpt lat="43.7215" lon="6.93818">
        <ele>1220.9</ele>
        <time>2016-09-25T07:58:43Z</time>
      </trkpt>
      <trkpt lat="43.72148" lon="6.93815">
        <ele>1221.4</ele>
        <time>2016-09-25T07:58:45Z</time>
      </trkpt>
      <trkpt lat="43.72146" lon="6.93812">
        <ele>1221.9</ele>
        <time>2016-09-25T07:58:47Z</time>
      </trkpt>
      <trkpt lat="43.72144" lon="6.93808">
        <ele>1222.4</ele>
        <time>2016-09-25T07:58:49Z</time>
      </trkpt>
      <trkpt lat="43.72141" lon="6.93806">
        <ele>1222.8</ele>
        <time>2016-09-25T07:58:51Z</time>
      </trkpt>
      <trkpt lat="43.72139" lon="6.93802">
        <ele>1223.4</ele>
        <time>2016-09-25T07:58:54Z</time>
      </trkpt>
      <trkpt lat="43.72136" lon="6.93799">
        <ele>1224</ele>
        <time>2016-09-25T07:58:57Z</time>
      </trkpt>
      <trkpt lat="43.72134" lon="6.93796">
        <ele>1224.5</ele>
        <time>2016-09-25T07:59:00Z</time>
      </trkpt>
      <trkpt lat="43.72131" lon="6.93793">
        <ele>1225.1</ele>
        <time>2016-09-25T07:59:03Z</time>
      </trkpt>
      <trkpt lat="43.72128" lon="6.9379">
        <ele>1225.8</ele>
        <time>2016-09-25T07:59:06Z</time>
      </trkpt>
      <trkpt lat="43.72126" lon="6.93786">
        <ele>1226.6</ele>
        <time>2016-09-25T07:59:09Z</time>
      </trkpt>
      <trkpt lat="43.72123" lon="6.93783">
        <ele>1227.4</ele>
        <time>2016-09-25T07:59:12Z</time>
      </trkpt>
      <trkpt lat="43.72121" lon="6.93779">
        <ele>1228.1</ele>
        <time>2016-09-25T07:59:15Z</time>
      </trkpt>
      <trkpt lat="43.72117" lon="6.93776">
        <ele>1228.9</ele>
        <time>2016-09-25T07:59:18Z</time>
      </trkpt>
      <trkpt lat="43.72115" lon="6.93772">
        <ele>1229.8</ele>
        <time>2016-09-25T07:59:21Z</time>
      </trkpt>
      <trkpt lat="43.72112" lon="6.93769">
        <ele>1230.4</ele>
        <time>2016-09-25T07:59:23Z</time>
      </trkpt>
      <trkpt lat="43.72111" lon="6.93767">
        <ele>1231</ele>
        <time>2016-09-25T07:59:25Z</time>
      </trkpt>
      <trkpt lat="43.72108" lon="6.93763">
        <ele>1231.8</ele>
        <time>2016-09-25T07:59:28Z</time>
      </trkpt>
      <trkpt lat="43.72106" lon="6.9376">
        <ele>1232.4</ele>
        <time>2016-09-25T07:59:30Z</time>
      </trkpt>
      <trkpt lat="43.72103" lon="6.93758">
        <ele>1233</ele>
        <time>2016-09-25T07:59:32Z</time>
      </trkpt>
      <trkpt lat="43.72101" lon="6.93755">
        <ele>1233.6</ele>
        <time>2016-09-25T07:59:34Z</time>
      </trkpt>
      <trkpt lat="43.72098" lon="6.93753">
        <ele>1234.2</ele>
        <time>2016-09-25T07:59:36Z</time>
      </trkpt>
      <trkpt lat="43.72096" lon="6.9375">
        <ele>1234.9</ele>
        <time>2016-09-25T07:59:38Z</time>
      </trkpt>
      <trkpt lat="43.72094" lon="6.93747">
        <ele>1235.4</ele>
        <time>2016-09-25T07:59:58Z</time>
      </trkpt>
      <trkpt lat="43.72091" lon="6.93745">
        <ele>1236.1</ele>
        <time>2016-09-25T08:00:01Z</time>
      </trkpt>
      <trkpt lat="43.72088" lon="6.93741">
        <ele>1236.9</ele>
        <time>2016-09-25T08:00:04Z</time>
      </trkpt>
      <trkpt lat="43.72086" lon="6.93738">
        <ele>1237.5</ele>
        <time>2016-09-25T08:00:06Z</time>
      </trkpt>
      <trkpt lat="43.72083" lon="6.93736">
        <ele>1238</ele>
        <time>2016-09-25T08:00:08Z</time>
      </trkpt>
      <trkpt lat="43.72081" lon="6.93733">
        <ele>1238.6</ele>
        <time>2016-09-25T08:00:10Z</time>
      </trkpt>
      <trkpt lat="43.72078" lon="6.93731">
        <ele>1239.2</ele>
        <time>2016-09-25T08:00:12Z</time>
      </trkpt>
      <trkpt lat="43.72076" lon="6.93728">
        <ele>1239.8</ele>
        <time>2016-09-25T08:00:14Z</time>
      </trkpt>
      <trkpt lat="43.72073" lon="6.93726">
        <ele>1240.3</ele>
        <time>2016-09-25T08:00:16Z</time>
      </trkpt>
      <trkpt lat="43.72071" lon="6.93725">
        <ele>1240.9</ele>
        <time>2016-09-25T08:00:18Z</time>
      </trkpt>
      <trkpt lat="43.72068" lon="6.93723">
        <ele>1241.3</ele>
        <time>2016-09-25T08:00:20Z</time>
      </trkpt>
      <trkpt lat="43.72065" lon="6.93722">
        <ele>1241.8</ele>
        <time>2016-09-25T08:00:22Z</time>
      </trkpt>
      <trkpt lat="43.72062" lon="6.9372">
        <ele>1242.4</ele>
        <time>2016-09-25T08:00:24Z</time>
      </trkpt>
      <trkpt lat="43.72059" lon="6.93717">
        <ele>1243</ele>
        <time>2016-09-25T08:00:26Z</time>
      </trkpt>
      <trkpt lat="43.72057" lon="6.93714">
        <ele>1243.6</ele>
        <time>2016-09-25T08:00:28Z</time>
      </trkpt>
      <trkpt lat="43.72055" lon="6.93712">
        <ele>1244.1</ele>
        <time>2016-09-25T08:00:30Z</time>
      </trkpt>
      <trkpt lat="43.72051" lon="6.93709">
        <ele>1244.8</ele>
        <time>2016-09-25T08:00:33Z</time>
      </trkpt>
      <trkpt lat="43.72049" lon="6.93706">
        <ele>1245.3</ele>
        <time>2016-09-25T08:00:35Z</time>
      </trkpt>
      <trkpt lat="43.72046" lon="6.93703">
        <ele>1245.9</ele>
        <time>2016-09-25T08:00:38Z</time>
      </trkpt>
      <trkpt lat="43.72043" lon="6.93702">
        <ele>1246.3</ele>
        <time>2016-09-25T08:00:40Z</time>
      </trkpt>
      <trkpt lat="43.7204" lon="6.937">
        <ele>1246.7</ele>
        <time>2016-09-25T08:00:42Z</time>
      </trkpt>
      <trkpt lat="43.72038" lon="6.93698">
        <ele>1247</ele>
        <time>2016-09-25T08:00:44Z</time>
      </trkpt>
      <trkpt lat="43.72036" lon="6.93695">
        <ele>1247.3</ele>
        <time>2016-09-25T08:00:46Z</time>
      </trkpt>
      <trkpt lat="43.72033" lon="6.93693">
        <ele>1247.6</ele>
        <time>2016-09-25T08:00:48Z</time>
      </trkpt>
      <trkpt lat="43.72031" lon="6.93691">
        <ele>1247.9</ele>
        <time>2016-09-25T08:00:50Z</time>
      </trkpt>
      <trkpt lat="43.72029" lon="6.93689">
        <ele>1248.2</ele>
        <time>2016-09-25T08:00:52Z</time>
      </trkpt>
      <trkpt lat="43.72026" lon="6.93686">
        <ele>1248.5</ele>
        <time>2016-09-25T08:00:54Z</time>
      </trkpt>
      <trkpt lat="43.72025" lon="6.93684">
        <ele>1248.8</ele>
        <time>2016-09-25T08:00:56Z</time>
      </trkpt>
      <trkpt lat="43.72022" lon="6.9368">
        <ele>1249.2</ele>
        <time>2016-09-25T08:00:59Z</time>
      </trkpt>
      <trkpt lat="43.72019" lon="6.93678">
        <ele>1249.6</ele>
        <time>2016-09-25T08:01:02Z</time>
      </trkpt>
      <trkpt lat="43.72016" lon="6.93675">
        <ele>1249.9</ele>
        <time>2016-09-25T08:01:05Z</time>
      </trkpt>
      <trkpt lat="43.72014" lon="6.93671">
        <ele>1250.3</ele>
        <time>2016-09-25T08:01:08Z</time>
      </trkpt>
      <trkpt lat="43.72011" lon="6.93668">
        <ele>1250.7</ele>
        <time>2016-09-25T08:01:11Z</time>
      </trkpt>
      <trkpt lat="43.72009" lon="6.93666">
        <ele>1251.1</ele>
        <time>2016-09-25T08:01:14Z</time>
      </trkpt>
      <trkpt lat="43.72007" lon="6.93663">
        <ele>1251.4</ele>
        <time>2016-09-25T08:01:17Z</time>
      </trkpt>
      <trkpt lat="43.72004" lon="6.9366">
        <ele>1251.8</ele>
        <time>2016-09-25T08:01:20Z</time>
      </trkpt>
      <trkpt lat="43.72" lon="6.93657">
        <ele>1252.2</ele>
        <time>2016-09-25T08:01:23Z</time>
      </trkpt>
      <trkpt lat="43.71997" lon="6.93654">
        <ele>1252.6</ele>
        <time>2016-09-25T08:01:26Z</time>
      </trkpt>
      <trkpt lat="43.71995" lon="6.93651">
        <ele>1252.9</ele>
        <time>2016-09-25T08:01:29Z</time>
      </trkpt>
      <trkpt lat="43.71992" lon="6.93648">
        <ele>1253.3</ele>
        <time>2016-09-25T08:01:32Z</time>
      </trkpt>
      <trkpt lat="43.71989" lon="6.93645">
        <ele>1253.7</ele>
        <time>2016-09-25T08:01:35Z</time>
      </trkpt>
      <trkpt lat="43.71986" lon="6.93644">
        <ele>1254</ele>
        <time>2016-09-25T08:01:37Z</time>
      </trkpt>
      <trkpt lat="43.71983" lon="6.93642">
        <ele>1254.3</ele>
        <time>2016-09-25T08:01:39Z</time>
      </trkpt>
      <trkpt lat="43.71981" lon="6.9364">
        <ele>1254.6</ele>
        <time>2016-09-25T08:01:41Z</time>
      </trkpt>
      <trkpt lat="43.71979" lon="6.93637">
        <ele>1254.9</ele>
        <time>2016-09-25T08:01:50Z</time>
      </trkpt>
      <trkpt lat="43.71976" lon="6.93636">
        <ele>1255.2</ele>
        <time>2016-09-25T08:01:53Z</time>
      </trkpt>
      <trkpt lat="43.71972" lon="6.93633">
        <ele>1255.6</ele>
        <time>2016-09-25T08:01:56Z</time>
      </trkpt>
      <trkpt lat="43.71969" lon="6.9363">
        <ele>1256</ele>
        <time>2016-09-25T08:01:59Z</time>
      </trkpt>
      <trkpt lat="43.71967" lon="6.93627">
        <ele>1256.3</ele>
        <time>2016-09-25T08:02:01Z</time>
      </trkpt>
      <trkpt lat="43.71965" lon="6.93624">
        <ele>1256.8</ele>
        <time>2016-09-25T08:02:03Z</time>
      </trkpt>
      <trkpt lat="43.71963" lon="6.9362">
        <ele>1257.3</ele>
        <time>2016-09-25T08:02:05Z</time>
      </trkpt>
      <trkpt lat="43.7196" lon="6.93617">
        <ele>1257.8</ele>
        <time>2016-09-25T08:02:07Z</time>
      </trkpt>
      <trkpt lat="43.71958" lon="6.93615">
        <ele>1258.2</ele>
        <time>2016-09-25T08:02:09Z</time>
      </trkpt>
      <trkpt lat="43.71955" lon="6.93612">
        <ele>1258.3</ele>
        <time>2016-09-25T08:02:11Z</time>
      </trkpt>
      <trkpt lat="43.71953" lon="6.9361">
        <ele>1258.4</ele>
        <time>2016-09-25T08:02:13Z</time>
      </trkpt>
      <trkpt lat="43.7195" lon="6.93607">
        <ele>1258.6</ele>
        <time>2016-09-25T08:02:16Z</time>
      </trkpt>
      <trkpt lat="43.71948" lon="6.93604">
        <ele>1258.8</ele>
        <time>2016-09-25T08:02:19Z</time>
      </trkpt>
      <trkpt lat="43.71946" lon="6.936">
        <ele>1259.1</ele>
        <time>2016-09-25T08:02:22Z</time>
      </trkpt>
      <trkpt lat="43.71943" lon="6.93597">
        <ele>1259.4</ele>
        <time>2016-09-25T08:02:25Z</time>
      </trkpt>
      <trkpt lat="43.71941" lon="6.93593">
        <ele>1259.6</ele>
        <time>2016-09-25T08:02:28Z</time>
      </trkpt>
      <trkpt lat="43.71939" lon="6.9359">
        <ele>1259.9</ele>
        <time>2016-09-25T08:02:35Z</time>
      </trkpt>
      <trkpt lat="43.71936" lon="6.93587">
        <ele>1260.2</ele>
        <time>2016-09-25T08:02:38Z</time>
      </trkpt>
      <trkpt lat="43.71934" lon="6.93583">
        <ele>1260.4</ele>
        <time>2016-09-25T08:02:41Z</time>
      </trkpt>
      <trkpt lat="43.71932" lon="6.9358">
        <ele>1260.6</ele>
        <time>2016-09-25T08:02:44Z</time>
      </trkpt>
      <trkpt lat="43.7193" lon="6.93577">
        <ele>1260.9</ele>
        <time>2016-09-25T08:02:47Z</time>
      </trkpt>
      <trkpt lat="43.71928" lon="6.93574">
        <ele>1261.2</ele>
        <time>2016-09-25T08:02:50Z</time>
      </trkpt>
      <trkpt lat="43.71925" lon="6.93571">
        <ele>1261.3</ele>
        <time>2016-09-25T08:02:53Z</time>
      </trkpt>
      <trkpt lat="43.71923" lon="6.93568">
        <ele>1261.6</ele>
        <time>2016-09-25T08:02:56Z</time>
      </trkpt>
      <trkpt lat="43.7192" lon="6.93564">
        <ele>1261.9</ele>
        <time>2016-09-25T08:02:59Z</time>
      </trkpt>
      <trkpt lat="43.71918" lon="6.93561">
        <ele>1262.1</ele>
        <time>2016-09-25T08:03:02Z</time>
      </trkpt>
      <trkpt lat="43.71916" lon="6.93558">
        <ele>1262.3</ele>
        <time>2016-09-25T08:03:05Z</time>
      </trkpt>
      <trkpt lat="43.71913" lon="6.93555">
        <ele>1262.6</ele>
        <time>2016-09-25T08:03:08Z</time>
      </trkpt>
      <trkpt lat="43.71911" lon="6.93552">
        <ele>1262.8</ele>
        <time>2016-09-25T08:03:11Z</time>
      </trkpt>
      <trkpt lat="43.71908" lon="6.93549">
        <ele>1263</ele>
        <time>2016-09-25T08:03:14Z</time>
      </trkpt>
      <trkpt lat="43.71906" lon="6.93546">
        <ele>1263.3</ele>
        <time>2016-09-25T08:03:17Z</time>
      </trkpt>
      <trkpt lat="43.71904" lon="6.93544">
        <ele>1263.5</ele>
        <time>2016-09-25T08:03:20Z</time>
      </trkpt>
      <trkpt lat="43.71902" lon="6.9354">
        <ele>1263.7</ele>
        <time>2016-09-25T08:03:23Z</time>
      </trkpt>
      <trkpt lat="43.71899" lon="6.93537">
        <ele>1263.7</ele>
        <time>2016-09-25T08:03:26Z</time>
      </trkpt>
      <trkpt lat="43.71896" lon="6.93534">
        <ele>1263.7</ele>
        <time>2016-09-25T08:03:41Z</time>
      </trkpt>
      <trkpt lat="43.71894" lon="6.93531">
        <ele>1263.8</ele>
        <time>2016-09-25T08:03:43Z</time>
      </trkpt>
      <trkpt lat="43.71892" lon="6.93529">
        <ele>1263.8</ele>
        <time>2016-09-25T08:03:45Z</time>
      </trkpt>
      <trkpt lat="43.7189" lon="6.93525">
        <ele>1264</ele>
        <time>2016-09-25T08:03:47Z</time>
      </trkpt>
      <trkpt lat="43.71887" lon="6.9352">
        <ele>1264.1</ele>
        <time>2016-09-25T08:03:49Z</time>
      </trkpt>
      <trkpt lat="43.71884" lon="6.93516">
        <ele>1264.3</ele>
        <time>2016-09-25T08:03:51Z</time>
      </trkpt>
      <trkpt lat="43.71881" lon="6.93511">
        <ele>1264.4</ele>
        <time>2016-09-25T08:03:53Z</time>
      </trkpt>
      <trkpt lat="43.71878" lon="6.93507">
        <ele>1264.6</ele>
        <time>2016-09-25T08:03:55Z</time>
      </trkpt>
      <trkpt lat="43.71875" lon="6.93502">
        <ele>1264.9</ele>
        <time>2016-09-25T08:03:57Z</time>
      </trkpt>
      <trkpt lat="43.71872" lon="6.93497">
        <ele>1265.3</ele>
        <time>2016-09-25T08:03:59Z</time>
      </trkpt>
      <trkpt lat="43.71869" lon="6.93493">
        <ele>1265.8</ele>
        <time>2016-09-25T08:04:01Z</time>
      </trkpt>
      <trkpt lat="43.71866" lon="6.93488">
        <ele>1266.2</ele>
        <time>2016-09-25T08:04:03Z</time>
      </trkpt>
      <trkpt lat="43.71864" lon="6.93483">
        <ele>1266.7</ele>
        <time>2016-09-25T08:04:05Z</time>
      </trkpt>
      <trkpt lat="43.71861" lon="6.93479">
        <ele>1267</ele>
        <time>2016-09-25T08:04:07Z</time>
      </trkpt>
      <trkpt lat="43.71858" lon="6.93475">
        <ele>1267.4</ele>
        <time>2016-09-25T08:04:09Z</time>
      </trkpt>
      <trkpt lat="43.71856" lon="6.93471">
        <ele>1267.8</ele>
        <time>2016-09-25T08:04:11Z</time>
      </trkpt>
      <trkpt lat="43.71853" lon="6.93467">
        <ele>1268.2</ele>
        <time>2016-09-25T08:04:13Z</time>
      </trkpt>
      <trkpt lat="43.71851" lon="6.93462">
        <ele>1268.6</ele>
        <time>2016-09-25T08:04:15Z</time>
      </trkpt>
      <trkpt lat="43.71848" lon="6.93457">
        <ele>1269</ele>
        <time>2016-09-25T08:04:17Z</time>
      </trkpt>
      <trkpt lat="43.71845" lon="6.93453">
        <ele>1269.2</ele>
        <time>2016-09-25T08:04:19Z</time>
      </trkpt>
      <trkpt lat="43.71842" lon="6.93448">
        <ele>1269.4</ele>
        <time>2016-09-25T08:04:21Z</time>
      </trkpt>
      <trkpt lat="43.71839" lon="6.93443">
        <ele>1269.7</ele>
        <time>2016-09-25T08:04:23Z</time>
      </trkpt>
      <trkpt lat="43.71836" lon="6.93438">
        <ele>1270</ele>
        <time>2016-09-25T08:04:25Z</time>
      </trkpt>
      <trkpt lat="43.71833" lon="6.93431">
        <ele>1270.4</ele>
        <time>2016-09-25T08:04:27Z</time>
      </trkpt>
      <trkpt lat="43.71831" lon="6.93427">
        <ele>1270.6</ele>
        <time>2016-09-25T08:04:28Z</time>
      </trkpt>
      <trkpt lat="43.71829" lon="6.93423">
        <ele>1270.9</ele>
        <time>2016-09-25T08:04:29Z</time>
      </trkpt>
      <trkpt lat="43.71826" lon="6.93419">
        <ele>1271.2</ele>
        <time>2016-09-25T08:04:30Z</time>
      </trkpt>
      <trkpt lat="43.71824" lon="6.93414">
        <ele>1271.6</ele>
        <time>2016-09-25T08:04:31Z</time>
      </trkpt>
      <trkpt lat="43.71821" lon="6.93409">
        <ele>1272</ele>
        <time>2016-09-25T08:04:32Z</time>
      </trkpt>
      <trkpt lat="43.71819" lon="6.93404">
        <ele>1272.5</ele>
        <time>2016-09-25T08:04:33Z</time>
      </trkpt>
      <trkpt lat="43.71816" lon="6.93398">
        <ele>1273</ele>
        <time>2016-09-25T08:04:34Z</time>
      </trkpt>
      <trkpt lat="43.71813" lon="6.93392">
        <ele>1273.6</ele>
        <time>2016-09-25T08:04:35Z</time>
      </trkpt>
      <trkpt lat="43.7181" lon="6.93387">
        <ele>1274.1</ele>
        <time>2016-09-25T08:04:36Z</time>
      </trkpt>
      <trkpt lat="43.71808" lon="6.93382">
        <ele>1274.7</ele>
        <time>2016-09-25T08:04:37Z</time>
      </trkpt>
      <trkpt lat="43.71806" lon="6.93377">
        <ele>1275.1</ele>
        <time>2016-09-25T08:04:38Z</time>
      </trkpt>
      <trkpt lat="43.71804" lon="6.93373">
        <ele>1275.6</ele>
        <time>2016-09-25T08:04:39Z</time>
      </trkpt>
      <trkpt lat="43.71802" lon="6.9337">
        <ele>1276</ele>
        <time>2016-09-25T08:04:40Z</time>
      </trkpt>
      <trkpt lat="43.71801" lon="6.93366">
        <ele>1276.3</ele>
        <time>2016-09-25T08:04:41Z</time>
      </trkpt>
      <trkpt lat="43.71797" lon="6.93361">
        <ele>1277.1</ele>
        <time>2016-09-25T08:04:43Z</time>
      </trkpt>
      <trkpt lat="43.71795" lon="6.93358">
        <ele>1277.5</ele>
        <time>2016-09-25T08:04:44Z</time>
      </trkpt>
      <trkpt lat="43.71793" lon="6.93356">
        <ele>1278</ele>
        <time>2016-09-25T08:04:45Z</time>
      </trkpt>
      <trkpt lat="43.71791" lon="6.93354">
        <ele>1278.5</ele>
        <time>2016-09-25T08:04:46Z</time>
      </trkpt>
      <trkpt lat="43.71788" lon="6.93352">
        <ele>1279</ele>
        <time>2016-09-25T08:04:47Z</time>
      </trkpt>
      <trkpt lat="43.71784" lon="6.93349">
        <ele>1279.9</ele>
        <time>2016-09-25T08:04:49Z</time>
      </trkpt>
      <trkpt lat="43.7178" lon="6.93347">
        <ele>1280.7</ele>
        <time>2016-09-25T08:04:51Z</time>
      </trkpt>
      <trkpt lat="43.71777" lon="6.93345">
        <ele>1281.4</ele>
        <time>2016-09-25T08:04:53Z</time>
      </trkpt>
      <trkpt lat="43.71774" lon="6.93343">
        <ele>1282.1</ele>
        <time>2016-09-25T08:04:55Z</time>
      </trkpt>
      <trkpt lat="43.7177" lon="6.93342">
        <ele>1282.8</ele>
        <time>2016-09-25T08:04:57Z</time>
      </trkpt>
      <trkpt lat="43.71767" lon="6.93342">
        <ele>1283.4</ele>
        <time>2016-09-25T08:04:59Z</time>
      </trkpt>
      <trkpt lat="43.71764" lon="6.93342">
        <ele>1283.9</ele>
        <time>2016-09-25T08:05:01Z</time>
      </trkpt>
      <trkpt lat="43.71761" lon="6.93343">
        <ele>1284.3</ele>
        <time>2016-09-25T08:05:03Z</time>
      </trkpt>
      <trkpt lat="43.71758" lon="6.93344">
        <ele>1284.8</ele>
        <time>2016-09-25T08:05:05Z</time>
      </trkpt>
      <trkpt lat="43.71755" lon="6.93345">
        <ele>1285.3</ele>
        <time>2016-09-25T08:05:07Z</time>
      </trkpt>
      <trkpt lat="43.71752" lon="6.93346">
        <ele>1285.7</ele>
        <time>2016-09-25T08:05:09Z</time>
      </trkpt>
      <trkpt lat="43.71749" lon="6.93347">
        <ele>1286.1</ele>
        <time>2016-09-25T08:05:11Z</time>
      </trkpt>
      <trkpt lat="43.71747" lon="6.93348">
        <ele>1286.5</ele>
        <time>2016-09-25T08:05:13Z</time>
      </trkpt>
      <trkpt lat="43.71744" lon="6.9335">
        <ele>1286.9</ele>
        <time>2016-09-25T08:05:15Z</time>
      </trkpt>
      <trkpt lat="43.71741" lon="6.93351">
        <ele>1287.3</ele>
        <time>2016-09-25T08:05:17Z</time>
      </trkpt>
      <trkpt lat="43.71738" lon="6.93352">
        <ele>1287.7</ele>
        <time>2016-09-25T08:05:19Z</time>
      </trkpt>
      <trkpt lat="43.71735" lon="6.93354">
        <ele>1288.1</ele>
        <time>2016-09-25T08:05:21Z</time>
      </trkpt>
      <trkpt lat="43.71733" lon="6.93355">
        <ele>1288.5</ele>
        <time>2016-09-25T08:05:23Z</time>
      </trkpt>
      <trkpt lat="43.7173" lon="6.93357">
        <ele>1288.9</ele>
        <time>2016-09-25T08:05:25Z</time>
      </trkpt>
      <trkpt lat="43.71727" lon="6.93357">
        <ele>1289.3</ele>
        <time>2016-09-25T08:05:27Z</time>
      </trkpt>
      <trkpt lat="43.71724" lon="6.93359">
        <ele>1289.7</ele>
        <time>2016-09-25T08:05:29Z</time>
      </trkpt>
      <trkpt lat="43.71721" lon="6.9336">
        <ele>1290.2</ele>
        <time>2016-09-25T08:05:31Z</time>
      </trkpt>
      <trkpt lat="43.71718" lon="6.9336">
        <ele>1290.7</ele>
        <time>2016-09-25T08:05:33Z</time>
      </trkpt>
      <trkpt lat="43.71714" lon="6.93361">
        <ele>1291.1</ele>
        <time>2016-09-25T08:05:35Z</time>
      </trkpt>
      <trkpt lat="43.71711" lon="6.93362">
        <ele>1291.7</ele>
        <time>2016-09-25T08:05:37Z</time>
      </trkpt>
      <trkpt lat="43.71708" lon="6.93364">
        <ele>1291.9</ele>
        <time>2016-09-25T08:05:39Z</time>
      </trkpt>
      <trkpt lat="43.71704" lon="6.93364">
        <ele>1291.9</ele>
        <time>2016-09-25T08:05:41Z</time>
      </trkpt>
      <trkpt lat="43.71701" lon="6.93364">
        <ele>1292</ele>
        <time>2016-09-25T08:05:43Z</time>
      </trkpt>
      <trkpt lat="43.71698" lon="6.93364">
        <ele>1291.9</ele>
        <time>2016-09-25T08:05:45Z</time>
      </trkpt>
      <trkpt lat="43.71695" lon="6.93365">
        <ele>1291.9</ele>
        <time>2016-09-25T08:05:47Z</time>
      </trkpt>
      <trkpt lat="43.71692" lon="6.93365">
        <ele>1291.9</ele>
        <time>2016-09-25T08:05:49Z</time>
      </trkpt>
      <trkpt lat="43.71689" lon="6.93365">
        <ele>1291.9</ele>
        <time>2016-09-25T08:05:56Z</time>
      </trkpt>
      <trkpt lat="43.71686" lon="6.93365">
        <ele>1291.9</ele>
        <time>2016-09-25T08:06:01Z</time>
      </trkpt>
      <trkpt lat="43.71683" lon="6.93364">
        <ele>1292</ele>
        <time>2016-09-25T08:06:06Z</time>
      </trkpt>
      <trkpt lat="43.7168" lon="6.93362">
        <ele>1292.2</ele>
        <time>2016-09-25T08:06:11Z</time>
      </trkpt>
      <trkpt lat="43.71677" lon="6.93361">
        <ele>1292.5</ele>
        <time>2016-09-25T08:06:16Z</time>
      </trkpt>
      <trkpt lat="43.71674" lon="6.93359">
        <ele>1292.7</ele>
        <time>2016-09-25T08:06:20Z</time>
      </trkpt>
      <trkpt lat="43.71671" lon="6.93358">
        <ele>1292.9</ele>
        <time>2016-09-25T08:06:24Z</time>
      </trkpt>
      <trkpt lat="43.71668" lon="6.93356">
        <ele>1293.3</ele>
        <time>2016-09-25T08:06:28Z</time>
      </trkpt>
      <trkpt lat="43.71666" lon="6.93354">
        <ele>1293.6</ele>
        <time>2016-09-25T08:06:32Z</time>
      </trkpt>
      <trkpt lat="43.71663" lon="6.93352">
        <ele>1294</ele>
        <time>2016-09-25T08:06:36Z</time>
      </trkpt>
      <trkpt lat="43.7166" lon="6.9335">
        <ele>1294.3</ele>
        <time>2016-09-25T08:06:40Z</time>
      </trkpt>
      <trkpt lat="43.71657" lon="6.93347">
        <ele>1294.7</ele>
        <time>2016-09-25T08:06:44Z</time>
      </trkpt>
      <trkpt lat="43.71654" lon="6.93346">
        <ele>1295.1</ele>
        <time>2016-09-25T08:06:48Z</time>
      </trkpt>
      <trkpt lat="43.71651" lon="6.93344">
        <ele>1295.5</ele>
        <time>2016-09-25T08:06:51Z</time>
      </trkpt>
      <trkpt lat="43.71649" lon="6.93341">
        <ele>1296.1</ele>
        <time>2016-09-25T08:06:54Z</time>
      </trkpt>
      <trkpt lat="43.71645" lon="6.93339">
        <ele>1296.6</ele>
        <time>2016-09-25T08:06:57Z</time>
      </trkpt>
      <trkpt lat="43.71643" lon="6.93336">
        <ele>1297.1</ele>
        <time>2016-09-25T08:07:00Z</time>
      </trkpt>
      <trkpt lat="43.7164" lon="6.93333">
        <ele>1297.8</ele>
        <time>2016-09-25T08:07:03Z</time>
      </trkpt>
      <trkpt lat="43.71638" lon="6.93331">
        <ele>1298.4</ele>
        <time>2016-09-25T08:07:06Z</time>
      </trkpt>
      <trkpt lat="43.71636" lon="6.93327">
        <ele>1299.1</ele>
        <time>2016-09-25T08:07:09Z</time>
      </trkpt>
      <trkpt lat="43.71633" lon="6.93325">
        <ele>1299.7</ele>
        <time>2016-09-25T08:07:12Z</time>
      </trkpt>
      <trkpt lat="43.7163" lon="6.93323">
        <ele>1300.4</ele>
        <time>2016-09-25T08:07:15Z</time>
      </trkpt>
      <trkpt lat="43.71628" lon="6.93319">
        <ele>1301.2</ele>
        <time>2016-09-25T08:07:18Z</time>
      </trkpt>
      <trkpt lat="43.71626" lon="6.93315">
        <ele>1302.1</ele>
        <time>2016-09-25T08:07:21Z</time>
      </trkpt>
      <trkpt lat="43.71625" lon="6.93312">
        <ele>1302.8</ele>
        <time>2016-09-25T08:07:24Z</time>
      </trkpt>
      <trkpt lat="43.71621" lon="6.93309">
        <ele>1303</ele>
        <time>2016-09-25T08:07:27Z</time>
      </trkpt>
      <trkpt lat="43.71619" lon="6.93306">
        <ele>1303.4</ele>
        <time>2016-09-25T08:07:30Z</time>
      </trkpt>
      <trkpt lat="43.71616" lon="6.93303">
        <ele>1303.8</ele>
        <time>2016-09-25T08:07:33Z</time>
      </trkpt>
      <trkpt lat="43.71614" lon="6.93299">
        <ele>1304.2</ele>
        <time>2016-09-25T08:07:36Z</time>
      </trkpt>
      <trkpt lat="43.71613" lon="6.93296">
        <ele>1304.8</ele>
        <time>2016-09-25T08:07:39Z</time>
      </trkpt>
      <trkpt lat="43.71612" lon="6.93292">
        <ele>1305.5</ele>
        <time>2016-09-25T08:07:42Z</time>
      </trkpt>
      <trkpt lat="43.71611" lon="6.93288">
        <ele>1306.2</ele>
        <time>2016-09-25T08:07:45Z</time>
      </trkpt>
      <trkpt lat="43.71611" lon="6.93284">
        <ele>1306.8</ele>
        <time>2016-09-25T08:07:48Z</time>
      </trkpt>
      <trkpt lat="43.71609" lon="6.9328">
        <ele>1307.3</ele>
        <time>2016-09-25T08:07:51Z</time>
      </trkpt>
      <trkpt lat="43.71608" lon="6.93276">
        <ele>1307.8</ele>
        <time>2016-09-25T08:07:54Z</time>
      </trkpt>
      <trkpt lat="43.71607" lon="6.93272">
        <ele>1308.3</ele>
        <time>2016-09-25T08:07:57Z</time>
      </trkpt>
      <trkpt lat="43.71606" lon="6.93269">
        <ele>1308.9</ele>
        <time>2016-09-25T08:08:00Z</time>
      </trkpt>
      <trkpt lat="43.71605" lon="6.93264">
        <ele>1309.5</ele>
        <time>2016-09-25T08:08:04Z</time>
      </trkpt>
      <trkpt lat="43.71605" lon="6.9326">
        <ele>1310.3</ele>
        <time>2016-09-25T08:08:08Z</time>
      </trkpt>
      <trkpt lat="43.71605" lon="6.93255">
        <ele>1311.2</ele>
        <time>2016-09-25T08:08:12Z</time>
      </trkpt>
      <trkpt lat="43.71605" lon="6.9325">
        <ele>1312</ele>
        <time>2016-09-25T08:08:16Z</time>
      </trkpt>
      <trkpt lat="43.71603" lon="6.93245">
        <ele>1312.6</ele>
        <time>2016-09-25T08:08:20Z</time>
      </trkpt>
      <trkpt lat="43.71603" lon="6.93241">
        <ele>1313.3</ele>
        <time>2016-09-25T08:08:24Z</time>
      </trkpt>
      <trkpt lat="43.71602" lon="6.93236">
        <ele>1314</ele>
        <time>2016-09-25T08:08:36Z</time>
      </trkpt>
      <trkpt lat="43.71602" lon="6.93232">
        <ele>1314.7</ele>
        <time>2016-09-25T08:08:39Z</time>
      </trkpt>
      <trkpt lat="43.71602" lon="6.93228">
        <ele>1315.4</ele>
        <time>2016-09-25T08:08:42Z</time>
      </trkpt>
      <trkpt lat="43.71602" lon="6.93223">
        <ele>1316.2</ele>
        <time>2016-09-25T08:08:46Z</time>
      </trkpt>
      <trkpt lat="43.71603" lon="6.93219">
        <ele>1316.9</ele>
        <time>2016-09-25T08:08:49Z</time>
      </trkpt>
      <trkpt lat="43.71603" lon="6.93215">
        <ele>1317.6</ele>
        <time>2016-09-25T08:08:52Z</time>
      </trkpt>
      <trkpt lat="43.71602" lon="6.93211">
        <ele>1318.4</ele>
        <time>2016-09-25T08:08:55Z</time>
      </trkpt>
      <trkpt lat="43.71603" lon="6.93207">
        <ele>1319</ele>
        <time>2016-09-25T08:08:58Z</time>
      </trkpt>
      <trkpt lat="43.71604" lon="6.93203">
        <ele>1319.5</ele>
        <time>2016-09-25T08:09:01Z</time>
      </trkpt>
      <trkpt lat="43.71604" lon="6.93199">
        <ele>1319.9</ele>
        <time>2016-09-25T08:09:04Z</time>
      </trkpt>
      <trkpt lat="43.71605" lon="6.93195">
        <ele>1320.4</ele>
        <time>2016-09-25T08:09:07Z</time>
      </trkpt>
      <trkpt lat="43.71605" lon="6.93191">
        <ele>1320.9</ele>
        <time>2016-09-25T08:09:10Z</time>
      </trkpt>
      <trkpt lat="43.71606" lon="6.93187">
        <ele>1321.4</ele>
        <time>2016-09-25T08:09:13Z</time>
      </trkpt>
      <trkpt lat="43.71605" lon="6.93183">
        <ele>1321.8</ele>
        <time>2016-09-25T08:09:16Z</time>
      </trkpt>
      <trkpt lat="43.71605" lon="6.93179">
        <ele>1322.2</ele>
        <time>2016-09-25T08:09:19Z</time>
      </trkpt>
      <trkpt lat="43.71605" lon="6.93174">
        <ele>1322.6</ele>
        <time>2016-09-25T08:09:22Z</time>
      </trkpt>
      <trkpt lat="43.71605" lon="6.9317">
        <ele>1323.1</ele>
        <time>2016-09-25T08:09:25Z</time>
      </trkpt>
      <trkpt lat="43.71605" lon="6.93166">
        <ele>1323.5</ele>
        <time>2016-09-25T08:09:28Z</time>
      </trkpt>
      <trkpt lat="43.71605" lon="6.93162">
        <ele>1323.9</ele>
        <time>2016-09-25T08:09:31Z</time>
      </trkpt>
      <trkpt lat="43.71605" lon="6.93157">
        <ele>1324.4</ele>
        <time>2016-09-25T08:09:35Z</time>
      </trkpt>
      <trkpt lat="43.71604" lon="6.93153">
        <ele>1324.8</ele>
        <time>2016-09-25T08:09:38Z</time>
      </trkpt>
      <trkpt lat="43.71604" lon="6.93149">
        <ele>1325.2</ele>
        <time>2016-09-25T08:09:41Z</time>
      </trkpt>
      <trkpt lat="43.71603" lon="6.93145">
        <ele>1325.7</ele>
        <time>2016-09-25T08:09:45Z</time>
      </trkpt>
      <trkpt lat="43.71603" lon="6.9314">
        <ele>1326.1</ele>
        <time>2016-09-25T08:09:49Z</time>
      </trkpt>
      <trkpt lat="43.71602" lon="6.93136">
        <ele>1326.5</ele>
        <time>2016-09-25T08:09:52Z</time>
      </trkpt>
      <trkpt lat="43.71602" lon="6.93132">
        <ele>1326.8</ele>
        <time>2016-09-25T08:09:55Z</time>
      </trkpt>
      <trkpt lat="43.716" lon="6.93128">
        <ele>1327.2</ele>
        <time>2016-09-25T08:09:58Z</time>
      </trkpt>
      <trkpt lat="43.71601" lon="6.93124">
        <ele>1327.6</ele>
        <time>2016-09-25T08:10:03Z</time>
      </trkpt>
      <trkpt lat="43.716" lon="6.93119">
        <ele>1327.5</ele>
        <time>2016-09-25T08:10:07Z</time>
      </trkpt>
      <trkpt lat="43.71599" lon="6.93115">
        <ele>1327.4</ele>
        <time>2016-09-25T08:10:10Z</time>
      </trkpt>
      <trkpt lat="43.71598" lon="6.93112">
        <ele>1327.4</ele>
        <time>2016-09-25T08:10:13Z</time>
      </trkpt>
      <trkpt lat="43.71597" lon="6.93108">
        <ele>1327.3</ele>
        <time>2016-09-25T08:10:16Z</time>
      </trkpt>
      <trkpt lat="43.71596" lon="6.93104">
        <ele>1327.1</ele>
        <time>2016-09-25T08:10:19Z</time>
      </trkpt>
      <trkpt lat="43.71595" lon="6.931">
        <ele>1327</ele>
        <time>2016-09-25T08:10:22Z</time>
      </trkpt>
      <trkpt lat="43.71594" lon="6.93097">
        <ele>1326.9</ele>
        <time>2016-09-25T08:10:25Z</time>
      </trkpt>
      <trkpt lat="43.71593" lon="6.93093">
        <ele>1326.7</ele>
        <time>2016-09-25T08:10:28Z</time>
      </trkpt>
      <trkpt lat="43.71591" lon="6.93089">
        <ele>1326.5</ele>
        <time>2016-09-25T08:10:31Z</time>
      </trkpt>
      <trkpt lat="43.7159" lon="6.93085">
        <ele>1326.3</ele>
        <time>2016-09-25T08:10:34Z</time>
      </trkpt>
      <trkpt lat="43.71589" lon="6.93081">
        <ele>1326.1</ele>
        <time>2016-09-25T08:10:37Z</time>
      </trkpt>
      <trkpt lat="43.71588" lon="6.93077">
        <ele>1325.9</ele>
        <time>2016-09-25T08:10:40Z</time>
      </trkpt>
      <trkpt lat="43.71587" lon="6.93073">
        <ele>1325.7</ele>
        <time>2016-09-25T08:10:43Z</time>
      </trkpt>
      <trkpt lat="43.71586" lon="6.93069">
        <ele>1325.5</ele>
        <time>2016-09-25T08:10:58Z</time>
      </trkpt>
      <trkpt lat="43.71585" lon="6.93064">
        <ele>1325.3</ele>
        <time>2016-09-25T08:11:02Z</time>
      </trkpt>
      <trkpt lat="43.71584" lon="6.9306">
        <ele>1325.1</ele>
        <time>2016-09-25T08:11:05Z</time>
      </trkpt>
      <trkpt lat="43.71584" lon="6.93056">
        <ele>1325</ele>
        <time>2016-09-25T08:11:08Z</time>
      </trkpt>
      <trkpt lat="43.71583" lon="6.93052">
        <ele>1324.6</ele>
        <time>2016-09-25T08:11:11Z</time>
      </trkpt>
      <trkpt lat="43.7158" lon="6.9305">
        <ele>1324.1</ele>
        <time>2016-09-25T08:11:14Z</time>
      </trkpt>
      <trkpt lat="43.71577" lon="6.93047">
        <ele>1323.6</ele>
        <time>2016-09-25T08:11:17Z</time>
      </trkpt>
      <trkpt lat="43.71574" lon="6.93045">
        <ele>1323</ele>
        <time>2016-09-25T08:11:20Z</time>
      </trkpt>
      <trkpt lat="43.71572" lon="6.93044">
        <ele>1322.5</ele>
        <time>2016-09-25T08:11:23Z</time>
      </trkpt>
      <trkpt lat="43.71569" lon="6.93043">
        <ele>1321.9</ele>
        <time>2016-09-25T08:11:26Z</time>
      </trkpt>
      <trkpt lat="43.71566" lon="6.93043">
        <ele>1321.4</ele>
        <time>2016-09-25T08:11:29Z</time>
      </trkpt>
      <trkpt lat="43.71562" lon="6.93045">
        <ele>1320.9</ele>
        <time>2016-09-25T08:11:33Z</time>
      </trkpt>
      <trkpt lat="43.7156" lon="6.93046">
        <ele>1320.5</ele>
        <time>2016-09-25T08:11:36Z</time>
      </trkpt>
      <trkpt lat="43.71557" lon="6.93048">
        <ele>1320.1</ele>
        <time>2016-09-25T08:12:38Z</time>
      </trkpt>
      <trkpt lat="43.71554" lon="6.93051">
        <ele>1319.8</ele>
        <time>2016-09-25T08:12:40Z</time>
      </trkpt>
      <trkpt lat="43.71551" lon="6.93053">
        <ele>1319.4</ele>
        <time>2016-09-25T08:12:42Z</time>
      </trkpt>
      <trkpt lat="43.71547" lon="6.93054">
        <ele>1318.9</ele>
        <time>2016-09-25T08:12:45Z</time>
      </trkpt>
      <trkpt lat="43.71545" lon="6.93058">
        <ele>1318.9</ele>
        <time>2016-09-25T08:12:47Z</time>
      </trkpt>
      <trkpt lat="43.71544" lon="6.93062">
        <ele>1319</ele>
        <time>2016-09-25T08:12:49Z</time>
      </trkpt>
      <trkpt lat="43.71541" lon="6.93064">
        <ele>1318.6</ele>
        <time>2016-09-25T08:12:54Z</time>
      </trkpt>
      <trkpt lat="43.71539" lon="6.93068">
        <ele>1318.5</ele>
        <time>2016-09-25T08:12:56Z</time>
      </trkpt>
      <trkpt lat="43.71536" lon="6.9307">
        <ele>1317.7</ele>
        <time>2016-09-25T08:12:59Z</time>
      </trkpt>
      <trkpt lat="43.71533" lon="6.93074">
        <ele>1317.5</ele>
        <time>2016-09-25T08:13:02Z</time>
      </trkpt>
      <trkpt lat="43.71532" lon="6.93078">
        <ele>1317.4</ele>
        <time>2016-09-25T08:13:04Z</time>
      </trkpt>
      <trkpt lat="43.7153" lon="6.9308">
        <ele>1316.9</ele>
        <time>2016-09-25T08:13:08Z</time>
      </trkpt>
      <trkpt lat="43.71532" lon="6.93084">
        <ele>1317.7</ele>
        <time>2016-09-25T08:13:24Z</time>
      </trkpt>
      <trkpt lat="43.71534" lon="6.93088">
        <ele>1318.8</ele>
        <time>2016-09-25T08:13:27Z</time>
      </trkpt>
      <trkpt lat="43.71535" lon="6.93091">
        <ele>1319.4</ele>
        <time>2016-09-25T08:13:31Z</time>
      </trkpt>
      <trkpt lat="43.71538" lon="6.93086">
        <ele>1319.6</ele>
        <time>2016-09-25T08:14:35Z</time>
      </trkpt>
      <trkpt lat="43.71539" lon="6.93081">
        <ele>1319.7</ele>
        <time>2016-09-25T08:14:38Z</time>
      </trkpt>
      <trkpt lat="43.71541" lon="6.93076">
        <ele>1319.6</ele>
        <time>2016-09-25T08:14:41Z</time>
      </trkpt>
      <trkpt lat="43.71541" lon="6.93072">
        <ele>1319.4</ele>
        <time>2016-09-25T08:14:43Z</time>
      </trkpt>
      <trkpt lat="43.71541" lon="6.93069">
        <ele>1319.2</ele>
        <time>2016-09-25T08:14:45Z</time>
      </trkpt>
      <trkpt lat="43.71543" lon="6.93065">
        <ele>1319.2</ele>
        <time>2016-09-25T08:14:48Z</time>
      </trkpt>
      <trkpt lat="43.71547" lon="6.93065">
        <ele>1319.7</ele>
        <time>2016-09-25T08:14:51Z</time>
      </trkpt>
      <trkpt lat="43.71549" lon="6.93063">
        <ele>1319.9</ele>
        <time>2016-09-25T08:15:16Z</time>
      </trkpt>
      <trkpt lat="43.7155" lon="6.93059">
        <ele>1319.8</ele>
        <time>2016-09-25T08:15:20Z</time>
      </trkpt>
      <trkpt lat="43.71553" lon="6.93057">
        <ele>1320.1</ele>
        <time>2016-09-25T08:15:56Z</time>
      </trkpt>
      <trkpt lat="43.71556" lon="6.93054">
        <ele>1320.3</ele>
        <time>2016-09-25T08:16:00Z</time>
      </trkpt>
      <trkpt lat="43.71558" lon="6.93053">
        <ele>1320.7</ele>
        <time>2016-09-25T08:16:04Z</time>
      </trkpt>
      <trkpt lat="43.71557" lon="6.93049">
        <ele>1320.2</ele>
        <time>2016-09-25T08:16:12Z</time>
      </trkpt>
      <trkpt lat="43.71555" lon="6.93047">
        <ele>1319.7</ele>
        <time>2016-09-25T08:16:15Z</time>
      </trkpt>
      <trkpt lat="43.71552" lon="6.93045">
        <ele>1319</ele>
        <time>2016-09-25T08:16:18Z</time>
      </trkpt>
      <trkpt lat="43.71548" lon="6.93043">
        <ele>1318.3</ele>
        <time>2016-09-25T08:16:21Z</time>
      </trkpt>
      <trkpt lat="43.71546" lon="6.93042">
        <ele>1317.7</ele>
        <time>2016-09-25T08:16:23Z</time>
      </trkpt>
      <trkpt lat="43.71542" lon="6.9304">
        <ele>1316.8</ele>
        <time>2016-09-25T08:16:26Z</time>
      </trkpt>
      <trkpt lat="43.71539" lon="6.93038">
        <ele>1315.9</ele>
        <time>2016-09-25T08:16:28Z</time>
      </trkpt>
      <trkpt lat="43.71536" lon="6.93037">
        <ele>1315</ele>
        <time>2016-09-25T08:16:30Z</time>
      </trkpt>
      <trkpt lat="43.71533" lon="6.93036">
        <ele>1313.9</ele>
        <time>2016-09-25T08:16:33Z</time>
      </trkpt>
      <trkpt lat="43.7153" lon="6.93035">
        <ele>1312.9</ele>
        <time>2016-09-25T08:16:36Z</time>
      </trkpt>
      <trkpt lat="43.71535" lon="6.93038">
        <ele>1314.7</ele>
        <time>2016-09-25T08:18:00Z</time>
      </trkpt>
      <trkpt lat="43.71537" lon="6.93039">
        <ele>1315.5</ele>
        <time>2016-09-25T08:18:07Z</time>
      </trkpt>
      <trkpt lat="43.7154" lon="6.93043">
        <ele>1316.5</ele>
        <time>2016-09-25T08:18:12Z</time>
      </trkpt>
      <trkpt lat="43.71541" lon="6.93046">
        <ele>1317.2</ele>
        <time>2016-09-25T08:18:22Z</time>
      </trkpt>
      <trkpt lat="43.71544" lon="6.93049">
        <ele>1318</ele>
        <time>2016-09-25T08:18:26Z</time>
      </trkpt>
      <trkpt lat="43.71546" lon="6.93053">
        <ele>1318.6</ele>
        <time>2016-09-25T08:18:30Z</time>
      </trkpt>
      <trkpt lat="43.71545" lon="6.93056">
        <ele>1318.8</ele>
        <time>2016-09-25T08:18:34Z</time>
      </trkpt>
      <trkpt lat="43.71544" lon="6.93061">
        <ele>1318.9</ele>
        <time>2016-09-25T08:18:38Z</time>
      </trkpt>
      <trkpt lat="43.71542" lon="6.93064">
        <ele>1318.9</ele>
        <time>2016-09-25T08:18:41Z</time>
      </trkpt>
      <trkpt lat="43.71542" lon="6.93068">
        <ele>1319.2</ele>
        <time>2016-09-25T08:18:46Z</time>
      </trkpt>
      <trkpt lat="43.71542" lon="6.93073">
        <ele>1319.6</ele>
        <time>2016-09-25T08:18:52Z</time>
      </trkpt>
      <trkpt lat="43.71545" lon="6.93072">
        <ele>1320</ele>
        <time>2016-09-25T08:19:26Z</time>
      </trkpt>
      <trkpt lat="43.71547" lon="6.93069">
        <ele>1320</ele>
        <time>2016-09-25T08:19:29Z</time>
      </trkpt>
      <trkpt lat="43.71549" lon="6.93065">
        <ele>1320</ele>
        <time>2016-09-25T08:19:32Z</time>
      </trkpt>
      <trkpt lat="43.71551" lon="6.93061">
        <ele>1320</ele>
        <time>2016-09-25T08:19:35Z</time>
      </trkpt>
      <trkpt lat="43.71554" lon="6.93058">
        <ele>1320.2</ele>
        <time>2016-09-25T08:19:38Z</time>
      </trkpt>
      <trkpt lat="43.71555" lon="6.93053">
        <ele>1320.1</ele>
        <time>2016-09-25T08:19:41Z</time>
      </trkpt>
      <trkpt lat="43.71554" lon="6.93057">
        <ele>1320.3</ele>
        <time>2016-09-25T08:20:07Z</time>
      </trkpt>
      <trkpt lat="43.71553" lon="6.93061">
        <ele>1320.3</ele>
        <time>2016-09-25T08:20:10Z</time>
      </trkpt>
      <trkpt lat="43.71555" lon="6.93059">
        <ele>1320.5</ele>
        <time>2016-09-25T08:25:38Z</time>
      </trkpt>
      <trkpt lat="43.71556" lon="6.93055">
        <ele>1320.4</ele>
        <time>2016-09-25T08:25:40Z</time>
      </trkpt>
      <trkpt lat="43.71557" lon="6.93051">
        <ele>1320.3</ele>
        <time>2016-09-25T08:25:43Z</time>
      </trkpt>
      <trkpt lat="43.71562" lon="6.93053">
        <ele>1321.3</ele>
        <time>2016-09-25T08:35:17Z</time>
      </trkpt>
      <trkpt lat="43.71565" lon="6.93051">
        <ele>1321.7</ele>
        <time>2016-09-25T08:35:19Z</time>
      </trkpt>
      <trkpt lat="43.71568" lon="6.93049">
        <ele>1322.1</ele>
        <time>2016-09-25T08:35:21Z</time>
      </trkpt>
      <trkpt lat="43.71571" lon="6.93048">
        <ele>1322.4</ele>
        <time>2016-09-25T08:35:23Z</time>
      </trkpt>
      <trkpt lat="43.71573" lon="6.93049">
        <ele>1323</ele>
        <time>2016-09-25T08:35:27Z</time>
      </trkpt>
      <trkpt lat="43.71578" lon="6.93049">
        <ele>1323.8</ele>
        <time>2016-09-25T08:35:30Z</time>
      </trkpt>
      <trkpt lat="43.71581" lon="6.93049">
        <ele>1324.3</ele>
        <time>2016-09-25T08:35:31Z</time>
      </trkpt>
      <trkpt lat="43.71585" lon="6.93049">
        <ele>1324.9</ele>
        <time>2016-09-25T08:35:32Z</time>
      </trkpt>
      <trkpt lat="43.71588" lon="6.9305">
        <ele>1325.5</ele>
        <time>2016-09-25T08:35:33Z</time>
      </trkpt>
      <trkpt lat="43.71591" lon="6.93052">
        <ele>1326</ele>
        <time>2016-09-25T08:35:34Z</time>
      </trkpt>
      <trkpt lat="43.71594" lon="6.93053">
        <ele>1326.5</ele>
        <time>2016-09-25T08:35:35Z</time>
      </trkpt>
      <trkpt lat="43.71597" lon="6.93055">
        <ele>1327</ele>
        <time>2016-09-25T08:35:36Z</time>
      </trkpt>
      <trkpt lat="43.71602" lon="6.93056">
        <ele>1327.7</ele>
        <time>2016-09-25T08:35:38Z</time>
      </trkpt>
      <trkpt lat="43.71606" lon="6.93054">
        <ele>1328.4</ele>
        <time>2016-09-25T08:35:40Z</time>
      </trkpt>
      <trkpt lat="43.71606" lon="6.93051">
        <ele>1328.6</ele>
        <time>2016-09-25T08:35:42Z</time>
      </trkpt>
      <trkpt lat="43.71604" lon="6.93053">
        <ele>1328.2</ele>
        <time>2016-09-25T08:36:09Z</time>
      </trkpt>
      <trkpt lat="43.71601" lon="6.93052">
        <ele>1327.7</ele>
        <time>2016-09-25T08:36:46Z</time>
      </trkpt>
      <trkpt lat="43.71598" lon="6.93051">
        <ele>1327.2</ele>
        <time>2016-09-25T08:37:05Z</time>
      </trkpt>
      <trkpt lat="43.71597" lon="6.93047">
        <ele>1327</ele>
        <time>2016-09-25T08:37:26Z</time>
      </trkpt>
      <trkpt lat="43.71593" lon="6.93046">
        <ele>1326.4</ele>
        <time>2016-09-25T08:38:49Z</time>
      </trkpt>
      <trkpt lat="43.7159" lon="6.93045">
        <ele>1325.8</ele>
        <time>2016-09-25T08:38:50Z</time>
      </trkpt>
      <trkpt lat="43.71583" lon="6.93042">
        <ele>1324.4</ele>
        <time>2016-09-25T08:38:51Z</time>
      </trkpt>
      <trkpt lat="43.71578" lon="6.9304">
        <ele>1323.2</ele>
        <time>2016-09-25T08:38:52Z</time>
      </trkpt>
      <trkpt lat="43.71573" lon="6.93035">
        <ele>1321.9</ele>
        <time>2016-09-25T08:38:53Z</time>
      </trkpt>
      <trkpt lat="43.7157" lon="6.93028">
        <ele>1320.3</ele>
        <time>2016-09-25T08:38:54Z</time>
      </trkpt>
      <trkpt lat="43.71568" lon="6.9302">
        <ele>1318.9</ele>
        <time>2016-09-25T08:38:55Z</time>
      </trkpt>
      <trkpt lat="43.71567" lon="6.9301">
        <ele>1317.5</ele>
        <time>2016-09-25T08:38:56Z</time>
      </trkpt>
      <trkpt lat="43.71565" lon="6.93002">
        <ele>1316.1</ele>
        <time>2016-09-25T08:38:57Z</time>
      </trkpt>
      <trkpt lat="43.7156" lon="6.92996">
        <ele>1314.5</ele>
        <time>2016-09-25T08:38:58Z</time>
      </trkpt>
      <trkpt lat="43.71554" lon="6.92995">
        <ele>1313.5</ele>
        <time>2016-09-25T08:38:59Z</time>
      </trkpt>
      <trkpt lat="43.7155" lon="6.92998">
        <ele>1313</ele>
        <time>2016-09-25T08:39:00Z</time>
      </trkpt>
      <trkpt lat="43.71545" lon="6.93004">
        <ele>1312.9</ele>
        <time>2016-09-25T08:39:01Z</time>
      </trkpt>
      <trkpt lat="43.71541" lon="6.93011">
        <ele>1313.2</ele>
        <time>2016-09-25T08:39:02Z</time>
      </trkpt>
      <trkpt lat="43.71537" lon="6.93017">
        <ele>1312.8</ele>
        <time>2016-09-25T08:39:03Z</time>
      </trkpt>
      <trkpt lat="43.71532" lon="6.93025">
        <ele>1312.5</ele>
        <time>2016-09-25T08:39:04Z</time>
      </trkpt>
      <trkpt lat="43.71528" lon="6.93031">
        <ele>1311.9</ele>
        <time>2016-09-25T08:39:05Z</time>
      </trkpt>
      <trkpt lat="43.71522" lon="6.93035">
        <ele>1310.9</ele>
        <time>2016-09-25T08:39:06Z</time>
      </trkpt>
      <trkpt lat="43.71516" lon="6.93038">
        <ele>1309.4</ele>
        <time>2016-09-25T08:39:07Z</time>
      </trkpt>
      <trkpt lat="43.71508" lon="6.93042">
        <ele>1307.6</ele>
        <time>2016-09-25T08:39:08Z</time>
      </trkpt>
      <trkpt lat="43.71502" lon="6.93047">
        <ele>1306.5</ele>
        <time>2016-09-25T08:39:09Z</time>
      </trkpt>
      <trkpt lat="43.71497" lon="6.93054">
        <ele>1305.8</ele>
        <time>2016-09-25T08:39:10Z</time>
      </trkpt>
      <trkpt lat="43.71494" lon="6.93061">
        <ele>1305.3</ele>
        <time>2016-09-25T08:39:11Z</time>
      </trkpt>
      <trkpt lat="43.7149" lon="6.93068">
        <ele>1305</ele>
        <time>2016-09-25T08:39:12Z</time>
      </trkpt>
      <trkpt lat="43.71485" lon="6.93075">
        <ele>1304.3</ele>
        <time>2016-09-25T08:39:13Z</time>
      </trkpt>
      <trkpt lat="43.7148" lon="6.93079">
        <ele>1303</ele>
        <time>2016-09-25T08:39:14Z</time>
      </trkpt>
      <trkpt lat="43.71473" lon="6.93082">
        <ele>1301.6</ele>
        <time>2016-09-25T08:39:15Z</time>
      </trkpt>
      <trkpt lat="43.71467" lon="6.93087">
        <ele>1300.2</ele>
        <time>2016-09-25T08:39:16Z</time>
      </trkpt>
      <trkpt lat="43.7146" lon="6.9309">
        <ele>1298.4</ele>
        <time>2016-09-25T08:39:17Z</time>
      </trkpt>
      <trkpt lat="43.71452" lon="6.93091">
        <ele>1296.6</ele>
        <time>2016-09-25T08:39:18Z</time>
      </trkpt>
      <trkpt lat="43.71445" lon="6.93091">
        <ele>1294.6</ele>
        <time>2016-09-25T08:39:19Z</time>
      </trkpt>
      <trkpt lat="43.71438" lon="6.93093">
        <ele>1292.9</ele>
        <time>2016-09-25T08:39:20Z</time>
      </trkpt>
      <trkpt lat="43.71432" lon="6.93098">
        <ele>1291.6</ele>
        <time>2016-09-25T08:39:21Z</time>
      </trkpt>
      <trkpt lat="43.71425" lon="6.93104">
        <ele>1290.3</ele>
        <time>2016-09-25T08:39:22Z</time>
      </trkpt>
      <trkpt lat="43.7142" lon="6.93111">
        <ele>1289.2</ele>
        <time>2016-09-25T08:39:23Z</time>
      </trkpt>
      <trkpt lat="43.71416" lon="6.93115">
        <ele>1288.4</ele>
        <time>2016-09-25T08:39:24Z</time>
      </trkpt>
      <trkpt lat="43.71414" lon="6.93121">
        <ele>1287.9</ele>
        <time>2016-09-25T08:39:25Z</time>
      </trkpt>
      <trkpt lat="43.71413" lon="6.93128">
        <ele>1287.7</ele>
        <time>2016-09-25T08:39:26Z</time>
      </trkpt>
      <trkpt lat="43.71413" lon="6.93134">
        <ele>1287.4</ele>
        <time>2016-09-25T08:39:27Z</time>
      </trkpt>
      <trkpt lat="43.71413" lon="6.93137">
        <ele>1287.3</ele>
        <time>2016-09-25T08:39:29Z</time>
      </trkpt>
      <trkpt lat="43.71413" lon="6.93141">
        <ele>1287.1</ele>
        <time>2016-09-25T08:39:49Z</time>
      </trkpt>
      <trkpt lat="43.71416" lon="6.93146">
        <ele>1287.4</ele>
        <time>2016-09-25T08:39:55Z</time>
      </trkpt>
      <trkpt lat="43.71417" lon="6.9315">
        <ele>1287.7</ele>
        <time>2016-09-25T08:39:56Z</time>
      </trkpt>
      <trkpt lat="43.7142" lon="6.93156">
        <ele>1288</ele>
        <time>2016-09-25T08:39:57Z</time>
      </trkpt>
      <trkpt lat="43.71423" lon="6.93167">
        <ele>1288.2</ele>
        <time>2016-09-25T08:39:58Z</time>
      </trkpt>
      <trkpt lat="43.71426" lon="6.93174">
        <ele>1288.7</ele>
        <time>2016-09-25T08:39:59Z</time>
      </trkpt>
      <trkpt lat="43.7143" lon="6.93181">
        <ele>1289.1</ele>
        <time>2016-09-25T08:40:00Z</time>
      </trkpt>
      <trkpt lat="43.71434" lon="6.93187">
        <ele>1289.9</ele>
        <time>2016-09-25T08:40:01Z</time>
      </trkpt>
      <trkpt lat="43.71438" lon="6.93191">
        <ele>1290.7</ele>
        <time>2016-09-25T08:40:02Z</time>
      </trkpt>
      <trkpt lat="43.71441" lon="6.93197">
        <ele>1291.3</ele>
        <time>2016-09-25T08:40:03Z</time>
      </trkpt>
      <trkpt lat="43.71446" lon="6.93203">
        <ele>1292</ele>
        <time>2016-09-25T08:40:04Z</time>
      </trkpt>
      <trkpt lat="43.71449" lon="6.93209">
        <ele>1292.3</ele>
        <time>2016-09-25T08:40:05Z</time>
      </trkpt>
      <trkpt lat="43.71451" lon="6.93215">
        <ele>1291.8</ele>
        <time>2016-09-25T08:40:06Z</time>
      </trkpt>
      <trkpt lat="43.71455" lon="6.93222">
        <ele>1291.2</ele>
        <time>2016-09-25T08:40:07Z</time>
      </trkpt>
      <trkpt lat="43.71459" lon="6.93231">
        <ele>1290.5</ele>
        <time>2016-09-25T08:40:08Z</time>
      </trkpt>
      <trkpt lat="43.71464" lon="6.93238">
        <ele>1290.1</ele>
        <time>2016-09-25T08:40:09Z</time>
      </trkpt>
      <trkpt lat="43.7147" lon="6.93245">
        <ele>1290</ele>
        <time>2016-09-25T08:40:10Z</time>
      </trkpt>
      <trkpt lat="43.71475" lon="6.93251">
        <ele>1289.9</ele>
        <time>2016-09-25T08:40:11Z</time>
      </trkpt>
      <trkpt lat="43.71478" lon="6.93256">
        <ele>1289.8</ele>
        <time>2016-09-25T08:40:12Z</time>
      </trkpt>
      <trkpt lat="43.71483" lon="6.93261">
        <ele>1290</ele>
        <time>2016-09-25T08:40:13Z</time>
      </trkpt>
      <trkpt lat="43.71488" lon="6.93265">
        <ele>1290.5</ele>
        <time>2016-09-25T08:40:14Z</time>
      </trkpt>
      <trkpt lat="43.71494" lon="6.93266">
        <ele>1291.5</ele>
        <time>2016-09-25T08:40:15Z</time>
      </trkpt>
      <trkpt lat="43.71497" lon="6.93265">
        <ele>1292.5</ele>
        <time>2016-09-25T08:40:16Z</time>
      </trkpt>
      <trkpt lat="43.71501" lon="6.93267">
        <ele>1293</ele>
        <time>2016-09-25T08:40:17Z</time>
      </trkpt>
      <trkpt lat="43.71506" lon="6.93269">
        <ele>1293.6</ele>
        <time>2016-09-25T08:40:18Z</time>
      </trkpt>
      <trkpt lat="43.7151" lon="6.93271">
        <ele>1294.3</ele>
        <time>2016-09-25T08:40:19Z</time>
      </trkpt>
      <trkpt lat="43.71514" lon="6.93274">
        <ele>1294.9</ele>
        <time>2016-09-25T08:40:20Z</time>
      </trkpt>
      <trkpt lat="43.71519" lon="6.93278">
        <ele>1295.3</ele>
        <time>2016-09-25T08:40:21Z</time>
      </trkpt>
      <trkpt lat="43.71523" lon="6.93282">
        <ele>1295.4</ele>
        <time>2016-09-25T08:40:22Z</time>
      </trkpt>
      <trkpt lat="43.71527" lon="6.93287">
        <ele>1295.3</ele>
        <time>2016-09-25T08:40:23Z</time>
      </trkpt>
      <trkpt lat="43.7153" lon="6.93295">
        <ele>1294.6</ele>
        <time>2016-09-25T08:40:24Z</time>
      </trkpt>
      <trkpt lat="43.71531" lon="6.93303">
        <ele>1293.3</ele>
        <time>2016-09-25T08:40:25Z</time>
      </trkpt>
      <trkpt lat="43.71535" lon="6.93308">
        <ele>1292.9</ele>
        <time>2016-09-25T08:40:26Z</time>
      </trkpt>
      <trkpt lat="43.71538" lon="6.93311">
        <ele>1293.2</ele>
        <time>2016-09-25T08:40:27Z</time>
      </trkpt>
      <trkpt lat="43.71542" lon="6.93311">
        <ele>1294.2</ele>
        <time>2016-09-25T08:40:28Z</time>
      </trkpt>
      <trkpt lat="43.71545" lon="6.93311">
        <ele>1294.4</ele>
        <time>2016-09-25T08:40:29Z</time>
      </trkpt>
      <trkpt lat="43.71549" lon="6.93314">
        <ele>1294.3</ele>
        <time>2016-09-25T08:40:35Z</time>
      </trkpt>
      <trkpt lat="43.71552" lon="6.93317">
        <ele>1293.9</ele>
        <time>2016-09-25T08:40:36Z</time>
      </trkpt>
      <trkpt lat="43.71555" lon="6.93321">
        <ele>1293.5</ele>
        <time>2016-09-25T08:40:37Z</time>
      </trkpt>
      <trkpt lat="43.71559" lon="6.93323">
        <ele>1293.5</ele>
        <time>2016-09-25T08:40:38Z</time>
      </trkpt>
      <trkpt lat="43.71565" lon="6.93327">
        <ele>1293.4</ele>
        <time>2016-09-25T08:40:39Z</time>
      </trkpt>
      <trkpt lat="43.7157" lon="6.9333">
        <ele>1293.1</ele>
        <time>2016-09-25T08:40:40Z</time>
      </trkpt>
      <trkpt lat="43.71574" lon="6.93335">
        <ele>1292.7</ele>
        <time>2016-09-25T08:40:41Z</time>
      </trkpt>
      <trkpt lat="43.71577" lon="6.93341">
        <ele>1291.9</ele>
        <time>2016-09-25T08:40:42Z</time>
      </trkpt>
      <trkpt lat="43.71582" lon="6.93347">
        <ele>1291.1</ele>
        <time>2016-09-25T08:40:43Z</time>
      </trkpt>
      <trkpt lat="43.71587" lon="6.93353">
        <ele>1290.3</ele>
        <time>2016-09-25T08:40:44Z</time>
      </trkpt>
      <trkpt lat="43.71591" lon="6.93359">
        <ele>1289.6</ele>
        <time>2016-09-25T08:40:45Z</time>
      </trkpt>
      <trkpt lat="43.71595" lon="6.93365">
        <ele>1288.8</ele>
        <time>2016-09-25T08:40:46Z</time>
      </trkpt>
      <trkpt lat="43.71599" lon="6.9337">
        <ele>1288.1</ele>
        <time>2016-09-25T08:40:47Z</time>
      </trkpt>
      <trkpt lat="43.71602" lon="6.93374">
        <ele>1287.7</ele>
        <time>2016-09-25T08:40:48Z</time>
      </trkpt>
      <trkpt lat="43.71606" lon="6.93375">
        <ele>1287.9</ele>
        <time>2016-09-25T08:40:49Z</time>
      </trkpt>
      <trkpt lat="43.7161" lon="6.93374">
        <ele>1288.5</ele>
        <time>2016-09-25T08:40:50Z</time>
      </trkpt>
      <trkpt lat="43.71613" lon="6.93375">
        <ele>1288.7</ele>
        <time>2016-09-25T08:40:51Z</time>
      </trkpt>
      <trkpt lat="43.71616" lon="6.93377">
        <ele>1288.8</ele>
        <time>2016-09-25T08:40:52Z</time>
      </trkpt>
      <trkpt lat="43.7162" lon="6.93379">
        <ele>1289.1</ele>
        <time>2016-09-25T08:40:53Z</time>
      </trkpt>
      <trkpt lat="43.71623" lon="6.9338">
        <ele>1289.2</ele>
        <time>2016-09-25T08:40:54Z</time>
      </trkpt>
      <trkpt lat="43.71626" lon="6.93382">
        <ele>1289.3</ele>
        <time>2016-09-25T08:40:55Z</time>
      </trkpt>
      <trkpt lat="43.7163" lon="6.93384">
        <ele>1289.2</ele>
        <time>2016-09-25T08:40:56Z</time>
      </trkpt>
      <trkpt lat="43.71634" lon="6.93384">
        <ele>1289.2</ele>
        <time>2016-09-25T08:40:57Z</time>
      </trkpt>
      <trkpt lat="43.71638" lon="6.93386">
        <ele>1289.1</ele>
        <time>2016-09-25T08:40:58Z</time>
      </trkpt>
      <trkpt lat="43.71642" lon="6.93388">
        <ele>1288.9</ele>
        <time>2016-09-25T08:40:59Z</time>
      </trkpt>
      <trkpt lat="43.71647" lon="6.93391">
        <ele>1288.7</ele>
        <time>2016-09-25T08:41:00Z</time>
      </trkpt>
      <trkpt lat="43.71653" lon="6.93398">
        <ele>1288.1</ele>
        <time>2016-09-25T08:41:01Z</time>
      </trkpt>
      <trkpt lat="43.71657" lon="6.93405">
        <ele>1287.5</ele>
        <time>2016-09-25T08:41:02Z</time>
      </trkpt>
      <trkpt lat="43.71659" lon="6.93412">
        <ele>1286.8</ele>
        <time>2016-09-25T08:41:03Z</time>
      </trkpt>
      <trkpt lat="43.71662" lon="6.93417">
        <ele>1286.4</ele>
        <time>2016-09-25T08:41:04Z</time>
      </trkpt>
      <trkpt lat="43.71668" lon="6.9342">
        <ele>1286.2</ele>
        <time>2016-09-25T08:41:05Z</time>
      </trkpt>
      <trkpt lat="43.71671" lon="6.93422">
        <ele>1286.1</ele>
        <time>2016-09-25T08:41:06Z</time>
      </trkpt>
      <trkpt lat="43.71674" lon="6.93422">
        <ele>1286.1</ele>
        <time>2016-09-25T08:41:07Z</time>
      </trkpt>
      <trkpt lat="43.71678" lon="6.9342">
        <ele>1286.3</ele>
        <time>2016-09-25T08:41:08Z</time>
      </trkpt>
      <trkpt lat="43.71682" lon="6.93418">
        <ele>1286.5</ele>
        <time>2016-09-25T08:41:09Z</time>
      </trkpt>
      <trkpt lat="43.71687" lon="6.93417">
        <ele>1286.7</ele>
        <time>2016-09-25T08:41:10Z</time>
      </trkpt>
      <trkpt lat="43.71692" lon="6.93414">
        <ele>1287.1</ele>
        <time>2016-09-25T08:41:11Z</time>
      </trkpt>
      <trkpt lat="43.71697" lon="6.93412">
        <ele>1287.3</ele>
        <time>2016-09-25T08:41:12Z</time>
      </trkpt>
      <trkpt lat="43.71702" lon="6.93412">
        <ele>1287.4</ele>
        <time>2016-09-25T08:41:13Z</time>
      </trkpt>
      <trkpt lat="43.7171" lon="6.93412">
        <ele>1287.3</ele>
        <time>2016-09-25T08:41:14Z</time>
      </trkpt>
      <trkpt lat="43.71717" lon="6.93413">
        <ele>1286.1</ele>
        <time>2016-09-25T08:41:15Z</time>
      </trkpt>
      <trkpt lat="43.71722" lon="6.93411">
        <ele>1285.4</ele>
        <time>2016-09-25T08:41:16Z</time>
      </trkpt>
      <trkpt lat="43.71722" lon="6.93405">
        <ele>1286</ele>
        <time>2016-09-25T08:41:17Z</time>
      </trkpt>
      <trkpt lat="43.71726" lon="6.93402">
        <ele>1285.6</ele>
        <time>2016-09-25T08:41:18Z</time>
      </trkpt>
      <trkpt lat="43.71731" lon="6.934">
        <ele>1284.9</ele>
        <time>2016-09-25T08:41:19Z</time>
      </trkpt>
      <trkpt lat="43.71736" lon="6.93397">
        <ele>1284.4</ele>
        <time>2016-09-25T08:41:20Z</time>
      </trkpt>
      <trkpt lat="43.71742" lon="6.93393">
        <ele>1283.9</ele>
        <time>2016-09-25T08:41:21Z</time>
      </trkpt>
      <trkpt lat="43.71746" lon="6.9339">
        <ele>1283.4</ele>
        <time>2016-09-25T08:41:22Z</time>
      </trkpt>
      <trkpt lat="43.7175" lon="6.9339">
        <ele>1282.7</ele>
        <time>2016-09-25T08:41:23Z</time>
      </trkpt>
      <trkpt lat="43.71755" lon="6.93389">
        <ele>1282</ele>
        <time>2016-09-25T08:41:24Z</time>
      </trkpt>
      <trkpt lat="43.71761" lon="6.93389">
        <ele>1281.1</ele>
        <time>2016-09-25T08:41:25Z</time>
      </trkpt>
      <trkpt lat="43.71766" lon="6.93394">
        <ele>1279.9</ele>
        <time>2016-09-25T08:41:26Z</time>
      </trkpt>
      <trkpt lat="43.7177" lon="6.93399">
        <ele>1278.7</ele>
        <time>2016-09-25T08:41:27Z</time>
      </trkpt>
      <trkpt lat="43.71774" lon="6.93404">
        <ele>1277.7</ele>
        <time>2016-09-25T08:41:28Z</time>
      </trkpt>
      <trkpt lat="43.71778" lon="6.9341">
        <ele>1276.7</ele>
        <time>2016-09-25T08:41:29Z</time>
      </trkpt>
      <trkpt lat="43.71779" lon="6.93416">
        <ele>1276.1</ele>
        <time>2016-09-25T08:41:30Z</time>
      </trkpt>
      <trkpt lat="43.71778" lon="6.93423">
        <ele>1275.7</ele>
        <time>2016-09-25T08:41:31Z</time>
      </trkpt>
      <trkpt lat="43.71777" lon="6.9343">
        <ele>1275.3</ele>
        <time>2016-09-25T08:41:32Z</time>
      </trkpt>
      <trkpt lat="43.71776" lon="6.93438">
        <ele>1274.9</ele>
        <time>2016-09-25T08:41:33Z</time>
      </trkpt>
      <trkpt lat="43.71774" lon="6.93445">
        <ele>1274.5</ele>
        <time>2016-09-25T08:41:34Z</time>
      </trkpt>
      <trkpt lat="43.71775" lon="6.93453">
        <ele>1273.9</ele>
        <time>2016-09-25T08:41:35Z</time>
      </trkpt>
      <trkpt lat="43.71775" lon="6.93461">
        <ele>1273.2</ele>
        <time>2016-09-25T08:41:36Z</time>
      </trkpt>
      <trkpt lat="43.71774" lon="6.93469">
        <ele>1272.8</ele>
        <time>2016-09-25T08:41:37Z</time>
      </trkpt>
      <trkpt lat="43.71772" lon="6.93476">
        <ele>1272.5</ele>
        <time>2016-09-25T08:41:38Z</time>
      </trkpt>
      <trkpt lat="43.71768" lon="6.93482">
        <ele>1272.5</ele>
        <time>2016-09-25T08:41:39Z</time>
      </trkpt>
      <trkpt lat="43.71762" lon="6.93486">
        <ele>1272.9</ele>
        <time>2016-09-25T08:41:40Z</time>
      </trkpt>
      <trkpt lat="43.71756" lon="6.93489">
        <ele>1273.3</ele>
        <time>2016-09-25T08:41:41Z</time>
      </trkpt>
      <trkpt lat="43.71751" lon="6.9349">
        <ele>1273.9</ele>
        <time>2016-09-25T08:41:42Z</time>
      </trkpt>
      <trkpt lat="43.71747" lon="6.93494">
        <ele>1274</ele>
        <time>2016-09-25T08:41:43Z</time>
      </trkpt>
      <trkpt lat="43.71741" lon="6.93497">
        <ele>1274.3</ele>
        <time>2016-09-25T08:41:44Z</time>
      </trkpt>
      <trkpt lat="43.71739" lon="6.93501">
        <ele>1274.1</ele>
        <time>2016-09-25T08:41:45Z</time>
      </trkpt>
      <trkpt lat="43.71738" lon="6.93506">
        <ele>1273.7</ele>
        <time>2016-09-25T08:41:46Z</time>
      </trkpt>
      <trkpt lat="43.71738" lon="6.93512">
        <ele>1273</ele>
        <time>2016-09-25T08:41:47Z</time>
      </trkpt>
      <trkpt lat="43.71737" lon="6.93516">
        <ele>1272.7</ele>
        <time>2016-09-25T08:41:48Z</time>
      </trkpt>
      <trkpt lat="43.71732" lon="6.93523">
        <ele>1272.4</ele>
        <time>2016-09-25T08:41:49Z</time>
      </trkpt>
      <trkpt lat="43.71728" lon="6.93531">
        <ele>1271.9</ele>
        <time>2016-09-25T08:41:50Z</time>
      </trkpt>
      <trkpt lat="43.71728" lon="6.93542">
        <ele>1270.5</ele>
        <time>2016-09-25T08:41:51Z</time>
      </trkpt>
      <trkpt lat="43.7173" lon="6.9355">
        <ele>1269.3</ele>
        <time>2016-09-25T08:41:52Z</time>
      </trkpt>
      <trkpt lat="43.71731" lon="6.93557">
        <ele>1268.3</ele>
        <time>2016-09-25T08:41:53Z</time>
      </trkpt>
      <trkpt lat="43.71731" lon="6.93564">
        <ele>1267.3</ele>
        <time>2016-09-25T08:41:54Z</time>
      </trkpt>
      <trkpt lat="43.7173" lon="6.93568">
        <ele>1266.7</ele>
        <time>2016-09-25T08:41:55Z</time>
      </trkpt>
      <trkpt lat="43.71731" lon="6.93574">
        <ele>1265.9</ele>
        <time>2016-09-25T08:41:56Z</time>
      </trkpt>
      <trkpt lat="43.71727" lon="6.93579">
        <ele>1265.5</ele>
        <time>2016-09-25T08:41:57Z</time>
      </trkpt>
      <trkpt lat="43.71724" lon="6.93583">
        <ele>1265.1</ele>
        <time>2016-09-25T08:41:58Z</time>
      </trkpt>
      <trkpt lat="43.71726" lon="6.9359">
        <ele>1264.1</ele>
        <time>2016-09-25T08:42:05Z</time>
      </trkpt>
      <trkpt lat="43.71727" lon="6.93593">
        <ele>1263.5</ele>
        <time>2016-09-25T08:42:06Z</time>
      </trkpt>
      <trkpt lat="43.71729" lon="6.93597">
        <ele>1262.9</ele>
        <time>2016-09-25T08:42:07Z</time>
      </trkpt>
      <trkpt lat="43.71742" lon="6.93606">
        <ele>1260.9</ele>
        <time>2016-09-25T08:42:09Z</time>
      </trkpt>
      <trkpt lat="43.71746" lon="6.93608">
        <ele>1260.4</ele>
        <time>2016-09-25T08:42:10Z</time>
      </trkpt>
      <trkpt lat="43.71751" lon="6.93606">
        <ele>1260.5</ele>
        <time>2016-09-25T08:42:11Z</time>
      </trkpt>
      <trkpt lat="43.71755" lon="6.93607">
        <ele>1260.1</ele>
        <time>2016-09-25T08:42:12Z</time>
      </trkpt>
      <trkpt lat="43.71758" lon="6.93608">
        <ele>1259.8</ele>
        <time>2016-09-25T08:42:13Z</time>
      </trkpt>
      <trkpt lat="43.71763" lon="6.93607">
        <ele>1259.7</ele>
        <time>2016-09-25T08:42:14Z</time>
      </trkpt>
      <trkpt lat="43.71769" lon="6.93606">
        <ele>1259.6</ele>
        <time>2016-09-25T08:42:15Z</time>
      </trkpt>
      <trkpt lat="43.71775" lon="6.93605">
        <ele>1259.3</ele>
        <time>2016-09-25T08:42:16Z</time>
      </trkpt>
      <trkpt lat="43.71781" lon="6.93604">
        <ele>1259.1</ele>
        <time>2016-09-25T08:42:17Z</time>
      </trkpt>
      <trkpt lat="43.71787" lon="6.93604">
        <ele>1258.7</ele>
        <time>2016-09-25T08:42:18Z</time>
      </trkpt>
      <trkpt lat="43.71794" lon="6.93606">
        <ele>1258.1</ele>
        <time>2016-09-25T08:42:19Z</time>
      </trkpt>
      <trkpt lat="43.71798" lon="6.9361">
        <ele>1257.5</ele>
        <time>2016-09-25T08:42:20Z</time>
      </trkpt>
      <trkpt lat="43.71802" lon="6.93614">
        <ele>1256.7</ele>
        <time>2016-09-25T08:42:21Z</time>
      </trkpt>
      <trkpt lat="43.71805" lon="6.9362">
        <ele>1255.8</ele>
        <time>2016-09-25T08:42:22Z</time>
      </trkpt>
      <trkpt lat="43.71807" lon="6.93627">
        <ele>1254.8</ele>
        <time>2016-09-25T08:42:23Z</time>
      </trkpt>
      <trkpt lat="43.71812" lon="6.93633">
        <ele>1253.4</ele>
        <time>2016-09-25T08:42:24Z</time>
      </trkpt>
      <trkpt lat="43.71817" lon="6.93637">
        <ele>1252.6</ele>
        <time>2016-09-25T08:42:25Z</time>
      </trkpt>
      <trkpt lat="43.71821" lon="6.93639">
        <ele>1252</ele>
        <time>2016-09-25T08:42:26Z</time>
      </trkpt>
      <trkpt lat="43.71827" lon="6.93641">
        <ele>1251.6</ele>
        <time>2016-09-25T08:42:27Z</time>
      </trkpt>
      <trkpt lat="43.71832" lon="6.93645">
        <ele>1250.9</ele>
        <time>2016-09-25T08:42:28Z</time>
      </trkpt>
      <trkpt lat="43.71835" lon="6.93652">
        <ele>1249.9</ele>
        <time>2016-09-25T08:42:29Z</time>
      </trkpt>
      <trkpt lat="43.71837" lon="6.93659">
        <ele>1249</ele>
        <time>2016-09-25T08:42:30Z</time>
      </trkpt>
      <trkpt lat="43.71838" lon="6.93665">
        <ele>1248.3</ele>
        <time>2016-09-25T08:42:31Z</time>
      </trkpt>
      <trkpt lat="43.71844" lon="6.93671">
        <ele>1247.6</ele>
        <time>2016-09-25T08:42:33Z</time>
      </trkpt>
      <trkpt lat="43.71848" lon="6.93675">
        <ele>1247.3</ele>
        <time>2016-09-25T08:42:34Z</time>
      </trkpt>
      <trkpt lat="43.71851" lon="6.93681">
        <ele>1246.8</ele>
        <time>2016-09-25T08:42:35Z</time>
      </trkpt>
      <trkpt lat="43.71852" lon="6.93686">
        <ele>1246.3</ele>
        <time>2016-09-25T08:42:36Z</time>
      </trkpt>
      <trkpt lat="43.71854" lon="6.93689">
        <ele>1246.1</ele>
        <time>2016-09-25T08:42:37Z</time>
      </trkpt>
      <trkpt lat="43.71856" lon="6.93693">
        <ele>1245.8</ele>
        <time>2016-09-25T08:42:38Z</time>
      </trkpt>
      <trkpt lat="43.71859" lon="6.93697">
        <ele>1245.7</ele>
        <time>2016-09-25T08:42:39Z</time>
      </trkpt>
      <trkpt lat="43.71862" lon="6.937">
        <ele>1245.6</ele>
        <time>2016-09-25T08:42:40Z</time>
      </trkpt>
      <trkpt lat="43.71866" lon="6.93702">
        <ele>1245.7</ele>
        <time>2016-09-25T08:42:41Z</time>
      </trkpt>
      <trkpt lat="43.7187" lon="6.93707">
        <ele>1245.6</ele>
        <time>2016-09-25T08:42:42Z</time>
      </trkpt>
      <trkpt lat="43.71873" lon="6.93712">
        <ele>1245.1</ele>
        <time>2016-09-25T08:42:43Z</time>
      </trkpt>
      <trkpt lat="43.71879" lon="6.93716">
        <ele>1244.5</ele>
        <time>2016-09-25T08:42:44Z</time>
      </trkpt>
      <trkpt lat="43.71885" lon="6.93721">
        <ele>1243.9</ele>
        <time>2016-09-25T08:42:45Z</time>
      </trkpt>
      <trkpt lat="43.7189" lon="6.93722">
        <ele>1244</ele>
        <time>2016-09-25T08:42:46Z</time>
      </trkpt>
      <trkpt lat="43.71894" lon="6.9372">
        <ele>1244.7</ele>
        <time>2016-09-25T08:42:47Z</time>
      </trkpt>
      <trkpt lat="43.71898" lon="6.93719">
        <ele>1245.3</ele>
        <time>2016-09-25T08:42:48Z</time>
      </trkpt>
      <trkpt lat="43.71904" lon="6.93718">
        <ele>1245.8</ele>
        <time>2016-09-25T08:42:49Z</time>
      </trkpt>
      <trkpt lat="43.71908" lon="6.93717">
        <ele>1246.3</ele>
        <time>2016-09-25T08:42:50Z</time>
      </trkpt>
      <trkpt lat="43.71912" lon="6.93716">
        <ele>1246.7</ele>
        <time>2016-09-25T08:42:51Z</time>
      </trkpt>
      <trkpt lat="43.71916" lon="6.93716">
        <ele>1247</ele>
        <time>2016-09-25T08:42:52Z</time>
      </trkpt>
      <trkpt lat="43.71919" lon="6.93717">
        <ele>1247.1</ele>
        <time>2016-09-25T08:42:53Z</time>
      </trkpt>
      <trkpt lat="43.71923" lon="6.93716">
        <ele>1247.5</ele>
        <time>2016-09-25T08:42:54Z</time>
      </trkpt>
      <trkpt lat="43.71927" lon="6.93718">
        <ele>1247.5</ele>
        <time>2016-09-25T08:42:55Z</time>
      </trkpt>
      <trkpt lat="43.71932" lon="6.93717">
        <ele>1247.9</ele>
        <time>2016-09-25T08:42:56Z</time>
      </trkpt>
      <trkpt lat="43.7194" lon="6.93722">
        <ele>1247.7</ele>
        <time>2016-09-25T08:42:57Z</time>
      </trkpt>
      <trkpt lat="43.71947" lon="6.93725">
        <ele>1247.7</ele>
        <time>2016-09-25T08:42:58Z</time>
      </trkpt>
      <trkpt lat="43.71954" lon="6.93732">
        <ele>1247.2</ele>
        <time>2016-09-25T08:42:59Z</time>
      </trkpt>
      <trkpt lat="43.71961" lon="6.93739">
        <ele>1246.4</ele>
        <time>2016-09-25T08:43:00Z</time>
      </trkpt>
      <trkpt lat="43.71967" lon="6.93748">
        <ele>1245</ele>
        <time>2016-09-25T08:43:01Z</time>
      </trkpt>
      <trkpt lat="43.71974" lon="6.93756">
        <ele>1243.6</ele>
        <time>2016-09-25T08:43:02Z</time>
      </trkpt>
      <trkpt lat="43.71983" lon="6.93764">
        <ele>1242.3</ele>
        <time>2016-09-25T08:43:03Z</time>
      </trkpt>
      <trkpt lat="43.71987" lon="6.93771">
        <ele>1241.3</ele>
        <time>2016-09-25T08:43:04Z</time>
      </trkpt>
      <trkpt lat="43.7199" lon="6.93779">
        <ele>1240.2</ele>
        <time>2016-09-25T08:43:05Z</time>
      </trkpt>
      <trkpt lat="43.71992" lon="6.93788">
        <ele>1239</ele>
        <time>2016-09-25T08:43:06Z</time>
      </trkpt>
      <trkpt lat="43.71994" lon="6.93797">
        <ele>1237.2</ele>
        <time>2016-09-25T08:43:07Z</time>
      </trkpt>
      <trkpt lat="43.71996" lon="6.93801">
        <ele>1236.2</ele>
        <time>2016-09-25T08:43:08Z</time>
      </trkpt>
      <trkpt lat="43.72" lon="6.93806">
        <ele>1235</ele>
        <time>2016-09-25T08:43:09Z</time>
      </trkpt>
      <trkpt lat="43.72004" lon="6.93808">
        <ele>1234.5</ele>
        <time>2016-09-25T08:43:10Z</time>
      </trkpt>
      <trkpt lat="43.72011" lon="6.93808">
        <ele>1234.6</ele>
        <time>2016-09-25T08:43:11Z</time>
      </trkpt>
      <trkpt lat="43.72018" lon="6.93804">
        <ele>1235.4</ele>
        <time>2016-09-25T08:43:12Z</time>
      </trkpt>
      <trkpt lat="43.72024" lon="6.93803">
        <ele>1235.7</ele>
        <time>2016-09-25T08:43:13Z</time>
      </trkpt>
      <trkpt lat="43.7203" lon="6.93803">
        <ele>1235.7</ele>
        <time>2016-09-25T08:43:14Z</time>
      </trkpt>
      <trkpt lat="43.72036" lon="6.93804">
        <ele>1235.7</ele>
        <time>2016-09-25T08:43:15Z</time>
      </trkpt>
      <trkpt lat="43.72043" lon="6.93802">
        <ele>1235.8</ele>
        <time>2016-09-25T08:43:16Z</time>
      </trkpt>
      <trkpt lat="43.72049" lon="6.938">
        <ele>1235.5</ele>
        <time>2016-09-25T08:43:17Z</time>
      </trkpt>
      <trkpt lat="43.72055" lon="6.93801">
        <ele>1234.4</ele>
        <time>2016-09-25T08:43:18Z</time>
      </trkpt>
      <trkpt lat="43.7206" lon="6.93806">
        <ele>1233</ele>
        <time>2016-09-25T08:43:19Z</time>
      </trkpt>
      <trkpt lat="43.72064" lon="6.93813">
        <ele>1231.3</ele>
        <time>2016-09-25T08:43:20Z</time>
      </trkpt>
      <trkpt lat="43.72066" lon="6.93823">
        <ele>1229.5</ele>
        <time>2016-09-25T08:43:21Z</time>
      </trkpt>
      <trkpt lat="43.72066" lon="6.93834">
        <ele>1227.8</ele>
        <time>2016-09-25T08:43:22Z</time>
      </trkpt>
      <trkpt lat="43.72065" lon="6.93847">
        <ele>1225.8</ele>
        <time>2016-09-25T08:43:23Z</time>
      </trkpt>
      <trkpt lat="43.72063" lon="6.9386">
        <ele>1223.8</ele>
        <time>2016-09-25T08:43:24Z</time>
      </trkpt>
      <trkpt lat="43.72064" lon="6.93871">
        <ele>1222</ele>
        <time>2016-09-25T08:43:25Z</time>
      </trkpt>
      <trkpt lat="43.72064" lon="6.93882">
        <ele>1219.5</ele>
        <time>2016-09-25T08:43:26Z</time>
      </trkpt>
      <trkpt lat="43.72071" lon="6.93889">
        <ele>1217.7</ele>
        <time>2016-09-25T08:43:27Z</time>
      </trkpt>
      <trkpt lat="43.72077" lon="6.93897">
        <ele>1215.8</ele>
        <time>2016-09-25T08:43:28Z</time>
      </trkpt>
      <trkpt lat="43.72083" lon="6.93907">
        <ele>1213.7</ele>
        <time>2016-09-25T08:43:29Z</time>
      </trkpt>
      <trkpt lat="43.72088" lon="6.93913">
        <ele>1212.5</ele>
        <time>2016-09-25T08:43:30Z</time>
      </trkpt>
      <trkpt lat="43.72094" lon="6.93916">
        <ele>1212.1</ele>
        <time>2016-09-25T08:43:31Z</time>
      </trkpt>
      <trkpt lat="43.72101" lon="6.93918">
        <ele>1212.1</ele>
        <time>2016-09-25T08:43:32Z</time>
      </trkpt>
      <trkpt lat="43.72107" lon="6.93921">
        <ele>1212</ele>
        <time>2016-09-25T08:43:33Z</time>
      </trkpt>
      <trkpt lat="43.72113" lon="6.93926">
        <ele>1211.5</ele>
        <time>2016-09-25T08:43:34Z</time>
      </trkpt>
      <trkpt lat="43.72118" lon="6.93933">
        <ele>1210.9</ele>
        <time>2016-09-25T08:43:35Z</time>
      </trkpt>
      <trkpt lat="43.72124" lon="6.9394">
        <ele>1210.3</ele>
        <time>2016-09-25T08:43:36Z</time>
      </trkpt>
      <trkpt lat="43.72131" lon="6.93948">
        <ele>1209</ele>
        <time>2016-09-25T08:43:37Z</time>
      </trkpt>
      <trkpt lat="43.72136" lon="6.93955">
        <ele>1207.9</ele>
        <time>2016-09-25T08:43:38Z</time>
      </trkpt>
      <trkpt lat="43.72142" lon="6.93963">
        <ele>1206.1</ele>
        <time>2016-09-25T08:43:39Z</time>
      </trkpt>
      <trkpt lat="43.72148" lon="6.93971">
        <ele>1203.9</ele>
        <time>2016-09-25T08:43:40Z</time>
      </trkpt>
      <trkpt lat="43.72152" lon="6.93982">
        <ele>1201.4</ele>
        <time>2016-09-25T08:43:41Z</time>
      </trkpt>
      <trkpt lat="43.72158" lon="6.9399">
        <ele>1199.5</ele>
        <time>2016-09-25T08:43:42Z</time>
      </trkpt>
      <trkpt lat="43.72162" lon="6.93993">
        <ele>1198.9</ele>
        <time>2016-09-25T08:43:43Z</time>
      </trkpt>
      <trkpt lat="43.72167" lon="6.93994">
        <ele>1198.8</ele>
        <time>2016-09-25T08:43:46Z</time>
      </trkpt>
      <trkpt lat="43.7217" lon="6.93992">
        <ele>1199.2</ele>
        <time>2016-09-25T08:43:47Z</time>
      </trkpt>
      <trkpt lat="43.72174" lon="6.93992">
        <ele>1199.1</ele>
        <time>2016-09-25T08:43:49Z</time>
      </trkpt>
      <trkpt lat="43.72179" lon="6.93994">
        <ele>1198.9</ele>
        <time>2016-09-25T08:43:51Z</time>
      </trkpt>
      <trkpt lat="43.72178" lon="6.93997">
        <ele>1198.3</ele>
        <time>2016-09-25T08:44:09Z</time>
      </trkpt>
      <trkpt lat="43.72178" lon="6.94004">
        <ele>1197</ele>
        <time>2016-09-25T08:45:57Z</time>
      </trkpt>
      <trkpt lat="43.72178" lon="6.94012">
        <ele>1195.7</ele>
        <time>2016-09-25T08:45:58Z</time>
      </trkpt>
      <trkpt lat="43.72179" lon="6.94021">
        <ele>1194</ele>
        <time>2016-09-25T08:45:59Z</time>
      </trkpt>
      <trkpt lat="43.72181" lon="6.9403">
        <ele>1192.5</ele>
        <time>2016-09-25T08:46:00Z</time>
      </trkpt>
      <trkpt lat="43.72181" lon="6.94042">
        <ele>1190.4</ele>
        <time>2016-09-25T08:46:01Z</time>
      </trkpt>
      <trkpt lat="43.72182" lon="6.94055">
        <ele>1188</ele>
        <time>2016-09-25T08:46:02Z</time>
      </trkpt>
      <trkpt lat="43.72184" lon="6.94067">
        <ele>1186.2</ele>
        <time>2016-09-25T08:46:03Z</time>
      </trkpt>
      <trkpt lat="43.72187" lon="6.94075">
        <ele>1185.2</ele>
        <time>2016-09-25T08:46:04Z</time>
      </trkpt>
      <trkpt lat="43.72189" lon="6.94082">
        <ele>1184.4</ele>
        <time>2016-09-25T08:46:05Z</time>
      </trkpt>
      <trkpt lat="43.72191" lon="6.94089">
        <ele>1183.8</ele>
        <time>2016-09-25T08:46:06Z</time>
      </trkpt>
      <trkpt lat="43.72194" lon="6.94094">
        <ele>1183.7</ele>
        <time>2016-09-25T08:46:07Z</time>
      </trkpt>
      <trkpt lat="43.72196" lon="6.94098">
        <ele>1183.8</ele>
        <time>2016-09-25T08:46:08Z</time>
      </trkpt>
      <trkpt lat="43.72199" lon="6.94102">
        <ele>1184</ele>
        <time>2016-09-25T08:46:09Z</time>
      </trkpt>
      <trkpt lat="43.72203" lon="6.94102">
        <ele>1184.9</ele>
        <time>2016-09-25T08:46:10Z</time>
      </trkpt>
      <trkpt lat="43.72206" lon="6.94104">
        <ele>1185.7</ele>
        <time>2016-09-25T08:46:11Z</time>
      </trkpt>
      <trkpt lat="43.7221" lon="6.94107">
        <ele>1186</ele>
        <time>2016-09-25T08:46:12Z</time>
      </trkpt>
      <trkpt lat="43.72214" lon="6.94112">
        <ele>1185.4</ele>
        <time>2016-09-25T08:46:13Z</time>
      </trkpt>
      <trkpt lat="43.72215" lon="6.94119">
        <ele>1184.7</ele>
        <time>2016-09-25T08:46:14Z</time>
      </trkpt>
      <trkpt lat="43.72214" lon="6.94125">
        <ele>1184</ele>
        <time>2016-09-25T08:46:15Z</time>
      </trkpt>
      <trkpt lat="43.72216" lon="6.94132">
        <ele>1182.8</ele>
        <time>2016-09-25T08:46:16Z</time>
      </trkpt>
      <trkpt lat="43.72217" lon="6.9414">
        <ele>1181.5</ele>
        <time>2016-09-25T08:46:17Z</time>
      </trkpt>
      <trkpt lat="43.72217" lon="6.94148">
        <ele>1180.2</ele>
        <time>2016-09-25T08:46:18Z</time>
      </trkpt>
      <trkpt lat="43.7222" lon="6.94157">
        <ele>1178.8</ele>
        <time>2016-09-25T08:46:19Z</time>
      </trkpt>
      <trkpt lat="43.72223" lon="6.94166">
        <ele>1177.5</ele>
        <time>2016-09-25T08:46:20Z</time>
      </trkpt>
      <trkpt lat="43.72225" lon="6.94176">
        <ele>1176.2</ele>
        <time>2016-09-25T08:46:21Z</time>
      </trkpt>
      <trkpt lat="43.7223" lon="6.94185">
        <ele>1175.3</ele>
        <time>2016-09-25T08:46:22Z</time>
      </trkpt>
      <trkpt lat="43.72232" lon="6.94193">
        <ele>1174.3</ele>
        <time>2016-09-25T08:46:23Z</time>
      </trkpt>
      <trkpt lat="43.72235" lon="6.94203">
        <ele>1173.3</ele>
        <time>2016-09-25T08:46:24Z</time>
      </trkpt>
      <trkpt lat="43.7224" lon="6.9421">
        <ele>1172.9</ele>
        <time>2016-09-25T08:46:25Z</time>
      </trkpt>
      <trkpt lat="43.72242" lon="6.94218">
        <ele>1171.4</ele>
        <time>2016-09-25T08:46:26Z</time>
      </trkpt>
      <trkpt lat="43.72242" lon="6.94227">
        <ele>1169.4</ele>
        <time>2016-09-25T08:46:27Z</time>
      </trkpt>
      <trkpt lat="43.72242" lon="6.94238">
        <ele>1167.3</ele>
        <time>2016-09-25T08:46:28Z</time>
      </trkpt>
      <trkpt lat="43.72244" lon="6.9425">
        <ele>1165.2</ele>
        <time>2016-09-25T08:46:29Z</time>
      </trkpt>
      <trkpt lat="43.72248" lon="6.94261">
        <ele>1163.9</ele>
        <time>2016-09-25T08:46:30Z</time>
      </trkpt>
      <trkpt lat="43.72252" lon="6.94271">
        <ele>1163.2</ele>
        <time>2016-09-25T08:46:31Z</time>
      </trkpt>
      <trkpt lat="43.72259" lon="6.94279">
        <ele>1163.4</ele>
        <time>2016-09-25T08:46:32Z</time>
      </trkpt>
      <trkpt lat="43.72266" lon="6.94285">
        <ele>1164.2</ele>
        <time>2016-09-25T08:46:33Z</time>
      </trkpt>
      <trkpt lat="43.72272" lon="6.9429">
        <ele>1165.2</ele>
        <time>2016-09-25T08:46:34Z</time>
      </trkpt>
      <trkpt lat="43.72276" lon="6.94295">
        <ele>1165.9</ele>
        <time>2016-09-25T08:46:35Z</time>
      </trkpt>
      <trkpt lat="43.72281" lon="6.94298">
        <ele>1166.6</ele>
        <time>2016-09-25T08:46:36Z</time>
      </trkpt>
      <trkpt lat="43.72285" lon="6.94302">
        <ele>1167.3</ele>
        <time>2016-09-25T08:46:37Z</time>
      </trkpt>
      <trkpt lat="43.72288" lon="6.94307">
        <ele>1167.5</ele>
        <time>2016-09-25T08:46:38Z</time>
      </trkpt>
      <trkpt lat="43.72291" lon="6.94312">
        <ele>1167.8</ele>
        <time>2016-09-25T08:46:39Z</time>
      </trkpt>
      <trkpt lat="43.72294" lon="6.94318">
        <ele>1167.6</ele>
        <time>2016-09-25T08:46:40Z</time>
      </trkpt>
      <trkpt lat="43.72297" lon="6.94322">
        <ele>1167.4</ele>
        <time>2016-09-25T08:46:41Z</time>
      </trkpt>
      <trkpt lat="43.723" lon="6.94327">
        <ele>1167</ele>
        <time>2016-09-25T08:46:42Z</time>
      </trkpt>
      <trkpt lat="43.72303" lon="6.94332">
        <ele>1166.9</ele>
        <time>2016-09-25T08:46:43Z</time>
      </trkpt>
      <trkpt lat="43.72306" lon="6.94337">
        <ele>1166.7</ele>
        <time>2016-09-25T08:46:44Z</time>
      </trkpt>
      <trkpt lat="43.72309" lon="6.94341">
        <ele>1166.7</ele>
        <time>2016-09-25T08:46:45Z</time>
      </trkpt>
      <trkpt lat="43.72313" lon="6.94344">
        <ele>1166.9</ele>
        <time>2016-09-25T08:46:46Z</time>
      </trkpt>
      <trkpt lat="43.72316" lon="6.94346">
        <ele>1167.2</ele>
        <time>2016-09-25T08:46:47Z</time>
      </trkpt>
      <trkpt lat="43.72319" lon="6.94347">
        <ele>1167.4</ele>
        <time>2016-09-25T08:46:48Z</time>
      </trkpt>
      <trkpt lat="43.72322" lon="6.94352">
        <ele>1167.5</ele>
        <time>2016-09-25T08:46:50Z</time>
      </trkpt>
      <trkpt lat="43.72326" lon="6.94355">
        <ele>1167.8</ele>
        <time>2016-09-25T08:46:51Z</time>
      </trkpt>
      <trkpt lat="43.72328" lon="6.94356">
        <ele>1168</ele>
        <time>2016-09-25T08:46:52Z</time>
      </trkpt>
      <trkpt lat="43.72331" lon="6.94359">
        <ele>1168.3</ele>
        <time>2016-09-25T08:46:53Z</time>
      </trkpt>
      <trkpt lat="43.72333" lon="6.94361">
        <ele>1168.4</ele>
        <time>2016-09-25T08:46:54Z</time>
      </trkpt>
      <trkpt lat="43.72336" lon="6.94363">
        <ele>1168.6</ele>
        <time>2016-09-25T08:46:55Z</time>
      </trkpt>
      <trkpt lat="43.72338" lon="6.94365">
        <ele>1168.9</ele>
        <time>2016-09-25T08:46:56Z</time>
      </trkpt>
      <trkpt lat="43.72341" lon="6.94367">
        <ele>1169.1</ele>
        <time>2016-09-25T08:46:57Z</time>
      </trkpt>
      <trkpt lat="43.72343" lon="6.94369">
        <ele>1169.4</ele>
        <time>2016-09-25T08:46:58Z</time>
      </trkpt>
      <trkpt lat="43.72348" lon="6.94372">
        <ele>1170</ele>
        <time>2016-09-25T08:47:00Z</time>
      </trkpt>
      <trkpt lat="43.72352" lon="6.94375">
        <ele>1170.6</ele>
        <time>2016-09-25T08:47:02Z</time>
      </trkpt>
      <trkpt lat="43.72356" lon="6.94381">
        <ele>1170.6</ele>
        <time>2016-09-25T08:47:04Z</time>
      </trkpt>
      <trkpt lat="43.72359" lon="6.94384">
        <ele>1170.5</ele>
        <time>2016-09-25T08:47:05Z</time>
      </trkpt>
      <trkpt lat="43.72362" lon="6.94387">
        <ele>1170.6</ele>
        <time>2016-09-25T08:47:06Z</time>
      </trkpt>
      <trkpt lat="43.72366" lon="6.9439">
        <ele>1171</ele>
        <time>2016-09-25T08:47:07Z</time>
      </trkpt>
      <trkpt lat="43.72369" lon="6.94392">
        <ele>1171.5</ele>
        <time>2016-09-25T08:47:08Z</time>
      </trkpt>
      <trkpt lat="43.72373" lon="6.94394">
        <ele>1171.9</ele>
        <time>2016-09-25T08:47:09Z</time>
      </trkpt>
      <trkpt lat="43.72379" lon="6.94398">
        <ele>1171.8</ele>
        <time>2016-09-25T08:47:10Z</time>
      </trkpt>
      <trkpt lat="43.72383" lon="6.94398">
        <ele>1171.8</ele>
        <time>2016-09-25T08:47:11Z</time>
      </trkpt>
      <trkpt lat="43.72387" lon="6.94398">
        <ele>1171.8</ele>
        <time>2016-09-25T08:47:12Z</time>
      </trkpt>
      <trkpt lat="43.72391" lon="6.94398">
        <ele>1171.8</ele>
        <time>2016-09-25T08:47:13Z</time>
      </trkpt>
      <trkpt lat="43.72395" lon="6.94398">
        <ele>1171.8</ele>
        <time>2016-09-25T08:47:14Z</time>
      </trkpt>
      <trkpt lat="43.72399" lon="6.94397">
        <ele>1172.1</ele>
        <time>2016-09-25T08:47:15Z</time>
      </trkpt>
      <trkpt lat="43.72402" lon="6.94395">
        <ele>1172.3</ele>
        <time>2016-09-25T08:47:16Z</time>
      </trkpt>
      <trkpt lat="43.72406" lon="6.94393">
        <ele>1172.6</ele>
        <time>2016-09-25T08:47:17Z</time>
      </trkpt>
      <trkpt lat="43.72409" lon="6.94392">
        <ele>1172.8</ele>
        <time>2016-09-25T08:47:18Z</time>
      </trkpt>
      <trkpt lat="43.72413" lon="6.9439">
        <ele>1173</ele>
        <time>2016-09-25T08:47:19Z</time>
      </trkpt>
      <trkpt lat="43.72417" lon="6.94389">
        <ele>1173.3</ele>
        <time>2016-09-25T08:47:20Z</time>
      </trkpt>
      <trkpt lat="43.72421" lon="6.94388">
        <ele>1173.4</ele>
        <time>2016-09-25T08:47:21Z</time>
      </trkpt>
      <trkpt lat="43.72425" lon="6.94387">
        <ele>1173.5</ele>
        <time>2016-09-25T08:47:22Z</time>
      </trkpt>
      <trkpt lat="43.72429" lon="6.94387">
        <ele>1173.6</ele>
        <time>2016-09-25T08:47:23Z</time>
      </trkpt>
      <trkpt lat="43.72433" lon="6.94388">
        <ele>1173.5</ele>
        <time>2016-09-25T08:47:24Z</time>
      </trkpt>
      <trkpt lat="43.72439" lon="6.94393">
        <ele>1172.9</ele>
        <time>2016-09-25T08:47:25Z</time>
      </trkpt>
      <trkpt lat="43.72444" lon="6.94397">
        <ele>1172.5</ele>
        <time>2016-09-25T08:47:26Z</time>
      </trkpt>
      <trkpt lat="43.7245" lon="6.944">
        <ele>1172.2</ele>
        <time>2016-09-25T08:47:27Z</time>
      </trkpt>
      <trkpt lat="43.72454" lon="6.94399">
        <ele>1172.3</ele>
        <time>2016-09-25T08:47:28Z</time>
      </trkpt>
      <trkpt lat="43.72458" lon="6.94396">
        <ele>1172.7</ele>
        <time>2016-09-25T08:47:29Z</time>
      </trkpt>
      <trkpt lat="43.72462" lon="6.94393">
        <ele>1172.6</ele>
        <time>2016-09-25T08:47:30Z</time>
      </trkpt>
      <trkpt lat="43.72466" lon="6.94389">
        <ele>1172.4</ele>
        <time>2016-09-25T08:47:31Z</time>
      </trkpt>
      <trkpt lat="43.72471" lon="6.94385">
        <ele>1172.1</ele>
        <time>2016-09-25T08:47:32Z</time>
      </trkpt>
      <trkpt lat="43.72474" lon="6.94381">
        <ele>1171.9</ele>
        <time>2016-09-25T08:47:33Z</time>
      </trkpt>
      <trkpt lat="43.72478" lon="6.94377">
        <ele>1171.7</ele>
        <time>2016-09-25T08:47:34Z</time>
      </trkpt>
      <trkpt lat="43.72482" lon="6.94373">
        <ele>1171.3</ele>
        <time>2016-09-25T08:47:35Z</time>
      </trkpt>
      <trkpt lat="43.72486" lon="6.94368">
        <ele>1170.9</ele>
        <time>2016-09-25T08:47:36Z</time>
      </trkpt>
      <trkpt lat="43.72491" lon="6.94364">
        <ele>1170.3</ele>
        <time>2016-09-25T08:47:37Z</time>
      </trkpt>
      <trkpt lat="43.72496" lon="6.94362">
        <ele>1169.5</ele>
        <time>2016-09-25T08:47:38Z</time>
      </trkpt>
      <trkpt lat="43.72502" lon="6.94361">
        <ele>1168.6</ele>
        <time>2016-09-25T08:47:39Z</time>
      </trkpt>
      <trkpt lat="43.72507" lon="6.94358">
        <ele>1168</ele>
        <time>2016-09-25T08:47:40Z</time>
      </trkpt>
      <trkpt lat="43.72506" lon="6.94353">
        <ele>1168.2</ele>
        <time>2016-09-25T08:47:41Z</time>
      </trkpt>
      <trkpt lat="43.72508" lon="6.9435">
        <ele>1168</ele>
        <time>2016-09-25T08:47:42Z</time>
      </trkpt>
      <trkpt lat="43.7251" lon="6.94345">
        <ele>1167.8</ele>
        <time>2016-09-25T08:47:43Z</time>
      </trkpt>
      <trkpt lat="43.72513" lon="6.94342">
        <ele>1167.6</ele>
        <time>2016-09-25T08:47:44Z</time>
      </trkpt>
      <trkpt lat="43.72516" lon="6.94339">
        <ele>1167.3</ele>
        <time>2016-09-25T08:47:45Z</time>
      </trkpt>
      <trkpt lat="43.72517" lon="6.94335">
        <ele>1167.1</ele>
        <time>2016-09-25T08:47:46Z</time>
      </trkpt>
      <trkpt lat="43.72521" lon="6.94331">
        <ele>1166.7</ele>
        <time>2016-09-25T08:47:47Z</time>
      </trkpt>
      <trkpt lat="43.72524" lon="6.94326">
        <ele>1166.3</ele>
        <time>2016-09-25T08:47:48Z</time>
      </trkpt>
      <trkpt lat="43.72529" lon="6.94322">
        <ele>1165.9</ele>
        <time>2016-09-25T08:47:49Z</time>
      </trkpt>
      <trkpt lat="43.72533" lon="6.94319">
        <ele>1165.3</ele>
        <time>2016-09-25T08:47:50Z</time>
      </trkpt>
      <trkpt lat="43.72539" lon="6.94317">
        <ele>1164.5</ele>
        <time>2016-09-25T08:47:51Z</time>
      </trkpt>
      <trkpt lat="43.72545" lon="6.94316">
        <ele>1163.7</ele>
        <time>2016-09-25T08:47:52Z</time>
      </trkpt>
      <trkpt lat="43.7255" lon="6.94314">
        <ele>1163.1</ele>
        <time>2016-09-25T08:47:53Z</time>
      </trkpt>
      <trkpt lat="43.72555" lon="6.94311">
        <ele>1162.5</ele>
        <time>2016-09-25T08:47:54Z</time>
      </trkpt>
      <trkpt lat="43.72561" lon="6.94307">
        <ele>1161.8</ele>
        <time>2016-09-25T08:47:55Z</time>
      </trkpt>
      <trkpt lat="43.72565" lon="6.94305">
        <ele>1161.3</ele>
        <time>2016-09-25T08:47:56Z</time>
      </trkpt>
      <trkpt lat="43.72569" lon="6.94304">
        <ele>1160.8</ele>
        <time>2016-09-25T08:47:57Z</time>
      </trkpt>
      <trkpt lat="43.72572" lon="6.94309">
        <ele>1160.2</ele>
        <time>2016-09-25T08:47:58Z</time>
      </trkpt>
      <trkpt lat="43.72573" lon="6.94316">
        <ele>1159.9</ele>
        <time>2016-09-25T08:47:59Z</time>
      </trkpt>
      <trkpt lat="43.72573" lon="6.9432">
        <ele>1159.8</ele>
        <time>2016-09-25T08:48:01Z</time>
      </trkpt>
      <trkpt lat="43.72576" lon="6.94334">
        <ele>1159.2</ele>
        <time>2016-09-25T08:48:03Z</time>
      </trkpt>
      <trkpt lat="43.72577" lon="6.94339">
        <ele>1158.9</ele>
        <time>2016-09-25T08:48:04Z</time>
      </trkpt>
      <trkpt lat="43.72579" lon="6.94349">
        <ele>1158.5</ele>
        <time>2016-09-25T08:48:05Z</time>
      </trkpt>
      <trkpt lat="43.7258" lon="6.94358">
        <ele>1158.2</ele>
        <time>2016-09-25T08:48:06Z</time>
      </trkpt>
      <trkpt lat="43.72579" lon="6.94366">
        <ele>1158.2</ele>
        <time>2016-09-25T08:48:07Z</time>
      </trkpt>
      <trkpt lat="43.72576" lon="6.94374">
        <ele>1158.4</ele>
        <time>2016-09-25T08:48:08Z</time>
      </trkpt>
      <trkpt lat="43.72574" lon="6.94381">
        <ele>1158.1</ele>
        <time>2016-09-25T08:48:09Z</time>
      </trkpt>
      <trkpt lat="43.72572" lon="6.94386">
        <ele>1157.9</ele>
        <time>2016-09-25T08:48:10Z</time>
      </trkpt>
      <trkpt lat="43.7257" lon="6.94392">
        <ele>1157.6</ele>
        <time>2016-09-25T08:48:11Z</time>
      </trkpt>
      <trkpt lat="43.72577" lon="6.94394">
        <ele>1156.7</ele>
        <time>2016-09-25T08:48:12Z</time>
      </trkpt>
      <trkpt lat="43.7258" lon="6.94393">
        <ele>1156.5</ele>
        <time>2016-09-25T08:48:13Z</time>
      </trkpt>
      <trkpt lat="43.72583" lon="6.94392">
        <ele>1156.3</ele>
        <time>2016-09-25T08:48:14Z</time>
      </trkpt>
      <trkpt lat="43.72591" lon="6.94389">
        <ele>1155.6</ele>
        <time>2016-09-25T08:48:15Z</time>
      </trkpt>
      <trkpt lat="43.72594" lon="6.94386">
        <ele>1155.4</ele>
        <time>2016-09-25T08:48:16Z</time>
      </trkpt>
      <trkpt lat="43.72597" lon="6.94383">
        <ele>1155.4</ele>
        <time>2016-09-25T08:48:17Z</time>
      </trkpt>
      <trkpt lat="43.726" lon="6.94378">
        <ele>1155.5</ele>
        <time>2016-09-25T08:48:18Z</time>
      </trkpt>
      <trkpt lat="43.72602" lon="6.94374">
        <ele>1155.5</ele>
        <time>2016-09-25T08:48:19Z</time>
      </trkpt>
      <trkpt lat="43.72608" lon="6.94368">
        <ele>1154.9</ele>
        <time>2016-09-25T08:48:21Z</time>
      </trkpt>
      <trkpt lat="43.72612" lon="6.94366">
        <ele>1154.4</ele>
        <time>2016-09-25T08:48:22Z</time>
      </trkpt>
      <trkpt lat="43.72615" lon="6.94366">
        <ele>1154.1</ele>
        <time>2016-09-25T08:48:24Z</time>
      </trkpt>
      <trkpt lat="43.72617" lon="6.9437">
        <ele>1153.8</ele>
        <time>2016-09-25T08:48:25Z</time>
      </trkpt>
      <trkpt lat="43.72622" lon="6.94369">
        <ele>1153.3</ele>
        <time>2016-09-25T08:48:26Z</time>
      </trkpt>
      <trkpt lat="43.72626" lon="6.94367">
        <ele>1152.7</ele>
        <time>2016-09-25T08:48:27Z</time>
      </trkpt>
      <trkpt lat="43.7263" lon="6.94364">
        <ele>1152</ele>
        <time>2016-09-25T08:48:28Z</time>
      </trkpt>
      <trkpt lat="43.72636" lon="6.94358">
        <ele>1150.7</ele>
        <time>2016-09-25T08:48:29Z</time>
      </trkpt>
      <trkpt lat="43.72639" lon="6.94353">
        <ele>1150.1</ele>
        <time>2016-09-25T08:48:30Z</time>
      </trkpt>
      <trkpt lat="43.72641" lon="6.94348">
        <ele>1149.7</ele>
        <time>2016-09-25T08:48:31Z</time>
      </trkpt>
      <trkpt lat="43.72643" lon="6.94351">
        <ele>1149.2</ele>
        <time>2016-09-25T08:48:32Z</time>
      </trkpt>
      <trkpt lat="43.72648" lon="6.94354">
        <ele>1148.1</ele>
        <time>2016-09-25T08:48:33Z</time>
      </trkpt>
      <trkpt lat="43.72648" lon="6.94358">
        <ele>1148.1</ele>
        <time>2016-09-25T08:48:34Z</time>
      </trkpt>
      <trkpt lat="43.7265" lon="6.94364">
        <ele>1147.5</ele>
        <time>2016-09-25T08:48:35Z</time>
      </trkpt>
      <trkpt lat="43.72652" lon="6.94369">
        <ele>1147</ele>
        <time>2016-09-25T08:48:36Z</time>
      </trkpt>
      <trkpt lat="43.7265" lon="6.94376">
        <ele>1147.2</ele>
        <time>2016-09-25T08:48:38Z</time>
      </trkpt>
      <trkpt lat="43.72649" lon="6.94386">
        <ele>1146.4</ele>
        <time>2016-09-25T08:48:40Z</time>
      </trkpt>
      <trkpt lat="43.72649" lon="6.94392">
        <ele>1145.9</ele>
        <time>2016-09-25T08:48:41Z</time>
      </trkpt>
      <trkpt lat="43.72655" lon="6.94403">
        <ele>1143.3</ele>
        <time>2016-09-25T08:48:42Z</time>
      </trkpt>
      <trkpt lat="43.72658" lon="6.94408">
        <ele>1142</ele>
        <time>2016-09-25T08:48:43Z</time>
      </trkpt>
      <trkpt lat="43.72663" lon="6.94406">
        <ele>1141.1</ele>
        <time>2016-09-25T08:48:44Z</time>
      </trkpt>
      <trkpt lat="43.72668" lon="6.94412">
        <ele>1139.3</ele>
        <time>2016-09-25T08:48:45Z</time>
      </trkpt>
      <trkpt lat="43.72674" lon="6.9442">
        <ele>1136.9</ele>
        <time>2016-09-25T08:48:46Z</time>
      </trkpt>
      <trkpt lat="43.7268" lon="6.94427">
        <ele>1134.4</ele>
        <time>2016-09-25T08:48:47Z</time>
      </trkpt>
      <trkpt lat="43.72686" lon="6.94435">
        <ele>1132</ele>
        <time>2016-09-25T08:48:48Z</time>
      </trkpt>
      <trkpt lat="43.72689" lon="6.9444">
        <ele>1130.5</ele>
        <time>2016-09-25T08:48:49Z</time>
      </trkpt>
      <trkpt lat="43.72691" lon="6.94448">
        <ele>1129</ele>
        <time>2016-09-25T08:48:50Z</time>
      </trkpt>
      <trkpt lat="43.72691" lon="6.94455">
        <ele>1128.3</ele>
        <time>2016-09-25T08:48:51Z</time>
      </trkpt>
      <trkpt lat="43.72689" lon="6.94459">
        <ele>1128.2</ele>
        <time>2016-09-25T08:48:52Z</time>
      </trkpt>
      <trkpt lat="43.72688" lon="6.94464">
        <ele>1128.2</ele>
        <time>2016-09-25T08:48:53Z</time>
      </trkpt>
      <trkpt lat="43.72686" lon="6.94467">
        <ele>1128.3</ele>
        <time>2016-09-25T08:48:54Z</time>
      </trkpt>
      <trkpt lat="43.72684" lon="6.94473">
        <ele>1128.3</ele>
        <time>2016-09-25T08:48:55Z</time>
      </trkpt>
      <trkpt lat="43.72682" lon="6.94477">
        <ele>1128.5</ele>
        <time>2016-09-25T08:48:56Z</time>
      </trkpt>
      <trkpt lat="43.7268" lon="6.94481">
        <ele>1128.6</ele>
        <time>2016-09-25T08:48:57Z</time>
      </trkpt>
      <trkpt lat="43.72679" lon="6.94485">
        <ele>1128.6</ele>
        <time>2016-09-25T08:48:58Z</time>
      </trkpt>
      <trkpt lat="43.72679" lon="6.94491">
        <ele>1128</ele>
        <time>2016-09-25T08:48:59Z</time>
      </trkpt>
      <trkpt lat="43.72678" lon="6.94498">
        <ele>1127.5</ele>
        <time>2016-09-25T08:49:00Z</time>
      </trkpt>
      <trkpt lat="43.72678" lon="6.94505">
        <ele>1126.8</ele>
        <time>2016-09-25T08:49:01Z</time>
      </trkpt>
      <trkpt lat="43.72678" lon="6.94512">
        <ele>1126.1</ele>
        <time>2016-09-25T08:49:02Z</time>
      </trkpt>
      <trkpt lat="43.7268" lon="6.94519">
        <ele>1124.9</ele>
        <time>2016-09-25T08:49:03Z</time>
      </trkpt>
      <trkpt lat="43.72684" lon="6.94527">
        <ele>1123.3</ele>
        <time>2016-09-25T08:49:04Z</time>
      </trkpt>
      <trkpt lat="43.7269" lon="6.94532">
        <ele>1121.6</ele>
        <time>2016-09-25T08:49:05Z</time>
      </trkpt>
      <trkpt lat="43.72695" lon="6.94538">
        <ele>1120.1</ele>
        <time>2016-09-25T08:49:06Z</time>
      </trkpt>
      <trkpt lat="43.72697" lon="6.94547">
        <ele>1119</ele>
        <time>2016-09-25T08:49:07Z</time>
      </trkpt>
      <trkpt lat="43.727" lon="6.94557">
        <ele>1118</ele>
        <time>2016-09-25T08:49:08Z</time>
      </trkpt>
      <trkpt lat="43.72702" lon="6.94566">
        <ele>1117.3</ele>
        <time>2016-09-25T08:49:09Z</time>
      </trkpt>
      <trkpt lat="43.72703" lon="6.94574">
        <ele>1116.7</ele>
        <time>2016-09-25T08:49:10Z</time>
      </trkpt>
      <trkpt lat="43.72708" lon="6.94582">
        <ele>1115.6</ele>
        <time>2016-09-25T08:49:11Z</time>
      </trkpt>
      <trkpt lat="43.72711" lon="6.94591">
        <ele>1115</ele>
        <time>2016-09-25T08:49:12Z</time>
      </trkpt>
      <trkpt lat="43.72711" lon="6.946">
        <ele>1114.6</ele>
        <time>2016-09-25T08:49:13Z</time>
      </trkpt>
      <trkpt lat="43.72709" lon="6.94608">
        <ele>1114.5</ele>
        <time>2016-09-25T08:49:14Z</time>
      </trkpt>
      <trkpt lat="43.72706" lon="6.94614">
        <ele>1114.7</ele>
        <time>2016-09-25T08:49:15Z</time>
      </trkpt>
      <trkpt lat="43.72705" lon="6.94623">
        <ele>1114.4</ele>
        <time>2016-09-25T08:49:16Z</time>
      </trkpt>
      <trkpt lat="43.72704" lon="6.94632">
        <ele>1113.7</ele>
        <time>2016-09-25T08:49:17Z</time>
      </trkpt>
      <trkpt lat="43.72704" lon="6.94641">
        <ele>1112.8</ele>
        <time>2016-09-25T08:49:18Z</time>
      </trkpt>
      <trkpt lat="43.72706" lon="6.94652">
        <ele>1111.7</ele>
        <time>2016-09-25T08:49:19Z</time>
      </trkpt>
      <trkpt lat="43.72707" lon="6.94661">
        <ele>1110.7</ele>
        <time>2016-09-25T08:49:20Z</time>
      </trkpt>
      <trkpt lat="43.72706" lon="6.94671">
        <ele>1109.7</ele>
        <time>2016-09-25T08:49:21Z</time>
      </trkpt>
      <trkpt lat="43.72706" lon="6.9468">
        <ele>1108.9</ele>
        <time>2016-09-25T08:49:22Z</time>
      </trkpt>
      <trkpt lat="43.72705" lon="6.94689">
        <ele>1108</ele>
        <time>2016-09-25T08:49:23Z</time>
      </trkpt>
      <trkpt lat="43.72705" lon="6.94698">
        <ele>1107.2</ele>
        <time>2016-09-25T08:49:24Z</time>
      </trkpt>
      <trkpt lat="43.72707" lon="6.94707">
        <ele>1106.2</ele>
        <time>2016-09-25T08:49:25Z</time>
      </trkpt>
      <trkpt lat="43.72706" lon="6.94717">
        <ele>1105</ele>
        <time>2016-09-25T08:49:26Z</time>
      </trkpt>
      <trkpt lat="43.72705" lon="6.94725">
        <ele>1103.9</ele>
        <time>2016-09-25T08:49:27Z</time>
      </trkpt>
      <trkpt lat="43.72703" lon="6.94733">
        <ele>1102.9</ele>
        <time>2016-09-25T08:49:28Z</time>
      </trkpt>
      <trkpt lat="43.727" lon="6.9474">
        <ele>1102.2</ele>
        <time>2016-09-25T08:49:29Z</time>
      </trkpt>
      <trkpt lat="43.72695" lon="6.94744">
        <ele>1101.7</ele>
        <time>2016-09-25T08:49:30Z</time>
      </trkpt>
      <trkpt lat="43.72691" lon="6.94747">
        <ele>1101.4</ele>
        <time>2016-09-25T08:49:31Z</time>
      </trkpt>
      <trkpt lat="43.72684" lon="6.94749">
        <ele>1101.3</ele>
        <time>2016-09-25T08:49:32Z</time>
      </trkpt>
      <trkpt lat="43.72677" lon="6.9475">
        <ele>1101.4</ele>
        <time>2016-09-25T08:49:33Z</time>
      </trkpt>
      <trkpt lat="43.72671" lon="6.9475">
        <ele>1101.7</ele>
        <time>2016-09-25T08:49:34Z</time>
      </trkpt>
      <trkpt lat="43.72664" lon="6.94749">
        <ele>1102</ele>
        <time>2016-09-25T08:49:35Z</time>
      </trkpt>
      <trkpt lat="43.72659" lon="6.94748">
        <ele>1102.3</ele>
        <time>2016-09-25T08:49:36Z</time>
      </trkpt>
      <trkpt lat="43.72653" lon="6.94748">
        <ele>1102.5</ele>
        <time>2016-09-25T08:49:37Z</time>
      </trkpt>
      <trkpt lat="43.72647" lon="6.94748">
        <ele>1102.6</ele>
        <time>2016-09-25T08:49:38Z</time>
      </trkpt>
      <trkpt lat="43.7264" lon="6.94748">
        <ele>1102.8</ele>
        <time>2016-09-25T08:49:39Z</time>
      </trkpt>
      <trkpt lat="43.72634" lon="6.94748">
        <ele>1103</ele>
        <time>2016-09-25T08:49:40Z</time>
      </trkpt>
      <trkpt lat="43.72627" lon="6.94749">
        <ele>1103.1</ele>
        <time>2016-09-25T08:49:41Z</time>
      </trkpt>
      <trkpt lat="43.72621" lon="6.94748">
        <ele>1102.9</ele>
        <time>2016-09-25T08:49:42Z</time>
      </trkpt>
      <trkpt lat="43.72615" lon="6.94745">
        <ele>1102.7</ele>
        <time>2016-09-25T08:49:43Z</time>
      </trkpt>
      <trkpt lat="43.72611" lon="6.94744">
        <ele>1102.6</ele>
        <time>2016-09-25T08:49:44Z</time>
      </trkpt>
      <trkpt lat="43.72608" lon="6.94744">
        <ele>1102.3</ele>
        <time>2016-09-25T08:49:45Z</time>
      </trkpt>
      <trkpt lat="43.72604" lon="6.94746">
        <ele>1101.5</ele>
        <time>2016-09-25T08:49:46Z</time>
      </trkpt>
      <trkpt lat="43.72601" lon="6.9475">
        <ele>1100.3</ele>
        <time>2016-09-25T08:49:47Z</time>
      </trkpt>
      <trkpt lat="43.72597" lon="6.94754">
        <ele>1098.9</ele>
        <time>2016-09-25T08:49:48Z</time>
      </trkpt>
      <trkpt lat="43.72593" lon="6.94759">
        <ele>1097.3</ele>
        <time>2016-09-25T08:49:49Z</time>
      </trkpt>
      <trkpt lat="43.72589" lon="6.94764">
        <ele>1095.6</ele>
        <time>2016-09-25T08:49:50Z</time>
      </trkpt>
      <trkpt lat="43.72586" lon="6.94771">
        <ele>1093.6</ele>
        <time>2016-09-25T08:49:51Z</time>
      </trkpt>
      <trkpt lat="43.72584" lon="6.94779">
        <ele>1091.2</ele>
        <time>2016-09-25T08:49:52Z</time>
      </trkpt>
      <trkpt lat="43.72583" lon="6.94787">
        <ele>1089.1</ele>
        <time>2016-09-25T08:49:53Z</time>
      </trkpt>
      <trkpt lat="43.72583" lon="6.94795">
        <ele>1087.3</ele>
        <time>2016-09-25T08:49:54Z</time>
      </trkpt>
      <trkpt lat="43.72582" lon="6.94803">
        <ele>1086.1</ele>
        <time>2016-09-25T08:49:55Z</time>
      </trkpt>
      <trkpt lat="43.72582" lon="6.94812">
        <ele>1084.7</ele>
        <time>2016-09-25T08:49:56Z</time>
      </trkpt>
      <trkpt lat="43.72581" lon="6.94822">
        <ele>1083.2</ele>
        <time>2016-09-25T08:49:57Z</time>
      </trkpt>
      <trkpt lat="43.7258" lon="6.94832">
        <ele>1081.5</ele>
        <time>2016-09-25T08:49:58Z</time>
      </trkpt>
      <trkpt lat="43.72578" lon="6.9484">
        <ele>1079.7</ele>
        <time>2016-09-25T08:49:59Z</time>
      </trkpt>
      <trkpt lat="43.72575" lon="6.94846">
        <ele>1078</ele>
        <time>2016-09-25T08:50:00Z</time>
      </trkpt>
      <trkpt lat="43.72568" lon="6.94848">
        <ele>1076</ele>
        <time>2016-09-25T08:50:01Z</time>
      </trkpt>
      <trkpt lat="43.72564" lon="6.94852">
        <ele>1074.2</ele>
        <time>2016-09-25T08:50:02Z</time>
      </trkpt>
      <trkpt lat="43.72561" lon="6.94853">
        <ele>1073.2</ele>
        <time>2016-09-25T08:50:03Z</time>
      </trkpt>
      <trkpt lat="43.72557" lon="6.94853">
        <ele>1072.4</ele>
        <time>2016-09-25T08:50:04Z</time>
      </trkpt>
      <trkpt lat="43.72555" lon="6.94849">
        <ele>1072.5</ele>
        <time>2016-09-25T08:50:05Z</time>
      </trkpt>
      <trkpt lat="43.72555" lon="6.94843">
        <ele>1073.3</ele>
        <time>2016-09-25T08:50:06Z</time>
      </trkpt>
      <trkpt lat="43.72554" lon="6.94837">
        <ele>1074.2</ele>
        <time>2016-09-25T08:50:07Z</time>
      </trkpt>
      <trkpt lat="43.72555" lon="6.9483">
        <ele>1075.8</ele>
        <time>2016-09-25T08:50:08Z</time>
      </trkpt>
      <trkpt lat="43.72556" lon="6.94823">
        <ele>1077.3</ele>
        <time>2016-09-25T08:50:09Z</time>
      </trkpt>
      <trkpt lat="43.72555" lon="6.94817">
        <ele>1078.1</ele>
        <time>2016-09-25T08:50:10Z</time>
      </trkpt>
      <trkpt lat="43.72551" lon="6.9481">
        <ele>1078.4</ele>
        <time>2016-09-25T08:50:11Z</time>
      </trkpt>
      <trkpt lat="43.72546" lon="6.94806">
        <ele>1078.2</ele>
        <time>2016-09-25T08:50:12Z</time>
      </trkpt>
      <trkpt lat="43.72541" lon="6.948">
        <ele>1078.1</ele>
        <time>2016-09-25T08:50:13Z</time>
      </trkpt>
      <trkpt lat="43.72535" lon="6.94796">
        <ele>1077.5</ele>
        <time>2016-09-25T08:50:14Z</time>
      </trkpt>
      <trkpt lat="43.72531" lon="6.94793">
        <ele>1077.1</ele>
        <time>2016-09-25T08:50:15Z</time>
      </trkpt>
      <trkpt lat="43.72527" lon="6.94789">
        <ele>1077.4</ele>
        <time>2016-09-25T08:50:16Z</time>
      </trkpt>
      <trkpt lat="43.72526" lon="6.94785">
        <ele>1078.5</ele>
        <time>2016-09-25T08:50:18Z</time>
      </trkpt>
      <trkpt lat="43.72524" lon="6.94791">
        <ele>1076</ele>
        <time>2016-09-25T08:50:20Z</time>
      </trkpt>
      <trkpt lat="43.72524" lon="6.94795">
        <ele>1075</ele>
        <time>2016-09-25T08:50:21Z</time>
      </trkpt>
      <trkpt lat="43.72523" lon="6.94801">
        <ele>1073.5</ele>
        <time>2016-09-25T08:50:22Z</time>
      </trkpt>
      <trkpt lat="43.72524" lon="6.94807">
        <ele>1072.3</ele>
        <time>2016-09-25T08:50:23Z</time>
      </trkpt>
      <trkpt lat="43.72523" lon="6.94816">
        <ele>1070.4</ele>
        <time>2016-09-25T08:50:24Z</time>
      </trkpt>
      <trkpt lat="43.72521" lon="6.94824">
        <ele>1067.8</ele>
        <time>2016-09-25T08:50:25Z</time>
      </trkpt>
      <trkpt lat="43.72519" lon="6.94833">
        <ele>1065.5</ele>
        <time>2016-09-25T08:50:26Z</time>
      </trkpt>
      <trkpt lat="43.72518" lon="6.9484">
        <ele>1063.4</ele>
        <time>2016-09-25T08:50:27Z</time>
      </trkpt>
      <trkpt lat="43.72514" lon="6.94841">
        <ele>1062</ele>
        <time>2016-09-25T08:50:29Z</time>
      </trkpt>
      <trkpt lat="43.72512" lon="6.94838">
        <ele>1062.3</ele>
        <time>2016-09-25T08:50:30Z</time>
      </trkpt>
      <trkpt lat="43.7251" lon="6.94831">
        <ele>1063.2</ele>
        <time>2016-09-25T08:50:31Z</time>
      </trkpt>
      <trkpt lat="43.72508" lon="6.94825">
        <ele>1064.2</ele>
        <time>2016-09-25T08:50:32Z</time>
      </trkpt>
      <trkpt lat="43.72505" lon="6.94818">
        <ele>1064.9</ele>
        <time>2016-09-25T08:50:33Z</time>
      </trkpt>
      <trkpt lat="43.725" lon="6.94811">
        <ele>1065.2</ele>
        <time>2016-09-25T08:50:34Z</time>
      </trkpt>
      <trkpt lat="43.72495" lon="6.94805">
        <ele>1065.5</ele>
        <time>2016-09-25T08:50:35Z</time>
      </trkpt>
      <trkpt lat="43.7249" lon="6.94798">
        <ele>1065.9</ele>
        <time>2016-09-25T08:50:36Z</time>
      </trkpt>
      <trkpt lat="43.72484" lon="6.9479">
        <ele>1066.5</ele>
        <time>2016-09-25T08:50:37Z</time>
      </trkpt>
      <trkpt lat="43.72478" lon="6.94784">
        <ele>1067.3</ele>
        <time>2016-09-25T08:50:38Z</time>
      </trkpt>
      <trkpt lat="43.72474" lon="6.94782">
        <ele>1067.3</ele>
        <time>2016-09-25T08:50:39Z</time>
      </trkpt>
      <trkpt lat="43.72472" lon="6.94781">
        <ele>1066.8</ele>
        <time>2016-09-25T08:50:41Z</time>
      </trkpt>
      <trkpt lat="43.72467" lon="6.94779">
        <ele>1066.2</ele>
        <time>2016-09-25T08:50:43Z</time>
      </trkpt>
      <trkpt lat="43.72464" lon="6.94777">
        <ele>1066.5</ele>
        <time>2016-09-25T08:50:44Z</time>
      </trkpt>
      <trkpt lat="43.72461" lon="6.94774">
        <ele>1066.7</ele>
        <time>2016-09-25T08:50:45Z</time>
      </trkpt>
      <trkpt lat="43.72457" lon="6.94774">
        <ele>1066.1</ele>
        <time>2016-09-25T08:50:46Z</time>
      </trkpt>
      <trkpt lat="43.72453" lon="6.94774">
        <ele>1065.2</ele>
        <time>2016-09-25T08:50:47Z</time>
      </trkpt>
      <trkpt lat="43.72447" lon="6.94775">
        <ele>1064</ele>
        <time>2016-09-25T08:50:48Z</time>
      </trkpt>
      <trkpt lat="43.7244" lon="6.94774">
        <ele>1063.3</ele>
        <time>2016-09-25T08:50:49Z</time>
      </trkpt>
      <trkpt lat="43.72433" lon="6.94774">
        <ele>1062.3</ele>
        <time>2016-09-25T08:50:50Z</time>
      </trkpt>
      <trkpt lat="43.72427" lon="6.94773">
        <ele>1061.4</ele>
        <time>2016-09-25T08:50:51Z</time>
      </trkpt>
      <trkpt lat="43.7242" lon="6.94772">
        <ele>1060.8</ele>
        <time>2016-09-25T08:50:52Z</time>
      </trkpt>
      <trkpt lat="43.72412" lon="6.9477">
        <ele>1060.3</ele>
        <time>2016-09-25T08:50:53Z</time>
      </trkpt>
      <trkpt lat="43.72406" lon="6.94768">
        <ele>1060.2</ele>
        <time>2016-09-25T08:50:54Z</time>
      </trkpt>
      <trkpt lat="43.72401" lon="6.94766">
        <ele>1060</ele>
        <time>2016-09-25T08:50:55Z</time>
      </trkpt>
      <trkpt lat="43.72394" lon="6.94764">
        <ele>1059.6</ele>
        <time>2016-09-25T08:50:56Z</time>
      </trkpt>
      <trkpt lat="43.72388" lon="6.94764">
        <ele>1058.7</ele>
        <time>2016-09-25T08:50:57Z</time>
      </trkpt>
      <trkpt lat="43.72382" lon="6.94767">
        <ele>1056.9</ele>
        <time>2016-09-25T08:50:58Z</time>
      </trkpt>
      <trkpt lat="43.72376" lon="6.94769">
        <ele>1055.3</ele>
        <time>2016-09-25T08:50:59Z</time>
      </trkpt>
      <trkpt lat="43.7237" lon="6.94769">
        <ele>1053.6</ele>
        <time>2016-09-25T08:51:00Z</time>
      </trkpt>
      <trkpt lat="43.72364" lon="6.94767">
        <ele>1053.1</ele>
        <time>2016-09-25T08:51:01Z</time>
      </trkpt>
      <trkpt lat="43.72359" lon="6.94766">
        <ele>1052.5</ele>
        <time>2016-09-25T08:51:02Z</time>
      </trkpt>
      <trkpt lat="43.72352" lon="6.94765">
        <ele>1051.2</ele>
        <time>2016-09-25T08:51:03Z</time>
      </trkpt>
      <trkpt lat="43.72344" lon="6.94766">
        <ele>1048.8</ele>
        <time>2016-09-25T08:51:04Z</time>
      </trkpt>
      <trkpt lat="43.72337" lon="6.94768">
        <ele>1046.6</ele>
        <time>2016-09-25T08:51:05Z</time>
      </trkpt>
      <trkpt lat="43.72328" lon="6.94769">
        <ele>1044.1</ele>
        <time>2016-09-25T08:51:06Z</time>
      </trkpt>
      <trkpt lat="43.72318" lon="6.9477">
        <ele>1041.6</ele>
        <time>2016-09-25T08:51:07Z</time>
      </trkpt>
      <trkpt lat="43.72308" lon="6.94768">
        <ele>1039.9</ele>
        <time>2016-09-25T08:51:08Z</time>
      </trkpt>
      <trkpt lat="43.72297" lon="6.94763">
        <ele>1038.8</ele>
        <time>2016-09-25T08:51:09Z</time>
      </trkpt>
      <trkpt lat="43.72288" lon="6.94754">
        <ele>1039.4</ele>
        <time>2016-09-25T08:51:10Z</time>
      </trkpt>
      <trkpt lat="43.72279" lon="6.94743">
        <ele>1039.8</ele>
        <time>2016-09-25T08:51:11Z</time>
      </trkpt>
      <trkpt lat="43.7227" lon="6.94734">
        <ele>1039.7</ele>
        <time>2016-09-25T08:51:12Z</time>
      </trkpt>
      <trkpt lat="43.7226" lon="6.94726">
        <ele>1038.7</ele>
        <time>2016-09-25T08:51:13Z</time>
      </trkpt>
      <trkpt lat="43.72252" lon="6.94718">
        <ele>1037.8</ele>
        <time>2016-09-25T08:51:14Z</time>
      </trkpt>
      <trkpt lat="43.72244" lon="6.94708">
        <ele>1037.5</ele>
        <time>2016-09-25T08:51:15Z</time>
      </trkpt>
      <trkpt lat="43.72236" lon="6.947">
        <ele>1036.8</ele>
        <time>2016-09-25T08:51:16Z</time>
      </trkpt>
      <trkpt lat="43.72227" lon="6.94692">
        <ele>1035.6</ele>
        <time>2016-09-25T08:51:17Z</time>
      </trkpt>
      <trkpt lat="43.72219" lon="6.94685">
        <ele>1034.5</ele>
        <time>2016-09-25T08:51:18Z</time>
      </trkpt>
      <trkpt lat="43.72212" lon="6.94678">
        <ele>1033.4</ele>
        <time>2016-09-25T08:51:19Z</time>
      </trkpt>
      <trkpt lat="43.72204" lon="6.9467">
        <ele>1033.1</ele>
        <time>2016-09-25T08:51:20Z</time>
      </trkpt>
      <trkpt lat="43.72197" lon="6.94663">
        <ele>1033.4</ele>
        <time>2016-09-25T08:51:21Z</time>
      </trkpt>
      <trkpt lat="43.7219" lon="6.94655">
        <ele>1033.8</ele>
        <time>2016-09-25T08:51:22Z</time>
      </trkpt>
      <trkpt lat="43.72183" lon="6.94647">
        <ele>1034.2</ele>
        <time>2016-09-25T08:51:23Z</time>
      </trkpt>
      <trkpt lat="43.72177" lon="6.94638">
        <ele>1034.9</ele>
        <time>2016-09-25T08:51:24Z</time>
      </trkpt>
      <trkpt lat="43.7217" lon="6.9463">
        <ele>1035.2</ele>
        <time>2016-09-25T08:51:25Z</time>
      </trkpt>
      <trkpt lat="43.72164" lon="6.9462">
        <ele>1036.2</ele>
        <time>2016-09-25T08:51:26Z</time>
      </trkpt>
      <trkpt lat="43.72158" lon="6.94612">
        <ele>1036.8</ele>
        <time>2016-09-25T08:51:27Z</time>
      </trkpt>
      <trkpt lat="43.72151" lon="6.94608">
        <ele>1036.2</ele>
        <time>2016-09-25T08:51:28Z</time>
      </trkpt>
      <trkpt lat="43.72145" lon="6.94606">
        <ele>1035.2</ele>
        <time>2016-09-25T08:51:29Z</time>
      </trkpt>
      <trkpt lat="43.72138" lon="6.94604">
        <ele>1034.1</ele>
        <time>2016-09-25T08:51:30Z</time>
      </trkpt>
      <trkpt lat="43.72132" lon="6.94605">
        <ele>1032.4</ele>
        <time>2016-09-25T08:51:31Z</time>
      </trkpt>
      <trkpt lat="43.72125" lon="6.94605">
        <ele>1030.8</ele>
        <time>2016-09-25T08:51:32Z</time>
      </trkpt>
      <trkpt lat="43.72119" lon="6.94603">
        <ele>1030.8</ele>
        <time>2016-09-25T08:51:33Z</time>
      </trkpt>
      <trkpt lat="43.72113" lon="6.946">
        <ele>1031.1</ele>
        <time>2016-09-25T08:51:34Z</time>
      </trkpt>
      <trkpt lat="43.72107" lon="6.94596">
        <ele>1031.3</ele>
        <time>2016-09-25T08:51:35Z</time>
      </trkpt>
      <trkpt lat="43.721" lon="6.94592">
        <ele>1031.6</ele>
        <time>2016-09-25T08:51:36Z</time>
      </trkpt>
      <trkpt lat="43.72096" lon="6.9459">
        <ele>1031.7</ele>
        <time>2016-09-25T08:51:37Z</time>
      </trkpt>
      <trkpt lat="43.72091" lon="6.94587">
        <ele>1031.8</ele>
        <time>2016-09-25T08:51:38Z</time>
      </trkpt>
      <trkpt lat="43.72086" lon="6.94587">
        <ele>1031.4</ele>
        <time>2016-09-25T08:51:39Z</time>
      </trkpt>
      <trkpt lat="43.72082" lon="6.94587">
        <ele>1031.1</ele>
        <time>2016-09-25T08:51:40Z</time>
      </trkpt>
      <trkpt lat="43.72076" lon="6.94586">
        <ele>1030.8</ele>
        <time>2016-09-25T08:51:41Z</time>
      </trkpt>
      <trkpt lat="43.72072" lon="6.94584">
        <ele>1030.8</ele>
        <time>2016-09-25T08:51:42Z</time>
      </trkpt>
      <trkpt lat="43.72068" lon="6.94582">
        <ele>1030.7</ele>
        <time>2016-09-25T08:51:43Z</time>
      </trkpt>
      <trkpt lat="43.72064" lon="6.9458">
        <ele>1030.7</ele>
        <time>2016-09-25T08:51:44Z</time>
      </trkpt>
      <trkpt lat="43.72059" lon="6.94577">
        <ele>1030.7</ele>
        <time>2016-09-25T08:51:45Z</time>
      </trkpt>
      <trkpt lat="43.72055" lon="6.94575">
        <ele>1030.5</ele>
        <time>2016-09-25T08:51:46Z</time>
      </trkpt>
      <trkpt lat="43.72051" lon="6.94575">
        <ele>1030.2</ele>
        <time>2016-09-25T08:51:47Z</time>
      </trkpt>
      <trkpt lat="43.72046" lon="6.94574">
        <ele>1029.9</ele>
        <time>2016-09-25T08:51:48Z</time>
      </trkpt>
      <trkpt lat="43.72043" lon="6.94572">
        <ele>1029.9</ele>
        <time>2016-09-25T08:51:49Z</time>
      </trkpt>
      <trkpt lat="43.7204" lon="6.9457">
        <ele>1029.6</ele>
        <time>2016-09-25T08:51:50Z</time>
      </trkpt>
      <trkpt lat="43.72035" lon="6.94571">
        <ele>1028.6</ele>
        <time>2016-09-25T08:51:52Z</time>
      </trkpt>
      <trkpt lat="43.72032" lon="6.94573">
        <ele>1027.8</ele>
        <time>2016-09-25T08:51:53Z</time>
      </trkpt>
      <trkpt lat="43.72028" lon="6.94575">
        <ele>1026.8</ele>
        <time>2016-09-25T08:51:54Z</time>
      </trkpt>
      <trkpt lat="43.72023" lon="6.94575">
        <ele>1026</ele>
        <time>2016-09-25T08:51:55Z</time>
      </trkpt>
      <trkpt lat="43.72018" lon="6.94576">
        <ele>1024.8</ele>
        <time>2016-09-25T08:51:56Z</time>
      </trkpt>
      <trkpt lat="43.72013" lon="6.94578">
        <ele>1023.8</ele>
        <time>2016-09-25T08:51:57Z</time>
      </trkpt>
      <trkpt lat="43.72009" lon="6.9458">
        <ele>1022.8</ele>
        <time>2016-09-25T08:51:58Z</time>
      </trkpt>
      <trkpt lat="43.72006" lon="6.94582">
        <ele>1021.9</ele>
        <time>2016-09-25T08:51:59Z</time>
      </trkpt>
      <trkpt lat="43.72001" lon="6.94587">
        <ele>1020.6</ele>
        <time>2016-09-25T08:52:00Z</time>
      </trkpt>
      <trkpt lat="43.71997" lon="6.94593">
        <ele>1019.1</ele>
        <time>2016-09-25T08:52:01Z</time>
      </trkpt>
      <trkpt lat="43.71991" lon="6.94597">
        <ele>1017.7</ele>
        <time>2016-09-25T08:52:02Z</time>
      </trkpt>
      <trkpt lat="43.71987" lon="6.94599">
        <ele>1016.8</ele>
        <time>2016-09-25T08:52:03Z</time>
      </trkpt>
      <trkpt lat="43.71983" lon="6.94596">
        <ele>1016.3</ele>
        <time>2016-09-25T08:52:04Z</time>
      </trkpt>
      <trkpt lat="43.71981" lon="6.94591">
        <ele>1016.4</ele>
        <time>2016-09-25T08:52:05Z</time>
      </trkpt>
      <trkpt lat="43.71978" lon="6.94588">
        <ele>1016.2</ele>
        <time>2016-09-25T08:52:06Z</time>
      </trkpt>
      <trkpt lat="43.71974" lon="6.94585">
        <ele>1015.8</ele>
        <time>2016-09-25T08:52:07Z</time>
      </trkpt>
      <trkpt lat="43.71971" lon="6.94581">
        <ele>1015.5</ele>
        <time>2016-09-25T08:52:08Z</time>
      </trkpt>
      <trkpt lat="43.71967" lon="6.94576">
        <ele>1015.3</ele>
        <time>2016-09-25T08:52:09Z</time>
      </trkpt>
      <trkpt lat="43.71963" lon="6.94572">
        <ele>1014.9</ele>
        <time>2016-09-25T08:52:10Z</time>
      </trkpt>
      <trkpt lat="43.71957" lon="6.94567">
        <ele>1014.4</ele>
        <time>2016-09-25T08:52:11Z</time>
      </trkpt>
      <trkpt lat="43.71952" lon="6.94565">
        <ele>1014.2</ele>
        <time>2016-09-25T08:52:12Z</time>
      </trkpt>
      <trkpt lat="43.71946" lon="6.94561">
        <ele>1014</ele>
        <time>2016-09-25T08:52:13Z</time>
      </trkpt>
      <trkpt lat="43.71941" lon="6.94557">
        <ele>1013.9</ele>
        <time>2016-09-25T08:52:14Z</time>
      </trkpt>
      <trkpt lat="43.71935" lon="6.94555">
        <ele>1013.6</ele>
        <time>2016-09-25T08:52:15Z</time>
      </trkpt>
      <trkpt lat="43.7193" lon="6.94552">
        <ele>1013.3</ele>
        <time>2016-09-25T08:52:16Z</time>
      </trkpt>
      <trkpt lat="43.71925" lon="6.9455">
        <ele>1013.1</ele>
        <time>2016-09-25T08:52:17Z</time>
      </trkpt>
      <trkpt lat="43.7192" lon="6.94549">
        <ele>1012.7</ele>
        <time>2016-09-25T08:52:18Z</time>
      </trkpt>
      <trkpt lat="43.71915" lon="6.94552">
        <ele>1012</ele>
        <time>2016-09-25T08:52:19Z</time>
      </trkpt>
      <trkpt lat="43.71911" lon="6.94556">
        <ele>1011.1</ele>
        <time>2016-09-25T08:52:20Z</time>
      </trkpt>
      <trkpt lat="43.71907" lon="6.94563">
        <ele>1010.2</ele>
        <time>2016-09-25T08:52:21Z</time>
      </trkpt>
      <trkpt lat="43.71903" lon="6.9457">
        <ele>1009.2</ele>
        <time>2016-09-25T08:52:22Z</time>
      </trkpt>
      <trkpt lat="43.71899" lon="6.94577">
        <ele>1008.2</ele>
        <time>2016-09-25T08:52:23Z</time>
      </trkpt>
      <trkpt lat="43.71894" lon="6.94584">
        <ele>1007.1</ele>
        <time>2016-09-25T08:52:24Z</time>
      </trkpt>
      <trkpt lat="43.71888" lon="6.94592">
        <ele>1006</ele>
        <time>2016-09-25T08:52:25Z</time>
      </trkpt>
      <trkpt lat="43.71881" lon="6.94595">
        <ele>1005.1</ele>
        <time>2016-09-25T08:52:26Z</time>
      </trkpt>
      <trkpt lat="43.71874" lon="6.94597">
        <ele>1004.3</ele>
        <time>2016-09-25T08:52:27Z</time>
      </trkpt>
      <trkpt lat="43.71867" lon="6.94603">
        <ele>1003.4</ele>
        <time>2016-09-25T08:52:28Z</time>
      </trkpt>
      <trkpt lat="43.71861" lon="6.94608">
        <ele>1002.6</ele>
        <time>2016-09-25T08:52:29Z</time>
      </trkpt>
      <trkpt lat="43.71856" lon="6.94611">
        <ele>1002.1</ele>
        <time>2016-09-25T08:52:30Z</time>
      </trkpt>
      <trkpt lat="43.71848" lon="6.94616">
        <ele>1001.4</ele>
        <time>2016-09-25T08:52:31Z</time>
      </trkpt>
      <trkpt lat="43.71842" lon="6.9462">
        <ele>1000.7</ele>
        <time>2016-09-25T08:52:32Z</time>
      </trkpt>
      <trkpt lat="43.71838" lon="6.94625">
        <ele>1000.2</ele>
        <time>2016-09-25T08:52:33Z</time>
      </trkpt>
      <trkpt lat="43.71837" lon="6.94629">
        <ele>999.9</ele>
        <time>2016-09-25T08:52:34Z</time>
      </trkpt>
      <trkpt lat="43.71837" lon="6.94635">
        <ele>999.6</ele>
        <time>2016-09-25T08:52:35Z</time>
      </trkpt>
      <trkpt lat="43.71837" lon="6.94642">
        <ele>999.2</ele>
        <time>2016-09-25T08:52:36Z</time>
      </trkpt>
      <trkpt lat="43.71838" lon="6.94646">
        <ele>998.9</ele>
        <time>2016-09-25T08:52:37Z</time>
      </trkpt>
      <trkpt lat="43.71838" lon="6.94651">
        <ele>998.7</ele>
        <time>2016-09-25T08:52:38Z</time>
      </trkpt>
      <trkpt lat="43.71834" lon="6.94654">
        <ele>998.3</ele>
        <time>2016-09-25T08:52:50Z</time>
      </trkpt>
      <trkpt lat="43.71831" lon="6.94654">
        <ele>998.2</ele>
        <time>2016-09-25T08:52:51Z</time>
      </trkpt>
      <trkpt lat="43.71827" lon="6.94655">
        <ele>997.9</ele>
        <time>2016-09-25T08:52:52Z</time>
      </trkpt>
      <trkpt lat="43.71822" lon="6.9466">
        <ele>997.4</ele>
        <time>2016-09-25T08:52:53Z</time>
      </trkpt>
      <trkpt lat="43.71816" lon="6.94665">
        <ele>996.8</ele>
        <time>2016-09-25T08:52:54Z</time>
      </trkpt>
      <trkpt lat="43.7181" lon="6.94671">
        <ele>996.1</ele>
        <time>2016-09-25T08:52:55Z</time>
      </trkpt>
      <trkpt lat="43.71804" lon="6.94675">
        <ele>995.5</ele>
        <time>2016-09-25T08:52:56Z</time>
      </trkpt>
      <trkpt lat="43.71798" lon="6.94677">
        <ele>995.2</ele>
        <time>2016-09-25T08:52:57Z</time>
      </trkpt>
      <trkpt lat="43.71789" lon="6.9468">
        <ele>994.8</ele>
        <time>2016-09-25T08:52:58Z</time>
      </trkpt>
      <trkpt lat="43.71782" lon="6.94681">
        <ele>995.1</ele>
        <time>2016-09-25T08:52:59Z</time>
      </trkpt>
      <trkpt lat="43.71775" lon="6.94685">
        <ele>995.2</ele>
        <time>2016-09-25T08:53:00Z</time>
      </trkpt>
      <trkpt lat="43.71767" lon="6.9469">
        <ele>995.3</ele>
        <time>2016-09-25T08:53:01Z</time>
      </trkpt>
      <trkpt lat="43.71759" lon="6.94696">
        <ele>995.4</ele>
        <time>2016-09-25T08:53:02Z</time>
      </trkpt>
      <trkpt lat="43.7175" lon="6.94701">
        <ele>995.4</ele>
        <time>2016-09-25T08:53:03Z</time>
      </trkpt>
      <trkpt lat="43.71744" lon="6.9471">
        <ele>995.2</ele>
        <time>2016-09-25T08:53:04Z</time>
      </trkpt>
      <trkpt lat="43.71738" lon="6.94717">
        <ele>995</ele>
        <time>2016-09-25T08:53:05Z</time>
      </trkpt>
      <trkpt lat="43.71731" lon="6.94723">
        <ele>995</ele>
        <time>2016-09-25T08:53:06Z</time>
      </trkpt>
      <trkpt lat="43.71727" lon="6.94726">
        <ele>995</ele>
        <time>2016-09-25T08:53:07Z</time>
      </trkpt>
      <trkpt lat="43.71725" lon="6.94731">
        <ele>994.8</ele>
        <time>2016-09-25T08:53:08Z</time>
      </trkpt>
      <trkpt lat="43.71724" lon="6.94737">
        <ele>994.6</ele>
        <time>2016-09-25T08:53:09Z</time>
      </trkpt>
      <trkpt lat="43.71724" lon="6.94744">
        <ele>994.2</ele>
        <time>2016-09-25T08:53:10Z</time>
      </trkpt>
      <trkpt lat="43.71725" lon="6.94751">
        <ele>993.7</ele>
        <time>2016-09-25T08:53:11Z</time>
      </trkpt>
      <trkpt lat="43.71726" lon="6.9476">
        <ele>993.1</ele>
        <time>2016-09-25T08:53:12Z</time>
      </trkpt>
      <trkpt lat="43.71726" lon="6.94767">
        <ele>992.6</ele>
        <time>2016-09-25T08:53:13Z</time>
      </trkpt>
      <trkpt lat="43.71728" lon="6.94773">
        <ele>992.1</ele>
        <time>2016-09-25T08:53:14Z</time>
      </trkpt>
      <trkpt lat="43.71729" lon="6.9478">
        <ele>991.6</ele>
        <time>2016-09-25T08:53:15Z</time>
      </trkpt>
      <trkpt lat="43.71729" lon="6.94786">
        <ele>991.2</ele>
        <time>2016-09-25T08:53:16Z</time>
      </trkpt>
      <trkpt lat="43.71731" lon="6.94793">
        <ele>990.4</ele>
        <time>2016-09-25T08:53:17Z</time>
      </trkpt>
      <trkpt lat="43.7173" lon="6.94799">
        <ele>990</ele>
        <time>2016-09-25T08:53:18Z</time>
      </trkpt>
      <trkpt lat="43.71728" lon="6.94805">
        <ele>989.7</ele>
        <time>2016-09-25T08:53:19Z</time>
      </trkpt>
      <trkpt lat="43.71725" lon="6.94811">
        <ele>989.4</ele>
        <time>2016-09-25T08:53:20Z</time>
      </trkpt>
      <trkpt lat="43.71722" lon="6.94817">
        <ele>989.2</ele>
        <time>2016-09-25T08:53:21Z</time>
      </trkpt>
      <trkpt lat="43.71721" lon="6.94823">
        <ele>988.7</ele>
        <time>2016-09-25T08:53:22Z</time>
      </trkpt>
      <trkpt lat="43.71719" lon="6.9483">
        <ele>988.2</ele>
        <time>2016-09-25T08:53:23Z</time>
      </trkpt>
      <trkpt lat="43.71718" lon="6.94836">
        <ele>987.8</ele>
        <time>2016-09-25T08:53:24Z</time>
      </trkpt>
      <trkpt lat="43.71717" lon="6.94843">
        <ele>987.3</ele>
        <time>2016-09-25T08:53:25Z</time>
      </trkpt>
      <trkpt lat="43.71714" lon="6.94849">
        <ele>987</ele>
        <time>2016-09-25T08:53:26Z</time>
      </trkpt>
      <trkpt lat="43.71711" lon="6.94854">
        <ele>986.8</ele>
        <time>2016-09-25T08:53:27Z</time>
      </trkpt>
      <trkpt lat="43.71708" lon="6.94859">
        <ele>986.6</ele>
        <time>2016-09-25T08:53:28Z</time>
      </trkpt>
      <trkpt lat="43.71705" lon="6.94865">
        <ele>986.4</ele>
        <time>2016-09-25T08:53:29Z</time>
      </trkpt>
      <trkpt lat="43.71703" lon="6.94869">
        <ele>986</ele>
        <time>2016-09-25T08:53:30Z</time>
      </trkpt>
      <trkpt lat="43.717" lon="6.94873">
        <ele>985.9</ele>
        <time>2016-09-25T08:53:31Z</time>
      </trkpt>
      <trkpt lat="43.71698" lon="6.94878">
        <ele>985.8</ele>
        <time>2016-09-25T08:53:32Z</time>
      </trkpt>
      <trkpt lat="43.71696" lon="6.94883">
        <ele>985.7</ele>
        <time>2016-09-25T08:53:33Z</time>
      </trkpt>
      <trkpt lat="43.71694" lon="6.94887">
        <ele>985.7</ele>
        <time>2016-09-25T08:53:34Z</time>
      </trkpt>
      <trkpt lat="43.71692" lon="6.94892">
        <ele>985.6</ele>
        <time>2016-09-25T08:53:35Z</time>
      </trkpt>
      <trkpt lat="43.7169" lon="6.94897">
        <ele>985.4</ele>
        <time>2016-09-25T08:53:36Z</time>
      </trkpt>
      <trkpt lat="43.71688" lon="6.94902">
        <ele>985.3</ele>
        <time>2016-09-25T08:53:37Z</time>
      </trkpt>
      <trkpt lat="43.71687" lon="6.94908">
        <ele>985.1</ele>
        <time>2016-09-25T08:53:38Z</time>
      </trkpt>
      <trkpt lat="43.71686" lon="6.94913">
        <ele>984.8</ele>
        <time>2016-09-25T08:53:39Z</time>
      </trkpt>
      <trkpt lat="43.71686" lon="6.94919">
        <ele>984.5</ele>
        <time>2016-09-25T08:53:40Z</time>
      </trkpt>
      <trkpt lat="43.71685" lon="6.94925">
        <ele>984.2</ele>
        <time>2016-09-25T08:53:41Z</time>
      </trkpt>
      <trkpt lat="43.71684" lon="6.94931">
        <ele>983.9</ele>
        <time>2016-09-25T08:53:42Z</time>
      </trkpt>
      <trkpt lat="43.71683" lon="6.94937">
        <ele>983.8</ele>
        <time>2016-09-25T08:53:43Z</time>
      </trkpt>
      <trkpt lat="43.71681" lon="6.94942">
        <ele>983.6</ele>
        <time>2016-09-25T08:53:44Z</time>
      </trkpt>
      <trkpt lat="43.71679" lon="6.94947">
        <ele>983.5</ele>
        <time>2016-09-25T08:53:45Z</time>
      </trkpt>
      <trkpt lat="43.71676" lon="6.94951">
        <ele>983.5</ele>
        <time>2016-09-25T08:53:46Z</time>
      </trkpt>
      <trkpt lat="43.71672" lon="6.94954">
        <ele>983.7</ele>
        <time>2016-09-25T08:53:47Z</time>
      </trkpt>
      <trkpt lat="43.71668" lon="6.94957">
        <ele>983.9</ele>
        <time>2016-09-25T08:53:48Z</time>
      </trkpt>
      <trkpt lat="43.71664" lon="6.94959">
        <ele>984.2</ele>
        <time>2016-09-25T08:53:49Z</time>
      </trkpt>
      <trkpt lat="43.71659" lon="6.94962">
        <ele>984.5</ele>
        <time>2016-09-25T08:53:50Z</time>
      </trkpt>
      <trkpt lat="43.71656" lon="6.94967">
        <ele>984.5</ele>
        <time>2016-09-25T08:53:51Z</time>
      </trkpt>
      <trkpt lat="43.71654" lon="6.94971">
        <ele>984.4</ele>
        <time>2016-09-25T08:53:52Z</time>
      </trkpt>
      <trkpt lat="43.71652" lon="6.94975">
        <ele>984.4</ele>
        <time>2016-09-25T08:53:53Z</time>
      </trkpt>
      <trkpt lat="43.71649" lon="6.9498">
        <ele>984.3</ele>
        <time>2016-09-25T08:53:54Z</time>
      </trkpt>
      <trkpt lat="43.71649" lon="6.94984">
        <ele>984.1</ele>
        <time>2016-09-25T08:53:55Z</time>
      </trkpt>
      <trkpt lat="43.71647" lon="6.94989">
        <ele>984</ele>
        <time>2016-09-25T08:53:56Z</time>
      </trkpt>
      <trkpt lat="43.71645" lon="6.94995">
        <ele>983.8</ele>
        <time>2016-09-25T08:53:58Z</time>
      </trkpt>
      <trkpt lat="43.71644" lon="6.94998">
        <ele>983.7</ele>
        <time>2016-09-25T08:53:59Z</time>
      </trkpt>
      <trkpt lat="43.71644" lon="6.95002">
        <ele>983.4</ele>
        <time>2016-09-25T08:54:00Z</time>
      </trkpt>
      <trkpt lat="43.71644" lon="6.95006">
        <ele>983.2</ele>
        <time>2016-09-25T08:54:01Z</time>
      </trkpt>
      <trkpt lat="43.71646" lon="6.95009">
        <ele>982.8</ele>
        <time>2016-09-25T08:54:02Z</time>
      </trkpt>
      <trkpt lat="43.71647" lon="6.95014">
        <ele>982.3</ele>
        <time>2016-09-25T08:54:04Z</time>
      </trkpt>
      <trkpt lat="43.71649" lon="6.95019">
        <ele>981.8</ele>
        <time>2016-09-25T08:54:06Z</time>
      </trkpt>
      <trkpt lat="43.71651" lon="6.95024">
        <ele>981.3</ele>
        <time>2016-09-25T08:54:08Z</time>
      </trkpt>
      <trkpt lat="43.71652" lon="6.9503">
        <ele>980.9</ele>
        <time>2016-09-25T08:54:10Z</time>
      </trkpt>
      <trkpt lat="43.71651" lon="6.95035">
        <ele>980.6</ele>
        <time>2016-09-25T08:54:12Z</time>
      </trkpt>
      <trkpt lat="43.7165" lon="6.95041">
        <ele>980.3</ele>
        <time>2016-09-25T08:54:14Z</time>
      </trkpt>
      <trkpt lat="43.7165" lon="6.95046">
        <ele>980.3</ele>
        <time>2016-09-25T08:54:16Z</time>
      </trkpt>
      <trkpt lat="43.71648" lon="6.95052">
        <ele>980.4</ele>
        <time>2016-09-25T08:54:18Z</time>
      </trkpt>
      <trkpt lat="43.71646" lon="6.95057">
        <ele>980.5</ele>
        <time>2016-09-25T08:54:20Z</time>
      </trkpt>
      <trkpt lat="43.71643" lon="6.95062">
        <ele>980.7</ele>
        <time>2016-09-25T08:54:22Z</time>
      </trkpt>
      <trkpt lat="43.7164" lon="6.95068">
        <ele>981</ele>
        <time>2016-09-25T08:54:24Z</time>
      </trkpt>
      <trkpt lat="43.71639" lon="6.95072">
        <ele>981.1</ele>
        <time>2016-09-25T08:54:25Z</time>
      </trkpt>
      <trkpt lat="43.71637" lon="6.95076">
        <ele>981.3</ele>
        <time>2016-09-25T08:54:26Z</time>
      </trkpt>
      <trkpt lat="43.71635" lon="6.95079">
        <ele>981.4</ele>
        <time>2016-09-25T08:54:27Z</time>
      </trkpt>
      <trkpt lat="43.71633" lon="6.95083">
        <ele>981.6</ele>
        <time>2016-09-25T08:54:28Z</time>
      </trkpt>
      <trkpt lat="43.71632" lon="6.95087">
        <ele>981.7</ele>
        <time>2016-09-25T08:54:29Z</time>
      </trkpt>
      <trkpt lat="43.7163" lon="6.95091">
        <ele>981.8</ele>
        <time>2016-09-25T08:54:30Z</time>
      </trkpt>
      <trkpt lat="43.71629" lon="6.95094">
        <ele>981.9</ele>
        <time>2016-09-25T08:54:31Z</time>
      </trkpt>
      <trkpt lat="43.71627" lon="6.95099">
        <ele>982.1</ele>
        <time>2016-09-25T08:54:32Z</time>
      </trkpt>
      <trkpt lat="43.71626" lon="6.95103">
        <ele>982.2</ele>
        <time>2016-09-25T08:54:33Z</time>
      </trkpt>
      <trkpt lat="43.71624" lon="6.95107">
        <ele>982.3</ele>
        <time>2016-09-25T08:54:34Z</time>
      </trkpt>
      <trkpt lat="43.71623" lon="6.9511">
        <ele>982.3</ele>
        <time>2016-09-25T08:54:35Z</time>
      </trkpt>
      <trkpt lat="43.71621" lon="6.95114">
        <ele>982.4</ele>
        <time>2016-09-25T08:54:36Z</time>
      </trkpt>
      <trkpt lat="43.71618" lon="6.95118">
        <ele>982.5</ele>
        <time>2016-09-25T08:54:37Z</time>
      </trkpt>
      <trkpt lat="43.71616" lon="6.95121">
        <ele>982.6</ele>
        <time>2016-09-25T08:54:38Z</time>
      </trkpt>
      <trkpt lat="43.71613" lon="6.95124">
        <ele>982.7</ele>
        <time>2016-09-25T08:54:39Z</time>
      </trkpt>
      <trkpt lat="43.71611" lon="6.95128">
        <ele>982.6</ele>
        <time>2016-09-25T08:54:40Z</time>
      </trkpt>
      <trkpt lat="43.71608" lon="6.95131">
        <ele>982.3</ele>
        <time>2016-09-25T08:54:41Z</time>
      </trkpt>
      <trkpt lat="43.71604" lon="6.95135">
        <ele>982</ele>
        <time>2016-09-25T08:54:42Z</time>
      </trkpt>
      <trkpt lat="43.71601" lon="6.95138">
        <ele>981.8</ele>
        <time>2016-09-25T08:54:43Z</time>
      </trkpt>
      <trkpt lat="43.71597" lon="6.95142">
        <ele>981.5</ele>
        <time>2016-09-25T08:54:44Z</time>
      </trkpt>
      <trkpt lat="43.71594" lon="6.95145">
        <ele>981.2</ele>
        <time>2016-09-25T08:54:45Z</time>
      </trkpt>
      <trkpt lat="43.7159" lon="6.95148">
        <ele>980.9</ele>
        <time>2016-09-25T08:54:46Z</time>
      </trkpt>
      <trkpt lat="43.71587" lon="6.95151">
        <ele>980.5</ele>
        <time>2016-09-25T08:54:47Z</time>
      </trkpt>
      <trkpt lat="43.71584" lon="6.95154">
        <ele>980.2</ele>
        <time>2016-09-25T08:54:48Z</time>
      </trkpt>
      <trkpt lat="43.71581" lon="6.95157">
        <ele>979.7</ele>
        <time>2016-09-25T08:54:49Z</time>
      </trkpt>
      <trkpt lat="43.71578" lon="6.95161">
        <ele>979.2</ele>
        <time>2016-09-25T08:54:50Z</time>
      </trkpt>
      <trkpt lat="43.71575" lon="6.95164">
        <ele>978.7</ele>
        <time>2016-09-25T08:54:51Z</time>
      </trkpt>
      <trkpt lat="43.71573" lon="6.95168">
        <ele>978.2</ele>
        <time>2016-09-25T08:54:52Z</time>
      </trkpt>
      <trkpt lat="43.7157" lon="6.95171">
        <ele>977.7</ele>
        <time>2016-09-25T08:54:53Z</time>
      </trkpt>
      <trkpt lat="43.71568" lon="6.95174">
        <ele>977.2</ele>
        <time>2016-09-25T08:54:54Z</time>
      </trkpt>
      <trkpt lat="43.71565" lon="6.95176">
        <ele>976.8</ele>
        <time>2016-09-25T08:54:55Z</time>
      </trkpt>
      <trkpt lat="43.71562" lon="6.95178">
        <ele>976.3</ele>
        <time>2016-09-25T08:54:56Z</time>
      </trkpt>
      <trkpt lat="43.71559" lon="6.9518">
        <ele>975.9</ele>
        <time>2016-09-25T08:54:57Z</time>
      </trkpt>
      <trkpt lat="43.71556" lon="6.95182">
        <ele>975.5</ele>
        <time>2016-09-25T08:54:58Z</time>
      </trkpt>
      <trkpt lat="43.71553" lon="6.95184">
        <ele>975.1</ele>
        <time>2016-09-25T08:54:59Z</time>
      </trkpt>
      <trkpt lat="43.71548" lon="6.95186">
        <ele>974.6</ele>
        <time>2016-09-25T08:55:00Z</time>
      </trkpt>
      <trkpt lat="43.71543" lon="6.95189">
        <ele>974</ele>
        <time>2016-09-25T08:55:01Z</time>
      </trkpt>
      <trkpt lat="43.71539" lon="6.95191">
        <ele>973.3</ele>
        <time>2016-09-25T08:55:02Z</time>
      </trkpt>
      <trkpt lat="43.71534" lon="6.9519">
        <ele>972.8</ele>
        <time>2016-09-25T08:55:03Z</time>
      </trkpt>
      <trkpt lat="43.71529" lon="6.9519">
        <ele>972.3</ele>
        <time>2016-09-25T08:55:04Z</time>
      </trkpt>
      <trkpt lat="43.71524" lon="6.95189">
        <ele>971.9</ele>
        <time>2016-09-25T08:55:05Z</time>
      </trkpt>
      <trkpt lat="43.7152" lon="6.95188">
        <ele>971.7</ele>
        <time>2016-09-25T08:55:06Z</time>
      </trkpt>
      <trkpt lat="43.71514" lon="6.95188">
        <ele>970.9</ele>
        <time>2016-09-25T08:55:07Z</time>
      </trkpt>
      <trkpt lat="43.71509" lon="6.95189">
        <ele>970.1</ele>
        <time>2016-09-25T08:55:08Z</time>
      </trkpt>
      <trkpt lat="43.71504" lon="6.95188">
        <ele>969.7</ele>
        <time>2016-09-25T08:55:09Z</time>
      </trkpt>
      <trkpt lat="43.715" lon="6.95187">
        <ele>969.5</ele>
        <time>2016-09-25T08:55:10Z</time>
      </trkpt>
      <trkpt lat="43.71495" lon="6.95186">
        <ele>969.2</ele>
        <time>2016-09-25T08:55:11Z</time>
      </trkpt>
      <trkpt lat="43.7149" lon="6.95185">
        <ele>968.8</ele>
        <time>2016-09-25T08:55:12Z</time>
      </trkpt>
      <trkpt lat="43.71485" lon="6.95184">
        <ele>968.6</ele>
        <time>2016-09-25T08:55:13Z</time>
      </trkpt>
      <trkpt lat="43.71479" lon="6.95182">
        <ele>968.4</ele>
        <time>2016-09-25T08:55:14Z</time>
      </trkpt>
      <trkpt lat="43.71474" lon="6.9518">
        <ele>968.3</ele>
        <time>2016-09-25T08:55:15Z</time>
      </trkpt>
      <trkpt lat="43.71468" lon="6.95179">
        <ele>967.9</ele>
        <time>2016-09-25T08:55:16Z</time>
      </trkpt>
      <trkpt lat="43.71462" lon="6.95178">
        <ele>967.5</ele>
        <time>2016-09-25T08:55:17Z</time>
      </trkpt>
      <trkpt lat="43.71456" lon="6.95176">
        <ele>967.3</ele>
        <time>2016-09-25T08:55:18Z</time>
      </trkpt>
      <trkpt lat="43.7145" lon="6.95176">
        <ele>967</ele>
        <time>2016-09-25T08:55:19Z</time>
      </trkpt>
      <trkpt lat="43.71444" lon="6.95175">
        <ele>966.7</ele>
        <time>2016-09-25T08:55:20Z</time>
      </trkpt>
      <trkpt lat="43.71439" lon="6.95175">
        <ele>966.3</ele>
        <time>2016-09-25T08:55:21Z</time>
      </trkpt>
      <trkpt lat="43.71434" lon="6.95175">
        <ele>966.1</ele>
        <time>2016-09-25T08:55:22Z</time>
      </trkpt>
      <trkpt lat="43.71429" lon="6.95177">
        <ele>965.2</ele>
        <time>2016-09-25T08:55:23Z</time>
      </trkpt>
      <trkpt lat="43.71424" lon="6.95179">
        <ele>964.3</ele>
        <time>2016-09-25T08:55:24Z</time>
      </trkpt>
      <trkpt lat="43.71419" lon="6.95179">
        <ele>964</ele>
        <time>2016-09-25T08:55:25Z</time>
      </trkpt>
      <trkpt lat="43.71414" lon="6.95179">
        <ele>963.5</ele>
        <time>2016-09-25T08:55:26Z</time>
      </trkpt>
      <trkpt lat="43.71411" lon="6.9518">
        <ele>963</ele>
        <time>2016-09-25T08:55:27Z</time>
      </trkpt>
      <trkpt lat="43.71406" lon="6.95182">
        <ele>962.1</ele>
        <time>2016-09-25T08:55:28Z</time>
      </trkpt>
      <trkpt lat="43.71401" lon="6.95186">
        <ele>960.9</ele>
        <time>2016-09-25T08:55:29Z</time>
      </trkpt>
      <trkpt lat="43.71396" lon="6.95188">
        <ele>960</ele>
        <time>2016-09-25T08:55:30Z</time>
      </trkpt>
      <trkpt lat="43.71391" lon="6.95191">
        <ele>959</ele>
        <time>2016-09-25T08:55:31Z</time>
      </trkpt>
      <trkpt lat="43.71385" lon="6.95194">
        <ele>957.9</ele>
        <time>2016-09-25T08:55:32Z</time>
      </trkpt>
      <trkpt lat="43.71379" lon="6.95197">
        <ele>957</ele>
        <time>2016-09-25T08:55:33Z</time>
      </trkpt>
      <trkpt lat="43.71374" lon="6.95199">
        <ele>956.1</ele>
        <time>2016-09-25T08:55:34Z</time>
      </trkpt>
      <trkpt lat="43.7137" lon="6.95201">
        <ele>955.7</ele>
        <time>2016-09-25T08:55:35Z</time>
      </trkpt>
      <trkpt lat="43.71367" lon="6.95204">
        <ele>954.9</ele>
        <time>2016-09-25T08:55:36Z</time>
      </trkpt>
      <trkpt lat="43.71363" lon="6.95209">
        <ele>953.7</ele>
        <time>2016-09-25T08:55:37Z</time>
      </trkpt>
      <trkpt lat="43.71359" lon="6.95211">
        <ele>953.2</ele>
        <time>2016-09-25T08:55:38Z</time>
      </trkpt>
      <trkpt lat="43.71355" lon="6.95214">
        <ele>952.6</ele>
        <time>2016-09-25T08:55:39Z</time>
      </trkpt>
      <trkpt lat="43.7135" lon="6.95216">
        <ele>952</ele>
        <time>2016-09-25T08:55:40Z</time>
      </trkpt>
      <trkpt lat="43.71346" lon="6.9522">
        <ele>951.1</ele>
        <time>2016-09-25T08:55:41Z</time>
      </trkpt>
      <trkpt lat="43.71342" lon="6.95226">
        <ele>949.9</ele>
        <time>2016-09-25T08:55:42Z</time>
      </trkpt>
      <trkpt lat="43.71337" lon="6.95232">
        <ele>948.6</ele>
        <time>2016-09-25T08:55:43Z</time>
      </trkpt>
      <trkpt lat="43.71332" lon="6.95237">
        <ele>947.4</ele>
        <time>2016-09-25T08:55:44Z</time>
      </trkpt>
      <trkpt lat="43.71327" lon="6.9524">
        <ele>946.7</ele>
        <time>2016-09-25T08:55:45Z</time>
      </trkpt>
      <trkpt lat="43.7132" lon="6.95242">
        <ele>946.4</ele>
        <time>2016-09-25T08:55:46Z</time>
      </trkpt>
      <trkpt lat="43.71314" lon="6.95244">
        <ele>945.8</ele>
        <time>2016-09-25T08:55:47Z</time>
      </trkpt>
      <trkpt lat="43.71308" lon="6.95249">
        <ele>944.7</ele>
        <time>2016-09-25T08:55:48Z</time>
      </trkpt>
      <trkpt lat="43.71303" lon="6.95254">
        <ele>943.8</ele>
        <time>2016-09-25T08:55:49Z</time>
      </trkpt>
      <trkpt lat="43.71298" lon="6.95257">
        <ele>943.1</ele>
        <time>2016-09-25T08:55:50Z</time>
      </trkpt>
      <trkpt lat="43.71294" lon="6.9526">
        <ele>942.5</ele>
        <time>2016-09-25T08:55:51Z</time>
      </trkpt>
      <trkpt lat="43.71291" lon="6.95265">
        <ele>941.2</ele>
        <time>2016-09-25T08:55:52Z</time>
      </trkpt>
      <trkpt lat="43.71287" lon="6.95269">
        <ele>940</ele>
        <time>2016-09-25T08:55:53Z</time>
      </trkpt>
      <trkpt lat="43.71282" lon="6.95272">
        <ele>939</ele>
        <time>2016-09-25T08:55:54Z</time>
      </trkpt>
      <trkpt lat="43.71278" lon="6.95275">
        <ele>937.7</ele>
        <time>2016-09-25T08:55:55Z</time>
      </trkpt>
      <trkpt lat="43.71274" lon="6.9528">
        <ele>936.3</ele>
        <time>2016-09-25T08:55:56Z</time>
      </trkpt>
      <trkpt lat="43.71269" lon="6.95284">
        <ele>934.9</ele>
        <time>2016-09-25T08:55:57Z</time>
      </trkpt>
      <trkpt lat="43.71264" lon="6.95288">
        <ele>933.5</ele>
        <time>2016-09-25T08:55:58Z</time>
      </trkpt>
      <trkpt lat="43.71259" lon="6.95292">
        <ele>932</ele>
        <time>2016-09-25T08:55:59Z</time>
      </trkpt>
      <trkpt lat="43.71254" lon="6.95294">
        <ele>931</ele>
        <time>2016-09-25T08:56:00Z</time>
      </trkpt>
      <trkpt lat="43.7125" lon="6.95299">
        <ele>929.7</ele>
        <time>2016-09-25T08:56:01Z</time>
      </trkpt>
      <trkpt lat="43.71245" lon="6.95303">
        <ele>928.4</ele>
        <time>2016-09-25T08:56:02Z</time>
      </trkpt>
      <trkpt lat="43.71241" lon="6.95305">
        <ele>927.7</ele>
        <time>2016-09-25T08:56:03Z</time>
      </trkpt>
      <trkpt lat="43.71237" lon="6.95304">
        <ele>927.4</ele>
        <time>2016-09-25T08:56:04Z</time>
      </trkpt>
      <trkpt lat="43.71231" lon="6.95302">
        <ele>927</ele>
        <time>2016-09-25T08:56:05Z</time>
      </trkpt>
      <trkpt lat="43.71227" lon="6.95301">
        <ele>926.7</ele>
        <time>2016-09-25T08:56:06Z</time>
      </trkpt>
      <trkpt lat="43.71221" lon="6.95302">
        <ele>925.9</ele>
        <time>2016-09-25T08:56:07Z</time>
      </trkpt>
      <trkpt lat="43.71218" lon="6.95305">
        <ele>925.1</ele>
        <time>2016-09-25T08:56:08Z</time>
      </trkpt>
      <trkpt lat="43.71213" lon="6.95309">
        <ele>924</ele>
        <time>2016-09-25T08:56:09Z</time>
      </trkpt>
      <trkpt lat="43.71208" lon="6.95312">
        <ele>923.1</ele>
        <time>2016-09-25T08:56:10Z</time>
      </trkpt>
      <trkpt lat="43.71203" lon="6.95312">
        <ele>922.6</ele>
        <time>2016-09-25T08:56:11Z</time>
      </trkpt>
      <trkpt lat="43.71197" lon="6.95313">
        <ele>922.1</ele>
        <time>2016-09-25T08:56:12Z</time>
      </trkpt>
      <trkpt lat="43.71191" lon="6.95315">
        <ele>921.2</ele>
        <time>2016-09-25T08:56:13Z</time>
      </trkpt>
      <trkpt lat="43.71185" lon="6.95316">
        <ele>920.5</ele>
        <time>2016-09-25T08:56:14Z</time>
      </trkpt>
      <trkpt lat="43.7118" lon="6.9532">
        <ele>919.5</ele>
        <time>2016-09-25T08:56:15Z</time>
      </trkpt>
      <trkpt lat="43.71176" lon="6.95325">
        <ele>918.3</ele>
        <time>2016-09-25T08:56:16Z</time>
      </trkpt>
      <trkpt lat="43.71171" lon="6.95328">
        <ele>917.2</ele>
        <time>2016-09-25T08:56:17Z</time>
      </trkpt>
      <trkpt lat="43.71166" lon="6.95331">
        <ele>916.4</ele>
        <time>2016-09-25T08:56:18Z</time>
      </trkpt>
      <trkpt lat="43.71163" lon="6.95333">
        <ele>915.6</ele>
        <time>2016-09-25T08:56:19Z</time>
      </trkpt>
      <trkpt lat="43.71158" lon="6.95338">
        <ele>914.3</ele>
        <time>2016-09-25T08:56:20Z</time>
      </trkpt>
      <trkpt lat="43.71152" lon="6.95342">
        <ele>913.2</ele>
        <time>2016-09-25T08:56:21Z</time>
      </trkpt>
      <trkpt lat="43.71146" lon="6.95344">
        <ele>912.1</ele>
        <time>2016-09-25T08:56:22Z</time>
      </trkpt>
      <trkpt lat="43.71141" lon="6.95346">
        <ele>911.2</ele>
        <time>2016-09-25T08:56:23Z</time>
      </trkpt>
      <trkpt lat="43.71135" lon="6.95349">
        <ele>910.1</ele>
        <time>2016-09-25T08:56:24Z</time>
      </trkpt>
      <trkpt lat="43.7113" lon="6.95352">
        <ele>909</ele>
        <time>2016-09-25T08:56:25Z</time>
      </trkpt>
      <trkpt lat="43.71126" lon="6.95356">
        <ele>907.7</ele>
        <time>2016-09-25T08:56:26Z</time>
      </trkpt>
      <trkpt lat="43.71122" lon="6.95363">
        <ele>906.1</ele>
        <time>2016-09-25T08:56:27Z</time>
      </trkpt>
      <trkpt lat="43.71119" lon="6.9537">
        <ele>904.3</ele>
        <time>2016-09-25T08:56:28Z</time>
      </trkpt>
      <trkpt lat="43.71115" lon="6.95375">
        <ele>902.9</ele>
        <time>2016-09-25T08:56:29Z</time>
      </trkpt>
      <trkpt lat="43.7111" lon="6.95378">
        <ele>901.9</ele>
        <time>2016-09-25T08:56:30Z</time>
      </trkpt>
      <trkpt lat="43.71106" lon="6.95382">
        <ele>900.8</ele>
        <time>2016-09-25T08:56:31Z</time>
      </trkpt>
      <trkpt lat="43.71101" lon="6.95383">
        <ele>900.1</ele>
        <time>2016-09-25T08:56:32Z</time>
      </trkpt>
      <trkpt lat="43.71097" lon="6.95385">
        <ele>899.2</ele>
        <time>2016-09-25T08:56:33Z</time>
      </trkpt>
      <trkpt lat="43.71092" lon="6.95386">
        <ele>898.5</ele>
        <time>2016-09-25T08:56:34Z</time>
      </trkpt>
      <trkpt lat="43.71087" lon="6.95389">
        <ele>897.5</ele>
        <time>2016-09-25T08:56:35Z</time>
      </trkpt>
      <trkpt lat="43.71083" lon="6.95392">
        <ele>896.4</ele>
        <time>2016-09-25T08:56:36Z</time>
      </trkpt>
      <trkpt lat="43.71078" lon="6.95395">
        <ele>895.2</ele>
        <time>2016-09-25T08:56:37Z</time>
      </trkpt>
      <trkpt lat="43.71073" lon="6.95396">
        <ele>894.5</ele>
        <time>2016-09-25T08:56:38Z</time>
      </trkpt>
      <trkpt lat="43.71069" lon="6.95393">
        <ele>894.5</ele>
        <time>2016-09-25T08:56:39Z</time>
      </trkpt>
      <trkpt lat="43.71064" lon="6.95392">
        <ele>894.2</ele>
        <time>2016-09-25T08:56:40Z</time>
      </trkpt>
      <trkpt lat="43.71059" lon="6.9539">
        <ele>893.9</ele>
        <time>2016-09-25T08:56:41Z</time>
      </trkpt>
      <trkpt lat="43.71054" lon="6.95389">
        <ele>893.6</ele>
        <time>2016-09-25T08:56:42Z</time>
      </trkpt>
      <trkpt lat="43.71049" lon="6.95388">
        <ele>893.3</ele>
        <time>2016-09-25T08:56:43Z</time>
      </trkpt>
      <trkpt lat="43.71044" lon="6.95388">
        <ele>892.7</ele>
        <time>2016-09-25T08:56:44Z</time>
      </trkpt>
      <trkpt lat="43.7104" lon="6.9539">
        <ele>891.4</ele>
        <time>2016-09-25T08:56:45Z</time>
      </trkpt>
      <trkpt lat="43.71035" lon="6.95393">
        <ele>889.7</ele>
        <time>2016-09-25T08:56:46Z</time>
      </trkpt>
      <trkpt lat="43.71029" lon="6.95397">
        <ele>887.9</ele>
        <time>2016-09-25T08:56:47Z</time>
      </trkpt>
      <trkpt lat="43.71023" lon="6.954">
        <ele>885.8</ele>
        <time>2016-09-25T08:56:48Z</time>
      </trkpt>
      <trkpt lat="43.71017" lon="6.95403">
        <ele>883.9</ele>
        <time>2016-09-25T08:56:49Z</time>
      </trkpt>
      <trkpt lat="43.71011" lon="6.95407">
        <ele>882</ele>
        <time>2016-09-25T08:56:50Z</time>
      </trkpt>
      <trkpt lat="43.71005" lon="6.95411">
        <ele>880.3</ele>
        <time>2016-09-25T08:56:51Z</time>
      </trkpt>
      <trkpt lat="43.70999" lon="6.95412">
        <ele>878.8</ele>
        <time>2016-09-25T08:56:52Z</time>
      </trkpt>
      <trkpt lat="43.70994" lon="6.95413">
        <ele>877.5</ele>
        <time>2016-09-25T08:56:53Z</time>
      </trkpt>
      <trkpt lat="43.70988" lon="6.95416">
        <ele>876</ele>
        <time>2016-09-25T08:56:54Z</time>
      </trkpt>
      <trkpt lat="43.70983" lon="6.95419">
        <ele>874.5</ele>
        <time>2016-09-25T08:56:55Z</time>
      </trkpt>
      <trkpt lat="43.70978" lon="6.95423">
        <ele>873.1</ele>
        <time>2016-09-25T08:56:56Z</time>
      </trkpt>
      <trkpt lat="43.70972" lon="6.95428">
        <ele>871.3</ele>
        <time>2016-09-25T08:56:57Z</time>
      </trkpt>
      <trkpt lat="43.70967" lon="6.95431">
        <ele>869.9</ele>
        <time>2016-09-25T08:56:58Z</time>
      </trkpt>
      <trkpt lat="43.70962" lon="6.95433">
        <ele>868.6</ele>
        <time>2016-09-25T08:56:59Z</time>
      </trkpt>
      <trkpt lat="43.70958" lon="6.95437">
        <ele>867.4</ele>
        <time>2016-09-25T08:57:01Z</time>
      </trkpt>
      <trkpt lat="43.70956" lon="6.95442">
        <ele>866.3</ele>
        <time>2016-09-25T08:57:02Z</time>
      </trkpt>
      <trkpt lat="43.70952" lon="6.95445">
        <ele>864.9</ele>
        <time>2016-09-25T08:57:03Z</time>
      </trkpt>
      <trkpt lat="43.70947" lon="6.95446">
        <ele>863.3</ele>
        <time>2016-09-25T08:57:04Z</time>
      </trkpt>
      <trkpt lat="43.70942" lon="6.9545">
        <ele>861.4</ele>
        <time>2016-09-25T08:57:05Z</time>
      </trkpt>
      <trkpt lat="43.70936" lon="6.95455">
        <ele>859.5</ele>
        <time>2016-09-25T08:57:06Z</time>
      </trkpt>
      <trkpt lat="43.70931" lon="6.9546">
        <ele>857.7</ele>
        <time>2016-09-25T08:57:07Z</time>
      </trkpt>
      <trkpt lat="43.70926" lon="6.95464">
        <ele>856</ele>
        <time>2016-09-25T08:57:08Z</time>
      </trkpt>
      <trkpt lat="43.70921" lon="6.95469">
        <ele>854.6</ele>
        <time>2016-09-25T08:57:09Z</time>
      </trkpt>
      <trkpt lat="43.70916" lon="6.95471">
        <ele>853</ele>
        <time>2016-09-25T08:57:10Z</time>
      </trkpt>
      <trkpt lat="43.7091" lon="6.95473">
        <ele>851.6</ele>
        <time>2016-09-25T08:57:11Z</time>
      </trkpt>
      <trkpt lat="43.70906" lon="6.95472">
        <ele>850.5</ele>
        <time>2016-09-25T08:57:12Z</time>
      </trkpt>
      <trkpt lat="43.70902" lon="6.95474">
        <ele>849.6</ele>
        <time>2016-09-25T08:57:13Z</time>
      </trkpt>
      <trkpt lat="43.709" lon="6.95478">
        <ele>848.8</ele>
        <time>2016-09-25T08:57:14Z</time>
      </trkpt>
      <trkpt lat="43.70897" lon="6.95484">
        <ele>847.8</ele>
        <time>2016-09-25T08:57:15Z</time>
      </trkpt>
      <trkpt lat="43.70894" lon="6.9549">
        <ele>847.1</ele>
        <time>2016-09-25T08:57:16Z</time>
      </trkpt>
      <trkpt lat="43.70892" lon="6.95496">
        <ele>846.4</ele>
        <time>2016-09-25T08:57:17Z</time>
      </trkpt>
      <trkpt lat="43.70889" lon="6.95502">
        <ele>845.5</ele>
        <time>2016-09-25T08:57:18Z</time>
      </trkpt>
      <trkpt lat="43.70885" lon="6.95508">
        <ele>844.6</ele>
        <time>2016-09-25T08:57:19Z</time>
      </trkpt>
      <trkpt lat="43.70882" lon="6.95512">
        <ele>843.7</ele>
        <time>2016-09-25T08:57:20Z</time>
      </trkpt>
      <trkpt lat="43.70877" lon="6.95514">
        <ele>842.7</ele>
        <time>2016-09-25T08:57:21Z</time>
      </trkpt>
      <trkpt lat="43.70872" lon="6.95515">
        <ele>841.7</ele>
        <time>2016-09-25T08:57:22Z</time>
      </trkpt>
      <trkpt lat="43.70868" lon="6.95512">
        <ele>840.7</ele>
        <time>2016-09-25T08:57:23Z</time>
      </trkpt>
      <trkpt lat="43.70863" lon="6.9551">
        <ele>839.5</ele>
        <time>2016-09-25T08:57:24Z</time>
      </trkpt>
      <trkpt lat="43.70858" lon="6.95508">
        <ele>838.3</ele>
        <time>2016-09-25T08:57:25Z</time>
      </trkpt>
      <trkpt lat="43.70854" lon="6.9551">
        <ele>837.3</ele>
        <time>2016-09-25T08:57:26Z</time>
      </trkpt>
      <trkpt lat="43.70852" lon="6.95514">
        <ele>837</ele>
        <time>2016-09-25T08:57:27Z</time>
      </trkpt>
      <trkpt lat="43.70852" lon="6.95521">
        <ele>837</ele>
        <time>2016-09-25T08:57:28Z</time>
      </trkpt>
      <trkpt lat="43.7085" lon="6.95529">
        <ele>836.5</ele>
        <time>2016-09-25T08:57:29Z</time>
      </trkpt>
      <trkpt lat="43.70847" lon="6.95535">
        <ele>836</ele>
        <time>2016-09-25T08:57:30Z</time>
      </trkpt>
      <trkpt lat="43.70843" lon="6.95543">
        <ele>835</ele>
        <time>2016-09-25T08:57:31Z</time>
      </trkpt>
      <trkpt lat="43.70839" lon="6.95553">
        <ele>833.9</ele>
        <time>2016-09-25T08:57:32Z</time>
      </trkpt>
      <trkpt lat="43.70837" lon="6.95564">
        <ele>833.1</ele>
        <time>2016-09-25T08:57:33Z</time>
      </trkpt>
      <trkpt lat="43.70835" lon="6.95575">
        <ele>832.3</ele>
        <time>2016-09-25T08:57:34Z</time>
      </trkpt>
      <trkpt lat="43.70832" lon="6.95587">
        <ele>831.3</ele>
        <time>2016-09-25T08:57:35Z</time>
      </trkpt>
      <trkpt lat="43.70829" lon="6.95599">
        <ele>830.5</ele>
        <time>2016-09-25T08:57:36Z</time>
      </trkpt>
      <trkpt lat="43.70829" lon="6.95612">
        <ele>829.9</ele>
        <time>2016-09-25T08:57:37Z</time>
      </trkpt>
      <trkpt lat="43.70829" lon="6.95624">
        <ele>829.7</ele>
        <time>2016-09-25T08:57:38Z</time>
      </trkpt>
      <trkpt lat="43.70829" lon="6.95635">
        <ele>829</ele>
        <time>2016-09-25T08:57:39Z</time>
      </trkpt>
      <trkpt lat="43.70827" lon="6.95644">
        <ele>828.1</ele>
        <time>2016-09-25T08:57:40Z</time>
      </trkpt>
      <trkpt lat="43.70823" lon="6.95652">
        <ele>826.9</ele>
        <time>2016-09-25T08:57:41Z</time>
      </trkpt>
      <trkpt lat="43.7082" lon="6.9566">
        <ele>825.8</ele>
        <time>2016-09-25T08:57:42Z</time>
      </trkpt>
      <trkpt lat="43.70817" lon="6.9567">
        <ele>824.8</ele>
        <time>2016-09-25T08:57:43Z</time>
      </trkpt>
      <trkpt lat="43.70815" lon="6.95679">
        <ele>823.9</ele>
        <time>2016-09-25T08:57:44Z</time>
      </trkpt>
      <trkpt lat="43.70811" lon="6.95685">
        <ele>822.9</ele>
        <time>2016-09-25T08:57:45Z</time>
      </trkpt>
      <trkpt lat="43.70807" lon="6.95689">
        <ele>822</ele>
        <time>2016-09-25T08:57:46Z</time>
      </trkpt>
      <trkpt lat="43.70802" lon="6.95691">
        <ele>821.3</ele>
        <time>2016-09-25T08:57:47Z</time>
      </trkpt>
      <trkpt lat="43.70799" lon="6.95695">
        <ele>820.6</ele>
        <time>2016-09-25T08:57:48Z</time>
      </trkpt>
      <trkpt lat="43.70796" lon="6.95703">
        <ele>819.8</ele>
        <time>2016-09-25T08:57:49Z</time>
      </trkpt>
      <trkpt lat="43.70794" lon="6.95711">
        <ele>819.2</ele>
        <time>2016-09-25T08:57:50Z</time>
      </trkpt>
      <trkpt lat="43.70792" lon="6.95719">
        <ele>818.1</ele>
        <time>2016-09-25T08:57:51Z</time>
      </trkpt>
      <trkpt lat="43.70789" lon="6.95724">
        <ele>817.4</ele>
        <time>2016-09-25T08:57:52Z</time>
      </trkpt>
      <trkpt lat="43.70787" lon="6.95729">
        <ele>816.7</ele>
        <time>2016-09-25T08:57:53Z</time>
      </trkpt>
      <trkpt lat="43.70784" lon="6.95735">
        <ele>815.9</ele>
        <time>2016-09-25T08:57:54Z</time>
      </trkpt>
      <trkpt lat="43.70781" lon="6.9574">
        <ele>815.2</ele>
        <time>2016-09-25T08:57:55Z</time>
      </trkpt>
      <trkpt lat="43.70785" lon="6.95746">
        <ele>815.1</ele>
        <time>2016-09-25T08:57:56Z</time>
      </trkpt>
      <trkpt lat="43.70788" lon="6.95752">
        <ele>814.9</ele>
        <time>2016-09-25T08:57:57Z</time>
      </trkpt>
      <trkpt lat="43.70791" lon="6.95757">
        <ele>814.9</ele>
        <time>2016-09-25T08:57:58Z</time>
      </trkpt>
      <trkpt lat="43.70791" lon="6.95763">
        <ele>814.4</ele>
        <time>2016-09-25T08:57:59Z</time>
      </trkpt>
      <trkpt lat="43.7079" lon="6.9577">
        <ele>813.6</ele>
        <time>2016-09-25T08:58:00Z</time>
      </trkpt>
      <trkpt lat="43.70787" lon="6.95776">
        <ele>812.8</ele>
        <time>2016-09-25T08:58:01Z</time>
      </trkpt>
      <trkpt lat="43.70785" lon="6.95783">
        <ele>812</ele>
        <time>2016-09-25T08:58:02Z</time>
      </trkpt>
      <trkpt lat="43.70784" lon="6.95792">
        <ele>811.1</ele>
        <time>2016-09-25T08:58:03Z</time>
      </trkpt>
      <trkpt lat="43.70783" lon="6.958">
        <ele>810.8</ele>
        <time>2016-09-25T08:58:04Z</time>
      </trkpt>
      <trkpt lat="43.70785" lon="6.95809">
        <ele>810.7</ele>
        <time>2016-09-25T08:58:05Z</time>
      </trkpt>
      <trkpt lat="43.70786" lon="6.95818">
        <ele>810.6</ele>
        <time>2016-09-25T08:58:06Z</time>
      </trkpt>
      <trkpt lat="43.70784" lon="6.95825">
        <ele>810.2</ele>
        <time>2016-09-25T08:58:07Z</time>
      </trkpt>
      <trkpt lat="43.70785" lon="6.95829">
        <ele>810.2</ele>
        <time>2016-09-25T08:58:08Z</time>
      </trkpt>
      <trkpt lat="43.70788" lon="6.95831">
        <ele>810.6</ele>
        <time>2016-09-25T08:58:10Z</time>
      </trkpt>
      <trkpt lat="43.70792" lon="6.95832">
        <ele>811.1</ele>
        <time>2016-09-25T08:58:15Z</time>
      </trkpt>
      <trkpt lat="43.70796" lon="6.95835">
        <ele>811.3</ele>
        <time>2016-09-25T08:58:19Z</time>
      </trkpt>
      <trkpt lat="43.70798" lon="6.95836">
        <ele>811.5</ele>
        <time>2016-09-25T08:58:21Z</time>
      </trkpt>
      <trkpt lat="43.708" lon="6.95838">
        <ele>811.7</ele>
        <time>2016-09-25T08:58:24Z</time>
      </trkpt>
      <trkpt lat="43.70804" lon="6.9584">
        <ele>811.9</ele>
        <time>2016-09-25T08:58:26Z</time>
      </trkpt>
      <trkpt lat="43.70807" lon="6.95843">
        <ele>812.2</ele>
        <time>2016-09-25T08:58:28Z</time>
      </trkpt>
      <trkpt lat="43.70811" lon="6.95845">
        <ele>812.3</ele>
        <time>2016-09-25T08:58:30Z</time>
      </trkpt>
      <trkpt lat="43.70813" lon="6.95846">
        <ele>812.5</ele>
        <time>2016-09-25T08:58:41Z</time>
      </trkpt>
      <trkpt lat="43.70813" lon="6.9585">
        <ele>812.4</ele>
        <time>2016-09-25T09:02:38Z</time>
      </trkpt>
      <trkpt lat="43.70818" lon="6.95851">
        <ele>812.7</ele>
        <time>2016-09-25T09:02:41Z</time>
      </trkpt>
      <trkpt lat="43.70821" lon="6.95852">
        <ele>812.9</ele>
        <time>2016-09-25T09:02:43Z</time>
      </trkpt>
      <trkpt lat="43.70824" lon="6.95854">
        <ele>813</ele>
        <time>2016-09-25T09:02:44Z</time>
      </trkpt>
      <trkpt lat="43.70826" lon="6.95857">
        <ele>813.1</ele>
        <time>2016-09-25T09:02:45Z</time>
      </trkpt>
      <trkpt lat="43.70829" lon="6.9586">
        <ele>813.1</ele>
        <time>2016-09-25T09:02:46Z</time>
      </trkpt>
      <trkpt lat="43.70832" lon="6.95864">
        <ele>813.1</ele>
        <time>2016-09-25T09:02:47Z</time>
      </trkpt>
      <trkpt lat="43.70836" lon="6.95867">
        <ele>813.1</ele>
        <time>2016-09-25T09:02:48Z</time>
      </trkpt>
      <trkpt lat="43.70839" lon="6.95871">
        <ele>813.1</ele>
        <time>2016-09-25T09:02:49Z</time>
      </trkpt>
      <trkpt lat="43.70843" lon="6.95874">
        <ele>813.1</ele>
        <time>2016-09-25T09:02:50Z</time>
      </trkpt>
      <trkpt lat="43.70852" lon="6.95879">
        <ele>813.5</ele>
        <time>2016-09-25T09:02:51Z</time>
      </trkpt>
      <trkpt lat="43.70856" lon="6.95884">
        <ele>813.7</ele>
        <time>2016-09-25T09:02:52Z</time>
      </trkpt>
      <trkpt lat="43.70861" lon="6.9589">
        <ele>813.8</ele>
        <time>2016-09-25T09:02:53Z</time>
      </trkpt>
      <trkpt lat="43.70867" lon="6.95896">
        <ele>814</ele>
        <time>2016-09-25T09:02:54Z</time>
      </trkpt>
      <trkpt lat="43.70871" lon="6.95902">
        <ele>814.1</ele>
        <time>2016-09-25T09:02:55Z</time>
      </trkpt>
      <trkpt lat="43.70876" lon="6.95908">
        <ele>814.2</ele>
        <time>2016-09-25T09:02:56Z</time>
      </trkpt>
      <trkpt lat="43.70881" lon="6.95913">
        <ele>814.3</ele>
        <time>2016-09-25T09:02:57Z</time>
      </trkpt>
      <trkpt lat="43.70886" lon="6.9592">
        <ele>814.2</ele>
        <time>2016-09-25T09:02:58Z</time>
      </trkpt>
      <trkpt lat="43.70892" lon="6.95925">
        <ele>814.2</ele>
        <time>2016-09-25T09:02:59Z</time>
      </trkpt>
      <trkpt lat="43.70897" lon="6.9593">
        <ele>814.1</ele>
        <time>2016-09-25T09:03:00Z</time>
      </trkpt>
      <trkpt lat="43.709" lon="6.95932">
        <ele>814.1</ele>
        <time>2016-09-25T09:03:01Z</time>
      </trkpt>
      <trkpt lat="43.70905" lon="6.95935">
        <ele>814.1</ele>
        <time>2016-09-25T09:03:02Z</time>
      </trkpt>
      <trkpt lat="43.70908" lon="6.95937">
        <ele>814</ele>
        <time>2016-09-25T09:03:03Z</time>
      </trkpt>
      <trkpt lat="43.70911" lon="6.95939">
        <ele>814</ele>
        <time>2016-09-25T09:03:04Z</time>
      </trkpt>
      <trkpt lat="43.70915" lon="6.95943">
        <ele>813.8</ele>
        <time>2016-09-25T09:03:06Z</time>
      </trkpt>
      <trkpt lat="43.7092" lon="6.95947">
        <ele>813.7</ele>
        <time>2016-09-25T09:03:08Z</time>
      </trkpt>
      <trkpt lat="43.70922" lon="6.95949">
        <ele>813.5</ele>
        <time>2016-09-25T09:03:09Z</time>
      </trkpt>
      <trkpt lat="43.70925" lon="6.95952">
        <ele>813.4</ele>
        <time>2016-09-25T09:03:10Z</time>
      </trkpt>
      <trkpt lat="43.70927" lon="6.95955">
        <ele>813.2</ele>
        <time>2016-09-25T09:03:11Z</time>
      </trkpt>
      <trkpt lat="43.7093" lon="6.95957">
        <ele>813.1</ele>
        <time>2016-09-25T09:03:12Z</time>
      </trkpt>
      <trkpt lat="43.70932" lon="6.9596">
        <ele>812.9</ele>
        <time>2016-09-25T09:03:13Z</time>
      </trkpt>
      <trkpt lat="43.70933" lon="6.95963">
        <ele>812.6</ele>
        <time>2016-09-25T09:03:14Z</time>
      </trkpt>
      <trkpt lat="43.70935" lon="6.95967">
        <ele>812.3</ele>
        <time>2016-09-25T09:03:15Z</time>
      </trkpt>
      <trkpt lat="43.70937" lon="6.9597">
        <ele>812</ele>
        <time>2016-09-25T09:03:16Z</time>
      </trkpt>
      <trkpt lat="43.70939" lon="6.95974">
        <ele>811.7</ele>
        <time>2016-09-25T09:03:17Z</time>
      </trkpt>
      <trkpt lat="43.70941" lon="6.95978">
        <ele>811.4</ele>
        <time>2016-09-25T09:03:18Z</time>
      </trkpt>
      <trkpt lat="43.70943" lon="6.95981">
        <ele>811.2</ele>
        <time>2016-09-25T09:03:19Z</time>
      </trkpt>
      <trkpt lat="43.70945" lon="6.95986">
        <ele>810.7</ele>
        <time>2016-09-25T09:03:20Z</time>
      </trkpt>
      <trkpt lat="43.70947" lon="6.95991">
        <ele>810.3</ele>
        <time>2016-09-25T09:03:21Z</time>
      </trkpt>
      <trkpt lat="43.70948" lon="6.95997">
        <ele>809.8</ele>
        <time>2016-09-25T09:03:22Z</time>
      </trkpt>
      <trkpt lat="43.70946" lon="6.96009">
        <ele>808.9</ele>
        <time>2016-09-25T09:03:23Z</time>
      </trkpt>
      <trkpt lat="43.70944" lon="6.96015">
        <ele>808.4</ele>
        <time>2016-09-25T09:03:24Z</time>
      </trkpt>
      <trkpt lat="43.70943" lon="6.96021">
        <ele>807.8</ele>
        <time>2016-09-25T09:03:25Z</time>
      </trkpt>
      <trkpt lat="43.70943" lon="6.96028">
        <ele>807.3</ele>
        <time>2016-09-25T09:03:26Z</time>
      </trkpt>
      <trkpt lat="43.70942" lon="6.96033">
        <ele>806.9</ele>
        <time>2016-09-25T09:03:27Z</time>
      </trkpt>
      <trkpt lat="43.70942" lon="6.96038">
        <ele>806.5</ele>
        <time>2016-09-25T09:03:28Z</time>
      </trkpt>
      <trkpt lat="43.70944" lon="6.96044">
        <ele>806.1</ele>
        <time>2016-09-25T09:03:29Z</time>
      </trkpt>
      <trkpt lat="43.70945" lon="6.9605">
        <ele>805.8</ele>
        <time>2016-09-25T09:03:30Z</time>
      </trkpt>
      <trkpt lat="43.70949" lon="6.96056">
        <ele>805.4</ele>
        <time>2016-09-25T09:03:31Z</time>
      </trkpt>
      <trkpt lat="43.70948" lon="6.96062">
        <ele>805.1</ele>
        <time>2016-09-25T09:03:32Z</time>
      </trkpt>
      <trkpt lat="43.70949" lon="6.96071">
        <ele>804.7</ele>
        <time>2016-09-25T09:03:33Z</time>
      </trkpt>
      <trkpt lat="43.7095" lon="6.96078">
        <ele>804.3</ele>
        <time>2016-09-25T09:03:34Z</time>
      </trkpt>
      <trkpt lat="43.70951" lon="6.96086">
        <ele>803.9</ele>
        <time>2016-09-25T09:03:35Z</time>
      </trkpt>
      <trkpt lat="43.70954" lon="6.96096">
        <ele>803.4</ele>
        <time>2016-09-25T09:03:36Z</time>
      </trkpt>
      <trkpt lat="43.70957" lon="6.96103">
        <ele>803.1</ele>
        <time>2016-09-25T09:03:37Z</time>
      </trkpt>
      <trkpt lat="43.70961" lon="6.96108">
        <ele>802.8</ele>
        <time>2016-09-25T09:03:38Z</time>
      </trkpt>
      <trkpt lat="43.70965" lon="6.96115">
        <ele>802.4</ele>
        <time>2016-09-25T09:03:39Z</time>
      </trkpt>
      <trkpt lat="43.70969" lon="6.96123">
        <ele>802</ele>
        <time>2016-09-25T09:03:40Z</time>
      </trkpt>
      <trkpt lat="43.70972" lon="6.9613">
        <ele>801.5</ele>
        <time>2016-09-25T09:03:41Z</time>
      </trkpt>
      <trkpt lat="43.70977" lon="6.96138">
        <ele>801</ele>
        <time>2016-09-25T09:03:42Z</time>
      </trkpt>
      <trkpt lat="43.70983" lon="6.96144">
        <ele>800.4</ele>
        <time>2016-09-25T09:03:43Z</time>
      </trkpt>
      <trkpt lat="43.70988" lon="6.96148">
        <ele>800</ele>
        <time>2016-09-25T09:03:44Z</time>
      </trkpt>
      <trkpt lat="43.70992" lon="6.9615">
        <ele>799.6</ele>
        <time>2016-09-25T09:03:45Z</time>
      </trkpt>
      <trkpt lat="43.70993" lon="6.96157">
        <ele>799.1</ele>
        <time>2016-09-25T09:03:50Z</time>
      </trkpt>
      <trkpt lat="43.70993" lon="6.96161">
        <ele>798.8</ele>
        <time>2016-09-25T09:03:51Z</time>
      </trkpt>
      <trkpt lat="43.70994" lon="6.96165">
        <ele>798.4</ele>
        <time>2016-09-25T09:03:52Z</time>
      </trkpt>
      <trkpt lat="43.70997" lon="6.96168">
        <ele>798.1</ele>
        <time>2016-09-25T09:03:53Z</time>
      </trkpt>
      <trkpt lat="43.70999" lon="6.96172">
        <ele>797.6</ele>
        <time>2016-09-25T09:03:54Z</time>
      </trkpt>
      <trkpt lat="43.71003" lon="6.96176">
        <ele>797.1</ele>
        <time>2016-09-25T09:03:55Z</time>
      </trkpt>
      <trkpt lat="43.71004" lon="6.96182">
        <ele>796.5</ele>
        <time>2016-09-25T09:03:56Z</time>
      </trkpt>
      <trkpt lat="43.71005" lon="6.96186">
        <ele>796</ele>
        <time>2016-09-25T09:03:57Z</time>
      </trkpt>
      <trkpt lat="43.71007" lon="6.96191">
        <ele>795.5</ele>
        <time>2016-09-25T09:03:58Z</time>
      </trkpt>
      <trkpt lat="43.71008" lon="6.96195">
        <ele>795.1</ele>
        <time>2016-09-25T09:03:59Z</time>
      </trkpt>
      <trkpt lat="43.71009" lon="6.962">
        <ele>794.5</ele>
        <time>2016-09-25T09:04:00Z</time>
      </trkpt>
      <trkpt lat="43.7101" lon="6.96206">
        <ele>793.9</ele>
        <time>2016-09-25T09:04:01Z</time>
      </trkpt>
      <trkpt lat="43.71012" lon="6.96216">
        <ele>792.8</ele>
        <time>2016-09-25T09:04:02Z</time>
      </trkpt>
      <trkpt lat="43.71012" lon="6.96224">
        <ele>792</ele>
        <time>2016-09-25T09:04:03Z</time>
      </trkpt>
      <trkpt lat="43.71013" lon="6.96234">
        <ele>791</ele>
        <time>2016-09-25T09:04:04Z</time>
      </trkpt>
      <trkpt lat="43.71012" lon="6.96243">
        <ele>790.3</ele>
        <time>2016-09-25T09:04:05Z</time>
      </trkpt>
      <trkpt lat="43.71011" lon="6.96252">
        <ele>789.6</ele>
        <time>2016-09-25T09:04:06Z</time>
      </trkpt>
      <trkpt lat="43.71012" lon="6.96259">
        <ele>788.8</ele>
        <time>2016-09-25T09:04:07Z</time>
      </trkpt>
      <trkpt lat="43.71016" lon="6.96263">
        <ele>788.2</ele>
        <time>2016-09-25T09:04:08Z</time>
      </trkpt>
      <trkpt lat="43.7102" lon="6.9627">
        <ele>787.3</ele>
        <time>2016-09-25T09:04:09Z</time>
      </trkpt>
      <trkpt lat="43.71021" lon="6.96277">
        <ele>786.6</ele>
        <time>2016-09-25T09:04:10Z</time>
      </trkpt>
      <trkpt lat="43.71023" lon="6.96287">
        <ele>785.6</ele>
        <time>2016-09-25T09:04:11Z</time>
      </trkpt>
      <trkpt lat="43.71024" lon="6.96297">
        <ele>784.6</ele>
        <time>2016-09-25T09:04:12Z</time>
      </trkpt>
      <trkpt lat="43.71027" lon="6.96305">
        <ele>783.6</ele>
        <time>2016-09-25T09:04:13Z</time>
      </trkpt>
      <trkpt lat="43.71031" lon="6.96314">
        <ele>782.5</ele>
        <time>2016-09-25T09:04:14Z</time>
      </trkpt>
      <trkpt lat="43.71036" lon="6.96322">
        <ele>781.5</ele>
        <time>2016-09-25T09:04:15Z</time>
      </trkpt>
      <trkpt lat="43.71041" lon="6.96331">
        <ele>780.3</ele>
        <time>2016-09-25T09:04:16Z</time>
      </trkpt>
      <trkpt lat="43.71042" lon="6.96338">
        <ele>779.5</ele>
        <time>2016-09-25T09:04:17Z</time>
      </trkpt>
      <trkpt lat="43.71044" lon="6.96344">
        <ele>779</ele>
        <time>2016-09-25T09:04:18Z</time>
      </trkpt>
      <trkpt lat="43.71045" lon="6.96349">
        <ele>778.5</ele>
        <time>2016-09-25T09:04:19Z</time>
      </trkpt>
      <trkpt lat="43.71045" lon="6.96355">
        <ele>778</ele>
        <time>2016-09-25T09:04:20Z</time>
      </trkpt>
      <trkpt lat="43.71046" lon="6.96359">
        <ele>777.6</ele>
        <time>2016-09-25T09:04:21Z</time>
      </trkpt>
      <trkpt lat="43.71046" lon="6.96363">
        <ele>777.3</ele>
        <time>2016-09-25T09:04:22Z</time>
      </trkpt>
      <trkpt lat="43.71047" lon="6.96368">
        <ele>776.8</ele>
        <time>2016-09-25T09:04:23Z</time>
      </trkpt>
      <trkpt lat="43.71048" lon="6.96373">
        <ele>776.4</ele>
        <time>2016-09-25T09:04:24Z</time>
      </trkpt>
      <trkpt lat="43.71048" lon="6.96377">
        <ele>776</ele>
        <time>2016-09-25T09:04:25Z</time>
      </trkpt>
      <trkpt lat="43.71049" lon="6.96381">
        <ele>775.7</ele>
        <time>2016-09-25T09:04:26Z</time>
      </trkpt>
      <trkpt lat="43.71051" lon="6.96386">
        <ele>775.5</ele>
        <time>2016-09-25T09:04:27Z</time>
      </trkpt>
      <trkpt lat="43.71054" lon="6.9639">
        <ele>775.3</ele>
        <time>2016-09-25T09:04:28Z</time>
      </trkpt>
      <trkpt lat="43.71057" lon="6.96393">
        <ele>775.2</ele>
        <time>2016-09-25T09:04:29Z</time>
      </trkpt>
      <trkpt lat="43.71061" lon="6.96395">
        <ele>775.1</ele>
        <time>2016-09-25T09:04:30Z</time>
      </trkpt>
      <trkpt lat="43.71064" lon="6.96397">
        <ele>775.1</ele>
        <time>2016-09-25T09:04:31Z</time>
      </trkpt>
      <trkpt lat="43.71067" lon="6.96399">
        <ele>775.1</ele>
        <time>2016-09-25T09:04:32Z</time>
      </trkpt>
      <trkpt lat="43.7107" lon="6.964">
        <ele>775.1</ele>
        <time>2016-09-25T09:04:33Z</time>
      </trkpt>
      <trkpt lat="43.71074" lon="6.96402">
        <ele>775.1</ele>
        <time>2016-09-25T09:04:34Z</time>
      </trkpt>
      <trkpt lat="43.71077" lon="6.96404">
        <ele>775</ele>
        <time>2016-09-25T09:04:35Z</time>
      </trkpt>
      <trkpt lat="43.7108" lon="6.96406">
        <ele>775</ele>
        <time>2016-09-25T09:04:36Z</time>
      </trkpt>
      <trkpt lat="43.71083" lon="6.96408">
        <ele>775.1</ele>
        <time>2016-09-25T09:04:37Z</time>
      </trkpt>
      <trkpt lat="43.71087" lon="6.96408">
        <ele>775.1</ele>
        <time>2016-09-25T09:04:38Z</time>
      </trkpt>
      <trkpt lat="43.71091" lon="6.96407">
        <ele>775.3</ele>
        <time>2016-09-25T09:04:39Z</time>
      </trkpt>
      <trkpt lat="43.71094" lon="6.96404">
        <ele>775.6</ele>
        <time>2016-09-25T09:04:40Z</time>
      </trkpt>
      <trkpt lat="43.71098" lon="6.96399">
        <ele>776</ele>
        <time>2016-09-25T09:04:41Z</time>
      </trkpt>
      <trkpt lat="43.71102" lon="6.96399">
        <ele>776.1</ele>
        <time>2016-09-25T09:04:42Z</time>
      </trkpt>
      <trkpt lat="43.71105" lon="6.96402">
        <ele>776</ele>
        <time>2016-09-25T09:04:43Z</time>
      </trkpt>
      <trkpt lat="43.71107" lon="6.96406">
        <ele>775.9</ele>
        <time>2016-09-25T09:04:44Z</time>
      </trkpt>
      <trkpt lat="43.71109" lon="6.96411">
        <ele>775.7</ele>
        <time>2016-09-25T09:04:45Z</time>
      </trkpt>
      <trkpt lat="43.7111" lon="6.96416">
        <ele>775.5</ele>
        <time>2016-09-25T09:04:46Z</time>
      </trkpt>
      <trkpt lat="43.71112" lon="6.96421">
        <ele>775.3</ele>
        <time>2016-09-25T09:04:47Z</time>
      </trkpt>
      <trkpt lat="43.71115" lon="6.96426">
        <ele>775.2</ele>
        <time>2016-09-25T09:04:48Z</time>
      </trkpt>
      <trkpt lat="43.71118" lon="6.96431">
        <ele>775.1</ele>
        <time>2016-09-25T09:04:49Z</time>
      </trkpt>
      <trkpt lat="43.71121" lon="6.96436">
        <ele>774.9</ele>
        <time>2016-09-25T09:04:50Z</time>
      </trkpt>
      <trkpt lat="43.71123" lon="6.96442">
        <ele>774.7</ele>
        <time>2016-09-25T09:04:51Z</time>
      </trkpt>
      <trkpt lat="43.71125" lon="6.96448">
        <ele>774.5</ele>
        <time>2016-09-25T09:04:52Z</time>
      </trkpt>
      <trkpt lat="43.71128" lon="6.96454">
        <ele>774.4</ele>
        <time>2016-09-25T09:04:53Z</time>
      </trkpt>
      <trkpt lat="43.71131" lon="6.96458">
        <ele>774.4</ele>
        <time>2016-09-25T09:04:54Z</time>
      </trkpt>
      <trkpt lat="43.71134" lon="6.9646">
        <ele>774.4</ele>
        <time>2016-09-25T09:04:55Z</time>
      </trkpt>
      <trkpt lat="43.71137" lon="6.96462">
        <ele>774.6</ele>
        <time>2016-09-25T09:04:56Z</time>
      </trkpt>
      <trkpt lat="43.7114" lon="6.9646">
        <ele>774.8</ele>
        <time>2016-09-25T09:04:58Z</time>
      </trkpt>
      <trkpt lat="43.71144" lon="6.9646">
        <ele>775.1</ele>
        <time>2016-09-25T09:05:00Z</time>
      </trkpt>
      <trkpt lat="43.71146" lon="6.96462">
        <ele>775.1</ele>
        <time>2016-09-25T09:05:02Z</time>
      </trkpt>
      <trkpt lat="43.7115" lon="6.96466">
        <ele>775.1</ele>
        <time>2016-09-25T09:05:04Z</time>
      </trkpt>
      <trkpt lat="43.71154" lon="6.96469">
        <ele>775.2</ele>
        <time>2016-09-25T09:05:06Z</time>
      </trkpt>
      <trkpt lat="43.71157" lon="6.96471">
        <ele>775.3</ele>
        <time>2016-09-25T09:05:08Z</time>
      </trkpt>
      <trkpt lat="43.71161" lon="6.96472">
        <ele>775.4</ele>
        <time>2016-09-25T09:05:10Z</time>
      </trkpt>
      <trkpt lat="43.71164" lon="6.96473">
        <ele>775.6</ele>
        <time>2016-09-25T09:05:12Z</time>
      </trkpt>
      <trkpt lat="43.71168" lon="6.96474">
        <ele>775.7</ele>
        <time>2016-09-25T09:05:14Z</time>
      </trkpt>
      <trkpt lat="43.71171" lon="6.96476">
        <ele>775.8</ele>
        <time>2016-09-25T09:05:16Z</time>
      </trkpt>
      <trkpt lat="43.71175" lon="6.96478">
        <ele>775.9</ele>
        <time>2016-09-25T09:05:18Z</time>
      </trkpt>
      <trkpt lat="43.71178" lon="6.9648">
        <ele>776</ele>
        <time>2016-09-25T09:05:20Z</time>
      </trkpt>
      <trkpt lat="43.71181" lon="6.96481">
        <ele>776.1</ele>
        <time>2016-09-25T09:05:22Z</time>
      </trkpt>
      <trkpt lat="43.71185" lon="6.96483">
        <ele>776.2</ele>
        <time>2016-09-25T09:05:24Z</time>
      </trkpt>
      <trkpt lat="43.71188" lon="6.96484">
        <ele>776.3</ele>
        <time>2016-09-25T09:05:30Z</time>
      </trkpt>
      <trkpt lat="43.71191" lon="6.96484">
        <ele>776.5</ele>
        <time>2016-09-25T09:05:32Z</time>
      </trkpt>
      <trkpt lat="43.71195" lon="6.96484">
        <ele>776.7</ele>
        <time>2016-09-25T09:05:34Z</time>
      </trkpt>
      <trkpt lat="43.71199" lon="6.96484">
        <ele>776.9</ele>
        <time>2016-09-25T09:05:36Z</time>
      </trkpt>
      <trkpt lat="43.71202" lon="6.96485">
        <ele>777</ele>
        <time>2016-09-25T09:05:38Z</time>
      </trkpt>
      <trkpt lat="43.71206" lon="6.96486">
        <ele>777.2</ele>
        <time>2016-09-25T09:05:40Z</time>
      </trkpt>
      <trkpt lat="43.71209" lon="6.96487">
        <ele>777.3</ele>
        <time>2016-09-25T09:05:42Z</time>
      </trkpt>
      <trkpt lat="43.71213" lon="6.96489">
        <ele>777.2</ele>
        <time>2016-09-25T09:05:44Z</time>
      </trkpt>
      <trkpt lat="43.71215" lon="6.96489">
        <ele>777.3</ele>
        <time>2016-09-25T09:05:46Z</time>
      </trkpt>
      <trkpt lat="43.71218" lon="6.96487">
        <ele>777.4</ele>
        <time>2016-09-25T09:05:48Z</time>
      </trkpt>
      <trkpt lat="43.71219" lon="6.96484">
        <ele>777.6</ele>
        <time>2016-09-25T09:05:50Z</time>
      </trkpt>
      <trkpt lat="43.7122" lon="6.9648">
        <ele>777.8</ele>
        <time>2016-09-25T09:05:52Z</time>
      </trkpt>
      <trkpt lat="43.7122" lon="6.96476">
        <ele>778.1</ele>
        <time>2016-09-25T09:05:54Z</time>
      </trkpt>
      <trkpt lat="43.71219" lon="6.96472">
        <ele>778.3</ele>
        <time>2016-09-25T09:05:56Z</time>
      </trkpt>
      <trkpt lat="43.71219" lon="6.96468">
        <ele>778.5</ele>
        <time>2016-09-25T09:05:58Z</time>
      </trkpt>
      <trkpt lat="43.71218" lon="6.96463">
        <ele>778.8</ele>
        <time>2016-09-25T09:06:00Z</time>
      </trkpt>
      <trkpt lat="43.71217" lon="6.96458">
        <ele>779</ele>
        <time>2016-09-25T09:06:02Z</time>
      </trkpt>
      <trkpt lat="43.71215" lon="6.96452">
        <ele>779.2</ele>
        <time>2016-09-25T09:06:04Z</time>
      </trkpt>
      <trkpt lat="43.71213" lon="6.96447">
        <ele>779.4</ele>
        <time>2016-09-25T09:06:06Z</time>
      </trkpt>
      <trkpt lat="43.71211" lon="6.96441">
        <ele>779.6</ele>
        <time>2016-09-25T09:06:08Z</time>
      </trkpt>
      <trkpt lat="43.71208" lon="6.96436">
        <ele>779.8</ele>
        <time>2016-09-25T09:06:10Z</time>
      </trkpt>
      <trkpt lat="43.71205" lon="6.96431">
        <ele>779.8</ele>
        <time>2016-09-25T09:06:12Z</time>
      </trkpt>
      <trkpt lat="43.71202" lon="6.96426">
        <ele>779.8</ele>
        <time>2016-09-25T09:06:14Z</time>
      </trkpt>
      <trkpt lat="43.71198" lon="6.96422">
        <ele>779.8</ele>
        <time>2016-09-25T09:06:16Z</time>
      </trkpt>
      <trkpt lat="43.71195" lon="6.96417">
        <ele>779.8</ele>
        <time>2016-09-25T09:06:18Z</time>
      </trkpt>
      <trkpt lat="43.71192" lon="6.96413">
        <ele>779.8</ele>
        <time>2016-09-25T09:06:20Z</time>
      </trkpt>
      <trkpt lat="43.71189" lon="6.96408">
        <ele>779.8</ele>
        <time>2016-09-25T09:06:22Z</time>
      </trkpt>
      <trkpt lat="43.71187" lon="6.96403">
        <ele>779.9</ele>
        <time>2016-09-25T09:06:24Z</time>
      </trkpt>
      <trkpt lat="43.71184" lon="6.96398">
        <ele>779.9</ele>
        <time>2016-09-25T09:06:26Z</time>
      </trkpt>
      <trkpt lat="43.71181" lon="6.96392">
        <ele>780</ele>
        <time>2016-09-25T09:06:28Z</time>
      </trkpt>
      <trkpt lat="43.71179" lon="6.96387">
        <ele>780.1</ele>
        <time>2016-09-25T09:06:30Z</time>
      </trkpt>
      <trkpt lat="43.71177" lon="6.96381">
        <ele>780.2</ele>
        <time>2016-09-25T09:06:32Z</time>
      </trkpt>
      <trkpt lat="43.71175" lon="6.96376">
        <ele>780.4</ele>
        <time>2016-09-25T09:06:34Z</time>
      </trkpt>
      <trkpt lat="43.71172" lon="6.9637">
        <ele>780.6</ele>
        <time>2016-09-25T09:06:36Z</time>
      </trkpt>
      <trkpt lat="43.7117" lon="6.96364">
        <ele>780.9</ele>
        <time>2016-09-25T09:06:38Z</time>
      </trkpt>
      <trkpt lat="43.7117" lon="6.96358">
        <ele>781.4</ele>
        <time>2016-09-25T09:06:40Z</time>
      </trkpt>
      <trkpt lat="43.71168" lon="6.96352">
        <ele>781.7</ele>
        <time>2016-09-25T09:06:42Z</time>
      </trkpt>
      <trkpt lat="43.71167" lon="6.96346">
        <ele>782.1</ele>
        <time>2016-09-25T09:06:44Z</time>
      </trkpt>
      <trkpt lat="43.71165" lon="6.96341">
        <ele>782.4</ele>
        <time>2016-09-25T09:06:46Z</time>
      </trkpt>
      <trkpt lat="43.71165" lon="6.96336">
        <ele>782.7</ele>
        <time>2016-09-25T09:06:48Z</time>
      </trkpt>
      <trkpt lat="43.71164" lon="6.96331">
        <ele>783</ele>
        <time>2016-09-25T09:06:50Z</time>
      </trkpt>
      <trkpt lat="43.71163" lon="6.96327">
        <ele>783.3</ele>
        <time>2016-09-25T09:06:52Z</time>
      </trkpt>
      <trkpt lat="43.71162" lon="6.96323">
        <ele>783.6</ele>
        <time>2016-09-25T09:06:54Z</time>
      </trkpt>
      <trkpt lat="43.71162" lon="6.96319">
        <ele>783.9</ele>
        <time>2016-09-25T09:06:56Z</time>
      </trkpt>
      <trkpt lat="43.71162" lon="6.96314">
        <ele>784.2</ele>
        <time>2016-09-25T09:06:58Z</time>
      </trkpt>
      <trkpt lat="43.71163" lon="6.9631">
        <ele>784.6</ele>
        <time>2016-09-25T09:07:00Z</time>
      </trkpt>
      <trkpt lat="43.71164" lon="6.96306">
        <ele>784.9</ele>
        <time>2016-09-25T09:07:02Z</time>
      </trkpt>
      <trkpt lat="43.71164" lon="6.96301">
        <ele>785.2</ele>
        <time>2016-09-25T09:07:05Z</time>
      </trkpt>
      <trkpt lat="43.71164" lon="6.96296">
        <ele>785.6</ele>
        <time>2016-09-25T09:07:08Z</time>
      </trkpt>
      <trkpt lat="43.71163" lon="6.9629">
        <ele>786</ele>
        <time>2016-09-25T09:07:11Z</time>
      </trkpt>
      <trkpt lat="43.71163" lon="6.96286">
        <ele>786.4</ele>
        <time>2016-09-25T09:07:13Z</time>
      </trkpt>
      <trkpt lat="43.71163" lon="6.96281">
        <ele>786.8</ele>
        <time>2016-09-25T09:07:15Z</time>
      </trkpt>
      <trkpt lat="43.71162" lon="6.96277">
        <ele>787.2</ele>
        <time>2016-09-25T09:07:17Z</time>
      </trkpt>
      <trkpt lat="43.71162" lon="6.96273">
        <ele>787.6</ele>
        <time>2016-09-25T09:07:19Z</time>
      </trkpt>
      <trkpt lat="43.71164" lon="6.96269">
        <ele>787.9</ele>
        <time>2016-09-25T09:07:21Z</time>
      </trkpt>
      <trkpt lat="43.71166" lon="6.96267">
        <ele>788.2</ele>
        <time>2016-09-25T09:07:23Z</time>
      </trkpt>
      <trkpt lat="43.71169" lon="6.96266">
        <ele>788.4</ele>
        <time>2016-09-25T09:07:25Z</time>
      </trkpt>
      <trkpt lat="43.71172" lon="6.96266">
        <ele>788.4</ele>
        <time>2016-09-25T09:07:27Z</time>
      </trkpt>
      <trkpt lat="43.71175" lon="6.9627">
        <ele>788.1</ele>
        <time>2016-09-25T09:07:29Z</time>
      </trkpt>
      <trkpt lat="43.71177" lon="6.96274">
        <ele>787.8</ele>
        <time>2016-09-25T09:07:31Z</time>
      </trkpt>
      <trkpt lat="43.71179" lon="6.96278">
        <ele>787.5</ele>
        <time>2016-09-25T09:07:33Z</time>
      </trkpt>
      <trkpt lat="43.71182" lon="6.96282">
        <ele>787.3</ele>
        <time>2016-09-25T09:07:35Z</time>
      </trkpt>
      <trkpt lat="43.71185" lon="6.96284">
        <ele>787.1</ele>
        <time>2016-09-25T09:07:37Z</time>
      </trkpt>
      <trkpt lat="43.71189" lon="6.96287">
        <ele>787</ele>
        <time>2016-09-25T09:07:39Z</time>
      </trkpt>
      <trkpt lat="43.71192" lon="6.96289">
        <ele>786.9</ele>
        <time>2016-09-25T09:07:41Z</time>
      </trkpt>
      <trkpt lat="43.71195" lon="6.96291">
        <ele>786.8</ele>
        <time>2016-09-25T09:07:43Z</time>
      </trkpt>
      <trkpt lat="43.71199" lon="6.96292">
        <ele>786.7</ele>
        <time>2016-09-25T09:07:45Z</time>
      </trkpt>
      <trkpt lat="43.71202" lon="6.96293">
        <ele>786.7</ele>
        <time>2016-09-25T09:07:47Z</time>
      </trkpt>
      <trkpt lat="43.71205" lon="6.96294">
        <ele>786.8</ele>
        <time>2016-09-25T09:07:49Z</time>
      </trkpt>
      <trkpt lat="43.71208" lon="6.96295">
        <ele>786.8</ele>
        <time>2016-09-25T09:07:51Z</time>
      </trkpt>
      <trkpt lat="43.71212" lon="6.96294">
        <ele>787.1</ele>
        <time>2016-09-25T09:07:53Z</time>
      </trkpt>
      <trkpt lat="43.71215" lon="6.96293">
        <ele>787.4</ele>
        <time>2016-09-25T09:07:55Z</time>
      </trkpt>
      <trkpt lat="43.71219" lon="6.96291">
        <ele>787.8</ele>
        <time>2016-09-25T09:07:57Z</time>
      </trkpt>
      <trkpt lat="43.71223" lon="6.96289">
        <ele>788.3</ele>
        <time>2016-09-25T09:07:59Z</time>
      </trkpt>
      <trkpt lat="43.71227" lon="6.96287">
        <ele>788.7</ele>
        <time>2016-09-25T09:08:01Z</time>
      </trkpt>
      <trkpt lat="43.71232" lon="6.96285">
        <ele>789.2</ele>
        <time>2016-09-25T09:08:03Z</time>
      </trkpt>
      <trkpt lat="43.71236" lon="6.96284">
        <ele>789.6</ele>
        <time>2016-09-25T09:08:05Z</time>
      </trkpt>
      <trkpt lat="43.7124" lon="6.96283">
        <ele>789.9</ele>
        <time>2016-09-25T09:08:07Z</time>
      </trkpt>
      <trkpt lat="43.71245" lon="6.96282">
        <ele>790.3</ele>
        <time>2016-09-25T09:08:09Z</time>
      </trkpt>
      <trkpt lat="43.71249" lon="6.96282">
        <ele>790.6</ele>
        <time>2016-09-25T09:08:11Z</time>
      </trkpt>
      <trkpt lat="43.71253" lon="6.96282">
        <ele>790.9</ele>
        <time>2016-09-25T09:08:13Z</time>
      </trkpt>
      <trkpt lat="43.71258" lon="6.96282">
        <ele>791.1</ele>
        <time>2016-09-25T09:08:15Z</time>
      </trkpt>
      <trkpt lat="43.71262" lon="6.96283">
        <ele>791.4</ele>
        <time>2016-09-25T09:08:17Z</time>
      </trkpt>
      <trkpt lat="43.71266" lon="6.96282">
        <ele>791.7</ele>
        <time>2016-09-25T09:08:19Z</time>
      </trkpt>
      <trkpt lat="43.71271" lon="6.96281">
        <ele>792.1</ele>
        <time>2016-09-25T09:08:21Z</time>
      </trkpt>
      <trkpt lat="43.71275" lon="6.9628">
        <ele>792.5</ele>
        <time>2016-09-25T09:08:23Z</time>
      </trkpt>
      <trkpt lat="43.7128" lon="6.96278">
        <ele>792.9</ele>
        <time>2016-09-25T09:08:25Z</time>
      </trkpt>
      <trkpt lat="43.71286" lon="6.96277">
        <ele>793.3</ele>
        <time>2016-09-25T09:08:27Z</time>
      </trkpt>
      <trkpt lat="43.71288" lon="6.96277">
        <ele>793.5</ele>
        <time>2016-09-25T09:08:28Z</time>
      </trkpt>
      <trkpt lat="43.71291" lon="6.96277">
        <ele>793.7</ele>
        <time>2016-09-25T09:08:29Z</time>
      </trkpt>
      <trkpt lat="43.71294" lon="6.96278">
        <ele>793.8</ele>
        <time>2016-09-25T09:08:30Z</time>
      </trkpt>
      <trkpt lat="43.71296" lon="6.96279">
        <ele>793.8</ele>
        <time>2016-09-25T09:08:31Z</time>
      </trkpt>
      <trkpt lat="43.71299" lon="6.96281">
        <ele>793.8</ele>
        <time>2016-09-25T09:08:32Z</time>
      </trkpt>
      <trkpt lat="43.71303" lon="6.96285">
        <ele>793.7</ele>
        <time>2016-09-25T09:08:34Z</time>
      </trkpt>
      <trkpt lat="43.71306" lon="6.96291">
        <ele>793.6</ele>
        <time>2016-09-25T09:08:36Z</time>
      </trkpt>
      <trkpt lat="43.7131" lon="6.96295">
        <ele>793.2</ele>
        <time>2016-09-25T09:08:38Z</time>
      </trkpt>
      <trkpt lat="43.71314" lon="6.963">
        <ele>792.9</ele>
        <time>2016-09-25T09:08:40Z</time>
      </trkpt>
      <trkpt lat="43.71316" lon="6.96302">
        <ele>792.8</ele>
        <time>2016-09-25T09:08:41Z</time>
      </trkpt>
      <trkpt lat="43.71319" lon="6.96304">
        <ele>792.7</ele>
        <time>2016-09-25T09:08:42Z</time>
      </trkpt>
      <trkpt lat="43.71322" lon="6.96305">
        <ele>792.6</ele>
        <time>2016-09-25T09:08:43Z</time>
      </trkpt>
      <trkpt lat="43.71325" lon="6.96306">
        <ele>792.6</ele>
        <time>2016-09-25T09:08:44Z</time>
      </trkpt>
      <trkpt lat="43.71328" lon="6.96307">
        <ele>792.6</ele>
        <time>2016-09-25T09:08:45Z</time>
      </trkpt>
      <trkpt lat="43.71332" lon="6.96309">
        <ele>792.6</ele>
        <time>2016-09-25T09:08:46Z</time>
      </trkpt>
      <trkpt lat="43.71335" lon="6.9631">
        <ele>792.6</ele>
        <time>2016-09-25T09:08:47Z</time>
      </trkpt>
      <trkpt lat="43.71339" lon="6.96311">
        <ele>792.6</ele>
        <time>2016-09-25T09:08:48Z</time>
      </trkpt>
      <trkpt lat="43.71342" lon="6.96313">
        <ele>792.6</ele>
        <time>2016-09-25T09:08:49Z</time>
      </trkpt>
      <trkpt lat="43.71346" lon="6.96314">
        <ele>792.5</ele>
        <time>2016-09-25T09:08:50Z</time>
      </trkpt>
      <trkpt lat="43.71349" lon="6.96315">
        <ele>792.5</ele>
        <time>2016-09-25T09:08:51Z</time>
      </trkpt>
      <trkpt lat="43.71353" lon="6.96317">
        <ele>792.4</ele>
        <time>2016-09-25T09:08:52Z</time>
      </trkpt>
      <trkpt lat="43.71356" lon="6.96319">
        <ele>792.3</ele>
        <time>2016-09-25T09:08:53Z</time>
      </trkpt>
      <trkpt lat="43.7136" lon="6.96322">
        <ele>792.2</ele>
        <time>2016-09-25T09:08:54Z</time>
      </trkpt>
      <trkpt lat="43.71363" lon="6.96325">
        <ele>792</ele>
        <time>2016-09-25T09:08:55Z</time>
      </trkpt>
      <trkpt lat="43.71366" lon="6.96328">
        <ele>791.8</ele>
        <time>2016-09-25T09:08:56Z</time>
      </trkpt>
      <trkpt lat="43.71369" lon="6.96331">
        <ele>791.5</ele>
        <time>2016-09-25T09:08:57Z</time>
      </trkpt>
      <trkpt lat="43.71372" lon="6.96335">
        <ele>791.2</ele>
        <time>2016-09-25T09:08:58Z</time>
      </trkpt>
      <trkpt lat="43.71375" lon="6.96339">
        <ele>790.9</ele>
        <time>2016-09-25T09:08:59Z</time>
      </trkpt>
      <trkpt lat="43.71377" lon="6.96343">
        <ele>790.6</ele>
        <time>2016-09-25T09:09:00Z</time>
      </trkpt>
      <trkpt lat="43.7138" lon="6.96347">
        <ele>790.4</ele>
        <time>2016-09-25T09:09:01Z</time>
      </trkpt>
      <trkpt lat="43.71382" lon="6.96351">
        <ele>790.1</ele>
        <time>2016-09-25T09:09:02Z</time>
      </trkpt>
      <trkpt lat="43.71384" lon="6.96356">
        <ele>789.8</ele>
        <time>2016-09-25T09:09:03Z</time>
      </trkpt>
      <trkpt lat="43.71386" lon="6.9636">
        <ele>789.5</ele>
        <time>2016-09-25T09:09:04Z</time>
      </trkpt>
      <trkpt lat="43.71389" lon="6.96364">
        <ele>789.3</ele>
        <time>2016-09-25T09:09:05Z</time>
      </trkpt>
      <trkpt lat="43.71391" lon="6.96368">
        <ele>789</ele>
        <time>2016-09-25T09:09:06Z</time>
      </trkpt>
      <trkpt lat="43.71394" lon="6.96372">
        <ele>788.8</ele>
        <time>2016-09-25T09:09:07Z</time>
      </trkpt>
      <trkpt lat="43.71396" lon="6.96376">
        <ele>788.7</ele>
        <time>2016-09-25T09:09:08Z</time>
      </trkpt>
      <trkpt lat="43.71399" lon="6.9638">
        <ele>788.6</ele>
        <time>2016-09-25T09:09:09Z</time>
      </trkpt>
      <trkpt lat="43.71401" lon="6.96385">
        <ele>788.6</ele>
        <time>2016-09-25T09:09:10Z</time>
      </trkpt>
      <trkpt lat="43.71403" lon="6.96389">
        <ele>788.5</ele>
        <time>2016-09-25T09:09:11Z</time>
      </trkpt>
      <trkpt lat="43.71406" lon="6.96393">
        <ele>788.4</ele>
        <time>2016-09-25T09:09:12Z</time>
      </trkpt>
      <trkpt lat="43.71408" lon="6.96397">
        <ele>788.4</ele>
        <time>2016-09-25T09:09:13Z</time>
      </trkpt>
      <trkpt lat="43.7141" lon="6.96401">
        <ele>788.3</ele>
        <time>2016-09-25T09:09:14Z</time>
      </trkpt>
      <trkpt lat="43.71412" lon="6.96405">
        <ele>788.2</ele>
        <time>2016-09-25T09:09:15Z</time>
      </trkpt>
      <trkpt lat="43.71414" lon="6.96409">
        <ele>788.1</ele>
        <time>2016-09-25T09:09:16Z</time>
      </trkpt>
      <trkpt lat="43.71416" lon="6.96413">
        <ele>788</ele>
        <time>2016-09-25T09:09:17Z</time>
      </trkpt>
      <trkpt lat="43.71419" lon="6.96417">
        <ele>787.9</ele>
        <time>2016-09-25T09:09:18Z</time>
      </trkpt>
      <trkpt lat="43.71421" lon="6.96421">
        <ele>787.8</ele>
        <time>2016-09-25T09:09:19Z</time>
      </trkpt>
      <trkpt lat="43.71423" lon="6.96424">
        <ele>787.7</ele>
        <time>2016-09-25T09:09:20Z</time>
      </trkpt>
      <trkpt lat="43.71425" lon="6.96428">
        <ele>787.6</ele>
        <time>2016-09-25T09:09:21Z</time>
      </trkpt>
      <trkpt lat="43.71427" lon="6.96432">
        <ele>787.5</ele>
        <time>2016-09-25T09:09:22Z</time>
      </trkpt>
      <trkpt lat="43.71428" lon="6.96435">
        <ele>787.4</ele>
        <time>2016-09-25T09:09:23Z</time>
      </trkpt>
      <trkpt lat="43.7143" lon="6.96439">
        <ele>787.2</ele>
        <time>2016-09-25T09:09:24Z</time>
      </trkpt>
      <trkpt lat="43.71431" lon="6.96444">
        <ele>787</ele>
        <time>2016-09-25T09:09:25Z</time>
      </trkpt>
      <trkpt lat="43.71432" lon="6.96449">
        <ele>786.8</ele>
        <time>2016-09-25T09:09:26Z</time>
      </trkpt>
      <trkpt lat="43.71433" lon="6.96454">
        <ele>786.5</ele>
        <time>2016-09-25T09:09:27Z</time>
      </trkpt>
      <trkpt lat="43.71433" lon="6.96459">
        <ele>786.2</ele>
        <time>2016-09-25T09:09:28Z</time>
      </trkpt>
      <trkpt lat="43.71433" lon="6.96464">
        <ele>786.1</ele>
        <time>2016-09-25T09:09:29Z</time>
      </trkpt>
      <trkpt lat="43.71433" lon="6.9647">
        <ele>786</ele>
        <time>2016-09-25T09:09:30Z</time>
      </trkpt>
      <trkpt lat="43.71432" lon="6.96476">
        <ele>785.9</ele>
        <time>2016-09-25T09:09:31Z</time>
      </trkpt>
      <trkpt lat="43.71432" lon="6.96481">
        <ele>785.7</ele>
        <time>2016-09-25T09:09:32Z</time>
      </trkpt>
      <trkpt lat="43.71432" lon="6.96487">
        <ele>785.6</ele>
        <time>2016-09-25T09:09:33Z</time>
      </trkpt>
      <trkpt lat="43.71431" lon="6.96492">
        <ele>785.5</ele>
        <time>2016-09-25T09:09:34Z</time>
      </trkpt>
      <trkpt lat="43.7143" lon="6.96497">
        <ele>785.3</ele>
        <time>2016-09-25T09:09:35Z</time>
      </trkpt>
      <trkpt lat="43.71429" lon="6.96502">
        <ele>785.2</ele>
        <time>2016-09-25T09:09:36Z</time>
      </trkpt>
      <trkpt lat="43.71429" lon="6.96508">
        <ele>785.1</ele>
        <time>2016-09-25T09:09:37Z</time>
      </trkpt>
      <trkpt lat="43.71428" lon="6.96513">
        <ele>785</ele>
        <time>2016-09-25T09:09:38Z</time>
      </trkpt>
      <trkpt lat="43.71428" lon="6.96517">
        <ele>784.8</ele>
        <time>2016-09-25T09:09:39Z</time>
      </trkpt>
      <trkpt lat="43.71428" lon="6.96522">
        <ele>784.7</ele>
        <time>2016-09-25T09:09:40Z</time>
      </trkpt>
      <trkpt lat="43.71428" lon="6.96527">
        <ele>784.7</ele>
        <time>2016-09-25T09:09:41Z</time>
      </trkpt>
      <trkpt lat="43.71429" lon="6.96532">
        <ele>784.7</ele>
        <time>2016-09-25T09:09:42Z</time>
      </trkpt>
      <trkpt lat="43.71429" lon="6.96536">
        <ele>784.7</ele>
        <time>2016-09-25T09:09:43Z</time>
      </trkpt>
      <trkpt lat="43.71431" lon="6.96541">
        <ele>784.7</ele>
        <time>2016-09-25T09:09:44Z</time>
      </trkpt>
      <trkpt lat="43.71432" lon="6.96545">
        <ele>784.7</ele>
        <time>2016-09-25T09:09:45Z</time>
      </trkpt>
      <trkpt lat="43.71434" lon="6.96549">
        <ele>784.8</ele>
        <time>2016-09-25T09:09:46Z</time>
      </trkpt>
      <trkpt lat="43.71435" lon="6.96554">
        <ele>784.8</ele>
        <time>2016-09-25T09:09:47Z</time>
      </trkpt>
      <trkpt lat="43.71437" lon="6.96558">
        <ele>784.9</ele>
        <time>2016-09-25T09:09:48Z</time>
      </trkpt>
      <trkpt lat="43.71439" lon="6.96563">
        <ele>784.9</ele>
        <time>2016-09-25T09:09:49Z</time>
      </trkpt>
      <trkpt lat="43.7144" lon="6.96568">
        <ele>784.9</ele>
        <time>2016-09-25T09:09:50Z</time>
      </trkpt>
      <trkpt lat="43.71442" lon="6.96572">
        <ele>784.9</ele>
        <time>2016-09-25T09:09:51Z</time>
      </trkpt>
      <trkpt lat="43.71443" lon="6.96577">
        <ele>785</ele>
        <time>2016-09-25T09:09:52Z</time>
      </trkpt>
      <trkpt lat="43.71445" lon="6.96581">
        <ele>785</ele>
        <time>2016-09-25T09:09:53Z</time>
      </trkpt>
      <trkpt lat="43.71446" lon="6.96586">
        <ele>785</ele>
        <time>2016-09-25T09:09:54Z</time>
      </trkpt>
      <trkpt lat="43.71447" lon="6.9659">
        <ele>785</ele>
        <time>2016-09-25T09:09:55Z</time>
      </trkpt>
      <trkpt lat="43.71448" lon="6.96594">
        <ele>784.9</ele>
        <time>2016-09-25T09:09:56Z</time>
      </trkpt>
      <trkpt lat="43.71448" lon="6.96598">
        <ele>784.8</ele>
        <time>2016-09-25T09:09:57Z</time>
      </trkpt>
      <trkpt lat="43.71448" lon="6.96603">
        <ele>784.8</ele>
        <time>2016-09-25T09:09:58Z</time>
      </trkpt>
      <trkpt lat="43.71449" lon="6.96608">
        <ele>784.7</ele>
        <time>2016-09-25T09:09:59Z</time>
      </trkpt>
      <trkpt lat="43.71449" lon="6.96612">
        <ele>784.6</ele>
        <time>2016-09-25T09:10:00Z</time>
      </trkpt>
      <trkpt lat="43.7145" lon="6.96617">
        <ele>784.6</ele>
        <time>2016-09-25T09:10:01Z</time>
      </trkpt>
      <trkpt lat="43.7145" lon="6.96621">
        <ele>784.5</ele>
        <time>2016-09-25T09:10:02Z</time>
      </trkpt>
      <trkpt lat="43.7145" lon="6.96625">
        <ele>784.4</ele>
        <time>2016-09-25T09:10:03Z</time>
      </trkpt>
      <trkpt lat="43.7145" lon="6.96629">
        <ele>784.4</ele>
        <time>2016-09-25T09:10:04Z</time>
      </trkpt>
      <trkpt lat="43.7145" lon="6.96634">
        <ele>784.3</ele>
        <time>2016-09-25T09:10:05Z</time>
      </trkpt>
      <trkpt lat="43.7145" lon="6.96638">
        <ele>784.2</ele>
        <time>2016-09-25T09:10:06Z</time>
      </trkpt>
      <trkpt lat="43.71449" lon="6.96642">
        <ele>784.1</ele>
        <time>2016-09-25T09:10:07Z</time>
      </trkpt>
      <trkpt lat="43.71449" lon="6.96647">
        <ele>784</ele>
        <time>2016-09-25T09:10:08Z</time>
      </trkpt>
      <trkpt lat="43.71449" lon="6.96652">
        <ele>784</ele>
        <time>2016-09-25T09:10:09Z</time>
      </trkpt>
      <trkpt lat="43.71449" lon="6.96656">
        <ele>783.9</ele>
        <time>2016-09-25T09:10:10Z</time>
      </trkpt>
      <trkpt lat="43.7145" lon="6.96661">
        <ele>783.8</ele>
        <time>2016-09-25T09:10:11Z</time>
      </trkpt>
      <trkpt lat="43.7145" lon="6.96665">
        <ele>783.8</ele>
        <time>2016-09-25T09:10:12Z</time>
      </trkpt>
      <trkpt lat="43.71451" lon="6.96669">
        <ele>783.9</ele>
        <time>2016-09-25T09:10:13Z</time>
      </trkpt>
      <trkpt lat="43.71453" lon="6.96673">
        <ele>783.9</ele>
        <time>2016-09-25T09:10:14Z</time>
      </trkpt>
      <trkpt lat="43.71454" lon="6.96677">
        <ele>784</ele>
        <time>2016-09-25T09:10:15Z</time>
      </trkpt>
      <trkpt lat="43.71456" lon="6.96681">
        <ele>784.1</ele>
        <time>2016-09-25T09:10:16Z</time>
      </trkpt>
      <trkpt lat="43.71458" lon="6.96685">
        <ele>784.2</ele>
        <time>2016-09-25T09:10:17Z</time>
      </trkpt>
      <trkpt lat="43.71459" lon="6.96688">
        <ele>784.3</ele>
        <time>2016-09-25T09:10:18Z</time>
      </trkpt>
      <trkpt lat="43.71462" lon="6.96692">
        <ele>784.4</ele>
        <time>2016-09-25T09:10:19Z</time>
      </trkpt>
      <trkpt lat="43.71464" lon="6.96695">
        <ele>784.5</ele>
        <time>2016-09-25T09:10:20Z</time>
      </trkpt>
      <trkpt lat="43.71466" lon="6.96699">
        <ele>784.6</ele>
        <time>2016-09-25T09:10:21Z</time>
      </trkpt>
      <trkpt lat="43.71467" lon="6.96703">
        <ele>784.6</ele>
        <time>2016-09-25T09:10:22Z</time>
      </trkpt>
      <trkpt lat="43.71469" lon="6.96707">
        <ele>784.7</ele>
        <time>2016-09-25T09:10:23Z</time>
      </trkpt>
      <trkpt lat="43.71471" lon="6.96711">
        <ele>784.7</ele>
        <time>2016-09-25T09:10:24Z</time>
      </trkpt>
      <trkpt lat="43.71473" lon="6.96715">
        <ele>784.6</ele>
        <time>2016-09-25T09:10:25Z</time>
      </trkpt>
      <trkpt lat="43.71475" lon="6.96719">
        <ele>784.6</ele>
        <time>2016-09-25T09:10:26Z</time>
      </trkpt>
      <trkpt lat="43.71476" lon="6.96723">
        <ele>784.6</ele>
        <time>2016-09-25T09:10:27Z</time>
      </trkpt>
      <trkpt lat="43.71478" lon="6.96727">
        <ele>784.5</ele>
        <time>2016-09-25T09:10:28Z</time>
      </trkpt>
      <trkpt lat="43.7148" lon="6.96731">
        <ele>784.5</ele>
        <time>2016-09-25T09:10:29Z</time>
      </trkpt>
      <trkpt lat="43.71482" lon="6.96735">
        <ele>784.5</ele>
        <time>2016-09-25T09:10:30Z</time>
      </trkpt>
      <trkpt lat="43.71484" lon="6.96738">
        <ele>784.4</ele>
        <time>2016-09-25T09:10:31Z</time>
      </trkpt>
      <trkpt lat="43.71486" lon="6.96742">
        <ele>784.4</ele>
        <time>2016-09-25T09:10:32Z</time>
      </trkpt>
      <trkpt lat="43.71488" lon="6.96745">
        <ele>784.5</ele>
        <time>2016-09-25T09:10:33Z</time>
      </trkpt>
      <trkpt lat="43.71491" lon="6.96748">
        <ele>784.5</ele>
        <time>2016-09-25T09:10:34Z</time>
      </trkpt>
      <trkpt lat="43.71493" lon="6.9675">
        <ele>784.6</ele>
        <time>2016-09-25T09:10:35Z</time>
      </trkpt>
      <trkpt lat="43.71496" lon="6.96752">
        <ele>784.7</ele>
        <time>2016-09-25T09:10:36Z</time>
      </trkpt>
      <trkpt lat="43.71499" lon="6.96754">
        <ele>784.8</ele>
        <time>2016-09-25T09:10:37Z</time>
      </trkpt>
      <trkpt lat="43.71502" lon="6.96755">
        <ele>784.9</ele>
        <time>2016-09-25T09:10:38Z</time>
      </trkpt>
      <trkpt lat="43.71505" lon="6.96756">
        <ele>785.1</ele>
        <time>2016-09-25T09:10:39Z</time>
      </trkpt>
      <trkpt lat="43.71508" lon="6.96757">
        <ele>785.2</ele>
        <time>2016-09-25T09:10:40Z</time>
      </trkpt>
      <trkpt lat="43.71511" lon="6.96757">
        <ele>785.4</ele>
        <time>2016-09-25T09:10:41Z</time>
      </trkpt>
      <trkpt lat="43.71514" lon="6.96758">
        <ele>785.6</ele>
        <time>2016-09-25T09:10:42Z</time>
      </trkpt>
      <trkpt lat="43.71517" lon="6.96757">
        <ele>785.8</ele>
        <time>2016-09-25T09:10:43Z</time>
      </trkpt>
      <trkpt lat="43.7152" lon="6.96756">
        <ele>786</ele>
        <time>2016-09-25T09:10:44Z</time>
      </trkpt>
      <trkpt lat="43.71524" lon="6.96755">
        <ele>786.2</ele>
        <time>2016-09-25T09:10:45Z</time>
      </trkpt>
      <trkpt lat="43.71527" lon="6.96754">
        <ele>786.5</ele>
        <time>2016-09-25T09:10:46Z</time>
      </trkpt>
      <trkpt lat="43.7153" lon="6.96752">
        <ele>786.7</ele>
        <time>2016-09-25T09:10:47Z</time>
      </trkpt>
      <trkpt lat="43.71534" lon="6.96751">
        <ele>787</ele>
        <time>2016-09-25T09:10:48Z</time>
      </trkpt>
      <trkpt lat="43.71537" lon="6.96749">
        <ele>787.3</ele>
        <time>2016-09-25T09:10:49Z</time>
      </trkpt>
      <trkpt lat="43.71541" lon="6.96747">
        <ele>787.6</ele>
        <time>2016-09-25T09:10:50Z</time>
      </trkpt>
      <trkpt lat="43.71546" lon="6.96745">
        <ele>787.2</ele>
        <time>2016-09-25T09:10:51Z</time>
      </trkpt>
      <trkpt lat="43.71552" lon="6.96741">
        <ele>786.7</ele>
        <time>2016-09-25T09:10:52Z</time>
      </trkpt>
      <trkpt lat="43.71556" lon="6.96738">
        <ele>786.3</ele>
        <time>2016-09-25T09:10:53Z</time>
      </trkpt>
      <trkpt lat="43.7156" lon="6.96733">
        <ele>786</ele>
        <time>2016-09-25T09:10:54Z</time>
      </trkpt>
      <trkpt lat="43.71564" lon="6.96728">
        <ele>785.7</ele>
        <time>2016-09-25T09:10:55Z</time>
      </trkpt>
      <trkpt lat="43.71567" lon="6.96722">
        <ele>785.5</ele>
        <time>2016-09-25T09:10:56Z</time>
      </trkpt>
      <trkpt lat="43.71571" lon="6.96715">
        <ele>785.3</ele>
        <time>2016-09-25T09:10:57Z</time>
      </trkpt>
      <trkpt lat="43.71574" lon="6.96708">
        <ele>785.1</ele>
        <time>2016-09-25T09:10:58Z</time>
      </trkpt>
      <trkpt lat="43.71576" lon="6.967">
        <ele>785.3</ele>
        <time>2016-09-25T09:10:59Z</time>
      </trkpt>
      <trkpt lat="43.71579" lon="6.96691">
        <ele>785.5</ele>
        <time>2016-09-25T09:11:00Z</time>
      </trkpt>
      <trkpt lat="43.71582" lon="6.96683">
        <ele>785.6</ele>
        <time>2016-09-25T09:11:01Z</time>
      </trkpt>
      <trkpt lat="43.71587" lon="6.96676">
        <ele>785.6</ele>
        <time>2016-09-25T09:11:02Z</time>
      </trkpt>
      <trkpt lat="43.71591" lon="6.96668">
        <ele>785.8</ele>
        <time>2016-09-25T09:11:03Z</time>
      </trkpt>
      <trkpt lat="43.71595" lon="6.96659">
        <ele>786</ele>
        <time>2016-09-25T09:11:04Z</time>
      </trkpt>
      <trkpt lat="43.71599" lon="6.96651">
        <ele>786.4</ele>
        <time>2016-09-25T09:11:05Z</time>
      </trkpt>
      <trkpt lat="43.71602" lon="6.96643">
        <ele>786.8</ele>
        <time>2016-09-25T09:11:06Z</time>
      </trkpt>
      <trkpt lat="43.71606" lon="6.96634">
        <ele>787.2</ele>
        <time>2016-09-25T09:11:07Z</time>
      </trkpt>
      <trkpt lat="43.7161" lon="6.96626">
        <ele>787.6</ele>
        <time>2016-09-25T09:11:08Z</time>
      </trkpt>
      <trkpt lat="43.71614" lon="6.96619">
        <ele>787.9</ele>
        <time>2016-09-25T09:11:09Z</time>
      </trkpt>
      <trkpt lat="43.71618" lon="6.96611">
        <ele>788.3</ele>
        <time>2016-09-25T09:11:10Z</time>
      </trkpt>
      <trkpt lat="43.71622" lon="6.96603">
        <ele>788.6</ele>
        <time>2016-09-25T09:11:11Z</time>
      </trkpt>
      <trkpt lat="43.71626" lon="6.96596">
        <ele>789</ele>
        <time>2016-09-25T09:11:12Z</time>
      </trkpt>
      <trkpt lat="43.71629" lon="6.96589">
        <ele>789</ele>
        <time>2016-09-25T09:11:13Z</time>
      </trkpt>
      <trkpt lat="43.71634" lon="6.96582">
        <ele>788.9</ele>
        <time>2016-09-25T09:11:14Z</time>
      </trkpt>
      <trkpt lat="43.71637" lon="6.96575">
        <ele>788.9</ele>
        <time>2016-09-25T09:11:15Z</time>
      </trkpt>
      <trkpt lat="43.7164" lon="6.96569">
        <ele>788.9</ele>
        <time>2016-09-25T09:11:16Z</time>
      </trkpt>
      <trkpt lat="43.71643" lon="6.96564">
        <ele>788.9</ele>
        <time>2016-09-25T09:11:17Z</time>
      </trkpt>
      <trkpt lat="43.71647" lon="6.96559">
        <ele>788.6</ele>
        <time>2016-09-25T09:11:18Z</time>
      </trkpt>
      <trkpt lat="43.71651" lon="6.96555">
        <ele>788.3</ele>
        <time>2016-09-25T09:11:19Z</time>
      </trkpt>
      <trkpt lat="43.71655" lon="6.96552">
        <ele>788</ele>
        <time>2016-09-25T09:11:20Z</time>
      </trkpt>
      <trkpt lat="43.71659" lon="6.96549">
        <ele>787.6</ele>
        <time>2016-09-25T09:11:21Z</time>
      </trkpt>
      <trkpt lat="43.71662" lon="6.96546">
        <ele>787.4</ele>
        <time>2016-09-25T09:11:22Z</time>
      </trkpt>
      <trkpt lat="43.71665" lon="6.96541">
        <ele>787.2</ele>
        <time>2016-09-25T09:11:24Z</time>
      </trkpt>
      <trkpt lat="43.71668" lon="6.96539">
        <ele>787.1</ele>
        <time>2016-09-25T09:11:25Z</time>
      </trkpt>
      <trkpt lat="43.7167" lon="6.96535">
        <ele>787.1</ele>
        <time>2016-09-25T09:11:27Z</time>
      </trkpt>
      <trkpt lat="43.71674" lon="6.96532">
        <ele>786.7</ele>
        <time>2016-09-25T09:11:29Z</time>
      </trkpt>
      <trkpt lat="43.71678" lon="6.9653">
        <ele>786.3</ele>
        <time>2016-09-25T09:11:31Z</time>
      </trkpt>
      <trkpt lat="43.71682" lon="6.96527">
        <ele>786</ele>
        <time>2016-09-25T09:11:33Z</time>
      </trkpt>
      <trkpt lat="43.71686" lon="6.96523">
        <ele>785.9</ele>
        <time>2016-09-25T09:11:35Z</time>
      </trkpt>
      <trkpt lat="43.71689" lon="6.96518">
        <ele>785.9</ele>
        <time>2016-09-25T09:11:37Z</time>
      </trkpt>
      <trkpt lat="43.71693" lon="6.96513">
        <ele>785.9</ele>
        <time>2016-09-25T09:11:39Z</time>
      </trkpt>
      <trkpt lat="43.71696" lon="6.96508">
        <ele>786</ele>
        <time>2016-09-25T09:11:41Z</time>
      </trkpt>
      <trkpt lat="43.71699" lon="6.96503">
        <ele>786.2</ele>
        <time>2016-09-25T09:11:43Z</time>
      </trkpt>
      <trkpt lat="43.71702" lon="6.96498">
        <ele>786.5</ele>
        <time>2016-09-25T09:11:45Z</time>
      </trkpt>
      <trkpt lat="43.71703" lon="6.96494">
        <ele>786.7</ele>
        <time>2016-09-25T09:11:46Z</time>
      </trkpt>
      <trkpt lat="43.71704" lon="6.96491">
        <ele>786.9</ele>
        <time>2016-09-25T09:11:47Z</time>
      </trkpt>
      <trkpt lat="43.71706" lon="6.96487">
        <ele>787.2</ele>
        <time>2016-09-25T09:11:48Z</time>
      </trkpt>
      <trkpt lat="43.71707" lon="6.96483">
        <ele>787.4</ele>
        <time>2016-09-25T09:11:49Z</time>
      </trkpt>
      <trkpt lat="43.71708" lon="6.9648">
        <ele>787.7</ele>
        <time>2016-09-25T09:11:50Z</time>
      </trkpt>
      <trkpt lat="43.71709" lon="6.96476">
        <ele>787.9</ele>
        <time>2016-09-25T09:11:51Z</time>
      </trkpt>
      <trkpt lat="43.71711" lon="6.96473">
        <ele>788</ele>
        <time>2016-09-25T09:11:52Z</time>
      </trkpt>
      <trkpt lat="43.71713" lon="6.96469">
        <ele>787.9</ele>
        <time>2016-09-25T09:11:53Z</time>
      </trkpt>
      <trkpt lat="43.71716" lon="6.96466">
        <ele>787.8</ele>
        <time>2016-09-25T09:11:54Z</time>
      </trkpt>
      <trkpt lat="43.71718" lon="6.96463">
        <ele>787.6</ele>
        <time>2016-09-25T09:11:55Z</time>
      </trkpt>
      <trkpt lat="43.71721" lon="6.9646">
        <ele>787.5</ele>
        <time>2016-09-25T09:11:56Z</time>
      </trkpt>
      <trkpt lat="43.71723" lon="6.96457">
        <ele>787.2</ele>
        <time>2016-09-25T09:11:57Z</time>
      </trkpt>
      <trkpt lat="43.71726" lon="6.96455">
        <ele>786.9</ele>
        <time>2016-09-25T09:11:58Z</time>
      </trkpt>
      <trkpt lat="43.71729" lon="6.96452">
        <ele>786.5</ele>
        <time>2016-09-25T09:11:59Z</time>
      </trkpt>
      <trkpt lat="43.71732" lon="6.96449">
        <ele>786</ele>
        <time>2016-09-25T09:12:00Z</time>
      </trkpt>
      <trkpt lat="43.71736" lon="6.96445">
        <ele>785.6</ele>
        <time>2016-09-25T09:12:01Z</time>
      </trkpt>
      <trkpt lat="43.71742" lon="6.96437">
        <ele>784.9</ele>
        <time>2016-09-25T09:12:02Z</time>
      </trkpt>
      <trkpt lat="43.71746" lon="6.96433">
        <ele>784.4</ele>
        <time>2016-09-25T09:12:03Z</time>
      </trkpt>
      <trkpt lat="43.7175" lon="6.96428">
        <ele>783.8</ele>
        <time>2016-09-25T09:12:04Z</time>
      </trkpt>
      <trkpt lat="43.71754" lon="6.96424">
        <ele>783.2</ele>
        <time>2016-09-25T09:12:05Z</time>
      </trkpt>
      <trkpt lat="43.71758" lon="6.9642">
        <ele>782.7</ele>
        <time>2016-09-25T09:12:06Z</time>
      </trkpt>
      <trkpt lat="43.71761" lon="6.96415">
        <ele>782.3</ele>
        <time>2016-09-25T09:12:07Z</time>
      </trkpt>
      <trkpt lat="43.71764" lon="6.9641">
        <ele>781.8</ele>
        <time>2016-09-25T09:12:08Z</time>
      </trkpt>
      <trkpt lat="43.71767" lon="6.96406">
        <ele>781.4</ele>
        <time>2016-09-25T09:12:09Z</time>
      </trkpt>
      <trkpt lat="43.7177" lon="6.964">
        <ele>781.1</ele>
        <time>2016-09-25T09:12:10Z</time>
      </trkpt>
      <trkpt lat="43.71772" lon="6.96393">
        <ele>780.9</ele>
        <time>2016-09-25T09:12:11Z</time>
      </trkpt>
      <trkpt lat="43.71777" lon="6.96389">
        <ele>779.9</ele>
        <time>2016-09-25T09:12:12Z</time>
      </trkpt>
      <trkpt lat="43.7178" lon="6.96383">
        <ele>779.4</ele>
        <time>2016-09-25T09:12:13Z</time>
      </trkpt>
      <trkpt lat="43.71782" lon="6.96375">
        <ele>779.2</ele>
        <time>2016-09-25T09:12:14Z</time>
      </trkpt>
      <trkpt lat="43.71784" lon="6.96368">
        <ele>778.8</ele>
        <time>2016-09-25T09:12:15Z</time>
      </trkpt>
      <trkpt lat="43.71786" lon="6.96359">
        <ele>778.1</ele>
        <time>2016-09-25T09:12:16Z</time>
      </trkpt>
      <trkpt lat="43.71789" lon="6.9635">
        <ele>777.3</ele>
        <time>2016-09-25T09:12:17Z</time>
      </trkpt>
      <trkpt lat="43.71791" lon="6.9634">
        <ele>776.7</ele>
        <time>2016-09-25T09:12:18Z</time>
      </trkpt>
      <trkpt lat="43.71793" lon="6.9633">
        <ele>776.3</ele>
        <time>2016-09-25T09:12:19Z</time>
      </trkpt>
      <trkpt lat="43.71794" lon="6.96321">
        <ele>775.9</ele>
        <time>2016-09-25T09:12:20Z</time>
      </trkpt>
      <trkpt lat="43.71796" lon="6.96312">
        <ele>775.5</ele>
        <time>2016-09-25T09:12:21Z</time>
      </trkpt>
      <trkpt lat="43.71798" lon="6.96303">
        <ele>775.1</ele>
        <time>2016-09-25T09:12:22Z</time>
      </trkpt>
      <trkpt lat="43.71799" lon="6.96294">
        <ele>774.8</ele>
        <time>2016-09-25T09:12:23Z</time>
      </trkpt>
      <trkpt lat="43.71801" lon="6.96285">
        <ele>775.3</ele>
        <time>2016-09-25T09:12:24Z</time>
      </trkpt>
      <trkpt lat="43.71803" lon="6.96277">
        <ele>776.1</ele>
        <time>2016-09-25T09:12:25Z</time>
      </trkpt>
      <trkpt lat="43.71806" lon="6.96268">
        <ele>776.7</ele>
        <time>2016-09-25T09:12:26Z</time>
      </trkpt>
      <trkpt lat="43.71809" lon="6.9626">
        <ele>777.4</ele>
        <time>2016-09-25T09:12:27Z</time>
      </trkpt>
      <trkpt lat="43.71811" lon="6.96253">
        <ele>778.2</ele>
        <time>2016-09-25T09:12:28Z</time>
      </trkpt>
      <trkpt lat="43.71814" lon="6.96246">
        <ele>778.8</ele>
        <time>2016-09-25T09:12:29Z</time>
      </trkpt>
      <trkpt lat="43.71817" lon="6.96241">
        <ele>779.2</ele>
        <time>2016-09-25T09:12:30Z</time>
      </trkpt>
      <trkpt lat="43.7182" lon="6.96236">
        <ele>779.6</ele>
        <time>2016-09-25T09:12:31Z</time>
      </trkpt>
      <trkpt lat="43.71824" lon="6.96233">
        <ele>779.8</ele>
        <time>2016-09-25T09:12:32Z</time>
      </trkpt>
      <trkpt lat="43.71827" lon="6.9623">
        <ele>780</ele>
        <time>2016-09-25T09:12:33Z</time>
      </trkpt>
      <trkpt lat="43.7183" lon="6.96226">
        <ele>780.3</ele>
        <time>2016-09-25T09:12:34Z</time>
      </trkpt>
      <trkpt lat="43.71833" lon="6.96222">
        <ele>780.8</ele>
        <time>2016-09-25T09:12:35Z</time>
      </trkpt>
      <trkpt lat="43.71837" lon="6.96218">
        <ele>781.2</ele>
        <time>2016-09-25T09:12:36Z</time>
      </trkpt>
      <trkpt lat="43.71841" lon="6.96213">
        <ele>781.9</ele>
        <time>2016-09-25T09:12:37Z</time>
      </trkpt>
      <trkpt lat="43.71844" lon="6.96208">
        <ele>782.7</ele>
        <time>2016-09-25T09:12:38Z</time>
      </trkpt>
      <trkpt lat="43.71847" lon="6.96203">
        <ele>784.5</ele>
        <time>2016-09-25T09:12:39Z</time>
      </trkpt>
      <trkpt lat="43.7185" lon="6.96199">
        <ele>786</ele>
        <time>2016-09-25T09:12:40Z</time>
      </trkpt>
      <trkpt lat="43.71853" lon="6.96195">
        <ele>787.5</ele>
        <time>2016-09-25T09:12:41Z</time>
      </trkpt>
      <trkpt lat="43.71857" lon="6.96193">
        <ele>788.6</ele>
        <time>2016-09-25T09:12:42Z</time>
      </trkpt>
      <trkpt lat="43.71861" lon="6.9619">
        <ele>789.6</ele>
        <time>2016-09-25T09:12:43Z</time>
      </trkpt>
      <trkpt lat="43.71865" lon="6.96189">
        <ele>790</ele>
        <time>2016-09-25T09:12:44Z</time>
      </trkpt>
      <trkpt lat="43.71869" lon="6.96188">
        <ele>790.5</ele>
        <time>2016-09-25T09:12:45Z</time>
      </trkpt>
      <trkpt lat="43.71873" lon="6.96186">
        <ele>791.3</ele>
        <time>2016-09-25T09:12:46Z</time>
      </trkpt>
      <trkpt lat="43.71877" lon="6.96185">
        <ele>791.5</ele>
        <time>2016-09-25T09:12:47Z</time>
      </trkpt>
      <trkpt lat="43.71882" lon="6.96183">
        <ele>792</ele>
        <time>2016-09-25T09:12:48Z</time>
      </trkpt>
      <trkpt lat="43.71887" lon="6.96182">
        <ele>792.1</ele>
        <time>2016-09-25T09:12:49Z</time>
      </trkpt>
      <trkpt lat="43.71891" lon="6.96181">
        <ele>792</ele>
        <time>2016-09-25T09:12:50Z</time>
      </trkpt>
      <trkpt lat="43.71897" lon="6.96181">
        <ele>791.6</ele>
        <time>2016-09-25T09:12:51Z</time>
      </trkpt>
      <trkpt lat="43.71902" lon="6.9618">
        <ele>791.7</ele>
        <time>2016-09-25T09:12:52Z</time>
      </trkpt>
      <trkpt lat="43.71906" lon="6.96178">
        <ele>792</ele>
        <time>2016-09-25T09:12:53Z</time>
      </trkpt>
      <trkpt lat="43.7191" lon="6.96176">
        <ele>792.6</ele>
        <time>2016-09-25T09:12:54Z</time>
      </trkpt>
      <trkpt lat="43.71916" lon="6.96175">
        <ele>792.7</ele>
        <time>2016-09-25T09:12:55Z</time>
      </trkpt>
      <trkpt lat="43.71921" lon="6.96173">
        <ele>792.8</ele>
        <time>2016-09-25T09:12:56Z</time>
      </trkpt>
      <trkpt lat="43.71925" lon="6.96172">
        <ele>793.1</ele>
        <time>2016-09-25T09:12:57Z</time>
      </trkpt>
      <trkpt lat="43.71929" lon="6.9617">
        <ele>793.6</ele>
        <time>2016-09-25T09:12:58Z</time>
      </trkpt>
      <trkpt lat="43.71933" lon="6.9617">
        <ele>793.4</ele>
        <time>2016-09-25T09:12:59Z</time>
      </trkpt>
      <trkpt lat="43.71937" lon="6.96169">
        <ele>793.4</ele>
        <time>2016-09-25T09:13:00Z</time>
      </trkpt>
      <trkpt lat="43.71941" lon="6.96168">
        <ele>793.4</ele>
        <time>2016-09-25T09:13:01Z</time>
      </trkpt>
      <trkpt lat="43.71945" lon="6.96168">
        <ele>793.1</ele>
        <time>2016-09-25T09:13:02Z</time>
      </trkpt>
      <trkpt lat="43.71949" lon="6.96169">
        <ele>792.4</ele>
        <time>2016-09-25T09:13:03Z</time>
      </trkpt>
      <trkpt lat="43.71952" lon="6.96168">
        <ele>792.5</ele>
        <time>2016-09-25T09:13:04Z</time>
      </trkpt>
      <trkpt lat="43.71956" lon="6.96168">
        <ele>792</ele>
        <time>2016-09-25T09:13:05Z</time>
      </trkpt>
      <trkpt lat="43.7196" lon="6.96171">
        <ele>790.5</ele>
        <time>2016-09-25T09:13:07Z</time>
      </trkpt>
      <trkpt lat="43.71964" lon="6.96173">
        <ele>788.9</ele>
        <time>2016-09-25T09:13:09Z</time>
      </trkpt>
      <trkpt lat="43.71968" lon="6.96176">
        <ele>787.5</ele>
        <time>2016-09-25T09:13:11Z</time>
      </trkpt>
      <trkpt lat="43.71971" lon="6.96179">
        <ele>785.9</ele>
        <time>2016-09-25T09:13:13Z</time>
      </trkpt>
      <trkpt lat="43.71975" lon="6.96183">
        <ele>784.1</ele>
        <time>2016-09-25T09:13:15Z</time>
      </trkpt>
      <trkpt lat="43.71979" lon="6.96186">
        <ele>782.6</ele>
        <time>2016-09-25T09:13:17Z</time>
      </trkpt>
      <trkpt lat="43.71983" lon="6.96188">
        <ele>781.7</ele>
        <time>2016-09-25T09:13:19Z</time>
      </trkpt>
      <trkpt lat="43.71987" lon="6.96189">
        <ele>781</ele>
        <time>2016-09-25T09:13:21Z</time>
      </trkpt>
      <trkpt lat="43.71991" lon="6.96191">
        <ele>780.3</ele>
        <time>2016-09-25T09:13:23Z</time>
      </trkpt>
      <trkpt lat="43.71996" lon="6.96193">
        <ele>779.4</ele>
        <time>2016-09-25T09:13:25Z</time>
      </trkpt>
      <trkpt lat="43.72001" lon="6.96197">
        <ele>778.2</ele>
        <time>2016-09-25T09:13:27Z</time>
      </trkpt>
      <trkpt lat="43.72004" lon="6.96202">
        <ele>776.4</ele>
        <time>2016-09-25T09:13:29Z</time>
      </trkpt>
      <trkpt lat="43.72006" lon="6.96207">
        <ele>774.3</ele>
        <time>2016-09-25T09:13:31Z</time>
      </trkpt>
      <trkpt lat="43.72008" lon="6.96213">
        <ele>772.9</ele>
        <time>2016-09-25T09:13:33Z</time>
      </trkpt>
      <trkpt lat="43.72009" lon="6.96217">
        <ele>772.1</ele>
        <time>2016-09-25T09:13:34Z</time>
      </trkpt>
      <trkpt lat="43.7201" lon="6.96222">
        <ele>771.2</ele>
        <time>2016-09-25T09:13:35Z</time>
      </trkpt>
      <trkpt lat="43.72011" lon="6.96227">
        <ele>770.1</ele>
        <time>2016-09-25T09:13:36Z</time>
      </trkpt>
      <trkpt lat="43.72012" lon="6.96233">
        <ele>768.8</ele>
        <time>2016-09-25T09:13:37Z</time>
      </trkpt>
      <trkpt lat="43.72013" lon="6.96239">
        <ele>767.5</ele>
        <time>2016-09-25T09:13:38Z</time>
      </trkpt>
      <trkpt lat="43.72013" lon="6.96246">
        <ele>766.1</ele>
        <time>2016-09-25T09:13:39Z</time>
      </trkpt>
      <trkpt lat="43.72013" lon="6.96256">
        <ele>763.9</ele>
        <time>2016-09-25T09:13:40Z</time>
      </trkpt>
      <trkpt lat="43.72014" lon="6.96263">
        <ele>762.6</ele>
        <time>2016-09-25T09:13:41Z</time>
      </trkpt>
      <trkpt lat="43.72017" lon="6.9627">
        <ele>761.3</ele>
        <time>2016-09-25T09:13:42Z</time>
      </trkpt>
      <trkpt lat="43.7202" lon="6.96277">
        <ele>760.2</ele>
        <time>2016-09-25T09:13:43Z</time>
      </trkpt>
      <trkpt lat="43.72023" lon="6.96286">
        <ele>758.8</ele>
        <time>2016-09-25T09:13:44Z</time>
      </trkpt>
      <trkpt lat="43.72025" lon="6.96295">
        <ele>757.4</ele>
        <time>2016-09-25T09:13:45Z</time>
      </trkpt>
      <trkpt lat="43.72026" lon="6.96303">
        <ele>756.2</ele>
        <time>2016-09-25T09:13:46Z</time>
      </trkpt>
      <trkpt lat="43.72027" lon="6.96313">
        <ele>754.9</ele>
        <time>2016-09-25T09:13:47Z</time>
      </trkpt>
      <trkpt lat="43.72027" lon="6.96323">
        <ele>753.4</ele>
        <time>2016-09-25T09:13:48Z</time>
      </trkpt>
      <trkpt lat="43.72028" lon="6.96332">
        <ele>752.1</ele>
        <time>2016-09-25T09:13:49Z</time>
      </trkpt>
      <trkpt lat="43.7203" lon="6.96342">
        <ele>750.9</ele>
        <time>2016-09-25T09:13:50Z</time>
      </trkpt>
      <trkpt lat="43.72032" lon="6.96351">
        <ele>749.8</ele>
        <time>2016-09-25T09:13:51Z</time>
      </trkpt>
      <trkpt lat="43.72035" lon="6.9636">
        <ele>748.6</ele>
        <time>2016-09-25T09:13:52Z</time>
      </trkpt>
      <trkpt lat="43.72038" lon="6.9637">
        <ele>747.5</ele>
        <time>2016-09-25T09:13:53Z</time>
      </trkpt>
      <trkpt lat="43.72041" lon="6.96379">
        <ele>746.4</ele>
        <time>2016-09-25T09:13:54Z</time>
      </trkpt>
      <trkpt lat="43.72044" lon="6.96389">
        <ele>745.6</ele>
        <time>2016-09-25T09:13:55Z</time>
      </trkpt>
      <trkpt lat="43.72047" lon="6.96398">
        <ele>745.2</ele>
        <time>2016-09-25T09:13:56Z</time>
      </trkpt>
      <trkpt lat="43.72049" lon="6.96406">
        <ele>744.6</ele>
        <time>2016-09-25T09:13:57Z</time>
      </trkpt>
      <trkpt lat="43.72051" lon="6.96414">
        <ele>744.2</ele>
        <time>2016-09-25T09:13:58Z</time>
      </trkpt>
      <trkpt lat="43.72053" lon="6.96422">
        <ele>743.7</ele>
        <time>2016-09-25T09:13:59Z</time>
      </trkpt>
      <trkpt lat="43.72054" lon="6.9643">
        <ele>743</ele>
        <time>2016-09-25T09:14:00Z</time>
      </trkpt>
      <trkpt lat="43.72055" lon="6.96437">
        <ele>742.5</ele>
        <time>2016-09-25T09:14:01Z</time>
      </trkpt>
      <trkpt lat="43.72056" lon="6.96444">
        <ele>741.8</ele>
        <time>2016-09-25T09:14:02Z</time>
      </trkpt>
      <trkpt lat="43.72056" lon="6.96452">
        <ele>740.9</ele>
        <time>2016-09-25T09:14:03Z</time>
      </trkpt>
      <trkpt lat="43.72055" lon="6.96458">
        <ele>740</ele>
        <time>2016-09-25T09:14:04Z</time>
      </trkpt>
      <trkpt lat="43.72055" lon="6.96465">
        <ele>739.8</ele>
        <time>2016-09-25T09:14:05Z</time>
      </trkpt>
      <trkpt lat="43.72057" lon="6.96473">
        <ele>740</ele>
        <time>2016-09-25T09:14:06Z</time>
      </trkpt>
      <trkpt lat="43.72057" lon="6.9648">
        <ele>739.9</ele>
        <time>2016-09-25T09:14:07Z</time>
      </trkpt>
      <trkpt lat="43.72058" lon="6.96486">
        <ele>739.8</ele>
        <time>2016-09-25T09:14:08Z</time>
      </trkpt>
      <trkpt lat="43.72059" lon="6.96492">
        <ele>740</ele>
        <time>2016-09-25T09:14:09Z</time>
      </trkpt>
      <trkpt lat="43.7206" lon="6.96497">
        <ele>740.1</ele>
        <time>2016-09-25T09:14:10Z</time>
      </trkpt>
      <trkpt lat="43.7206" lon="6.96502">
        <ele>740.1</ele>
        <time>2016-09-25T09:14:11Z</time>
      </trkpt>
      <trkpt lat="43.7206" lon="6.96508">
        <ele>739.9</ele>
        <time>2016-09-25T09:14:12Z</time>
      </trkpt>
      <trkpt lat="43.72061" lon="6.96514">
        <ele>739.9</ele>
        <time>2016-09-25T09:14:13Z</time>
      </trkpt>
      <trkpt lat="43.72062" lon="6.9652">
        <ele>739.9</ele>
        <time>2016-09-25T09:14:15Z</time>
      </trkpt>
      <trkpt lat="43.72062" lon="6.96527">
        <ele>739.8</ele>
        <time>2016-09-25T09:14:17Z</time>
      </trkpt>
      <trkpt lat="43.72064" lon="6.96533">
        <ele>740.1</ele>
        <time>2016-09-25T09:14:19Z</time>
      </trkpt>
      <trkpt lat="43.72065" lon="6.96539">
        <ele>740.2</ele>
        <time>2016-09-25T09:14:21Z</time>
      </trkpt>
      <trkpt lat="43.72066" lon="6.96545">
        <ele>740.4</ele>
        <time>2016-09-25T09:14:23Z</time>
      </trkpt>
      <trkpt lat="43.72068" lon="6.9655">
        <ele>740.8</ele>
        <time>2016-09-25T09:14:25Z</time>
      </trkpt>
      <trkpt lat="43.72071" lon="6.96553">
        <ele>741.5</ele>
        <time>2016-09-25T09:14:27Z</time>
      </trkpt>
      <trkpt lat="43.72075" lon="6.96556">
        <ele>742.3</ele>
        <time>2016-09-25T09:14:29Z</time>
      </trkpt>
      <trkpt lat="43.72078" lon="6.96557">
        <ele>743.3</ele>
        <time>2016-09-25T09:14:31Z</time>
      </trkpt>
      <trkpt lat="43.72082" lon="6.96556">
        <ele>744.3</ele>
        <time>2016-09-25T09:14:33Z</time>
      </trkpt>
      <trkpt lat="43.72086" lon="6.96555">
        <ele>745.4</ele>
        <time>2016-09-25T09:14:35Z</time>
      </trkpt>
      <trkpt lat="43.72089" lon="6.96554">
        <ele>746.3</ele>
        <time>2016-09-25T09:14:37Z</time>
      </trkpt>
      <trkpt lat="43.72093" lon="6.96553">
        <ele>747.4</ele>
        <time>2016-09-25T09:14:39Z</time>
      </trkpt>
      <trkpt lat="43.72097" lon="6.96551">
        <ele>748.5</ele>
        <time>2016-09-25T09:14:41Z</time>
      </trkpt>
      <trkpt lat="43.72101" lon="6.96549">
        <ele>749.6</ele>
        <time>2016-09-25T09:14:43Z</time>
      </trkpt>
      <trkpt lat="43.72105" lon="6.96547">
        <ele>750.7</ele>
        <time>2016-09-25T09:14:45Z</time>
      </trkpt>
      <trkpt lat="43.7211" lon="6.96545">
        <ele>751.9</ele>
        <time>2016-09-25T09:14:47Z</time>
      </trkpt>
      <trkpt lat="43.72115" lon="6.96543">
        <ele>753.2</ele>
        <time>2016-09-25T09:14:49Z</time>
      </trkpt>
      <trkpt lat="43.7212" lon="6.96541">
        <ele>754.6</ele>
        <time>2016-09-25T09:14:51Z</time>
      </trkpt>
      <trkpt lat="43.72122" lon="6.9654">
        <ele>755.4</ele>
        <time>2016-09-25T09:14:52Z</time>
      </trkpt>
      <trkpt lat="43.72125" lon="6.96538">
        <ele>756.2</ele>
        <time>2016-09-25T09:14:53Z</time>
      </trkpt>
      <trkpt lat="43.72128" lon="6.96537">
        <ele>756.4</ele>
        <time>2016-09-25T09:14:54Z</time>
      </trkpt>
      <trkpt lat="43.72131" lon="6.96535">
        <ele>756.6</ele>
        <time>2016-09-25T09:14:55Z</time>
      </trkpt>
      <trkpt lat="43.72133" lon="6.96533">
        <ele>756.8</ele>
        <time>2016-09-25T09:14:56Z</time>
      </trkpt>
      <trkpt lat="43.72136" lon="6.96531">
        <ele>757</ele>
        <time>2016-09-25T09:14:57Z</time>
      </trkpt>
      <trkpt lat="43.72138" lon="6.96529">
        <ele>757.3</ele>
        <time>2016-09-25T09:14:58Z</time>
      </trkpt>
      <trkpt lat="43.72141" lon="6.96526">
        <ele>757.5</ele>
        <time>2016-09-25T09:14:59Z</time>
      </trkpt>
      <trkpt lat="43.72144" lon="6.96523">
        <ele>757.8</ele>
        <time>2016-09-25T09:15:00Z</time>
      </trkpt>
      <trkpt lat="43.72148" lon="6.9652">
        <ele>758.1</ele>
        <time>2016-09-25T09:15:01Z</time>
      </trkpt>
      <trkpt lat="43.72153" lon="6.96517">
        <ele>758.5</ele>
        <time>2016-09-25T09:15:02Z</time>
      </trkpt>
      <trkpt lat="43.72161" lon="6.96512">
        <ele>759.1</ele>
        <time>2016-09-25T09:15:03Z</time>
      </trkpt>
      <trkpt lat="43.72165" lon="6.96508">
        <ele>759.5</ele>
        <time>2016-09-25T09:15:04Z</time>
      </trkpt>
      <trkpt lat="43.72169" lon="6.96504">
        <ele>759.9</ele>
        <time>2016-09-25T09:15:05Z</time>
      </trkpt>
      <trkpt lat="43.72173" lon="6.965">
        <ele>760.3</ele>
        <time>2016-09-25T09:15:06Z</time>
      </trkpt>
      <trkpt lat="43.72178" lon="6.96496">
        <ele>760.7</ele>
        <time>2016-09-25T09:15:07Z</time>
      </trkpt>
      <trkpt lat="43.72182" lon="6.96494">
        <ele>761</ele>
        <time>2016-09-25T09:15:08Z</time>
      </trkpt>
      <trkpt lat="43.72187" lon="6.96493">
        <ele>761.3</ele>
        <time>2016-09-25T09:15:09Z</time>
      </trkpt>
      <trkpt lat="43.72192" lon="6.96495">
        <ele>761.5</ele>
        <time>2016-09-25T09:15:10Z</time>
      </trkpt>
      <trkpt lat="43.72197" lon="6.96496">
        <ele>761.7</ele>
        <time>2016-09-25T09:15:11Z</time>
      </trkpt>
      <trkpt lat="43.72201" lon="6.96498">
        <ele>761.7</ele>
        <time>2016-09-25T09:15:12Z</time>
      </trkpt>
      <trkpt lat="43.72205" lon="6.96502">
        <ele>761.8</ele>
        <time>2016-09-25T09:15:13Z</time>
      </trkpt>
      <trkpt lat="43.72208" lon="6.96506">
        <ele>761.7</ele>
        <time>2016-09-25T09:15:14Z</time>
      </trkpt>
      <trkpt lat="43.72212" lon="6.96511">
        <ele>761.5</ele>
        <time>2016-09-25T09:15:51Z</time>
      </trkpt>
      <trkpt lat="43.72214" lon="6.96515">
        <ele>761.4</ele>
        <time>2016-09-25T09:15:52Z</time>
      </trkpt>
      <trkpt lat="43.72215" lon="6.9652">
        <ele>761.2</ele>
        <time>2016-09-25T09:15:54Z</time>
      </trkpt>
      <trkpt lat="43.72217" lon="6.96525">
        <ele>761</ele>
        <time>2016-09-25T09:15:56Z</time>
      </trkpt>
      <trkpt lat="43.72218" lon="6.9653">
        <ele>760.9</ele>
        <time>2016-09-25T09:15:58Z</time>
      </trkpt>
      <trkpt lat="43.7222" lon="6.96534">
        <ele>760.8</ele>
        <time>2016-09-25T09:16:00Z</time>
      </trkpt>
      <trkpt lat="43.72222" lon="6.96537">
        <ele>760.7</ele>
        <time>2016-09-25T09:16:02Z</time>
      </trkpt>
      <trkpt lat="43.72223" lon="6.96542">
        <ele>760.5</ele>
        <time>2016-09-25T09:16:04Z</time>
      </trkpt>
      <trkpt lat="43.72223" lon="6.96546">
        <ele>760.4</ele>
        <time>2016-09-25T09:16:06Z</time>
      </trkpt>
      <trkpt lat="43.72224" lon="6.9655">
        <ele>760.2</ele>
        <time>2016-09-25T09:16:08Z</time>
      </trkpt>
      <trkpt lat="43.72225" lon="6.96555">
        <ele>760.1</ele>
        <time>2016-09-25T09:16:10Z</time>
      </trkpt>
      <trkpt lat="43.72226" lon="6.96559">
        <ele>760</ele>
        <time>2016-09-25T09:16:12Z</time>
      </trkpt>
      <trkpt lat="43.72227" lon="6.96563">
        <ele>759.9</ele>
        <time>2016-09-25T09:16:14Z</time>
      </trkpt>
      <trkpt lat="43.72228" lon="6.96568">
        <ele>759.8</ele>
        <time>2016-09-25T09:16:16Z</time>
      </trkpt>
      <trkpt lat="43.7223" lon="6.96573">
        <ele>759.7</ele>
        <time>2016-09-25T09:16:18Z</time>
      </trkpt>
      <trkpt lat="43.72231" lon="6.96578">
        <ele>759.6</ele>
        <time>2016-09-25T09:16:20Z</time>
      </trkpt>
      <trkpt lat="43.72232" lon="6.96583">
        <ele>759.4</ele>
        <time>2016-09-25T09:16:22Z</time>
      </trkpt>
      <trkpt lat="43.72233" lon="6.96589">
        <ele>759.3</ele>
        <time>2016-09-25T09:16:24Z</time>
      </trkpt>
      <trkpt lat="43.72234" lon="6.96595">
        <ele>759.2</ele>
        <time>2016-09-25T09:16:26Z</time>
      </trkpt>
      <trkpt lat="43.72235" lon="6.96601">
        <ele>759</ele>
        <time>2016-09-25T09:16:28Z</time>
      </trkpt>
      <trkpt lat="43.72236" lon="6.96606">
        <ele>758.9</ele>
        <time>2016-09-25T09:16:30Z</time>
      </trkpt>
      <trkpt lat="43.72236" lon="6.96611">
        <ele>758.7</ele>
        <time>2016-09-25T09:16:32Z</time>
      </trkpt>
      <trkpt lat="43.72235" lon="6.96616">
        <ele>758.5</ele>
        <time>2016-09-25T09:16:34Z</time>
      </trkpt>
      <trkpt lat="43.72233" lon="6.96621">
        <ele>758.2</ele>
        <time>2016-09-25T09:16:36Z</time>
      </trkpt>
      <trkpt lat="43.72231" lon="6.96625">
        <ele>757.9</ele>
        <time>2016-09-25T09:16:38Z</time>
      </trkpt>
      <trkpt lat="43.72229" lon="6.96629">
        <ele>757.5</ele>
        <time>2016-09-25T09:16:40Z</time>
      </trkpt>
      <trkpt lat="43.72227" lon="6.96633">
        <ele>757</ele>
        <time>2016-09-25T09:16:42Z</time>
      </trkpt>
      <trkpt lat="43.72226" lon="6.96637">
        <ele>756.5</ele>
        <time>2016-09-25T09:16:44Z</time>
      </trkpt>
      <trkpt lat="43.72225" lon="6.96642">
        <ele>756.1</ele>
        <time>2016-09-25T09:16:46Z</time>
      </trkpt>
      <trkpt lat="43.72225" lon="6.96646">
        <ele>755.7</ele>
        <time>2016-09-25T09:16:48Z</time>
      </trkpt>
      <trkpt lat="43.72224" lon="6.96651">
        <ele>755.2</ele>
        <time>2016-09-25T09:16:50Z</time>
      </trkpt>
      <trkpt lat="43.72223" lon="6.96655">
        <ele>754.8</ele>
        <time>2016-09-25T09:16:52Z</time>
      </trkpt>
      <trkpt lat="43.72224" lon="6.96659">
        <ele>754.5</ele>
        <time>2016-09-25T09:16:54Z</time>
      </trkpt>
      <trkpt lat="43.72224" lon="6.96663">
        <ele>754.2</ele>
        <time>2016-09-25T09:16:56Z</time>
      </trkpt>
      <trkpt lat="43.72225" lon="6.96668">
        <ele>754</ele>
        <time>2016-09-25T09:16:58Z</time>
      </trkpt>
      <trkpt lat="43.72226" lon="6.96672">
        <ele>753.9</ele>
        <time>2016-09-25T09:17:00Z</time>
      </trkpt>
      <trkpt lat="43.72226" lon="6.96676">
        <ele>753.6</ele>
        <time>2016-09-25T09:17:02Z</time>
      </trkpt>
      <trkpt lat="43.72226" lon="6.9668">
        <ele>753.2</ele>
        <time>2016-09-25T09:17:04Z</time>
      </trkpt>
      <trkpt lat="43.72227" lon="6.96685">
        <ele>753</ele>
        <time>2016-09-25T09:17:06Z</time>
      </trkpt>
      <trkpt lat="43.72229" lon="6.9669">
        <ele>753</ele>
        <time>2016-09-25T09:17:08Z</time>
      </trkpt>
      <trkpt lat="43.7223" lon="6.96695">
        <ele>752.9</ele>
        <time>2016-09-25T09:17:10Z</time>
      </trkpt>
      <trkpt lat="43.72231" lon="6.967">
        <ele>752.7</ele>
        <time>2016-09-25T09:17:12Z</time>
      </trkpt>
      <trkpt lat="43.72232" lon="6.96706">
        <ele>752.5</ele>
        <time>2016-09-25T09:17:14Z</time>
      </trkpt>
      <trkpt lat="43.72233" lon="6.96712">
        <ele>752.1</ele>
        <time>2016-09-25T09:17:16Z</time>
      </trkpt>
      <trkpt lat="43.72234" lon="6.96717">
        <ele>751.5</ele>
        <time>2016-09-25T09:17:18Z</time>
      </trkpt>
      <trkpt lat="43.72235" lon="6.96723">
        <ele>751</ele>
        <time>2016-09-25T09:17:20Z</time>
      </trkpt>
      <trkpt lat="43.72236" lon="6.96729">
        <ele>750.4</ele>
        <time>2016-09-25T09:17:22Z</time>
      </trkpt>
      <trkpt lat="43.72236" lon="6.96735">
        <ele>749.8</ele>
        <time>2016-09-25T09:17:24Z</time>
      </trkpt>
      <trkpt lat="43.72237" lon="6.96741">
        <ele>749.2</ele>
        <time>2016-09-25T09:17:26Z</time>
      </trkpt>
      <trkpt lat="43.72239" lon="6.96746">
        <ele>749</ele>
        <time>2016-09-25T09:17:28Z</time>
      </trkpt>
      <trkpt lat="43.7224" lon="6.96752">
        <ele>748.7</ele>
        <time>2016-09-25T09:17:30Z</time>
      </trkpt>
      <trkpt lat="43.72241" lon="6.96758">
        <ele>748.5</ele>
        <time>2016-09-25T09:17:32Z</time>
      </trkpt>
      <trkpt lat="43.72243" lon="6.96764">
        <ele>748.5</ele>
        <time>2016-09-25T09:17:34Z</time>
      </trkpt>
      <trkpt lat="43.72245" lon="6.9677">
        <ele>748.6</ele>
        <time>2016-09-25T09:17:36Z</time>
      </trkpt>
      <trkpt lat="43.72247" lon="6.96775">
        <ele>748.6</ele>
        <time>2016-09-25T09:17:38Z</time>
      </trkpt>
      <trkpt lat="43.72248" lon="6.96781">
        <ele>748.7</ele>
        <time>2016-09-25T09:17:40Z</time>
      </trkpt>
      <trkpt lat="43.72249" lon="6.96786">
        <ele>748.8</ele>
        <time>2016-09-25T09:17:42Z</time>
      </trkpt>
      <trkpt lat="43.72253" lon="6.96788">
        <ele>750</ele>
        <time>2016-09-25T09:17:44Z</time>
      </trkpt>
      <trkpt lat="43.72255" lon="6.96784">
        <ele>751.3</ele>
        <time>2016-09-25T09:17:46Z</time>
      </trkpt>
      <trkpt lat="43.72254" lon="6.96778">
        <ele>751.6</ele>
        <time>2016-09-25T09:17:48Z</time>
      </trkpt>
      <trkpt lat="43.72254" lon="6.96773">
        <ele>751.8</ele>
        <time>2016-09-25T09:17:50Z</time>
      </trkpt>
      <trkpt lat="43.72253" lon="6.96768">
        <ele>752.1</ele>
        <time>2016-09-25T09:17:52Z</time>
      </trkpt>
      <trkpt lat="43.72254" lon="6.96764">
        <ele>752.6</ele>
        <time>2016-09-25T09:17:54Z</time>
      </trkpt>
      <trkpt lat="43.72254" lon="6.96759">
        <ele>753.1</ele>
        <time>2016-09-25T09:17:56Z</time>
      </trkpt>
      <trkpt lat="43.72254" lon="6.96755">
        <ele>753.4</ele>
        <time>2016-09-25T09:17:58Z</time>
      </trkpt>
      <trkpt lat="43.72254" lon="6.9675">
        <ele>753.8</ele>
        <time>2016-09-25T09:18:00Z</time>
      </trkpt>
      <trkpt lat="43.72254" lon="6.96745">
        <ele>754.2</ele>
        <time>2016-09-25T09:18:02Z</time>
      </trkpt>
      <trkpt lat="43.72254" lon="6.96741">
        <ele>754.6</ele>
        <time>2016-09-25T09:18:04Z</time>
      </trkpt>
      <trkpt lat="43.72255" lon="6.96737">
        <ele>755.2</ele>
        <time>2016-09-25T09:18:06Z</time>
      </trkpt>
      <trkpt lat="43.72256" lon="6.96733">
        <ele>755.8</ele>
        <time>2016-09-25T09:18:08Z</time>
      </trkpt>
      <trkpt lat="43.72256" lon="6.96728">
        <ele>756.4</ele>
        <time>2016-09-25T09:18:10Z</time>
      </trkpt>
      <trkpt lat="43.72257" lon="6.96724">
        <ele>756.8</ele>
        <time>2016-09-25T09:18:12Z</time>
      </trkpt>
      <trkpt lat="43.72259" lon="6.96721">
        <ele>757.6</ele>
        <time>2016-09-25T09:18:14Z</time>
      </trkpt>
      <trkpt lat="43.72262" lon="6.96719">
        <ele>758.4</ele>
        <time>2016-09-25T09:18:16Z</time>
      </trkpt>
      <trkpt lat="43.72265" lon="6.96719">
        <ele>759.3</ele>
        <time>2016-09-25T09:18:18Z</time>
      </trkpt>
      <trkpt lat="43.72268" lon="6.96719">
        <ele>760.2</ele>
        <time>2016-09-25T09:18:20Z</time>
      </trkpt>
      <trkpt lat="43.72271" lon="6.9672">
        <ele>760.9</ele>
        <time>2016-09-25T09:18:22Z</time>
      </trkpt>
      <trkpt lat="43.72275" lon="6.9672">
        <ele>761.9</ele>
        <time>2016-09-25T09:18:25Z</time>
      </trkpt>
      <trkpt lat="43.72277" lon="6.96718">
        <ele>762.6</ele>
        <time>2016-09-25T09:18:27Z</time>
      </trkpt>
      <trkpt lat="43.7228" lon="6.96717">
        <ele>763.3</ele>
        <time>2016-09-25T09:18:29Z</time>
      </trkpt>
      <trkpt lat="43.72283" lon="6.96716">
        <ele>764</ele>
        <time>2016-09-25T09:18:31Z</time>
      </trkpt>
      <trkpt lat="43.72286" lon="6.96716">
        <ele>764.8</ele>
        <time>2016-09-25T09:18:33Z</time>
      </trkpt>
      <trkpt lat="43.72289" lon="6.96715">
        <ele>765.6</ele>
        <time>2016-09-25T09:18:35Z</time>
      </trkpt>
      <trkpt lat="43.72292" lon="6.96714">
        <ele>766.2</ele>
        <time>2016-09-25T09:18:37Z</time>
      </trkpt>
      <trkpt lat="43.72296" lon="6.96712">
        <ele>766.6</ele>
        <time>2016-09-25T09:18:39Z</time>
      </trkpt>
      <trkpt lat="43.72299" lon="6.9671">
        <ele>767</ele>
        <time>2016-09-25T09:18:41Z</time>
      </trkpt>
      <trkpt lat="43.72302" lon="6.96709">
        <ele>767.4</ele>
        <time>2016-09-25T09:18:43Z</time>
      </trkpt>
      <trkpt lat="43.72306" lon="6.96708">
        <ele>767.8</ele>
        <time>2016-09-25T09:18:45Z</time>
      </trkpt>
      <trkpt lat="43.7231" lon="6.96708">
        <ele>768.3</ele>
        <time>2016-09-25T09:18:47Z</time>
      </trkpt>
      <trkpt lat="43.72314" lon="6.96707">
        <ele>768.9</ele>
        <time>2016-09-25T09:18:49Z</time>
      </trkpt>
      <trkpt lat="43.72319" lon="6.96707">
        <ele>769.5</ele>
        <time>2016-09-25T09:18:51Z</time>
      </trkpt>
      <trkpt lat="43.72323" lon="6.96708">
        <ele>770.1</ele>
        <time>2016-09-25T09:18:53Z</time>
      </trkpt>
      <trkpt lat="43.72327" lon="6.96709">
        <ele>770.7</ele>
        <time>2016-09-25T09:18:55Z</time>
      </trkpt>
      <trkpt lat="43.72332" lon="6.96709">
        <ele>771.3</ele>
        <time>2016-09-25T09:18:57Z</time>
      </trkpt>
      <trkpt lat="43.72335" lon="6.9671">
        <ele>771.9</ele>
        <time>2016-09-25T09:18:59Z</time>
      </trkpt>
      <trkpt lat="43.72339" lon="6.96711">
        <ele>772.5</ele>
        <time>2016-09-25T09:19:01Z</time>
      </trkpt>
      <trkpt lat="43.72343" lon="6.96711">
        <ele>773</ele>
        <time>2016-09-25T09:19:03Z</time>
      </trkpt>
      <trkpt lat="43.72348" lon="6.96711">
        <ele>773.6</ele>
        <time>2016-09-25T09:19:05Z</time>
      </trkpt>
      <trkpt lat="43.72352" lon="6.96711">
        <ele>774.2</ele>
        <time>2016-09-25T09:19:07Z</time>
      </trkpt>
      <trkpt lat="43.72355" lon="6.9671">
        <ele>774.5</ele>
        <time>2016-09-25T09:19:09Z</time>
      </trkpt>
      <trkpt lat="43.72358" lon="6.96706">
        <ele>774.7</ele>
        <time>2016-09-25T09:19:11Z</time>
      </trkpt>
      <trkpt lat="43.7236" lon="6.96702">
        <ele>774.8</ele>
        <time>2016-09-25T09:19:13Z</time>
      </trkpt>
      <trkpt lat="43.72362" lon="6.96696">
        <ele>774.8</ele>
        <time>2016-09-25T09:19:15Z</time>
      </trkpt>
      <trkpt lat="43.72362" lon="6.9669">
        <ele>774.7</ele>
        <time>2016-09-25T09:19:17Z</time>
      </trkpt>
      <trkpt lat="43.72362" lon="6.96684">
        <ele>774.4</ele>
        <time>2016-09-25T09:19:19Z</time>
      </trkpt>
      <trkpt lat="43.72364" lon="6.96678">
        <ele>774.4</ele>
        <time>2016-09-25T09:19:21Z</time>
      </trkpt>
      <trkpt lat="43.72367" lon="6.96674">
        <ele>774.6</ele>
        <time>2016-09-25T09:19:23Z</time>
      </trkpt>
      <trkpt lat="43.72369" lon="6.96669">
        <ele>774.8</ele>
        <time>2016-09-25T09:19:25Z</time>
      </trkpt>
      <trkpt lat="43.72371" lon="6.96664">
        <ele>774.9</ele>
        <time>2016-09-25T09:19:27Z</time>
      </trkpt>
      <trkpt lat="43.72373" lon="6.96659">
        <ele>775</ele>
        <time>2016-09-25T09:19:29Z</time>
      </trkpt>
      <trkpt lat="43.72375" lon="6.96654">
        <ele>775.1</ele>
        <time>2016-09-25T09:19:31Z</time>
      </trkpt>
      <trkpt lat="43.72377" lon="6.96649">
        <ele>775.2</ele>
        <time>2016-09-25T09:19:33Z</time>
      </trkpt>
      <trkpt lat="43.72377" lon="6.96643">
        <ele>775.1</ele>
        <time>2016-09-25T09:19:35Z</time>
      </trkpt>
      <trkpt lat="43.72378" lon="6.96638">
        <ele>775</ele>
        <time>2016-09-25T09:19:37Z</time>
      </trkpt>
      <trkpt lat="43.72377" lon="6.96633">
        <ele>774.8</ele>
        <time>2016-09-25T09:19:39Z</time>
      </trkpt>
      <trkpt lat="43.72377" lon="6.96628">
        <ele>774.5</ele>
        <time>2016-09-25T09:19:41Z</time>
      </trkpt>
      <trkpt lat="43.72377" lon="6.96624">
        <ele>774.4</ele>
        <time>2016-09-25T09:19:43Z</time>
      </trkpt>
      <trkpt lat="43.72377" lon="6.9662">
        <ele>774.2</ele>
        <time>2016-09-25T09:19:45Z</time>
      </trkpt>
      <trkpt lat="43.7238" lon="6.96618">
        <ele>774.6</ele>
        <time>2016-09-25T09:19:50Z</time>
      </trkpt>
      <trkpt lat="43.72381" lon="6.96615">
        <ele>774.6</ele>
        <time>2016-09-25T09:19:54Z</time>
      </trkpt>
      <trkpt lat="43.72383" lon="6.96611">
        <ele>774.7</ele>
        <time>2016-09-25T09:19:58Z</time>
      </trkpt>
      <trkpt lat="43.72385" lon="6.96608">
        <ele>775</ele>
        <time>2016-09-25T09:20:03Z</time>
      </trkpt>
      <trkpt lat="43.72388" lon="6.96606">
        <ele>775.6</ele>
        <time>2016-09-25T09:20:07Z</time>
      </trkpt>
      <trkpt lat="43.72391" lon="6.96606">
        <ele>776.1</ele>
        <time>2016-09-25T09:20:10Z</time>
      </trkpt>
      <trkpt lat="43.72394" lon="6.96606">
        <ele>776.6</ele>
        <time>2016-09-25T09:20:13Z</time>
      </trkpt>
      <trkpt lat="43.72397" lon="6.96606">
        <ele>777.2</ele>
        <time>2016-09-25T09:20:16Z</time>
      </trkpt>
      <trkpt lat="43.724" lon="6.96606">
        <ele>777.8</ele>
        <time>2016-09-25T09:20:19Z</time>
      </trkpt>
      <trkpt lat="43.72403" lon="6.96606">
        <ele>778.3</ele>
        <time>2016-09-25T09:20:22Z</time>
      </trkpt>
      <trkpt lat="43.72406" lon="6.96607">
        <ele>778.9</ele>
        <time>2016-09-25T09:20:25Z</time>
      </trkpt>
      <trkpt lat="43.72409" lon="6.96608">
        <ele>779.4</ele>
        <time>2016-09-25T09:20:28Z</time>
      </trkpt>
      <trkpt lat="43.72412" lon="6.96609">
        <ele>780.1</ele>
        <time>2016-09-25T09:20:32Z</time>
      </trkpt>
      <trkpt lat="43.72415" lon="6.96611">
        <ele>780.7</ele>
        <time>2016-09-25T09:20:35Z</time>
      </trkpt>
      <trkpt lat="43.72418" lon="6.96614">
        <ele>781.5</ele>
        <time>2016-09-25T09:20:38Z</time>
      </trkpt>
      <trkpt lat="43.72421" lon="6.96615">
        <ele>782.2</ele>
        <time>2016-09-25T09:20:41Z</time>
      </trkpt>
      <trkpt lat="43.72424" lon="6.96617">
        <ele>782.9</ele>
        <time>2016-09-25T09:21:07Z</time>
      </trkpt>
      <trkpt lat="43.72426" lon="6.96623">
        <ele>783.6</ele>
        <time>2016-09-25T09:21:10Z</time>
      </trkpt>
      <trkpt lat="43.72427" lon="6.96627">
        <ele>784</ele>
        <time>2016-09-25T09:21:12Z</time>
      </trkpt>
      <trkpt lat="43.72428" lon="6.96631">
        <ele>784.3</ele>
        <time>2016-09-25T09:21:14Z</time>
      </trkpt>
      <trkpt lat="43.72429" lon="6.96635">
        <ele>784.7</ele>
        <time>2016-09-25T09:21:16Z</time>
      </trkpt>
      <trkpt lat="43.7243" lon="6.9664">
        <ele>785</ele>
        <time>2016-09-25T09:21:18Z</time>
      </trkpt>
      <trkpt lat="43.72431" lon="6.96644">
        <ele>785.4</ele>
        <time>2016-09-25T09:21:20Z</time>
      </trkpt>
      <trkpt lat="43.72432" lon="6.96649">
        <ele>785.7</ele>
        <time>2016-09-25T09:21:22Z</time>
      </trkpt>
      <trkpt lat="43.72432" lon="6.96653">
        <ele>785.9</ele>
        <time>2016-09-25T09:21:24Z</time>
      </trkpt>
      <trkpt lat="43.72432" lon="6.96657">
        <ele>786</ele>
        <time>2016-09-25T09:21:26Z</time>
      </trkpt>
      <trkpt lat="43.72432" lon="6.96661">
        <ele>786.2</ele>
        <time>2016-09-25T09:21:28Z</time>
      </trkpt>
      <trkpt lat="43.72432" lon="6.96665">
        <ele>786.4</ele>
        <time>2016-09-25T09:21:30Z</time>
      </trkpt>
      <trkpt lat="43.72433" lon="6.96669">
        <ele>786.8</ele>
        <time>2016-09-25T09:21:32Z</time>
      </trkpt>
      <trkpt lat="43.72435" lon="6.96672">
        <ele>787.2</ele>
        <time>2016-09-25T09:21:34Z</time>
      </trkpt>
      <trkpt lat="43.72438" lon="6.96674">
        <ele>787.8</ele>
        <time>2016-09-25T09:21:36Z</time>
      </trkpt>
      <trkpt lat="43.7244" lon="6.96677">
        <ele>788.3</ele>
        <time>2016-09-25T09:21:38Z</time>
      </trkpt>
      <trkpt lat="43.72443" lon="6.9668">
        <ele>789</ele>
        <time>2016-09-25T09:21:41Z</time>
      </trkpt>
      <trkpt lat="43.72445" lon="6.96684">
        <ele>789.6</ele>
        <time>2016-09-25T09:21:44Z</time>
      </trkpt>
      <trkpt lat="43.72448" lon="6.96687">
        <ele>790.3</ele>
        <time>2016-09-25T09:21:47Z</time>
      </trkpt>
      <trkpt lat="43.72452" lon="6.9669">
        <ele>791</ele>
        <time>2016-09-25T09:21:50Z</time>
      </trkpt>
      <trkpt lat="43.72455" lon="6.96691">
        <ele>791.8</ele>
        <time>2016-09-25T09:21:53Z</time>
      </trkpt>
      <trkpt lat="43.72458" lon="6.96695">
        <ele>792.5</ele>
        <time>2016-09-25T09:21:56Z</time>
      </trkpt>
      <trkpt lat="43.72461" lon="6.96699">
        <ele>793.4</ele>
        <time>2016-09-25T09:21:59Z</time>
      </trkpt>
      <trkpt lat="43.7246" lon="6.96704">
        <ele>793.3</ele>
        <time>2016-09-25T09:22:01Z</time>
      </trkpt>
      <trkpt lat="43.72463" lon="6.96708">
        <ele>794.3</ele>
        <time>2016-09-25T09:22:03Z</time>
      </trkpt>
      <trkpt lat="43.72466" lon="6.96711">
        <ele>795.2</ele>
        <time>2016-09-25T09:22:05Z</time>
      </trkpt>
      <trkpt lat="43.72469" lon="6.96713">
        <ele>795.9</ele>
        <time>2016-09-25T09:22:14Z</time>
      </trkpt>
      <trkpt lat="43.72472" lon="6.96715">
        <ele>796.7</ele>
        <time>2016-09-25T09:22:18Z</time>
      </trkpt>
      <trkpt lat="43.72475" lon="6.96716">
        <ele>797.5</ele>
        <time>2016-09-25T09:22:21Z</time>
      </trkpt>
      <trkpt lat="43.72477" lon="6.96717">
        <ele>798.3</ele>
        <time>2016-09-25T09:22:25Z</time>
      </trkpt>
      <trkpt lat="43.7248" lon="6.9672">
        <ele>799</ele>
        <time>2016-09-25T09:22:30Z</time>
      </trkpt>
      <trkpt lat="43.72482" lon="6.96723">
        <ele>799.3</ele>
        <time>2016-09-25T09:22:34Z</time>
      </trkpt>
      <trkpt lat="43.72482" lon="6.96727">
        <ele>799.3</ele>
        <time>2016-09-25T09:22:37Z</time>
      </trkpt>
      <trkpt lat="43.72483" lon="6.96732">
        <ele>799.3</ele>
        <time>2016-09-25T09:22:41Z</time>
      </trkpt>
      <trkpt lat="43.72484" lon="6.96736">
        <ele>799.6</ele>
        <time>2016-09-25T09:22:45Z</time>
      </trkpt>
      <trkpt lat="43.72486" lon="6.9674">
        <ele>799.9</ele>
        <time>2016-09-25T09:22:49Z</time>
      </trkpt>
      <trkpt lat="43.72487" lon="6.96744">
        <ele>800.1</ele>
        <time>2016-09-25T09:22:52Z</time>
      </trkpt>
      <trkpt lat="43.72488" lon="6.96748">
        <ele>800.2</ele>
        <time>2016-09-25T09:22:55Z</time>
      </trkpt>
      <trkpt lat="43.72488" lon="6.96752">
        <ele>800.2</ele>
        <time>2016-09-25T09:22:58Z</time>
      </trkpt>
      <trkpt lat="43.72489" lon="6.96756">
        <ele>800.3</ele>
        <time>2016-09-25T09:23:01Z</time>
      </trkpt>
      <trkpt lat="43.72492" lon="6.96759">
        <ele>800.8</ele>
        <time>2016-09-25T09:23:04Z</time>
      </trkpt>
      <trkpt lat="43.72495" lon="6.96762">
        <ele>801.4</ele>
        <time>2016-09-25T09:23:07Z</time>
      </trkpt>
      <trkpt lat="43.72497" lon="6.96766">
        <ele>801.8</ele>
        <time>2016-09-25T09:23:10Z</time>
      </trkpt>
      <trkpt lat="43.72499" lon="6.96768">
        <ele>802.3</ele>
        <time>2016-09-25T09:23:13Z</time>
      </trkpt>
      <trkpt lat="43.72502" lon="6.96766">
        <ele>803.2</ele>
        <time>2016-09-25T09:23:17Z</time>
      </trkpt>
      <trkpt lat="43.72502" lon="6.96762">
        <ele>803.3</ele>
        <time>2016-09-25T09:23:20Z</time>
      </trkpt>
      <trkpt lat="43.72501" lon="6.96758">
        <ele>803.1</ele>
        <time>2016-09-25T09:23:23Z</time>
      </trkpt>
      <trkpt lat="43.725" lon="6.96753">
        <ele>803.1</ele>
        <time>2016-09-25T09:23:26Z</time>
      </trkpt>
      <trkpt lat="43.725" lon="6.96749">
        <ele>803.3</ele>
        <time>2016-09-25T09:23:29Z</time>
      </trkpt>
      <trkpt lat="43.72501" lon="6.96745">
        <ele>803.8</ele>
        <time>2016-09-25T09:23:32Z</time>
      </trkpt>
      <trkpt lat="43.72505" lon="6.96745">
        <ele>804.7</ele>
        <time>2016-09-25T09:23:36Z</time>
      </trkpt>
      <trkpt lat="43.72506" lon="6.96748">
        <ele>804.9</ele>
        <time>2016-09-25T09:23:44Z</time>
      </trkpt>
      <trkpt lat="43.72508" lon="6.96751">
        <ele>805.3</ele>
        <time>2016-09-25T09:23:52Z</time>
      </trkpt>
      <trkpt lat="43.72512" lon="6.96753">
        <ele>806.1</ele>
        <time>2016-09-25T09:23:56Z</time>
      </trkpt>
      <trkpt lat="43.72514" lon="6.96756">
        <ele>806.5</ele>
        <time>2016-09-25T09:23:59Z</time>
      </trkpt>
      <trkpt lat="43.72516" lon="6.96758">
        <ele>806.9</ele>
        <time>2016-09-25T09:24:02Z</time>
      </trkpt>
      <trkpt lat="43.72519" lon="6.96761">
        <ele>807.5</ele>
        <time>2016-09-25T09:24:05Z</time>
      </trkpt>
      <trkpt lat="43.72521" lon="6.96763">
        <ele>808</ele>
        <time>2016-09-25T09:24:08Z</time>
      </trkpt>
      <trkpt lat="43.72524" lon="6.96766">
        <ele>808.6</ele>
        <time>2016-09-25T09:24:11Z</time>
      </trkpt>
      <trkpt lat="43.72527" lon="6.96767">
        <ele>809.2</ele>
        <time>2016-09-25T09:24:14Z</time>
      </trkpt>
      <trkpt lat="43.7253" lon="6.96769">
        <ele>809.8</ele>
        <time>2016-09-25T09:24:17Z</time>
      </trkpt>
      <trkpt lat="43.72533" lon="6.96771">
        <ele>810.5</ele>
        <time>2016-09-25T09:24:20Z</time>
      </trkpt>
      <trkpt lat="43.72536" lon="6.96774">
        <ele>811</ele>
        <time>2016-09-25T09:24:23Z</time>
      </trkpt>
      <trkpt lat="43.72539" lon="6.96776">
        <ele>811.4</ele>
        <time>2016-09-25T09:24:25Z</time>
      </trkpt>
      <trkpt lat="43.72541" lon="6.96778">
        <ele>811.9</ele>
        <time>2016-09-25T09:24:27Z</time>
      </trkpt>
      <trkpt lat="43.72544" lon="6.96781">
        <ele>812.3</ele>
        <time>2016-09-25T09:24:30Z</time>
      </trkpt>
      <trkpt lat="43.72546" lon="6.96784">
        <ele>812.5</ele>
        <time>2016-09-25T09:24:33Z</time>
      </trkpt>
      <trkpt lat="43.72549" lon="6.96786">
        <ele>812.9</ele>
        <time>2016-09-25T09:24:36Z</time>
      </trkpt>
      <trkpt lat="43.72552" lon="6.96788">
        <ele>813.4</ele>
        <time>2016-09-25T09:24:39Z</time>
      </trkpt>
      <trkpt lat="43.72555" lon="6.96789">
        <ele>814</ele>
        <time>2016-09-25T09:24:42Z</time>
      </trkpt>
      <trkpt lat="43.72557" lon="6.96791">
        <ele>814.4</ele>
        <time>2016-09-25T09:24:45Z</time>
      </trkpt>
      <trkpt lat="43.7256" lon="6.96793">
        <ele>814.9</ele>
        <time>2016-09-25T09:24:48Z</time>
      </trkpt>
      <trkpt lat="43.72563" lon="6.96795">
        <ele>815.4</ele>
        <time>2016-09-25T09:24:52Z</time>
      </trkpt>
      <trkpt lat="43.72565" lon="6.96798">
        <ele>815.8</ele>
        <time>2016-09-25T09:24:56Z</time>
      </trkpt>
      <trkpt lat="43.72568" lon="6.968">
        <ele>816.1</ele>
        <time>2016-09-25T09:24:59Z</time>
      </trkpt>
      <trkpt lat="43.7257" lon="6.96803">
        <ele>816.5</ele>
        <time>2016-09-25T09:25:02Z</time>
      </trkpt>
      <trkpt lat="43.72573" lon="6.96806">
        <ele>816.9</ele>
        <time>2016-09-25T09:25:05Z</time>
      </trkpt>
      <trkpt lat="43.72575" lon="6.96808">
        <ele>817.3</ele>
        <time>2016-09-25T09:25:08Z</time>
      </trkpt>
      <trkpt lat="43.72577" lon="6.96812">
        <ele>817.6</ele>
        <time>2016-09-25T09:25:14Z</time>
      </trkpt>
      <trkpt lat="43.7258" lon="6.96814">
        <ele>817.9</ele>
        <time>2016-09-25T09:25:21Z</time>
      </trkpt>
      <trkpt lat="43.72582" lon="6.96817">
        <ele>818.4</ele>
        <time>2016-09-25T09:25:25Z</time>
      </trkpt>
      <trkpt lat="43.72585" lon="6.96821">
        <ele>818.9</ele>
        <time>2016-09-25T09:25:28Z</time>
      </trkpt>
      <trkpt lat="43.72588" lon="6.96824">
        <ele>819.2</ele>
        <time>2016-09-25T09:25:30Z</time>
      </trkpt>
      <trkpt lat="43.7259" lon="6.96826">
        <ele>819.6</ele>
        <time>2016-09-25T09:25:32Z</time>
      </trkpt>
      <trkpt lat="43.72592" lon="6.96828">
        <ele>820</ele>
        <time>2016-09-25T09:25:34Z</time>
      </trkpt>
      <trkpt lat="43.72594" lon="6.96831">
        <ele>820.4</ele>
        <time>2016-09-25T09:25:36Z</time>
      </trkpt>
      <trkpt lat="43.72597" lon="6.96833">
        <ele>820.9</ele>
        <time>2016-09-25T09:25:39Z</time>
      </trkpt>
      <trkpt lat="43.72599" lon="6.96836">
        <ele>821.4</ele>
        <time>2016-09-25T09:25:42Z</time>
      </trkpt>
      <trkpt lat="43.72602" lon="6.96838">
        <ele>821.9</ele>
        <time>2016-09-25T09:25:45Z</time>
      </trkpt>
      <trkpt lat="43.72605" lon="6.96839">
        <ele>822.6</ele>
        <time>2016-09-25T09:25:48Z</time>
      </trkpt>
      <trkpt lat="43.72608" lon="6.96842">
        <ele>823.2</ele>
        <time>2016-09-25T09:25:51Z</time>
      </trkpt>
      <trkpt lat="43.7261" lon="6.96844">
        <ele>823.6</ele>
        <time>2016-09-25T09:25:54Z</time>
      </trkpt>
      <trkpt lat="43.72613" lon="6.96846">
        <ele>824.2</ele>
        <time>2016-09-25T09:25:57Z</time>
      </trkpt>
      <trkpt lat="43.72615" lon="6.96848">
        <ele>824.7</ele>
        <time>2016-09-25T09:26:00Z</time>
      </trkpt>
      <trkpt lat="43.72618" lon="6.96851">
        <ele>825.1</ele>
        <time>2016-09-25T09:26:03Z</time>
      </trkpt>
      <trkpt lat="43.7262" lon="6.96854">
        <ele>825.6</ele>
        <time>2016-09-25T09:26:06Z</time>
      </trkpt>
      <trkpt lat="43.72622" lon="6.96857">
        <ele>826</ele>
        <time>2016-09-25T09:26:09Z</time>
      </trkpt>
      <trkpt lat="43.72624" lon="6.9686">
        <ele>826.4</ele>
        <time>2016-09-25T09:26:12Z</time>
      </trkpt>
      <trkpt lat="43.72627" lon="6.96862">
        <ele>826.8</ele>
        <time>2016-09-25T09:26:15Z</time>
      </trkpt>
      <trkpt lat="43.7263" lon="6.96862">
        <ele>827.1</ele>
        <time>2016-09-25T09:26:18Z</time>
      </trkpt>
      <trkpt lat="43.72633" lon="6.96862">
        <ele>827.5</ele>
        <time>2016-09-25T09:26:21Z</time>
      </trkpt>
      <trkpt lat="43.72635" lon="6.9686">
        <ele>827.9</ele>
        <time>2016-09-25T09:26:24Z</time>
      </trkpt>
      <trkpt lat="43.72638" lon="6.96858">
        <ele>828.3</ele>
        <time>2016-09-25T09:26:27Z</time>
      </trkpt>
      <trkpt lat="43.7264" lon="6.96855">
        <ele>828.7</ele>
        <time>2016-09-25T09:26:30Z</time>
      </trkpt>
      <trkpt lat="43.72643" lon="6.96853">
        <ele>829.1</ele>
        <time>2016-09-25T09:26:33Z</time>
      </trkpt>
      <trkpt lat="43.72645" lon="6.96851">
        <ele>829.5</ele>
        <time>2016-09-25T09:26:36Z</time>
      </trkpt>
      <trkpt lat="43.72649" lon="6.96849">
        <ele>829.9</ele>
        <time>2016-09-25T09:26:39Z</time>
      </trkpt>
      <trkpt lat="43.72652" lon="6.96849">
        <ele>830.4</ele>
        <time>2016-09-25T09:26:42Z</time>
      </trkpt>
      <trkpt lat="43.72656" lon="6.96849">
        <ele>830.8</ele>
        <time>2016-09-25T09:26:45Z</time>
      </trkpt>
      <trkpt lat="43.72659" lon="6.96848">
        <ele>831.1</ele>
        <time>2016-09-25T09:26:48Z</time>
      </trkpt>
      <trkpt lat="43.72661" lon="6.96845">
        <ele>831.5</ele>
        <time>2016-09-25T09:26:51Z</time>
      </trkpt>
      <trkpt lat="43.72663" lon="6.96842">
        <ele>831.8</ele>
        <time>2016-09-25T09:26:53Z</time>
      </trkpt>
      <trkpt lat="43.72666" lon="6.96839">
        <ele>832.2</ele>
        <time>2016-09-25T09:26:56Z</time>
      </trkpt>
      <trkpt lat="43.72669" lon="6.96836">
        <ele>832.5</ele>
        <time>2016-09-25T09:26:58Z</time>
      </trkpt>
      <trkpt lat="43.72672" lon="6.96834">
        <ele>832.9</ele>
        <time>2016-09-25T09:27:01Z</time>
      </trkpt>
      <trkpt lat="43.72675" lon="6.96835">
        <ele>833.2</ele>
        <time>2016-09-25T09:27:03Z</time>
      </trkpt>
      <trkpt lat="43.72678" lon="6.96836">
        <ele>833.5</ele>
        <time>2016-09-25T09:27:05Z</time>
      </trkpt>
      <trkpt lat="43.72681" lon="6.96836">
        <ele>833.9</ele>
        <time>2016-09-25T09:27:07Z</time>
      </trkpt>
      <trkpt lat="43.72684" lon="6.96834">
        <ele>834.2</ele>
        <time>2016-09-25T09:27:09Z</time>
      </trkpt>
      <trkpt lat="43.72686" lon="6.9683">
        <ele>834.4</ele>
        <time>2016-09-25T09:27:11Z</time>
      </trkpt>
      <trkpt lat="43.72688" lon="6.96827">
        <ele>834.6</ele>
        <time>2016-09-25T09:27:13Z</time>
      </trkpt>
      <trkpt lat="43.7269" lon="6.96823">
        <ele>834.8</ele>
        <time>2016-09-25T09:27:15Z</time>
      </trkpt>
      <trkpt lat="43.72692" lon="6.96819">
        <ele>834.9</ele>
        <time>2016-09-25T09:27:17Z</time>
      </trkpt>
      <trkpt lat="43.72694" lon="6.96815">
        <ele>835.1</ele>
        <time>2016-09-25T09:27:19Z</time>
      </trkpt>
      <trkpt lat="43.72695" lon="6.96811">
        <ele>835.2</ele>
        <time>2016-09-25T09:27:21Z</time>
      </trkpt>
      <trkpt lat="43.72697" lon="6.96807">
        <ele>835.3</ele>
        <time>2016-09-25T09:27:23Z</time>
      </trkpt>
      <trkpt lat="43.72699" lon="6.96803">
        <ele>835.4</ele>
        <time>2016-09-25T09:27:25Z</time>
      </trkpt>
      <trkpt lat="43.72701" lon="6.96799">
        <ele>835.5</ele>
        <time>2016-09-25T09:27:27Z</time>
      </trkpt>
      <trkpt lat="43.72703" lon="6.96795">
        <ele>835.6</ele>
        <time>2016-09-25T09:27:29Z</time>
      </trkpt>
      <trkpt lat="43.72705" lon="6.96791">
        <ele>835.7</ele>
        <time>2016-09-25T09:27:31Z</time>
      </trkpt>
      <trkpt lat="43.72706" lon="6.96787">
        <ele>835.8</ele>
        <time>2016-09-25T09:27:33Z</time>
      </trkpt>
      <trkpt lat="43.72708" lon="6.96783">
        <ele>835.9</ele>
        <time>2016-09-25T09:27:35Z</time>
      </trkpt>
      <trkpt lat="43.7271" lon="6.96779">
        <ele>836.2</ele>
        <time>2016-09-25T09:27:37Z</time>
      </trkpt>
      <trkpt lat="43.72711" lon="6.96774">
        <ele>836.5</ele>
        <time>2016-09-25T09:27:40Z</time>
      </trkpt>
      <trkpt lat="43.7271" lon="6.96771">
        <ele>836.2</ele>
        <time>2016-09-25T09:28:55Z</time>
      </trkpt>
      <trkpt lat="43.72709" lon="6.96767">
        <ele>836</ele>
        <time>2016-09-25T09:28:58Z</time>
      </trkpt>
      <trkpt lat="43.7271" lon="6.96762">
        <ele>836.2</ele>
        <time>2016-09-25T09:29:01Z</time>
      </trkpt>
      <trkpt lat="43.72711" lon="6.96758">
        <ele>836.5</ele>
        <time>2016-09-25T09:29:03Z</time>
      </trkpt>
      <trkpt lat="43.72712" lon="6.96754">
        <ele>836.8</ele>
        <time>2016-09-25T09:29:05Z</time>
      </trkpt>
      <trkpt lat="43.72714" lon="6.9675">
        <ele>837.1</ele>
        <time>2016-09-25T09:29:07Z</time>
      </trkpt>
      <trkpt lat="43.72715" lon="6.96747">
        <ele>837.5</ele>
        <time>2016-09-25T09:29:09Z</time>
      </trkpt>
      <trkpt lat="43.72716" lon="6.96743">
        <ele>838</ele>
        <time>2016-09-25T09:29:11Z</time>
      </trkpt>
      <trkpt lat="43.72717" lon="6.96738">
        <ele>838.3</ele>
        <time>2016-09-25T09:29:13Z</time>
      </trkpt>
      <trkpt lat="43.72718" lon="6.96733">
        <ele>838.6</ele>
        <time>2016-09-25T09:29:15Z</time>
      </trkpt>
      <trkpt lat="43.72719" lon="6.96728">
        <ele>838.9</ele>
        <time>2016-09-25T09:29:17Z</time>
      </trkpt>
      <trkpt lat="43.7272" lon="6.96723">
        <ele>839.2</ele>
        <time>2016-09-25T09:29:19Z</time>
      </trkpt>
      <trkpt lat="43.72721" lon="6.96717">
        <ele>839.5</ele>
        <time>2016-09-25T09:29:21Z</time>
      </trkpt>
      <trkpt lat="43.72722" lon="6.96712">
        <ele>839.7</ele>
        <time>2016-09-25T09:29:23Z</time>
      </trkpt>
      <trkpt lat="43.72723" lon="6.96706">
        <ele>840</ele>
        <time>2016-09-25T09:29:25Z</time>
      </trkpt>
      <trkpt lat="43.72723" lon="6.967">
        <ele>840.2</ele>
        <time>2016-09-25T09:29:27Z</time>
      </trkpt>
      <trkpt lat="43.72724" lon="6.96695">
        <ele>840.4</ele>
        <time>2016-09-25T09:29:29Z</time>
      </trkpt>
      <trkpt lat="43.72725" lon="6.9669">
        <ele>840.9</ele>
        <time>2016-09-25T09:29:31Z</time>
      </trkpt>
      <trkpt lat="43.72726" lon="6.96684">
        <ele>841.2</ele>
        <time>2016-09-25T09:29:33Z</time>
      </trkpt>
      <trkpt lat="43.72727" lon="6.96677">
        <ele>841.5</ele>
        <time>2016-09-25T09:29:35Z</time>
      </trkpt>
      <trkpt lat="43.72728" lon="6.96671">
        <ele>841.9</ele>
        <time>2016-09-25T09:29:37Z</time>
      </trkpt>
      <trkpt lat="43.72729" lon="6.96665">
        <ele>842.3</ele>
        <time>2016-09-25T09:29:39Z</time>
      </trkpt>
      <trkpt lat="43.7273" lon="6.9666">
        <ele>842.7</ele>
        <time>2016-09-25T09:29:41Z</time>
      </trkpt>
      <trkpt lat="43.7273" lon="6.96655">
        <ele>843</ele>
        <time>2016-09-25T09:29:43Z</time>
      </trkpt>
      <trkpt lat="43.72731" lon="6.96649">
        <ele>843.3</ele>
        <time>2016-09-25T09:29:45Z</time>
      </trkpt>
      <trkpt lat="43.72732" lon="6.96644">
        <ele>843.5</ele>
        <time>2016-09-25T09:29:47Z</time>
      </trkpt>
      <trkpt lat="43.72732" lon="6.96639">
        <ele>843.6</ele>
        <time>2016-09-25T09:29:49Z</time>
      </trkpt>
      <trkpt lat="43.72732" lon="6.96634">
        <ele>843.6</ele>
        <time>2016-09-25T09:29:51Z</time>
      </trkpt>
      <trkpt lat="43.72732" lon="6.96629">
        <ele>843.7</ele>
        <time>2016-09-25T09:29:53Z</time>
      </trkpt>
      <trkpt lat="43.72732" lon="6.96624">
        <ele>843.8</ele>
        <time>2016-09-25T09:29:55Z</time>
      </trkpt>
      <trkpt lat="43.72733" lon="6.9662">
        <ele>844.3</ele>
        <time>2016-09-25T09:29:57Z</time>
      </trkpt>
      <trkpt lat="43.72734" lon="6.96615">
        <ele>844.8</ele>
        <time>2016-09-25T09:29:59Z</time>
      </trkpt>
      <trkpt lat="43.72734" lon="6.9661">
        <ele>845.2</ele>
        <time>2016-09-25T09:30:01Z</time>
      </trkpt>
      <trkpt lat="43.72735" lon="6.96604">
        <ele>845.5</ele>
        <time>2016-09-25T09:30:03Z</time>
      </trkpt>
      <trkpt lat="43.72735" lon="6.96599">
        <ele>845.9</ele>
        <time>2016-09-25T09:30:05Z</time>
      </trkpt>
      <trkpt lat="43.72736" lon="6.96594">
        <ele>846.4</ele>
        <time>2016-09-25T09:30:07Z</time>
      </trkpt>
      <trkpt lat="43.72736" lon="6.96589">
        <ele>846.8</ele>
        <time>2016-09-25T09:30:09Z</time>
      </trkpt>
      <trkpt lat="43.72736" lon="6.96583">
        <ele>847.1</ele>
        <time>2016-09-25T09:30:11Z</time>
      </trkpt>
      <trkpt lat="43.72737" lon="6.96578">
        <ele>847.6</ele>
        <time>2016-09-25T09:30:13Z</time>
      </trkpt>
      <trkpt lat="43.72737" lon="6.96573">
        <ele>847.9</ele>
        <time>2016-09-25T09:30:15Z</time>
      </trkpt>
      <trkpt lat="43.72737" lon="6.96567">
        <ele>848</ele>
        <time>2016-09-25T09:30:17Z</time>
      </trkpt>
      <trkpt lat="43.72737" lon="6.96562">
        <ele>848.1</ele>
        <time>2016-09-25T09:30:19Z</time>
      </trkpt>
      <trkpt lat="43.72736" lon="6.96556">
        <ele>848.2</ele>
        <time>2016-09-25T09:30:21Z</time>
      </trkpt>
      <trkpt lat="43.72737" lon="6.96551">
        <ele>848.5</ele>
        <time>2016-09-25T09:30:23Z</time>
      </trkpt>
      <trkpt lat="43.72737" lon="6.96545">
        <ele>848.7</ele>
        <time>2016-09-25T09:30:25Z</time>
      </trkpt>
      <trkpt lat="43.72736" lon="6.96539">
        <ele>848.8</ele>
        <time>2016-09-25T09:30:27Z</time>
      </trkpt>
      <trkpt lat="43.72736" lon="6.96534">
        <ele>849.1</ele>
        <time>2016-09-25T09:30:29Z</time>
      </trkpt>
      <trkpt lat="43.72736" lon="6.96528">
        <ele>849.5</ele>
        <time>2016-09-25T09:30:31Z</time>
      </trkpt>
      <trkpt lat="43.72736" lon="6.96523">
        <ele>849.7</ele>
        <time>2016-09-25T09:30:33Z</time>
      </trkpt>
      <trkpt lat="43.72735" lon="6.96517">
        <ele>849.7</ele>
        <time>2016-09-25T09:30:35Z</time>
      </trkpt>
      <trkpt lat="43.72735" lon="6.96511">
        <ele>849.7</ele>
        <time>2016-09-25T09:30:37Z</time>
      </trkpt>
      <trkpt lat="43.72734" lon="6.96506">
        <ele>849.7</ele>
        <time>2016-09-25T09:30:39Z</time>
      </trkpt>
      <trkpt lat="43.72734" lon="6.965">
        <ele>849.9</ele>
        <time>2016-09-25T09:30:41Z</time>
      </trkpt>
      <trkpt lat="43.72733" lon="6.96495">
        <ele>850</ele>
        <time>2016-09-25T09:30:43Z</time>
      </trkpt>
      <trkpt lat="43.72733" lon="6.9649">
        <ele>850.1</ele>
        <time>2016-09-25T09:30:45Z</time>
      </trkpt>
      <trkpt lat="43.72733" lon="6.96484">
        <ele>850.4</ele>
        <time>2016-09-25T09:30:47Z</time>
      </trkpt>
      <trkpt lat="43.72733" lon="6.96479">
        <ele>850.7</ele>
        <time>2016-09-25T09:30:49Z</time>
      </trkpt>
      <trkpt lat="43.72733" lon="6.96473">
        <ele>850.9</ele>
        <time>2016-09-25T09:30:51Z</time>
      </trkpt>
      <trkpt lat="43.72733" lon="6.96468">
        <ele>851.3</ele>
        <time>2016-09-25T09:30:53Z</time>
      </trkpt>
      <trkpt lat="43.72733" lon="6.96462">
        <ele>851.8</ele>
        <time>2016-09-25T09:30:55Z</time>
      </trkpt>
      <trkpt lat="43.72734" lon="6.96457">
        <ele>852.2</ele>
        <time>2016-09-25T09:30:57Z</time>
      </trkpt>
      <trkpt lat="43.72734" lon="6.96451">
        <ele>852.5</ele>
        <time>2016-09-25T09:30:59Z</time>
      </trkpt>
      <trkpt lat="43.72734" lon="6.96445">
        <ele>852.8</ele>
        <time>2016-09-25T09:31:01Z</time>
      </trkpt>
      <trkpt lat="43.72733" lon="6.96439">
        <ele>852.7</ele>
        <time>2016-09-25T09:31:03Z</time>
      </trkpt>
      <trkpt lat="43.72733" lon="6.96434">
        <ele>852.7</ele>
        <time>2016-09-25T09:31:05Z</time>
      </trkpt>
      <trkpt lat="43.72732" lon="6.96429">
        <ele>852.7</ele>
        <time>2016-09-25T09:31:07Z</time>
      </trkpt>
      <trkpt lat="43.72732" lon="6.96423">
        <ele>852.9</ele>
        <time>2016-09-25T09:31:09Z</time>
      </trkpt>
      <trkpt lat="43.72732" lon="6.96418">
        <ele>853.3</ele>
        <time>2016-09-25T09:31:11Z</time>
      </trkpt>
      <trkpt lat="43.72732" lon="6.96413">
        <ele>853.5</ele>
        <time>2016-09-25T09:31:13Z</time>
      </trkpt>
      <trkpt lat="43.72732" lon="6.96407">
        <ele>853.5</ele>
        <time>2016-09-25T09:31:15Z</time>
      </trkpt>
      <trkpt lat="43.72732" lon="6.96402">
        <ele>853.7</ele>
        <time>2016-09-25T09:31:17Z</time>
      </trkpt>
      <trkpt lat="43.72732" lon="6.96396">
        <ele>854.1</ele>
        <time>2016-09-25T09:31:19Z</time>
      </trkpt>
      <trkpt lat="43.72732" lon="6.96391">
        <ele>854.4</ele>
        <time>2016-09-25T09:31:21Z</time>
      </trkpt>
      <trkpt lat="43.72732" lon="6.96386">
        <ele>854.6</ele>
        <time>2016-09-25T09:31:23Z</time>
      </trkpt>
      <trkpt lat="43.72732" lon="6.9638">
        <ele>854.8</ele>
        <time>2016-09-25T09:31:25Z</time>
      </trkpt>
      <trkpt lat="43.72732" lon="6.96375">
        <ele>855</ele>
        <time>2016-09-25T09:31:27Z</time>
      </trkpt>
      <trkpt lat="43.72732" lon="6.96369">
        <ele>854.7</ele>
        <time>2016-09-25T09:31:29Z</time>
      </trkpt>
      <trkpt lat="43.72732" lon="6.96363">
        <ele>854.3</ele>
        <time>2016-09-25T09:31:31Z</time>
      </trkpt>
      <trkpt lat="43.72732" lon="6.96357">
        <ele>854.1</ele>
        <time>2016-09-25T09:31:33Z</time>
      </trkpt>
      <trkpt lat="43.72732" lon="6.96352">
        <ele>854</ele>
        <time>2016-09-25T09:31:35Z</time>
      </trkpt>
      <trkpt lat="43.72732" lon="6.96347">
        <ele>853.8</ele>
        <time>2016-09-25T09:31:37Z</time>
      </trkpt>
      <trkpt lat="43.72732" lon="6.96341">
        <ele>853.5</ele>
        <time>2016-09-25T09:31:39Z</time>
      </trkpt>
      <trkpt lat="43.72732" lon="6.96336">
        <ele>853.2</ele>
        <time>2016-09-25T09:31:41Z</time>
      </trkpt>
      <trkpt lat="43.72731" lon="6.9633">
        <ele>852.7</ele>
        <time>2016-09-25T09:31:43Z</time>
      </trkpt>
      <trkpt lat="43.72731" lon="6.96325">
        <ele>852.4</ele>
        <time>2016-09-25T09:31:45Z</time>
      </trkpt>
      <trkpt lat="43.72731" lon="6.9632">
        <ele>852.1</ele>
        <time>2016-09-25T09:31:47Z</time>
      </trkpt>
      <trkpt lat="43.72731" lon="6.96315">
        <ele>851.7</ele>
        <time>2016-09-25T09:31:49Z</time>
      </trkpt>
      <trkpt lat="43.7273" lon="6.9631">
        <ele>851.2</ele>
        <time>2016-09-25T09:31:51Z</time>
      </trkpt>
      <trkpt lat="43.7273" lon="6.96305">
        <ele>850.8</ele>
        <time>2016-09-25T09:31:53Z</time>
      </trkpt>
      <trkpt lat="43.7273" lon="6.963">
        <ele>850.7</ele>
        <time>2016-09-25T09:31:55Z</time>
      </trkpt>
      <trkpt lat="43.7273" lon="6.96295">
        <ele>850.5</ele>
        <time>2016-09-25T09:31:57Z</time>
      </trkpt>
      <trkpt lat="43.7273" lon="6.9629">
        <ele>850.2</ele>
        <time>2016-09-25T09:31:59Z</time>
      </trkpt>
      <trkpt lat="43.7273" lon="6.96285">
        <ele>849.3</ele>
        <time>2016-09-25T09:32:01Z</time>
      </trkpt>
      <trkpt lat="43.7273" lon="6.96279">
        <ele>848.3</ele>
        <time>2016-09-25T09:32:03Z</time>
      </trkpt>
      <trkpt lat="43.7273" lon="6.96274">
        <ele>847.4</ele>
        <time>2016-09-25T09:32:05Z</time>
      </trkpt>
      <trkpt lat="43.7273" lon="6.96268">
        <ele>846.7</ele>
        <time>2016-09-25T09:32:07Z</time>
      </trkpt>
      <trkpt lat="43.7273" lon="6.96262">
        <ele>845.8</ele>
        <time>2016-09-25T09:32:09Z</time>
      </trkpt>
      <trkpt lat="43.72731" lon="6.96257">
        <ele>845.2</ele>
        <time>2016-09-25T09:32:11Z</time>
      </trkpt>
      <trkpt lat="43.72732" lon="6.96252">
        <ele>845</ele>
        <time>2016-09-25T09:32:13Z</time>
      </trkpt>
      <trkpt lat="43.72734" lon="6.96246">
        <ele>844.9</ele>
        <time>2016-09-25T09:32:15Z</time>
      </trkpt>
      <trkpt lat="43.72735" lon="6.96241">
        <ele>844.9</ele>
        <time>2016-09-25T09:32:17Z</time>
      </trkpt>
      <trkpt lat="43.72737" lon="6.96236">
        <ele>844.7</ele>
        <time>2016-09-25T09:32:19Z</time>
      </trkpt>
      <trkpt lat="43.72738" lon="6.96231">
        <ele>844.6</ele>
        <time>2016-09-25T09:32:21Z</time>
      </trkpt>
      <trkpt lat="43.7274" lon="6.96226">
        <ele>844.6</ele>
        <time>2016-09-25T09:32:23Z</time>
      </trkpt>
      <trkpt lat="43.72741" lon="6.9622">
        <ele>844.3</ele>
        <time>2016-09-25T09:32:25Z</time>
      </trkpt>
      <trkpt lat="43.72742" lon="6.96216">
        <ele>844.2</ele>
        <time>2016-09-25T09:32:27Z</time>
      </trkpt>
      <trkpt lat="43.72744" lon="6.96211">
        <ele>844.5</ele>
        <time>2016-09-25T09:32:29Z</time>
      </trkpt>
      <trkpt lat="43.72746" lon="6.96207">
        <ele>844.8</ele>
        <time>2016-09-25T09:32:31Z</time>
      </trkpt>
      <trkpt lat="43.72748" lon="6.96203">
        <ele>845.3</ele>
        <time>2016-09-25T09:32:33Z</time>
      </trkpt>
      <trkpt lat="43.7275" lon="6.96199">
        <ele>845.9</ele>
        <time>2016-09-25T09:32:35Z</time>
      </trkpt>
      <trkpt lat="43.72753" lon="6.96195">
        <ele>846.2</ele>
        <time>2016-09-25T09:32:37Z</time>
      </trkpt>
      <trkpt lat="43.72755" lon="6.96191">
        <ele>846.5</ele>
        <time>2016-09-25T09:32:39Z</time>
      </trkpt>
      <trkpt lat="43.72757" lon="6.96187">
        <ele>846.9</ele>
        <time>2016-09-25T09:32:41Z</time>
      </trkpt>
      <trkpt lat="43.72759" lon="6.96183">
        <ele>847.1</ele>
        <time>2016-09-25T09:32:43Z</time>
      </trkpt>
      <trkpt lat="43.72761" lon="6.96178">
        <ele>847.3</ele>
        <time>2016-09-25T09:32:45Z</time>
      </trkpt>
      <trkpt lat="43.72764" lon="6.96172">
        <ele>847.5</ele>
        <time>2016-09-25T09:32:48Z</time>
      </trkpt>
      <trkpt lat="43.72766" lon="6.96168">
        <ele>847.6</ele>
        <time>2016-09-25T09:32:50Z</time>
      </trkpt>
      <trkpt lat="43.72768" lon="6.96163">
        <ele>847.5</ele>
        <time>2016-09-25T09:32:52Z</time>
      </trkpt>
      <trkpt lat="43.7277" lon="6.96159">
        <ele>847.5</ele>
        <time>2016-09-25T09:32:54Z</time>
      </trkpt>
      <trkpt lat="43.72773" lon="6.96155">
        <ele>847.6</ele>
        <time>2016-09-25T09:32:56Z</time>
      </trkpt>
      <trkpt lat="43.72775" lon="6.96151">
        <ele>847.6</ele>
        <time>2016-09-25T09:32:58Z</time>
      </trkpt>
      <trkpt lat="43.72777" lon="6.96147">
        <ele>847.5</ele>
        <time>2016-09-25T09:33:00Z</time>
      </trkpt>
      <trkpt lat="43.72779" lon="6.96143">
        <ele>847.4</ele>
        <time>2016-09-25T09:33:02Z</time>
      </trkpt>
      <trkpt lat="43.72782" lon="6.96139">
        <ele>847.3</ele>
        <time>2016-09-25T09:33:04Z</time>
      </trkpt>
      <trkpt lat="43.72784" lon="6.96136">
        <ele>847.3</ele>
        <time>2016-09-25T09:33:06Z</time>
      </trkpt>
      <trkpt lat="43.72787" lon="6.96132">
        <ele>847.2</ele>
        <time>2016-09-25T09:33:08Z</time>
      </trkpt>
      <trkpt lat="43.7279" lon="6.96129">
        <ele>847.4</ele>
        <time>2016-09-25T09:33:10Z</time>
      </trkpt>
      <trkpt lat="43.72792" lon="6.96126">
        <ele>847.3</ele>
        <time>2016-09-25T09:33:12Z</time>
      </trkpt>
      <trkpt lat="43.72794" lon="6.96122">
        <ele>847.7</ele>
        <time>2016-09-25T09:33:14Z</time>
      </trkpt>
      <trkpt lat="43.72797" lon="6.96118">
        <ele>848.2</ele>
        <time>2016-09-25T09:33:16Z</time>
      </trkpt>
      <trkpt lat="43.728" lon="6.96116">
        <ele>849</ele>
        <time>2016-09-25T09:33:18Z</time>
      </trkpt>
      <trkpt lat="43.72803" lon="6.96113">
        <ele>849.8</ele>
        <time>2016-09-25T09:33:20Z</time>
      </trkpt>
      <trkpt lat="43.72806" lon="6.9611">
        <ele>850.5</ele>
        <time>2016-09-25T09:33:22Z</time>
      </trkpt>
      <trkpt lat="43.72809" lon="6.96107">
        <ele>851.1</ele>
        <time>2016-09-25T09:33:24Z</time>
      </trkpt>
      <trkpt lat="43.72813" lon="6.96105">
        <ele>851.9</ele>
        <time>2016-09-25T09:33:26Z</time>
      </trkpt>
      <trkpt lat="43.72816" lon="6.96102">
        <ele>852.6</ele>
        <time>2016-09-25T09:33:28Z</time>
      </trkpt>
      <trkpt lat="43.7282" lon="6.961">
        <ele>853.3</ele>
        <time>2016-09-25T09:33:30Z</time>
      </trkpt>
      <trkpt lat="43.72823" lon="6.96098">
        <ele>854.1</ele>
        <time>2016-09-25T09:33:32Z</time>
      </trkpt>
      <trkpt lat="43.72827" lon="6.96095">
        <ele>854.8</ele>
        <time>2016-09-25T09:33:34Z</time>
      </trkpt>
      <trkpt lat="43.72831" lon="6.96094">
        <ele>855.6</ele>
        <time>2016-09-25T09:33:36Z</time>
      </trkpt>
      <trkpt lat="43.72835" lon="6.96091">
        <ele>856.3</ele>
        <time>2016-09-25T09:33:38Z</time>
      </trkpt>
      <trkpt lat="43.72838" lon="6.96089">
        <ele>856.8</ele>
        <time>2016-09-25T09:33:40Z</time>
      </trkpt>
      <trkpt lat="43.72842" lon="6.96086">
        <ele>857</ele>
        <time>2016-09-25T09:33:42Z</time>
      </trkpt>
      <trkpt lat="43.72845" lon="6.96083">
        <ele>857.3</ele>
        <time>2016-09-25T09:33:44Z</time>
      </trkpt>
      <trkpt lat="43.72848" lon="6.96081">
        <ele>857.6</ele>
        <time>2016-09-25T09:33:46Z</time>
      </trkpt>
      <trkpt lat="43.72851" lon="6.96079">
        <ele>857.9</ele>
        <time>2016-09-25T09:33:48Z</time>
      </trkpt>
      <trkpt lat="43.72855" lon="6.96076">
        <ele>858.2</ele>
        <time>2016-09-25T09:33:50Z</time>
      </trkpt>
      <trkpt lat="43.72858" lon="6.96074">
        <ele>858.4</ele>
        <time>2016-09-25T09:33:52Z</time>
      </trkpt>
      <trkpt lat="43.72862" lon="6.96072">
        <ele>858.6</ele>
        <time>2016-09-25T09:33:54Z</time>
      </trkpt>
      <trkpt lat="43.72865" lon="6.9607">
        <ele>858.8</ele>
        <time>2016-09-25T09:33:56Z</time>
      </trkpt>
      <trkpt lat="43.72869" lon="6.96068">
        <ele>859.1</ele>
        <time>2016-09-25T09:33:58Z</time>
      </trkpt>
      <trkpt lat="43.72872" lon="6.96067">
        <ele>859.4</ele>
        <time>2016-09-25T09:34:00Z</time>
      </trkpt>
      <trkpt lat="43.72875" lon="6.96065">
        <ele>859.5</ele>
        <time>2016-09-25T09:34:02Z</time>
      </trkpt>
      <trkpt lat="43.72879" lon="6.96063">
        <ele>859.9</ele>
        <time>2016-09-25T09:34:04Z</time>
      </trkpt>
      <trkpt lat="43.72883" lon="6.96061">
        <ele>860.4</ele>
        <time>2016-09-25T09:34:06Z</time>
      </trkpt>
      <trkpt lat="43.72886" lon="6.9606">
        <ele>861</ele>
        <time>2016-09-25T09:34:08Z</time>
      </trkpt>
      <trkpt lat="43.7289" lon="6.96059">
        <ele>861.4</ele>
        <time>2016-09-25T09:34:10Z</time>
      </trkpt>
      <trkpt lat="43.72893" lon="6.96057">
        <ele>861.6</ele>
        <time>2016-09-25T09:34:12Z</time>
      </trkpt>
      <trkpt lat="43.72897" lon="6.96055">
        <ele>861.9</ele>
        <time>2016-09-25T09:34:14Z</time>
      </trkpt>
      <trkpt lat="43.729" lon="6.96052">
        <ele>861.9</ele>
        <time>2016-09-25T09:34:16Z</time>
      </trkpt>
      <trkpt lat="43.72903" lon="6.96049">
        <ele>861.6</ele>
        <time>2016-09-25T09:34:18Z</time>
      </trkpt>
      <trkpt lat="43.72906" lon="6.96047">
        <ele>861.5</ele>
        <time>2016-09-25T09:34:20Z</time>
      </trkpt>
      <trkpt lat="43.72909" lon="6.96045">
        <ele>861.6</ele>
        <time>2016-09-25T09:34:22Z</time>
      </trkpt>
      <trkpt lat="43.72912" lon="6.96042">
        <ele>861.5</ele>
        <time>2016-09-25T09:34:24Z</time>
      </trkpt>
      <trkpt lat="43.72916" lon="6.9604">
        <ele>862.1</ele>
        <time>2016-09-25T09:34:26Z</time>
      </trkpt>
      <trkpt lat="43.72919" lon="6.96038">
        <ele>862.8</ele>
        <time>2016-09-25T09:34:28Z</time>
      </trkpt>
      <trkpt lat="43.72922" lon="6.96036">
        <ele>863.3</ele>
        <time>2016-09-25T09:34:30Z</time>
      </trkpt>
      <trkpt lat="43.72925" lon="6.96033">
        <ele>863.8</ele>
        <time>2016-09-25T09:34:32Z</time>
      </trkpt>
      <trkpt lat="43.72928" lon="6.96031">
        <ele>864.2</ele>
        <time>2016-09-25T09:34:34Z</time>
      </trkpt>
      <trkpt lat="43.72932" lon="6.96029">
        <ele>864.7</ele>
        <time>2016-09-25T09:34:36Z</time>
      </trkpt>
      <trkpt lat="43.72935" lon="6.96027">
        <ele>865.2</ele>
        <time>2016-09-25T09:34:38Z</time>
      </trkpt>
      <trkpt lat="43.72938" lon="6.96026">
        <ele>865.7</ele>
        <time>2016-09-25T09:34:40Z</time>
      </trkpt>
      <trkpt lat="43.72942" lon="6.96024">
        <ele>866.2</ele>
        <time>2016-09-25T09:34:42Z</time>
      </trkpt>
      <trkpt lat="43.72945" lon="6.96023">
        <ele>866.7</ele>
        <time>2016-09-25T09:34:44Z</time>
      </trkpt>
      <trkpt lat="43.72949" lon="6.96022">
        <ele>867.2</ele>
        <time>2016-09-25T09:34:46Z</time>
      </trkpt>
      <trkpt lat="43.72952" lon="6.96021">
        <ele>867.7</ele>
        <time>2016-09-25T09:34:48Z</time>
      </trkpt>
      <trkpt lat="43.72955" lon="6.96019">
        <ele>868</ele>
        <time>2016-09-25T09:34:50Z</time>
      </trkpt>
      <trkpt lat="43.72959" lon="6.96017">
        <ele>868.3</ele>
        <time>2016-09-25T09:34:52Z</time>
      </trkpt>
      <trkpt lat="43.72962" lon="6.96015">
        <ele>868.6</ele>
        <time>2016-09-25T09:34:54Z</time>
      </trkpt>
      <trkpt lat="43.72965" lon="6.96012">
        <ele>868.6</ele>
        <time>2016-09-25T09:34:56Z</time>
      </trkpt>
      <trkpt lat="43.72968" lon="6.96009">
        <ele>868.7</ele>
        <time>2016-09-25T09:34:58Z</time>
      </trkpt>
      <trkpt lat="43.72971" lon="6.96006">
        <ele>868.7</ele>
        <time>2016-09-25T09:35:00Z</time>
      </trkpt>
      <trkpt lat="43.72975" lon="6.96004">
        <ele>868.9</ele>
        <time>2016-09-25T09:35:02Z</time>
      </trkpt>
      <trkpt lat="43.72979" lon="6.96002">
        <ele>869.1</ele>
        <time>2016-09-25T09:35:04Z</time>
      </trkpt>
      <trkpt lat="43.72982" lon="6.96">
        <ele>869.2</ele>
        <time>2016-09-25T09:35:06Z</time>
      </trkpt>
      <trkpt lat="43.72986" lon="6.95999">
        <ele>869.7</ele>
        <time>2016-09-25T09:35:08Z</time>
      </trkpt>
      <trkpt lat="43.72989" lon="6.95998">
        <ele>870</ele>
        <time>2016-09-25T09:35:10Z</time>
      </trkpt>
      <trkpt lat="43.72992" lon="6.95996">
        <ele>870</ele>
        <time>2016-09-25T09:35:12Z</time>
      </trkpt>
      <trkpt lat="43.72995" lon="6.95993">
        <ele>869.9</ele>
        <time>2016-09-25T09:35:14Z</time>
      </trkpt>
      <trkpt lat="43.72998" lon="6.95991">
        <ele>869.9</ele>
        <time>2016-09-25T09:35:16Z</time>
      </trkpt>
      <trkpt lat="43.73001" lon="6.95989">
        <ele>870</ele>
        <time>2016-09-25T09:35:18Z</time>
      </trkpt>
      <trkpt lat="43.73005" lon="6.95988">
        <ele>870.2</ele>
        <time>2016-09-25T09:35:20Z</time>
      </trkpt>
      <trkpt lat="43.73008" lon="6.95987">
        <ele>870.4</ele>
        <time>2016-09-25T09:35:22Z</time>
      </trkpt>
      <trkpt lat="43.73012" lon="6.95986">
        <ele>870.7</ele>
        <time>2016-09-25T09:35:24Z</time>
      </trkpt>
      <trkpt lat="43.73015" lon="6.95985">
        <ele>871.1</ele>
        <time>2016-09-25T09:35:26Z</time>
      </trkpt>
      <trkpt lat="43.73018" lon="6.95984">
        <ele>871.4</ele>
        <time>2016-09-25T09:35:28Z</time>
      </trkpt>
      <trkpt lat="43.73022" lon="6.95983">
        <ele>871.7</ele>
        <time>2016-09-25T09:35:30Z</time>
      </trkpt>
      <trkpt lat="43.73026" lon="6.95983">
        <ele>872</ele>
        <time>2016-09-25T09:35:32Z</time>
      </trkpt>
      <trkpt lat="43.73029" lon="6.95982">
        <ele>872.4</ele>
        <time>2016-09-25T09:35:34Z</time>
      </trkpt>
      <trkpt lat="43.73033" lon="6.95982">
        <ele>872.9</ele>
        <time>2016-09-25T09:35:36Z</time>
      </trkpt>
      <trkpt lat="43.73036" lon="6.95981">
        <ele>873.4</ele>
        <time>2016-09-25T09:35:38Z</time>
      </trkpt>
      <trkpt lat="43.7304" lon="6.9598">
        <ele>873.5</ele>
        <time>2016-09-25T09:35:40Z</time>
      </trkpt>
      <trkpt lat="43.73043" lon="6.95979">
        <ele>873.9</ele>
        <time>2016-09-25T09:35:42Z</time>
      </trkpt>
      <trkpt lat="43.73047" lon="6.95978">
        <ele>874.5</ele>
        <time>2016-09-25T09:35:44Z</time>
      </trkpt>
      <trkpt lat="43.73051" lon="6.95977">
        <ele>875.3</ele>
        <time>2016-09-25T09:35:46Z</time>
      </trkpt>
      <trkpt lat="43.73054" lon="6.95976">
        <ele>876</ele>
        <time>2016-09-25T09:35:48Z</time>
      </trkpt>
      <trkpt lat="43.73058" lon="6.95976">
        <ele>876.6</ele>
        <time>2016-09-25T09:35:50Z</time>
      </trkpt>
      <trkpt lat="43.73061" lon="6.95975">
        <ele>877.1</ele>
        <time>2016-09-25T09:35:52Z</time>
      </trkpt>
      <trkpt lat="43.73064" lon="6.95973">
        <ele>877.4</ele>
        <time>2016-09-25T09:35:54Z</time>
      </trkpt>
      <trkpt lat="43.73067" lon="6.95972">
        <ele>877.7</ele>
        <time>2016-09-25T09:35:56Z</time>
      </trkpt>
      <trkpt lat="43.7307" lon="6.9597">
        <ele>877.9</ele>
        <time>2016-09-25T09:35:58Z</time>
      </trkpt>
      <trkpt lat="43.73073" lon="6.95969">
        <ele>878.5</ele>
        <time>2016-09-25T09:36:00Z</time>
      </trkpt>
      <trkpt lat="43.73076" lon="6.95967">
        <ele>878.6</ele>
        <time>2016-09-25T09:36:02Z</time>
      </trkpt>
      <trkpt lat="43.73079" lon="6.95965">
        <ele>878.7</ele>
        <time>2016-09-25T09:36:04Z</time>
      </trkpt>
      <trkpt lat="43.73082" lon="6.95963">
        <ele>878.9</ele>
        <time>2016-09-25T09:36:06Z</time>
      </trkpt>
      <trkpt lat="43.73085" lon="6.95961">
        <ele>879</ele>
        <time>2016-09-25T09:36:08Z</time>
      </trkpt>
      <trkpt lat="43.73088" lon="6.95959">
        <ele>878.9</ele>
        <time>2016-09-25T09:36:10Z</time>
      </trkpt>
      <trkpt lat="43.73092" lon="6.95956">
        <ele>879.5</ele>
        <time>2016-09-25T09:36:12Z</time>
      </trkpt>
      <trkpt lat="43.73095" lon="6.95954">
        <ele>880.2</ele>
        <time>2016-09-25T09:36:14Z</time>
      </trkpt>
      <trkpt lat="43.73098" lon="6.95952">
        <ele>880.8</ele>
        <time>2016-09-25T09:36:16Z</time>
      </trkpt>
      <trkpt lat="43.73101" lon="6.9595">
        <ele>881.5</ele>
        <time>2016-09-25T09:36:18Z</time>
      </trkpt>
      <trkpt lat="43.73105" lon="6.95948">
        <ele>882.1</ele>
        <time>2016-09-25T09:36:20Z</time>
      </trkpt>
      <trkpt lat="43.73108" lon="6.95945">
        <ele>882.7</ele>
        <time>2016-09-25T09:36:22Z</time>
      </trkpt>
      <trkpt lat="43.73111" lon="6.95943">
        <ele>883.3</ele>
        <time>2016-09-25T09:36:24Z</time>
      </trkpt>
      <trkpt lat="43.73115" lon="6.95941">
        <ele>883.8</ele>
        <time>2016-09-25T09:36:26Z</time>
      </trkpt>
      <trkpt lat="43.73118" lon="6.95939">
        <ele>884.4</ele>
        <time>2016-09-25T09:36:28Z</time>
      </trkpt>
      <trkpt lat="43.73121" lon="6.95936">
        <ele>884.7</ele>
        <time>2016-09-25T09:36:30Z</time>
      </trkpt>
      <trkpt lat="43.73124" lon="6.95934">
        <ele>885.1</ele>
        <time>2016-09-25T09:36:32Z</time>
      </trkpt>
      <trkpt lat="43.73127" lon="6.95932">
        <ele>885.8</ele>
        <time>2016-09-25T09:36:34Z</time>
      </trkpt>
      <trkpt lat="43.73131" lon="6.95931">
        <ele>886.5</ele>
        <time>2016-09-25T09:36:36Z</time>
      </trkpt>
      <trkpt lat="43.73134" lon="6.95929">
        <ele>887</ele>
        <time>2016-09-25T09:36:38Z</time>
      </trkpt>
      <trkpt lat="43.73137" lon="6.95927">
        <ele>887.4</ele>
        <time>2016-09-25T09:36:40Z</time>
      </trkpt>
      <trkpt lat="43.7314" lon="6.95925">
        <ele>887.8</ele>
        <time>2016-09-25T09:36:42Z</time>
      </trkpt>
      <trkpt lat="43.73144" lon="6.95922">
        <ele>888.2</ele>
        <time>2016-09-25T09:36:44Z</time>
      </trkpt>
      <trkpt lat="43.73147" lon="6.9592">
        <ele>888.6</ele>
        <time>2016-09-25T09:36:46Z</time>
      </trkpt>
      <trkpt lat="43.73151" lon="6.95917">
        <ele>888.9</ele>
        <time>2016-09-25T09:36:48Z</time>
      </trkpt>
      <trkpt lat="43.73154" lon="6.95915">
        <ele>889.3</ele>
        <time>2016-09-25T09:36:50Z</time>
      </trkpt>
      <trkpt lat="43.73158" lon="6.95912">
        <ele>889.5</ele>
        <time>2016-09-25T09:36:52Z</time>
      </trkpt>
      <trkpt lat="43.73161" lon="6.9591">
        <ele>889.8</ele>
        <time>2016-09-25T09:36:54Z</time>
      </trkpt>
      <trkpt lat="43.73164" lon="6.95908">
        <ele>890</ele>
        <time>2016-09-25T09:36:56Z</time>
      </trkpt>
      <trkpt lat="43.73167" lon="6.95907">
        <ele>890.3</ele>
        <time>2016-09-25T09:36:58Z</time>
      </trkpt>
      <trkpt lat="43.7317" lon="6.95905">
        <ele>890.6</ele>
        <time>2016-09-25T09:37:00Z</time>
      </trkpt>
      <trkpt lat="43.73173" lon="6.95904">
        <ele>890.9</ele>
        <time>2016-09-25T09:37:02Z</time>
      </trkpt>
      <trkpt lat="43.73177" lon="6.95902">
        <ele>891.1</ele>
        <time>2016-09-25T09:37:04Z</time>
      </trkpt>
      <trkpt lat="43.7318" lon="6.95899">
        <ele>891.1</ele>
        <time>2016-09-25T09:37:06Z</time>
      </trkpt>
      <trkpt lat="43.73183" lon="6.95897">
        <ele>890.9</ele>
        <time>2016-09-25T09:37:08Z</time>
      </trkpt>
      <trkpt lat="43.73186" lon="6.95894">
        <ele>890.8</ele>
        <time>2016-09-25T09:37:10Z</time>
      </trkpt>
      <trkpt lat="43.73189" lon="6.95891">
        <ele>890.7</ele>
        <time>2016-09-25T09:37:12Z</time>
      </trkpt>
      <trkpt lat="43.73192" lon="6.95888">
        <ele>890.3</ele>
        <time>2016-09-25T09:37:14Z</time>
      </trkpt>
      <trkpt lat="43.73195" lon="6.95885">
        <ele>890</ele>
        <time>2016-09-25T09:37:16Z</time>
      </trkpt>
      <trkpt lat="43.73198" lon="6.95882">
        <ele>889.5</ele>
        <time>2016-09-25T09:37:18Z</time>
      </trkpt>
      <trkpt lat="43.732" lon="6.95879">
        <ele>889</ele>
        <time>2016-09-25T09:37:20Z</time>
      </trkpt>
      <trkpt lat="43.73203" lon="6.95876">
        <ele>888.5</ele>
        <time>2016-09-25T09:37:22Z</time>
      </trkpt>
      <trkpt lat="43.73206" lon="6.95873">
        <ele>888.7</ele>
        <time>2016-09-25T09:37:24Z</time>
      </trkpt>
      <trkpt lat="43.73209" lon="6.9587">
        <ele>889.1</ele>
        <time>2016-09-25T09:37:26Z</time>
      </trkpt>
      <trkpt lat="43.73212" lon="6.95867">
        <ele>890.1</ele>
        <time>2016-09-25T09:37:28Z</time>
      </trkpt>
      <trkpt lat="43.73214" lon="6.95864">
        <ele>891</ele>
        <time>2016-09-25T09:37:30Z</time>
      </trkpt>
      <trkpt lat="43.73217" lon="6.95861">
        <ele>891.7</ele>
        <time>2016-09-25T09:37:32Z</time>
      </trkpt>
      <trkpt lat="43.73219" lon="6.95858">
        <ele>892.3</ele>
        <time>2016-09-25T09:37:34Z</time>
      </trkpt>
      <trkpt lat="43.73222" lon="6.95856">
        <ele>892.9</ele>
        <time>2016-09-25T09:37:36Z</time>
      </trkpt>
      <trkpt lat="43.73224" lon="6.95853">
        <ele>893.4</ele>
        <time>2016-09-25T09:37:38Z</time>
      </trkpt>
      <trkpt lat="43.73227" lon="6.9585">
        <ele>893.9</ele>
        <time>2016-09-25T09:37:40Z</time>
      </trkpt>
      <trkpt lat="43.73229" lon="6.95847">
        <ele>894.5</ele>
        <time>2016-09-25T09:37:42Z</time>
      </trkpt>
      <trkpt lat="43.73232" lon="6.95845">
        <ele>895</ele>
        <time>2016-09-25T09:37:44Z</time>
      </trkpt>
      <trkpt lat="43.73235" lon="6.95841">
        <ele>895.3</ele>
        <time>2016-09-25T09:37:46Z</time>
      </trkpt>
      <trkpt lat="43.73237" lon="6.95838">
        <ele>895.5</ele>
        <time>2016-09-25T09:37:48Z</time>
      </trkpt>
      <trkpt lat="43.7324" lon="6.95834">
        <ele>895.8</ele>
        <time>2016-09-25T09:37:50Z</time>
      </trkpt>
      <trkpt lat="43.73242" lon="6.95831">
        <ele>895.9</ele>
        <time>2016-09-25T09:37:52Z</time>
      </trkpt>
      <trkpt lat="43.73245" lon="6.95828">
        <ele>896.1</ele>
        <time>2016-09-25T09:37:54Z</time>
      </trkpt>
      <trkpt lat="43.73247" lon="6.95825">
        <ele>896.1</ele>
        <time>2016-09-25T09:37:56Z</time>
      </trkpt>
      <trkpt lat="43.73249" lon="6.95821">
        <ele>896.1</ele>
        <time>2016-09-25T09:37:58Z</time>
      </trkpt>
      <trkpt lat="43.73252" lon="6.95818">
        <ele>896.1</ele>
        <time>2016-09-25T09:38:00Z</time>
      </trkpt>
      <trkpt lat="43.73255" lon="6.95816">
        <ele>896.2</ele>
        <time>2016-09-25T09:38:02Z</time>
      </trkpt>
      <trkpt lat="43.73258" lon="6.95814">
        <ele>896.5</ele>
        <time>2016-09-25T09:38:04Z</time>
      </trkpt>
      <trkpt lat="43.73262" lon="6.95813">
        <ele>896.7</ele>
        <time>2016-09-25T09:38:06Z</time>
      </trkpt>
      <trkpt lat="43.73265" lon="6.95811">
        <ele>896.8</ele>
        <time>2016-09-25T09:38:08Z</time>
      </trkpt>
      <trkpt lat="43.73269" lon="6.95809">
        <ele>896.9</ele>
        <time>2016-09-25T09:38:10Z</time>
      </trkpt>
      <trkpt lat="43.73272" lon="6.95808">
        <ele>897</ele>
        <time>2016-09-25T09:38:12Z</time>
      </trkpt>
      <trkpt lat="43.73276" lon="6.95807">
        <ele>897.2</ele>
        <time>2016-09-25T09:38:14Z</time>
      </trkpt>
      <trkpt lat="43.73279" lon="6.95806">
        <ele>897.4</ele>
        <time>2016-09-25T09:38:16Z</time>
      </trkpt>
      <trkpt lat="43.73283" lon="6.95805">
        <ele>897.6</ele>
        <time>2016-09-25T09:38:18Z</time>
      </trkpt>
      <trkpt lat="43.73287" lon="6.95805">
        <ele>898</ele>
        <time>2016-09-25T09:38:20Z</time>
      </trkpt>
      <trkpt lat="43.73291" lon="6.95805">
        <ele>898.4</ele>
        <time>2016-09-25T09:38:22Z</time>
      </trkpt>
      <trkpt lat="43.73294" lon="6.95805">
        <ele>899.1</ele>
        <time>2016-09-25T09:38:24Z</time>
      </trkpt>
      <trkpt lat="43.73298" lon="6.95806">
        <ele>900</ele>
        <time>2016-09-25T09:38:26Z</time>
      </trkpt>
      <trkpt lat="43.73302" lon="6.95806">
        <ele>901</ele>
        <time>2016-09-25T09:38:28Z</time>
      </trkpt>
      <trkpt lat="43.73306" lon="6.95807">
        <ele>901.9</ele>
        <time>2016-09-25T09:38:30Z</time>
      </trkpt>
      <trkpt lat="43.7331" lon="6.95807">
        <ele>902.8</ele>
        <time>2016-09-25T09:38:32Z</time>
      </trkpt>
      <trkpt lat="43.73313" lon="6.95808">
        <ele>903.7</ele>
        <time>2016-09-25T09:38:34Z</time>
      </trkpt>
      <trkpt lat="43.73317" lon="6.95809">
        <ele>904.7</ele>
        <time>2016-09-25T09:38:36Z</time>
      </trkpt>
      <trkpt lat="43.7332" lon="6.9581">
        <ele>905.6</ele>
        <time>2016-09-25T09:38:38Z</time>
      </trkpt>
      <trkpt lat="43.73323" lon="6.95811">
        <ele>906.6</ele>
        <time>2016-09-25T09:38:40Z</time>
      </trkpt>
      <trkpt lat="43.73327" lon="6.95811">
        <ele>907.5</ele>
        <time>2016-09-25T09:38:42Z</time>
      </trkpt>
      <trkpt lat="43.73331" lon="6.95812">
        <ele>908.5</ele>
        <time>2016-09-25T09:38:44Z</time>
      </trkpt>
      <trkpt lat="43.73334" lon="6.95813">
        <ele>909.3</ele>
        <time>2016-09-25T09:38:46Z</time>
      </trkpt>
      <trkpt lat="43.73338" lon="6.95813">
        <ele>910.2</ele>
        <time>2016-09-25T09:38:48Z</time>
      </trkpt>
      <trkpt lat="43.73341" lon="6.95813">
        <ele>911</ele>
        <time>2016-09-25T09:38:50Z</time>
      </trkpt>
      <trkpt lat="43.73345" lon="6.95813">
        <ele>911.6</ele>
        <time>2016-09-25T09:38:52Z</time>
      </trkpt>
      <trkpt lat="43.73348" lon="6.95813">
        <ele>912.4</ele>
        <time>2016-09-25T09:38:54Z</time>
      </trkpt>
      <trkpt lat="43.73352" lon="6.95814">
        <ele>913.3</ele>
        <time>2016-09-25T09:38:56Z</time>
      </trkpt>
      <trkpt lat="43.73355" lon="6.95815">
        <ele>914.1</ele>
        <time>2016-09-25T09:38:58Z</time>
      </trkpt>
      <trkpt lat="43.73359" lon="6.95815">
        <ele>914.9</ele>
        <time>2016-09-25T09:39:00Z</time>
      </trkpt>
      <trkpt lat="43.73362" lon="6.95816">
        <ele>915.8</ele>
        <time>2016-09-25T09:39:02Z</time>
      </trkpt>
      <trkpt lat="43.73366" lon="6.95816">
        <ele>916.6</ele>
        <time>2016-09-25T09:39:04Z</time>
      </trkpt>
      <trkpt lat="43.73369" lon="6.95816">
        <ele>917.4</ele>
        <time>2016-09-25T09:39:06Z</time>
      </trkpt>
      <trkpt lat="43.73373" lon="6.95815">
        <ele>918</ele>
        <time>2016-09-25T09:39:08Z</time>
      </trkpt>
      <trkpt lat="43.73377" lon="6.95815">
        <ele>918.6</ele>
        <time>2016-09-25T09:39:10Z</time>
      </trkpt>
      <trkpt lat="43.7338" lon="6.95814">
        <ele>919.3</ele>
        <time>2016-09-25T09:39:12Z</time>
      </trkpt>
      <trkpt lat="43.73384" lon="6.95812">
        <ele>919.7</ele>
        <time>2016-09-25T09:39:14Z</time>
      </trkpt>
      <trkpt lat="43.73387" lon="6.9581">
        <ele>919.9</ele>
        <time>2016-09-25T09:39:16Z</time>
      </trkpt>
      <trkpt lat="43.7339" lon="6.95807">
        <ele>920</ele>
        <time>2016-09-25T09:39:18Z</time>
      </trkpt>
      <trkpt lat="43.73392" lon="6.95803">
        <ele>919.8</ele>
        <time>2016-09-25T09:39:20Z</time>
      </trkpt>
      <trkpt lat="43.73394" lon="6.95799">
        <ele>919.5</ele>
        <time>2016-09-25T09:39:22Z</time>
      </trkpt>
      <trkpt lat="43.73396" lon="6.95794">
        <ele>919.2</ele>
        <time>2016-09-25T09:39:24Z</time>
      </trkpt>
      <trkpt lat="43.73397" lon="6.9579">
        <ele>919.1</ele>
        <time>2016-09-25T09:39:26Z</time>
      </trkpt>
      <trkpt lat="43.73398" lon="6.95786">
        <ele>919.3</ele>
        <time>2016-09-25T09:39:28Z</time>
      </trkpt>
      <trkpt lat="43.73399" lon="6.95781">
        <ele>919.2</ele>
        <time>2016-09-25T09:39:30Z</time>
      </trkpt>
      <trkpt lat="43.73399" lon="6.95776">
        <ele>919</ele>
        <time>2016-09-25T09:39:32Z</time>
      </trkpt>
      <trkpt lat="43.73398" lon="6.95772">
        <ele>918.8</ele>
        <time>2016-09-25T09:39:34Z</time>
      </trkpt>
      <trkpt lat="43.73398" lon="6.95767">
        <ele>918.5</ele>
        <time>2016-09-25T09:39:36Z</time>
      </trkpt>
      <trkpt lat="43.73397" lon="6.95762">
        <ele>917.9</ele>
        <time>2016-09-25T09:39:38Z</time>
      </trkpt>
      <trkpt lat="43.73396" lon="6.95757">
        <ele>917.4</ele>
        <time>2016-09-25T09:39:40Z</time>
      </trkpt>
      <trkpt lat="43.73394" lon="6.95753">
        <ele>916.7</ele>
        <time>2016-09-25T09:39:42Z</time>
      </trkpt>
      <trkpt lat="43.73392" lon="6.95749">
        <ele>915.9</ele>
        <time>2016-09-25T09:39:44Z</time>
      </trkpt>
      <trkpt lat="43.7339" lon="6.95745">
        <ele>915</ele>
        <time>2016-09-25T09:39:46Z</time>
      </trkpt>
      <trkpt lat="43.73388" lon="6.9574">
        <ele>914.1</ele>
        <time>2016-09-25T09:39:48Z</time>
      </trkpt>
      <trkpt lat="43.73386" lon="6.95736">
        <ele>913.4</ele>
        <time>2016-09-25T09:39:50Z</time>
      </trkpt>
      <trkpt lat="43.73384" lon="6.95731">
        <ele>912.6</ele>
        <time>2016-09-25T09:39:52Z</time>
      </trkpt>
      <trkpt lat="43.73383" lon="6.95727">
        <ele>911.8</ele>
        <time>2016-09-25T09:39:54Z</time>
      </trkpt>
      <trkpt lat="43.73381" lon="6.95722">
        <ele>911.1</ele>
        <time>2016-09-25T09:39:56Z</time>
      </trkpt>
      <trkpt lat="43.73381" lon="6.95717">
        <ele>910.5</ele>
        <time>2016-09-25T09:39:58Z</time>
      </trkpt>
      <trkpt lat="43.7338" lon="6.95711">
        <ele>910.1</ele>
        <time>2016-09-25T09:40:00Z</time>
      </trkpt>
      <trkpt lat="43.7338" lon="6.95706">
        <ele>909.9</ele>
        <time>2016-09-25T09:40:02Z</time>
      </trkpt>
      <trkpt lat="43.73381" lon="6.957">
        <ele>910.2</ele>
        <time>2016-09-25T09:40:04Z</time>
      </trkpt>
      <trkpt lat="43.73382" lon="6.95694">
        <ele>910.5</ele>
        <time>2016-09-25T09:40:06Z</time>
      </trkpt>
      <trkpt lat="43.73383" lon="6.95689">
        <ele>910.9</ele>
        <time>2016-09-25T09:40:08Z</time>
      </trkpt>
      <trkpt lat="43.73384" lon="6.95684">
        <ele>911.4</ele>
        <time>2016-09-25T09:40:10Z</time>
      </trkpt>
      <trkpt lat="43.73386" lon="6.95679">
        <ele>911.9</ele>
        <time>2016-09-25T09:40:12Z</time>
      </trkpt>
      <trkpt lat="43.73388" lon="6.95675">
        <ele>912.5</ele>
        <time>2016-09-25T09:40:14Z</time>
      </trkpt>
      <trkpt lat="43.7339" lon="6.95671">
        <ele>913.1</ele>
        <time>2016-09-25T09:40:16Z</time>
      </trkpt>
      <trkpt lat="43.73392" lon="6.95666">
        <ele>913.5</ele>
        <time>2016-09-25T09:40:18Z</time>
      </trkpt>
      <trkpt lat="43.73394" lon="6.95662">
        <ele>914</ele>
        <time>2016-09-25T09:40:20Z</time>
      </trkpt>
      <trkpt lat="43.73396" lon="6.95657">
        <ele>914.4</ele>
        <time>2016-09-25T09:40:22Z</time>
      </trkpt>
      <trkpt lat="43.73397" lon="6.95653">
        <ele>914.6</ele>
        <time>2016-09-25T09:40:24Z</time>
      </trkpt>
      <trkpt lat="43.73399" lon="6.95648">
        <ele>914.9</ele>
        <time>2016-09-25T09:40:26Z</time>
      </trkpt>
      <trkpt lat="43.734" lon="6.95644">
        <ele>915</ele>
        <time>2016-09-25T09:40:28Z</time>
      </trkpt>
      <trkpt lat="43.73401" lon="6.95639">
        <ele>915</ele>
        <time>2016-09-25T09:40:30Z</time>
      </trkpt>
      <trkpt lat="43.73402" lon="6.95634">
        <ele>915.1</ele>
        <time>2016-09-25T09:40:32Z</time>
      </trkpt>
      <trkpt lat="43.73403" lon="6.9563">
        <ele>915.3</ele>
        <time>2016-09-25T09:40:34Z</time>
      </trkpt>
      <trkpt lat="43.73405" lon="6.95626">
        <ele>915.6</ele>
        <time>2016-09-25T09:40:36Z</time>
      </trkpt>
      <trkpt lat="43.73408" lon="6.95623">
        <ele>916.3</ele>
        <time>2016-09-25T09:40:38Z</time>
      </trkpt>
      <trkpt lat="43.73411" lon="6.95621">
        <ele>917</ele>
        <time>2016-09-25T09:40:40Z</time>
      </trkpt>
      <trkpt lat="43.73413" lon="6.95618">
        <ele>917.7</ele>
        <time>2016-09-25T09:40:42Z</time>
      </trkpt>
      <trkpt lat="43.73417" lon="6.95615">
        <ele>918.5</ele>
        <time>2016-09-25T09:40:44Z</time>
      </trkpt>
      <trkpt lat="43.7342" lon="6.95614">
        <ele>919.2</ele>
        <time>2016-09-25T09:40:46Z</time>
      </trkpt>
      <trkpt lat="43.73423" lon="6.95612">
        <ele>919.9</ele>
        <time>2016-09-25T09:40:48Z</time>
      </trkpt>
      <trkpt lat="43.73426" lon="6.95609">
        <ele>920.5</ele>
        <time>2016-09-25T09:40:50Z</time>
      </trkpt>
      <trkpt lat="43.73428" lon="6.95607">
        <ele>921.1</ele>
        <time>2016-09-25T09:40:52Z</time>
      </trkpt>
      <trkpt lat="43.73431" lon="6.95604">
        <ele>921.6</ele>
        <time>2016-09-25T09:40:54Z</time>
      </trkpt>
      <trkpt lat="43.73434" lon="6.95601">
        <ele>922.2</ele>
        <time>2016-09-25T09:40:56Z</time>
      </trkpt>
      <trkpt lat="43.73436" lon="6.95598">
        <ele>922.7</ele>
        <time>2016-09-25T09:40:58Z</time>
      </trkpt>
      <trkpt lat="43.73439" lon="6.95595">
        <ele>923.1</ele>
        <time>2016-09-25T09:41:00Z</time>
      </trkpt>
      <trkpt lat="43.73442" lon="6.95592">
        <ele>923.6</ele>
        <time>2016-09-25T09:41:02Z</time>
      </trkpt>
      <trkpt lat="43.73444" lon="6.95589">
        <ele>924.1</ele>
        <time>2016-09-25T09:41:04Z</time>
      </trkpt>
      <trkpt lat="43.73447" lon="6.95585">
        <ele>924.5</ele>
        <time>2016-09-25T09:41:06Z</time>
      </trkpt>
      <trkpt lat="43.7345" lon="6.95582">
        <ele>924.8</ele>
        <time>2016-09-25T09:41:08Z</time>
      </trkpt>
      <trkpt lat="43.73452" lon="6.95578">
        <ele>925.1</ele>
        <time>2016-09-25T09:41:10Z</time>
      </trkpt>
      <trkpt lat="43.73454" lon="6.95574">
        <ele>925.3</ele>
        <time>2016-09-25T09:41:12Z</time>
      </trkpt>
      <trkpt lat="43.73456" lon="6.9557">
        <ele>925.4</ele>
        <time>2016-09-25T09:41:14Z</time>
      </trkpt>
      <trkpt lat="43.73458" lon="6.95566">
        <ele>925.5</ele>
        <time>2016-09-25T09:41:16Z</time>
      </trkpt>
      <trkpt lat="43.73459" lon="6.95562">
        <ele>925.8</ele>
        <time>2016-09-25T09:41:18Z</time>
      </trkpt>
      <trkpt lat="43.7346" lon="6.95557">
        <ele>926</ele>
        <time>2016-09-25T09:41:20Z</time>
      </trkpt>
      <trkpt lat="43.7346" lon="6.95552">
        <ele>925.8</ele>
        <time>2016-09-25T09:41:22Z</time>
      </trkpt>
      <trkpt lat="43.73459" lon="6.95547">
        <ele>925.5</ele>
        <time>2016-09-25T09:41:24Z</time>
      </trkpt>
      <trkpt lat="43.73459" lon="6.95543">
        <ele>925.4</ele>
        <time>2016-09-25T09:41:26Z</time>
      </trkpt>
      <trkpt lat="43.73459" lon="6.95538">
        <ele>925.6</ele>
        <time>2016-09-25T09:41:28Z</time>
      </trkpt>
      <trkpt lat="43.73459" lon="6.95533">
        <ele>925.9</ele>
        <time>2016-09-25T09:41:30Z</time>
      </trkpt>
      <trkpt lat="43.7346" lon="6.95528">
        <ele>926.2</ele>
        <time>2016-09-25T09:41:32Z</time>
      </trkpt>
      <trkpt lat="43.7346" lon="6.95523">
        <ele>926.4</ele>
        <time>2016-09-25T09:41:34Z</time>
      </trkpt>
      <trkpt lat="43.73459" lon="6.95519">
        <ele>926.5</ele>
        <time>2016-09-25T09:41:36Z</time>
      </trkpt>
      <trkpt lat="43.7346" lon="6.95514">
        <ele>926.9</ele>
        <time>2016-09-25T09:41:38Z</time>
      </trkpt>
      <trkpt lat="43.7346" lon="6.95509">
        <ele>927.5</ele>
        <time>2016-09-25T09:41:40Z</time>
      </trkpt>
      <trkpt lat="43.73461" lon="6.95504">
        <ele>927.9</ele>
        <time>2016-09-25T09:41:42Z</time>
      </trkpt>
      <trkpt lat="43.73462" lon="6.955">
        <ele>928.6</ele>
        <time>2016-09-25T09:41:44Z</time>
      </trkpt>
      <trkpt lat="43.73462" lon="6.95495">
        <ele>929.1</ele>
        <time>2016-09-25T09:41:46Z</time>
      </trkpt>
      <trkpt lat="43.73462" lon="6.9549">
        <ele>929.4</ele>
        <time>2016-09-25T09:41:48Z</time>
      </trkpt>
      <trkpt lat="43.73463" lon="6.95485">
        <ele>929.7</ele>
        <time>2016-09-25T09:41:50Z</time>
      </trkpt>
      <trkpt lat="43.73463" lon="6.9548">
        <ele>930</ele>
        <time>2016-09-25T09:41:52Z</time>
      </trkpt>
      <trkpt lat="43.73463" lon="6.95475">
        <ele>930.4</ele>
        <time>2016-09-25T09:41:54Z</time>
      </trkpt>
      <trkpt lat="43.73463" lon="6.9547">
        <ele>930.6</ele>
        <time>2016-09-25T09:41:56Z</time>
      </trkpt>
      <trkpt lat="43.73463" lon="6.95464">
        <ele>930.8</ele>
        <time>2016-09-25T09:41:58Z</time>
      </trkpt>
      <trkpt lat="43.73463" lon="6.95458">
        <ele>931.2</ele>
        <time>2016-09-25T09:42:00Z</time>
      </trkpt>
      <trkpt lat="43.73464" lon="6.95453">
        <ele>931.8</ele>
        <time>2016-09-25T09:42:02Z</time>
      </trkpt>
      <trkpt lat="43.73465" lon="6.95447">
        <ele>932.4</ele>
        <time>2016-09-25T09:42:04Z</time>
      </trkpt>
      <trkpt lat="43.73465" lon="6.95442">
        <ele>932.9</ele>
        <time>2016-09-25T09:42:06Z</time>
      </trkpt>
      <trkpt lat="43.73465" lon="6.95437">
        <ele>933</ele>
        <time>2016-09-25T09:42:08Z</time>
      </trkpt>
      <trkpt lat="43.73465" lon="6.95432">
        <ele>933.1</ele>
        <time>2016-09-25T09:42:10Z</time>
      </trkpt>
      <trkpt lat="43.73465" lon="6.95426">
        <ele>933.4</ele>
        <time>2016-09-25T09:42:12Z</time>
      </trkpt>
      <trkpt lat="43.73465" lon="6.95421">
        <ele>933.6</ele>
        <time>2016-09-25T09:42:14Z</time>
      </trkpt>
      <trkpt lat="43.73465" lon="6.95416">
        <ele>933.7</ele>
        <time>2016-09-25T09:42:16Z</time>
      </trkpt>
      <trkpt lat="43.73465" lon="6.95411">
        <ele>933.9</ele>
        <time>2016-09-25T09:42:18Z</time>
      </trkpt>
      <trkpt lat="43.73465" lon="6.95406">
        <ele>934</ele>
        <time>2016-09-25T09:42:20Z</time>
      </trkpt>
      <trkpt lat="43.73464" lon="6.95401">
        <ele>934</ele>
        <time>2016-09-25T09:42:22Z</time>
      </trkpt>
      <trkpt lat="43.73463" lon="6.95395">
        <ele>934</ele>
        <time>2016-09-25T09:42:24Z</time>
      </trkpt>
      <trkpt lat="43.73463" lon="6.9539">
        <ele>934.2</ele>
        <time>2016-09-25T09:42:26Z</time>
      </trkpt>
      <trkpt lat="43.73464" lon="6.95385">
        <ele>934.8</ele>
        <time>2016-09-25T09:42:28Z</time>
      </trkpt>
      <trkpt lat="43.73465" lon="6.9538">
        <ele>935.2</ele>
        <time>2016-09-25T09:42:30Z</time>
      </trkpt>
      <trkpt lat="43.73466" lon="6.95375">
        <ele>935.7</ele>
        <time>2016-09-25T09:42:32Z</time>
      </trkpt>
      <trkpt lat="43.73466" lon="6.9537">
        <ele>936.2</ele>
        <time>2016-09-25T09:42:34Z</time>
      </trkpt>
      <trkpt lat="43.73467" lon="6.95365">
        <ele>936.7</ele>
        <time>2016-09-25T09:42:36Z</time>
      </trkpt>
      <trkpt lat="43.73468" lon="6.9536">
        <ele>937.3</ele>
        <time>2016-09-25T09:42:38Z</time>
      </trkpt>
      <trkpt lat="43.73469" lon="6.95355">
        <ele>937.8</ele>
        <time>2016-09-25T09:42:40Z</time>
      </trkpt>
      <trkpt lat="43.7347" lon="6.9535">
        <ele>938.5</ele>
        <time>2016-09-25T09:42:42Z</time>
      </trkpt>
      <trkpt lat="43.73472" lon="6.95346">
        <ele>939.2</ele>
        <time>2016-09-25T09:42:44Z</time>
      </trkpt>
      <trkpt lat="43.73473" lon="6.95341">
        <ele>939.8</ele>
        <time>2016-09-25T09:42:46Z</time>
      </trkpt>
      <trkpt lat="43.73477" lon="6.95334">
        <ele>940.9</ele>
        <time>2016-09-25T09:42:50Z</time>
      </trkpt>
      <trkpt lat="43.73478" lon="6.9533">
        <ele>941.4</ele>
        <time>2016-09-25T09:42:52Z</time>
      </trkpt>
      <trkpt lat="43.7348" lon="6.95326">
        <ele>941.8</ele>
        <time>2016-09-25T09:42:54Z</time>
      </trkpt>
      <trkpt lat="43.73482" lon="6.95322">
        <ele>942.3</ele>
        <time>2016-09-25T09:42:56Z</time>
      </trkpt>
      <trkpt lat="43.73484" lon="6.95317">
        <ele>942.7</ele>
        <time>2016-09-25T09:42:58Z</time>
      </trkpt>
      <trkpt lat="43.73486" lon="6.95313">
        <ele>943.2</ele>
        <time>2016-09-25T09:43:00Z</time>
      </trkpt>
      <trkpt lat="43.73489" lon="6.95309">
        <ele>943.7</ele>
        <time>2016-09-25T09:43:02Z</time>
      </trkpt>
      <trkpt lat="43.73491" lon="6.95305">
        <ele>944.1</ele>
        <time>2016-09-25T09:43:04Z</time>
      </trkpt>
      <trkpt lat="43.73494" lon="6.95301">
        <ele>944.4</ele>
        <time>2016-09-25T09:43:06Z</time>
      </trkpt>
      <trkpt lat="43.73496" lon="6.95297">
        <ele>944.6</ele>
        <time>2016-09-25T09:43:08Z</time>
      </trkpt>
      <trkpt lat="43.73498" lon="6.95293">
        <ele>944.8</ele>
        <time>2016-09-25T09:43:10Z</time>
      </trkpt>
      <trkpt lat="43.73501" lon="6.9529">
        <ele>945.3</ele>
        <time>2016-09-25T09:43:12Z</time>
      </trkpt>
      <trkpt lat="43.73504" lon="6.95287">
        <ele>946</ele>
        <time>2016-09-25T09:43:14Z</time>
      </trkpt>
      <trkpt lat="43.73506" lon="6.95283">
        <ele>946.7</ele>
        <time>2016-09-25T09:43:16Z</time>
      </trkpt>
      <trkpt lat="43.73509" lon="6.95279">
        <ele>947.4</ele>
        <time>2016-09-25T09:43:18Z</time>
      </trkpt>
      <trkpt lat="43.73511" lon="6.95275">
        <ele>948.1</ele>
        <time>2016-09-25T09:43:20Z</time>
      </trkpt>
      <trkpt lat="43.73514" lon="6.95272">
        <ele>948.7</ele>
        <time>2016-09-25T09:43:22Z</time>
      </trkpt>
      <trkpt lat="43.73516" lon="6.95268">
        <ele>949.2</ele>
        <time>2016-09-25T09:43:24Z</time>
      </trkpt>
      <trkpt lat="43.73518" lon="6.95263">
        <ele>949.8</ele>
        <time>2016-09-25T09:43:26Z</time>
      </trkpt>
      <trkpt lat="43.7352" lon="6.95259">
        <ele>950.2</ele>
        <time>2016-09-25T09:43:28Z</time>
      </trkpt>
      <trkpt lat="43.73522" lon="6.95255">
        <ele>950.7</ele>
        <time>2016-09-25T09:43:30Z</time>
      </trkpt>
      <trkpt lat="43.73524" lon="6.95251">
        <ele>951.2</ele>
        <time>2016-09-25T09:43:32Z</time>
      </trkpt>
      <trkpt lat="43.73526" lon="6.95248">
        <ele>951.5</ele>
        <time>2016-09-25T09:43:34Z</time>
      </trkpt>
      <trkpt lat="43.73528" lon="6.95244">
        <ele>951.9</ele>
        <time>2016-09-25T09:43:36Z</time>
      </trkpt>
      <trkpt lat="43.73531" lon="6.9524">
        <ele>952.2</ele>
        <time>2016-09-25T09:43:38Z</time>
      </trkpt>
      <trkpt lat="43.73533" lon="6.95236">
        <ele>952.5</ele>
        <time>2016-09-25T09:43:40Z</time>
      </trkpt>
      <trkpt lat="43.73535" lon="6.95232">
        <ele>952.8</ele>
        <time>2016-09-25T09:43:42Z</time>
      </trkpt>
      <trkpt lat="43.73537" lon="6.95229">
        <ele>953</ele>
        <time>2016-09-25T09:43:44Z</time>
      </trkpt>
      <trkpt lat="43.73539" lon="6.95225">
        <ele>953.2</ele>
        <time>2016-09-25T09:43:46Z</time>
      </trkpt>
      <trkpt lat="43.73541" lon="6.95221">
        <ele>953.4</ele>
        <time>2016-09-25T09:43:48Z</time>
      </trkpt>
      <trkpt lat="43.73543" lon="6.95218">
        <ele>953.8</ele>
        <time>2016-09-25T09:43:50Z</time>
      </trkpt>
      <trkpt lat="43.73546" lon="6.95214">
        <ele>954.4</ele>
        <time>2016-09-25T09:43:52Z</time>
      </trkpt>
      <trkpt lat="43.73548" lon="6.9521">
        <ele>954.9</ele>
        <time>2016-09-25T09:43:54Z</time>
      </trkpt>
      <trkpt lat="43.73551" lon="6.95207">
        <ele>955.9</ele>
        <time>2016-09-25T09:43:56Z</time>
      </trkpt>
      <trkpt lat="43.73554" lon="6.95203">
        <ele>957.4</ele>
        <time>2016-09-25T09:43:58Z</time>
      </trkpt>
      <trkpt lat="43.73556" lon="6.952">
        <ele>958.6</ele>
        <time>2016-09-25T09:44:00Z</time>
      </trkpt>
      <trkpt lat="43.73559" lon="6.95198">
        <ele>959.6</ele>
        <time>2016-09-25T09:44:02Z</time>
      </trkpt>
      <trkpt lat="43.73561" lon="6.95196">
        <ele>960.6</ele>
        <time>2016-09-25T09:44:04Z</time>
      </trkpt>
      <trkpt lat="43.73564" lon="6.95193">
        <ele>961.8</ele>
        <time>2016-09-25T09:44:06Z</time>
      </trkpt>
      <trkpt lat="43.73567" lon="6.95191">
        <ele>962.7</ele>
        <time>2016-09-25T09:44:08Z</time>
      </trkpt>
      <trkpt lat="43.7357" lon="6.9519">
        <ele>963.5</ele>
        <time>2016-09-25T09:44:10Z</time>
      </trkpt>
      <trkpt lat="43.73573" lon="6.95188">
        <ele>964.3</ele>
        <time>2016-09-25T09:44:12Z</time>
      </trkpt>
      <trkpt lat="43.73576" lon="6.95186">
        <ele>965.3</ele>
        <time>2016-09-25T09:44:14Z</time>
      </trkpt>
      <trkpt lat="43.73578" lon="6.95183">
        <ele>966.2</ele>
        <time>2016-09-25T09:44:16Z</time>
      </trkpt>
      <trkpt lat="43.73581" lon="6.95181">
        <ele>967.1</ele>
        <time>2016-09-25T09:44:18Z</time>
      </trkpt>
      <trkpt lat="43.73584" lon="6.95178">
        <ele>968</ele>
        <time>2016-09-25T09:44:20Z</time>
      </trkpt>
      <trkpt lat="43.73586" lon="6.95175">
        <ele>968.9</ele>
        <time>2016-09-25T09:44:22Z</time>
      </trkpt>
      <trkpt lat="43.73588" lon="6.95172">
        <ele>969.9</ele>
        <time>2016-09-25T09:44:24Z</time>
      </trkpt>
      <trkpt lat="43.73591" lon="6.9517">
        <ele>970.7</ele>
        <time>2016-09-25T09:44:26Z</time>
      </trkpt>
      <trkpt lat="43.73594" lon="6.95168">
        <ele>971.4</ele>
        <time>2016-09-25T09:44:28Z</time>
      </trkpt>
      <trkpt lat="43.73597" lon="6.95166">
        <ele>971.9</ele>
        <time>2016-09-25T09:44:30Z</time>
      </trkpt>
      <trkpt lat="43.73599" lon="6.95164">
        <ele>972.6</ele>
        <time>2016-09-25T09:44:32Z</time>
      </trkpt>
      <trkpt lat="43.73602" lon="6.95162">
        <ele>973.3</ele>
        <time>2016-09-25T09:44:34Z</time>
      </trkpt>
      <trkpt lat="43.73605" lon="6.95159">
        <ele>974</ele>
        <time>2016-09-25T09:44:36Z</time>
      </trkpt>
      <trkpt lat="43.73608" lon="6.95157">
        <ele>974.6</ele>
        <time>2016-09-25T09:44:38Z</time>
      </trkpt>
      <trkpt lat="43.73611" lon="6.95154">
        <ele>975.3</ele>
        <time>2016-09-25T09:44:40Z</time>
      </trkpt>
      <trkpt lat="43.73611" lon="6.9515">
        <ele>976.1</ele>
        <time>2016-09-25T09:45:24Z</time>
      </trkpt>
      <trkpt lat="43.73612" lon="6.95147">
        <ele>976.8</ele>
        <time>2016-09-25T09:45:26Z</time>
      </trkpt>
      <trkpt lat="43.73614" lon="6.95143">
        <ele>977.6</ele>
        <time>2016-09-25T09:45:28Z</time>
      </trkpt>
      <trkpt lat="43.73615" lon="6.95138">
        <ele>978.6</ele>
        <time>2016-09-25T09:45:30Z</time>
      </trkpt>
      <trkpt lat="43.73616" lon="6.95134">
        <ele>979.5</ele>
        <time>2016-09-25T09:45:32Z</time>
      </trkpt>
      <trkpt lat="43.73616" lon="6.95129">
        <ele>980.4</ele>
        <time>2016-09-25T09:45:34Z</time>
      </trkpt>
      <trkpt lat="43.73614" lon="6.95125">
        <ele>981.4</ele>
        <time>2016-09-25T09:45:36Z</time>
      </trkpt>
      <trkpt lat="43.73612" lon="6.95121">
        <ele>982.9</ele>
        <time>2016-09-25T09:45:38Z</time>
      </trkpt>
      <trkpt lat="43.7361" lon="6.95117">
        <ele>984.4</ele>
        <time>2016-09-25T09:45:40Z</time>
      </trkpt>
      <trkpt lat="43.73608" lon="6.95114">
        <ele>985.6</ele>
        <time>2016-09-25T09:45:42Z</time>
      </trkpt>
      <trkpt lat="43.73605" lon="6.95111">
        <ele>986.6</ele>
        <time>2016-09-25T09:45:44Z</time>
      </trkpt>
      <trkpt lat="43.73602" lon="6.9511">
        <ele>987.2</ele>
        <time>2016-09-25T09:45:46Z</time>
      </trkpt>
      <trkpt lat="43.73598" lon="6.95109">
        <ele>987.5</ele>
        <time>2016-09-25T09:45:48Z</time>
      </trkpt>
      <trkpt lat="43.73595" lon="6.95109">
        <ele>987.8</ele>
        <time>2016-09-25T09:45:50Z</time>
      </trkpt>
      <trkpt lat="43.73592" lon="6.95109">
        <ele>987.9</ele>
        <time>2016-09-25T09:45:52Z</time>
      </trkpt>
      <trkpt lat="43.73588" lon="6.95108">
        <ele>988.1</ele>
        <time>2016-09-25T09:45:54Z</time>
      </trkpt>
      <trkpt lat="43.73585" lon="6.95108">
        <ele>988.3</ele>
        <time>2016-09-25T09:45:56Z</time>
      </trkpt>
      <trkpt lat="43.73581" lon="6.95108">
        <ele>988.5</ele>
        <time>2016-09-25T09:45:58Z</time>
      </trkpt>
      <trkpt lat="43.73577" lon="6.95108">
        <ele>988.7</ele>
        <time>2016-09-25T09:46:00Z</time>
      </trkpt>
      <trkpt lat="43.73573" lon="6.95107">
        <ele>988.9</ele>
        <time>2016-09-25T09:46:02Z</time>
      </trkpt>
      <trkpt lat="43.73569" lon="6.95107">
        <ele>989.3</ele>
        <time>2016-09-25T09:46:04Z</time>
      </trkpt>
      <trkpt lat="43.73566" lon="6.95106">
        <ele>989.6</ele>
        <time>2016-09-25T09:46:06Z</time>
      </trkpt>
      <trkpt lat="43.73562" lon="6.95106">
        <ele>989.6</ele>
        <time>2016-09-25T09:46:08Z</time>
      </trkpt>
      <trkpt lat="43.73559" lon="6.95107">
        <ele>989.6</ele>
        <time>2016-09-25T09:46:10Z</time>
      </trkpt>
      <trkpt lat="43.73555" lon="6.95106">
        <ele>989.9</ele>
        <time>2016-09-25T09:46:12Z</time>
      </trkpt>
      <trkpt lat="43.73551" lon="6.95106">
        <ele>990.2</ele>
        <time>2016-09-25T09:46:14Z</time>
      </trkpt>
      <trkpt lat="43.73547" lon="6.95105">
        <ele>990.4</ele>
        <time>2016-09-25T09:46:16Z</time>
      </trkpt>
      <trkpt lat="43.73543" lon="6.95105">
        <ele>990.6</ele>
        <time>2016-09-25T09:46:18Z</time>
      </trkpt>
      <trkpt lat="43.73538" lon="6.95105">
        <ele>990.9</ele>
        <time>2016-09-25T09:46:20Z</time>
      </trkpt>
      <trkpt lat="43.73534" lon="6.95105">
        <ele>991.2</ele>
        <time>2016-09-25T09:46:22Z</time>
      </trkpt>
      <trkpt lat="43.7353" lon="6.95105">
        <ele>991.4</ele>
        <time>2016-09-25T09:46:24Z</time>
      </trkpt>
      <trkpt lat="43.73526" lon="6.95105">
        <ele>991.5</ele>
        <time>2016-09-25T09:46:26Z</time>
      </trkpt>
      <trkpt lat="43.73522" lon="6.95105">
        <ele>991.8</ele>
        <time>2016-09-25T09:46:28Z</time>
      </trkpt>
      <trkpt lat="43.73518" lon="6.95105">
        <ele>992</ele>
        <time>2016-09-25T09:46:30Z</time>
      </trkpt>
      <trkpt lat="43.73514" lon="6.95106">
        <ele>992.1</ele>
        <time>2016-09-25T09:46:32Z</time>
      </trkpt>
      <trkpt lat="43.7351" lon="6.95105">
        <ele>992.5</ele>
        <time>2016-09-25T09:46:34Z</time>
      </trkpt>
      <trkpt lat="43.73506" lon="6.95105">
        <ele>992.7</ele>
        <time>2016-09-25T09:46:36Z</time>
      </trkpt>
      <trkpt lat="43.73502" lon="6.95105">
        <ele>993</ele>
        <time>2016-09-25T09:46:38Z</time>
      </trkpt>
      <trkpt lat="43.73498" lon="6.95105">
        <ele>993.3</ele>
        <time>2016-09-25T09:46:40Z</time>
      </trkpt>
      <trkpt lat="43.73494" lon="6.95105">
        <ele>993.6</ele>
        <time>2016-09-25T09:46:42Z</time>
      </trkpt>
      <trkpt lat="43.7349" lon="6.95105">
        <ele>994</ele>
        <time>2016-09-25T09:46:44Z</time>
      </trkpt>
      <trkpt lat="43.73486" lon="6.95105">
        <ele>994.1</ele>
        <time>2016-09-25T09:46:46Z</time>
      </trkpt>
      <trkpt lat="43.73482" lon="6.95105">
        <ele>994.2</ele>
        <time>2016-09-25T09:46:48Z</time>
      </trkpt>
      <trkpt lat="43.73479" lon="6.95106">
        <ele>994.2</ele>
        <time>2016-09-25T09:46:50Z</time>
      </trkpt>
      <trkpt lat="43.73475" lon="6.95105">
        <ele>994.6</ele>
        <time>2016-09-25T09:46:52Z</time>
      </trkpt>
      <trkpt lat="43.73471" lon="6.95105">
        <ele>995.1</ele>
        <time>2016-09-25T09:46:54Z</time>
      </trkpt>
      <trkpt lat="43.73467" lon="6.95105">
        <ele>995.3</ele>
        <time>2016-09-25T09:46:56Z</time>
      </trkpt>
      <trkpt lat="43.73463" lon="6.95105">
        <ele>995.5</ele>
        <time>2016-09-25T09:46:58Z</time>
      </trkpt>
      <trkpt lat="43.73459" lon="6.95105">
        <ele>995.6</ele>
        <time>2016-09-25T09:47:00Z</time>
      </trkpt>
      <trkpt lat="43.73455" lon="6.95105">
        <ele>996.2</ele>
        <time>2016-09-25T09:47:02Z</time>
      </trkpt>
      <trkpt lat="43.73451" lon="6.95105">
        <ele>997.1</ele>
        <time>2016-09-25T09:47:04Z</time>
      </trkpt>
      <trkpt lat="43.73447" lon="6.95104">
        <ele>998.4</ele>
        <time>2016-09-25T09:47:06Z</time>
      </trkpt>
      <trkpt lat="43.73444" lon="6.95102">
        <ele>999.7</ele>
        <time>2016-09-25T09:47:08Z</time>
      </trkpt>
      <trkpt lat="43.7344" lon="6.951">
        <ele>1001.1</ele>
        <time>2016-09-25T09:47:10Z</time>
      </trkpt>
      <trkpt lat="43.73436" lon="6.95098">
        <ele>1002.4</ele>
        <time>2016-09-25T09:47:12Z</time>
      </trkpt>
      <trkpt lat="43.73433" lon="6.95096">
        <ele>1003.9</ele>
        <time>2016-09-25T09:47:14Z</time>
      </trkpt>
      <trkpt lat="43.7343" lon="6.95094">
        <ele>1005.1</ele>
        <time>2016-09-25T09:47:16Z</time>
      </trkpt>
      <trkpt lat="43.73426" lon="6.95092">
        <ele>1006.3</ele>
        <time>2016-09-25T09:47:18Z</time>
      </trkpt>
      <trkpt lat="43.73423" lon="6.9509">
        <ele>1007.7</ele>
        <time>2016-09-25T09:47:20Z</time>
      </trkpt>
      <trkpt lat="43.7342" lon="6.95087">
        <ele>1009.1</ele>
        <time>2016-09-25T09:47:22Z</time>
      </trkpt>
      <trkpt lat="43.73417" lon="6.95086">
        <ele>1010.2</ele>
        <time>2016-09-25T09:47:24Z</time>
      </trkpt>
      <trkpt lat="43.73414" lon="6.95084">
        <ele>1011</ele>
        <time>2016-09-25T09:47:26Z</time>
      </trkpt>
      <trkpt lat="43.73411" lon="6.95084">
        <ele>1011.9</ele>
        <time>2016-09-25T09:47:28Z</time>
      </trkpt>
      <trkpt lat="43.73408" lon="6.95083">
        <ele>1012.6</ele>
        <time>2016-09-25T09:47:30Z</time>
      </trkpt>
      <trkpt lat="43.73405" lon="6.95081">
        <ele>1013.6</ele>
        <time>2016-09-25T09:47:32Z</time>
      </trkpt>
      <trkpt lat="43.73402" lon="6.9508">
        <ele>1014.4</ele>
        <time>2016-09-25T09:47:34Z</time>
      </trkpt>
      <trkpt lat="43.73399" lon="6.95081">
        <ele>1014.8</ele>
        <time>2016-09-25T09:47:36Z</time>
      </trkpt>
      <trkpt lat="43.73396" lon="6.95082">
        <ele>1015.1</ele>
        <time>2016-09-25T09:47:38Z</time>
      </trkpt>
      <trkpt lat="43.73393" lon="6.95083">
        <ele>1015</ele>
        <time>2016-09-25T09:47:40Z</time>
      </trkpt>
      <trkpt lat="43.73391" lon="6.95086">
        <ele>1014.6</ele>
        <time>2016-09-25T09:47:42Z</time>
      </trkpt>
      <trkpt lat="43.73388" lon="6.95089">
        <ele>1014</ele>
        <time>2016-09-25T09:47:44Z</time>
      </trkpt>
      <trkpt lat="43.73386" lon="6.95093">
        <ele>1013.2</ele>
        <time>2016-09-25T09:47:46Z</time>
      </trkpt>
      <trkpt lat="43.73383" lon="6.95096">
        <ele>1012.8</ele>
        <time>2016-09-25T09:47:48Z</time>
      </trkpt>
      <trkpt lat="43.73381" lon="6.951">
        <ele>1012.2</ele>
        <time>2016-09-25T09:47:50Z</time>
      </trkpt>
      <trkpt lat="43.73379" lon="6.95104">
        <ele>1011.5</ele>
        <time>2016-09-25T09:47:52Z</time>
      </trkpt>
      <trkpt lat="43.73377" lon="6.95107">
        <ele>1010.7</ele>
        <time>2016-09-25T09:47:54Z</time>
      </trkpt>
      <trkpt lat="43.73375" lon="6.95112">
        <ele>1009.9</ele>
        <time>2016-09-25T09:47:56Z</time>
      </trkpt>
      <trkpt lat="43.73374" lon="6.95116">
        <ele>1008.9</ele>
        <time>2016-09-25T09:47:58Z</time>
      </trkpt>
      <trkpt lat="43.73372" lon="6.9512">
        <ele>1008.1</ele>
        <time>2016-09-25T09:48:00Z</time>
      </trkpt>
      <trkpt lat="43.73369" lon="6.95123">
        <ele>1007.7</ele>
        <time>2016-09-25T09:48:02Z</time>
      </trkpt>
      <trkpt lat="43.73367" lon="6.95126">
        <ele>1007.3</ele>
        <time>2016-09-25T09:48:04Z</time>
      </trkpt>
      <trkpt lat="43.73365" lon="6.95129">
        <ele>1006.9</ele>
        <time>2016-09-25T09:48:06Z</time>
      </trkpt>
      <trkpt lat="43.73362" lon="6.95133">
        <ele>1006.3</ele>
        <time>2016-09-25T09:48:08Z</time>
      </trkpt>
      <trkpt lat="43.7336" lon="6.95136">
        <ele>1006.1</ele>
        <time>2016-09-25T09:48:10Z</time>
      </trkpt>
      <trkpt lat="43.73357" lon="6.95138">
        <ele>1005.8</ele>
        <time>2016-09-25T09:48:12Z</time>
      </trkpt>
      <trkpt lat="43.73355" lon="6.95141">
        <ele>1005.4</ele>
        <time>2016-09-25T09:48:14Z</time>
      </trkpt>
      <trkpt lat="43.73353" lon="6.95144">
        <ele>1005</ele>
        <time>2016-09-25T09:48:16Z</time>
      </trkpt>
      <trkpt lat="43.7335" lon="6.95147">
        <ele>1004.6</ele>
        <time>2016-09-25T09:48:18Z</time>
      </trkpt>
      <trkpt lat="43.73347" lon="6.9515">
        <ele>1004.3</ele>
        <time>2016-09-25T09:48:20Z</time>
      </trkpt>
      <trkpt lat="43.73345" lon="6.95153">
        <ele>1004</ele>
        <time>2016-09-25T09:48:22Z</time>
      </trkpt>
      <trkpt lat="43.73342" lon="6.95156">
        <ele>1003.8</ele>
        <time>2016-09-25T09:48:24Z</time>
      </trkpt>
      <trkpt lat="43.7334" lon="6.95158">
        <ele>1003.5</ele>
        <time>2016-09-25T09:48:26Z</time>
      </trkpt>
      <trkpt lat="43.73337" lon="6.95161">
        <ele>1003.2</ele>
        <time>2016-09-25T09:48:28Z</time>
      </trkpt>
      <trkpt lat="43.73334" lon="6.95163">
        <ele>1003.1</ele>
        <time>2016-09-25T09:48:30Z</time>
      </trkpt>
      <trkpt lat="43.73332" lon="6.95165">
        <ele>1003.1</ele>
        <time>2016-09-25T09:48:32Z</time>
      </trkpt>
      <trkpt lat="43.73329" lon="6.95166">
        <ele>1003.1</ele>
        <time>2016-09-25T09:48:34Z</time>
      </trkpt>
      <trkpt lat="43.73326" lon="6.95168">
        <ele>1003.1</ele>
        <time>2016-09-25T09:48:36Z</time>
      </trkpt>
      <trkpt lat="43.73323" lon="6.9517">
        <ele>1003.1</ele>
        <time>2016-09-25T09:48:38Z</time>
      </trkpt>
      <trkpt lat="43.73321" lon="6.95172">
        <ele>1003</ele>
        <time>2016-09-25T09:48:40Z</time>
      </trkpt>
      <trkpt lat="43.73318" lon="6.95174">
        <ele>1002.8</ele>
        <time>2016-09-25T09:48:42Z</time>
      </trkpt>
      <trkpt lat="43.73315" lon="6.95176">
        <ele>1002.6</ele>
        <time>2016-09-25T09:48:44Z</time>
      </trkpt>
      <trkpt lat="43.73312" lon="6.95178">
        <ele>1002.6</ele>
        <time>2016-09-25T09:48:46Z</time>
      </trkpt>
      <trkpt lat="43.73309" lon="6.9518">
        <ele>1002.6</ele>
        <time>2016-09-25T09:48:48Z</time>
      </trkpt>
      <trkpt lat="43.73307" lon="6.95182">
        <ele>1002.6</ele>
        <time>2016-09-25T09:48:50Z</time>
      </trkpt>
      <trkpt lat="43.73304" lon="6.95183">
        <ele>1002.7</ele>
        <time>2016-09-25T09:48:52Z</time>
      </trkpt>
      <trkpt lat="43.733" lon="6.95183">
        <ele>1003.1</ele>
        <time>2016-09-25T09:48:54Z</time>
      </trkpt>
      <trkpt lat="43.73298" lon="6.95184">
        <ele>1003.4</ele>
        <time>2016-09-25T09:48:56Z</time>
      </trkpt>
      <trkpt lat="43.73294" lon="6.95185">
        <ele>1003.7</ele>
        <time>2016-09-25T09:48:58Z</time>
      </trkpt>
      <trkpt lat="43.73291" lon="6.95185">
        <ele>1004</ele>
        <time>2016-09-25T09:49:00Z</time>
      </trkpt>
      <trkpt lat="43.73288" lon="6.95185">
        <ele>1004.3</ele>
        <time>2016-09-25T09:49:02Z</time>
      </trkpt>
      <trkpt lat="43.73285" lon="6.95185">
        <ele>1004.7</ele>
        <time>2016-09-25T09:49:04Z</time>
      </trkpt>
      <trkpt lat="43.73281" lon="6.95184">
        <ele>1005.3</ele>
        <time>2016-09-25T09:49:06Z</time>
      </trkpt>
      <trkpt lat="43.73278" lon="6.95183">
        <ele>1005.9</ele>
        <time>2016-09-25T09:49:08Z</time>
      </trkpt>
      <trkpt lat="43.73275" lon="6.95182">
        <ele>1006.4</ele>
        <time>2016-09-25T09:49:10Z</time>
      </trkpt>
      <trkpt lat="43.73272" lon="6.95182">
        <ele>1006.9</ele>
        <time>2016-09-25T09:49:12Z</time>
      </trkpt>
      <trkpt lat="43.73268" lon="6.95181">
        <ele>1007.4</ele>
        <time>2016-09-25T09:49:14Z</time>
      </trkpt>
      <trkpt lat="43.73265" lon="6.9518">
        <ele>1007.9</ele>
        <time>2016-09-25T09:49:16Z</time>
      </trkpt>
      <trkpt lat="43.73261" lon="6.9518">
        <ele>1008.4</ele>
        <time>2016-09-25T09:49:18Z</time>
      </trkpt>
      <trkpt lat="43.73258" lon="6.95179">
        <ele>1008.8</ele>
        <time>2016-09-25T09:49:20Z</time>
      </trkpt>
      <trkpt lat="43.73255" lon="6.95178">
        <ele>1009.3</ele>
        <time>2016-09-25T09:49:22Z</time>
      </trkpt>
      <trkpt lat="43.73251" lon="6.95178">
        <ele>1009.8</ele>
        <time>2016-09-25T09:49:24Z</time>
      </trkpt>
      <trkpt lat="43.73248" lon="6.95178">
        <ele>1010.1</ele>
        <time>2016-09-25T09:49:26Z</time>
      </trkpt>
      <trkpt lat="43.73245" lon="6.95177">
        <ele>1010.5</ele>
        <time>2016-09-25T09:49:28Z</time>
      </trkpt>
      <trkpt lat="43.73242" lon="6.95177">
        <ele>1010.8</ele>
        <time>2016-09-25T09:49:30Z</time>
      </trkpt>
      <trkpt lat="43.73239" lon="6.95178">
        <ele>1010.8</ele>
        <time>2016-09-25T09:49:32Z</time>
      </trkpt>
      <trkpt lat="43.73236" lon="6.95179">
        <ele>1011</ele>
        <time>2016-09-25T09:49:34Z</time>
      </trkpt>
      <trkpt lat="43.73233" lon="6.95178">
        <ele>1011.5</ele>
        <time>2016-09-25T09:49:36Z</time>
      </trkpt>
      <trkpt lat="43.73229" lon="6.95177">
        <ele>1011.9</ele>
        <time>2016-09-25T09:49:38Z</time>
      </trkpt>
      <trkpt lat="43.73226" lon="6.95177">
        <ele>1012.3</ele>
        <time>2016-09-25T09:49:40Z</time>
      </trkpt>
      <trkpt lat="43.73223" lon="6.95176">
        <ele>1012.7</ele>
        <time>2016-09-25T09:49:42Z</time>
      </trkpt>
      <trkpt lat="43.7322" lon="6.95175">
        <ele>1013.2</ele>
        <time>2016-09-25T09:49:44Z</time>
      </trkpt>
      <trkpt lat="43.73217" lon="6.95174">
        <ele>1013.7</ele>
        <time>2016-09-25T09:49:46Z</time>
      </trkpt>
      <trkpt lat="43.73213" lon="6.95173">
        <ele>1014.2</ele>
        <time>2016-09-25T09:49:48Z</time>
      </trkpt>
      <trkpt lat="43.7321" lon="6.95172">
        <ele>1014.7</ele>
        <time>2016-09-25T09:49:50Z</time>
      </trkpt>
      <trkpt lat="43.73206" lon="6.95171">
        <ele>1015.4</ele>
        <time>2016-09-25T09:49:52Z</time>
      </trkpt>
      <trkpt lat="43.73203" lon="6.9517">
        <ele>1016</ele>
        <time>2016-09-25T09:49:54Z</time>
      </trkpt>
      <trkpt lat="43.732" lon="6.95169">
        <ele>1016.7</ele>
        <time>2016-09-25T09:49:56Z</time>
      </trkpt>
      <trkpt lat="43.73197" lon="6.95169">
        <ele>1017.3</ele>
        <time>2016-09-25T09:49:58Z</time>
      </trkpt>
      <trkpt lat="43.73194" lon="6.9517">
        <ele>1017.6</ele>
        <time>2016-09-25T09:50:00Z</time>
      </trkpt>
      <trkpt lat="43.73191" lon="6.95171">
        <ele>1018</ele>
        <time>2016-09-25T09:50:02Z</time>
      </trkpt>
      <trkpt lat="43.73188" lon="6.95171">
        <ele>1018.3</ele>
        <time>2016-09-25T09:50:04Z</time>
      </trkpt>
      <trkpt lat="43.73186" lon="6.95173">
        <ele>1018.5</ele>
        <time>2016-09-25T09:50:06Z</time>
      </trkpt>
      <trkpt lat="43.73183" lon="6.95175">
        <ele>1018.7</ele>
        <time>2016-09-25T09:50:08Z</time>
      </trkpt>
      <trkpt lat="43.7318" lon="6.95177">
        <ele>1018.9</ele>
        <time>2016-09-25T09:50:10Z</time>
      </trkpt>
      <trkpt lat="43.73178" lon="6.95179">
        <ele>1018.9</ele>
        <time>2016-09-25T09:50:12Z</time>
      </trkpt>
      <trkpt lat="43.73176" lon="6.95183">
        <ele>1018.8</ele>
        <time>2016-09-25T09:50:14Z</time>
      </trkpt>
      <trkpt lat="43.73174" lon="6.95187">
        <ele>1018.5</ele>
        <time>2016-09-25T09:50:16Z</time>
      </trkpt>
      <trkpt lat="43.73173" lon="6.95192">
        <ele>1018.1</ele>
        <time>2016-09-25T09:50:18Z</time>
      </trkpt>
      <trkpt lat="43.73171" lon="6.95197">
        <ele>1017.8</ele>
        <time>2016-09-25T09:50:20Z</time>
      </trkpt>
      <trkpt lat="43.7317" lon="6.95202">
        <ele>1017.4</ele>
        <time>2016-09-25T09:50:22Z</time>
      </trkpt>
      <trkpt lat="43.7317" lon="6.95207">
        <ele>1016.9</ele>
        <time>2016-09-25T09:50:24Z</time>
      </trkpt>
      <trkpt lat="43.7317" lon="6.95212">
        <ele>1016.6</ele>
        <time>2016-09-25T09:50:26Z</time>
      </trkpt>
      <trkpt lat="43.73169" lon="6.95216">
        <ele>1016.5</ele>
        <time>2016-09-25T09:50:28Z</time>
      </trkpt>
      <trkpt lat="43.73169" lon="6.95221">
        <ele>1016.3</ele>
        <time>2016-09-25T09:50:30Z</time>
      </trkpt>
      <trkpt lat="43.73169" lon="6.95226">
        <ele>1016.2</ele>
        <time>2016-09-25T09:50:32Z</time>
      </trkpt>
      <trkpt lat="43.73168" lon="6.9523">
        <ele>1016.2</ele>
        <time>2016-09-25T09:50:34Z</time>
      </trkpt>
      <trkpt lat="43.73167" lon="6.95235">
        <ele>1016</ele>
        <time>2016-09-25T09:50:36Z</time>
      </trkpt>
      <trkpt lat="43.73167" lon="6.9524">
        <ele>1015.8</ele>
        <time>2016-09-25T09:50:38Z</time>
      </trkpt>
      <trkpt lat="43.73167" lon="6.95245">
        <ele>1015.6</ele>
        <time>2016-09-25T09:50:40Z</time>
      </trkpt>
      <trkpt lat="43.73168" lon="6.95249">
        <ele>1015.3</ele>
        <time>2016-09-25T09:50:42Z</time>
      </trkpt>
      <trkpt lat="43.73167" lon="6.95253">
        <ele>1015.3</ele>
        <time>2016-09-25T09:50:44Z</time>
      </trkpt>
      <trkpt lat="43.73166" lon="6.95257">
        <ele>1015.3</ele>
        <time>2016-09-25T09:50:46Z</time>
      </trkpt>
      <trkpt lat="43.73166" lon="6.95262">
        <ele>1015.1</ele>
        <time>2016-09-25T09:50:49Z</time>
      </trkpt>
      <trkpt lat="43.73166" lon="6.95266">
        <ele>1015</ele>
        <time>2016-09-25T09:50:51Z</time>
      </trkpt>
      <trkpt lat="43.73165" lon="6.9527">
        <ele>1014.9</ele>
        <time>2016-09-25T09:50:53Z</time>
      </trkpt>
      <trkpt lat="43.73164" lon="6.95274">
        <ele>1015</ele>
        <time>2016-09-25T09:50:55Z</time>
      </trkpt>
      <trkpt lat="43.73163" lon="6.95278">
        <ele>1015.1</ele>
        <time>2016-09-25T09:50:57Z</time>
      </trkpt>
      <trkpt lat="43.73161" lon="6.95281">
        <ele>1015.2</ele>
        <time>2016-09-25T09:50:59Z</time>
      </trkpt>
      <trkpt lat="43.7316" lon="6.95285">
        <ele>1015.4</ele>
        <time>2016-09-25T09:51:01Z</time>
      </trkpt>
      <trkpt lat="43.73158" lon="6.95289">
        <ele>1015.5</ele>
        <time>2016-09-25T09:51:03Z</time>
      </trkpt>
      <trkpt lat="43.73156" lon="6.95293">
        <ele>1015.9</ele>
        <time>2016-09-25T09:51:05Z</time>
      </trkpt>
      <trkpt lat="43.73154" lon="6.95296">
        <ele>1016.1</ele>
        <time>2016-09-25T09:51:07Z</time>
      </trkpt>
      <trkpt lat="43.73152" lon="6.953">
        <ele>1016</ele>
        <time>2016-09-25T09:51:09Z</time>
      </trkpt>
      <trkpt lat="43.7315" lon="6.95305">
        <ele>1016</ele>
        <time>2016-09-25T09:51:11Z</time>
      </trkpt>
      <trkpt lat="43.73148" lon="6.95309">
        <ele>1016</ele>
        <time>2016-09-25T09:51:13Z</time>
      </trkpt>
      <trkpt lat="43.73145" lon="6.95313">
        <ele>1016.1</ele>
        <time>2016-09-25T09:51:15Z</time>
      </trkpt>
      <trkpt lat="43.73143" lon="6.95317">
        <ele>1016.2</ele>
        <time>2016-09-25T09:51:17Z</time>
      </trkpt>
      <trkpt lat="43.73141" lon="6.95321">
        <ele>1016.2</ele>
        <time>2016-09-25T09:51:19Z</time>
      </trkpt>
      <trkpt lat="43.73138" lon="6.95325">
        <ele>1016.3</ele>
        <time>2016-09-25T09:51:21Z</time>
      </trkpt>
      <trkpt lat="43.73135" lon="6.95328">
        <ele>1016.6</ele>
        <time>2016-09-25T09:51:23Z</time>
      </trkpt>
      <trkpt lat="43.73133" lon="6.9533">
        <ele>1016.9</ele>
        <time>2016-09-25T09:51:25Z</time>
      </trkpt>
      <trkpt lat="43.7313" lon="6.95334">
        <ele>1017</ele>
        <time>2016-09-25T09:51:27Z</time>
      </trkpt>
      <trkpt lat="43.73127" lon="6.95337">
        <ele>1017.1</ele>
        <time>2016-09-25T09:51:29Z</time>
      </trkpt>
      <trkpt lat="43.73125" lon="6.9534">
        <ele>1017.2</ele>
        <time>2016-09-25T09:51:31Z</time>
      </trkpt>
      <trkpt lat="43.73121" lon="6.95342">
        <ele>1017.1</ele>
        <time>2016-09-25T09:51:33Z</time>
      </trkpt>
      <trkpt lat="43.73118" lon="6.95342">
        <ele>1017.2</ele>
        <time>2016-09-25T09:51:35Z</time>
      </trkpt>
      <trkpt lat="43.73115" lon="6.9534">
        <ele>1017.5</ele>
        <time>2016-09-25T09:51:37Z</time>
      </trkpt>
      <trkpt lat="43.73112" lon="6.95338">
        <ele>1017.9</ele>
        <time>2016-09-25T09:51:39Z</time>
      </trkpt>
      <trkpt lat="43.7311" lon="6.95333">
        <ele>1018.5</ele>
        <time>2016-09-25T09:51:41Z</time>
      </trkpt>
      <trkpt lat="43.7311" lon="6.95328">
        <ele>1019.1</ele>
        <time>2016-09-25T09:51:43Z</time>
      </trkpt>
      <trkpt lat="43.7311" lon="6.95323">
        <ele>1019.7</ele>
        <time>2016-09-25T09:51:45Z</time>
      </trkpt>
      <trkpt lat="43.73111" lon="6.95318">
        <ele>1020.2</ele>
        <time>2016-09-25T09:51:47Z</time>
      </trkpt>
      <trkpt lat="43.73112" lon="6.95314">
        <ele>1020.7</ele>
        <time>2016-09-25T09:51:49Z</time>
      </trkpt>
      <trkpt lat="43.73115" lon="6.9531">
        <ele>1021.1</ele>
        <time>2016-09-25T09:51:51Z</time>
      </trkpt>
      <trkpt lat="43.73117" lon="6.95306">
        <ele>1021.5</ele>
        <time>2016-09-25T09:51:53Z</time>
      </trkpt>
      <trkpt lat="43.73119" lon="6.95302">
        <ele>1021.9</ele>
        <time>2016-09-25T09:51:55Z</time>
      </trkpt>
      <trkpt lat="43.73121" lon="6.95297">
        <ele>1022.4</ele>
        <time>2016-09-25T09:51:57Z</time>
      </trkpt>
      <trkpt lat="43.73123" lon="6.95292">
        <ele>1023</ele>
        <time>2016-09-25T09:51:59Z</time>
      </trkpt>
      <trkpt lat="43.73125" lon="6.95287">
        <ele>1023.3</ele>
        <time>2016-09-25T09:52:01Z</time>
      </trkpt>
      <trkpt lat="43.73126" lon="6.95282">
        <ele>1023.4</ele>
        <time>2016-09-25T09:52:03Z</time>
      </trkpt>
      <trkpt lat="43.73127" lon="6.95277">
        <ele>1023.3</ele>
        <time>2016-09-25T09:52:05Z</time>
      </trkpt>
      <trkpt lat="43.73129" lon="6.95272">
        <ele>1023.4</ele>
        <time>2016-09-25T09:52:07Z</time>
      </trkpt>
      <trkpt lat="43.73129" lon="6.95267">
        <ele>1023.5</ele>
        <time>2016-09-25T09:52:09Z</time>
      </trkpt>
      <trkpt lat="43.7313" lon="6.95262">
        <ele>1023.6</ele>
        <time>2016-09-25T09:52:11Z</time>
      </trkpt>
      <trkpt lat="43.73131" lon="6.95257">
        <ele>1023.6</ele>
        <time>2016-09-25T09:52:13Z</time>
      </trkpt>
      <trkpt lat="43.73132" lon="6.95252">
        <ele>1023.7</ele>
        <time>2016-09-25T09:52:15Z</time>
      </trkpt>
      <trkpt lat="43.73132" lon="6.95248">
        <ele>1023.9</ele>
        <time>2016-09-25T09:52:17Z</time>
      </trkpt>
      <trkpt lat="43.73132" lon="6.95243">
        <ele>1024.1</ele>
        <time>2016-09-25T09:52:19Z</time>
      </trkpt>
      <trkpt lat="43.73131" lon="6.9524">
        <ele>1024.6</ele>
        <time>2016-09-25T09:52:21Z</time>
      </trkpt>
      <trkpt lat="43.73128" lon="6.95239">
        <ele>1025.4</ele>
        <time>2016-09-25T09:52:23Z</time>
      </trkpt>
      <trkpt lat="43.73125" lon="6.95238">
        <ele>1026.2</ele>
        <time>2016-09-25T09:52:25Z</time>
      </trkpt>
      <trkpt lat="43.73122" lon="6.95239">
        <ele>1026.4</ele>
        <time>2016-09-25T09:52:27Z</time>
      </trkpt>
      <trkpt lat="43.73119" lon="6.95242">
        <ele>1026.4</ele>
        <time>2016-09-25T09:52:29Z</time>
      </trkpt>
      <trkpt lat="43.73117" lon="6.95245">
        <ele>1026.4</ele>
        <time>2016-09-25T09:52:31Z</time>
      </trkpt>
      <trkpt lat="43.73114" lon="6.95248">
        <ele>1026.4</ele>
        <time>2016-09-25T09:52:33Z</time>
      </trkpt>
      <trkpt lat="43.73111" lon="6.9525">
        <ele>1026.4</ele>
        <time>2016-09-25T09:52:35Z</time>
      </trkpt>
      <trkpt lat="43.73109" lon="6.95252">
        <ele>1026.4</ele>
        <time>2016-09-25T09:52:37Z</time>
      </trkpt>
      <trkpt lat="43.73106" lon="6.95254">
        <ele>1026.4</ele>
        <time>2016-09-25T09:52:39Z</time>
      </trkpt>
      <trkpt lat="43.73104" lon="6.95257">
        <ele>1026.3</ele>
        <time>2016-09-25T09:52:41Z</time>
      </trkpt>
      <trkpt lat="43.73102" lon="6.9526">
        <ele>1026.2</ele>
        <time>2016-09-25T09:52:43Z</time>
      </trkpt>
      <trkpt lat="43.73099" lon="6.95263">
        <ele>1026.1</ele>
        <time>2016-09-25T09:52:45Z</time>
      </trkpt>
      <trkpt lat="43.73096" lon="6.95267">
        <ele>1025.9</ele>
        <time>2016-09-25T09:52:47Z</time>
      </trkpt>
      <trkpt lat="43.73094" lon="6.95271">
        <ele>1025.6</ele>
        <time>2016-09-25T09:52:49Z</time>
      </trkpt>
      <trkpt lat="43.73091" lon="6.95277">
        <ele>1025.2</ele>
        <time>2016-09-25T09:52:51Z</time>
      </trkpt>
      <trkpt lat="43.73089" lon="6.95282">
        <ele>1024.8</ele>
        <time>2016-09-25T09:52:53Z</time>
      </trkpt>
      <trkpt lat="43.73086" lon="6.95286">
        <ele>1024.5</ele>
        <time>2016-09-25T09:52:55Z</time>
      </trkpt>
      <trkpt lat="43.73083" lon="6.95289">
        <ele>1024.3</ele>
        <time>2016-09-25T09:52:57Z</time>
      </trkpt>
      <trkpt lat="43.7308" lon="6.9529">
        <ele>1024.3</ele>
        <time>2016-09-25T09:52:59Z</time>
      </trkpt>
      <trkpt lat="43.73076" lon="6.95289">
        <ele>1024.4</ele>
        <time>2016-09-25T09:53:01Z</time>
      </trkpt>
      <trkpt lat="43.73073" lon="6.95287">
        <ele>1024.7</ele>
        <time>2016-09-25T09:53:03Z</time>
      </trkpt>
      <trkpt lat="43.7307" lon="6.95285">
        <ele>1025.1</ele>
        <time>2016-09-25T09:53:05Z</time>
      </trkpt>
      <trkpt lat="43.73065" lon="6.95284">
        <ele>1025.4</ele>
        <time>2016-09-25T09:53:08Z</time>
      </trkpt>
      <trkpt lat="43.73062" lon="6.95284">
        <ele>1025.5</ele>
        <time>2016-09-25T09:53:10Z</time>
      </trkpt>
      <trkpt lat="43.73059" lon="6.95283">
        <ele>1025.7</ele>
        <time>2016-09-25T09:53:12Z</time>
      </trkpt>
      <trkpt lat="43.73057" lon="6.95282">
        <ele>1025.9</ele>
        <time>2016-09-25T09:53:14Z</time>
      </trkpt>
      <trkpt lat="43.73054" lon="6.95282">
        <ele>1026</ele>
        <time>2016-09-25T09:53:16Z</time>
      </trkpt>
      <trkpt lat="43.73051" lon="6.95281">
        <ele>1026.2</ele>
        <time>2016-09-25T09:53:18Z</time>
      </trkpt>
      <trkpt lat="43.73047" lon="6.95281">
        <ele>1026.4</ele>
        <time>2016-09-25T09:53:20Z</time>
      </trkpt>
      <trkpt lat="43.73044" lon="6.9528">
        <ele>1026.6</ele>
        <time>2016-09-25T09:53:22Z</time>
      </trkpt>
      <trkpt lat="43.73042" lon="6.95278">
        <ele>1026.9</ele>
        <time>2016-09-25T09:53:24Z</time>
      </trkpt>
      <trkpt lat="43.73039" lon="6.95276">
        <ele>1027.4</ele>
        <time>2016-09-25T09:53:26Z</time>
      </trkpt>
      <trkpt lat="43.73037" lon="6.95273">
        <ele>1027.9</ele>
        <time>2016-09-25T09:53:28Z</time>
      </trkpt>
      <trkpt lat="43.73035" lon="6.95271">
        <ele>1028.4</ele>
        <time>2016-09-25T09:54:07Z</time>
      </trkpt>
      <trkpt lat="43.73032" lon="6.95268">
        <ele>1028.9</ele>
        <time>2016-09-25T09:54:26Z</time>
      </trkpt>
      <trkpt lat="43.73028" lon="6.95266">
        <ele>1029.4</ele>
        <time>2016-09-25T09:54:29Z</time>
      </trkpt>
      <trkpt lat="43.73025" lon="6.95266">
        <ele>1029.6</ele>
        <time>2016-09-25T09:54:31Z</time>
      </trkpt>
      <trkpt lat="43.73022" lon="6.95266">
        <ele>1029.7</ele>
        <time>2016-09-25T09:54:33Z</time>
      </trkpt>
      <trkpt lat="43.73018" lon="6.95267">
        <ele>1029.7</ele>
        <time>2016-09-25T09:54:35Z</time>
      </trkpt>
      <trkpt lat="43.73014" lon="6.95268">
        <ele>1029.9</ele>
        <time>2016-09-25T09:54:37Z</time>
      </trkpt>
      <trkpt lat="43.73011" lon="6.95268">
        <ele>1030</ele>
        <time>2016-09-25T09:54:39Z</time>
      </trkpt>
      <trkpt lat="43.73007" lon="6.95269">
        <ele>1030</ele>
        <time>2016-09-25T09:54:41Z</time>
      </trkpt>
      <trkpt lat="43.73004" lon="6.9527">
        <ele>1030.1</ele>
        <time>2016-09-25T09:54:43Z</time>
      </trkpt>
      <trkpt lat="43.73001" lon="6.9527">
        <ele>1030.2</ele>
        <time>2016-09-25T09:54:45Z</time>
      </trkpt>
      <trkpt lat="43.72997" lon="6.95271">
        <ele>1030.3</ele>
        <time>2016-09-25T09:54:47Z</time>
      </trkpt>
      <trkpt lat="43.72994" lon="6.95271">
        <ele>1030.5</ele>
        <time>2016-09-25T09:54:49Z</time>
      </trkpt>
      <trkpt lat="43.7299" lon="6.9527">
        <ele>1030.8</ele>
        <time>2016-09-25T09:54:51Z</time>
      </trkpt>
      <trkpt lat="43.72987" lon="6.95268">
        <ele>1031.2</ele>
        <time>2016-09-25T09:54:53Z</time>
      </trkpt>
      <trkpt lat="43.72984" lon="6.95266">
        <ele>1031.8</ele>
        <time>2016-09-25T09:54:55Z</time>
      </trkpt>
      <trkpt lat="43.7298" lon="6.95263">
        <ele>1032.3</ele>
        <time>2016-09-25T09:54:57Z</time>
      </trkpt>
      <trkpt lat="43.72977" lon="6.95261">
        <ele>1032.8</ele>
        <time>2016-09-25T09:54:59Z</time>
      </trkpt>
      <trkpt lat="43.72974" lon="6.9526">
        <ele>1033.1</ele>
        <time>2016-09-25T09:55:01Z</time>
      </trkpt>
      <trkpt lat="43.72971" lon="6.9526">
        <ele>1033.3</ele>
        <time>2016-09-25T09:55:03Z</time>
      </trkpt>
      <trkpt lat="43.72967" lon="6.9526">
        <ele>1033.5</ele>
        <time>2016-09-25T09:55:05Z</time>
      </trkpt>
      <trkpt lat="43.72964" lon="6.9526">
        <ele>1033.7</ele>
        <time>2016-09-25T09:55:07Z</time>
      </trkpt>
      <trkpt lat="43.72961" lon="6.95259">
        <ele>1034</ele>
        <time>2016-09-25T09:55:09Z</time>
      </trkpt>
      <trkpt lat="43.72958" lon="6.95256">
        <ele>1034.6</ele>
        <time>2016-09-25T09:55:11Z</time>
      </trkpt>
      <trkpt lat="43.72957" lon="6.95252">
        <ele>1035.2</ele>
        <time>2016-09-25T09:55:13Z</time>
      </trkpt>
      <trkpt lat="43.72957" lon="6.95247">
        <ele>1035.9</ele>
        <time>2016-09-25T09:55:15Z</time>
      </trkpt>
      <trkpt lat="43.72957" lon="6.95243">
        <ele>1036.6</ele>
        <time>2016-09-25T09:55:17Z</time>
      </trkpt>
      <trkpt lat="43.72959" lon="6.95239">
        <ele>1037.2</ele>
        <time>2016-09-25T09:55:19Z</time>
      </trkpt>
      <trkpt lat="43.72961" lon="6.95236">
        <ele>1037.5</ele>
        <time>2016-09-25T09:55:21Z</time>
      </trkpt>
      <trkpt lat="43.72963" lon="6.95233">
        <ele>1037.9</ele>
        <time>2016-09-25T09:55:23Z</time>
      </trkpt>
      <trkpt lat="43.72965" lon="6.9523">
        <ele>1038.2</ele>
        <time>2016-09-25T09:55:25Z</time>
      </trkpt>
      <trkpt lat="43.72967" lon="6.95227">
        <ele>1038.6</ele>
        <time>2016-09-25T09:55:27Z</time>
      </trkpt>
      <trkpt lat="43.72969" lon="6.95224">
        <ele>1039</ele>
        <time>2016-09-25T09:55:29Z</time>
      </trkpt>
      <trkpt lat="43.7297" lon="6.9522">
        <ele>1039.5</ele>
        <time>2016-09-25T09:55:31Z</time>
      </trkpt>
      <trkpt lat="43.72972" lon="6.95217">
        <ele>1039.9</ele>
        <time>2016-09-25T09:55:33Z</time>
      </trkpt>
      <trkpt lat="43.72973" lon="6.95214">
        <ele>1040.3</ele>
        <time>2016-09-25T09:55:35Z</time>
      </trkpt>
      <trkpt lat="43.72974" lon="6.95209">
        <ele>1041</ele>
        <time>2016-09-25T09:55:38Z</time>
      </trkpt>
      <trkpt lat="43.72976" lon="6.95204">
        <ele>1041.4</ele>
        <time>2016-09-25T09:55:41Z</time>
      </trkpt>
      <trkpt lat="43.72977" lon="6.95199">
        <ele>1041.9</ele>
        <time>2016-09-25T09:55:44Z</time>
      </trkpt>
      <trkpt lat="43.72979" lon="6.95195">
        <ele>1042.2</ele>
        <time>2016-09-25T09:55:47Z</time>
      </trkpt>
      <trkpt lat="43.72982" lon="6.95192">
        <ele>1042.3</ele>
        <time>2016-09-25T09:55:50Z</time>
      </trkpt>
      <trkpt lat="43.72985" lon="6.95189">
        <ele>1042.4</ele>
        <time>2016-09-25T09:55:53Z</time>
      </trkpt>
      <trkpt lat="43.72988" lon="6.95186">
        <ele>1042.6</ele>
        <time>2016-09-25T09:55:56Z</time>
      </trkpt>
      <trkpt lat="43.7299" lon="6.95182">
        <ele>1042.8</ele>
        <time>2016-09-25T09:55:59Z</time>
      </trkpt>
      <trkpt lat="43.72994" lon="6.95179">
        <ele>1042.9</ele>
        <time>2016-09-25T09:56:02Z</time>
      </trkpt>
      <trkpt lat="43.72996" lon="6.95176">
        <ele>1043.1</ele>
        <time>2016-09-25T09:56:05Z</time>
      </trkpt>
      <trkpt lat="43.72998" lon="6.95172">
        <ele>1043.4</ele>
        <time>2016-09-25T09:56:08Z</time>
      </trkpt>
      <trkpt lat="43.72998" lon="6.95167">
        <ele>1043.9</ele>
        <time>2016-09-25T09:56:11Z</time>
      </trkpt>
      <trkpt lat="43.72997" lon="6.95162">
        <ele>1044.5</ele>
        <time>2016-09-25T09:56:14Z</time>
      </trkpt>
      <trkpt lat="43.72996" lon="6.95157">
        <ele>1045.1</ele>
        <time>2016-09-25T09:56:17Z</time>
      </trkpt>
      <trkpt lat="43.72993" lon="6.95153">
        <ele>1045.6</ele>
        <time>2016-09-25T09:56:20Z</time>
      </trkpt>
      <trkpt lat="43.7299" lon="6.9515">
        <ele>1046.1</ele>
        <time>2016-09-25T09:56:23Z</time>
      </trkpt>
      <trkpt lat="43.72988" lon="6.95147">
        <ele>1046.6</ele>
        <time>2016-09-25T09:56:26Z</time>
      </trkpt>
      <trkpt lat="43.72984" lon="6.95146">
        <ele>1047</ele>
        <time>2016-09-25T09:56:29Z</time>
      </trkpt>
      <trkpt lat="43.7298" lon="6.95145">
        <ele>1047.3</ele>
        <time>2016-09-25T09:56:32Z</time>
      </trkpt>
      <trkpt lat="43.72977" lon="6.95144">
        <ele>1047.6</ele>
        <time>2016-09-25T09:56:35Z</time>
      </trkpt>
      <trkpt lat="43.72974" lon="6.95143">
        <ele>1047.9</ele>
        <time>2016-09-25T09:56:38Z</time>
      </trkpt>
      <trkpt lat="43.72971" lon="6.95144">
        <ele>1048.1</ele>
        <time>2016-09-25T09:56:41Z</time>
      </trkpt>
      <trkpt lat="43.72967" lon="6.95143">
        <ele>1048.4</ele>
        <time>2016-09-25T09:56:44Z</time>
      </trkpt>
      <trkpt lat="43.72963" lon="6.95143">
        <ele>1048.7</ele>
        <time>2016-09-25T09:56:47Z</time>
      </trkpt>
      <trkpt lat="43.72961" lon="6.95143">
        <ele>1048.9</ele>
        <time>2016-09-25T09:56:49Z</time>
      </trkpt>
      <trkpt lat="43.72958" lon="6.95143">
        <ele>1049.1</ele>
        <time>2016-09-25T09:56:51Z</time>
      </trkpt>
      <trkpt lat="43.72954" lon="6.95142">
        <ele>1049.5</ele>
        <time>2016-09-25T09:56:54Z</time>
      </trkpt>
      <trkpt lat="43.72951" lon="6.95139">
        <ele>1050</ele>
        <time>2016-09-25T09:56:57Z</time>
      </trkpt>
      <trkpt lat="43.72947" lon="6.95137">
        <ele>1050.4</ele>
        <time>2016-09-25T09:57:00Z</time>
      </trkpt>
      <trkpt lat="43.72944" lon="6.95136">
        <ele>1050.8</ele>
        <time>2016-09-25T09:57:03Z</time>
      </trkpt>
      <trkpt lat="43.7294" lon="6.95135">
        <ele>1051.2</ele>
        <time>2016-09-25T09:57:06Z</time>
      </trkpt>
      <trkpt lat="43.72936" lon="6.95134">
        <ele>1051.5</ele>
        <time>2016-09-25T09:57:09Z</time>
      </trkpt>
      <trkpt lat="43.72932" lon="6.95134">
        <ele>1051.8</ele>
        <time>2016-09-25T09:57:12Z</time>
      </trkpt>
      <trkpt lat="43.72929" lon="6.95134">
        <ele>1052</ele>
        <time>2016-09-25T09:57:15Z</time>
      </trkpt>
      <trkpt lat="43.72925" lon="6.95134">
        <ele>1052.3</ele>
        <time>2016-09-25T09:57:18Z</time>
      </trkpt>
      <trkpt lat="43.72921" lon="6.95134">
        <ele>1052.5</ele>
        <time>2016-09-25T09:57:21Z</time>
      </trkpt>
      <trkpt lat="43.72919" lon="6.95135">
        <ele>1052.6</ele>
        <time>2016-09-25T09:57:23Z</time>
      </trkpt>
      <trkpt lat="43.72916" lon="6.95135">
        <ele>1052.8</ele>
        <time>2016-09-25T09:57:25Z</time>
      </trkpt>
      <trkpt lat="43.72913" lon="6.95136">
        <ele>1052.9</ele>
        <time>2016-09-25T09:57:27Z</time>
      </trkpt>
      <trkpt lat="43.72909" lon="6.95137">
        <ele>1053</ele>
        <time>2016-09-25T09:57:30Z</time>
      </trkpt>
      <trkpt lat="43.72906" lon="6.95136">
        <ele>1053.3</ele>
        <time>2016-09-25T09:57:32Z</time>
      </trkpt>
      <trkpt lat="43.72904" lon="6.95136">
        <ele>1053.5</ele>
        <time>2016-09-25T09:57:34Z</time>
      </trkpt>
      <trkpt lat="43.72901" lon="6.95136">
        <ele>1053.7</ele>
        <time>2016-09-25T09:57:36Z</time>
      </trkpt>
      <trkpt lat="43.72898" lon="6.95137">
        <ele>1053.8</ele>
        <time>2016-09-25T09:57:38Z</time>
      </trkpt>
      <trkpt lat="43.72896" lon="6.95137">
        <ele>1053.9</ele>
        <time>2016-09-25T09:57:40Z</time>
      </trkpt>
      <trkpt lat="43.72893" lon="6.95135">
        <ele>1054.3</ele>
        <time>2016-09-25T09:57:42Z</time>
      </trkpt>
      <trkpt lat="43.7289" lon="6.95134">
        <ele>1054.7</ele>
        <time>2016-09-25T09:57:44Z</time>
      </trkpt>
      <trkpt lat="43.72888" lon="6.95132">
        <ele>1055.2</ele>
        <time>2016-09-25T09:57:46Z</time>
      </trkpt>
      <trkpt lat="43.72885" lon="6.95129">
        <ele>1055.7</ele>
        <time>2016-09-25T09:57:48Z</time>
      </trkpt>
      <trkpt lat="43.72883" lon="6.95127">
        <ele>1056.1</ele>
        <time>2016-09-25T09:57:50Z</time>
      </trkpt>
      <trkpt lat="43.7288" lon="6.95123">
        <ele>1056.9</ele>
        <time>2016-09-25T09:57:53Z</time>
      </trkpt>
      <trkpt lat="43.7288" lon="6.95119">
        <ele>1057.5</ele>
        <time>2016-09-25T09:57:55Z</time>
      </trkpt>
      <trkpt lat="43.72881" lon="6.95116">
        <ele>1057.9</ele>
        <time>2016-09-25T09:57:57Z</time>
      </trkpt>
      <trkpt lat="43.72883" lon="6.95114">
        <ele>1058.1</ele>
        <time>2016-09-25T09:57:59Z</time>
      </trkpt>
      <trkpt lat="43.72885" lon="6.95111">
        <ele>1058.3</ele>
        <time>2016-09-25T09:58:01Z</time>
      </trkpt>
      <trkpt lat="43.72888" lon="6.95108">
        <ele>1058.6</ele>
        <time>2016-09-25T09:58:04Z</time>
      </trkpt>
      <trkpt lat="43.72891" lon="6.95104">
        <ele>1059.1</ele>
        <time>2016-09-25T09:58:07Z</time>
      </trkpt>
      <trkpt lat="43.72894" lon="6.951">
        <ele>1059.5</ele>
        <time>2016-09-25T09:58:10Z</time>
      </trkpt>
      <trkpt lat="43.72896" lon="6.95097">
        <ele>1059.8</ele>
        <time>2016-09-25T09:58:12Z</time>
      </trkpt>
      <trkpt lat="43.72898" lon="6.95094">
        <ele>1060.1</ele>
        <time>2016-09-25T09:58:14Z</time>
      </trkpt>
      <trkpt lat="43.729" lon="6.95091">
        <ele>1060.5</ele>
        <time>2016-09-25T09:58:16Z</time>
      </trkpt>
      <trkpt lat="43.72902" lon="6.95088">
        <ele>1060.8</ele>
        <time>2016-09-25T09:58:18Z</time>
      </trkpt>
      <trkpt lat="43.72904" lon="6.95086">
        <ele>1061.1</ele>
        <time>2016-09-25T09:58:20Z</time>
      </trkpt>
      <trkpt lat="43.72905" lon="6.95082">
        <ele>1061.5</ele>
        <time>2016-09-25T09:58:22Z</time>
      </trkpt>
      <trkpt lat="43.72907" lon="6.95079">
        <ele>1061.9</ele>
        <time>2016-09-25T09:58:24Z</time>
      </trkpt>
      <trkpt lat="43.72909" lon="6.95077">
        <ele>1062.2</ele>
        <time>2016-09-25T09:58:26Z</time>
      </trkpt>
      <trkpt lat="43.72911" lon="6.95074">
        <ele>1062.5</ele>
        <time>2016-09-25T09:58:28Z</time>
      </trkpt>
      <trkpt lat="43.72913" lon="6.95072">
        <ele>1062.8</ele>
        <time>2016-09-25T09:58:30Z</time>
      </trkpt>
      <trkpt lat="43.72916" lon="6.95069">
        <ele>1063.1</ele>
        <time>2016-09-25T09:58:32Z</time>
      </trkpt>
      <trkpt lat="43.72918" lon="6.95066">
        <ele>1063.4</ele>
        <time>2016-09-25T09:58:34Z</time>
      </trkpt>
      <trkpt lat="43.72921" lon="6.95063">
        <ele>1063.8</ele>
        <time>2016-09-25T09:58:36Z</time>
      </trkpt>
      <trkpt lat="43.72923" lon="6.95061">
        <ele>1064.2</ele>
        <time>2016-09-25T09:58:38Z</time>
      </trkpt>
      <trkpt lat="43.72925" lon="6.95058">
        <ele>1064.5</ele>
        <time>2016-09-25T09:58:40Z</time>
      </trkpt>
      <trkpt lat="43.72928" lon="6.95055">
        <ele>1064.9</ele>
        <time>2016-09-25T09:58:42Z</time>
      </trkpt>
      <trkpt lat="43.7293" lon="6.95052">
        <ele>1065.3</ele>
        <time>2016-09-25T09:58:44Z</time>
      </trkpt>
      <trkpt lat="43.72932" lon="6.95049">
        <ele>1065.7</ele>
        <time>2016-09-25T09:58:46Z</time>
      </trkpt>
      <trkpt lat="43.72934" lon="6.95046">
        <ele>1066.1</ele>
        <time>2016-09-25T09:58:48Z</time>
      </trkpt>
      <trkpt lat="43.72937" lon="6.95044">
        <ele>1066.4</ele>
        <time>2016-09-25T09:58:50Z</time>
      </trkpt>
      <trkpt lat="43.72939" lon="6.95042">
        <ele>1066.7</ele>
        <time>2016-09-25T09:58:52Z</time>
      </trkpt>
      <trkpt lat="43.72942" lon="6.95039">
        <ele>1066.8</ele>
        <time>2016-09-25T09:58:54Z</time>
      </trkpt>
      <trkpt lat="43.72944" lon="6.95037">
        <ele>1067</ele>
        <time>2016-09-25T09:58:56Z</time>
      </trkpt>
      <trkpt lat="43.72946" lon="6.95034">
        <ele>1067.2</ele>
        <time>2016-09-25T09:58:58Z</time>
      </trkpt>
      <trkpt lat="43.72949" lon="6.95031">
        <ele>1067.5</ele>
        <time>2016-09-25T09:59:00Z</time>
      </trkpt>
      <trkpt lat="43.72951" lon="6.95028">
        <ele>1067.7</ele>
        <time>2016-09-25T09:59:02Z</time>
      </trkpt>
      <trkpt lat="43.72954" lon="6.95025">
        <ele>1067.9</ele>
        <time>2016-09-25T09:59:04Z</time>
      </trkpt>
      <trkpt lat="43.72957" lon="6.95022">
        <ele>1068.2</ele>
        <time>2016-09-25T09:59:06Z</time>
      </trkpt>
      <trkpt lat="43.72959" lon="6.95019">
        <ele>1068.3</ele>
        <time>2016-09-25T09:59:08Z</time>
      </trkpt>
      <trkpt lat="43.72962" lon="6.95017">
        <ele>1068.3</ele>
        <time>2016-09-25T09:59:10Z</time>
      </trkpt>
      <trkpt lat="43.72964" lon="6.95014">
        <ele>1068.4</ele>
        <time>2016-09-25T09:59:12Z</time>
      </trkpt>
      <trkpt lat="43.72966" lon="6.95011">
        <ele>1068.5</ele>
        <time>2016-09-25T09:59:14Z</time>
      </trkpt>
      <trkpt lat="43.72969" lon="6.95008">
        <ele>1068.5</ele>
        <time>2016-09-25T09:59:17Z</time>
      </trkpt>
      <trkpt lat="43.72971" lon="6.95005">
        <ele>1068.5</ele>
        <time>2016-09-25T09:59:19Z</time>
      </trkpt>
      <trkpt lat="43.72974" lon="6.95002">
        <ele>1068.6</ele>
        <time>2016-09-25T09:59:22Z</time>
      </trkpt>
      <trkpt lat="43.72975" lon="6.94997">
        <ele>1068.9</ele>
        <time>2016-09-25T09:59:25Z</time>
      </trkpt>
      <trkpt lat="43.72978" lon="6.94992">
        <ele>1069.2</ele>
        <time>2016-09-25T09:59:28Z</time>
      </trkpt>
      <trkpt lat="43.7298" lon="6.94988">
        <ele>1069.4</ele>
        <time>2016-09-25T09:59:31Z</time>
      </trkpt>
      <trkpt lat="43.72982" lon="6.94983">
        <ele>1069.8</ele>
        <time>2016-09-25T09:59:34Z</time>
      </trkpt>
      <trkpt lat="43.72983" lon="6.94978">
        <ele>1070.2</ele>
        <time>2016-09-25T09:59:37Z</time>
      </trkpt>
      <trkpt lat="43.72984" lon="6.94974">
        <ele>1070.4</ele>
        <time>2016-09-25T09:59:39Z</time>
      </trkpt>
      <trkpt lat="43.72986" lon="6.94971">
        <ele>1070.6</ele>
        <time>2016-09-25T09:59:41Z</time>
      </trkpt>
      <trkpt lat="43.72988" lon="6.94966">
        <ele>1070.9</ele>
        <time>2016-09-25T09:59:44Z</time>
      </trkpt>
      <trkpt lat="43.72989" lon="6.94962">
        <ele>1071.3</ele>
        <time>2016-09-25T09:59:47Z</time>
      </trkpt>
      <trkpt lat="43.7299" lon="6.94958">
        <ele>1071.6</ele>
        <time>2016-09-25T09:59:49Z</time>
      </trkpt>
      <trkpt lat="43.72992" lon="6.94953">
        <ele>1071.9</ele>
        <time>2016-09-25T09:59:52Z</time>
      </trkpt>
      <trkpt lat="43.72993" lon="6.94948">
        <ele>1072.2</ele>
        <time>2016-09-25T09:59:55Z</time>
      </trkpt>
      <trkpt lat="43.72993" lon="6.94945">
        <ele>1072.6</ele>
        <time>2016-09-25T09:59:57Z</time>
      </trkpt>
      <trkpt lat="43.72993" lon="6.94941">
        <ele>1072.9</ele>
        <time>2016-09-25T09:59:59Z</time>
      </trkpt>
      <trkpt lat="43.72992" lon="6.94937">
        <ele>1073.4</ele>
        <time>2016-09-25T10:00:01Z</time>
      </trkpt>
      <trkpt lat="43.7299" lon="6.94932">
        <ele>1074</ele>
        <time>2016-09-25T10:00:04Z</time>
      </trkpt>
      <trkpt lat="43.72987" lon="6.94929">
        <ele>1074.6</ele>
        <time>2016-09-25T10:00:07Z</time>
      </trkpt>
      <trkpt lat="43.72984" lon="6.94926">
        <ele>1075.2</ele>
        <time>2016-09-25T10:00:10Z</time>
      </trkpt>
      <trkpt lat="43.72981" lon="6.94926">
        <ele>1075.5</ele>
        <time>2016-09-25T10:00:12Z</time>
      </trkpt>
      <trkpt lat="43.72978" lon="6.94926">
        <ele>1075.7</ele>
        <time>2016-09-25T10:00:14Z</time>
      </trkpt>
      <trkpt lat="43.72975" lon="6.94927">
        <ele>1076</ele>
        <time>2016-09-25T10:00:16Z</time>
      </trkpt>
      <trkpt lat="43.72972" lon="6.94926">
        <ele>1076.3</ele>
        <time>2016-09-25T10:00:18Z</time>
      </trkpt>
      <trkpt lat="43.72969" lon="6.94926">
        <ele>1076.7</ele>
        <time>2016-09-25T10:00:20Z</time>
      </trkpt>
      <trkpt lat="43.72966" lon="6.94927">
        <ele>1076.9</ele>
        <time>2016-09-25T10:00:22Z</time>
      </trkpt>
      <trkpt lat="43.72963" lon="6.94928">
        <ele>1077.1</ele>
        <time>2016-09-25T10:00:24Z</time>
      </trkpt>
      <trkpt lat="43.7296" lon="6.94928">
        <ele>1077.4</ele>
        <time>2016-09-25T10:00:26Z</time>
      </trkpt>
      <trkpt lat="43.72957" lon="6.94928">
        <ele>1077.6</ele>
        <time>2016-09-25T10:00:28Z</time>
      </trkpt>
      <trkpt lat="43.72953" lon="6.94928">
        <ele>1077.6</ele>
        <time>2016-09-25T10:00:30Z</time>
      </trkpt>
      <trkpt lat="43.72951" lon="6.94926">
        <ele>1077.7</ele>
        <time>2016-09-25T10:00:32Z</time>
      </trkpt>
      <trkpt lat="43.72948" lon="6.94926">
        <ele>1077.8</ele>
        <time>2016-09-25T10:00:34Z</time>
      </trkpt>
      <trkpt lat="43.72945" lon="6.94925">
        <ele>1077.9</ele>
        <time>2016-09-25T10:00:36Z</time>
      </trkpt>
      <trkpt lat="43.72941" lon="6.94925">
        <ele>1077.9</ele>
        <time>2016-09-25T10:00:38Z</time>
      </trkpt>
      <trkpt lat="43.72938" lon="6.94925">
        <ele>1078</ele>
        <time>2016-09-25T10:00:40Z</time>
      </trkpt>
      <trkpt lat="43.72935" lon="6.94925">
        <ele>1078</ele>
        <time>2016-09-25T10:00:42Z</time>
      </trkpt>
      <trkpt lat="43.72932" lon="6.94925">
        <ele>1078</ele>
        <time>2016-09-25T10:00:44Z</time>
      </trkpt>
      <trkpt lat="43.72929" lon="6.94926">
        <ele>1077.9</ele>
        <time>2016-09-25T10:00:46Z</time>
      </trkpt>
      <trkpt lat="43.72926" lon="6.94928">
        <ele>1077.8</ele>
        <time>2016-09-25T10:00:48Z</time>
      </trkpt>
      <trkpt lat="43.72923" lon="6.94929">
        <ele>1077.8</ele>
        <time>2016-09-25T10:00:50Z</time>
      </trkpt>
      <trkpt lat="43.7292" lon="6.94929">
        <ele>1077.8</ele>
        <time>2016-09-25T10:00:52Z</time>
      </trkpt>
      <trkpt lat="43.72917" lon="6.94928">
        <ele>1077.9</ele>
        <time>2016-09-25T10:00:54Z</time>
      </trkpt>
      <trkpt lat="43.72914" lon="6.94926">
        <ele>1078</ele>
        <time>2016-09-25T10:00:56Z</time>
      </trkpt>
      <trkpt lat="43.72911" lon="6.94925">
        <ele>1078.1</ele>
        <time>2016-09-25T10:00:58Z</time>
      </trkpt>
      <trkpt lat="43.72908" lon="6.94925">
        <ele>1078.2</ele>
        <time>2016-09-25T10:01:00Z</time>
      </trkpt>
      <trkpt lat="43.72905" lon="6.94924">
        <ele>1078.3</ele>
        <time>2016-09-25T10:01:02Z</time>
      </trkpt>
      <trkpt lat="43.72901" lon="6.94924">
        <ele>1078.3</ele>
        <time>2016-09-25T10:01:04Z</time>
      </trkpt>
      <trkpt lat="43.72898" lon="6.94924">
        <ele>1078.3</ele>
        <time>2016-09-25T10:01:06Z</time>
      </trkpt>
      <trkpt lat="43.72895" lon="6.94924">
        <ele>1078.3</ele>
        <time>2016-09-25T10:01:08Z</time>
      </trkpt>
      <trkpt lat="43.72892" lon="6.94924">
        <ele>1078.4</ele>
        <time>2016-09-25T10:01:10Z</time>
      </trkpt>
      <trkpt lat="43.72889" lon="6.94924">
        <ele>1078.4</ele>
        <time>2016-09-25T10:01:12Z</time>
      </trkpt>
      <trkpt lat="43.72886" lon="6.94924">
        <ele>1078.4</ele>
        <time>2016-09-25T10:01:14Z</time>
      </trkpt>
      <trkpt lat="43.72883" lon="6.94923">
        <ele>1078.5</ele>
        <time>2016-09-25T10:01:16Z</time>
      </trkpt>
      <trkpt lat="43.7288" lon="6.94921">
        <ele>1078.6</ele>
        <time>2016-09-25T10:01:18Z</time>
      </trkpt>
      <trkpt lat="43.72878" lon="6.94919">
        <ele>1078.8</ele>
        <time>2016-09-25T10:01:20Z</time>
      </trkpt>
      <trkpt lat="43.72875" lon="6.94917">
        <ele>1079</ele>
        <time>2016-09-25T10:01:22Z</time>
      </trkpt>
      <trkpt lat="43.72872" lon="6.94914">
        <ele>1079.2</ele>
        <time>2016-09-25T10:01:24Z</time>
      </trkpt>
      <trkpt lat="43.7287" lon="6.94911">
        <ele>1079.6</ele>
        <time>2016-09-25T10:01:26Z</time>
      </trkpt>
      <trkpt lat="43.72867" lon="6.94907">
        <ele>1079.9</ele>
        <time>2016-09-25T10:01:28Z</time>
      </trkpt>
      <trkpt lat="43.72865" lon="6.94905">
        <ele>1080.2</ele>
        <time>2016-09-25T10:01:30Z</time>
      </trkpt>
      <trkpt lat="43.72861" lon="6.94903">
        <ele>1080.4</ele>
        <time>2016-09-25T10:01:33Z</time>
      </trkpt>
      <trkpt lat="43.72858" lon="6.94901">
        <ele>1080.7</ele>
        <time>2016-09-25T10:01:36Z</time>
      </trkpt>
      <trkpt lat="43.72856" lon="6.94898">
        <ele>1081</ele>
        <time>2016-09-25T10:01:39Z</time>
      </trkpt>
      <trkpt lat="43.72854" lon="6.94894">
        <ele>1081.4</ele>
        <time>2016-09-25T10:01:42Z</time>
      </trkpt>
      <trkpt lat="43.72852" lon="6.9489">
        <ele>1081.8</ele>
        <time>2016-09-25T10:01:45Z</time>
      </trkpt>
      <trkpt lat="43.72853" lon="6.94885">
        <ele>1082.2</ele>
        <time>2016-09-25T10:01:48Z</time>
      </trkpt>
      <trkpt lat="43.72854" lon="6.9488">
        <ele>1082.6</ele>
        <time>2016-09-25T10:01:51Z</time>
      </trkpt>
      <trkpt lat="43.72855" lon="6.94876">
        <ele>1082.9</ele>
        <time>2016-09-25T10:01:53Z</time>
      </trkpt>
      <trkpt lat="43.72855" lon="6.94873">
        <ele>1083.2</ele>
        <time>2016-09-25T10:01:55Z</time>
      </trkpt>
      <trkpt lat="43.72857" lon="6.94868">
        <ele>1083.6</ele>
        <time>2016-09-25T10:01:58Z</time>
      </trkpt>
      <trkpt lat="43.72858" lon="6.94863">
        <ele>1083.9</ele>
        <time>2016-09-25T10:02:01Z</time>
      </trkpt>
      <trkpt lat="43.7286" lon="6.94859">
        <ele>1084.3</ele>
        <time>2016-09-25T10:02:04Z</time>
      </trkpt>
      <trkpt lat="43.72859" lon="6.94853">
        <ele>1084.8</ele>
        <time>2016-09-25T10:02:07Z</time>
      </trkpt>
      <trkpt lat="43.72857" lon="6.94848">
        <ele>1085.3</ele>
        <time>2016-09-25T10:02:10Z</time>
      </trkpt>
      <trkpt lat="43.72855" lon="6.94844">
        <ele>1085.8</ele>
        <time>2016-09-25T10:02:13Z</time>
      </trkpt>
      <trkpt lat="43.72852" lon="6.94842">
        <ele>1086.2</ele>
        <time>2016-09-25T10:02:16Z</time>
      </trkpt>
      <trkpt lat="43.72849" lon="6.9484">
        <ele>1086.5</ele>
        <time>2016-09-25T10:02:19Z</time>
      </trkpt>
      <trkpt lat="43.72846" lon="6.94838">
        <ele>1086.8</ele>
        <time>2016-09-25T10:02:22Z</time>
      </trkpt>
      <trkpt lat="43.72844" lon="6.94835">
        <ele>1087.2</ele>
        <time>2016-09-25T10:02:24Z</time>
      </trkpt>
      <trkpt lat="43.72842" lon="6.94832">
        <ele>1087.5</ele>
        <time>2016-09-25T10:02:26Z</time>
      </trkpt>
      <trkpt lat="43.7284" lon="6.94829">
        <ele>1087.9</ele>
        <time>2016-09-25T10:02:28Z</time>
      </trkpt>
      <trkpt lat="43.72838" lon="6.94826">
        <ele>1088.2</ele>
        <time>2016-09-25T10:02:30Z</time>
      </trkpt>
      <trkpt lat="43.72836" lon="6.94823">
        <ele>1088.6</ele>
        <time>2016-09-25T10:02:32Z</time>
      </trkpt>
      <trkpt lat="43.72835" lon="6.94819">
        <ele>1089</ele>
        <time>2016-09-25T10:02:34Z</time>
      </trkpt>
      <trkpt lat="43.72835" lon="6.94815">
        <ele>1089.4</ele>
        <time>2016-09-25T10:02:36Z</time>
      </trkpt>
      <trkpt lat="43.72835" lon="6.9481">
        <ele>1089.8</ele>
        <time>2016-09-25T10:02:38Z</time>
      </trkpt>
      <trkpt lat="43.72835" lon="6.94806">
        <ele>1090.2</ele>
        <time>2016-09-25T10:02:40Z</time>
      </trkpt>
      <trkpt lat="43.72835" lon="6.94802">
        <ele>1090.5</ele>
        <time>2016-09-25T10:02:42Z</time>
      </trkpt>
      <trkpt lat="43.72835" lon="6.94798">
        <ele>1090.9</ele>
        <time>2016-09-25T10:02:44Z</time>
      </trkpt>
      <trkpt lat="43.72837" lon="6.94794">
        <ele>1091.2</ele>
        <time>2016-09-25T10:02:46Z</time>
      </trkpt>
      <trkpt lat="43.72839" lon="6.9479">
        <ele>1091.4</ele>
        <time>2016-09-25T10:02:48Z</time>
      </trkpt>
      <trkpt lat="43.7284" lon="6.94786">
        <ele>1091.7</ele>
        <time>2016-09-25T10:02:50Z</time>
      </trkpt>
      <trkpt lat="43.7284" lon="6.94782">
        <ele>1092</ele>
        <time>2016-09-25T10:02:52Z</time>
      </trkpt>
      <trkpt lat="43.72839" lon="6.94779">
        <ele>1092.3</ele>
        <time>2016-09-25T10:02:54Z</time>
      </trkpt>
      <trkpt lat="43.72837" lon="6.94775">
        <ele>1092.7</ele>
        <time>2016-09-25T10:02:56Z</time>
      </trkpt>
      <trkpt lat="43.72836" lon="6.94771">
        <ele>1093</ele>
        <time>2016-09-25T10:02:58Z</time>
      </trkpt>
      <trkpt lat="43.72835" lon="6.94767">
        <ele>1093.4</ele>
        <time>2016-09-25T10:03:00Z</time>
      </trkpt>
      <trkpt lat="43.72833" lon="6.94763">
        <ele>1093.7</ele>
        <time>2016-09-25T10:03:02Z</time>
      </trkpt>
      <trkpt lat="43.72832" lon="6.94759">
        <ele>1094.1</ele>
        <time>2016-09-25T10:03:04Z</time>
      </trkpt>
      <trkpt lat="43.72831" lon="6.94756">
        <ele>1094.4</ele>
        <time>2016-09-25T10:03:06Z</time>
      </trkpt>
      <trkpt lat="43.72819" lon="6.94731">
        <ele>1096.7</ele>
        <time>2016-09-25T10:03:25Z</time>
      </trkpt>
      <trkpt lat="43.72816" lon="6.94728">
        <ele>1097</ele>
        <time>2016-09-25T10:03:28Z</time>
      </trkpt>
      <trkpt lat="43.72813" lon="6.94724">
        <ele>1097.3</ele>
        <time>2016-09-25T10:03:31Z</time>
      </trkpt>
      <trkpt lat="43.7281" lon="6.94722">
        <ele>1097.5</ele>
        <time>2016-09-25T10:03:33Z</time>
      </trkpt>
      <trkpt lat="43.72808" lon="6.9472">
        <ele>1097.8</ele>
        <time>2016-09-25T10:03:35Z</time>
      </trkpt>
      <trkpt lat="43.72806" lon="6.94717">
        <ele>1098</ele>
        <time>2016-09-25T10:03:37Z</time>
      </trkpt>
      <trkpt lat="43.72804" lon="6.94715">
        <ele>1098.2</ele>
        <time>2016-09-25T10:03:39Z</time>
      </trkpt>
      <trkpt lat="43.72802" lon="6.94712">
        <ele>1098.5</ele>
        <time>2016-09-25T10:03:41Z</time>
      </trkpt>
      <trkpt lat="43.728" lon="6.94708">
        <ele>1098.8</ele>
        <time>2016-09-25T10:03:43Z</time>
      </trkpt>
      <trkpt lat="43.72799" lon="6.94705">
        <ele>1099.1</ele>
        <time>2016-09-25T10:03:45Z</time>
      </trkpt>
      <trkpt lat="43.72798" lon="6.947">
        <ele>1099.5</ele>
        <time>2016-09-25T10:03:48Z</time>
      </trkpt>
      <trkpt lat="43.72797" lon="6.94695">
        <ele>1099.9</ele>
        <time>2016-09-25T10:03:51Z</time>
      </trkpt>
      <trkpt lat="43.72797" lon="6.94691">
        <ele>1100.2</ele>
        <time>2016-09-25T10:03:53Z</time>
      </trkpt>
      <trkpt lat="43.72796" lon="6.94686">
        <ele>1100.5</ele>
        <time>2016-09-25T10:03:55Z</time>
      </trkpt>
      <trkpt lat="43.72795" lon="6.94682">
        <ele>1100.9</ele>
        <time>2016-09-25T10:03:57Z</time>
      </trkpt>
      <trkpt lat="43.72795" lon="6.94678">
        <ele>1101.2</ele>
        <time>2016-09-25T10:03:59Z</time>
      </trkpt>
      <trkpt lat="43.72794" lon="6.94674">
        <ele>1101.5</ele>
        <time>2016-09-25T10:04:01Z</time>
      </trkpt>
      <trkpt lat="43.72793" lon="6.9467">
        <ele>1101.8</ele>
        <time>2016-09-25T10:04:03Z</time>
      </trkpt>
      <trkpt lat="43.72792" lon="6.94666">
        <ele>1102</ele>
        <time>2016-09-25T10:04:05Z</time>
      </trkpt>
      <trkpt lat="43.72791" lon="6.94663">
        <ele>1102.4</ele>
        <time>2016-09-25T10:04:07Z</time>
      </trkpt>
      <trkpt lat="43.7279" lon="6.94658">
        <ele>1102.8</ele>
        <time>2016-09-25T10:04:09Z</time>
      </trkpt>
      <trkpt lat="43.7279" lon="6.94654">
        <ele>1103.1</ele>
        <time>2016-09-25T10:04:11Z</time>
      </trkpt>
      <trkpt lat="43.72789" lon="6.9465">
        <ele>1103.5</ele>
        <time>2016-09-25T10:04:13Z</time>
      </trkpt>
      <trkpt lat="43.72787" lon="6.94646">
        <ele>1104</ele>
        <time>2016-09-25T10:04:15Z</time>
      </trkpt>
      <trkpt lat="43.72785" lon="6.94642">
        <ele>1104.4</ele>
        <time>2016-09-25T10:04:17Z</time>
      </trkpt>
      <trkpt lat="43.72784" lon="6.94638">
        <ele>1104.9</ele>
        <time>2016-09-25T10:04:19Z</time>
      </trkpt>
      <trkpt lat="43.72783" lon="6.94634">
        <ele>1105.3</ele>
        <time>2016-09-25T10:04:21Z</time>
      </trkpt>
      <trkpt lat="43.72781" lon="6.9463">
        <ele>1105.7</ele>
        <time>2016-09-25T10:04:23Z</time>
      </trkpt>
      <trkpt lat="43.72779" lon="6.94627">
        <ele>1106.2</ele>
        <time>2016-09-25T10:04:25Z</time>
      </trkpt>
      <trkpt lat="43.72776" lon="6.94625">
        <ele>1106.7</ele>
        <time>2016-09-25T10:04:27Z</time>
      </trkpt>
      <trkpt lat="43.72775" lon="6.94621">
        <ele>1107.1</ele>
        <time>2016-09-25T10:04:37Z</time>
      </trkpt>
      <trkpt lat="43.72773" lon="6.94622">
        <ele>1107.3</ele>
        <time>2016-09-25T10:08:48Z</time>
      </trkpt>
      <trkpt lat="43.7277" lon="6.94623">
        <ele>1107.5</ele>
        <time>2016-09-25T10:08:59Z</time>
      </trkpt>
      <trkpt lat="43.72772" lon="6.94621">
        <ele>1107.4</ele>
        <time>2016-09-25T10:13:02Z</time>
      </trkpt>
      <trkpt lat="43.72774" lon="6.94617">
        <ele>1107.5</ele>
        <time>2016-09-25T10:13:19Z</time>
      </trkpt>
      <trkpt lat="43.72775" lon="6.94612">
        <ele>1107.8</ele>
        <time>2016-09-25T10:13:22Z</time>
      </trkpt>
      <trkpt lat="43.72776" lon="6.94609">
        <ele>1107.9</ele>
        <time>2016-09-25T10:13:24Z</time>
      </trkpt>
      <trkpt lat="43.72777" lon="6.94605">
        <ele>1108.1</ele>
        <time>2016-09-25T10:13:26Z</time>
      </trkpt>
      <trkpt lat="43.72778" lon="6.94601">
        <ele>1108.3</ele>
        <time>2016-09-25T10:13:28Z</time>
      </trkpt>
      <trkpt lat="43.72779" lon="6.94597">
        <ele>1108.5</ele>
        <time>2016-09-25T10:13:30Z</time>
      </trkpt>
      <trkpt lat="43.7278" lon="6.94593">
        <ele>1108.8</ele>
        <time>2016-09-25T10:13:32Z</time>
      </trkpt>
      <trkpt lat="43.7278" lon="6.94588">
        <ele>1109.1</ele>
        <time>2016-09-25T10:13:34Z</time>
      </trkpt>
      <trkpt lat="43.7278" lon="6.94584">
        <ele>1109.4</ele>
        <time>2016-09-25T10:13:36Z</time>
      </trkpt>
      <trkpt lat="43.72781" lon="6.94579">
        <ele>1109.8</ele>
        <time>2016-09-25T10:13:38Z</time>
      </trkpt>
      <trkpt lat="43.72781" lon="6.94575">
        <ele>1110.1</ele>
        <time>2016-09-25T10:13:40Z</time>
      </trkpt>
      <trkpt lat="43.72781" lon="6.94571">
        <ele>1110.4</ele>
        <time>2016-09-25T10:13:42Z</time>
      </trkpt>
      <trkpt lat="43.72781" lon="6.94567">
        <ele>1110.7</ele>
        <time>2016-09-25T10:13:44Z</time>
      </trkpt>
      <trkpt lat="43.72782" lon="6.94563">
        <ele>1111</ele>
        <time>2016-09-25T10:13:46Z</time>
      </trkpt>
      <trkpt lat="43.72782" lon="6.94559">
        <ele>1111.2</ele>
        <time>2016-09-25T10:13:48Z</time>
      </trkpt>
      <trkpt lat="43.72782" lon="6.94555">
        <ele>1111.5</ele>
        <time>2016-09-25T10:13:50Z</time>
      </trkpt>
      <trkpt lat="43.72782" lon="6.94552">
        <ele>1111.8</ele>
        <time>2016-09-25T10:13:52Z</time>
      </trkpt>
      <trkpt lat="43.72782" lon="6.94548">
        <ele>1112.1</ele>
        <time>2016-09-25T10:13:54Z</time>
      </trkpt>
      <trkpt lat="43.72782" lon="6.94544">
        <ele>1112.4</ele>
        <time>2016-09-25T10:13:56Z</time>
      </trkpt>
      <trkpt lat="43.72783" lon="6.9454">
        <ele>1112.6</ele>
        <time>2016-09-25T10:13:58Z</time>
      </trkpt>
      <trkpt lat="43.72784" lon="6.94536">
        <ele>1112.6</ele>
        <time>2016-09-25T10:14:00Z</time>
      </trkpt>
      <trkpt lat="43.72785" lon="6.94532">
        <ele>1112.5</ele>
        <time>2016-09-25T10:14:02Z</time>
      </trkpt>
      <trkpt lat="43.72786" lon="6.94529">
        <ele>1112.6</ele>
        <time>2016-09-25T10:14:04Z</time>
      </trkpt>
      <trkpt lat="43.72786" lon="6.94524">
        <ele>1112.6</ele>
        <time>2016-09-25T10:14:06Z</time>
      </trkpt>
      <trkpt lat="43.72786" lon="6.9452">
        <ele>1112.7</ele>
        <time>2016-09-25T10:14:08Z</time>
      </trkpt>
      <trkpt lat="43.72787" lon="6.94515">
        <ele>1112.7</ele>
        <time>2016-09-25T10:14:10Z</time>
      </trkpt>
      <trkpt lat="43.72787" lon="6.9451">
        <ele>1112.8</ele>
        <time>2016-09-25T10:14:12Z</time>
      </trkpt>
      <trkpt lat="43.72787" lon="6.94505">
        <ele>1112.9</ele>
        <time>2016-09-25T10:14:14Z</time>
      </trkpt>
      <trkpt lat="43.72787" lon="6.945">
        <ele>1112.9</ele>
        <time>2016-09-25T10:14:16Z</time>
      </trkpt>
      <trkpt lat="43.72788" lon="6.94495">
        <ele>1112.9</ele>
        <time>2016-09-25T10:14:18Z</time>
      </trkpt>
      <trkpt lat="43.72789" lon="6.9449">
        <ele>1112.9</ele>
        <time>2016-09-25T10:14:20Z</time>
      </trkpt>
      <trkpt lat="43.7279" lon="6.94484">
        <ele>1112.9</ele>
        <time>2016-09-25T10:14:22Z</time>
      </trkpt>
      <trkpt lat="43.7279" lon="6.94479">
        <ele>1112.9</ele>
        <time>2016-09-25T10:14:24Z</time>
      </trkpt>
      <trkpt lat="43.72791" lon="6.94473">
        <ele>1112.9</ele>
        <time>2016-09-25T10:14:26Z</time>
      </trkpt>
      <trkpt lat="43.72792" lon="6.94467">
        <ele>1112.9</ele>
        <time>2016-09-25T10:14:28Z</time>
      </trkpt>
      <trkpt lat="43.72793" lon="6.94461">
        <ele>1112.9</ele>
        <time>2016-09-25T10:14:30Z</time>
      </trkpt>
      <trkpt lat="43.72794" lon="6.94453">
        <ele>1113</ele>
        <time>2016-09-25T10:14:32Z</time>
      </trkpt>
      <trkpt lat="43.72795" lon="6.94446">
        <ele>1113.2</ele>
        <time>2016-09-25T10:14:34Z</time>
      </trkpt>
      <trkpt lat="43.72795" lon="6.94442">
        <ele>1113.3</ele>
        <time>2016-09-25T10:14:35Z</time>
      </trkpt>
      <trkpt lat="43.72797" lon="6.94435">
        <ele>1113.5</ele>
        <time>2016-09-25T10:14:37Z</time>
      </trkpt>
      <trkpt lat="43.72799" lon="6.94429">
        <ele>1113.6</ele>
        <time>2016-09-25T10:14:39Z</time>
      </trkpt>
      <trkpt lat="43.728" lon="6.94422">
        <ele>1113.7</ele>
        <time>2016-09-25T10:14:41Z</time>
      </trkpt>
      <trkpt lat="43.72801" lon="6.94416">
        <ele>1113.9</ele>
        <time>2016-09-25T10:14:43Z</time>
      </trkpt>
      <trkpt lat="43.728" lon="6.94409">
        <ele>1114.2</ele>
        <time>2016-09-25T10:14:45Z</time>
      </trkpt>
      <trkpt lat="43.72799" lon="6.94403">
        <ele>1114.6</ele>
        <time>2016-09-25T10:14:47Z</time>
      </trkpt>
      <trkpt lat="43.72797" lon="6.94398">
        <ele>1114.8</ele>
        <time>2016-09-25T10:14:49Z</time>
      </trkpt>
      <trkpt lat="43.72795" lon="6.94394">
        <ele>1115.1</ele>
        <time>2016-09-25T10:14:51Z</time>
      </trkpt>
      <trkpt lat="43.72793" lon="6.94391">
        <ele>1115.4</ele>
        <time>2016-09-25T10:14:53Z</time>
      </trkpt>
      <trkpt lat="43.72791" lon="6.94387">
        <ele>1115.7</ele>
        <time>2016-09-25T10:14:55Z</time>
      </trkpt>
      <trkpt lat="43.72791" lon="6.94383">
        <ele>1115.9</ele>
        <time>2016-09-25T10:14:57Z</time>
      </trkpt>
      <trkpt lat="43.72792" lon="6.94379">
        <ele>1115.9</ele>
        <time>2016-09-25T10:14:59Z</time>
      </trkpt>
      <trkpt lat="43.72793" lon="6.94374">
        <ele>1116</ele>
        <time>2016-09-25T10:15:01Z</time>
      </trkpt>
      <trkpt lat="43.72795" lon="6.9437">
        <ele>1116.3</ele>
        <time>2016-09-25T10:15:03Z</time>
      </trkpt>
      <trkpt lat="43.72796" lon="6.94364">
        <ele>1116.7</ele>
        <time>2016-09-25T10:15:05Z</time>
      </trkpt>
      <trkpt lat="43.72798" lon="6.94359">
        <ele>1117.1</ele>
        <time>2016-09-25T10:15:07Z</time>
      </trkpt>
      <trkpt lat="43.72799" lon="6.94354">
        <ele>1117.5</ele>
        <time>2016-09-25T10:15:09Z</time>
      </trkpt>
      <trkpt lat="43.728" lon="6.94348">
        <ele>1117.9</ele>
        <time>2016-09-25T10:15:11Z</time>
      </trkpt>
      <trkpt lat="43.72801" lon="6.94343">
        <ele>1118.3</ele>
        <time>2016-09-25T10:15:13Z</time>
      </trkpt>
      <trkpt lat="43.728" lon="6.94338">
        <ele>1118.8</ele>
        <time>2016-09-25T10:15:15Z</time>
      </trkpt>
      <trkpt lat="43.728" lon="6.94332">
        <ele>1119.4</ele>
        <time>2016-09-25T10:15:17Z</time>
      </trkpt>
      <trkpt lat="43.72799" lon="6.94327">
        <ele>1119.9</ele>
        <time>2016-09-25T10:15:19Z</time>
      </trkpt>
      <trkpt lat="43.72798" lon="6.94321">
        <ele>1120.6</ele>
        <time>2016-09-25T10:15:21Z</time>
      </trkpt>
      <trkpt lat="43.72796" lon="6.94315">
        <ele>1121.3</ele>
        <time>2016-09-25T10:15:23Z</time>
      </trkpt>
      <trkpt lat="43.72795" lon="6.94309">
        <ele>1121.9</ele>
        <time>2016-09-25T10:15:25Z</time>
      </trkpt>
      <trkpt lat="43.72795" lon="6.94302">
        <ele>1122.6</ele>
        <time>2016-09-25T10:15:27Z</time>
      </trkpt>
      <trkpt lat="43.72796" lon="6.94296">
        <ele>1123.1</ele>
        <time>2016-09-25T10:15:29Z</time>
      </trkpt>
      <trkpt lat="43.72796" lon="6.94289">
        <ele>1123.7</ele>
        <time>2016-09-25T10:15:31Z</time>
      </trkpt>
      <trkpt lat="43.72796" lon="6.94283">
        <ele>1124.6</ele>
        <time>2016-09-25T10:15:33Z</time>
      </trkpt>
      <trkpt lat="43.72796" lon="6.94276">
        <ele>1125.4</ele>
        <time>2016-09-25T10:15:35Z</time>
      </trkpt>
      <trkpt lat="43.72796" lon="6.9427">
        <ele>1126.3</ele>
        <time>2016-09-25T10:15:37Z</time>
      </trkpt>
      <trkpt lat="43.72794" lon="6.94265">
        <ele>1127.2</ele>
        <time>2016-09-25T10:15:39Z</time>
      </trkpt>
      <trkpt lat="43.72793" lon="6.94259">
        <ele>1128.1</ele>
        <time>2016-09-25T10:15:41Z</time>
      </trkpt>
      <trkpt lat="43.72791" lon="6.94254">
        <ele>1129</ele>
        <time>2016-09-25T10:15:43Z</time>
      </trkpt>
      <trkpt lat="43.72791" lon="6.94249">
        <ele>1129.8</ele>
        <time>2016-09-25T10:15:45Z</time>
      </trkpt>
      <trkpt lat="43.72789" lon="6.94244">
        <ele>1130.6</ele>
        <time>2016-09-25T10:15:47Z</time>
      </trkpt>
      <trkpt lat="43.72788" lon="6.94239">
        <ele>1131.5</ele>
        <time>2016-09-25T10:15:49Z</time>
      </trkpt>
      <trkpt lat="43.72787" lon="6.94235">
        <ele>1132.2</ele>
        <time>2016-09-25T10:15:51Z</time>
      </trkpt>
      <trkpt lat="43.72786" lon="6.94231">
        <ele>1132.8</ele>
        <time>2016-09-25T10:15:53Z</time>
      </trkpt>
      <trkpt lat="43.72784" lon="6.94227">
        <ele>1133.5</ele>
        <time>2016-09-25T10:15:55Z</time>
      </trkpt>
      <trkpt lat="43.72783" lon="6.94223">
        <ele>1134.2</ele>
        <time>2016-09-25T10:15:57Z</time>
      </trkpt>
      <trkpt lat="43.72783" lon="6.94219">
        <ele>1134.8</ele>
        <time>2016-09-25T10:15:59Z</time>
      </trkpt>
      <trkpt lat="43.72782" lon="6.94215">
        <ele>1135.3</ele>
        <time>2016-09-25T10:16:01Z</time>
      </trkpt>
      <trkpt lat="43.72782" lon="6.94211">
        <ele>1135.9</ele>
        <time>2016-09-25T10:16:03Z</time>
      </trkpt>
      <trkpt lat="43.72782" lon="6.94207">
        <ele>1136.3</ele>
        <time>2016-09-25T10:16:05Z</time>
      </trkpt>
      <trkpt lat="43.72782" lon="6.94202">
        <ele>1136.4</ele>
        <time>2016-09-25T10:16:07Z</time>
      </trkpt>
      <trkpt lat="43.72783" lon="6.94198">
        <ele>1136.6</ele>
        <time>2016-09-25T10:16:09Z</time>
      </trkpt>
      <trkpt lat="43.72783" lon="6.94194">
        <ele>1136.7</ele>
        <time>2016-09-25T10:16:11Z</time>
      </trkpt>
      <trkpt lat="43.72784" lon="6.94189">
        <ele>1136.9</ele>
        <time>2016-09-25T10:16:14Z</time>
      </trkpt>
      <trkpt lat="43.72784" lon="6.94185">
        <ele>1137.1</ele>
        <time>2016-09-25T10:16:16Z</time>
      </trkpt>
      <trkpt lat="43.72784" lon="6.94181">
        <ele>1137.2</ele>
        <time>2016-09-25T10:16:18Z</time>
      </trkpt>
      <trkpt lat="43.72784" lon="6.94177">
        <ele>1137.4</ele>
        <time>2016-09-25T10:16:20Z</time>
      </trkpt>
      <trkpt lat="43.72784" lon="6.94173">
        <ele>1137.6</ele>
        <time>2016-09-25T10:16:22Z</time>
      </trkpt>
      <trkpt lat="43.72784" lon="6.94168">
        <ele>1137.9</ele>
        <time>2016-09-25T10:16:25Z</time>
      </trkpt>
      <trkpt lat="43.72785" lon="6.94164">
        <ele>1138</ele>
        <time>2016-09-25T10:16:28Z</time>
      </trkpt>
      <trkpt lat="43.72786" lon="6.94159">
        <ele>1138.1</ele>
        <time>2016-09-25T10:16:31Z</time>
      </trkpt>
      <trkpt lat="43.72785" lon="6.94155">
        <ele>1138.4</ele>
        <time>2016-09-25T10:16:39Z</time>
      </trkpt>
      <trkpt lat="43.72784" lon="6.9415">
        <ele>1138.7</ele>
        <time>2016-09-25T10:16:43Z</time>
      </trkpt>
      <trkpt lat="43.72783" lon="6.94147">
        <ele>1139</ele>
        <time>2016-09-25T10:16:46Z</time>
      </trkpt>
      <trkpt lat="43.7278" lon="6.94145">
        <ele>1139.5</ele>
        <time>2016-09-25T10:16:49Z</time>
      </trkpt>
      <trkpt lat="43.72778" lon="6.94142">
        <ele>1139.8</ele>
        <time>2016-09-25T10:16:52Z</time>
      </trkpt>
      <trkpt lat="43.72777" lon="6.94138">
        <ele>1140.2</ele>
        <time>2016-09-25T10:16:55Z</time>
      </trkpt>
      <trkpt lat="43.72777" lon="6.94133">
        <ele>1140.4</ele>
        <time>2016-09-25T10:16:58Z</time>
      </trkpt>
      <trkpt lat="43.72777" lon="6.9413">
        <ele>1140.6</ele>
        <time>2016-09-25T10:17:00Z</time>
      </trkpt>
      <trkpt lat="43.72776" lon="6.94125">
        <ele>1140.8</ele>
        <time>2016-09-25T10:17:03Z</time>
      </trkpt>
      <trkpt lat="43.72776" lon="6.94121">
        <ele>1140.9</ele>
        <time>2016-09-25T10:17:07Z</time>
      </trkpt>
      <trkpt lat="43.72776" lon="6.94117">
        <ele>1141</ele>
        <time>2016-09-25T10:17:10Z</time>
      </trkpt>
      <trkpt lat="43.72778" lon="6.94113">
        <ele>1140.9</ele>
        <time>2016-09-25T10:17:14Z</time>
      </trkpt>
      <trkpt lat="43.72779" lon="6.94109">
        <ele>1140.8</ele>
        <time>2016-09-25T10:17:18Z</time>
      </trkpt>
      <trkpt lat="43.72781" lon="6.94105">
        <ele>1140.6</ele>
        <time>2016-09-25T10:17:22Z</time>
      </trkpt>
      <trkpt lat="43.72781" lon="6.94101">
        <ele>1140.7</ele>
        <time>2016-09-25T10:17:35Z</time>
      </trkpt>
      <trkpt lat="43.72783" lon="6.94096">
        <ele>1140.4</ele>
        <time>2016-09-25T10:17:38Z</time>
      </trkpt>
      <trkpt lat="43.72785" lon="6.94093">
        <ele>1140.2</ele>
        <time>2016-09-25T10:17:40Z</time>
      </trkpt>
      <trkpt lat="43.72787" lon="6.94089">
        <ele>1140.1</ele>
        <time>2016-09-25T10:17:42Z</time>
      </trkpt>
      <trkpt lat="43.72788" lon="6.94084">
        <ele>1139.9</ele>
        <time>2016-09-25T10:17:44Z</time>
      </trkpt>
      <trkpt lat="43.7279" lon="6.9408">
        <ele>1139.8</ele>
        <time>2016-09-25T10:17:46Z</time>
      </trkpt>
      <trkpt lat="43.72791" lon="6.94075">
        <ele>1139.7</ele>
        <time>2016-09-25T10:17:48Z</time>
      </trkpt>
      <trkpt lat="43.72791" lon="6.9407">
        <ele>1139.7</ele>
        <time>2016-09-25T10:17:50Z</time>
      </trkpt>
      <trkpt lat="43.72792" lon="6.94065">
        <ele>1139.6</ele>
        <time>2016-09-25T10:17:52Z</time>
      </trkpt>
      <trkpt lat="43.72794" lon="6.94061">
        <ele>1139.5</ele>
        <time>2016-09-25T10:17:54Z</time>
      </trkpt>
      <trkpt lat="43.72795" lon="6.94056">
        <ele>1139.5</ele>
        <time>2016-09-25T10:17:56Z</time>
      </trkpt>
      <trkpt lat="43.72795" lon="6.94051">
        <ele>1139.5</ele>
        <time>2016-09-25T10:17:58Z</time>
      </trkpt>
      <trkpt lat="43.72797" lon="6.94048">
        <ele>1139.5</ele>
        <time>2016-09-25T10:18:00Z</time>
      </trkpt>
      <trkpt lat="43.72799" lon="6.94045">
        <ele>1139.3</ele>
        <time>2016-09-25T10:18:02Z</time>
      </trkpt>
      <trkpt lat="43.72801" lon="6.94042">
        <ele>1139.2</ele>
        <time>2016-09-25T10:18:04Z</time>
      </trkpt>
      <trkpt lat="43.72803" lon="6.94038">
        <ele>1139.2</ele>
        <time>2016-09-25T10:18:06Z</time>
      </trkpt>
      <trkpt lat="43.72804" lon="6.94034">
        <ele>1139.2</ele>
        <time>2016-09-25T10:18:08Z</time>
      </trkpt>
      <trkpt lat="43.72805" lon="6.94031">
        <ele>1139.2</ele>
        <time>2016-09-25T10:18:10Z</time>
      </trkpt>
      <trkpt lat="43.72806" lon="6.94027">
        <ele>1139.1</ele>
        <time>2016-09-25T10:18:12Z</time>
      </trkpt>
      <trkpt lat="43.72809" lon="6.94023">
        <ele>1139.1</ele>
        <time>2016-09-25T10:18:15Z</time>
      </trkpt>
      <trkpt lat="43.72812" lon="6.94019">
        <ele>1138.9</ele>
        <time>2016-09-25T10:18:18Z</time>
      </trkpt>
      <trkpt lat="43.72814" lon="6.94016">
        <ele>1138.8</ele>
        <time>2016-09-25T10:18:20Z</time>
      </trkpt>
      <trkpt lat="43.72816" lon="6.94013">
        <ele>1138.8</ele>
        <time>2016-09-25T10:18:22Z</time>
      </trkpt>
      <trkpt lat="43.72818" lon="6.94011">
        <ele>1138.6</ele>
        <time>2016-09-25T10:18:24Z</time>
      </trkpt>
      <trkpt lat="43.7282" lon="6.94008">
        <ele>1138.6</ele>
        <time>2016-09-25T10:18:26Z</time>
      </trkpt>
      <trkpt lat="43.72823" lon="6.94005">
        <ele>1138.4</ele>
        <time>2016-09-25T10:18:29Z</time>
      </trkpt>
      <trkpt lat="43.72826" lon="6.94003">
        <ele>1138.2</ele>
        <time>2016-09-25T10:18:31Z</time>
      </trkpt>
      <trkpt lat="43.72828" lon="6.94001">
        <ele>1138.1</ele>
        <time>2016-09-25T10:18:33Z</time>
      </trkpt>
      <trkpt lat="43.7283" lon="6.93998">
        <ele>1138.1</ele>
        <time>2016-09-25T10:18:35Z</time>
      </trkpt>
      <trkpt lat="43.72832" lon="6.93995">
        <ele>1138</ele>
        <time>2016-09-25T10:18:37Z</time>
      </trkpt>
      <trkpt lat="43.72834" lon="6.93991">
        <ele>1138</ele>
        <time>2016-09-25T10:18:40Z</time>
      </trkpt>
      <trkpt lat="43.72835" lon="6.93987">
        <ele>1138</ele>
        <time>2016-09-25T10:18:43Z</time>
      </trkpt>
      <trkpt lat="43.72836" lon="6.93984">
        <ele>1138</ele>
        <time>2016-09-25T10:18:46Z</time>
      </trkpt>
      <trkpt lat="43.72834" lon="6.93981">
        <ele>1138.3</ele>
        <time>2016-09-25T10:18:49Z</time>
      </trkpt>
      <trkpt lat="43.7283" lon="6.93982">
        <ele>1138.6</ele>
        <time>2016-09-25T10:18:52Z</time>
      </trkpt>
      <trkpt lat="43.72827" lon="6.93982">
        <ele>1138.8</ele>
        <time>2016-09-25T10:18:55Z</time>
      </trkpt>
      <trkpt lat="43.72823" lon="6.93983">
        <ele>1139</ele>
        <time>2016-09-25T10:18:58Z</time>
      </trkpt>
      <trkpt lat="43.7282" lon="6.93983">
        <ele>1139.3</ele>
        <time>2016-09-25T10:19:01Z</time>
      </trkpt>
      <trkpt lat="43.72817" lon="6.93983">
        <ele>1139.5</ele>
        <time>2016-09-25T10:19:04Z</time>
      </trkpt>
      <trkpt lat="43.72813" lon="6.93982">
        <ele>1139.8</ele>
        <time>2016-09-25T10:19:07Z</time>
      </trkpt>
      <trkpt lat="43.72809" lon="6.93982">
        <ele>1140.1</ele>
        <time>2016-09-25T10:19:10Z</time>
      </trkpt>
      <trkpt lat="43.72805" lon="6.93982">
        <ele>1140.4</ele>
        <time>2016-09-25T10:19:13Z</time>
      </trkpt>
      <trkpt lat="43.72802" lon="6.93982">
        <ele>1140.6</ele>
        <time>2016-09-25T10:19:15Z</time>
      </trkpt>
      <trkpt lat="43.728" lon="6.93982">
        <ele>1140.8</ele>
        <time>2016-09-25T10:19:17Z</time>
      </trkpt>
      <trkpt lat="43.72796" lon="6.93982">
        <ele>1141.1</ele>
        <time>2016-09-25T10:19:19Z</time>
      </trkpt>
      <trkpt lat="43.72794" lon="6.93982">
        <ele>1141.3</ele>
        <time>2016-09-25T10:19:21Z</time>
      </trkpt>
      <trkpt lat="43.72791" lon="6.93982">
        <ele>1141.5</ele>
        <time>2016-09-25T10:19:23Z</time>
      </trkpt>
      <trkpt lat="43.72788" lon="6.93982">
        <ele>1141.8</ele>
        <time>2016-09-25T10:19:25Z</time>
      </trkpt>
      <trkpt lat="43.72785" lon="6.93982">
        <ele>1142.1</ele>
        <time>2016-09-25T10:19:27Z</time>
      </trkpt>
      <trkpt lat="43.72782" lon="6.93981">
        <ele>1142.4</ele>
        <time>2016-09-25T10:19:29Z</time>
      </trkpt>
      <trkpt lat="43.72779" lon="6.93981">
        <ele>1142.8</ele>
        <time>2016-09-25T10:19:31Z</time>
      </trkpt>
      <trkpt lat="43.72776" lon="6.9398">
        <ele>1143.1</ele>
        <time>2016-09-25T10:19:33Z</time>
      </trkpt>
      <trkpt lat="43.72773" lon="6.9398">
        <ele>1143.4</ele>
        <time>2016-09-25T10:19:35Z</time>
      </trkpt>
      <trkpt lat="43.7277" lon="6.9398">
        <ele>1143.7</ele>
        <time>2016-09-25T10:19:37Z</time>
      </trkpt>
      <trkpt lat="43.72767" lon="6.9398">
        <ele>1144</ele>
        <time>2016-09-25T10:19:39Z</time>
      </trkpt>
      <trkpt lat="43.72764" lon="6.93979">
        <ele>1144.3</ele>
        <time>2016-09-25T10:19:41Z</time>
      </trkpt>
      <trkpt lat="43.72761" lon="6.93979">
        <ele>1144.6</ele>
        <time>2016-09-25T10:19:43Z</time>
      </trkpt>
      <trkpt lat="43.72758" lon="6.93978">
        <ele>1144.9</ele>
        <time>2016-09-25T10:19:45Z</time>
      </trkpt>
      <trkpt lat="43.72755" lon="6.93977">
        <ele>1145.2</ele>
        <time>2016-09-25T10:19:47Z</time>
      </trkpt>
      <trkpt lat="43.72752" lon="6.93977">
        <ele>1145.5</ele>
        <time>2016-09-25T10:19:49Z</time>
      </trkpt>
      <trkpt lat="43.72749" lon="6.93976">
        <ele>1145.8</ele>
        <time>2016-09-25T10:19:51Z</time>
      </trkpt>
      <trkpt lat="43.72746" lon="6.93975">
        <ele>1146.1</ele>
        <time>2016-09-25T10:19:53Z</time>
      </trkpt>
      <trkpt lat="43.72743" lon="6.93974">
        <ele>1146.4</ele>
        <time>2016-09-25T10:19:55Z</time>
      </trkpt>
      <trkpt lat="43.72739" lon="6.93973">
        <ele>1146.7</ele>
        <time>2016-09-25T10:19:57Z</time>
      </trkpt>
      <trkpt lat="43.72736" lon="6.93971">
        <ele>1147</ele>
        <time>2016-09-25T10:19:59Z</time>
      </trkpt>
      <trkpt lat="43.72732" lon="6.93971">
        <ele>1147.3</ele>
        <time>2016-09-25T10:20:01Z</time>
      </trkpt>
      <trkpt lat="43.72729" lon="6.9397">
        <ele>1147.6</ele>
        <time>2016-09-25T10:20:03Z</time>
      </trkpt>
      <trkpt lat="43.72725" lon="6.93969">
        <ele>1147.9</ele>
        <time>2016-09-25T10:20:05Z</time>
      </trkpt>
      <trkpt lat="43.72722" lon="6.93968">
        <ele>1148.2</ele>
        <time>2016-09-25T10:20:07Z</time>
      </trkpt>
      <trkpt lat="43.72719" lon="6.93968">
        <ele>1148.5</ele>
        <time>2016-09-25T10:20:09Z</time>
      </trkpt>
      <trkpt lat="43.72716" lon="6.93968">
        <ele>1148.8</ele>
        <time>2016-09-25T10:20:11Z</time>
      </trkpt>
      <trkpt lat="43.72713" lon="6.93968">
        <ele>1149</ele>
        <time>2016-09-25T10:20:13Z</time>
      </trkpt>
      <trkpt lat="43.72711" lon="6.93967">
        <ele>1149.2</ele>
        <time>2016-09-25T10:20:15Z</time>
      </trkpt>
      <trkpt lat="43.72708" lon="6.93966">
        <ele>1149.4</ele>
        <time>2016-09-25T10:20:17Z</time>
      </trkpt>
      <trkpt lat="43.72705" lon="6.93965">
        <ele>1149.8</ele>
        <time>2016-09-25T10:20:19Z</time>
      </trkpt>
      <trkpt lat="43.72703" lon="6.93965">
        <ele>1150.1</ele>
        <time>2016-09-25T10:20:21Z</time>
      </trkpt>
      <trkpt lat="43.72699" lon="6.93964">
        <ele>1150.7</ele>
        <time>2016-09-25T10:20:24Z</time>
      </trkpt>
      <trkpt lat="43.72696" lon="6.93963">
        <ele>1151</ele>
        <time>2016-09-25T10:20:26Z</time>
      </trkpt>
      <trkpt lat="43.72692" lon="6.93962">
        <ele>1151.6</ele>
        <time>2016-09-25T10:20:29Z</time>
      </trkpt>
      <trkpt lat="43.72689" lon="6.93961">
        <ele>1151.9</ele>
        <time>2016-09-25T10:20:31Z</time>
      </trkpt>
      <trkpt lat="43.72686" lon="6.9396">
        <ele>1152.2</ele>
        <time>2016-09-25T10:20:33Z</time>
      </trkpt>
      <trkpt lat="43.72683" lon="6.93959">
        <ele>1152.6</ele>
        <time>2016-09-25T10:20:35Z</time>
      </trkpt>
      <trkpt lat="43.72681" lon="6.93958">
        <ele>1153</ele>
        <time>2016-09-25T10:20:37Z</time>
      </trkpt>
      <trkpt lat="43.72678" lon="6.93958">
        <ele>1153.4</ele>
        <time>2016-09-25T10:20:39Z</time>
      </trkpt>
      <trkpt lat="43.72675" lon="6.93957">
        <ele>1153.8</ele>
        <time>2016-09-25T10:20:41Z</time>
      </trkpt>
      <trkpt lat="43.72672" lon="6.93956">
        <ele>1154.2</ele>
        <time>2016-09-25T10:20:43Z</time>
      </trkpt>
      <trkpt lat="43.72669" lon="6.93956">
        <ele>1154.6</ele>
        <time>2016-09-25T10:20:45Z</time>
      </trkpt>
      <trkpt lat="43.72666" lon="6.93955">
        <ele>1155</ele>
        <time>2016-09-25T10:20:47Z</time>
      </trkpt>
      <trkpt lat="43.72663" lon="6.93955">
        <ele>1155.5</ele>
        <time>2016-09-25T10:20:49Z</time>
      </trkpt>
      <trkpt lat="43.7266" lon="6.93954">
        <ele>1155.9</ele>
        <time>2016-09-25T10:20:51Z</time>
      </trkpt>
      <trkpt lat="43.72657" lon="6.93953">
        <ele>1156.3</ele>
        <time>2016-09-25T10:20:53Z</time>
      </trkpt>
      <trkpt lat="43.72654" lon="6.93952">
        <ele>1156.6</ele>
        <time>2016-09-25T10:20:55Z</time>
      </trkpt>
      <trkpt lat="43.72651" lon="6.93952">
        <ele>1157</ele>
        <time>2016-09-25T10:20:57Z</time>
      </trkpt>
      <trkpt lat="43.72648" lon="6.93951">
        <ele>1157.5</ele>
        <time>2016-09-25T10:21:00Z</time>
      </trkpt>
      <trkpt lat="43.72645" lon="6.93951">
        <ele>1157.9</ele>
        <time>2016-09-25T10:21:02Z</time>
      </trkpt>
      <trkpt lat="43.72642" lon="6.9395">
        <ele>1158.3</ele>
        <time>2016-09-25T10:21:04Z</time>
      </trkpt>
      <trkpt lat="43.72639" lon="6.93949">
        <ele>1158.7</ele>
        <time>2016-09-25T10:21:06Z</time>
      </trkpt>
      <trkpt lat="43.72636" lon="6.93949">
        <ele>1159.1</ele>
        <time>2016-09-25T10:21:08Z</time>
      </trkpt>
      <trkpt lat="43.72633" lon="6.93948">
        <ele>1159.5</ele>
        <time>2016-09-25T10:21:10Z</time>
      </trkpt>
      <trkpt lat="43.7263" lon="6.93947">
        <ele>1159.8</ele>
        <time>2016-09-25T10:21:12Z</time>
      </trkpt>
      <trkpt lat="43.72627" lon="6.93946">
        <ele>1160.1</ele>
        <time>2016-09-25T10:21:53Z</time>
      </trkpt>
      <trkpt lat="43.72624" lon="6.93946">
        <ele>1160.5</ele>
        <time>2016-09-25T10:21:55Z</time>
      </trkpt>
      <trkpt lat="43.72621" lon="6.93947">
        <ele>1161</ele>
        <time>2016-09-25T10:21:57Z</time>
      </trkpt>
      <trkpt lat="43.72618" lon="6.93948">
        <ele>1161.4</ele>
        <time>2016-09-25T10:21:59Z</time>
      </trkpt>
      <trkpt lat="43.72615" lon="6.93948">
        <ele>1161.8</ele>
        <time>2016-09-25T10:22:01Z</time>
      </trkpt>
      <trkpt lat="43.72612" lon="6.93947">
        <ele>1162.2</ele>
        <time>2016-09-25T10:22:03Z</time>
      </trkpt>
      <trkpt lat="43.72609" lon="6.93946">
        <ele>1162.6</ele>
        <time>2016-09-25T10:22:05Z</time>
      </trkpt>
      <trkpt lat="43.72606" lon="6.93945">
        <ele>1163</ele>
        <time>2016-09-25T10:22:07Z</time>
      </trkpt>
      <trkpt lat="43.72603" lon="6.93944">
        <ele>1163.4</ele>
        <time>2016-09-25T10:22:09Z</time>
      </trkpt>
      <trkpt lat="43.726" lon="6.93944">
        <ele>1163.8</ele>
        <time>2016-09-25T10:22:11Z</time>
      </trkpt>
      <trkpt lat="43.72597" lon="6.93943">
        <ele>1164.2</ele>
        <time>2016-09-25T10:22:13Z</time>
      </trkpt>
      <trkpt lat="43.72594" lon="6.93942">
        <ele>1164.6</ele>
        <time>2016-09-25T10:22:15Z</time>
      </trkpt>
      <trkpt lat="43.72591" lon="6.93942">
        <ele>1165</ele>
        <time>2016-09-25T10:22:17Z</time>
      </trkpt>
      <trkpt lat="43.72587" lon="6.93941">
        <ele>1165.4</ele>
        <time>2016-09-25T10:22:19Z</time>
      </trkpt>
      <trkpt lat="43.72584" lon="6.93941">
        <ele>1165.8</ele>
        <time>2016-09-25T10:22:21Z</time>
      </trkpt>
      <trkpt lat="43.72581" lon="6.93941">
        <ele>1166.3</ele>
        <time>2016-09-25T10:22:24Z</time>
      </trkpt>
      <trkpt lat="43.72578" lon="6.93939">
        <ele>1166.6</ele>
        <time>2016-09-25T10:22:27Z</time>
      </trkpt>
      <trkpt lat="43.72574" lon="6.93938">
        <ele>1167</ele>
        <time>2016-09-25T10:22:30Z</time>
      </trkpt>
      <trkpt lat="43.72571" lon="6.93939">
        <ele>1167.6</ele>
        <time>2016-09-25T10:22:33Z</time>
      </trkpt>
      <trkpt lat="43.72567" lon="6.93937">
        <ele>1167.9</ele>
        <time>2016-09-25T10:22:36Z</time>
      </trkpt>
      <trkpt lat="43.72564" lon="6.93937">
        <ele>1168.4</ele>
        <time>2016-09-25T10:22:39Z</time>
      </trkpt>
      <trkpt lat="43.7256" lon="6.93936">
        <ele>1168.9</ele>
        <time>2016-09-25T10:22:42Z</time>
      </trkpt>
      <trkpt lat="43.72556" lon="6.93936">
        <ele>1169.5</ele>
        <time>2016-09-25T10:22:45Z</time>
      </trkpt>
      <trkpt lat="43.72553" lon="6.93936">
        <ele>1169.9</ele>
        <time>2016-09-25T10:22:47Z</time>
      </trkpt>
      <trkpt lat="43.7255" lon="6.93936">
        <ele>1170.2</ele>
        <time>2016-09-25T10:22:49Z</time>
      </trkpt>
      <trkpt lat="43.72548" lon="6.93934">
        <ele>1170.5</ele>
        <time>2016-09-25T10:22:51Z</time>
      </trkpt>
      <trkpt lat="43.72544" lon="6.93933">
        <ele>1170.8</ele>
        <time>2016-09-25T10:22:54Z</time>
      </trkpt>
      <trkpt lat="43.72541" lon="6.93931">
        <ele>1171.1</ele>
        <time>2016-09-25T10:22:57Z</time>
      </trkpt>
      <trkpt lat="43.72538" lon="6.93931">
        <ele>1171.6</ele>
        <time>2016-09-25T10:23:00Z</time>
      </trkpt>
      <trkpt lat="43.72535" lon="6.93932">
        <ele>1172.1</ele>
        <time>2016-09-25T10:23:03Z</time>
      </trkpt>
      <trkpt lat="43.72532" lon="6.93931">
        <ele>1172.6</ele>
        <time>2016-09-25T10:23:06Z</time>
      </trkpt>
      <trkpt lat="43.72529" lon="6.9393">
        <ele>1173.1</ele>
        <time>2016-09-25T10:23:09Z</time>
      </trkpt>
      <trkpt lat="43.72526" lon="6.93928">
        <ele>1173.5</ele>
        <time>2016-09-25T10:23:12Z</time>
      </trkpt>
      <trkpt lat="43.72522" lon="6.93928">
        <ele>1174.1</ele>
        <time>2016-09-25T10:23:15Z</time>
      </trkpt>
      <trkpt lat="43.72519" lon="6.93928">
        <ele>1174.6</ele>
        <time>2016-09-25T10:23:22Z</time>
      </trkpt>
      <trkpt lat="43.72516" lon="6.93927">
        <ele>1175.1</ele>
        <time>2016-09-25T10:23:25Z</time>
      </trkpt>
      <trkpt lat="43.72512" lon="6.93926">
        <ele>1175.7</ele>
        <time>2016-09-25T10:23:28Z</time>
      </trkpt>
      <trkpt lat="43.7251" lon="6.93925">
        <ele>1176</ele>
        <time>2016-09-25T10:23:30Z</time>
      </trkpt>
      <trkpt lat="43.72506" lon="6.93923">
        <ele>1176.5</ele>
        <time>2016-09-25T10:23:33Z</time>
      </trkpt>
      <trkpt lat="43.72504" lon="6.93921">
        <ele>1176.9</ele>
        <time>2016-09-25T10:23:36Z</time>
      </trkpt>
      <trkpt lat="43.72501" lon="6.9392">
        <ele>1177.3</ele>
        <time>2016-09-25T10:23:39Z</time>
      </trkpt>
      <trkpt lat="43.72498" lon="6.93917">
        <ele>1177.6</ele>
        <time>2016-09-25T10:23:42Z</time>
      </trkpt>
      <trkpt lat="43.72496" lon="6.93914">
        <ele>1177.9</ele>
        <time>2016-09-25T10:23:45Z</time>
      </trkpt>
      <trkpt lat="43.72493" lon="6.93912">
        <ele>1178.3</ele>
        <time>2016-09-25T10:23:48Z</time>
      </trkpt>
      <trkpt lat="43.7249" lon="6.93909">
        <ele>1178.6</ele>
        <time>2016-09-25T10:23:51Z</time>
      </trkpt>
      <trkpt lat="43.72488" lon="6.93905">
        <ele>1178.8</ele>
        <time>2016-09-25T10:23:54Z</time>
      </trkpt>
      <trkpt lat="43.72485" lon="6.93902">
        <ele>1179.1</ele>
        <time>2016-09-25T10:23:57Z</time>
      </trkpt>
      <trkpt lat="43.72483" lon="6.93899">
        <ele>1179.5</ele>
        <time>2016-09-25T10:23:59Z</time>
      </trkpt>
      <trkpt lat="43.7248" lon="6.93897">
        <ele>1179.9</ele>
        <time>2016-09-25T10:24:01Z</time>
      </trkpt>
      <trkpt lat="43.72478" lon="6.93895">
        <ele>1180.2</ele>
        <time>2016-09-25T10:24:03Z</time>
      </trkpt>
      <trkpt lat="43.72475" lon="6.93893">
        <ele>1180.5</ele>
        <time>2016-09-25T10:24:05Z</time>
      </trkpt>
      <trkpt lat="43.72473" lon="6.9389">
        <ele>1180.9</ele>
        <time>2016-09-25T10:24:07Z</time>
      </trkpt>
      <trkpt lat="43.7247" lon="6.93888">
        <ele>1181.2</ele>
        <time>2016-09-25T10:24:09Z</time>
      </trkpt>
      <trkpt lat="43.72468" lon="6.93885">
        <ele>1181.5</ele>
        <time>2016-09-25T10:24:11Z</time>
      </trkpt>
      <trkpt lat="43.72466" lon="6.93882">
        <ele>1181.8</ele>
        <time>2016-09-25T10:24:13Z</time>
      </trkpt>
      <trkpt lat="43.72463" lon="6.93879">
        <ele>1182.2</ele>
        <time>2016-09-25T10:24:15Z</time>
      </trkpt>
      <trkpt lat="43.7246" lon="6.93877">
        <ele>1182.7</ele>
        <time>2016-09-25T10:24:17Z</time>
      </trkpt>
      <trkpt lat="43.72457" lon="6.93874">
        <ele>1183.2</ele>
        <time>2016-09-25T10:24:20Z</time>
      </trkpt>
      <trkpt lat="43.72455" lon="6.93872">
        <ele>1183.4</ele>
        <time>2016-09-25T10:24:22Z</time>
      </trkpt>
      <trkpt lat="43.72452" lon="6.9387">
        <ele>1183.6</ele>
        <time>2016-09-25T10:24:24Z</time>
      </trkpt>
      <trkpt lat="43.72449" lon="6.93867">
        <ele>1183.9</ele>
        <time>2016-09-25T10:24:27Z</time>
      </trkpt>
      <trkpt lat="43.72446" lon="6.93863">
        <ele>1184.1</ele>
        <time>2016-09-25T10:24:30Z</time>
      </trkpt>
      <trkpt lat="43.72445" lon="6.9386">
        <ele>1184.1</ele>
        <time>2016-09-25T10:24:32Z</time>
      </trkpt>
      <trkpt lat="43.72443" lon="6.93857">
        <ele>1184.2</ele>
        <time>2016-09-25T10:24:34Z</time>
      </trkpt>
      <trkpt lat="43.72441" lon="6.93854">
        <ele>1184.4</ele>
        <time>2016-09-25T10:24:36Z</time>
      </trkpt>
      <trkpt lat="43.72438" lon="6.93851">
        <ele>1184.5</ele>
        <time>2016-09-25T10:24:38Z</time>
      </trkpt>
      <trkpt lat="43.72436" lon="6.93848">
        <ele>1184.7</ele>
        <time>2016-09-25T10:24:40Z</time>
      </trkpt>
      <trkpt lat="43.72434" lon="6.93846">
        <ele>1184.9</ele>
        <time>2016-09-25T10:24:42Z</time>
      </trkpt>
      <trkpt lat="43.72431" lon="6.93843">
        <ele>1185.1</ele>
        <time>2016-09-25T10:24:44Z</time>
      </trkpt>
      <trkpt lat="43.72429" lon="6.93841">
        <ele>1185.4</ele>
        <time>2016-09-25T10:24:46Z</time>
      </trkpt>
      <trkpt lat="43.72426" lon="6.93838">
        <ele>1185.6</ele>
        <time>2016-09-25T10:24:48Z</time>
      </trkpt>
      <trkpt lat="43.72423" lon="6.93836">
        <ele>1185.9</ele>
        <time>2016-09-25T10:24:50Z</time>
      </trkpt>
      <trkpt lat="43.7242" lon="6.93833">
        <ele>1186.2</ele>
        <time>2016-09-25T10:24:52Z</time>
      </trkpt>
      <trkpt lat="43.72418" lon="6.93831">
        <ele>1186.5</ele>
        <time>2016-09-25T10:24:54Z</time>
      </trkpt>
      <trkpt lat="43.72415" lon="6.93828">
        <ele>1186.8</ele>
        <time>2016-09-25T10:24:56Z</time>
      </trkpt>
      <trkpt lat="43.72413" lon="6.93825">
        <ele>1186.9</ele>
        <time>2016-09-25T10:25:00Z</time>
      </trkpt>
      <trkpt lat="43.7241" lon="6.93823">
        <ele>1187.2</ele>
        <time>2016-09-25T10:25:41Z</time>
      </trkpt>
      <trkpt lat="43.72407" lon="6.9382">
        <ele>1187.5</ele>
        <time>2016-09-25T10:25:44Z</time>
      </trkpt>
      <trkpt lat="43.72404" lon="6.93818">
        <ele>1187.8</ele>
        <time>2016-09-25T10:25:46Z</time>
      </trkpt>
      <trkpt lat="43.72402" lon="6.93816">
        <ele>1188.1</ele>
        <time>2016-09-25T10:25:48Z</time>
      </trkpt>
      <trkpt lat="43.72399" lon="6.93814">
        <ele>1188.4</ele>
        <time>2016-09-25T10:25:50Z</time>
      </trkpt>
      <trkpt lat="43.72396" lon="6.93812">
        <ele>1188.7</ele>
        <time>2016-09-25T10:25:52Z</time>
      </trkpt>
      <trkpt lat="43.72393" lon="6.93809">
        <ele>1189.1</ele>
        <time>2016-09-25T10:25:54Z</time>
      </trkpt>
      <trkpt lat="43.7239" lon="6.93807">
        <ele>1189.5</ele>
        <time>2016-09-25T10:25:56Z</time>
      </trkpt>
      <trkpt lat="43.72387" lon="6.93805">
        <ele>1189.9</ele>
        <time>2016-09-25T10:25:58Z</time>
      </trkpt>
      <trkpt lat="43.72384" lon="6.93803">
        <ele>1190.2</ele>
        <time>2016-09-25T10:26:00Z</time>
      </trkpt>
      <trkpt lat="43.7238" lon="6.93801">
        <ele>1190.6</ele>
        <time>2016-09-25T10:26:02Z</time>
      </trkpt>
      <trkpt lat="43.72377" lon="6.93799">
        <ele>1191</ele>
        <time>2016-09-25T10:26:04Z</time>
      </trkpt>
      <trkpt lat="43.72374" lon="6.93797">
        <ele>1191.3</ele>
        <time>2016-09-25T10:26:06Z</time>
      </trkpt>
      <trkpt lat="43.72372" lon="6.93795">
        <ele>1191.5</ele>
        <time>2016-09-25T10:26:08Z</time>
      </trkpt>
      <trkpt lat="43.72369" lon="6.93793">
        <ele>1191.7</ele>
        <time>2016-09-25T10:26:10Z</time>
      </trkpt>
      <trkpt lat="43.72366" lon="6.93792">
        <ele>1191.9</ele>
        <time>2016-09-25T10:26:12Z</time>
      </trkpt>
      <trkpt lat="43.72364" lon="6.93791">
        <ele>1192.1</ele>
        <time>2016-09-25T10:26:14Z</time>
      </trkpt>
      <trkpt lat="43.72361" lon="6.93789">
        <ele>1192.3</ele>
        <time>2016-09-25T10:26:16Z</time>
      </trkpt>
      <trkpt lat="43.72357" lon="6.93788">
        <ele>1192.6</ele>
        <time>2016-09-25T10:26:19Z</time>
      </trkpt>
      <trkpt lat="43.72354" lon="6.93785">
        <ele>1192.8</ele>
        <time>2016-09-25T10:26:22Z</time>
      </trkpt>
      <trkpt lat="43.7235" lon="6.93785">
        <ele>1193.2</ele>
        <time>2016-09-25T10:26:25Z</time>
      </trkpt>
      <trkpt lat="43.72347" lon="6.93785">
        <ele>1193.4</ele>
        <time>2016-09-25T10:26:28Z</time>
      </trkpt>
      <trkpt lat="43.72344" lon="6.93782">
        <ele>1193.5</ele>
        <time>2016-09-25T10:26:31Z</time>
      </trkpt>
      <trkpt lat="43.72341" lon="6.9378">
        <ele>1193.7</ele>
        <time>2016-09-25T10:26:34Z</time>
      </trkpt>
      <trkpt lat="43.72337" lon="6.9378">
        <ele>1194.1</ele>
        <time>2016-09-25T10:26:37Z</time>
      </trkpt>
      <trkpt lat="43.72334" lon="6.93781">
        <ele>1194.5</ele>
        <time>2016-09-25T10:26:40Z</time>
      </trkpt>
      <trkpt lat="43.72331" lon="6.9378">
        <ele>1194.8</ele>
        <time>2016-09-25T10:26:43Z</time>
      </trkpt>
      <trkpt lat="43.72328" lon="6.93779">
        <ele>1195.1</ele>
        <time>2016-09-25T10:26:47Z</time>
      </trkpt>
      <trkpt lat="43.72325" lon="6.93781">
        <ele>1195.5</ele>
        <time>2016-09-25T10:26:50Z</time>
      </trkpt>
      <trkpt lat="43.72322" lon="6.93781">
        <ele>1195.9</ele>
        <time>2016-09-25T10:26:54Z</time>
      </trkpt>
      <trkpt lat="43.72319" lon="6.93782">
        <ele>1196.3</ele>
        <time>2016-09-25T10:26:57Z</time>
      </trkpt>
      <trkpt lat="43.72315" lon="6.93783">
        <ele>1196.7</ele>
        <time>2016-09-25T10:27:00Z</time>
      </trkpt>
      <trkpt lat="43.72312" lon="6.93782">
        <ele>1197</ele>
        <time>2016-09-25T10:27:03Z</time>
      </trkpt>
      <trkpt lat="43.72309" lon="6.93784">
        <ele>1197.5</ele>
        <time>2016-09-25T10:27:06Z</time>
      </trkpt>
      <trkpt lat="43.72306" lon="6.93786">
        <ele>1198</ele>
        <time>2016-09-25T10:27:09Z</time>
      </trkpt>
      <trkpt lat="43.72303" lon="6.93787">
        <ele>1198.5</ele>
        <time>2016-09-25T10:27:12Z</time>
      </trkpt>
      <trkpt lat="43.723" lon="6.93789">
        <ele>1198.9</ele>
        <time>2016-09-25T10:27:15Z</time>
      </trkpt>
      <trkpt lat="43.72297" lon="6.93789">
        <ele>1199.2</ele>
        <time>2016-09-25T10:27:18Z</time>
      </trkpt>
      <trkpt lat="43.72295" lon="6.93792">
        <ele>1199.7</ele>
        <time>2016-09-25T10:27:21Z</time>
      </trkpt>
      <trkpt lat="43.72292" lon="6.93793">
        <ele>1200.1</ele>
        <time>2016-09-25T10:27:24Z</time>
      </trkpt>
      <trkpt lat="43.72289" lon="6.93795">
        <ele>1200.8</ele>
        <time>2016-09-25T10:27:27Z</time>
      </trkpt>
      <trkpt lat="43.72285" lon="6.93797">
        <ele>1201.5</ele>
        <time>2016-09-25T10:27:30Z</time>
      </trkpt>
      <trkpt lat="43.72284" lon="6.938">
        <ele>1202</ele>
        <time>2016-09-25T10:27:32Z</time>
      </trkpt>
      <trkpt lat="43.72281" lon="6.93804">
        <ele>1202.6</ele>
        <time>2016-09-25T10:27:35Z</time>
      </trkpt>
      <trkpt lat="43.72278" lon="6.93808">
        <ele>1203.3</ele>
        <time>2016-09-25T10:27:38Z</time>
      </trkpt>
      <trkpt lat="43.72276" lon="6.93811">
        <ele>1203.8</ele>
        <time>2016-09-25T10:27:40Z</time>
      </trkpt>
      <trkpt lat="43.72274" lon="6.93813">
        <ele>1204.3</ele>
        <time>2016-09-25T10:27:42Z</time>
      </trkpt>
      <trkpt lat="43.72271" lon="6.93816">
        <ele>1204.8</ele>
        <time>2016-09-25T10:27:45Z</time>
      </trkpt>
      <trkpt lat="43.72269" lon="6.9382">
        <ele>1205.3</ele>
        <time>2016-09-25T10:27:48Z</time>
      </trkpt>
      <trkpt lat="43.72266" lon="6.93823">
        <ele>1205.9</ele>
        <time>2016-09-25T10:27:51Z</time>
      </trkpt>
      <trkpt lat="43.72264" lon="6.93825">
        <ele>1206.3</ele>
        <time>2016-09-25T10:27:53Z</time>
      </trkpt>
      <trkpt lat="43.72261" lon="6.93827">
        <ele>1206.8</ele>
        <time>2016-09-25T10:27:55Z</time>
      </trkpt>
      <trkpt lat="43.72259" lon="6.93828">
        <ele>1207.2</ele>
        <time>2016-09-25T10:27:57Z</time>
      </trkpt>
      <trkpt lat="43.72255" lon="6.93831">
        <ele>1207.7</ele>
        <time>2016-09-25T10:28:00Z</time>
      </trkpt>
      <trkpt lat="43.72252" lon="6.93831">
        <ele>1208.1</ele>
        <time>2016-09-25T10:28:02Z</time>
      </trkpt>
      <trkpt lat="43.72249" lon="6.93833">
        <ele>1208.6</ele>
        <time>2016-09-25T10:28:04Z</time>
      </trkpt>
      <trkpt lat="43.72246" lon="6.93834">
        <ele>1209</ele>
        <time>2016-09-25T10:28:06Z</time>
      </trkpt>
      <trkpt lat="43.72243" lon="6.93835">
        <ele>1209.4</ele>
        <time>2016-09-25T10:28:08Z</time>
      </trkpt>
      <trkpt lat="43.7224" lon="6.93836">
        <ele>1209.8</ele>
        <time>2016-09-25T10:28:10Z</time>
      </trkpt>
      <trkpt lat="43.72237" lon="6.93838">
        <ele>1210.2</ele>
        <time>2016-09-25T10:28:12Z</time>
      </trkpt>
      <trkpt lat="43.72234" lon="6.93839">
        <ele>1210.6</ele>
        <time>2016-09-25T10:28:14Z</time>
      </trkpt>
      <trkpt lat="43.72232" lon="6.93841">
        <ele>1210.9</ele>
        <time>2016-09-25T10:28:16Z</time>
      </trkpt>
      <trkpt lat="43.72229" lon="6.93841">
        <ele>1211.3</ele>
        <time>2016-09-25T10:28:18Z</time>
      </trkpt>
      <trkpt lat="43.72226" lon="6.93842">
        <ele>1211.6</ele>
        <time>2016-09-25T10:28:20Z</time>
      </trkpt>
      <trkpt lat="43.72222" lon="6.93843">
        <ele>1212.1</ele>
        <time>2016-09-25T10:28:23Z</time>
      </trkpt>
      <trkpt lat="43.72218" lon="6.93844">
        <ele>1212.6</ele>
        <time>2016-09-25T10:28:26Z</time>
      </trkpt>
      <trkpt lat="43.72216" lon="6.93845">
        <ele>1212.8</ele>
        <time>2016-09-25T10:28:28Z</time>
      </trkpt>
      <trkpt lat="43.72212" lon="6.93848">
        <ele>1213.2</ele>
        <time>2016-09-25T10:28:31Z</time>
      </trkpt>
      <trkpt lat="43.72209" lon="6.93849">
        <ele>1213.6</ele>
        <time>2016-09-25T10:28:34Z</time>
      </trkpt>
      <trkpt lat="43.72205" lon="6.93849">
        <ele>1213.9</ele>
        <time>2016-09-25T10:28:37Z</time>
      </trkpt>
      <trkpt lat="43.72202" lon="6.93848">
        <ele>1214.3</ele>
        <time>2016-09-25T10:28:40Z</time>
      </trkpt>
      <trkpt lat="43.72199" lon="6.93847">
        <ele>1214.5</ele>
        <time>2016-09-25T10:28:42Z</time>
      </trkpt>
      <trkpt lat="43.72196" lon="6.93847">
        <ele>1214.8</ele>
        <time>2016-09-25T10:28:44Z</time>
      </trkpt>
      <trkpt lat="43.72192" lon="6.93846">
        <ele>1215.2</ele>
        <time>2016-09-25T10:28:47Z</time>
      </trkpt>
      <trkpt lat="43.72189" lon="6.93844">
        <ele>1215.6</ele>
        <time>2016-09-25T10:28:50Z</time>
      </trkpt>
      <trkpt lat="43.72185" lon="6.93843">
        <ele>1216</ele>
        <time>2016-09-25T10:28:53Z</time>
      </trkpt>
      <trkpt lat="43.72182" lon="6.93841">
        <ele>1216.4</ele>
        <time>2016-09-25T10:28:56Z</time>
      </trkpt>
      <trkpt lat="43.72179" lon="6.93841">
        <ele>1216.6</ele>
        <time>2016-09-25T10:29:26Z</time>
      </trkpt>
      <trkpt lat="43.72176" lon="6.93839">
        <ele>1217</ele>
        <time>2016-09-25T10:29:29Z</time>
      </trkpt>
      <trkpt lat="43.72173" lon="6.93837">
        <ele>1217.5</ele>
        <time>2016-09-25T10:29:32Z</time>
      </trkpt>
      <trkpt lat="43.72169" lon="6.93835">
        <ele>1217.9</ele>
        <time>2016-09-25T10:29:35Z</time>
      </trkpt>
      <trkpt lat="43.72166" lon="6.93832">
        <ele>1218.4</ele>
        <time>2016-09-25T10:29:38Z</time>
      </trkpt>
      <trkpt lat="43.72164" lon="6.93829">
        <ele>1218.8</ele>
        <time>2016-09-25T10:29:41Z</time>
      </trkpt>
      <trkpt lat="43.72161" lon="6.93827">
        <ele>1219.2</ele>
        <time>2016-09-25T10:29:44Z</time>
      </trkpt>
      <trkpt lat="43.72159" lon="6.93824">
        <ele>1219.6</ele>
        <time>2016-09-25T10:29:48Z</time>
      </trkpt>
      <trkpt lat="43.72156" lon="6.93821">
        <ele>1220.1</ele>
        <time>2016-09-25T10:29:51Z</time>
      </trkpt>
      <trkpt lat="43.72153" lon="6.93818">
        <ele>1220.6</ele>
        <time>2016-09-25T10:29:54Z</time>
      </trkpt>
      <trkpt lat="43.72151" lon="6.93815">
        <ele>1221.1</ele>
        <time>2016-09-25T10:29:57Z</time>
      </trkpt>
      <trkpt lat="43.72148" lon="6.93812">
        <ele>1221.6</ele>
        <time>2016-09-25T10:30:00Z</time>
      </trkpt>
      <trkpt lat="43.72146" lon="6.93809">
        <ele>1222.1</ele>
        <time>2016-09-25T10:30:03Z</time>
      </trkpt>
      <trkpt lat="43.72142" lon="6.93806">
        <ele>1222.7</ele>
        <time>2016-09-25T10:30:06Z</time>
      </trkpt>
      <trkpt lat="43.7214" lon="6.93803">
        <ele>1223.2</ele>
        <time>2016-09-25T10:30:09Z</time>
      </trkpt>
      <trkpt lat="43.72138" lon="6.938">
        <ele>1223.7</ele>
        <time>2016-09-25T10:30:12Z</time>
      </trkpt>
      <trkpt lat="43.72135" lon="6.93797">
        <ele>1224.3</ele>
        <time>2016-09-25T10:30:15Z</time>
      </trkpt>
      <trkpt lat="43.72133" lon="6.93794">
        <ele>1224.7</ele>
        <time>2016-09-25T10:30:18Z</time>
      </trkpt>
      <trkpt lat="43.72131" lon="6.93791">
        <ele>1225.2</ele>
        <time>2016-09-25T10:30:21Z</time>
      </trkpt>
      <trkpt lat="43.72129" lon="6.93789">
        <ele>1225.8</ele>
        <time>2016-09-25T10:30:24Z</time>
      </trkpt>
      <trkpt lat="43.72127" lon="6.93785">
        <ele>1226.5</ele>
        <time>2016-09-25T10:30:27Z</time>
      </trkpt>
      <trkpt lat="43.72125" lon="6.93782">
        <ele>1227.2</ele>
        <time>2016-09-25T10:30:30Z</time>
      </trkpt>
      <trkpt lat="43.72122" lon="6.93779">
        <ele>1227.9</ele>
        <time>2016-09-25T10:30:33Z</time>
      </trkpt>
      <trkpt lat="43.7212" lon="6.93776">
        <ele>1228.6</ele>
        <time>2016-09-25T10:30:36Z</time>
      </trkpt>
      <trkpt lat="43.72118" lon="6.93774">
        <ele>1229.2</ele>
        <time>2016-09-25T10:30:39Z</time>
      </trkpt>
      <trkpt lat="43.72115" lon="6.93772">
        <ele>1229.8</ele>
        <time>2016-09-25T10:30:42Z</time>
      </trkpt>
      <trkpt lat="43.72112" lon="6.93769">
        <ele>1230.5</ele>
        <time>2016-09-25T10:30:46Z</time>
      </trkpt>
      <trkpt lat="43.7211" lon="6.93766">
        <ele>1231.1</ele>
        <time>2016-09-25T10:30:49Z</time>
      </trkpt>
      <trkpt lat="43.72108" lon="6.93763">
        <ele>1231.8</ele>
        <time>2016-09-25T10:30:53Z</time>
      </trkpt>
      <trkpt lat="43.72106" lon="6.93761">
        <ele>1232.3</ele>
        <time>2016-09-25T10:31:05Z</time>
      </trkpt>
      <trkpt lat="43.72103" lon="6.93758">
        <ele>1232.9</ele>
        <time>2016-09-25T10:31:09Z</time>
      </trkpt>
      <trkpt lat="43.72101" lon="6.93756">
        <ele>1233.5</ele>
        <time>2016-09-25T10:31:12Z</time>
      </trkpt>
      <trkpt lat="43.72098" lon="6.93753">
        <ele>1234.2</ele>
        <time>2016-09-25T10:31:16Z</time>
      </trkpt>
      <trkpt lat="43.72096" lon="6.9375">
        <ele>1234.9</ele>
        <time>2016-09-25T10:31:20Z</time>
      </trkpt>
      <trkpt lat="43.72093" lon="6.93748">
        <ele>1235.4</ele>
        <time>2016-09-25T10:31:23Z</time>
      </trkpt>
      <trkpt lat="43.72091" lon="6.93746">
        <ele>1236</ele>
        <time>2016-09-25T10:31:26Z</time>
      </trkpt>
      <trkpt lat="43.72088" lon="6.93744">
        <ele>1236.6</ele>
        <time>2016-09-25T10:31:29Z</time>
      </trkpt>
      <trkpt lat="43.72085" lon="6.93742">
        <ele>1237.2</ele>
        <time>2016-09-25T10:31:32Z</time>
      </trkpt>
      <trkpt lat="43.72083" lon="6.93739">
        <ele>1237.7</ele>
        <time>2016-09-25T10:31:35Z</time>
      </trkpt>
      <trkpt lat="43.72081" lon="6.93737">
        <ele>1238.3</ele>
        <time>2016-09-25T10:31:38Z</time>
      </trkpt>
      <trkpt lat="43.72078" lon="6.93734">
        <ele>1238.9</ele>
        <time>2016-09-25T10:31:41Z</time>
      </trkpt>
      <trkpt lat="43.72076" lon="6.93732">
        <ele>1239.4</ele>
        <time>2016-09-25T10:31:44Z</time>
      </trkpt>
      <trkpt lat="43.72073" lon="6.93729">
        <ele>1240</ele>
        <time>2016-09-25T10:31:47Z</time>
      </trkpt>
      <trkpt lat="43.7207" lon="6.93727">
        <ele>1240.7</ele>
        <time>2016-09-25T10:31:50Z</time>
      </trkpt>
      <trkpt lat="43.72067" lon="6.93724">
        <ele>1241.3</ele>
        <time>2016-09-25T10:31:53Z</time>
      </trkpt>
      <trkpt lat="43.72065" lon="6.93722">
        <ele>1241.8</ele>
        <time>2016-09-25T10:31:56Z</time>
      </trkpt>
      <trkpt lat="43.72064" lon="6.93718">
        <ele>1242.3</ele>
        <time>2016-09-25T10:32:28Z</time>
      </trkpt>
      <trkpt lat="43.72062" lon="6.93715">
        <ele>1242.9</ele>
        <time>2016-09-25T10:32:32Z</time>
      </trkpt>
      <trkpt lat="43.72059" lon="6.93712">
        <ele>1243.5</ele>
        <time>2016-09-25T10:32:36Z</time>
      </trkpt>
      <trkpt lat="43.72057" lon="6.9371">
        <ele>1244</ele>
        <time>2016-09-25T10:32:39Z</time>
      </trkpt>
      <trkpt lat="43.72054" lon="6.93708">
        <ele>1244.5</ele>
        <time>2016-09-25T10:32:42Z</time>
      </trkpt>
      <trkpt lat="43.72052" lon="6.93706">
        <ele>1245</ele>
        <time>2016-09-25T10:32:45Z</time>
      </trkpt>
      <trkpt lat="43.72049" lon="6.93703">
        <ele>1245.4</ele>
        <time>2016-09-25T10:32:48Z</time>
      </trkpt>
      <trkpt lat="43.72047" lon="6.93701">
        <ele>1245.9</ele>
        <time>2016-09-25T10:32:51Z</time>
      </trkpt>
      <trkpt lat="43.72044" lon="6.93699">
        <ele>1246.4</ele>
        <time>2016-09-25T10:32:55Z</time>
      </trkpt>
      <trkpt lat="43.72041" lon="6.93697">
        <ele>1246.9</ele>
        <time>2016-09-25T10:32:59Z</time>
      </trkpt>
      <trkpt lat="43.72039" lon="6.93695">
        <ele>1247.2</ele>
        <time>2016-09-25T10:33:02Z</time>
      </trkpt>
      <trkpt lat="43.72036" lon="6.93693">
        <ele>1247.4</ele>
        <time>2016-09-25T10:33:05Z</time>
      </trkpt>
      <trkpt lat="43.72033" lon="6.93691">
        <ele>1247.7</ele>
        <time>2016-09-25T10:33:08Z</time>
      </trkpt>
      <trkpt lat="43.72031" lon="6.9369">
        <ele>1248</ele>
        <time>2016-09-25T10:33:11Z</time>
      </trkpt>
      <trkpt lat="43.72028" lon="6.93688">
        <ele>1248.3</ele>
        <time>2016-09-25T10:33:15Z</time>
      </trkpt>
      <trkpt lat="43.72025" lon="6.93685">
        <ele>1248.7</ele>
        <time>2016-09-25T10:33:19Z</time>
      </trkpt>
      <trkpt lat="43.72023" lon="6.93682">
        <ele>1249</ele>
        <time>2016-09-25T10:33:23Z</time>
      </trkpt>
      <trkpt lat="43.7202" lon="6.9368">
        <ele>1249.4</ele>
        <time>2016-09-25T10:33:27Z</time>
      </trkpt>
      <trkpt lat="43.72013" lon="6.93673">
        <ele>1250.3</ele>
        <time>2016-09-25T10:33:31Z</time>
      </trkpt>
      <trkpt lat="43.7201" lon="6.9367">
        <ele>1250.7</ele>
        <time>2016-09-25T10:33:39Z</time>
      </trkpt>
      <trkpt lat="43.72009" lon="6.93666">
        <ele>1251</ele>
        <time>2016-09-25T10:33:42Z</time>
      </trkpt>
      <trkpt lat="43.72007" lon="6.93663">
        <ele>1251.4</ele>
        <time>2016-09-25T10:33:45Z</time>
      </trkpt>
      <trkpt lat="43.72005" lon="6.9366">
        <ele>1251.7</ele>
        <time>2016-09-25T10:33:49Z</time>
      </trkpt>
      <trkpt lat="43.72002" lon="6.93657">
        <ele>1252</ele>
        <time>2016-09-25T10:34:00Z</time>
      </trkpt>
      <trkpt lat="43.72" lon="6.93655">
        <ele>1252.4</ele>
        <time>2016-09-25T10:34:03Z</time>
      </trkpt>
      <trkpt lat="43.71997" lon="6.93652">
        <ele>1252.7</ele>
        <time>2016-09-25T10:34:06Z</time>
      </trkpt>
      <trkpt lat="43.71995" lon="6.9365">
        <ele>1253</ele>
        <time>2016-09-25T10:34:09Z</time>
      </trkpt>
      <trkpt lat="43.71992" lon="6.93647">
        <ele>1253.3</ele>
        <time>2016-09-25T10:34:12Z</time>
      </trkpt>
      <trkpt lat="43.7199" lon="6.93645">
        <ele>1253.7</ele>
        <time>2016-09-25T10:34:15Z</time>
      </trkpt>
      <trkpt lat="43.71988" lon="6.93642">
        <ele>1254</ele>
        <time>2016-09-25T10:34:19Z</time>
      </trkpt>
      <trkpt lat="43.71984" lon="6.93641">
        <ele>1254.3</ele>
        <time>2016-09-25T10:34:28Z</time>
      </trkpt>
      <trkpt lat="43.71982" lon="6.93639">
        <ele>1254.6</ele>
        <time>2016-09-25T10:34:31Z</time>
      </trkpt>
      <trkpt lat="43.71979" lon="6.93636">
        <ele>1255</ele>
        <time>2016-09-25T10:34:34Z</time>
      </trkpt>
      <trkpt lat="43.71976" lon="6.93634">
        <ele>1255.3</ele>
        <time>2016-09-25T10:34:37Z</time>
      </trkpt>
      <trkpt lat="43.71974" lon="6.93631">
        <ele>1255.6</ele>
        <time>2016-09-25T10:34:40Z</time>
      </trkpt>
      <trkpt lat="43.71972" lon="6.93629">
        <ele>1256</ele>
        <time>2016-09-25T10:34:43Z</time>
      </trkpt>
      <trkpt lat="43.71969" lon="6.93626">
        <ele>1256.3</ele>
        <time>2016-09-25T10:34:47Z</time>
      </trkpt>
      <trkpt lat="43.71966" lon="6.93624">
        <ele>1256.7</ele>
        <time>2016-09-25T10:34:50Z</time>
      </trkpt>
      <trkpt lat="43.71964" lon="6.93621">
        <ele>1257.1</ele>
        <time>2016-09-25T10:34:53Z</time>
      </trkpt>
      <trkpt lat="43.71962" lon="6.93618">
        <ele>1257.6</ele>
        <time>2016-09-25T10:34:56Z</time>
      </trkpt>
      <trkpt lat="43.71959" lon="6.93616">
        <ele>1258</ele>
        <time>2016-09-25T10:34:59Z</time>
      </trkpt>
      <trkpt lat="43.71957" lon="6.93613">
        <ele>1258.3</ele>
        <time>2016-09-25T10:35:02Z</time>
      </trkpt>
      <trkpt lat="43.71955" lon="6.93611">
        <ele>1258.5</ele>
        <time>2016-09-25T10:35:05Z</time>
      </trkpt>
      <trkpt lat="43.71953" lon="6.93608">
        <ele>1258.6</ele>
        <time>2016-09-25T10:35:08Z</time>
      </trkpt>
      <trkpt lat="43.7195" lon="6.93605">
        <ele>1258.9</ele>
        <time>2016-09-25T10:35:12Z</time>
      </trkpt>
      <trkpt lat="43.71948" lon="6.93601">
        <ele>1259.1</ele>
        <time>2016-09-25T10:35:16Z</time>
      </trkpt>
      <trkpt lat="43.71945" lon="6.93598">
        <ele>1259.3</ele>
        <time>2016-09-25T10:35:20Z</time>
      </trkpt>
      <trkpt lat="43.71943" lon="6.93595">
        <ele>1259.6</ele>
        <time>2016-09-25T10:35:24Z</time>
      </trkpt>
      <trkpt lat="43.71941" lon="6.93592">
        <ele>1259.8</ele>
        <time>2016-09-25T10:35:28Z</time>
      </trkpt>
      <trkpt lat="43.71939" lon="6.93588">
        <ele>1260.1</ele>
        <time>2016-09-25T10:35:32Z</time>
      </trkpt>
      <trkpt lat="43.71936" lon="6.93585">
        <ele>1260.3</ele>
        <time>2016-09-25T10:35:36Z</time>
      </trkpt>
      <trkpt lat="43.71933" lon="6.93582">
        <ele>1260.5</ele>
        <time>2016-09-25T10:35:40Z</time>
      </trkpt>
      <trkpt lat="43.71932" lon="6.93579">
        <ele>1260.7</ele>
        <time>2016-09-25T10:35:43Z</time>
      </trkpt>
      <trkpt lat="43.71929" lon="6.93576">
        <ele>1261</ele>
        <time>2016-09-25T10:35:47Z</time>
      </trkpt>
      <trkpt lat="43.71927" lon="6.93573">
        <ele>1261.3</ele>
        <time>2016-09-25T10:35:51Z</time>
      </trkpt>
      <trkpt lat="43.71925" lon="6.93569">
        <ele>1261.5</ele>
        <time>2016-09-25T10:35:55Z</time>
      </trkpt>
      <trkpt lat="43.71923" lon="6.93566">
        <ele>1261.8</ele>
        <time>2016-09-25T10:35:59Z</time>
      </trkpt>
      <trkpt lat="43.71921" lon="6.93564">
        <ele>1261.9</ele>
        <time>2016-09-25T10:36:02Z</time>
      </trkpt>
      <trkpt lat="43.71918" lon="6.93562">
        <ele>1262.1</ele>
        <time>2016-09-25T10:36:05Z</time>
      </trkpt>
      <trkpt lat="43.71916" lon="6.93558">
        <ele>1262.4</ele>
        <time>2016-09-25T10:36:10Z</time>
      </trkpt>
      <trkpt lat="43.71914" lon="6.93556">
        <ele>1262.6</ele>
        <time>2016-09-25T10:36:15Z</time>
      </trkpt>
      <trkpt lat="43.71911" lon="6.93553">
        <ele>1262.8</ele>
        <time>2016-09-25T10:36:18Z</time>
      </trkpt>
      <trkpt lat="43.71909" lon="6.9355">
        <ele>1263</ele>
        <time>2016-09-25T10:36:21Z</time>
      </trkpt>
      <trkpt lat="43.71907" lon="6.93547">
        <ele>1263.2</ele>
        <time>2016-09-25T10:36:24Z</time>
      </trkpt>
      <trkpt lat="43.71905" lon="6.93544">
        <ele>1263.5</ele>
        <time>2016-09-25T10:36:27Z</time>
      </trkpt>
      <trkpt lat="43.71903" lon="6.93541">
        <ele>1263.7</ele>
        <time>2016-09-25T10:36:30Z</time>
      </trkpt>
      <trkpt lat="43.71902" lon="6.93537">
        <ele>1263.8</ele>
        <time>2016-09-25T10:36:34Z</time>
      </trkpt>
      <trkpt lat="43.719" lon="6.93534">
        <ele>1263.9</ele>
        <time>2016-09-25T10:36:37Z</time>
      </trkpt>
      <trkpt lat="43.71898" lon="6.93531">
        <ele>1264</ele>
        <time>2016-09-25T10:36:40Z</time>
      </trkpt>
      <trkpt lat="43.719" lon="6.93524">
        <ele>1264.5</ele>
        <time>2016-09-25T10:36:51Z</time>
      </trkpt>
      <trkpt lat="43.71901" lon="6.93521">
        <ele>1264.8</ele>
        <time>2016-09-25T10:36:55Z</time>
      </trkpt>
      <trkpt lat="43.71902" lon="6.93518">
        <ele>1265</ele>
        <time>2016-09-25T10:36:58Z</time>
      </trkpt>
      <trkpt lat="43.71903" lon="6.93515">
        <ele>1265.2</ele>
        <time>2016-09-25T10:37:01Z</time>
      </trkpt>
      <trkpt lat="43.71904" lon="6.93511">
        <ele>1265.4</ele>
        <time>2016-09-25T10:37:04Z</time>
      </trkpt>
      <trkpt lat="43.71906" lon="6.93508">
        <ele>1265.7</ele>
        <time>2016-09-25T10:37:08Z</time>
      </trkpt>
      <trkpt lat="43.71907" lon="6.93505">
        <ele>1265.9</ele>
        <time>2016-09-25T10:37:12Z</time>
      </trkpt>
      <trkpt lat="43.71908" lon="6.93502">
        <ele>1266.1</ele>
        <time>2016-09-25T10:37:15Z</time>
      </trkpt>
      <trkpt lat="43.71909" lon="6.93499">
        <ele>1266.3</ele>
        <time>2016-09-25T10:37:18Z</time>
      </trkpt>
      <trkpt lat="43.7191" lon="6.93496">
        <ele>1266.5</ele>
        <time>2016-09-25T10:58:50Z</time>
      </trkpt>
      <trkpt lat="43.71911" lon="6.93493">
        <ele>1266.7</ele>
        <time>2016-09-25T10:58:57Z</time>
      </trkpt>
      <trkpt lat="43.71912" lon="6.9349">
        <ele>1266.9</ele>
        <time>2016-09-25T10:59:52Z</time>
      </trkpt>
      <trkpt lat="43.71913" lon="6.93486">
        <ele>1267</ele>
        <time>2016-09-25T11:00:59Z</time>
      </trkpt>
      <trkpt lat="43.71914" lon="6.93483">
        <ele>1267.2</ele>
        <time>2016-09-25T11:02:02Z</time>
      </trkpt>
      <trkpt lat="43.71915" lon="6.9348">
        <ele>1267.4</ele>
        <time>2016-09-25T11:02:22Z</time>
      </trkpt>
      <trkpt lat="43.71916" lon="6.93477">
        <ele>1267.6</ele>
        <time>2016-09-25T11:02:23Z</time>
      </trkpt>
      <trkpt lat="43.71913" lon="6.93472">
        <ele>1267.8</ele>
        <time>2016-09-25T11:02:24Z</time>
      </trkpt>
      <trkpt lat="43.71908" lon="6.93463">
        <ele>1268.1</ele>
        <time>2016-09-25T11:02:25Z</time>
      </trkpt>
      <trkpt lat="43.71904" lon="6.93458">
        <ele>1268.3</ele>
        <time>2016-09-25T11:02:26Z</time>
      </trkpt>
      <trkpt lat="43.71899" lon="6.93453">
        <ele>1268</ele>
        <time>2016-09-25T11:02:27Z</time>
      </trkpt>
      <trkpt lat="43.71895" lon="6.93447">
        <ele>1267.7</ele>
        <time>2016-09-25T11:02:28Z</time>
      </trkpt>
      <trkpt lat="43.7189" lon="6.9344">
        <ele>1267.5</ele>
        <time>2016-09-25T11:02:29Z</time>
      </trkpt>
      <trkpt lat="43.71886" lon="6.93434">
        <ele>1267.4</ele>
        <time>2016-09-25T11:02:30Z</time>
      </trkpt>
      <trkpt lat="43.71881" lon="6.93427">
        <ele>1267.4</ele>
        <time>2016-09-25T11:02:31Z</time>
      </trkpt>
      <trkpt lat="43.71876" lon="6.93421">
        <ele>1267.5</ele>
        <time>2016-09-25T11:02:32Z</time>
      </trkpt>
      <trkpt lat="43.7187" lon="6.93414">
        <ele>1267.9</ele>
        <time>2016-09-25T11:02:33Z</time>
      </trkpt>
      <trkpt lat="43.71864" lon="6.93407">
        <ele>1268.3</ele>
        <time>2016-09-25T11:02:34Z</time>
      </trkpt>
      <trkpt lat="43.71858" lon="6.93402">
        <ele>1268.9</ele>
        <time>2016-09-25T11:02:35Z</time>
      </trkpt>
      <trkpt lat="43.71851" lon="6.93397">
        <ele>1269.6</ele>
        <time>2016-09-25T11:02:36Z</time>
      </trkpt>
      <trkpt lat="43.71845" lon="6.93392">
        <ele>1270.3</ele>
        <time>2016-09-25T11:02:37Z</time>
      </trkpt>
      <trkpt lat="43.71839" lon="6.93389">
        <ele>1271</ele>
        <time>2016-09-25T11:02:38Z</time>
      </trkpt>
      <trkpt lat="43.71834" lon="6.93383">
        <ele>1271.7</ele>
        <time>2016-09-25T11:02:39Z</time>
      </trkpt>
      <trkpt lat="43.71828" lon="6.93379">
        <ele>1272.6</ele>
        <time>2016-09-25T11:02:40Z</time>
      </trkpt>
      <trkpt lat="43.71822" lon="6.93373">
        <ele>1273.4</ele>
        <time>2016-09-25T11:02:41Z</time>
      </trkpt>
      <trkpt lat="43.71816" lon="6.93368">
        <ele>1274.3</ele>
        <time>2016-09-25T11:02:42Z</time>
      </trkpt>
      <trkpt lat="43.7181" lon="6.93365">
        <ele>1275.1</ele>
        <time>2016-09-25T11:02:43Z</time>
      </trkpt>
      <trkpt lat="43.71805" lon="6.93364">
        <ele>1275.9</ele>
        <time>2016-09-25T11:02:44Z</time>
      </trkpt>
      <trkpt lat="43.718" lon="6.93364">
        <ele>1276.5</ele>
        <time>2016-09-25T11:02:45Z</time>
      </trkpt>
      <trkpt lat="43.71796" lon="6.93366">
        <ele>1276.9</ele>
        <time>2016-09-25T11:02:46Z</time>
      </trkpt>
      <trkpt lat="43.71795" lon="6.93371">
        <ele>1276.8</ele>
        <time>2016-09-25T11:02:47Z</time>
      </trkpt>
      <trkpt lat="43.71796" lon="6.93376">
        <ele>1276.4</ele>
        <time>2016-09-25T11:02:48Z</time>
      </trkpt>
      <trkpt lat="43.71796" lon="6.93383">
        <ele>1276</ele>
        <time>2016-09-25T11:02:49Z</time>
      </trkpt>
      <trkpt lat="43.71795" lon="6.93389">
        <ele>1275.6</ele>
        <time>2016-09-25T11:02:50Z</time>
      </trkpt>
      <trkpt lat="43.71793" lon="6.93396">
        <ele>1275.3</ele>
        <time>2016-09-25T11:02:51Z</time>
      </trkpt>
      <trkpt lat="43.71794" lon="6.93402">
        <ele>1274.9</ele>
        <time>2016-09-25T11:02:52Z</time>
      </trkpt>
      <trkpt lat="43.71796" lon="6.93409">
        <ele>1274.2</ele>
        <time>2016-09-25T11:02:53Z</time>
      </trkpt>
      <trkpt lat="43.71795" lon="6.93413">
        <ele>1274</ele>
        <time>2016-09-25T11:02:54Z</time>
      </trkpt>
      <trkpt lat="43.71791" lon="6.93418">
        <ele>1274</ele>
        <time>2016-09-25T11:02:55Z</time>
      </trkpt>
      <trkpt lat="43.71789" lon="6.93424">
        <ele>1273.9</ele>
        <time>2016-09-25T11:02:56Z</time>
      </trkpt>
      <trkpt lat="43.71786" lon="6.93431">
        <ele>1273.8</ele>
        <time>2016-09-25T11:02:57Z</time>
      </trkpt>
      <trkpt lat="43.71783" lon="6.9344">
        <ele>1273.7</ele>
        <time>2016-09-25T11:02:58Z</time>
      </trkpt>
      <trkpt lat="43.71781" lon="6.93448">
        <ele>1273.4</ele>
        <time>2016-09-25T11:02:59Z</time>
      </trkpt>
      <trkpt lat="43.71778" lon="6.93455">
        <ele>1273.2</ele>
        <time>2016-09-25T11:03:00Z</time>
      </trkpt>
      <trkpt lat="43.71776" lon="6.93464">
        <ele>1272.8</ele>
        <time>2016-09-25T11:03:01Z</time>
      </trkpt>
      <trkpt lat="43.71774" lon="6.93471">
        <ele>1272.6</ele>
        <time>2016-09-25T11:03:02Z</time>
      </trkpt>
      <trkpt lat="43.71771" lon="6.93478">
        <ele>1272.5</ele>
        <time>2016-09-25T11:03:03Z</time>
      </trkpt>
      <trkpt lat="43.71766" lon="6.93484">
        <ele>1272.6</ele>
        <time>2016-09-25T11:03:04Z</time>
      </trkpt>
      <trkpt lat="43.71763" lon="6.93489">
        <ele>1272.6</ele>
        <time>2016-09-25T11:03:05Z</time>
      </trkpt>
      <trkpt lat="43.71759" lon="6.93491">
        <ele>1272.8</ele>
        <time>2016-09-25T11:03:06Z</time>
      </trkpt>
      <trkpt lat="43.71755" lon="6.93494">
        <ele>1273</ele>
        <time>2016-09-25T11:03:07Z</time>
      </trkpt>
      <trkpt lat="43.7175" lon="6.93499">
        <ele>1273.1</ele>
        <time>2016-09-25T11:03:08Z</time>
      </trkpt>
      <trkpt lat="43.71746" lon="6.93504">
        <ele>1273</ele>
        <time>2016-09-25T11:03:09Z</time>
      </trkpt>
      <trkpt lat="43.71744" lon="6.93509">
        <ele>1272.8</ele>
        <time>2016-09-25T11:03:10Z</time>
      </trkpt>
      <trkpt lat="43.71742" lon="6.93516">
        <ele>1272.2</ele>
        <time>2016-09-25T11:03:11Z</time>
      </trkpt>
      <trkpt lat="43.71738" lon="6.93525">
        <ele>1271.7</ele>
        <time>2016-09-25T11:03:12Z</time>
      </trkpt>
      <trkpt lat="43.71735" lon="6.93532">
        <ele>1271.1</ele>
        <time>2016-09-25T11:03:13Z</time>
      </trkpt>
      <trkpt lat="43.71732" lon="6.93538">
        <ele>1270.7</ele>
        <time>2016-09-25T11:03:14Z</time>
      </trkpt>
      <trkpt lat="43.71729" lon="6.93545">
        <ele>1270.1</ele>
        <time>2016-09-25T11:03:15Z</time>
      </trkpt>
      <trkpt lat="43.71729" lon="6.93552">
        <ele>1269.1</ele>
        <time>2016-09-25T11:03:16Z</time>
      </trkpt>
      <trkpt lat="43.71731" lon="6.93558">
        <ele>1268.1</ele>
        <time>2016-09-25T11:03:17Z</time>
      </trkpt>
      <trkpt lat="43.71732" lon="6.93564">
        <ele>1267.2</ele>
        <time>2016-09-25T11:03:18Z</time>
      </trkpt>
      <trkpt lat="43.71727" lon="6.93574">
        <ele>1266.2</ele>
        <time>2016-09-25T11:03:19Z</time>
      </trkpt>
      <trkpt lat="43.71725" lon="6.93581">
        <ele>1265.3</ele>
        <time>2016-09-25T11:03:20Z</time>
      </trkpt>
      <trkpt lat="43.71725" lon="6.93588">
        <ele>1264.4</ele>
        <time>2016-09-25T11:03:21Z</time>
      </trkpt>
      <trkpt lat="43.71725" lon="6.93596">
        <ele>1263.2</ele>
        <time>2016-09-25T11:03:22Z</time>
      </trkpt>
      <trkpt lat="43.71725" lon="6.93602">
        <ele>1262.3</ele>
        <time>2016-09-25T11:03:23Z</time>
      </trkpt>
      <trkpt lat="43.71733" lon="6.93601">
        <ele>1262.1</ele>
        <time>2016-09-25T11:03:24Z</time>
      </trkpt>
      <trkpt lat="43.71738" lon="6.93606">
        <ele>1261.1</ele>
        <time>2016-09-25T11:03:25Z</time>
      </trkpt>
      <trkpt lat="43.71743" lon="6.93607">
        <ele>1260.8</ele>
        <time>2016-09-25T11:03:26Z</time>
      </trkpt>
      <trkpt lat="43.71748" lon="6.93607">
        <ele>1260.5</ele>
        <time>2016-09-25T11:03:27Z</time>
      </trkpt>
      <trkpt lat="43.71753" lon="6.93607">
        <ele>1260.2</ele>
        <time>2016-09-25T11:03:28Z</time>
      </trkpt>
      <trkpt lat="43.71758" lon="6.93609">
        <ele>1259.6</ele>
        <time>2016-09-25T11:03:29Z</time>
      </trkpt>
      <trkpt lat="43.71762" lon="6.93609">
        <ele>1259.5</ele>
        <time>2016-09-25T11:03:30Z</time>
      </trkpt>
      <trkpt lat="43.71769" lon="6.93607">
        <ele>1259.4</ele>
        <time>2016-09-25T11:03:31Z</time>
      </trkpt>
      <trkpt lat="43.71776" lon="6.93606">
        <ele>1259.2</ele>
        <time>2016-09-25T11:03:32Z</time>
      </trkpt>
      <trkpt lat="43.71783" lon="6.93604">
        <ele>1258.9</ele>
        <time>2016-09-25T11:03:33Z</time>
      </trkpt>
      <trkpt lat="43.7179" lon="6.93607">
        <ele>1258.2</ele>
        <time>2016-09-25T11:03:34Z</time>
      </trkpt>
      <trkpt lat="43.71795" lon="6.93611">
        <ele>1257.5</ele>
        <time>2016-09-25T11:03:35Z</time>
      </trkpt>
      <trkpt lat="43.71799" lon="6.93617">
        <ele>1256.6</ele>
        <time>2016-09-25T11:03:36Z</time>
      </trkpt>
      <trkpt lat="43.71803" lon="6.93623">
        <ele>1255.6</ele>
        <time>2016-09-25T11:03:37Z</time>
      </trkpt>
      <trkpt lat="43.71807" lon="6.93629">
        <ele>1254.3</ele>
        <time>2016-09-25T11:03:38Z</time>
      </trkpt>
      <trkpt lat="43.71813" lon="6.93634">
        <ele>1253.3</ele>
        <time>2016-09-25T11:03:39Z</time>
      </trkpt>
      <trkpt lat="43.71817" lon="6.93637">
        <ele>1252.5</ele>
        <time>2016-09-25T11:03:40Z</time>
      </trkpt>
      <trkpt lat="43.71824" lon="6.9364">
        <ele>1251.9</ele>
        <time>2016-09-25T11:03:41Z</time>
      </trkpt>
      <trkpt lat="43.7183" lon="6.93643">
        <ele>1251.2</ele>
        <time>2016-09-25T11:03:42Z</time>
      </trkpt>
      <trkpt lat="43.71834" lon="6.93649">
        <ele>1250.3</ele>
        <time>2016-09-25T11:03:43Z</time>
      </trkpt>
      <trkpt lat="43.71837" lon="6.93655">
        <ele>1249.5</ele>
        <time>2016-09-25T11:03:44Z</time>
      </trkpt>
      <trkpt lat="43.71838" lon="6.93662">
        <ele>1248.6</ele>
        <time>2016-09-25T11:03:45Z</time>
      </trkpt>
      <trkpt lat="43.71839" lon="6.93666">
        <ele>1248.2</ele>
        <time>2016-09-25T11:03:46Z</time>
      </trkpt>
      <trkpt lat="43.71842" lon="6.93668">
        <ele>1247.9</ele>
        <time>2016-09-25T11:03:47Z</time>
      </trkpt>
      <trkpt lat="43.71846" lon="6.93671">
        <ele>1247.7</ele>
        <time>2016-09-25T11:03:48Z</time>
      </trkpt>
      <trkpt lat="43.7185" lon="6.93676">
        <ele>1247.2</ele>
        <time>2016-09-25T11:03:49Z</time>
      </trkpt>
      <trkpt lat="43.71852" lon="6.93683">
        <ele>1246.6</ele>
        <time>2016-09-25T11:03:50Z</time>
      </trkpt>
      <trkpt lat="43.71854" lon="6.93689">
        <ele>1246.1</ele>
        <time>2016-09-25T11:03:51Z</time>
      </trkpt>
      <trkpt lat="43.71856" lon="6.93694">
        <ele>1245.7</ele>
        <time>2016-09-25T11:03:52Z</time>
      </trkpt>
      <trkpt lat="43.71859" lon="6.93698">
        <ele>1245.6</ele>
        <time>2016-09-25T11:03:53Z</time>
      </trkpt>
      <trkpt lat="43.71861" lon="6.93701">
        <ele>1245.4</ele>
        <time>2016-09-25T11:03:54Z</time>
      </trkpt>
      <trkpt lat="43.71865" lon="6.93704">
        <ele>1245.5</ele>
        <time>2016-09-25T11:03:55Z</time>
      </trkpt>
      <trkpt lat="43.71869" lon="6.93707">
        <ele>1245.6</ele>
        <time>2016-09-25T11:03:56Z</time>
      </trkpt>
      <trkpt lat="43.71873" lon="6.93712">
        <ele>1245.1</ele>
        <time>2016-09-25T11:03:57Z</time>
      </trkpt>
      <trkpt lat="43.71877" lon="6.93715">
        <ele>1244.6</ele>
        <time>2016-09-25T11:03:58Z</time>
      </trkpt>
      <trkpt lat="43.71883" lon="6.9372">
        <ele>1243.9</ele>
        <time>2016-09-25T11:03:59Z</time>
      </trkpt>
      <trkpt lat="43.71889" lon="6.93722">
        <ele>1243.9</ele>
        <time>2016-09-25T11:04:00Z</time>
      </trkpt>
      <trkpt lat="43.71895" lon="6.93722">
        <ele>1244.4</ele>
        <time>2016-09-25T11:04:01Z</time>
      </trkpt>
      <trkpt lat="43.719" lon="6.93721">
        <ele>1245</ele>
        <time>2016-09-25T11:04:02Z</time>
      </trkpt>
      <trkpt lat="43.71905" lon="6.93719">
        <ele>1245.6</ele>
        <time>2016-09-25T11:04:03Z</time>
      </trkpt>
      <trkpt lat="43.7191" lon="6.93718">
        <ele>1246.3</ele>
        <time>2016-09-25T11:04:04Z</time>
      </trkpt>
      <trkpt lat="43.71914" lon="6.93716">
        <ele>1246.8</ele>
        <time>2016-09-25T11:04:05Z</time>
      </trkpt>
      <trkpt lat="43.71919" lon="6.93715">
        <ele>1247.3</ele>
        <time>2016-09-25T11:04:06Z</time>
      </trkpt>
      <trkpt lat="43.71923" lon="6.93714">
        <ele>1247.8</ele>
        <time>2016-09-25T11:04:07Z</time>
      </trkpt>
      <trkpt lat="43.71928" lon="6.93714">
        <ele>1248.2</ele>
        <time>2016-09-25T11:04:08Z</time>
      </trkpt>
      <trkpt lat="43.71934" lon="6.93719">
        <ele>1247.7</ele>
        <time>2016-09-25T11:04:10Z</time>
      </trkpt>
      <trkpt lat="43.71938" lon="6.93722">
        <ele>1247.5</ele>
        <time>2016-09-25T11:04:11Z</time>
      </trkpt>
      <trkpt lat="43.71944" lon="6.93726">
        <ele>1247.3</ele>
        <time>2016-09-25T11:04:12Z</time>
      </trkpt>
      <trkpt lat="43.71951" lon="6.93733">
        <ele>1246.9</ele>
        <time>2016-09-25T11:04:13Z</time>
      </trkpt>
      <trkpt lat="43.71959" lon="6.93738">
        <ele>1246.7</ele>
        <time>2016-09-25T11:04:14Z</time>
      </trkpt>
      <trkpt lat="43.71967" lon="6.93746">
        <ele>1245.2</ele>
        <time>2016-09-25T11:04:15Z</time>
      </trkpt>
      <trkpt lat="43.71974" lon="6.93754">
        <ele>1243.9</ele>
        <time>2016-09-25T11:04:16Z</time>
      </trkpt>
      <trkpt lat="43.71982" lon="6.93761">
        <ele>1242.7</ele>
        <time>2016-09-25T11:04:17Z</time>
      </trkpt>
      <trkpt lat="43.71988" lon="6.93765">
        <ele>1242</ele>
        <time>2016-09-25T11:04:18Z</time>
      </trkpt>
      <trkpt lat="43.7199" lon="6.93774">
        <ele>1240.8</ele>
        <time>2016-09-25T11:04:19Z</time>
      </trkpt>
      <trkpt lat="43.71993" lon="6.93782">
        <ele>1239.8</ele>
        <time>2016-09-25T11:04:20Z</time>
      </trkpt>
      <trkpt lat="43.71993" lon="6.93792">
        <ele>1238.6</ele>
        <time>2016-09-25T11:04:21Z</time>
      </trkpt>
      <trkpt lat="43.71997" lon="6.938">
        <ele>1236.4</ele>
        <time>2016-09-25T11:04:22Z</time>
      </trkpt>
      <trkpt lat="43.72" lon="6.93806">
        <ele>1234.9</ele>
        <time>2016-09-25T11:04:23Z</time>
      </trkpt>
      <trkpt lat="43.72004" lon="6.93807">
        <ele>1234.9</ele>
        <time>2016-09-25T11:04:24Z</time>
      </trkpt>
      <trkpt lat="43.72011" lon="6.93806">
        <ele>1235</ele>
        <time>2016-09-25T11:04:25Z</time>
      </trkpt>
      <trkpt lat="43.72017" lon="6.93806">
        <ele>1235.1</ele>
        <time>2016-09-25T11:04:26Z</time>
      </trkpt>
      <trkpt lat="43.72023" lon="6.93803">
        <ele>1235.9</ele>
        <time>2016-09-25T11:04:27Z</time>
      </trkpt>
      <trkpt lat="43.72028" lon="6.93801">
        <ele>1236.3</ele>
        <time>2016-09-25T11:04:28Z</time>
      </trkpt>
      <trkpt lat="43.72035" lon="6.93804">
        <ele>1235.6</ele>
        <time>2016-09-25T11:04:29Z</time>
      </trkpt>
      <trkpt lat="43.72042" lon="6.93802">
        <ele>1236</ele>
        <time>2016-09-25T11:04:30Z</time>
      </trkpt>
      <trkpt lat="43.72047" lon="6.938">
        <ele>1235.8</ele>
        <time>2016-09-25T11:04:31Z</time>
      </trkpt>
      <trkpt lat="43.72053" lon="6.93798">
        <ele>1235.4</ele>
        <time>2016-09-25T11:04:32Z</time>
      </trkpt>
      <trkpt lat="43.72059" lon="6.93804">
        <ele>1233.4</ele>
        <time>2016-09-25T11:04:33Z</time>
      </trkpt>
      <trkpt lat="43.72061" lon="6.9381">
        <ele>1232.2</ele>
        <time>2016-09-25T11:04:34Z</time>
      </trkpt>
      <trkpt lat="43.72063" lon="6.93818">
        <ele>1230.6</ele>
        <time>2016-09-25T11:04:35Z</time>
      </trkpt>
      <trkpt lat="43.72065" lon="6.93827">
        <ele>1228.9</ele>
        <time>2016-09-25T11:04:36Z</time>
      </trkpt>
      <trkpt lat="43.72064" lon="6.93839">
        <ele>1227.2</ele>
        <time>2016-09-25T11:04:37Z</time>
      </trkpt>
      <trkpt lat="43.72063" lon="6.9385">
        <ele>1225.3</ele>
        <time>2016-09-25T11:04:38Z</time>
      </trkpt>
      <trkpt lat="43.72061" lon="6.93862">
        <ele>1223.5</ele>
        <time>2016-09-25T11:04:39Z</time>
      </trkpt>
      <trkpt lat="43.72062" lon="6.93873">
        <ele>1221.6</ele>
        <time>2016-09-25T11:04:40Z</time>
      </trkpt>
      <trkpt lat="43.72065" lon="6.93884">
        <ele>1219</ele>
        <time>2016-09-25T11:04:41Z</time>
      </trkpt>
      <trkpt lat="43.72071" lon="6.93892">
        <ele>1216.9</ele>
        <time>2016-09-25T11:04:42Z</time>
      </trkpt>
      <trkpt lat="43.72077" lon="6.939">
        <ele>1215</ele>
        <time>2016-09-25T11:04:43Z</time>
      </trkpt>
      <trkpt lat="43.72081" lon="6.93906">
        <ele>1213.8</ele>
        <time>2016-09-25T11:04:44Z</time>
      </trkpt>
      <trkpt lat="43.72086" lon="6.93912">
        <ele>1212.7</ele>
        <time>2016-09-25T11:04:45Z</time>
      </trkpt>
      <trkpt lat="43.72092" lon="6.93915">
        <ele>1212.3</ele>
        <time>2016-09-25T11:04:46Z</time>
      </trkpt>
      <trkpt lat="43.72098" lon="6.93915">
        <ele>1212.5</ele>
        <time>2016-09-25T11:04:47Z</time>
      </trkpt>
      <trkpt lat="43.72103" lon="6.93914">
        <ele>1213</ele>
        <time>2016-09-25T11:04:48Z</time>
      </trkpt>
      <trkpt lat="43.72111" lon="6.93921">
        <ele>1212.2</ele>
        <time>2016-09-25T11:04:49Z</time>
      </trkpt>
      <trkpt lat="43.72118" lon="6.93929">
        <ele>1211.3</ele>
        <time>2016-09-25T11:04:50Z</time>
      </trkpt>
      <trkpt lat="43.72123" lon="6.93938">
        <ele>1210.5</ele>
        <time>2016-09-25T11:04:51Z</time>
      </trkpt>
      <trkpt lat="43.7213" lon="6.93946">
        <ele>1209.4</ele>
        <time>2016-09-25T11:04:52Z</time>
      </trkpt>
      <trkpt lat="43.72137" lon="6.93953">
        <ele>1208.1</ele>
        <time>2016-09-25T11:04:53Z</time>
      </trkpt>
      <trkpt lat="43.72144" lon="6.93962">
        <ele>1206.3</ele>
        <time>2016-09-25T11:04:54Z</time>
      </trkpt>
      <trkpt lat="43.72149" lon="6.93972">
        <ele>1203.6</ele>
        <time>2016-09-25T11:04:55Z</time>
      </trkpt>
      <trkpt lat="43.72154" lon="6.93982">
        <ele>1201.2</ele>
        <time>2016-09-25T11:04:56Z</time>
      </trkpt>
      <trkpt lat="43.72158" lon="6.93988">
        <ele>1199.8</ele>
        <time>2016-09-25T11:04:57Z</time>
      </trkpt>
      <trkpt lat="43.72161" lon="6.9399">
        <ele>1199.6</ele>
        <time>2016-09-25T11:04:58Z</time>
      </trkpt>
      <trkpt lat="43.72164" lon="6.93989">
        <ele>1199.7</ele>
        <time>2016-09-25T11:04:59Z</time>
      </trkpt>
      <trkpt lat="43.72168" lon="6.93989">
        <ele>1199.8</ele>
        <time>2016-09-25T11:05:00Z</time>
      </trkpt>
      <trkpt lat="43.72173" lon="6.9399">
        <ele>1199.6</ele>
        <time>2016-09-25T11:05:01Z</time>
      </trkpt>
      <trkpt lat="43.72176" lon="6.93993">
        <ele>1199</ele>
        <time>2016-09-25T11:05:02Z</time>
      </trkpt>
      <trkpt lat="43.72178" lon="6.94001">
        <ele>1197.7</ele>
        <time>2016-09-25T11:05:03Z</time>
      </trkpt>
      <trkpt lat="43.72179" lon="6.94008">
        <ele>1196.4</ele>
        <time>2016-09-25T11:05:04Z</time>
      </trkpt>
      <trkpt lat="43.7218" lon="6.94018">
        <ele>1194.6</ele>
        <time>2016-09-25T11:05:05Z</time>
      </trkpt>
      <trkpt lat="43.72182" lon="6.94029">
        <ele>1192.7</ele>
        <time>2016-09-25T11:05:06Z</time>
      </trkpt>
      <trkpt lat="43.72182" lon="6.94042">
        <ele>1190.4</ele>
        <time>2016-09-25T11:05:07Z</time>
      </trkpt>
      <trkpt lat="43.72184" lon="6.94052">
        <ele>1188.8</ele>
        <time>2016-09-25T11:05:08Z</time>
      </trkpt>
      <trkpt lat="43.72185" lon="6.94064">
        <ele>1186.9</ele>
        <time>2016-09-25T11:05:09Z</time>
      </trkpt>
      <trkpt lat="43.72189" lon="6.94071">
        <ele>1186.3</ele>
        <time>2016-09-25T11:05:10Z</time>
      </trkpt>
      <trkpt lat="43.72189" lon="6.94081">
        <ele>1184.7</ele>
        <time>2016-09-25T11:05:11Z</time>
      </trkpt>
      <trkpt lat="43.72191" lon="6.94087">
        <ele>1184</ele>
        <time>2016-09-25T11:05:12Z</time>
      </trkpt>
      <trkpt lat="43.72192" lon="6.94093">
        <ele>1183.6</ele>
        <time>2016-09-25T11:05:13Z</time>
      </trkpt>
      <trkpt lat="43.72195" lon="6.94097">
        <ele>1183.7</ele>
        <time>2016-09-25T11:05:14Z</time>
      </trkpt>
      <trkpt lat="43.72198" lon="6.941">
        <ele>1184</ele>
        <time>2016-09-25T11:05:15Z</time>
      </trkpt>
      <trkpt lat="43.72203" lon="6.941">
        <ele>1185.3</ele>
        <time>2016-09-25T11:05:16Z</time>
      </trkpt>
      <trkpt lat="43.72206" lon="6.94103">
        <ele>1185.7</ele>
        <time>2016-09-25T11:05:17Z</time>
      </trkpt>
      <trkpt lat="43.72209" lon="6.94106">
        <ele>1186.1</ele>
        <time>2016-09-25T11:05:18Z</time>
      </trkpt>
      <trkpt lat="43.72212" lon="6.9411">
        <ele>1185.6</ele>
        <time>2016-09-25T11:05:19Z</time>
      </trkpt>
      <trkpt lat="43.72213" lon="6.94116">
        <ele>1185</ele>
        <time>2016-09-25T11:05:20Z</time>
      </trkpt>
      <trkpt lat="43.72213" lon="6.94123">
        <ele>1184.2</ele>
        <time>2016-09-25T11:05:21Z</time>
      </trkpt>
      <trkpt lat="43.72214" lon="6.94131">
        <ele>1183</ele>
        <time>2016-09-25T11:05:22Z</time>
      </trkpt>
      <trkpt lat="43.72215" lon="6.94138">
        <ele>1181.9</ele>
        <time>2016-09-25T11:05:23Z</time>
      </trkpt>
      <trkpt lat="43.72218" lon="6.94145">
        <ele>1180.7</ele>
        <time>2016-09-25T11:05:24Z</time>
      </trkpt>
      <trkpt lat="43.72219" lon="6.94152">
        <ele>1179.6</ele>
        <time>2016-09-25T11:05:25Z</time>
      </trkpt>
      <trkpt lat="43.7222" lon="6.9416">
        <ele>1178.3</ele>
        <time>2016-09-25T11:05:26Z</time>
      </trkpt>
      <trkpt lat="43.72222" lon="6.9417">
        <ele>1176.8</ele>
        <time>2016-09-25T11:05:27Z</time>
      </trkpt>
      <trkpt lat="43.72226" lon="6.94179">
        <ele>1175.8</ele>
        <time>2016-09-25T11:05:28Z</time>
      </trkpt>
      <trkpt lat="43.7223" lon="6.94189">
        <ele>1174.7</ele>
        <time>2016-09-25T11:05:29Z</time>
      </trkpt>
      <trkpt lat="43.72233" lon="6.94198">
        <ele>1173.8</ele>
        <time>2016-09-25T11:05:30Z</time>
      </trkpt>
      <trkpt lat="43.72237" lon="6.94206">
        <ele>1173.1</ele>
        <time>2016-09-25T11:05:31Z</time>
      </trkpt>
      <trkpt lat="43.7224" lon="6.94211">
        <ele>1172.6</ele>
        <time>2016-09-25T11:05:32Z</time>
      </trkpt>
      <trkpt lat="43.72243" lon="6.94219">
        <ele>1171.2</ele>
        <time>2016-09-25T11:05:33Z</time>
      </trkpt>
      <trkpt lat="43.72244" lon="6.94228">
        <ele>1169.7</ele>
        <time>2016-09-25T11:05:34Z</time>
      </trkpt>
      <trkpt lat="43.72245" lon="6.94238">
        <ele>1168</ele>
        <time>2016-09-25T11:05:35Z</time>
      </trkpt>
      <trkpt lat="43.72247" lon="6.94246">
        <ele>1166.6</ele>
        <time>2016-09-25T11:05:36Z</time>
      </trkpt>
      <trkpt lat="43.72248" lon="6.94256">
        <ele>1164.9</ele>
        <time>2016-09-25T11:05:37Z</time>
      </trkpt>
      <trkpt lat="43.72252" lon="6.94265">
        <ele>1164.1</ele>
        <time>2016-09-25T11:05:38Z</time>
      </trkpt>
      <trkpt lat="43.72256" lon="6.94274">
        <ele>1163.6</ele>
        <time>2016-09-25T11:05:39Z</time>
      </trkpt>
      <trkpt lat="43.72262" lon="6.9428">
        <ele>1163.9</ele>
        <time>2016-09-25T11:05:40Z</time>
      </trkpt>
      <trkpt lat="43.72267" lon="6.94284">
        <ele>1164.9</ele>
        <time>2016-09-25T11:05:41Z</time>
      </trkpt>
      <trkpt lat="43.72273" lon="6.9429">
        <ele>1165.7</ele>
        <time>2016-09-25T11:05:42Z</time>
      </trkpt>
      <trkpt lat="43.72277" lon="6.94293">
        <ele>1166.3</ele>
        <time>2016-09-25T11:05:43Z</time>
      </trkpt>
      <trkpt lat="43.7228" lon="6.94296">
        <ele>1166.8</ele>
        <time>2016-09-25T11:05:44Z</time>
      </trkpt>
      <trkpt lat="43.72283" lon="6.94299">
        <ele>1167.3</ele>
        <time>2016-09-25T11:05:45Z</time>
      </trkpt>
      <trkpt lat="43.72286" lon="6.943">
        <ele>1168</ele>
        <time>2016-09-25T11:05:46Z</time>
      </trkpt>
      <trkpt lat="43.72289" lon="6.94302">
        <ele>1168.5</ele>
        <time>2016-09-25T11:05:47Z</time>
      </trkpt>
      <trkpt lat="43.72292" lon="6.94306">
        <ele>1169</ele>
        <time>2016-09-25T11:05:48Z</time>
      </trkpt>
      <trkpt lat="43.72293" lon="6.9431">
        <ele>1168.5</ele>
        <time>2016-09-25T11:05:49Z</time>
      </trkpt>
      <trkpt lat="43.72296" lon="6.94314">
        <ele>1168.3</ele>
        <time>2016-09-25T11:05:50Z</time>
      </trkpt>
      <trkpt lat="43.72298" lon="6.94318">
        <ele>1168</ele>
        <time>2016-09-25T11:05:51Z</time>
      </trkpt>
      <trkpt lat="43.72301" lon="6.94322">
        <ele>1167.9</ele>
        <time>2016-09-25T11:05:52Z</time>
      </trkpt>
      <trkpt lat="43.72304" lon="6.94327">
        <ele>1167.7</ele>
        <time>2016-09-25T11:05:53Z</time>
      </trkpt>
      <trkpt lat="43.72307" lon="6.9433">
        <ele>1167.7</ele>
        <time>2016-09-25T11:05:54Z</time>
      </trkpt>
      <trkpt lat="43.7231" lon="6.94334">
        <ele>1167.6</ele>
        <time>2016-09-25T11:05:55Z</time>
      </trkpt>
      <trkpt lat="43.72313" lon="6.94339">
        <ele>1167.5</ele>
        <time>2016-09-25T11:05:56Z</time>
      </trkpt>
      <trkpt lat="43.72316" lon="6.94342">
        <ele>1167.7</ele>
        <time>2016-09-25T11:05:57Z</time>
      </trkpt>
      <trkpt lat="43.72319" lon="6.94344">
        <ele>1167.8</ele>
        <time>2016-09-25T11:05:58Z</time>
      </trkpt>
      <trkpt lat="43.72322" lon="6.94346">
        <ele>1168.1</ele>
        <time>2016-09-25T11:05:59Z</time>
      </trkpt>
      <trkpt lat="43.72325" lon="6.9435">
        <ele>1168.1</ele>
        <time>2016-09-25T11:06:01Z</time>
      </trkpt>
      <trkpt lat="43.7233" lon="6.94354">
        <ele>1168.5</ele>
        <time>2016-09-25T11:06:03Z</time>
      </trkpt>
      <trkpt lat="43.72332" lon="6.94356">
        <ele>1168.7</ele>
        <time>2016-09-25T11:06:04Z</time>
      </trkpt>
      <trkpt lat="43.72334" lon="6.94359">
        <ele>1168.8</ele>
        <time>2016-09-25T11:06:05Z</time>
      </trkpt>
      <trkpt lat="43.72336" lon="6.94362">
        <ele>1168.9</ele>
        <time>2016-09-25T11:06:06Z</time>
      </trkpt>
      <trkpt lat="43.7234" lon="6.94366">
        <ele>1169.2</ele>
        <time>2016-09-25T11:06:08Z</time>
      </trkpt>
      <trkpt lat="43.72344" lon="6.9437">
        <ele>1169.6</ele>
        <time>2016-09-25T11:06:10Z</time>
      </trkpt>
      <trkpt lat="43.72349" lon="6.94373">
        <ele>1170.2</ele>
        <time>2016-09-25T11:06:12Z</time>
      </trkpt>
      <trkpt lat="43.72353" lon="6.94378">
        <ele>1170.3</ele>
        <time>2016-09-25T11:06:14Z</time>
      </trkpt>
      <trkpt lat="43.72355" lon="6.94381">
        <ele>1170.2</ele>
        <time>2016-09-25T11:06:15Z</time>
      </trkpt>
      <trkpt lat="43.72358" lon="6.94385">
        <ele>1170.2</ele>
        <time>2016-09-25T11:06:16Z</time>
      </trkpt>
      <trkpt lat="43.72361" lon="6.94388">
        <ele>1170.3</ele>
        <time>2016-09-25T11:06:17Z</time>
      </trkpt>
      <trkpt lat="43.72364" lon="6.94391">
        <ele>1170.6</ele>
        <time>2016-09-25T11:06:18Z</time>
      </trkpt>
      <trkpt lat="43.72368" lon="6.94393">
        <ele>1171</ele>
        <time>2016-09-25T11:06:19Z</time>
      </trkpt>
      <trkpt lat="43.72372" lon="6.94396">
        <ele>1171.3</ele>
        <time>2016-09-25T11:06:20Z</time>
      </trkpt>
      <trkpt lat="43.72375" lon="6.94399">
        <ele>1171.6</ele>
        <time>2016-09-25T11:06:21Z</time>
      </trkpt>
      <trkpt lat="43.72381" lon="6.94399">
        <ele>1171.6</ele>
        <time>2016-09-25T11:06:22Z</time>
      </trkpt>
      <trkpt lat="43.72385" lon="6.94399">
        <ele>1171.7</ele>
        <time>2016-09-25T11:06:23Z</time>
      </trkpt>
      <trkpt lat="43.72389" lon="6.94399">
        <ele>1171.7</ele>
        <time>2016-09-25T11:06:24Z</time>
      </trkpt>
      <trkpt lat="43.72393" lon="6.94399">
        <ele>1171.8</ele>
        <time>2016-09-25T11:06:25Z</time>
      </trkpt>
      <trkpt lat="43.72397" lon="6.94397">
        <ele>1172</ele>
        <time>2016-09-25T11:06:26Z</time>
      </trkpt>
      <trkpt lat="43.724" lon="6.94396">
        <ele>1172.3</ele>
        <time>2016-09-25T11:06:27Z</time>
      </trkpt>
      <trkpt lat="43.72404" lon="6.94394">
        <ele>1172.5</ele>
        <time>2016-09-25T11:06:28Z</time>
      </trkpt>
      <trkpt lat="43.72407" lon="6.94392">
        <ele>1172.7</ele>
        <time>2016-09-25T11:06:29Z</time>
      </trkpt>
      <trkpt lat="43.7241" lon="6.94391">
        <ele>1173</ele>
        <time>2016-09-25T11:06:30Z</time>
      </trkpt>
      <trkpt lat="43.72414" lon="6.9439">
        <ele>1173.1</ele>
        <time>2016-09-25T11:06:31Z</time>
      </trkpt>
      <trkpt lat="43.72418" lon="6.94389">
        <ele>1173.3</ele>
        <time>2016-09-25T11:06:32Z</time>
      </trkpt>
      <trkpt lat="43.72421" lon="6.94388">
        <ele>1173.4</ele>
        <time>2016-09-25T11:06:33Z</time>
      </trkpt>
      <trkpt lat="43.72425" lon="6.94387">
        <ele>1173.5</ele>
        <time>2016-09-25T11:06:34Z</time>
      </trkpt>
      <trkpt lat="43.72429" lon="6.94387">
        <ele>1173.6</ele>
        <time>2016-09-25T11:06:35Z</time>
      </trkpt>
      <trkpt lat="43.72433" lon="6.94387">
        <ele>1173.5</ele>
        <time>2016-09-25T11:06:36Z</time>
      </trkpt>
      <trkpt lat="43.72438" lon="6.94392">
        <ele>1173.1</ele>
        <time>2016-09-25T11:06:37Z</time>
      </trkpt>
      <trkpt lat="43.72443" lon="6.94396">
        <ele>1172.6</ele>
        <time>2016-09-25T11:06:38Z</time>
      </trkpt>
      <trkpt lat="43.72447" lon="6.94401">
        <ele>1172.1</ele>
        <time>2016-09-25T11:06:39Z</time>
      </trkpt>
      <trkpt lat="43.72451" lon="6.94401">
        <ele>1172.1</ele>
        <time>2016-09-25T11:06:40Z</time>
      </trkpt>
      <trkpt lat="43.72455" lon="6.94398">
        <ele>1172.5</ele>
        <time>2016-09-25T11:06:41Z</time>
      </trkpt>
      <trkpt lat="43.72458" lon="6.94396">
        <ele>1172.7</ele>
        <time>2016-09-25T11:06:42Z</time>
      </trkpt>
      <trkpt lat="43.72461" lon="6.94393">
        <ele>1172.6</ele>
        <time>2016-09-25T11:06:43Z</time>
      </trkpt>
      <trkpt lat="43.72464" lon="6.9439">
        <ele>1172.5</ele>
        <time>2016-09-25T11:06:44Z</time>
      </trkpt>
      <trkpt lat="43.72467" lon="6.94387">
        <ele>1172.4</ele>
        <time>2016-09-25T11:06:45Z</time>
      </trkpt>
      <trkpt lat="43.7247" lon="6.94383">
        <ele>1172.3</ele>
        <time>2016-09-25T11:06:46Z</time>
      </trkpt>
      <trkpt lat="43.72474" lon="6.9438">
        <ele>1172.1</ele>
        <time>2016-09-25T11:06:47Z</time>
      </trkpt>
      <trkpt lat="43.72477" lon="6.94376">
        <ele>1172</ele>
        <time>2016-09-25T11:06:48Z</time>
      </trkpt>
      <trkpt lat="43.72481" lon="6.94371">
        <ele>1171.6</ele>
        <time>2016-09-25T11:06:49Z</time>
      </trkpt>
      <trkpt lat="43.72486" lon="6.94367">
        <ele>1171</ele>
        <time>2016-09-25T11:06:50Z</time>
      </trkpt>
      <trkpt lat="43.7249" lon="6.94363">
        <ele>1170.4</ele>
        <time>2016-09-25T11:06:51Z</time>
      </trkpt>
      <trkpt lat="43.72496" lon="6.94362">
        <ele>1169.5</ele>
        <time>2016-09-25T11:06:52Z</time>
      </trkpt>
      <trkpt lat="43.72501" lon="6.94361">
        <ele>1168.8</ele>
        <time>2016-09-25T11:06:53Z</time>
      </trkpt>
      <trkpt lat="43.72503" lon="6.94355">
        <ele>1168.6</ele>
        <time>2016-09-25T11:06:54Z</time>
      </trkpt>
      <trkpt lat="43.72506" lon="6.94351">
        <ele>1168.4</ele>
        <time>2016-09-25T11:06:55Z</time>
      </trkpt>
      <trkpt lat="43.72509" lon="6.94348">
        <ele>1167.9</ele>
        <time>2016-09-25T11:06:56Z</time>
      </trkpt>
      <trkpt lat="43.72512" lon="6.94344">
        <ele>1167.6</ele>
        <time>2016-09-25T11:06:57Z</time>
      </trkpt>
      <trkpt lat="43.72516" lon="6.94339">
        <ele>1167.2</ele>
        <time>2016-09-25T11:06:58Z</time>
      </trkpt>
      <trkpt lat="43.72518" lon="6.94334">
        <ele>1167</ele>
        <time>2016-09-25T11:06:59Z</time>
      </trkpt>
      <trkpt lat="43.72521" lon="6.94329">
        <ele>1166.8</ele>
        <time>2016-09-25T11:07:00Z</time>
      </trkpt>
      <trkpt lat="43.72525" lon="6.94325">
        <ele>1166.3</ele>
        <time>2016-09-25T11:07:01Z</time>
      </trkpt>
      <trkpt lat="43.72531" lon="6.94321">
        <ele>1165.6</ele>
        <time>2016-09-25T11:07:02Z</time>
      </trkpt>
      <trkpt lat="43.72536" lon="6.94319">
        <ele>1164.9</ele>
        <time>2016-09-25T11:07:03Z</time>
      </trkpt>
      <trkpt lat="43.72541" lon="6.94317">
        <ele>1164.2</ele>
        <time>2016-09-25T11:07:04Z</time>
      </trkpt>
      <trkpt lat="43.72547" lon="6.94315">
        <ele>1163.5</ele>
        <time>2016-09-25T11:07:05Z</time>
      </trkpt>
      <trkpt lat="43.72552" lon="6.94313">
        <ele>1162.8</ele>
        <time>2016-09-25T11:07:06Z</time>
      </trkpt>
      <trkpt lat="43.72557" lon="6.94307">
        <ele>1162.4</ele>
        <time>2016-09-25T11:07:07Z</time>
      </trkpt>
      <trkpt lat="43.72561" lon="6.94304">
        <ele>1161.8</ele>
        <time>2016-09-25T11:07:08Z</time>
      </trkpt>
      <trkpt lat="43.72567" lon="6.94298">
        <ele>1161.2</ele>
        <time>2016-09-25T11:07:09Z</time>
      </trkpt>
      <trkpt lat="43.72571" lon="6.94295">
        <ele>1160.7</ele>
        <time>2016-09-25T11:07:10Z</time>
      </trkpt>
      <trkpt lat="43.72574" lon="6.94308">
        <ele>1160</ele>
        <time>2016-09-25T11:07:11Z</time>
      </trkpt>
      <trkpt lat="43.72569" lon="6.94311">
        <ele>1160.6</ele>
        <time>2016-09-25T11:07:12Z</time>
      </trkpt>
      <trkpt lat="43.72569" lon="6.94317">
        <ele>1160.4</ele>
        <time>2016-09-25T11:07:13Z</time>
      </trkpt>
      <trkpt lat="43.7257" lon="6.94324">
        <ele>1160.2</ele>
        <time>2016-09-25T11:07:14Z</time>
      </trkpt>
      <trkpt lat="43.72574" lon="6.94334">
        <ele>1159.5</ele>
        <time>2016-09-25T11:07:15Z</time>
      </trkpt>
      <trkpt lat="43.72575" lon="6.94342">
        <ele>1159.1</ele>
        <time>2016-09-25T11:07:16Z</time>
      </trkpt>
      <trkpt lat="43.72577" lon="6.9435">
        <ele>1158.7</ele>
        <time>2016-09-25T11:07:17Z</time>
      </trkpt>
      <trkpt lat="43.72579" lon="6.94358">
        <ele>1158.3</ele>
        <time>2016-09-25T11:07:18Z</time>
      </trkpt>
      <trkpt lat="43.72579" lon="6.94365">
        <ele>1158.2</ele>
        <time>2016-09-25T11:07:19Z</time>
      </trkpt>
      <trkpt lat="43.72578" lon="6.94373">
        <ele>1158.1</ele>
        <time>2016-09-25T11:07:20Z</time>
      </trkpt>
      <trkpt lat="43.72577" lon="6.9438">
        <ele>1157.8</ele>
        <time>2016-09-25T11:07:21Z</time>
      </trkpt>
      <trkpt lat="43.72575" lon="6.94389">
        <ele>1157.4</ele>
        <time>2016-09-25T11:07:22Z</time>
      </trkpt>
      <trkpt lat="43.72576" lon="6.94394">
        <ele>1156.8</ele>
        <time>2016-09-25T11:07:23Z</time>
      </trkpt>
      <trkpt lat="43.72579" lon="6.94393">
        <ele>1156.6</ele>
        <time>2016-09-25T11:07:24Z</time>
      </trkpt>
      <trkpt lat="43.72582" lon="6.94393">
        <ele>1156.2</ele>
        <time>2016-09-25T11:07:25Z</time>
      </trkpt>
      <trkpt lat="43.72587" lon="6.94394">
        <ele>1155.7</ele>
        <time>2016-09-25T11:07:26Z</time>
      </trkpt>
      <trkpt lat="43.72591" lon="6.94387">
        <ele>1155.7</ele>
        <time>2016-09-25T11:07:28Z</time>
      </trkpt>
      <trkpt lat="43.72593" lon="6.94383">
        <ele>1155.8</ele>
        <time>2016-09-25T11:07:29Z</time>
      </trkpt>
      <trkpt lat="43.72596" lon="6.94378">
        <ele>1155.8</ele>
        <time>2016-09-25T11:07:30Z</time>
      </trkpt>
      <trkpt lat="43.72602" lon="6.94378">
        <ele>1155.2</ele>
        <time>2016-09-25T11:07:31Z</time>
      </trkpt>
      <trkpt lat="43.72605" lon="6.94372">
        <ele>1155.2</ele>
        <time>2016-09-25T11:07:32Z</time>
      </trkpt>
      <trkpt lat="43.72607" lon="6.94367">
        <ele>1155</ele>
        <time>2016-09-25T11:07:33Z</time>
      </trkpt>
      <trkpt lat="43.7261" lon="6.94363">
        <ele>1154.7</ele>
        <time>2016-09-25T11:07:34Z</time>
      </trkpt>
      <trkpt lat="43.72612" lon="6.94359">
        <ele>1154.5</ele>
        <time>2016-09-25T11:07:35Z</time>
      </trkpt>
      <trkpt lat="43.72614" lon="6.94361">
        <ele>1154.2</ele>
        <time>2016-09-25T11:07:36Z</time>
      </trkpt>
      <trkpt lat="43.72618" lon="6.94366">
        <ele>1153.8</ele>
        <time>2016-09-25T11:07:38Z</time>
      </trkpt>
      <trkpt lat="43.72621" lon="6.94367">
        <ele>1153.4</ele>
        <time>2016-09-25T11:07:40Z</time>
      </trkpt>
      <trkpt lat="43.72624" lon="6.94363">
        <ele>1153.2</ele>
        <time>2016-09-25T11:07:44Z</time>
      </trkpt>
      <trkpt lat="43.72627" lon="6.94358">
        <ele>1152.6</ele>
        <time>2016-09-25T11:07:46Z</time>
      </trkpt>
      <trkpt lat="43.72629" lon="6.94356">
        <ele>1152.1</ele>
        <time>2016-09-25T11:07:47Z</time>
      </trkpt>
      <trkpt lat="43.72632" lon="6.94355">
        <ele>1151.5</ele>
        <time>2016-09-25T11:07:48Z</time>
      </trkpt>
      <trkpt lat="43.72636" lon="6.94356">
        <ele>1150.8</ele>
        <time>2016-09-25T11:07:49Z</time>
      </trkpt>
      <trkpt lat="43.7264" lon="6.94359">
        <ele>1149.9</ele>
        <time>2016-09-25T11:07:50Z</time>
      </trkpt>
      <trkpt lat="43.72644" lon="6.94362">
        <ele>1149</ele>
        <time>2016-09-25T11:07:51Z</time>
      </trkpt>
      <trkpt lat="43.72647" lon="6.94364">
        <ele>1148.3</ele>
        <time>2016-09-25T11:07:52Z</time>
      </trkpt>
      <trkpt lat="43.7265" lon="6.9437">
        <ele>1147.5</ele>
        <time>2016-09-25T11:07:53Z</time>
      </trkpt>
      <trkpt lat="43.72651" lon="6.94374">
        <ele>1147</ele>
        <time>2016-09-25T11:07:54Z</time>
      </trkpt>
      <trkpt lat="43.72651" lon="6.94382">
        <ele>1146.4</ele>
        <time>2016-09-25T11:07:55Z</time>
      </trkpt>
      <trkpt lat="43.7265" lon="6.94387">
        <ele>1146.1</ele>
        <time>2016-09-25T11:07:56Z</time>
      </trkpt>
      <trkpt lat="43.72649" lon="6.94391">
        <ele>1146</ele>
        <time>2016-09-25T11:07:57Z</time>
      </trkpt>
      <trkpt lat="43.7265" lon="6.94399">
        <ele>1145</ele>
        <time>2016-09-25T11:07:58Z</time>
      </trkpt>
      <trkpt lat="43.72649" lon="6.94404">
        <ele>1144.7</ele>
        <time>2016-09-25T11:07:59Z</time>
      </trkpt>
      <trkpt lat="43.72655" lon="6.94409">
        <ele>1142.8</ele>
        <time>2016-09-25T11:08:00Z</time>
      </trkpt>
      <trkpt lat="43.72659" lon="6.94412">
        <ele>1141.5</ele>
        <time>2016-09-25T11:08:01Z</time>
      </trkpt>
      <trkpt lat="43.72662" lon="6.94415">
        <ele>1140.5</ele>
        <time>2016-09-25T11:08:02Z</time>
      </trkpt>
      <trkpt lat="43.72681" lon="6.94432">
        <ele>1133.6</ele>
        <time>2016-09-25T11:08:04Z</time>
      </trkpt>
      <trkpt lat="43.72685" lon="6.94438">
        <ele>1131.9</ele>
        <time>2016-09-25T11:08:05Z</time>
      </trkpt>
      <trkpt lat="43.72689" lon="6.94443">
        <ele>1130.2</ele>
        <time>2016-09-25T11:08:06Z</time>
      </trkpt>
      <trkpt lat="43.72691" lon="6.94449">
        <ele>1128.9</ele>
        <time>2016-09-25T11:08:07Z</time>
      </trkpt>
      <trkpt lat="43.72691" lon="6.94454">
        <ele>1128.2</ele>
        <time>2016-09-25T11:08:08Z</time>
      </trkpt>
      <trkpt lat="43.72691" lon="6.94458">
        <ele>1127.9</ele>
        <time>2016-09-25T11:08:09Z</time>
      </trkpt>
      <trkpt lat="43.7269" lon="6.94462">
        <ele>1127.8</ele>
        <time>2016-09-25T11:08:10Z</time>
      </trkpt>
      <trkpt lat="43.72688" lon="6.94465">
        <ele>1127.9</ele>
        <time>2016-09-25T11:08:11Z</time>
      </trkpt>
      <trkpt lat="43.72686" lon="6.9447">
        <ele>1128.2</ele>
        <time>2016-09-25T11:08:12Z</time>
      </trkpt>
      <trkpt lat="43.72683" lon="6.94475">
        <ele>1128.3</ele>
        <time>2016-09-25T11:08:14Z</time>
      </trkpt>
      <trkpt lat="43.72681" lon="6.9448">
        <ele>1128.6</ele>
        <time>2016-09-25T11:08:16Z</time>
      </trkpt>
      <trkpt lat="43.72678" lon="6.94486">
        <ele>1128.7</ele>
        <time>2016-09-25T11:08:18Z</time>
      </trkpt>
      <trkpt lat="43.72677" lon="6.94493">
        <ele>1128.2</ele>
        <time>2016-09-25T11:08:20Z</time>
      </trkpt>
      <trkpt lat="43.72677" lon="6.94497">
        <ele>1127.8</ele>
        <time>2016-09-25T11:08:21Z</time>
      </trkpt>
      <trkpt lat="43.72677" lon="6.94502">
        <ele>1127.3</ele>
        <time>2016-09-25T11:08:22Z</time>
      </trkpt>
      <trkpt lat="43.72678" lon="6.94508">
        <ele>1126.6</ele>
        <time>2016-09-25T11:08:23Z</time>
      </trkpt>
      <trkpt lat="43.72678" lon="6.94514">
        <ele>1125.9</ele>
        <time>2016-09-25T11:08:24Z</time>
      </trkpt>
      <trkpt lat="43.72686" lon="6.94524">
        <ele>1123.2</ele>
        <time>2016-09-25T11:08:25Z</time>
      </trkpt>
      <trkpt lat="43.72689" lon="6.9453">
        <ele>1121.9</ele>
        <time>2016-09-25T11:08:26Z</time>
      </trkpt>
      <trkpt lat="43.72693" lon="6.94538">
        <ele>1120.6</ele>
        <time>2016-09-25T11:08:27Z</time>
      </trkpt>
      <trkpt lat="43.72696" lon="6.94546">
        <ele>1119.4</ele>
        <time>2016-09-25T11:08:28Z</time>
      </trkpt>
      <trkpt lat="43.72697" lon="6.94557">
        <ele>1118.6</ele>
        <time>2016-09-25T11:08:29Z</time>
      </trkpt>
      <trkpt lat="43.72699" lon="6.94565">
        <ele>1117.7</ele>
        <time>2016-09-25T11:08:30Z</time>
      </trkpt>
      <trkpt lat="43.72705" lon="6.94576">
        <ele>1116.4</ele>
        <time>2016-09-25T11:08:31Z</time>
      </trkpt>
      <trkpt lat="43.72711" lon="6.94585">
        <ele>1115.2</ele>
        <time>2016-09-25T11:08:32Z</time>
      </trkpt>
      <trkpt lat="43.72718" lon="6.94589">
        <ele>1114.5</ele>
        <time>2016-09-25T11:08:33Z</time>
      </trkpt>
      <trkpt lat="43.72724" lon="6.94593">
        <ele>1113.7</ele>
        <time>2016-09-25T11:08:34Z</time>
      </trkpt>
      <trkpt lat="43.72729" lon="6.94599">
        <ele>1113</ele>
        <time>2016-09-25T11:08:35Z</time>
      </trkpt>
      <trkpt lat="43.72735" lon="6.94605">
        <ele>1112.2</ele>
        <time>2016-09-25T11:08:36Z</time>
      </trkpt>
      <trkpt lat="43.7274" lon="6.94611">
        <ele>1111.3</ele>
        <time>2016-09-25T11:08:37Z</time>
      </trkpt>
      <trkpt lat="43.72745" lon="6.94613">
        <ele>1110.7</ele>
        <time>2016-09-25T11:08:38Z</time>
      </trkpt>
      <trkpt lat="43.7275" lon="6.94613">
        <ele>1110.2</ele>
        <time>2016-09-25T11:08:41Z</time>
      </trkpt>
      <trkpt lat="43.72752" lon="6.94613">
        <ele>1110</ele>
        <time>2016-09-25T11:09:28Z</time>
      </trkpt>
      <trkpt lat="43.72754" lon="6.94612">
        <ele>1109.9</ele>
        <time>2016-09-25T11:10:48Z</time>
      </trkpt>
      <trkpt lat="43.72756" lon="6.94612">
        <ele>1109.7</ele>
        <time>2016-09-25T11:10:49Z</time>
      </trkpt>
      <trkpt lat="43.72765" lon="6.94614">
        <ele>1108.7</ele>
        <time>2016-09-25T11:10:50Z</time>
      </trkpt>
      <trkpt lat="43.7277" lon="6.94614">
        <ele>1108.2</ele>
        <time>2016-09-25T11:10:51Z</time>
      </trkpt>
      <trkpt lat="43.72775" lon="6.94616">
        <ele>1107.5</ele>
        <time>2016-09-25T11:10:52Z</time>
      </trkpt>
      <trkpt lat="43.7278" lon="6.94622">
        <ele>1106.6</ele>
        <time>2016-09-25T11:10:53Z</time>
      </trkpt>
      <trkpt lat="43.72784" lon="6.94631">
        <ele>1105.5</ele>
        <time>2016-09-25T11:10:54Z</time>
      </trkpt>
      <trkpt lat="43.72788" lon="6.94641">
        <ele>1104.2</ele>
        <time>2016-09-25T11:10:55Z</time>
      </trkpt>
      <trkpt lat="43.72793" lon="6.94651">
        <ele>1103.2</ele>
        <time>2016-09-25T11:10:56Z</time>
      </trkpt>
      <trkpt lat="43.72798" lon="6.94663">
        <ele>1102.2</ele>
        <time>2016-09-25T11:10:57Z</time>
      </trkpt>
      <trkpt lat="43.72804" lon="6.94673">
        <ele>1101.4</ele>
        <time>2016-09-25T11:10:58Z</time>
      </trkpt>
      <trkpt lat="43.72809" lon="6.94683">
        <ele>1100.6</ele>
        <time>2016-09-25T11:10:59Z</time>
      </trkpt>
      <trkpt lat="43.72814" lon="6.94692">
        <ele>1099.8</ele>
        <time>2016-09-25T11:11:00Z</time>
      </trkpt>
      <trkpt lat="43.72819" lon="6.947">
        <ele>1099</ele>
        <time>2016-09-25T11:11:01Z</time>
      </trkpt>
      <trkpt lat="43.72825" lon="6.94708">
        <ele>1098.2</ele>
        <time>2016-09-25T11:11:02Z</time>
      </trkpt>
      <trkpt lat="43.72832" lon="6.94716">
        <ele>1097.5</ele>
        <time>2016-09-25T11:11:03Z</time>
      </trkpt>
      <trkpt lat="43.72838" lon="6.94724">
        <ele>1096.7</ele>
        <time>2016-09-25T11:11:04Z</time>
      </trkpt>
      <trkpt lat="43.72844" lon="6.94732">
        <ele>1095.9</ele>
        <time>2016-09-25T11:11:05Z</time>
      </trkpt>
      <trkpt lat="43.72849" lon="6.94741">
        <ele>1095</ele>
        <time>2016-09-25T11:11:06Z</time>
      </trkpt>
      <trkpt lat="43.72855" lon="6.94749">
        <ele>1094.2</ele>
        <time>2016-09-25T11:11:07Z</time>
      </trkpt>
      <trkpt lat="43.72861" lon="6.94754">
        <ele>1093.6</ele>
        <time>2016-09-25T11:11:08Z</time>
      </trkpt>
      <trkpt lat="43.72867" lon="6.94756">
        <ele>1093.3</ele>
        <time>2016-09-25T11:11:09Z</time>
      </trkpt>
      <trkpt lat="43.72874" lon="6.94757">
        <ele>1093</ele>
        <time>2016-09-25T11:11:10Z</time>
      </trkpt>
      <trkpt lat="43.7288" lon="6.94757">
        <ele>1092.9</ele>
        <time>2016-09-25T11:11:11Z</time>
      </trkpt>
      <trkpt lat="43.72885" lon="6.9476">
        <ele>1092.6</ele>
        <time>2016-09-25T11:11:12Z</time>
      </trkpt>
      <trkpt lat="43.7289" lon="6.94765">
        <ele>1092.1</ele>
        <time>2016-09-25T11:11:13Z</time>
      </trkpt>
      <trkpt lat="43.72895" lon="6.94773">
        <ele>1091.4</ele>
        <time>2016-09-25T11:11:14Z</time>
      </trkpt>
      <trkpt lat="43.729" lon="6.94778">
        <ele>1090.9</ele>
        <time>2016-09-25T11:11:15Z</time>
      </trkpt>
      <trkpt lat="43.72908" lon="6.94778">
        <ele>1090.8</ele>
        <time>2016-09-25T11:11:16Z</time>
      </trkpt>
      <trkpt lat="43.72916" lon="6.94778">
        <ele>1090.8</ele>
        <time>2016-09-25T11:11:17Z</time>
      </trkpt>
      <trkpt lat="43.72923" lon="6.94781">
        <ele>1090.4</ele>
        <time>2016-09-25T11:11:18Z</time>
      </trkpt>
      <trkpt lat="43.72928" lon="6.94785">
        <ele>1090</ele>
        <time>2016-09-25T11:11:19Z</time>
      </trkpt>
      <trkpt lat="43.72935" lon="6.94789">
        <ele>1089.6</ele>
        <time>2016-09-25T11:11:20Z</time>
      </trkpt>
      <trkpt lat="43.7294" lon="6.94791">
        <ele>1089.3</ele>
        <time>2016-09-25T11:11:21Z</time>
      </trkpt>
      <trkpt lat="43.72947" lon="6.94792">
        <ele>1089.1</ele>
        <time>2016-09-25T11:11:22Z</time>
      </trkpt>
      <trkpt lat="43.72952" lon="6.94794">
        <ele>1088.9</ele>
        <time>2016-09-25T11:11:23Z</time>
      </trkpt>
      <trkpt lat="43.72957" lon="6.94795">
        <ele>1088.8</ele>
        <time>2016-09-25T11:11:24Z</time>
      </trkpt>
      <trkpt lat="43.72961" lon="6.94799">
        <ele>1088.2</ele>
        <time>2016-09-25T11:11:25Z</time>
      </trkpt>
      <trkpt lat="43.72962" lon="6.94806">
        <ele>1087.6</ele>
        <time>2016-09-25T11:11:26Z</time>
      </trkpt>
      <trkpt lat="43.72964" lon="6.94812">
        <ele>1086.9</ele>
        <time>2016-09-25T11:11:27Z</time>
      </trkpt>
      <trkpt lat="43.72965" lon="6.94824">
        <ele>1085.9</ele>
        <time>2016-09-25T11:11:28Z</time>
      </trkpt>
      <trkpt lat="43.72972" lon="6.94833">
        <ele>1084.5</ele>
        <time>2016-09-25T11:11:29Z</time>
      </trkpt>
      <trkpt lat="43.72974" lon="6.94841">
        <ele>1083.7</ele>
        <time>2016-09-25T11:11:30Z</time>
      </trkpt>
      <trkpt lat="43.72977" lon="6.94849">
        <ele>1082.8</ele>
        <time>2016-09-25T11:11:31Z</time>
      </trkpt>
      <trkpt lat="43.7298" lon="6.94856">
        <ele>1081.9</ele>
        <time>2016-09-25T11:11:32Z</time>
      </trkpt>
      <trkpt lat="43.72986" lon="6.94857">
        <ele>1081.4</ele>
        <time>2016-09-25T11:11:34Z</time>
      </trkpt>
      <trkpt lat="43.7299" lon="6.94861">
        <ele>1080.6</ele>
        <time>2016-09-25T11:11:35Z</time>
      </trkpt>
      <trkpt lat="43.72993" lon="6.94867">
        <ele>1079.9</ele>
        <time>2016-09-25T11:11:36Z</time>
      </trkpt>
      <trkpt lat="43.72995" lon="6.94873">
        <ele>1079.1</ele>
        <time>2016-09-25T11:11:37Z</time>
      </trkpt>
      <trkpt lat="43.72996" lon="6.9488">
        <ele>1078.4</ele>
        <time>2016-09-25T11:11:38Z</time>
      </trkpt>
      <trkpt lat="43.72999" lon="6.94886">
        <ele>1077.6</ele>
        <time>2016-09-25T11:11:39Z</time>
      </trkpt>
      <trkpt lat="43.73002" lon="6.9489">
        <ele>1076.9</ele>
        <time>2016-09-25T11:11:40Z</time>
      </trkpt>
      <trkpt lat="43.73006" lon="6.94897">
        <ele>1075.9</ele>
        <time>2016-09-25T11:11:41Z</time>
      </trkpt>
      <trkpt lat="43.73009" lon="6.94904">
        <ele>1074.9</ele>
        <time>2016-09-25T11:11:42Z</time>
      </trkpt>
      <trkpt lat="43.73009" lon="6.94909">
        <ele>1074.4</ele>
        <time>2016-09-25T11:11:43Z</time>
      </trkpt>
      <trkpt lat="43.7301" lon="6.94914">
        <ele>1073.7</ele>
        <time>2016-09-25T11:11:44Z</time>
      </trkpt>
      <trkpt lat="43.73011" lon="6.9492">
        <ele>1073.1</ele>
        <time>2016-09-25T11:11:45Z</time>
      </trkpt>
      <trkpt lat="43.73012" lon="6.94926">
        <ele>1072.4</ele>
        <time>2016-09-25T11:11:46Z</time>
      </trkpt>
      <trkpt lat="43.73013" lon="6.94933">
        <ele>1071.6</ele>
        <time>2016-09-25T11:11:47Z</time>
      </trkpt>
      <trkpt lat="43.73015" lon="6.9494">
        <ele>1070.8</ele>
        <time>2016-09-25T11:11:48Z</time>
      </trkpt>
      <trkpt lat="43.73015" lon="6.94947">
        <ele>1070.1</ele>
        <time>2016-09-25T11:11:49Z</time>
      </trkpt>
      <trkpt lat="43.73015" lon="6.94953">
        <ele>1069.5</ele>
        <time>2016-09-25T11:11:50Z</time>
      </trkpt>
      <trkpt lat="43.73012" lon="6.94959">
        <ele>1069.1</ele>
        <time>2016-09-25T11:11:51Z</time>
      </trkpt>
      <trkpt lat="43.73008" lon="6.94965">
        <ele>1068.9</ele>
        <time>2016-09-25T11:11:52Z</time>
      </trkpt>
      <trkpt lat="43.73005" lon="6.94969">
        <ele>1068.7</ele>
        <time>2016-09-25T11:11:53Z</time>
      </trkpt>
      <trkpt lat="43.73004" lon="6.94975">
        <ele>1068.2</ele>
        <time>2016-09-25T11:11:54Z</time>
      </trkpt>
      <trkpt lat="43.73005" lon="6.94983">
        <ele>1067.1</ele>
        <time>2016-09-25T11:11:55Z</time>
      </trkpt>
      <trkpt lat="43.73006" lon="6.94991">
        <ele>1066.2</ele>
        <time>2016-09-25T11:11:56Z</time>
      </trkpt>
      <trkpt lat="43.73004" lon="6.94997">
        <ele>1065.7</ele>
        <time>2016-09-25T11:11:57Z</time>
      </trkpt>
      <trkpt lat="43.73003" lon="6.95005">
        <ele>1064.8</ele>
        <time>2016-09-25T11:11:58Z</time>
      </trkpt>
      <trkpt lat="43.73004" lon="6.95013">
        <ele>1063.7</ele>
        <time>2016-09-25T11:11:59Z</time>
      </trkpt>
      <trkpt lat="43.73007" lon="6.9502">
        <ele>1062.7</ele>
        <time>2016-09-25T11:12:00Z</time>
      </trkpt>
      <trkpt lat="43.73007" lon="6.95027">
        <ele>1061.9</ele>
        <time>2016-09-25T11:12:01Z</time>
      </trkpt>
      <trkpt lat="43.73004" lon="6.95031">
        <ele>1061.8</ele>
        <time>2016-09-25T11:12:02Z</time>
      </trkpt>
      <trkpt lat="43.73" lon="6.95036">
        <ele>1061.7</ele>
        <time>2016-09-25T11:12:03Z</time>
      </trkpt>
      <trkpt lat="43.72997" lon="6.9504">
        <ele>1061.6</ele>
        <time>2016-09-25T11:12:04Z</time>
      </trkpt>
      <trkpt lat="43.72995" lon="6.95044">
        <ele>1061.3</ele>
        <time>2016-09-25T11:12:05Z</time>
      </trkpt>
      <trkpt lat="43.72994" lon="6.95049">
        <ele>1060.6</ele>
        <time>2016-09-25T11:12:06Z</time>
      </trkpt>
      <trkpt lat="43.72997" lon="6.95057">
        <ele>1058.9</ele>
        <time>2016-09-25T11:12:07Z</time>
      </trkpt>
      <trkpt lat="43.72997" lon="6.95065">
        <ele>1057.7</ele>
        <time>2016-09-25T11:12:08Z</time>
      </trkpt>
      <trkpt lat="43.73001" lon="6.95071">
        <ele>1056.4</ele>
        <time>2016-09-25T11:12:09Z</time>
      </trkpt>
      <trkpt lat="43.73003" lon="6.95078">
        <ele>1055</ele>
        <time>2016-09-25T11:12:10Z</time>
      </trkpt>
      <trkpt lat="43.73004" lon="6.95086">
        <ele>1053.7</ele>
        <time>2016-09-25T11:12:11Z</time>
      </trkpt>
      <trkpt lat="43.73002" lon="6.95094">
        <ele>1052.7</ele>
        <time>2016-09-25T11:12:12Z</time>
      </trkpt>
      <trkpt lat="43.73" lon="6.95098">
        <ele>1052.2</ele>
        <time>2016-09-25T11:12:13Z</time>
      </trkpt>
      <trkpt lat="43.72995" lon="6.951">
        <ele>1052.3</ele>
        <time>2016-09-25T11:12:14Z</time>
      </trkpt>
      <trkpt lat="43.72992" lon="6.95103">
        <ele>1052.1</ele>
        <time>2016-09-25T11:12:15Z</time>
      </trkpt>
      <trkpt lat="43.72994" lon="6.95108">
        <ele>1051.1</ele>
        <time>2016-09-25T11:12:17Z</time>
      </trkpt>
      <trkpt lat="43.72998" lon="6.95111">
        <ele>1050.4</ele>
        <time>2016-09-25T11:12:19Z</time>
      </trkpt>
      <trkpt lat="43.73001" lon="6.95116">
        <ele>1049.3</ele>
        <time>2016-09-25T11:12:20Z</time>
      </trkpt>
      <trkpt lat="43.73005" lon="6.95121">
        <ele>1048.2</ele>
        <time>2016-09-25T11:12:21Z</time>
      </trkpt>
      <trkpt lat="43.73011" lon="6.95125">
        <ele>1047.2</ele>
        <time>2016-09-25T11:12:22Z</time>
      </trkpt>
      <trkpt lat="43.73017" lon="6.95128">
        <ele>1046.5</ele>
        <time>2016-09-25T11:12:23Z</time>
      </trkpt>
      <trkpt lat="43.73022" lon="6.95133">
        <ele>1045.6</ele>
        <time>2016-09-25T11:12:24Z</time>
      </trkpt>
      <trkpt lat="43.73028" lon="6.95138">
        <ele>1044.7</ele>
        <time>2016-09-25T11:12:25Z</time>
      </trkpt>
      <trkpt lat="43.73028" lon="6.95144">
        <ele>1044.1</ele>
        <time>2016-09-25T11:12:26Z</time>
      </trkpt>
      <trkpt lat="43.73029" lon="6.9515">
        <ele>1043.5</ele>
        <time>2016-09-25T11:12:27Z</time>
      </trkpt>
      <trkpt lat="43.73028" lon="6.95157">
        <ele>1042.9</ele>
        <time>2016-09-25T11:12:28Z</time>
      </trkpt>
      <trkpt lat="43.73029" lon="6.95165">
        <ele>1042.1</ele>
        <time>2016-09-25T11:12:29Z</time>
      </trkpt>
      <trkpt lat="43.7303" lon="6.95172">
        <ele>1041.2</ele>
        <time>2016-09-25T11:12:30Z</time>
      </trkpt>
      <trkpt lat="43.73034" lon="6.9518">
        <ele>1040.3</ele>
        <time>2016-09-25T11:12:31Z</time>
      </trkpt>
      <trkpt lat="43.73037" lon="6.95186">
        <ele>1039.5</ele>
        <time>2016-09-25T11:12:32Z</time>
      </trkpt>
      <trkpt lat="43.73038" lon="6.95193">
        <ele>1038.7</ele>
        <time>2016-09-25T11:12:33Z</time>
      </trkpt>
      <trkpt lat="43.73041" lon="6.95201">
        <ele>1037.7</ele>
        <time>2016-09-25T11:12:34Z</time>
      </trkpt>
      <trkpt lat="43.73042" lon="6.95211">
        <ele>1036.5</ele>
        <time>2016-09-25T11:12:35Z</time>
      </trkpt>
      <trkpt lat="43.7304" lon="6.95222">
        <ele>1035.2</ele>
        <time>2016-09-25T11:12:36Z</time>
      </trkpt>
      <trkpt lat="43.73039" lon="6.95232">
        <ele>1033.8</ele>
        <time>2016-09-25T11:12:37Z</time>
      </trkpt>
      <trkpt lat="43.73038" lon="6.95244">
        <ele>1032.1</ele>
        <time>2016-09-25T11:12:38Z</time>
      </trkpt>
      <trkpt lat="43.73033" lon="6.95255">
        <ele>1030.8</ele>
        <time>2016-09-25T11:12:39Z</time>
      </trkpt>
      <trkpt lat="43.73029" lon="6.95265">
        <ele>1029.5</ele>
        <time>2016-09-25T11:12:40Z</time>
      </trkpt>
      <trkpt lat="43.73025" lon="6.95276">
        <ele>1028.1</ele>
        <time>2016-09-25T11:12:41Z</time>
      </trkpt>
      <trkpt lat="43.73022" lon="6.95286">
        <ele>1026.8</ele>
        <time>2016-09-25T11:12:42Z</time>
      </trkpt>
      <trkpt lat="43.7302" lon="6.95297">
        <ele>1025.5</ele>
        <time>2016-09-25T11:12:43Z</time>
      </trkpt>
      <trkpt lat="43.7302" lon="6.95305">
        <ele>1024.6</ele>
        <time>2016-09-25T11:12:44Z</time>
      </trkpt>
      <trkpt lat="43.73024" lon="6.95309">
        <ele>1024</ele>
        <time>2016-09-25T11:12:45Z</time>
      </trkpt>
      <trkpt lat="43.73029" lon="6.95308">
        <ele>1023.8</ele>
        <time>2016-09-25T11:12:46Z</time>
      </trkpt>
      <trkpt lat="43.73035" lon="6.95305">
        <ele>1023.9</ele>
        <time>2016-09-25T11:12:47Z</time>
      </trkpt>
      <trkpt lat="43.73039" lon="6.95303">
        <ele>1023.9</ele>
        <time>2016-09-25T11:12:48Z</time>
      </trkpt>
      <trkpt lat="43.73043" lon="6.95304">
        <ele>1023.6</ele>
        <time>2016-09-25T11:12:49Z</time>
      </trkpt>
      <trkpt lat="43.73047" lon="6.95304">
        <ele>1023.6</ele>
        <time>2016-09-25T11:12:50Z</time>
      </trkpt>
      <trkpt lat="43.73049" lon="6.95302">
        <ele>1023.7</ele>
        <time>2016-09-25T11:12:51Z</time>
      </trkpt>
      <trkpt lat="43.73053" lon="6.95301">
        <ele>1023.7</ele>
        <time>2016-09-25T11:12:52Z</time>
      </trkpt>
      <trkpt lat="43.73056" lon="6.95301">
        <ele>1023.6</ele>
        <time>2016-09-25T11:12:54Z</time>
      </trkpt>
      <trkpt lat="43.7306" lon="6.95301">
        <ele>1023.6</ele>
        <time>2016-09-25T11:13:10Z</time>
      </trkpt>
      <trkpt lat="43.73064" lon="6.95301">
        <ele>1023.5</ele>
        <time>2016-09-25T11:13:12Z</time>
      </trkpt>
      <trkpt lat="43.73068" lon="6.95302">
        <ele>1023.2</ele>
        <time>2016-09-25T11:13:14Z</time>
      </trkpt>
      <trkpt lat="43.73073" lon="6.95306">
        <ele>1022.7</ele>
        <time>2016-09-25T11:13:16Z</time>
      </trkpt>
      <trkpt lat="43.73076" lon="6.9531">
        <ele>1022.1</ele>
        <time>2016-09-25T11:13:17Z</time>
      </trkpt>
      <trkpt lat="43.73083" lon="6.95319">
        <ele>1020.9</ele>
        <time>2016-09-25T11:13:18Z</time>
      </trkpt>
      <trkpt lat="43.73088" lon="6.95323">
        <ele>1020.3</ele>
        <time>2016-09-25T11:13:19Z</time>
      </trkpt>
      <trkpt lat="43.73093" lon="6.95326">
        <ele>1019.8</ele>
        <time>2016-09-25T11:13:20Z</time>
      </trkpt>
      <trkpt lat="43.73097" lon="6.95327">
        <ele>1019.6</ele>
        <time>2016-09-25T11:13:21Z</time>
      </trkpt>
      <trkpt lat="43.73099" lon="6.95329">
        <ele>1019.3</ele>
        <time>2016-09-25T11:13:22Z</time>
      </trkpt>
      <trkpt lat="43.73102" lon="6.95335">
        <ele>1018.6</ele>
        <time>2016-09-25T11:13:23Z</time>
      </trkpt>
      <trkpt lat="43.73103" lon="6.95343">
        <ele>1017.5</ele>
        <time>2016-09-25T11:13:24Z</time>
      </trkpt>
      <trkpt lat="43.73103" lon="6.95349">
        <ele>1016.8</ele>
        <time>2016-09-25T11:13:25Z</time>
      </trkpt>
      <trkpt lat="43.73101" lon="6.95355">
        <ele>1016.2</ele>
        <time>2016-09-25T11:13:26Z</time>
      </trkpt>
      <trkpt lat="43.73098" lon="6.9536">
        <ele>1015.7</ele>
        <time>2016-09-25T11:13:27Z</time>
      </trkpt>
      <trkpt lat="43.73096" lon="6.95367">
        <ele>1015</ele>
        <time>2016-09-25T11:13:28Z</time>
      </trkpt>
      <trkpt lat="43.73093" lon="6.95375">
        <ele>1014.1</ele>
        <time>2016-09-25T11:13:29Z</time>
      </trkpt>
      <trkpt lat="43.73089" lon="6.95383">
        <ele>1012.7</ele>
        <time>2016-09-25T11:13:30Z</time>
      </trkpt>
      <trkpt lat="43.73086" lon="6.95389">
        <ele>1011.5</ele>
        <time>2016-09-25T11:13:31Z</time>
      </trkpt>
      <trkpt lat="43.73084" lon="6.95395">
        <ele>1010.5</ele>
        <time>2016-09-25T11:13:32Z</time>
      </trkpt>
      <trkpt lat="43.73084" lon="6.95401">
        <ele>1009.1</ele>
        <time>2016-09-25T11:13:33Z</time>
      </trkpt>
      <trkpt lat="43.73087" lon="6.95408">
        <ele>1007.8</ele>
        <time>2016-09-25T11:13:34Z</time>
      </trkpt>
      <trkpt lat="43.73089" lon="6.95414">
        <ele>1006.4</ele>
        <time>2016-09-25T11:13:35Z</time>
      </trkpt>
      <trkpt lat="43.73089" lon="6.9542">
        <ele>1005.2</ele>
        <time>2016-09-25T11:13:36Z</time>
      </trkpt>
      <trkpt lat="43.73087" lon="6.95426">
        <ele>1004</ele>
        <time>2016-09-25T11:13:37Z</time>
      </trkpt>
      <trkpt lat="43.73084" lon="6.95432">
        <ele>1002.8</ele>
        <time>2016-09-25T11:13:38Z</time>
      </trkpt>
      <trkpt lat="43.73081" lon="6.95439">
        <ele>1001.6</ele>
        <time>2016-09-25T11:13:39Z</time>
      </trkpt>
      <trkpt lat="43.73076" lon="6.95445">
        <ele>1000.4</ele>
        <time>2016-09-25T11:13:40Z</time>
      </trkpt>
      <trkpt lat="43.73073" lon="6.9545">
        <ele>999.5</ele>
        <time>2016-09-25T11:13:41Z</time>
      </trkpt>
      <trkpt lat="43.73071" lon="6.95453">
        <ele>998.8</ele>
        <time>2016-09-25T11:13:42Z</time>
      </trkpt>
      <trkpt lat="43.73072" lon="6.95458">
        <ele>997.8</ele>
        <time>2016-09-25T11:13:43Z</time>
      </trkpt>
      <trkpt lat="43.73074" lon="6.95461">
        <ele>997.1</ele>
        <time>2016-09-25T11:13:44Z</time>
      </trkpt>
      <trkpt lat="43.7308" lon="6.95462">
        <ele>996.7</ele>
        <time>2016-09-25T11:13:45Z</time>
      </trkpt>
      <trkpt lat="43.73084" lon="6.95463">
        <ele>996.5</ele>
        <time>2016-09-25T11:13:46Z</time>
      </trkpt>
      <trkpt lat="43.73089" lon="6.95463">
        <ele>996.3</ele>
        <time>2016-09-25T11:13:47Z</time>
      </trkpt>
      <trkpt lat="43.73095" lon="6.95462">
        <ele>996.5</ele>
        <time>2016-09-25T11:13:48Z</time>
      </trkpt>
      <trkpt lat="43.73101" lon="6.95464">
        <ele>996.1</ele>
        <time>2016-09-25T11:13:49Z</time>
      </trkpt>
      <trkpt lat="43.73107" lon="6.95467">
        <ele>995.4</ele>
        <time>2016-09-25T11:13:50Z</time>
      </trkpt>
      <trkpt lat="43.73114" lon="6.95467">
        <ele>995.2</ele>
        <time>2016-09-25T11:13:51Z</time>
      </trkpt>
      <trkpt lat="43.7312" lon="6.95467">
        <ele>995.2</ele>
        <time>2016-09-25T11:13:52Z</time>
      </trkpt>
      <trkpt lat="43.73125" lon="6.95469">
        <ele>994.8</ele>
        <time>2016-09-25T11:13:53Z</time>
      </trkpt>
      <trkpt lat="43.73129" lon="6.95472">
        <ele>993.5</ele>
        <time>2016-09-25T11:13:54Z</time>
      </trkpt>
      <trkpt lat="43.73132" lon="6.95479">
        <ele>991.6</ele>
        <time>2016-09-25T11:13:55Z</time>
      </trkpt>
      <trkpt lat="43.73135" lon="6.95485">
        <ele>989.8</ele>
        <time>2016-09-25T11:13:56Z</time>
      </trkpt>
      <trkpt lat="43.73135" lon="6.9549">
        <ele>988.9</ele>
        <time>2016-09-25T11:13:57Z</time>
      </trkpt>
      <trkpt lat="43.73135" lon="6.95494">
        <ele>988</ele>
        <time>2016-09-25T11:13:58Z</time>
      </trkpt>
      <trkpt lat="43.73128" lon="6.95491">
        <ele>989.9</ele>
        <time>2016-09-25T11:13:59Z</time>
      </trkpt>
      <trkpt lat="43.73128" lon="6.95496">
        <ele>988.7</ele>
        <time>2016-09-25T11:14:01Z</time>
      </trkpt>
      <trkpt lat="43.73128" lon="6.95501">
        <ele>987.8</ele>
        <time>2016-09-25T11:14:02Z</time>
      </trkpt>
      <trkpt lat="43.73127" lon="6.95511">
        <ele>986</ele>
        <time>2016-09-25T11:14:04Z</time>
      </trkpt>
      <trkpt lat="43.73124" lon="6.95518">
        <ele>984.7</ele>
        <time>2016-09-25T11:14:05Z</time>
      </trkpt>
      <trkpt lat="43.7312" lon="6.95526">
        <ele>983</ele>
        <time>2016-09-25T11:14:06Z</time>
      </trkpt>
      <trkpt lat="43.73118" lon="6.95532">
        <ele>981.7</ele>
        <time>2016-09-25T11:14:07Z</time>
      </trkpt>
      <trkpt lat="43.73117" lon="6.95537">
        <ele>980.8</ele>
        <time>2016-09-25T11:14:08Z</time>
      </trkpt>
      <trkpt lat="43.73116" lon="6.95542">
        <ele>979.6</ele>
        <time>2016-09-25T11:14:10Z</time>
      </trkpt>
      <trkpt lat="43.73122" lon="6.95546">
        <ele>978.9</ele>
        <time>2016-09-25T11:14:11Z</time>
      </trkpt>
      <trkpt lat="43.73127" lon="6.95547">
        <ele>978.3</ele>
        <time>2016-09-25T11:14:13Z</time>
      </trkpt>
      <trkpt lat="43.73135" lon="6.95543">
        <ele>977.5</ele>
        <time>2016-09-25T11:14:15Z</time>
      </trkpt>
      <trkpt lat="43.73141" lon="6.95544">
        <ele>976.3</ele>
        <time>2016-09-25T11:14:16Z</time>
      </trkpt>
      <trkpt lat="43.73145" lon="6.95544">
        <ele>975.2</ele>
        <time>2016-09-25T11:14:17Z</time>
      </trkpt>
      <trkpt lat="43.7315" lon="6.95545">
        <ele>974.1</ele>
        <time>2016-09-25T11:14:18Z</time>
      </trkpt>
      <trkpt lat="43.73154" lon="6.95546">
        <ele>973</ele>
        <time>2016-09-25T11:14:19Z</time>
      </trkpt>
      <trkpt lat="43.73158" lon="6.95546">
        <ele>972.1</ele>
        <time>2016-09-25T11:14:20Z</time>
      </trkpt>
      <trkpt lat="43.73169" lon="6.95546">
        <ele>970</ele>
        <time>2016-09-25T11:14:21Z</time>
      </trkpt>
      <trkpt lat="43.73175" lon="6.95546">
        <ele>968.7</ele>
        <time>2016-09-25T11:14:22Z</time>
      </trkpt>
      <trkpt lat="43.73179" lon="6.95547">
        <ele>967.6</ele>
        <time>2016-09-25T11:14:23Z</time>
      </trkpt>
      <trkpt lat="43.73182" lon="6.9555">
        <ele>966.2</ele>
        <time>2016-09-25T11:14:24Z</time>
      </trkpt>
      <trkpt lat="43.73184" lon="6.95553">
        <ele>965.1</ele>
        <time>2016-09-25T11:14:25Z</time>
      </trkpt>
      <trkpt lat="43.73188" lon="6.95554">
        <ele>964.1</ele>
        <time>2016-09-25T11:14:26Z</time>
      </trkpt>
      <trkpt lat="43.73191" lon="6.95555">
        <ele>963.2</ele>
        <time>2016-09-25T11:14:27Z</time>
      </trkpt>
      <trkpt lat="43.73197" lon="6.95559">
        <ele>960.9</ele>
        <time>2016-09-25T11:14:29Z</time>
      </trkpt>
      <trkpt lat="43.732" lon="6.9556">
        <ele>960.1</ele>
        <time>2016-09-25T11:14:30Z</time>
      </trkpt>
      <trkpt lat="43.73207" lon="6.95561">
        <ele>958.5</ele>
        <time>2016-09-25T11:14:34Z</time>
      </trkpt>
      <trkpt lat="43.7321" lon="6.95561">
        <ele>957.8</ele>
        <time>2016-09-25T11:14:36Z</time>
      </trkpt>
      <trkpt lat="43.73212" lon="6.95562">
        <ele>957</ele>
        <time>2016-09-25T11:14:37Z</time>
      </trkpt>
      <trkpt lat="43.73218" lon="6.95561">
        <ele>955.7</ele>
        <time>2016-09-25T11:14:38Z</time>
      </trkpt>
      <trkpt lat="43.73231" lon="6.9556">
        <ele>952.6</ele>
        <time>2016-09-25T11:14:39Z</time>
      </trkpt>
      <trkpt lat="43.73236" lon="6.95558">
        <ele>951.6</ele>
        <time>2016-09-25T11:14:40Z</time>
      </trkpt>
      <trkpt lat="43.73242" lon="6.95558">
        <ele>950.2</ele>
        <time>2016-09-25T11:14:41Z</time>
      </trkpt>
      <trkpt lat="43.73248" lon="6.95557">
        <ele>948.8</ele>
        <time>2016-09-25T11:14:42Z</time>
      </trkpt>
      <trkpt lat="43.73251" lon="6.95556">
        <ele>948.3</ele>
        <time>2016-09-25T11:14:43Z</time>
      </trkpt>
      <trkpt lat="43.73253" lon="6.95553">
        <ele>948.4</ele>
        <time>2016-09-25T11:14:44Z</time>
      </trkpt>
      <trkpt lat="43.73256" lon="6.9555">
        <ele>948.3</ele>
        <time>2016-09-25T11:14:45Z</time>
      </trkpt>
      <trkpt lat="43.7326" lon="6.95548">
        <ele>948</ele>
        <time>2016-09-25T11:14:46Z</time>
      </trkpt>
      <trkpt lat="43.73262" lon="6.95546">
        <ele>947.7</ele>
        <time>2016-09-25T11:14:47Z</time>
      </trkpt>
      <trkpt lat="43.73268" lon="6.95546">
        <ele>946.2</ele>
        <time>2016-09-25T11:14:48Z</time>
      </trkpt>
      <trkpt lat="43.73274" lon="6.95544">
        <ele>945.4</ele>
        <time>2016-09-25T11:14:49Z</time>
      </trkpt>
      <trkpt lat="43.73278" lon="6.95542">
        <ele>944.5</ele>
        <time>2016-09-25T11:14:50Z</time>
      </trkpt>
      <trkpt lat="43.73282" lon="6.95539">
        <ele>944.2</ele>
        <time>2016-09-25T11:14:52Z</time>
      </trkpt>
      <trkpt lat="43.73284" lon="6.95534">
        <ele>944.9</ele>
        <time>2016-09-25T11:14:55Z</time>
      </trkpt>
      <trkpt lat="43.73287" lon="6.95531">
        <ele>944.7</ele>
        <time>2016-09-25T11:14:57Z</time>
      </trkpt>
      <trkpt lat="43.7329" lon="6.95527">
        <ele>944.8</ele>
        <time>2016-09-25T11:14:59Z</time>
      </trkpt>
      <trkpt lat="43.73294" lon="6.95523">
        <ele>944.5</ele>
        <time>2016-09-25T11:15:01Z</time>
      </trkpt>
      <trkpt lat="43.73299" lon="6.9552">
        <ele>943.9</ele>
        <time>2016-09-25T11:15:03Z</time>
      </trkpt>
      <trkpt lat="43.73302" lon="6.95518">
        <ele>943.4</ele>
        <time>2016-09-25T11:15:04Z</time>
      </trkpt>
      <trkpt lat="43.73306" lon="6.95517">
        <ele>942.7</ele>
        <time>2016-09-25T11:15:05Z</time>
      </trkpt>
      <trkpt lat="43.7331" lon="6.95515">
        <ele>942</ele>
        <time>2016-09-25T11:15:06Z</time>
      </trkpt>
      <trkpt lat="43.73313" lon="6.95513">
        <ele>941.6</ele>
        <time>2016-09-25T11:15:07Z</time>
      </trkpt>
      <trkpt lat="43.73315" lon="6.9551">
        <ele>941.6</ele>
        <time>2016-09-25T11:15:08Z</time>
      </trkpt>
      <trkpt lat="43.73317" lon="6.95507">
        <ele>941.7</ele>
        <time>2016-09-25T11:15:09Z</time>
      </trkpt>
      <trkpt lat="43.73322" lon="6.95504">
        <ele>940.8</ele>
        <time>2016-09-25T11:15:11Z</time>
      </trkpt>
      <trkpt lat="43.73325" lon="6.95502">
        <ele>940.2</ele>
        <time>2016-09-25T11:15:12Z</time>
      </trkpt>
      <trkpt lat="43.73333" lon="6.955">
        <ele>938.5</ele>
        <time>2016-09-25T11:15:13Z</time>
      </trkpt>
      <trkpt lat="43.73338" lon="6.95501">
        <ele>936.9</ele>
        <time>2016-09-25T11:15:14Z</time>
      </trkpt>
      <trkpt lat="43.7334" lon="6.95505">
        <ele>935.4</ele>
        <time>2016-09-25T11:15:15Z</time>
      </trkpt>
      <trkpt lat="43.73341" lon="6.9551">
        <ele>934.2</ele>
        <time>2016-09-25T11:15:16Z</time>
      </trkpt>
      <trkpt lat="43.7334" lon="6.95517">
        <ele>933.2</ele>
        <time>2016-09-25T11:15:17Z</time>
      </trkpt>
      <trkpt lat="43.7334" lon="6.95523">
        <ele>932.2</ele>
        <time>2016-09-25T11:15:18Z</time>
      </trkpt>
      <trkpt lat="43.73343" lon="6.95528">
        <ele>930.4</ele>
        <time>2016-09-25T11:15:19Z</time>
      </trkpt>
      <trkpt lat="43.73346" lon="6.95532">
        <ele>929.2</ele>
        <time>2016-09-25T11:15:20Z</time>
      </trkpt>
      <trkpt lat="43.73351" lon="6.95536">
        <ele>927.1</ele>
        <time>2016-09-25T11:15:21Z</time>
      </trkpt>
      <trkpt lat="43.73355" lon="6.9554">
        <ele>925.3</ele>
        <time>2016-09-25T11:15:22Z</time>
      </trkpt>
      <trkpt lat="43.73359" lon="6.95546">
        <ele>923.4</ele>
        <time>2016-09-25T11:15:23Z</time>
      </trkpt>
      <trkpt lat="43.73358" lon="6.95553">
        <ele>922.5</ele>
        <time>2016-09-25T11:15:24Z</time>
      </trkpt>
      <trkpt lat="43.73356" lon="6.95556">
        <ele>922.6</ele>
        <time>2016-09-25T11:15:25Z</time>
      </trkpt>
      <trkpt lat="43.73353" lon="6.95559">
        <ele>922.9</ele>
        <time>2016-09-25T11:15:26Z</time>
      </trkpt>
      <trkpt lat="43.7335" lon="6.95563">
        <ele>922.9</ele>
        <time>2016-09-25T11:15:27Z</time>
      </trkpt>
      <trkpt lat="43.73347" lon="6.95567">
        <ele>922.9</ele>
        <time>2016-09-25T11:15:28Z</time>
      </trkpt>
      <trkpt lat="43.73345" lon="6.95569">
        <ele>922.9</ele>
        <time>2016-09-25T11:15:29Z</time>
      </trkpt>
      <trkpt lat="43.73341" lon="6.95574">
        <ele>922.9</ele>
        <time>2016-09-25T11:15:30Z</time>
      </trkpt>
      <trkpt lat="43.73337" lon="6.95577">
        <ele>923.1</ele>
        <time>2016-09-25T11:15:31Z</time>
      </trkpt>
      <trkpt lat="43.73332" lon="6.95582">
        <ele>923.3</ele>
        <time>2016-09-25T11:15:32Z</time>
      </trkpt>
      <trkpt lat="43.73331" lon="6.95589">
        <ele>922.1</ele>
        <time>2016-09-25T11:15:33Z</time>
      </trkpt>
      <trkpt lat="43.73329" lon="6.95594">
        <ele>921.5</ele>
        <time>2016-09-25T11:15:34Z</time>
      </trkpt>
      <trkpt lat="43.73327" lon="6.95599">
        <ele>920.9</ele>
        <time>2016-09-25T11:15:35Z</time>
      </trkpt>
      <trkpt lat="43.73325" lon="6.95604">
        <ele>920.3</ele>
        <time>2016-09-25T11:15:36Z</time>
      </trkpt>
      <trkpt lat="43.73323" lon="6.95608">
        <ele>919.8</ele>
        <time>2016-09-25T11:15:37Z</time>
      </trkpt>
      <trkpt lat="43.73322" lon="6.95614">
        <ele>918.9</ele>
        <time>2016-09-25T11:15:38Z</time>
      </trkpt>
      <trkpt lat="43.7332" lon="6.95619">
        <ele>918.2</ele>
        <time>2016-09-25T11:15:39Z</time>
      </trkpt>
      <trkpt lat="43.73318" lon="6.95624">
        <ele>917.4</ele>
        <time>2016-09-25T11:15:40Z</time>
      </trkpt>
      <trkpt lat="43.73316" lon="6.95631">
        <ele>916.4</ele>
        <time>2016-09-25T11:15:41Z</time>
      </trkpt>
      <trkpt lat="43.73312" lon="6.95633">
        <ele>916.3</ele>
        <time>2016-09-25T11:15:42Z</time>
      </trkpt>
      <trkpt lat="43.73308" lon="6.95635">
        <ele>916.3</ele>
        <time>2016-09-25T11:15:43Z</time>
      </trkpt>
      <trkpt lat="43.73304" lon="6.95639">
        <ele>915.9</ele>
        <time>2016-09-25T11:15:44Z</time>
      </trkpt>
      <trkpt lat="43.73299" lon="6.95642">
        <ele>915.5</ele>
        <time>2016-09-25T11:15:45Z</time>
      </trkpt>
      <trkpt lat="43.73295" lon="6.95647">
        <ele>914.5</ele>
        <time>2016-09-25T11:15:46Z</time>
      </trkpt>
      <trkpt lat="43.73292" lon="6.9565">
        <ele>913.7</ele>
        <time>2016-09-25T11:15:47Z</time>
      </trkpt>
      <trkpt lat="43.73289" lon="6.95655">
        <ele>913.1</ele>
        <time>2016-09-25T11:15:48Z</time>
      </trkpt>
      <trkpt lat="43.73286" lon="6.95659">
        <ele>912.3</ele>
        <time>2016-09-25T11:15:49Z</time>
      </trkpt>
      <trkpt lat="43.73284" lon="6.95665">
        <ele>911.3</ele>
        <time>2016-09-25T11:15:50Z</time>
      </trkpt>
      <trkpt lat="43.73282" lon="6.9567">
        <ele>910.2</ele>
        <time>2016-09-25T11:15:51Z</time>
      </trkpt>
      <trkpt lat="43.73279" lon="6.95673">
        <ele>910.1</ele>
        <time>2016-09-25T11:15:52Z</time>
      </trkpt>
      <trkpt lat="43.73275" lon="6.95676">
        <ele>909.7</ele>
        <time>2016-09-25T11:15:53Z</time>
      </trkpt>
      <trkpt lat="43.73272" lon="6.9568">
        <ele>909.2</ele>
        <time>2016-09-25T11:15:54Z</time>
      </trkpt>
      <trkpt lat="43.73268" lon="6.95685">
        <ele>908.6</ele>
        <time>2016-09-25T11:15:55Z</time>
      </trkpt>
      <trkpt lat="43.73262" lon="6.95688">
        <ele>908.7</ele>
        <time>2016-09-25T11:15:56Z</time>
      </trkpt>
      <trkpt lat="43.73257" lon="6.9569">
        <ele>909</ele>
        <time>2016-09-25T11:15:57Z</time>
      </trkpt>
      <trkpt lat="43.73252" lon="6.95691">
        <ele>909.7</ele>
        <time>2016-09-25T11:15:58Z</time>
      </trkpt>
      <trkpt lat="43.73247" lon="6.95695">
        <ele>909.5</ele>
        <time>2016-09-25T11:15:59Z</time>
      </trkpt>
      <trkpt lat="43.73242" lon="6.95697">
        <ele>909.6</ele>
        <time>2016-09-25T11:16:00Z</time>
      </trkpt>
      <trkpt lat="43.73237" lon="6.95699">
        <ele>909.8</ele>
        <time>2016-09-25T11:16:01Z</time>
      </trkpt>
      <trkpt lat="43.73232" lon="6.95702">
        <ele>909.9</ele>
        <time>2016-09-25T11:16:02Z</time>
      </trkpt>
      <trkpt lat="43.73228" lon="6.95703">
        <ele>910.2</ele>
        <time>2016-09-25T11:16:03Z</time>
      </trkpt>
      <trkpt lat="43.73224" lon="6.95705">
        <ele>910.4</ele>
        <time>2016-09-25T11:16:04Z</time>
      </trkpt>
      <trkpt lat="43.7322" lon="6.95709">
        <ele>909.8</ele>
        <time>2016-09-25T11:16:05Z</time>
      </trkpt>
      <trkpt lat="43.73215" lon="6.95713">
        <ele>909.6</ele>
        <time>2016-09-25T11:16:06Z</time>
      </trkpt>
      <trkpt lat="43.73211" lon="6.95718">
        <ele>909</ele>
        <time>2016-09-25T11:16:07Z</time>
      </trkpt>
      <trkpt lat="43.73207" lon="6.95722">
        <ele>908.6</ele>
        <time>2016-09-25T11:16:08Z</time>
      </trkpt>
      <trkpt lat="43.73203" lon="6.95725">
        <ele>908.6</ele>
        <time>2016-09-25T11:16:09Z</time>
      </trkpt>
      <trkpt lat="43.73199" lon="6.95728">
        <ele>908.5</ele>
        <time>2016-09-25T11:16:10Z</time>
      </trkpt>
      <trkpt lat="43.73195" lon="6.95732">
        <ele>908.4</ele>
        <time>2016-09-25T11:16:11Z</time>
      </trkpt>
      <trkpt lat="43.73191" lon="6.95735">
        <ele>908.1</ele>
        <time>2016-09-25T11:16:12Z</time>
      </trkpt>
      <trkpt lat="43.73189" lon="6.95739">
        <ele>907.4</ele>
        <time>2016-09-25T11:16:13Z</time>
      </trkpt>
      <trkpt lat="43.73187" lon="6.95742">
        <ele>906.9</ele>
        <time>2016-09-25T11:16:14Z</time>
      </trkpt>
      <trkpt lat="43.73185" lon="6.95745">
        <ele>906.4</ele>
        <time>2016-09-25T11:16:15Z</time>
      </trkpt>
      <trkpt lat="43.73182" lon="6.9575">
        <ele>905.6</ele>
        <time>2016-09-25T11:16:16Z</time>
      </trkpt>
      <trkpt lat="43.73177" lon="6.95757">
        <ele>904.6</ele>
        <time>2016-09-25T11:16:18Z</time>
      </trkpt>
      <trkpt lat="43.73174" lon="6.9576">
        <ele>904.2</ele>
        <time>2016-09-25T11:16:19Z</time>
      </trkpt>
      <trkpt lat="43.73171" lon="6.95763">
        <ele>903.8</ele>
        <time>2016-09-25T11:16:20Z</time>
      </trkpt>
      <trkpt lat="43.73168" lon="6.95765">
        <ele>903.4</ele>
        <time>2016-09-25T11:16:21Z</time>
      </trkpt>
      <trkpt lat="43.73166" lon="6.95768">
        <ele>903</ele>
        <time>2016-09-25T11:16:22Z</time>
      </trkpt>
      <trkpt lat="43.73164" lon="6.95771">
        <ele>902.5</ele>
        <time>2016-09-25T11:16:23Z</time>
      </trkpt>
      <trkpt lat="43.73161" lon="6.95776">
        <ele>901.6</ele>
        <time>2016-09-25T11:16:25Z</time>
      </trkpt>
      <trkpt lat="43.73158" lon="6.95782">
        <ele>900.2</ele>
        <time>2016-09-25T11:16:27Z</time>
      </trkpt>
      <trkpt lat="43.73157" lon="6.95785">
        <ele>899.5</ele>
        <time>2016-09-25T11:16:28Z</time>
      </trkpt>
      <trkpt lat="43.73154" lon="6.95787">
        <ele>899.2</ele>
        <time>2016-09-25T11:16:29Z</time>
      </trkpt>
      <trkpt lat="43.73151" lon="6.95789">
        <ele>899.1</ele>
        <time>2016-09-25T11:16:30Z</time>
      </trkpt>
      <trkpt lat="43.73147" lon="6.95791">
        <ele>899.1</ele>
        <time>2016-09-25T11:16:31Z</time>
      </trkpt>
      <trkpt lat="43.7314" lon="6.95795">
        <ele>899.1</ele>
        <time>2016-09-25T11:16:32Z</time>
      </trkpt>
      <trkpt lat="43.73136" lon="6.95799">
        <ele>898.7</ele>
        <time>2016-09-25T11:16:33Z</time>
      </trkpt>
      <trkpt lat="43.7313" lon="6.95802">
        <ele>898.6</ele>
        <time>2016-09-25T11:16:34Z</time>
      </trkpt>
      <trkpt lat="43.73126" lon="6.95805">
        <ele>898.4</ele>
        <time>2016-09-25T11:16:35Z</time>
      </trkpt>
      <trkpt lat="43.73122" lon="6.95807">
        <ele>897.6</ele>
        <time>2016-09-25T11:16:36Z</time>
      </trkpt>
      <trkpt lat="43.73118" lon="6.95807">
        <ele>897.3</ele>
        <time>2016-09-25T11:16:37Z</time>
      </trkpt>
      <trkpt lat="43.73115" lon="6.95809">
        <ele>896.6</ele>
        <time>2016-09-25T11:16:38Z</time>
      </trkpt>
      <trkpt lat="43.73111" lon="6.95812">
        <ele>895.4</ele>
        <time>2016-09-25T11:16:39Z</time>
      </trkpt>
      <trkpt lat="43.73107" lon="6.95813">
        <ele>894.9</ele>
        <time>2016-09-25T11:16:40Z</time>
      </trkpt>
      <trkpt lat="43.73103" lon="6.95814">
        <ele>894.2</ele>
        <time>2016-09-25T11:16:41Z</time>
      </trkpt>
      <trkpt lat="43.73097" lon="6.95818">
        <ele>892.6</ele>
        <time>2016-09-25T11:16:42Z</time>
      </trkpt>
      <trkpt lat="43.73093" lon="6.95822">
        <ele>891.1</ele>
        <time>2016-09-25T11:16:43Z</time>
      </trkpt>
      <trkpt lat="43.73088" lon="6.95825">
        <ele>889.8</ele>
        <time>2016-09-25T11:16:44Z</time>
      </trkpt>
      <trkpt lat="43.73082" lon="6.95828">
        <ele>888.5</ele>
        <time>2016-09-25T11:16:45Z</time>
      </trkpt>
      <trkpt lat="43.73077" lon="6.95833">
        <ele>886.5</ele>
        <time>2016-09-25T11:16:46Z</time>
      </trkpt>
      <trkpt lat="43.73072" lon="6.95839">
        <ele>884.5</ele>
        <time>2016-09-25T11:16:47Z</time>
      </trkpt>
      <trkpt lat="43.73066" lon="6.95842">
        <ele>883</ele>
        <time>2016-09-25T11:16:48Z</time>
      </trkpt>
      <trkpt lat="43.7306" lon="6.95842">
        <ele>882.5</ele>
        <time>2016-09-25T11:16:49Z</time>
      </trkpt>
      <trkpt lat="43.73054" lon="6.95843">
        <ele>881.8</ele>
        <time>2016-09-25T11:16:50Z</time>
      </trkpt>
      <trkpt lat="43.73048" lon="6.95842">
        <ele>881.3</ele>
        <time>2016-09-25T11:16:51Z</time>
      </trkpt>
      <trkpt lat="43.73041" lon="6.95842">
        <ele>880.8</ele>
        <time>2016-09-25T11:16:52Z</time>
      </trkpt>
      <trkpt lat="43.73034" lon="6.95844">
        <ele>880.3</ele>
        <time>2016-09-25T11:16:53Z</time>
      </trkpt>
      <trkpt lat="43.73028" lon="6.95846">
        <ele>879.9</ele>
        <time>2016-09-25T11:16:54Z</time>
      </trkpt>
      <trkpt lat="43.73022" lon="6.95844">
        <ele>880.4</ele>
        <time>2016-09-25T11:16:55Z</time>
      </trkpt>
      <trkpt lat="43.73016" lon="6.95847">
        <ele>879.6</ele>
        <time>2016-09-25T11:16:57Z</time>
      </trkpt>
      <trkpt lat="43.7301" lon="6.95853">
        <ele>878.2</ele>
        <time>2016-09-25T11:16:58Z</time>
      </trkpt>
      <trkpt lat="43.73006" lon="6.95854">
        <ele>877.9</ele>
        <time>2016-09-25T11:16:59Z</time>
      </trkpt>
      <trkpt lat="43.73002" lon="6.95855">
        <ele>877.7</ele>
        <time>2016-09-25T11:17:00Z</time>
      </trkpt>
      <trkpt lat="43.72999" lon="6.95857">
        <ele>877.4</ele>
        <time>2016-09-25T11:17:01Z</time>
      </trkpt>
      <trkpt lat="43.72996" lon="6.9586">
        <ele>876.5</ele>
        <time>2016-09-25T11:17:02Z</time>
      </trkpt>
      <trkpt lat="43.72993" lon="6.95862">
        <ele>876.1</ele>
        <time>2016-09-25T11:17:03Z</time>
      </trkpt>
      <trkpt lat="43.72988" lon="6.95866">
        <ele>875.1</ele>
        <time>2016-09-25T11:17:04Z</time>
      </trkpt>
      <trkpt lat="43.72984" lon="6.95869">
        <ele>874.7</ele>
        <time>2016-09-25T11:17:05Z</time>
      </trkpt>
      <trkpt lat="43.72978" lon="6.95871">
        <ele>874.3</ele>
        <time>2016-09-25T11:17:06Z</time>
      </trkpt>
      <trkpt lat="43.72972" lon="6.95875">
        <ele>873.6</ele>
        <time>2016-09-25T11:17:07Z</time>
      </trkpt>
      <trkpt lat="43.72968" lon="6.95879">
        <ele>872.8</ele>
        <time>2016-09-25T11:17:08Z</time>
      </trkpt>
      <trkpt lat="43.72964" lon="6.95885">
        <ele>871.8</ele>
        <time>2016-09-25T11:17:09Z</time>
      </trkpt>
      <trkpt lat="43.72961" lon="6.9589">
        <ele>870.9</ele>
        <time>2016-09-25T11:17:10Z</time>
      </trkpt>
      <trkpt lat="43.72958" lon="6.95895">
        <ele>870</ele>
        <time>2016-09-25T11:17:11Z</time>
      </trkpt>
      <trkpt lat="43.72955" lon="6.95899">
        <ele>869.1</ele>
        <time>2016-09-25T11:17:12Z</time>
      </trkpt>
      <trkpt lat="43.72953" lon="6.95902">
        <ele>868.5</ele>
        <time>2016-09-25T11:17:13Z</time>
      </trkpt>
      <trkpt lat="43.72947" lon="6.95905">
        <ele>868</ele>
        <time>2016-09-25T11:17:15Z</time>
      </trkpt>
      <trkpt lat="43.72944" lon="6.95907">
        <ele>867.7</ele>
        <time>2016-09-25T11:17:16Z</time>
      </trkpt>
      <trkpt lat="43.72941" lon="6.95907">
        <ele>867.5</ele>
        <time>2016-09-25T11:17:17Z</time>
      </trkpt>
      <trkpt lat="43.72938" lon="6.95908">
        <ele>867.4</ele>
        <time>2016-09-25T11:17:18Z</time>
      </trkpt>
      <trkpt lat="43.72935" lon="6.95909">
        <ele>867.3</ele>
        <time>2016-09-25T11:17:19Z</time>
      </trkpt>
      <trkpt lat="43.72932" lon="6.9591">
        <ele>867.1</ele>
        <time>2016-09-25T11:17:20Z</time>
      </trkpt>
      <trkpt lat="43.72928" lon="6.95913">
        <ele>866.3</ele>
        <time>2016-09-25T11:17:22Z</time>
      </trkpt>
      <trkpt lat="43.72924" lon="6.95917">
        <ele>865.3</ele>
        <time>2016-09-25T11:17:24Z</time>
      </trkpt>
      <trkpt lat="43.72922" lon="6.9592">
        <ele>864.6</ele>
        <time>2016-09-25T11:17:25Z</time>
      </trkpt>
      <trkpt lat="43.72919" lon="6.95923">
        <ele>863.9</ele>
        <time>2016-09-25T11:17:26Z</time>
      </trkpt>
      <trkpt lat="43.72916" lon="6.95927">
        <ele>862.9</ele>
        <time>2016-09-25T11:17:27Z</time>
      </trkpt>
      <trkpt lat="43.72908" lon="6.95933">
        <ele>861.5</ele>
        <time>2016-09-25T11:17:28Z</time>
      </trkpt>
      <trkpt lat="43.72902" lon="6.95937">
        <ele>860.4</ele>
        <time>2016-09-25T11:17:29Z</time>
      </trkpt>
      <trkpt lat="43.72896" lon="6.9594">
        <ele>859.4</ele>
        <time>2016-09-25T11:17:30Z</time>
      </trkpt>
      <trkpt lat="43.7289" lon="6.95946">
        <ele>857.9</ele>
        <time>2016-09-25T11:17:31Z</time>
      </trkpt>
      <trkpt lat="43.72885" lon="6.9595">
        <ele>856.5</ele>
        <time>2016-09-25T11:17:32Z</time>
      </trkpt>
      <trkpt lat="43.72881" lon="6.95956">
        <ele>854.9</ele>
        <time>2016-09-25T11:17:33Z</time>
      </trkpt>
      <trkpt lat="43.72875" lon="6.95957">
        <ele>854.4</ele>
        <time>2016-09-25T11:17:34Z</time>
      </trkpt>
      <trkpt lat="43.7287" lon="6.95959">
        <ele>853.8</ele>
        <time>2016-09-25T11:17:35Z</time>
      </trkpt>
      <trkpt lat="43.72866" lon="6.95959">
        <ele>853.5</ele>
        <time>2016-09-25T11:17:36Z</time>
      </trkpt>
      <trkpt lat="43.72863" lon="6.9596">
        <ele>853.3</ele>
        <time>2016-09-25T11:17:37Z</time>
      </trkpt>
      <trkpt lat="43.72859" lon="6.95959">
        <ele>853.2</ele>
        <time>2016-09-25T11:17:42Z</time>
      </trkpt>
      <trkpt lat="43.72856" lon="6.95962">
        <ele>852.9</ele>
        <time>2016-09-25T11:17:44Z</time>
      </trkpt>
      <trkpt lat="43.72854" lon="6.95964">
        <ele>852.7</ele>
        <time>2016-09-25T11:17:45Z</time>
      </trkpt>
      <trkpt lat="43.72849" lon="6.95967">
        <ele>852.3</ele>
        <time>2016-09-25T11:17:47Z</time>
      </trkpt>
      <trkpt lat="43.72847" lon="6.95969">
        <ele>852</ele>
        <time>2016-09-25T11:18:34Z</time>
      </trkpt>
      <trkpt lat="43.72846" lon="6.95972">
        <ele>851.7</ele>
        <time>2016-09-25T11:19:16Z</time>
      </trkpt>
      <trkpt lat="43.72848" lon="6.9597">
        <ele>852</ele>
        <time>2016-09-25T11:23:33Z</time>
      </trkpt>
      <trkpt lat="43.72845" lon="6.95972">
        <ele>851.7</ele>
        <time>2016-09-25T11:25:11Z</time>
      </trkpt>
      <trkpt lat="43.72844" lon="6.95977">
        <ele>851.3</ele>
        <time>2016-09-25T11:26:20Z</time>
      </trkpt>
      <trkpt lat="43.72842" lon="6.9598">
        <ele>851</ele>
        <time>2016-09-25T11:26:23Z</time>
      </trkpt>
      <trkpt lat="43.7284" lon="6.95984">
        <ele>850.6</ele>
        <time>2016-09-25T11:26:26Z</time>
      </trkpt>
      <trkpt lat="43.72839" lon="6.95987">
        <ele>850.2</ele>
        <time>2016-09-25T11:26:29Z</time>
      </trkpt>
      <trkpt lat="43.72836" lon="6.9599">
        <ele>849.8</ele>
        <time>2016-09-25T11:26:32Z</time>
      </trkpt>
      <trkpt lat="43.72834" lon="6.95993">
        <ele>849.4</ele>
        <time>2016-09-25T11:26:35Z</time>
      </trkpt>
      <trkpt lat="43.72832" lon="6.95995">
        <ele>849</ele>
        <time>2016-09-25T11:26:38Z</time>
      </trkpt>
      <trkpt lat="43.7283" lon="6.95999">
        <ele>848.5</ele>
        <time>2016-09-25T11:26:41Z</time>
      </trkpt>
      <trkpt lat="43.72828" lon="6.96002">
        <ele>848</ele>
        <time>2016-09-25T11:26:44Z</time>
      </trkpt>
      <trkpt lat="43.72825" lon="6.96005">
        <ele>847.5</ele>
        <time>2016-09-25T11:26:47Z</time>
      </trkpt>
      <trkpt lat="43.72823" lon="6.96008">
        <ele>847</ele>
        <time>2016-09-25T11:26:50Z</time>
      </trkpt>
      <trkpt lat="43.72819" lon="6.9601">
        <ele>846.3</ele>
        <time>2016-09-25T11:26:53Z</time>
      </trkpt>
      <trkpt lat="43.72817" lon="6.96013">
        <ele>845.7</ele>
        <time>2016-09-25T11:26:56Z</time>
      </trkpt>
      <trkpt lat="43.72814" lon="6.96015">
        <ele>845.2</ele>
        <time>2016-09-25T11:26:59Z</time>
      </trkpt>
      <trkpt lat="43.72811" lon="6.96017">
        <ele>844.6</ele>
        <time>2016-09-25T11:27:02Z</time>
      </trkpt>
      <trkpt lat="43.72808" lon="6.96019">
        <ele>844</ele>
        <time>2016-09-25T11:27:05Z</time>
      </trkpt>
      <trkpt lat="43.72806" lon="6.96022">
        <ele>843.4</ele>
        <time>2016-09-25T11:27:08Z</time>
      </trkpt>
      <trkpt lat="43.72803" lon="6.96026">
        <ele>842.6</ele>
        <time>2016-09-25T11:27:11Z</time>
      </trkpt>
      <trkpt lat="43.728" lon="6.96029">
        <ele>841.8</ele>
        <time>2016-09-25T11:27:14Z</time>
      </trkpt>
      <trkpt lat="43.72798" lon="6.96033">
        <ele>841</ele>
        <time>2016-09-25T11:27:17Z</time>
      </trkpt>
      <trkpt lat="43.72796" lon="6.96036">
        <ele>840.3</ele>
        <time>2016-09-25T11:27:20Z</time>
      </trkpt>
      <trkpt lat="43.72793" lon="6.96039">
        <ele>839.6</ele>
        <time>2016-09-25T11:27:23Z</time>
      </trkpt>
      <trkpt lat="43.7279" lon="6.96041">
        <ele>839</ele>
        <time>2016-09-25T11:27:26Z</time>
      </trkpt>
      <trkpt lat="43.72788" lon="6.96043">
        <ele>838.8</ele>
        <time>2016-09-25T11:27:29Z</time>
      </trkpt>
      <trkpt lat="43.72786" lon="6.96046">
        <ele>838.8</ele>
        <time>2016-09-25T11:27:32Z</time>
      </trkpt>
      <trkpt lat="43.72784" lon="6.96049">
        <ele>838.9</ele>
        <time>2016-09-25T11:27:35Z</time>
      </trkpt>
      <trkpt lat="43.72782" lon="6.96052">
        <ele>838.9</ele>
        <time>2016-09-25T11:27:39Z</time>
      </trkpt>
      <trkpt lat="43.7278" lon="6.96056">
        <ele>838.8</ele>
        <time>2016-09-25T11:27:43Z</time>
      </trkpt>
      <trkpt lat="43.72777" lon="6.96058">
        <ele>838.6</ele>
        <time>2016-09-25T11:27:46Z</time>
      </trkpt>
      <trkpt lat="43.72774" lon="6.96062">
        <ele>838.5</ele>
        <time>2016-09-25T11:27:49Z</time>
      </trkpt>
      <trkpt lat="43.72772" lon="6.96066">
        <ele>838.4</ele>
        <time>2016-09-25T11:27:51Z</time>
      </trkpt>
      <trkpt lat="43.7277" lon="6.96069">
        <ele>838.1</ele>
        <time>2016-09-25T11:27:54Z</time>
      </trkpt>
      <trkpt lat="43.72768" lon="6.96073">
        <ele>838</ele>
        <time>2016-09-25T11:27:57Z</time>
      </trkpt>
      <trkpt lat="43.72767" lon="6.96077">
        <ele>838.1</ele>
        <time>2016-09-25T11:28:00Z</time>
      </trkpt>
      <trkpt lat="43.72765" lon="6.96081">
        <ele>837.9</ele>
        <time>2016-09-25T11:28:03Z</time>
      </trkpt>
      <trkpt lat="43.72763" lon="6.96085">
        <ele>837.6</ele>
        <time>2016-09-25T11:28:06Z</time>
      </trkpt>
      <trkpt lat="43.7276" lon="6.96088">
        <ele>837.1</ele>
        <time>2016-09-25T11:28:09Z</time>
      </trkpt>
      <trkpt lat="43.72757" lon="6.96092">
        <ele>836.5</ele>
        <time>2016-09-25T11:28:12Z</time>
      </trkpt>
      <trkpt lat="43.72755" lon="6.96095">
        <ele>836.2</ele>
        <time>2016-09-25T11:28:14Z</time>
      </trkpt>
      <trkpt lat="43.72753" lon="6.96098">
        <ele>835.8</ele>
        <time>2016-09-25T11:28:16Z</time>
      </trkpt>
      <trkpt lat="43.72752" lon="6.96101">
        <ele>835.4</ele>
        <time>2016-09-25T11:28:18Z</time>
      </trkpt>
      <trkpt lat="43.7275" lon="6.96105">
        <ele>834.9</ele>
        <time>2016-09-25T11:28:20Z</time>
      </trkpt>
      <trkpt lat="43.72748" lon="6.96108">
        <ele>834.5</ele>
        <time>2016-09-25T11:28:22Z</time>
      </trkpt>
      <trkpt lat="43.72746" lon="6.96112">
        <ele>833.8</ele>
        <time>2016-09-25T11:28:25Z</time>
      </trkpt>
      <trkpt lat="43.72744" lon="6.96115">
        <ele>833.3</ele>
        <time>2016-09-25T11:28:28Z</time>
      </trkpt>
      <trkpt lat="43.72742" lon="6.96119">
        <ele>832.7</ele>
        <time>2016-09-25T11:28:32Z</time>
      </trkpt>
      <trkpt lat="43.72739" lon="6.96122">
        <ele>831.9</ele>
        <time>2016-09-25T11:28:35Z</time>
      </trkpt>
      <trkpt lat="43.72737" lon="6.96126">
        <ele>831.5</ele>
        <time>2016-09-25T11:28:38Z</time>
      </trkpt>
      <trkpt lat="43.72736" lon="6.96131">
        <ele>831.6</ele>
        <time>2016-09-25T11:28:41Z</time>
      </trkpt>
      <trkpt lat="43.72735" lon="6.96135">
        <ele>831.7</ele>
        <time>2016-09-25T11:28:44Z</time>
      </trkpt>
      <trkpt lat="43.72734" lon="6.96139">
        <ele>831.8</ele>
        <time>2016-09-25T11:28:47Z</time>
      </trkpt>
      <trkpt lat="43.72732" lon="6.96143">
        <ele>831.6</ele>
        <time>2016-09-25T11:28:50Z</time>
      </trkpt>
      <trkpt lat="43.72731" lon="6.96147">
        <ele>831.5</ele>
        <time>2016-09-25T11:28:53Z</time>
      </trkpt>
      <trkpt lat="43.7273" lon="6.96151">
        <ele>831.5</ele>
        <time>2016-09-25T11:28:57Z</time>
      </trkpt>
      <trkpt lat="43.72729" lon="6.96155">
        <ele>831.6</ele>
        <time>2016-09-25T11:29:01Z</time>
      </trkpt>
      <trkpt lat="43.72728" lon="6.9616">
        <ele>831.8</ele>
        <time>2016-09-25T11:29:05Z</time>
      </trkpt>
      <trkpt lat="43.72727" lon="6.96163">
        <ele>831.7</ele>
        <time>2016-09-25T11:29:08Z</time>
      </trkpt>
      <trkpt lat="43.72726" lon="6.96168">
        <ele>831.6</ele>
        <time>2016-09-25T11:29:11Z</time>
      </trkpt>
      <trkpt lat="43.72725" lon="6.96172">
        <ele>831.4</ele>
        <time>2016-09-25T11:29:15Z</time>
      </trkpt>
      <trkpt lat="43.72724" lon="6.96176">
        <ele>831.3</ele>
        <time>2016-09-25T11:29:19Z</time>
      </trkpt>
      <trkpt lat="43.72723" lon="6.96181">
        <ele>831.5</ele>
        <time>2016-09-25T11:29:23Z</time>
      </trkpt>
      <trkpt lat="43.72723" lon="6.96186">
        <ele>831.8</ele>
        <time>2016-09-25T11:29:27Z</time>
      </trkpt>
      <trkpt lat="43.72723" lon="6.9619">
        <ele>831.8</ele>
        <time>2016-09-25T11:29:31Z</time>
      </trkpt>
      <trkpt lat="43.72723" lon="6.96194">
        <ele>832.1</ele>
        <time>2016-09-25T11:29:34Z</time>
      </trkpt>
      <trkpt lat="43.72724" lon="6.96199">
        <ele>832.9</ele>
        <time>2016-09-25T11:29:38Z</time>
      </trkpt>
      <trkpt lat="43.72724" lon="6.96203">
        <ele>833.3</ele>
        <time>2016-09-25T11:29:42Z</time>
      </trkpt>
      <trkpt lat="43.72724" lon="6.96208">
        <ele>834</ele>
        <time>2016-09-25T11:29:46Z</time>
      </trkpt>
      <trkpt lat="43.72725" lon="6.96211">
        <ele>835.1</ele>
        <time>2016-09-25T11:29:49Z</time>
      </trkpt>
      <trkpt lat="43.72725" lon="6.96216">
        <ele>835.8</ele>
        <time>2016-09-25T11:29:53Z</time>
      </trkpt>
      <trkpt lat="43.72726" lon="6.96221">
        <ele>836.7</ele>
        <time>2016-09-25T11:29:57Z</time>
      </trkpt>
      <trkpt lat="43.72725" lon="6.96225">
        <ele>837.3</ele>
        <time>2016-09-25T11:30:00Z</time>
      </trkpt>
      <trkpt lat="43.72725" lon="6.96229">
        <ele>837.6</ele>
        <time>2016-09-25T11:30:03Z</time>
      </trkpt>
      <trkpt lat="43.72724" lon="6.96232">
        <ele>837.5</ele>
        <time>2016-09-25T11:30:06Z</time>
      </trkpt>
      <trkpt lat="43.72723" lon="6.96237">
        <ele>838</ele>
        <time>2016-09-25T11:30:10Z</time>
      </trkpt>
      <trkpt lat="43.72723" lon="6.96241">
        <ele>838.5</ele>
        <time>2016-09-25T11:30:14Z</time>
      </trkpt>
      <trkpt lat="43.72724" lon="6.96245">
        <ele>839.6</ele>
        <time>2016-09-25T11:30:19Z</time>
      </trkpt>
      <trkpt lat="43.72725" lon="6.96249">
        <ele>840.8</ele>
        <time>2016-09-25T11:30:25Z</time>
      </trkpt>
      <trkpt lat="43.72725" lon="6.96253">
        <ele>841.8</ele>
        <time>2016-09-25T11:30:30Z</time>
      </trkpt>
      <trkpt lat="43.72726" lon="6.96257">
        <ele>842.7</ele>
        <time>2016-09-25T11:30:35Z</time>
      </trkpt>
      <trkpt lat="43.72726" lon="6.96261">
        <ele>843.2</ele>
        <time>2016-09-25T11:30:39Z</time>
      </trkpt>
      <trkpt lat="43.72725" lon="6.96258">
        <ele>842.3</ele>
        <time>2016-09-25T11:31:00Z</time>
      </trkpt>
      <trkpt lat="43.72727" lon="6.96254">
        <ele>842.7</ele>
        <time>2016-09-25T11:31:08Z</time>
      </trkpt>
      <trkpt lat="43.72729" lon="6.96251">
        <ele>843.1</ele>
        <time>2016-09-25T11:31:46Z</time>
      </trkpt>
      <trkpt lat="43.72729" lon="6.96247">
        <ele>842.5</ele>
        <time>2016-09-25T11:35:21Z</time>
      </trkpt>
      <trkpt lat="43.72731" lon="6.96243">
        <ele>842.8</ele>
        <time>2016-09-25T11:35:24Z</time>
      </trkpt>
      <trkpt lat="43.72733" lon="6.9624">
        <ele>843.4</ele>
        <time>2016-09-25T11:35:26Z</time>
      </trkpt>
      <trkpt lat="43.72735" lon="6.96237">
        <ele>843.9</ele>
        <time>2016-09-25T11:35:28Z</time>
      </trkpt>
      <trkpt lat="43.72736" lon="6.96233">
        <ele>843.8</ele>
        <time>2016-09-25T11:35:30Z</time>
      </trkpt>
      <trkpt lat="43.72737" lon="6.96229">
        <ele>843.6</ele>
        <time>2016-09-25T11:35:32Z</time>
      </trkpt>
      <trkpt lat="43.72738" lon="6.96225">
        <ele>843.8</ele>
        <time>2016-09-25T11:35:34Z</time>
      </trkpt>
      <trkpt lat="43.7274" lon="6.96222">
        <ele>844.1</ele>
        <time>2016-09-25T11:35:36Z</time>
      </trkpt>
      <trkpt lat="43.72741" lon="6.96218">
        <ele>844.3</ele>
        <time>2016-09-25T11:35:38Z</time>
      </trkpt>
      <trkpt lat="43.72742" lon="6.96214">
        <ele>843.9</ele>
        <time>2016-09-25T11:35:40Z</time>
      </trkpt>
      <trkpt lat="43.72743" lon="6.9621">
        <ele>843.8</ele>
        <time>2016-09-25T11:35:42Z</time>
      </trkpt>
      <trkpt lat="43.72744" lon="6.96207">
        <ele>843.9</ele>
        <time>2016-09-25T11:35:44Z</time>
      </trkpt>
      <trkpt lat="43.72745" lon="6.96203">
        <ele>844</ele>
        <time>2016-09-25T11:35:46Z</time>
      </trkpt>
      <trkpt lat="43.72747" lon="6.962">
        <ele>844.2</ele>
        <time>2016-09-25T11:35:48Z</time>
      </trkpt>
      <trkpt lat="43.72748" lon="6.96197">
        <ele>844.5</ele>
        <time>2016-09-25T11:35:50Z</time>
      </trkpt>
      <trkpt lat="43.7275" lon="6.96194">
        <ele>845.1</ele>
        <time>2016-09-25T11:35:52Z</time>
      </trkpt>
      <trkpt lat="43.72753" lon="6.96191">
        <ele>845.7</ele>
        <time>2016-09-25T11:35:54Z</time>
      </trkpt>
      <trkpt lat="43.72754" lon="6.96188">
        <ele>845.8</ele>
        <time>2016-09-25T11:35:56Z</time>
      </trkpt>
      <trkpt lat="43.72755" lon="6.96183">
        <ele>845.7</ele>
        <time>2016-09-25T11:35:59Z</time>
      </trkpt>
      <trkpt lat="43.72757" lon="6.96179">
        <ele>845.8</ele>
        <time>2016-09-25T11:36:02Z</time>
      </trkpt>
      <trkpt lat="43.72759" lon="6.96175">
        <ele>846.1</ele>
        <time>2016-09-25T11:36:05Z</time>
      </trkpt>
      <trkpt lat="43.72762" lon="6.96171">
        <ele>846.5</ele>
        <time>2016-09-25T11:36:08Z</time>
      </trkpt>
      <trkpt lat="43.72764" lon="6.96167">
        <ele>846.6</ele>
        <time>2016-09-25T11:36:11Z</time>
      </trkpt>
      <trkpt lat="43.72766" lon="6.96163">
        <ele>846.8</ele>
        <time>2016-09-25T11:36:14Z</time>
      </trkpt>
      <trkpt lat="43.72769" lon="6.96159">
        <ele>846.8</ele>
        <time>2016-09-25T11:36:17Z</time>
      </trkpt>
      <trkpt lat="43.72771" lon="6.96155">
        <ele>847</ele>
        <time>2016-09-25T11:36:20Z</time>
      </trkpt>
      <trkpt lat="43.72774" lon="6.96151">
        <ele>847</ele>
        <time>2016-09-25T11:36:23Z</time>
      </trkpt>
      <trkpt lat="43.72775" lon="6.96147">
        <ele>846.8</ele>
        <time>2016-09-25T11:36:25Z</time>
      </trkpt>
      <trkpt lat="43.72778" lon="6.96144">
        <ele>847.1</ele>
        <time>2016-09-25T11:36:28Z</time>
      </trkpt>
      <trkpt lat="43.72781" lon="6.9614">
        <ele>847.3</ele>
        <time>2016-09-25T11:36:31Z</time>
      </trkpt>
      <trkpt lat="43.72783" lon="6.96137">
        <ele>847.3</ele>
        <time>2016-09-25T11:36:34Z</time>
      </trkpt>
      <trkpt lat="43.72786" lon="6.96134">
        <ele>847.5</ele>
        <time>2016-09-25T11:36:37Z</time>
      </trkpt>
      <trkpt lat="43.72789" lon="6.96132">
        <ele>847.9</ele>
        <time>2016-09-25T11:36:40Z</time>
      </trkpt>
      <trkpt lat="43.72792" lon="6.96128">
        <ele>847.8</ele>
        <time>2016-09-25T11:36:43Z</time>
      </trkpt>
      <trkpt lat="43.72794" lon="6.96125">
        <ele>848</ele>
        <time>2016-09-25T11:36:45Z</time>
      </trkpt>
      <trkpt lat="43.72797" lon="6.96123">
        <ele>848.7</ele>
        <time>2016-09-25T11:36:47Z</time>
      </trkpt>
      <trkpt lat="43.72799" lon="6.96121">
        <ele>849.4</ele>
        <time>2016-09-25T11:36:49Z</time>
      </trkpt>
      <trkpt lat="43.72801" lon="6.96119">
        <ele>849.9</ele>
        <time>2016-09-25T11:36:51Z</time>
      </trkpt>
      <trkpt lat="43.72804" lon="6.96116">
        <ele>850.4</ele>
        <time>2016-09-25T11:36:53Z</time>
      </trkpt>
      <trkpt lat="43.72806" lon="6.96114">
        <ele>850.8</ele>
        <time>2016-09-25T11:36:55Z</time>
      </trkpt>
      <trkpt lat="43.72808" lon="6.96111">
        <ele>851.2</ele>
        <time>2016-09-25T11:36:57Z</time>
      </trkpt>
      <trkpt lat="43.7281" lon="6.96108">
        <ele>851.5</ele>
        <time>2016-09-25T11:36:59Z</time>
      </trkpt>
      <trkpt lat="43.72811" lon="6.96105">
        <ele>851.4</ele>
        <time>2016-09-25T11:37:01Z</time>
      </trkpt>
      <trkpt lat="43.72813" lon="6.96101">
        <ele>851.5</ele>
        <time>2016-09-25T11:37:03Z</time>
      </trkpt>
      <trkpt lat="43.72815" lon="6.961">
        <ele>852</ele>
        <time>2016-09-25T11:37:05Z</time>
      </trkpt>
      <trkpt lat="43.72818" lon="6.96099">
        <ele>852.9</ele>
        <time>2016-09-25T11:37:07Z</time>
      </trkpt>
      <trkpt lat="43.72822" lon="6.96099">
        <ele>853.8</ele>
        <time>2016-09-25T11:37:09Z</time>
      </trkpt>
      <trkpt lat="43.72825" lon="6.96097">
        <ele>854.6</ele>
        <time>2016-09-25T11:37:11Z</time>
      </trkpt>
      <trkpt lat="43.72828" lon="6.96095">
        <ele>855</ele>
        <time>2016-09-25T11:37:13Z</time>
      </trkpt>
      <trkpt lat="43.7283" lon="6.96093">
        <ele>855.2</ele>
        <time>2016-09-25T11:37:15Z</time>
      </trkpt>
      <trkpt lat="43.72833" lon="6.96091">
        <ele>855.6</ele>
        <time>2016-09-25T11:37:17Z</time>
      </trkpt>
      <trkpt lat="43.72836" lon="6.96089">
        <ele>856</ele>
        <time>2016-09-25T11:37:19Z</time>
      </trkpt>
      <trkpt lat="43.72839" lon="6.96087">
        <ele>856.6</ele>
        <time>2016-09-25T11:37:21Z</time>
      </trkpt>
      <trkpt lat="43.72842" lon="6.96086">
        <ele>857.1</ele>
        <time>2016-09-25T11:37:23Z</time>
      </trkpt>
      <trkpt lat="43.72845" lon="6.96084">
        <ele>857.5</ele>
        <time>2016-09-25T11:37:25Z</time>
      </trkpt>
      <trkpt lat="43.72848" lon="6.96082">
        <ele>857.8</ele>
        <time>2016-09-25T11:37:27Z</time>
      </trkpt>
      <trkpt lat="43.72851" lon="6.9608">
        <ele>858.3</ele>
        <time>2016-09-25T11:37:29Z</time>
      </trkpt>
      <trkpt lat="43.72854" lon="6.96079">
        <ele>858.7</ele>
        <time>2016-09-25T11:37:31Z</time>
      </trkpt>
      <trkpt lat="43.72857" lon="6.96077">
        <ele>859</ele>
        <time>2016-09-25T11:37:33Z</time>
      </trkpt>
      <trkpt lat="43.7286" lon="6.96076">
        <ele>859.3</ele>
        <time>2016-09-25T11:37:35Z</time>
      </trkpt>
      <trkpt lat="43.72863" lon="6.96075">
        <ele>859.6</ele>
        <time>2016-09-25T11:37:37Z</time>
      </trkpt>
      <trkpt lat="43.72865" lon="6.96073">
        <ele>859.8</ele>
        <time>2016-09-25T11:37:39Z</time>
      </trkpt>
      <trkpt lat="43.72868" lon="6.96072">
        <ele>860</ele>
        <time>2016-09-25T11:37:41Z</time>
      </trkpt>
      <trkpt lat="43.7287" lon="6.9607">
        <ele>860.1</ele>
        <time>2016-09-25T11:37:43Z</time>
      </trkpt>
      <trkpt lat="43.72874" lon="6.96068">
        <ele>860.3</ele>
        <time>2016-09-25T11:37:45Z</time>
      </trkpt>
      <trkpt lat="43.72877" lon="6.96066">
        <ele>860.3</ele>
        <time>2016-09-25T11:37:47Z</time>
      </trkpt>
      <trkpt lat="43.72879" lon="6.96064">
        <ele>860.2</ele>
        <time>2016-09-25T11:37:49Z</time>
      </trkpt>
      <trkpt lat="43.72882" lon="6.96062">
        <ele>860.4</ele>
        <time>2016-09-25T11:37:51Z</time>
      </trkpt>
      <trkpt lat="43.72885" lon="6.9606">
        <ele>860.6</ele>
        <time>2016-09-25T11:37:53Z</time>
      </trkpt>
      <trkpt lat="43.72888" lon="6.96058">
        <ele>860.7</ele>
        <time>2016-09-25T11:37:55Z</time>
      </trkpt>
      <trkpt lat="43.72891" lon="6.96056">
        <ele>860.8</ele>
        <time>2016-09-25T11:37:57Z</time>
      </trkpt>
      <trkpt lat="43.72894" lon="6.96054">
        <ele>861</ele>
        <time>2016-09-25T11:37:59Z</time>
      </trkpt>
      <trkpt lat="43.72897" lon="6.96051">
        <ele>860.6</ele>
        <time>2016-09-25T11:38:01Z</time>
      </trkpt>
      <trkpt lat="43.729" lon="6.96048">
        <ele>860.4</ele>
        <time>2016-09-25T11:38:03Z</time>
      </trkpt>
      <trkpt lat="43.72903" lon="6.96047">
        <ele>860.7</ele>
        <time>2016-09-25T11:38:05Z</time>
      </trkpt>
      <trkpt lat="43.72906" lon="6.96046">
        <ele>861.1</ele>
        <time>2016-09-25T11:38:07Z</time>
      </trkpt>
      <trkpt lat="43.72909" lon="6.96046">
        <ele>862.1</ele>
        <time>2016-09-25T11:38:09Z</time>
      </trkpt>
      <trkpt lat="43.72912" lon="6.96045">
        <ele>862.6</ele>
        <time>2016-09-25T11:38:11Z</time>
      </trkpt>
      <trkpt lat="43.72915" lon="6.96043">
        <ele>862.4</ele>
        <time>2016-09-25T11:38:13Z</time>
      </trkpt>
      <trkpt lat="43.72918" lon="6.9604">
        <ele>862.6</ele>
        <time>2016-09-25T11:38:15Z</time>
      </trkpt>
      <trkpt lat="43.72921" lon="6.96038">
        <ele>863.2</ele>
        <time>2016-09-25T11:38:17Z</time>
      </trkpt>
      <trkpt lat="43.72924" lon="6.96036">
        <ele>863.8</ele>
        <time>2016-09-25T11:38:19Z</time>
      </trkpt>
      <trkpt lat="43.72927" lon="6.96035">
        <ele>864.3</ele>
        <time>2016-09-25T11:38:21Z</time>
      </trkpt>
      <trkpt lat="43.7293" lon="6.96033">
        <ele>864.7</ele>
        <time>2016-09-25T11:38:23Z</time>
      </trkpt>
      <trkpt lat="43.72933" lon="6.9603">
        <ele>865.2</ele>
        <time>2016-09-25T11:38:25Z</time>
      </trkpt>
      <trkpt lat="43.72936" lon="6.96029">
        <ele>865.6</ele>
        <time>2016-09-25T11:38:27Z</time>
      </trkpt>
      <trkpt lat="43.72939" lon="6.96027">
        <ele>866</ele>
        <time>2016-09-25T11:38:29Z</time>
      </trkpt>
      <trkpt lat="43.72943" lon="6.96025">
        <ele>866.4</ele>
        <time>2016-09-25T11:38:32Z</time>
      </trkpt>
      <trkpt lat="43.72945" lon="6.96023">
        <ele>866.8</ele>
        <time>2016-09-25T11:38:34Z</time>
      </trkpt>
      <trkpt lat="43.72948" lon="6.96022">
        <ele>867.1</ele>
        <time>2016-09-25T11:38:36Z</time>
      </trkpt>
      <trkpt lat="43.72951" lon="6.9602">
        <ele>867.3</ele>
        <time>2016-09-25T11:38:38Z</time>
      </trkpt>
      <trkpt lat="43.72953" lon="6.96019">
        <ele>867.6</ele>
        <time>2016-09-25T11:38:40Z</time>
      </trkpt>
      <trkpt lat="43.72956" lon="6.96017">
        <ele>867.9</ele>
        <time>2016-09-25T11:38:42Z</time>
      </trkpt>
      <trkpt lat="43.72959" lon="6.96015">
        <ele>868.1</ele>
        <time>2016-09-25T11:38:44Z</time>
      </trkpt>
      <trkpt lat="43.72962" lon="6.96013">
        <ele>868.3</ele>
        <time>2016-09-25T11:38:46Z</time>
      </trkpt>
      <trkpt lat="43.72965" lon="6.96012">
        <ele>868.5</ele>
        <time>2016-09-25T11:38:48Z</time>
      </trkpt>
      <trkpt lat="43.72967" lon="6.9601">
        <ele>868.7</ele>
        <time>2016-09-25T11:38:50Z</time>
      </trkpt>
      <trkpt lat="43.7297" lon="6.96009">
        <ele>868.9</ele>
        <time>2016-09-25T11:38:52Z</time>
      </trkpt>
      <trkpt lat="43.72973" lon="6.96007">
        <ele>869</ele>
        <time>2016-09-25T11:38:54Z</time>
      </trkpt>
      <trkpt lat="43.72975" lon="6.96005">
        <ele>869.1</ele>
        <time>2016-09-25T11:38:56Z</time>
      </trkpt>
      <trkpt lat="43.72977" lon="6.96002">
        <ele>868.9</ele>
        <time>2016-09-25T11:38:58Z</time>
      </trkpt>
      <trkpt lat="43.72979" lon="6.96">
        <ele>868.7</ele>
        <time>2016-09-25T11:39:00Z</time>
      </trkpt>
      <trkpt lat="43.72982" lon="6.95998">
        <ele>868.7</ele>
        <time>2016-09-25T11:39:02Z</time>
      </trkpt>
      <trkpt lat="43.72984" lon="6.95997">
        <ele>869</ele>
        <time>2016-09-25T11:39:04Z</time>
      </trkpt>
      <trkpt lat="43.72988" lon="6.95995">
        <ele>869.2</ele>
        <time>2016-09-25T11:39:07Z</time>
      </trkpt>
      <trkpt lat="43.72992" lon="6.95993">
        <ele>869.3</ele>
        <time>2016-09-25T11:39:10Z</time>
      </trkpt>
      <trkpt lat="43.72995" lon="6.95994">
        <ele>870.1</ele>
        <time>2016-09-25T11:39:12Z</time>
      </trkpt>
      <trkpt lat="43.72998" lon="6.95994">
        <ele>870.6</ele>
        <time>2016-09-25T11:39:14Z</time>
      </trkpt>
      <trkpt lat="43.73001" lon="6.95992">
        <ele>870.7</ele>
        <time>2016-09-25T11:39:16Z</time>
      </trkpt>
      <trkpt lat="43.73003" lon="6.95991">
        <ele>870.7</ele>
        <time>2016-09-25T11:39:18Z</time>
      </trkpt>
      <trkpt lat="43.73007" lon="6.95989">
        <ele>870.8</ele>
        <time>2016-09-25T11:39:21Z</time>
      </trkpt>
      <trkpt lat="43.7301" lon="6.95987">
        <ele>870.7</ele>
        <time>2016-09-25T11:39:23Z</time>
      </trkpt>
      <trkpt lat="43.73012" lon="6.95986">
        <ele>870.8</ele>
        <time>2016-09-25T11:39:25Z</time>
      </trkpt>
      <trkpt lat="43.73015" lon="6.95985">
        <ele>871.1</ele>
        <time>2016-09-25T11:39:27Z</time>
      </trkpt>
      <trkpt lat="43.73018" lon="6.95984">
        <ele>871.3</ele>
        <time>2016-09-25T11:39:29Z</time>
      </trkpt>
      <trkpt lat="43.73022" lon="6.95983">
        <ele>871.6</ele>
        <time>2016-09-25T11:39:31Z</time>
      </trkpt>
      <trkpt lat="43.73025" lon="6.95982">
        <ele>871.7</ele>
        <time>2016-09-25T11:39:33Z</time>
      </trkpt>
      <trkpt lat="43.73027" lon="6.9598">
        <ele>871.5</ele>
        <time>2016-09-25T11:39:35Z</time>
      </trkpt>
      <trkpt lat="43.7303" lon="6.95978">
        <ele>871.4</ele>
        <time>2016-09-25T11:39:37Z</time>
      </trkpt>
      <trkpt lat="43.73033" lon="6.95977">
        <ele>871.6</ele>
        <time>2016-09-25T11:39:39Z</time>
      </trkpt>
      <trkpt lat="43.73036" lon="6.95977">
        <ele>871.9</ele>
        <time>2016-09-25T11:39:41Z</time>
      </trkpt>
      <trkpt lat="43.73039" lon="6.95976">
        <ele>872</ele>
        <time>2016-09-25T11:39:43Z</time>
      </trkpt>
      <trkpt lat="43.73042" lon="6.95975">
        <ele>872.3</ele>
        <time>2016-09-25T11:39:45Z</time>
      </trkpt>
      <trkpt lat="43.73045" lon="6.95975">
        <ele>873</ele>
        <time>2016-09-25T11:39:47Z</time>
      </trkpt>
      <trkpt lat="43.73048" lon="6.95974">
        <ele>873.6</ele>
        <time>2016-09-25T11:39:49Z</time>
      </trkpt>
      <trkpt lat="43.73051" lon="6.95973">
        <ele>874.1</ele>
        <time>2016-09-25T11:39:51Z</time>
      </trkpt>
      <trkpt lat="43.73054" lon="6.95973">
        <ele>874.9</ele>
        <time>2016-09-25T11:39:53Z</time>
      </trkpt>
      <trkpt lat="43.73057" lon="6.95973">
        <ele>875.6</ele>
        <time>2016-09-25T11:39:55Z</time>
      </trkpt>
      <trkpt lat="43.73061" lon="6.95972">
        <ele>876.4</ele>
        <time>2016-09-25T11:39:58Z</time>
      </trkpt>
      <trkpt lat="43.73063" lon="6.95971">
        <ele>876.7</ele>
        <time>2016-09-25T11:40:00Z</time>
      </trkpt>
      <trkpt lat="43.73066" lon="6.9597">
        <ele>877</ele>
        <time>2016-09-25T11:40:02Z</time>
      </trkpt>
      <trkpt lat="43.73068" lon="6.95968">
        <ele>877</ele>
        <time>2016-09-25T11:40:04Z</time>
      </trkpt>
      <trkpt lat="43.73072" lon="6.95966">
        <ele>877.2</ele>
        <time>2016-09-25T11:40:07Z</time>
      </trkpt>
      <trkpt lat="43.73076" lon="6.95965">
        <ele>877.7</ele>
        <time>2016-09-25T11:40:10Z</time>
      </trkpt>
      <trkpt lat="43.73079" lon="6.95964">
        <ele>878.4</ele>
        <time>2016-09-25T11:40:13Z</time>
      </trkpt>
      <trkpt lat="43.73083" lon="6.95962">
        <ele>878.8</ele>
        <time>2016-09-25T11:40:16Z</time>
      </trkpt>
      <trkpt lat="43.73086" lon="6.95959">
        <ele>878.4</ele>
        <time>2016-09-25T11:40:19Z</time>
      </trkpt>
      <trkpt lat="43.73088" lon="6.95956">
        <ele>878.7</ele>
        <time>2016-09-25T11:40:21Z</time>
      </trkpt>
      <trkpt lat="43.73091" lon="6.95955">
        <ele>879.3</ele>
        <time>2016-09-25T11:40:23Z</time>
      </trkpt>
      <trkpt lat="43.73093" lon="6.95953">
        <ele>879.8</ele>
        <time>2016-09-25T11:40:25Z</time>
      </trkpt>
      <trkpt lat="43.73096" lon="6.95951">
        <ele>880.2</ele>
        <time>2016-09-25T11:40:27Z</time>
      </trkpt>
      <trkpt lat="43.73098" lon="6.95949">
        <ele>880.7</ele>
        <time>2016-09-25T11:40:29Z</time>
      </trkpt>
      <trkpt lat="43.73101" lon="6.95948">
        <ele>881.2</ele>
        <time>2016-09-25T11:40:31Z</time>
      </trkpt>
      <trkpt lat="43.73104" lon="6.95946">
        <ele>881.9</ele>
        <time>2016-09-25T11:40:34Z</time>
      </trkpt>
      <trkpt lat="43.73108" lon="6.95944">
        <ele>882.6</ele>
        <time>2016-09-25T11:40:37Z</time>
      </trkpt>
      <trkpt lat="43.73111" lon="6.95941">
        <ele>883.2</ele>
        <time>2016-09-25T11:40:40Z</time>
      </trkpt>
      <trkpt lat="43.73115" lon="6.95938">
        <ele>883.5</ele>
        <time>2016-09-25T11:40:43Z</time>
      </trkpt>
      <trkpt lat="43.73118" lon="6.95935">
        <ele>884</ele>
        <time>2016-09-25T11:40:46Z</time>
      </trkpt>
      <trkpt lat="43.73121" lon="6.95934">
        <ele>884.6</ele>
        <time>2016-09-25T11:40:49Z</time>
      </trkpt>
      <trkpt lat="43.73125" lon="6.95932">
        <ele>885.1</ele>
        <time>2016-09-25T11:40:52Z</time>
      </trkpt>
      <trkpt lat="43.73128" lon="6.9593">
        <ele>885.6</ele>
        <time>2016-09-25T11:40:55Z</time>
      </trkpt>
      <trkpt lat="43.73131" lon="6.9593">
        <ele>886.4</ele>
        <time>2016-09-25T11:40:58Z</time>
      </trkpt>
      <trkpt lat="43.73135" lon="6.95928">
        <ele>887.1</ele>
        <time>2016-09-25T11:41:01Z</time>
      </trkpt>
      <trkpt lat="43.73137" lon="6.95925">
        <ele>887.1</ele>
        <time>2016-09-25T11:41:03Z</time>
      </trkpt>
      <trkpt lat="43.73139" lon="6.95921">
        <ele>887.1</ele>
        <time>2016-09-25T11:41:06Z</time>
      </trkpt>
      <trkpt lat="43.73143" lon="6.95919">
        <ele>887.7</ele>
        <time>2016-09-25T11:41:09Z</time>
      </trkpt>
      <trkpt lat="43.73147" lon="6.95918">
        <ele>888.3</ele>
        <time>2016-09-25T11:41:12Z</time>
      </trkpt>
      <trkpt lat="43.7315" lon="6.95916">
        <ele>888.5</ele>
        <time>2016-09-25T11:41:15Z</time>
      </trkpt>
      <trkpt lat="43.73153" lon="6.95914">
        <ele>888.9</ele>
        <time>2016-09-25T11:41:18Z</time>
      </trkpt>
      <trkpt lat="43.73156" lon="6.95913">
        <ele>889.3</ele>
        <time>2016-09-25T11:41:21Z</time>
      </trkpt>
      <trkpt lat="43.73159" lon="6.9591">
        <ele>889.5</ele>
        <time>2016-09-25T11:41:24Z</time>
      </trkpt>
      <trkpt lat="43.73162" lon="6.95908">
        <ele>889.6</ele>
        <time>2016-09-25T11:41:27Z</time>
      </trkpt>
      <trkpt lat="43.73165" lon="6.95907">
        <ele>890</ele>
        <time>2016-09-25T11:41:30Z</time>
      </trkpt>
      <trkpt lat="43.73168" lon="6.95905">
        <ele>890.1</ele>
        <time>2016-09-25T11:41:33Z</time>
      </trkpt>
      <trkpt lat="43.73171" lon="6.95904">
        <ele>890.6</ele>
        <time>2016-09-25T11:41:36Z</time>
      </trkpt>
      <trkpt lat="43.73174" lon="6.95903">
        <ele>891</ele>
        <time>2016-09-25T11:41:38Z</time>
      </trkpt>
      <trkpt lat="43.73177" lon="6.95901">
        <ele>891.1</ele>
        <time>2016-09-25T11:41:40Z</time>
      </trkpt>
      <trkpt lat="43.7318" lon="6.95899">
        <ele>891.1</ele>
        <time>2016-09-25T11:41:42Z</time>
      </trkpt>
      <trkpt lat="43.73182" lon="6.95898">
        <ele>891.1</ele>
        <time>2016-09-25T11:41:44Z</time>
      </trkpt>
      <trkpt lat="43.73185" lon="6.95895">
        <ele>891.1</ele>
        <time>2016-09-25T11:41:46Z</time>
      </trkpt>
      <trkpt lat="43.73187" lon="6.95893">
        <ele>890.9</ele>
        <time>2016-09-25T11:41:48Z</time>
      </trkpt>
      <trkpt lat="43.7319" lon="6.95891">
        <ele>890.6</ele>
        <time>2016-09-25T11:41:50Z</time>
      </trkpt>
      <trkpt lat="43.73192" lon="6.95888">
        <ele>890.3</ele>
        <time>2016-09-25T11:41:52Z</time>
      </trkpt>
      <trkpt lat="43.73194" lon="6.95885">
        <ele>889.8</ele>
        <time>2016-09-25T11:41:54Z</time>
      </trkpt>
      <trkpt lat="43.73196" lon="6.95882">
        <ele>889.5</ele>
        <time>2016-09-25T11:41:56Z</time>
      </trkpt>
      <trkpt lat="43.73199" lon="6.9588">
        <ele>889.1</ele>
        <time>2016-09-25T11:41:58Z</time>
      </trkpt>
      <trkpt lat="43.73201" lon="6.95877">
        <ele>888.8</ele>
        <time>2016-09-25T11:42:00Z</time>
      </trkpt>
      <trkpt lat="43.73204" lon="6.95874">
        <ele>888.5</ele>
        <time>2016-09-25T11:42:02Z</time>
      </trkpt>
      <trkpt lat="43.73206" lon="6.95871">
        <ele>888.8</ele>
        <time>2016-09-25T11:42:04Z</time>
      </trkpt>
      <trkpt lat="43.73209" lon="6.95869">
        <ele>889.2</ele>
        <time>2016-09-25T11:42:06Z</time>
      </trkpt>
      <trkpt lat="43.73211" lon="6.95866">
        <ele>890</ele>
        <time>2016-09-25T11:42:08Z</time>
      </trkpt>
      <trkpt lat="43.73214" lon="6.95863">
        <ele>890.7</ele>
        <time>2016-09-25T11:42:10Z</time>
      </trkpt>
      <trkpt lat="43.73216" lon="6.95861">
        <ele>891.5</ele>
        <time>2016-09-25T11:42:12Z</time>
      </trkpt>
      <trkpt lat="43.73219" lon="6.95858">
        <ele>892.2</ele>
        <time>2016-09-25T11:42:14Z</time>
      </trkpt>
      <trkpt lat="43.73222" lon="6.95855">
        <ele>892.8</ele>
        <time>2016-09-25T11:42:16Z</time>
      </trkpt>
      <trkpt lat="43.73224" lon="6.95852">
        <ele>893.4</ele>
        <time>2016-09-25T11:42:18Z</time>
      </trkpt>
      <trkpt lat="43.73227" lon="6.95849">
        <ele>894</ele>
        <time>2016-09-25T11:42:20Z</time>
      </trkpt>
      <trkpt lat="43.7323" lon="6.95847">
        <ele>894.6</ele>
        <time>2016-09-25T11:42:22Z</time>
      </trkpt>
      <trkpt lat="43.73233" lon="6.95844">
        <ele>895.1</ele>
        <time>2016-09-25T11:42:24Z</time>
      </trkpt>
      <trkpt lat="43.73236" lon="6.95842">
        <ele>895.5</ele>
        <time>2016-09-25T11:42:26Z</time>
      </trkpt>
      <trkpt lat="43.73238" lon="6.95839">
        <ele>895.8</ele>
        <time>2016-09-25T11:42:28Z</time>
      </trkpt>
      <trkpt lat="43.7324" lon="6.95837">
        <ele>896.2</ele>
        <time>2016-09-25T11:42:30Z</time>
      </trkpt>
      <trkpt lat="43.73243" lon="6.95834">
        <ele>896.4</ele>
        <time>2016-09-25T11:42:32Z</time>
      </trkpt>
      <trkpt lat="43.73245" lon="6.95831">
        <ele>896.5</ele>
        <time>2016-09-25T11:42:34Z</time>
      </trkpt>
      <trkpt lat="43.73247" lon="6.95828">
        <ele>896.6</ele>
        <time>2016-09-25T11:42:36Z</time>
      </trkpt>
      <trkpt lat="43.73249" lon="6.95825">
        <ele>896.6</ele>
        <time>2016-09-25T11:42:38Z</time>
      </trkpt>
      <trkpt lat="43.73252" lon="6.95823">
        <ele>896.7</ele>
        <time>2016-09-25T11:42:40Z</time>
      </trkpt>
      <trkpt lat="43.73254" lon="6.9582">
        <ele>896.6</ele>
        <time>2016-09-25T11:42:42Z</time>
      </trkpt>
      <trkpt lat="43.73257" lon="6.95818">
        <ele>896.8</ele>
        <time>2016-09-25T11:42:45Z</time>
      </trkpt>
      <trkpt lat="43.73261" lon="6.95816">
        <ele>897.1</ele>
        <time>2016-09-25T11:42:48Z</time>
      </trkpt>
      <trkpt lat="43.73265" lon="6.95814">
        <ele>897.2</ele>
        <time>2016-09-25T11:42:51Z</time>
      </trkpt>
      <trkpt lat="43.73267" lon="6.95812">
        <ele>897.3</ele>
        <time>2016-09-25T11:42:53Z</time>
      </trkpt>
      <trkpt lat="43.7327" lon="6.95811">
        <ele>897.4</ele>
        <time>2016-09-25T11:42:55Z</time>
      </trkpt>
      <trkpt lat="43.73273" lon="6.9581">
        <ele>897.5</ele>
        <time>2016-09-25T11:42:57Z</time>
      </trkpt>
      <trkpt lat="43.73276" lon="6.95809">
        <ele>897.7</ele>
        <time>2016-09-25T11:42:59Z</time>
      </trkpt>
      <trkpt lat="43.73278" lon="6.95808">
        <ele>897.9</ele>
        <time>2016-09-25T11:43:01Z</time>
      </trkpt>
      <trkpt lat="43.73281" lon="6.95808">
        <ele>898</ele>
        <time>2016-09-25T11:43:03Z</time>
      </trkpt>
      <trkpt lat="43.73284" lon="6.95807">
        <ele>898.2</ele>
        <time>2016-09-25T11:43:05Z</time>
      </trkpt>
      <trkpt lat="43.73287" lon="6.95807">
        <ele>898.5</ele>
        <time>2016-09-25T11:43:07Z</time>
      </trkpt>
      <trkpt lat="43.7329" lon="6.95807">
        <ele>898.9</ele>
        <time>2016-09-25T11:43:09Z</time>
      </trkpt>
      <trkpt lat="43.73293" lon="6.95807">
        <ele>899.4</ele>
        <time>2016-09-25T11:43:11Z</time>
      </trkpt>
      <trkpt lat="43.73296" lon="6.95808">
        <ele>900</ele>
        <time>2016-09-25T11:43:13Z</time>
      </trkpt>
      <trkpt lat="43.73299" lon="6.95808">
        <ele>900.8</ele>
        <time>2016-09-25T11:43:15Z</time>
      </trkpt>
      <trkpt lat="43.73302" lon="6.95808">
        <ele>901.4</ele>
        <time>2016-09-25T11:43:17Z</time>
      </trkpt>
      <trkpt lat="43.73305" lon="6.95808">
        <ele>902.1</ele>
        <time>2016-09-25T11:43:19Z</time>
      </trkpt>
      <trkpt lat="43.73308" lon="6.95808">
        <ele>902.7</ele>
        <time>2016-09-25T11:43:21Z</time>
      </trkpt>
      <trkpt lat="43.73311" lon="6.95809">
        <ele>903.5</ele>
        <time>2016-09-25T11:43:23Z</time>
      </trkpt>
      <trkpt lat="43.73314" lon="6.9581">
        <ele>904.3</ele>
        <time>2016-09-25T11:43:25Z</time>
      </trkpt>
      <trkpt lat="43.73316" lon="6.9581">
        <ele>905</ele>
        <time>2016-09-25T11:43:27Z</time>
      </trkpt>
      <trkpt lat="43.73319" lon="6.95811">
        <ele>905.7</ele>
        <time>2016-09-25T11:43:29Z</time>
      </trkpt>
      <trkpt lat="43.73322" lon="6.95811">
        <ele>906.4</ele>
        <time>2016-09-25T11:43:31Z</time>
      </trkpt>
      <trkpt lat="43.73325" lon="6.95812">
        <ele>907.1</ele>
        <time>2016-09-25T11:43:33Z</time>
      </trkpt>
      <trkpt lat="43.73328" lon="6.95812">
        <ele>908</ele>
        <time>2016-09-25T11:43:36Z</time>
      </trkpt>
      <trkpt lat="43.73332" lon="6.95813">
        <ele>908.9</ele>
        <time>2016-09-25T11:43:39Z</time>
      </trkpt>
      <trkpt lat="43.73335" lon="6.95813">
        <ele>909.6</ele>
        <time>2016-09-25T11:43:42Z</time>
      </trkpt>
      <trkpt lat="43.73338" lon="6.95813">
        <ele>910.3</ele>
        <time>2016-09-25T11:43:45Z</time>
      </trkpt>
      <trkpt lat="43.73341" lon="6.95814">
        <ele>911.1</ele>
        <time>2016-09-25T11:43:47Z</time>
      </trkpt>
      <trkpt lat="43.73344" lon="6.95814">
        <ele>911.6</ele>
        <time>2016-09-25T11:43:49Z</time>
      </trkpt>
      <trkpt lat="43.73347" lon="6.95814">
        <ele>912.3</ele>
        <time>2016-09-25T11:43:51Z</time>
      </trkpt>
      <trkpt lat="43.73349" lon="6.95815">
        <ele>913.1</ele>
        <time>2016-09-25T11:43:53Z</time>
      </trkpt>
      <trkpt lat="43.73352" lon="6.95816">
        <ele>913.9</ele>
        <time>2016-09-25T11:43:55Z</time>
      </trkpt>
      <trkpt lat="43.73355" lon="6.95817">
        <ele>914.5</ele>
        <time>2016-09-25T11:43:57Z</time>
      </trkpt>
      <trkpt lat="43.73358" lon="6.95817">
        <ele>915.2</ele>
        <time>2016-09-25T11:43:59Z</time>
      </trkpt>
      <trkpt lat="43.73361" lon="6.95817">
        <ele>915.8</ele>
        <time>2016-09-25T11:44:01Z</time>
      </trkpt>
      <trkpt lat="43.73363" lon="6.95818">
        <ele>916.5</ele>
        <time>2016-09-25T11:44:03Z</time>
      </trkpt>
      <trkpt lat="43.73366" lon="6.95818">
        <ele>917.2</ele>
        <time>2016-09-25T11:44:05Z</time>
      </trkpt>
      <trkpt lat="43.73369" lon="6.95818">
        <ele>917.8</ele>
        <time>2016-09-25T11:44:07Z</time>
      </trkpt>
      <trkpt lat="43.73372" lon="6.95817">
        <ele>918.3</ele>
        <time>2016-09-25T11:44:09Z</time>
      </trkpt>
      <trkpt lat="43.73376" lon="6.95817">
        <ele>918.8</ele>
        <time>2016-09-25T11:44:11Z</time>
      </trkpt>
      <trkpt lat="43.73378" lon="6.95816">
        <ele>919.3</ele>
        <time>2016-09-25T11:44:13Z</time>
      </trkpt>
      <trkpt lat="43.73381" lon="6.95814">
        <ele>919.6</ele>
        <time>2016-09-25T11:44:15Z</time>
      </trkpt>
      <trkpt lat="43.73384" lon="6.95813">
        <ele>919.8</ele>
        <time>2016-09-25T11:44:17Z</time>
      </trkpt>
      <trkpt lat="43.73386" lon="6.9581">
        <ele>919.8</ele>
        <time>2016-09-25T11:44:19Z</time>
      </trkpt>
      <trkpt lat="43.73389" lon="6.95806">
        <ele>919.6</ele>
        <time>2016-09-25T11:44:21Z</time>
      </trkpt>
      <trkpt lat="43.73391" lon="6.95803">
        <ele>919.4</ele>
        <time>2016-09-25T11:44:23Z</time>
      </trkpt>
      <trkpt lat="43.73392" lon="6.958">
        <ele>919.3</ele>
        <time>2016-09-25T11:44:25Z</time>
      </trkpt>
      <trkpt lat="43.73395" lon="6.95797">
        <ele>919.4</ele>
        <time>2016-09-25T11:44:27Z</time>
      </trkpt>
      <trkpt lat="43.73396" lon="6.95794">
        <ele>919.4</ele>
        <time>2016-09-25T11:44:29Z</time>
      </trkpt>
      <trkpt lat="43.73398" lon="6.9579">
        <ele>919.1</ele>
        <time>2016-09-25T11:44:32Z</time>
      </trkpt>
      <trkpt lat="43.73398" lon="6.95784">
        <ele>919</ele>
        <time>2016-09-25T11:44:35Z</time>
      </trkpt>
      <trkpt lat="43.73398" lon="6.9578">
        <ele>918.8</ele>
        <time>2016-09-25T11:44:37Z</time>
      </trkpt>
      <trkpt lat="43.73398" lon="6.95776">
        <ele>918.8</ele>
        <time>2016-09-25T11:44:39Z</time>
      </trkpt>
      <trkpt lat="43.73398" lon="6.95772">
        <ele>918.6</ele>
        <time>2016-09-25T11:44:41Z</time>
      </trkpt>
      <trkpt lat="43.73398" lon="6.95768">
        <ele>918.5</ele>
        <time>2016-09-25T11:44:43Z</time>
      </trkpt>
      <trkpt lat="43.73398" lon="6.95764">
        <ele>918.3</ele>
        <time>2016-09-25T11:44:45Z</time>
      </trkpt>
      <trkpt lat="43.73397" lon="6.9576">
        <ele>917.9</ele>
        <time>2016-09-25T11:44:47Z</time>
      </trkpt>
      <trkpt lat="43.73395" lon="6.95757">
        <ele>917.3</ele>
        <time>2016-09-25T11:44:49Z</time>
      </trkpt>
      <trkpt lat="43.73394" lon="6.95753">
        <ele>916.6</ele>
        <time>2016-09-25T11:44:51Z</time>
      </trkpt>
      <trkpt lat="43.73392" lon="6.9575">
        <ele>916</ele>
        <time>2016-09-25T11:44:53Z</time>
      </trkpt>
      <trkpt lat="43.7339" lon="6.95747">
        <ele>915.2</ele>
        <time>2016-09-25T11:44:55Z</time>
      </trkpt>
      <trkpt lat="43.73389" lon="6.95743">
        <ele>914.7</ele>
        <time>2016-09-25T11:44:57Z</time>
      </trkpt>
      <trkpt lat="43.73388" lon="6.95738">
        <ele>914</ele>
        <time>2016-09-25T11:45:00Z</time>
      </trkpt>
      <trkpt lat="43.73386" lon="6.95735">
        <ele>913.4</ele>
        <time>2016-09-25T11:45:02Z</time>
      </trkpt>
      <trkpt lat="43.73385" lon="6.95731">
        <ele>912.6</ele>
        <time>2016-09-25T11:45:04Z</time>
      </trkpt>
      <trkpt lat="43.73383" lon="6.95727">
        <ele>911.8</ele>
        <time>2016-09-25T11:45:06Z</time>
      </trkpt>
      <trkpt lat="43.73382" lon="6.95722">
        <ele>911.2</ele>
        <time>2016-09-25T11:45:08Z</time>
      </trkpt>
      <trkpt lat="43.73381" lon="6.95718">
        <ele>910.7</ele>
        <time>2016-09-25T11:45:10Z</time>
      </trkpt>
      <trkpt lat="43.7338" lon="6.95714">
        <ele>910.2</ele>
        <time>2016-09-25T11:45:12Z</time>
      </trkpt>
      <trkpt lat="43.7338" lon="6.9571">
        <ele>909.9</ele>
        <time>2016-09-25T11:45:14Z</time>
      </trkpt>
      <trkpt lat="43.7338" lon="6.95705">
        <ele>909.9</ele>
        <time>2016-09-25T11:45:16Z</time>
      </trkpt>
      <trkpt lat="43.73381" lon="6.95701">
        <ele>910.1</ele>
        <time>2016-09-25T11:45:18Z</time>
      </trkpt>
      <trkpt lat="43.73382" lon="6.95697">
        <ele>910.4</ele>
        <time>2016-09-25T11:45:20Z</time>
      </trkpt>
      <trkpt lat="43.73383" lon="6.95693">
        <ele>910.9</ele>
        <time>2016-09-25T11:45:22Z</time>
      </trkpt>
      <trkpt lat="43.73383" lon="6.95688">
        <ele>911.1</ele>
        <time>2016-09-25T11:45:24Z</time>
      </trkpt>
      <trkpt lat="43.73384" lon="6.95684">
        <ele>911.3</ele>
        <time>2016-09-25T11:45:26Z</time>
      </trkpt>
      <trkpt lat="43.73386" lon="6.95681">
        <ele>911.9</ele>
        <time>2016-09-25T11:45:28Z</time>
      </trkpt>
      <trkpt lat="43.73388" lon="6.95676">
        <ele>912.4</ele>
        <time>2016-09-25T11:45:30Z</time>
      </trkpt>
      <trkpt lat="43.73389" lon="6.95672">
        <ele>912.8</ele>
        <time>2016-09-25T11:45:32Z</time>
      </trkpt>
      <trkpt lat="43.73391" lon="6.95668">
        <ele>913.2</ele>
        <time>2016-09-25T11:45:34Z</time>
      </trkpt>
      <trkpt lat="43.73393" lon="6.95664">
        <ele>913.6</ele>
        <time>2016-09-25T11:45:36Z</time>
      </trkpt>
      <trkpt lat="43.73394" lon="6.95659">
        <ele>914</ele>
        <time>2016-09-25T11:45:38Z</time>
      </trkpt>
      <trkpt lat="43.73396" lon="6.95656">
        <ele>914.5</ele>
        <time>2016-09-25T11:45:40Z</time>
      </trkpt>
      <trkpt lat="43.73398" lon="6.95651">
        <ele>914.7</ele>
        <time>2016-09-25T11:45:42Z</time>
      </trkpt>
      <trkpt lat="43.73399" lon="6.95648">
        <ele>915</ele>
        <time>2016-09-25T11:45:44Z</time>
      </trkpt>
      <trkpt lat="43.73401" lon="6.95645">
        <ele>915.3</ele>
        <time>2016-09-25T11:45:46Z</time>
      </trkpt>
      <trkpt lat="43.73403" lon="6.95641">
        <ele>915.7</ele>
        <time>2016-09-25T11:45:48Z</time>
      </trkpt>
      <trkpt lat="43.73405" lon="6.95638">
        <ele>916</ele>
        <time>2016-09-25T11:45:50Z</time>
      </trkpt>
      <trkpt lat="43.73407" lon="6.95635">
        <ele>916.4</ele>
        <time>2016-09-25T11:45:52Z</time>
      </trkpt>
      <trkpt lat="43.73409" lon="6.95632">
        <ele>916.7</ele>
        <time>2016-09-25T11:45:54Z</time>
      </trkpt>
      <trkpt lat="43.73411" lon="6.95629">
        <ele>917.1</ele>
        <time>2016-09-25T11:45:56Z</time>
      </trkpt>
      <trkpt lat="43.73414" lon="6.95626">
        <ele>917.5</ele>
        <time>2016-09-25T11:45:58Z</time>
      </trkpt>
      <trkpt lat="43.73417" lon="6.95623">
        <ele>918.1</ele>
        <time>2016-09-25T11:46:00Z</time>
      </trkpt>
      <trkpt lat="43.73419" lon="6.9562">
        <ele>918.8</ele>
        <time>2016-09-25T11:46:02Z</time>
      </trkpt>
      <trkpt lat="43.73422" lon="6.95617">
        <ele>919.5</ele>
        <time>2016-09-25T11:46:04Z</time>
      </trkpt>
      <trkpt lat="43.73425" lon="6.95614">
        <ele>920.3</ele>
        <time>2016-09-25T11:46:06Z</time>
      </trkpt>
      <trkpt lat="43.73428" lon="6.95611">
        <ele>920.9</ele>
        <time>2016-09-25T11:46:08Z</time>
      </trkpt>
      <trkpt lat="43.73431" lon="6.95608">
        <ele>921.5</ele>
        <time>2016-09-25T11:46:10Z</time>
      </trkpt>
      <trkpt lat="43.73434" lon="6.95605">
        <ele>922.1</ele>
        <time>2016-09-25T11:46:12Z</time>
      </trkpt>
      <trkpt lat="43.73436" lon="6.95602">
        <ele>922.7</ele>
        <time>2016-09-25T11:46:14Z</time>
      </trkpt>
      <trkpt lat="43.73439" lon="6.95599">
        <ele>923.2</ele>
        <time>2016-09-25T11:46:16Z</time>
      </trkpt>
      <trkpt lat="43.73442" lon="6.95596">
        <ele>923.7</ele>
        <time>2016-09-25T11:46:18Z</time>
      </trkpt>
      <trkpt lat="43.73445" lon="6.95593">
        <ele>924.1</ele>
        <time>2016-09-25T11:46:20Z</time>
      </trkpt>
      <trkpt lat="43.73447" lon="6.9559">
        <ele>924.5</ele>
        <time>2016-09-25T11:46:22Z</time>
      </trkpt>
      <trkpt lat="43.7345" lon="6.95587">
        <ele>924.8</ele>
        <time>2016-09-25T11:46:24Z</time>
      </trkpt>
      <trkpt lat="43.73452" lon="6.95585">
        <ele>925.1</ele>
        <time>2016-09-25T11:46:26Z</time>
      </trkpt>
      <trkpt lat="43.73454" lon="6.95581">
        <ele>925.4</ele>
        <time>2016-09-25T11:46:28Z</time>
      </trkpt>
      <trkpt lat="43.73456" lon="6.95578">
        <ele>925.5</ele>
        <time>2016-09-25T11:46:30Z</time>
      </trkpt>
      <trkpt lat="43.73457" lon="6.95574">
        <ele>925.6</ele>
        <time>2016-09-25T11:46:32Z</time>
      </trkpt>
      <trkpt lat="43.73459" lon="6.9557">
        <ele>925.9</ele>
        <time>2016-09-25T11:46:34Z</time>
      </trkpt>
      <trkpt lat="43.7346" lon="6.95566">
        <ele>926.3</ele>
        <time>2016-09-25T11:46:36Z</time>
      </trkpt>
      <trkpt lat="43.7346" lon="6.95561">
        <ele>926.3</ele>
        <time>2016-09-25T11:46:38Z</time>
      </trkpt>
      <trkpt lat="43.7346" lon="6.95557">
        <ele>926.2</ele>
        <time>2016-09-25T11:46:40Z</time>
      </trkpt>
      <trkpt lat="43.7346" lon="6.95553">
        <ele>926</ele>
        <time>2016-09-25T11:46:42Z</time>
      </trkpt>
      <trkpt lat="43.7346" lon="6.95548">
        <ele>926.1</ele>
        <time>2016-09-25T11:46:44Z</time>
      </trkpt>
      <trkpt lat="43.7346" lon="6.95544">
        <ele>925.9</ele>
        <time>2016-09-25T11:46:46Z</time>
      </trkpt>
      <trkpt lat="43.73459" lon="6.9554">
        <ele>925.5</ele>
        <time>2016-09-25T11:46:48Z</time>
      </trkpt>
      <trkpt lat="43.73459" lon="6.95537">
        <ele>925.5</ele>
        <time>2016-09-25T11:46:50Z</time>
      </trkpt>
      <trkpt lat="43.73459" lon="6.95533">
        <ele>925.6</ele>
        <time>2016-09-25T11:46:52Z</time>
      </trkpt>
      <trkpt lat="43.73459" lon="6.95529">
        <ele>926</ele>
        <time>2016-09-25T11:46:54Z</time>
      </trkpt>
      <trkpt lat="43.7346" lon="6.95524">
        <ele>926.7</ele>
        <time>2016-09-25T11:46:57Z</time>
      </trkpt>
      <trkpt lat="43.73461" lon="6.95518">
        <ele>927.2</ele>
        <time>2016-09-25T11:47:00Z</time>
      </trkpt>
      <trkpt lat="43.73461" lon="6.95514">
        <ele>927.5</ele>
        <time>2016-09-25T11:47:02Z</time>
      </trkpt>
      <trkpt lat="43.73461" lon="6.9551">
        <ele>927.8</ele>
        <time>2016-09-25T11:47:04Z</time>
      </trkpt>
      <trkpt lat="43.73461" lon="6.95506">
        <ele>927.8</ele>
        <time>2016-09-25T11:47:06Z</time>
      </trkpt>
      <trkpt lat="43.73461" lon="6.95502">
        <ele>928</ele>
        <time>2016-09-25T11:47:08Z</time>
      </trkpt>
      <trkpt lat="43.73461" lon="6.95498">
        <ele>928.3</ele>
        <time>2016-09-25T11:47:10Z</time>
      </trkpt>
      <trkpt lat="43.73461" lon="6.95492">
        <ele>928.8</ele>
        <time>2016-09-25T11:47:13Z</time>
      </trkpt>
      <trkpt lat="43.73461" lon="6.95489">
        <ele>928.9</ele>
        <time>2016-09-25T11:47:15Z</time>
      </trkpt>
      <trkpt lat="43.73462" lon="6.95485">
        <ele>929.2</ele>
        <time>2016-09-25T11:47:17Z</time>
      </trkpt>
      <trkpt lat="43.73462" lon="6.95479">
        <ele>929.7</ele>
        <time>2016-09-25T11:47:20Z</time>
      </trkpt>
      <trkpt lat="43.73462" lon="6.95475">
        <ele>930</ele>
        <time>2016-09-25T11:47:22Z</time>
      </trkpt>
      <trkpt lat="43.73462" lon="6.95471">
        <ele>929.9</ele>
        <time>2016-09-25T11:47:24Z</time>
      </trkpt>
      <trkpt lat="43.73461" lon="6.95467">
        <ele>929.8</ele>
        <time>2016-09-25T11:47:26Z</time>
      </trkpt>
      <trkpt lat="43.73461" lon="6.95463">
        <ele>929.9</ele>
        <time>2016-09-25T11:47:28Z</time>
      </trkpt>
      <trkpt lat="43.7346" lon="6.95459">
        <ele>930</ele>
        <time>2016-09-25T11:47:30Z</time>
      </trkpt>
      <trkpt lat="43.7346" lon="6.95454">
        <ele>930.1</ele>
        <time>2016-09-25T11:47:32Z</time>
      </trkpt>
      <trkpt lat="43.7346" lon="6.9545">
        <ele>930.3</ele>
        <time>2016-09-25T11:47:34Z</time>
      </trkpt>
      <trkpt lat="43.73461" lon="6.95446">
        <ele>930.6</ele>
        <time>2016-09-25T11:47:36Z</time>
      </trkpt>
      <trkpt lat="43.73461" lon="6.95442">
        <ele>930.8</ele>
        <time>2016-09-25T11:47:38Z</time>
      </trkpt>
      <trkpt lat="43.73461" lon="6.95438">
        <ele>931.3</ele>
        <time>2016-09-25T11:47:40Z</time>
      </trkpt>
      <trkpt lat="43.73462" lon="6.95434">
        <ele>931.8</ele>
        <time>2016-09-25T11:47:42Z</time>
      </trkpt>
      <trkpt lat="43.73463" lon="6.9543">
        <ele>932.2</ele>
        <time>2016-09-25T11:47:44Z</time>
      </trkpt>
      <trkpt lat="43.73463" lon="6.95425">
        <ele>932.7</ele>
        <time>2016-09-25T11:47:46Z</time>
      </trkpt>
      <trkpt lat="43.73464" lon="6.95421">
        <ele>933</ele>
        <time>2016-09-25T11:47:48Z</time>
      </trkpt>
      <trkpt lat="43.73464" lon="6.95416">
        <ele>933.2</ele>
        <time>2016-09-25T11:47:50Z</time>
      </trkpt>
      <trkpt lat="43.73464" lon="6.95412">
        <ele>933.5</ele>
        <time>2016-09-25T11:47:52Z</time>
      </trkpt>
      <trkpt lat="43.73464" lon="6.95408">
        <ele>933.6</ele>
        <time>2016-09-25T11:47:54Z</time>
      </trkpt>
      <trkpt lat="43.73464" lon="6.95404">
        <ele>933.8</ele>
        <time>2016-09-25T11:47:56Z</time>
      </trkpt>
      <trkpt lat="43.73464" lon="6.95399">
        <ele>934</ele>
        <time>2016-09-25T11:47:59Z</time>
      </trkpt>
      <trkpt lat="43.73464" lon="6.95395">
        <ele>934.1</ele>
        <time>2016-09-25T11:48:01Z</time>
      </trkpt>
      <trkpt lat="43.73464" lon="6.95391">
        <ele>934.2</ele>
        <time>2016-09-25T11:48:03Z</time>
      </trkpt>
      <trkpt lat="43.73464" lon="6.95387">
        <ele>934.4</ele>
        <time>2016-09-25T11:48:05Z</time>
      </trkpt>
      <trkpt lat="43.73464" lon="6.95383">
        <ele>934.8</ele>
        <time>2016-09-25T11:48:07Z</time>
      </trkpt>
      <trkpt lat="43.73465" lon="6.95379">
        <ele>935.1</ele>
        <time>2016-09-25T11:48:09Z</time>
      </trkpt>
      <trkpt lat="43.73465" lon="6.95375">
        <ele>935.5</ele>
        <time>2016-09-25T11:48:11Z</time>
      </trkpt>
      <trkpt lat="43.73466" lon="6.9537">
        <ele>936</ele>
        <time>2016-09-25T11:48:13Z</time>
      </trkpt>
      <trkpt lat="43.73467" lon="6.95367">
        <ele>936.6</ele>
        <time>2016-09-25T11:48:15Z</time>
      </trkpt>
      <trkpt lat="43.73468" lon="6.95363">
        <ele>937</ele>
        <time>2016-09-25T11:48:17Z</time>
      </trkpt>
      <trkpt lat="43.73468" lon="6.95359">
        <ele>937.4</ele>
        <time>2016-09-25T11:48:19Z</time>
      </trkpt>
      <trkpt lat="43.73469" lon="6.95355">
        <ele>937.8</ele>
        <time>2016-09-25T11:48:21Z</time>
      </trkpt>
      <trkpt lat="43.7347" lon="6.95351">
        <ele>938.3</ele>
        <time>2016-09-25T11:48:23Z</time>
      </trkpt>
      <trkpt lat="43.73471" lon="6.95348">
        <ele>938.8</ele>
        <time>2016-09-25T11:48:25Z</time>
      </trkpt>
      <trkpt lat="43.73472" lon="6.95344">
        <ele>939.3</ele>
        <time>2016-09-25T11:48:27Z</time>
      </trkpt>
      <trkpt lat="43.73473" lon="6.95341">
        <ele>939.7</ele>
        <time>2016-09-25T11:48:29Z</time>
      </trkpt>
      <trkpt lat="43.73474" lon="6.95337">
        <ele>940.2</ele>
        <time>2016-09-25T11:48:31Z</time>
      </trkpt>
      <trkpt lat="43.73476" lon="6.95333">
        <ele>940.6</ele>
        <time>2016-09-25T11:48:33Z</time>
      </trkpt>
      <trkpt lat="43.73477" lon="6.9533">
        <ele>941</ele>
        <time>2016-09-25T11:48:35Z</time>
      </trkpt>
      <trkpt lat="43.73478" lon="6.95326">
        <ele>941.5</ele>
        <time>2016-09-25T11:48:37Z</time>
      </trkpt>
      <trkpt lat="43.7348" lon="6.95322">
        <ele>941.9</ele>
        <time>2016-09-25T11:48:39Z</time>
      </trkpt>
      <trkpt lat="43.73482" lon="6.95318">
        <ele>942.4</ele>
        <time>2016-09-25T11:48:41Z</time>
      </trkpt>
      <trkpt lat="43.73484" lon="6.95315">
        <ele>942.8</ele>
        <time>2016-09-25T11:48:43Z</time>
      </trkpt>
      <trkpt lat="43.73485" lon="6.95311">
        <ele>943.1</ele>
        <time>2016-09-25T11:48:45Z</time>
      </trkpt>
      <trkpt lat="43.73487" lon="6.95308">
        <ele>943.5</ele>
        <time>2016-09-25T11:48:47Z</time>
      </trkpt>
      <trkpt lat="43.7349" lon="6.95305">
        <ele>943.8</ele>
        <time>2016-09-25T11:48:49Z</time>
      </trkpt>
      <trkpt lat="43.73492" lon="6.95301">
        <ele>944.1</ele>
        <time>2016-09-25T11:48:51Z</time>
      </trkpt>
      <trkpt lat="43.73493" lon="6.95298">
        <ele>944.3</ele>
        <time>2016-09-25T11:48:53Z</time>
      </trkpt>
      <trkpt lat="43.73495" lon="6.95295">
        <ele>944.5</ele>
        <time>2016-09-25T11:48:55Z</time>
      </trkpt>
      <trkpt lat="43.73497" lon="6.95292">
        <ele>944.6</ele>
        <time>2016-09-25T11:48:57Z</time>
      </trkpt>
      <trkpt lat="43.735" lon="6.95288">
        <ele>945.4</ele>
        <time>2016-09-25T11:49:00Z</time>
      </trkpt>
      <trkpt lat="43.73503" lon="6.95284">
        <ele>946.2</ele>
        <time>2016-09-25T11:49:03Z</time>
      </trkpt>
      <trkpt lat="43.73504" lon="6.95281">
        <ele>946.7</ele>
        <time>2016-09-25T11:49:05Z</time>
      </trkpt>
      <trkpt lat="43.73506" lon="6.95278">
        <ele>947.3</ele>
        <time>2016-09-25T11:49:07Z</time>
      </trkpt>
      <trkpt lat="43.73509" lon="6.95276">
        <ele>947.8</ele>
        <time>2016-09-25T11:49:09Z</time>
      </trkpt>
      <trkpt lat="43.7351" lon="6.95272">
        <ele>948.3</ele>
        <time>2016-09-25T11:49:11Z</time>
      </trkpt>
      <trkpt lat="43.73512" lon="6.95269">
        <ele>948.8</ele>
        <time>2016-09-25T11:49:13Z</time>
      </trkpt>
      <trkpt lat="43.73514" lon="6.95266">
        <ele>949.3</ele>
        <time>2016-09-25T11:49:15Z</time>
      </trkpt>
      <trkpt lat="43.73516" lon="6.95263">
        <ele>949.7</ele>
        <time>2016-09-25T11:49:17Z</time>
      </trkpt>
      <trkpt lat="43.73519" lon="6.9526">
        <ele>950.1</ele>
        <time>2016-09-25T11:49:19Z</time>
      </trkpt>
      <trkpt lat="43.73521" lon="6.95258">
        <ele>950.4</ele>
        <time>2016-09-25T11:49:21Z</time>
      </trkpt>
      <trkpt lat="43.73523" lon="6.95254">
        <ele>950.9</ele>
        <time>2016-09-25T11:49:24Z</time>
      </trkpt>
      <trkpt lat="43.73526" lon="6.9525">
        <ele>951.3</ele>
        <time>2016-09-25T11:49:27Z</time>
      </trkpt>
      <trkpt lat="43.73529" lon="6.95247">
        <ele>951.7</ele>
        <time>2016-09-25T11:49:30Z</time>
      </trkpt>
      <trkpt lat="43.73531" lon="6.95244">
        <ele>951.9</ele>
        <time>2016-09-25T11:49:32Z</time>
      </trkpt>
      <trkpt lat="43.73534" lon="6.95241">
        <ele>952.3</ele>
        <time>2016-09-25T11:49:35Z</time>
      </trkpt>
      <trkpt lat="43.73536" lon="6.95238">
        <ele>952.4</ele>
        <time>2016-09-25T11:49:37Z</time>
      </trkpt>
      <trkpt lat="43.73538" lon="6.95235">
        <ele>952.7</ele>
        <time>2016-09-25T11:49:39Z</time>
      </trkpt>
      <trkpt lat="43.7354" lon="6.95232">
        <ele>952.8</ele>
        <time>2016-09-25T11:49:41Z</time>
      </trkpt>
      <trkpt lat="43.73542" lon="6.95229">
        <ele>953.1</ele>
        <time>2016-09-25T11:49:43Z</time>
      </trkpt>
      <trkpt lat="43.73545" lon="6.95226">
        <ele>953.7</ele>
        <time>2016-09-25T11:49:45Z</time>
      </trkpt>
      <trkpt lat="43.73547" lon="6.95222">
        <ele>954.2</ele>
        <time>2016-09-25T11:49:47Z</time>
      </trkpt>
      <trkpt lat="43.73549" lon="6.95219">
        <ele>954.7</ele>
        <time>2016-09-25T11:49:49Z</time>
      </trkpt>
      <trkpt lat="43.7355" lon="6.95216">
        <ele>955</ele>
        <time>2016-09-25T11:49:51Z</time>
      </trkpt>
      <trkpt lat="43.73552" lon="6.95212">
        <ele>955.3</ele>
        <time>2016-09-25T11:49:53Z</time>
      </trkpt>
      <trkpt lat="43.73554" lon="6.95209">
        <ele>955.7</ele>
        <time>2016-09-25T11:49:55Z</time>
      </trkpt>
      <trkpt lat="43.73556" lon="6.95206">
        <ele>956.7</ele>
        <time>2016-09-25T11:49:57Z</time>
      </trkpt>
      <trkpt lat="43.73558" lon="6.95204">
        <ele>957.9</ele>
        <time>2016-09-25T11:49:59Z</time>
      </trkpt>
      <trkpt lat="43.73561" lon="6.95201">
        <ele>959</ele>
        <time>2016-09-25T11:50:01Z</time>
      </trkpt>
      <trkpt lat="43.73563" lon="6.95199">
        <ele>960</ele>
        <time>2016-09-25T11:50:03Z</time>
      </trkpt>
      <trkpt lat="43.73566" lon="6.95196">
        <ele>961</ele>
        <time>2016-09-25T11:50:05Z</time>
      </trkpt>
      <trkpt lat="43.73568" lon="6.95194">
        <ele>962</ele>
        <time>2016-09-25T11:50:07Z</time>
      </trkpt>
      <trkpt lat="43.7357" lon="6.95192">
        <ele>962.9</ele>
        <time>2016-09-25T11:50:09Z</time>
      </trkpt>
      <trkpt lat="43.73573" lon="6.9519">
        <ele>963.7</ele>
        <time>2016-09-25T11:50:11Z</time>
      </trkpt>
      <trkpt lat="43.73575" lon="6.95188">
        <ele>964.5</ele>
        <time>2016-09-25T11:50:13Z</time>
      </trkpt>
      <trkpt lat="43.73578" lon="6.95186">
        <ele>965.3</ele>
        <time>2016-09-25T11:50:15Z</time>
      </trkpt>
      <trkpt lat="43.7358" lon="6.95184">
        <ele>966.2</ele>
        <time>2016-09-25T11:50:17Z</time>
      </trkpt>
      <trkpt lat="43.73582" lon="6.95181">
        <ele>967.1</ele>
        <time>2016-09-25T11:50:19Z</time>
      </trkpt>
      <trkpt lat="43.73585" lon="6.95178">
        <ele>968.1</ele>
        <time>2016-09-25T11:50:21Z</time>
      </trkpt>
      <trkpt lat="43.73587" lon="6.95175">
        <ele>969</ele>
        <time>2016-09-25T11:50:23Z</time>
      </trkpt>
      <trkpt lat="43.7359" lon="6.95173">
        <ele>969.7</ele>
        <time>2016-09-25T11:50:25Z</time>
      </trkpt>
      <trkpt lat="43.73592" lon="6.95171">
        <ele>970.4</ele>
        <time>2016-09-25T11:50:27Z</time>
      </trkpt>
      <trkpt lat="43.73595" lon="6.95169">
        <ele>971.1</ele>
        <time>2016-09-25T11:50:29Z</time>
      </trkpt>
      <trkpt lat="43.73597" lon="6.95167">
        <ele>971.7</ele>
        <time>2016-09-25T11:50:31Z</time>
      </trkpt>
      <trkpt lat="43.736" lon="6.95166">
        <ele>972.2</ele>
        <time>2016-09-25T11:50:33Z</time>
      </trkpt>
      <trkpt lat="43.73602" lon="6.95164">
        <ele>972.9</ele>
        <time>2016-09-25T11:50:35Z</time>
      </trkpt>
      <trkpt lat="43.73605" lon="6.95161">
        <ele>973.5</ele>
        <time>2016-09-25T11:50:37Z</time>
      </trkpt>
      <trkpt lat="43.73607" lon="6.95159">
        <ele>974.1</ele>
        <time>2016-09-25T11:50:39Z</time>
      </trkpt>
      <trkpt lat="43.73611" lon="6.95157">
        <ele>974.7</ele>
        <time>2016-09-25T11:50:42Z</time>
      </trkpt>
      <trkpt lat="43.73613" lon="6.95153">
        <ele>975.7</ele>
        <time>2016-09-25T11:52:12Z</time>
      </trkpt>
      <trkpt lat="43.73616" lon="6.9515">
        <ele>976.4</ele>
        <time>2016-09-25T11:52:14Z</time>
      </trkpt>
      <trkpt lat="43.73618" lon="6.95146">
        <ele>977.1</ele>
        <time>2016-09-25T11:52:16Z</time>
      </trkpt>
      <trkpt lat="43.73619" lon="6.95142">
        <ele>977.8</ele>
        <time>2016-09-25T11:52:18Z</time>
      </trkpt>
      <trkpt lat="43.73619" lon="6.95138">
        <ele>978.6</ele>
        <time>2016-09-25T11:52:20Z</time>
      </trkpt>
      <trkpt lat="43.73619" lon="6.95134">
        <ele>979.5</ele>
        <time>2016-09-25T11:52:22Z</time>
      </trkpt>
      <trkpt lat="43.73618" lon="6.95129">
        <ele>980.3</ele>
        <time>2016-09-25T11:52:24Z</time>
      </trkpt>
      <trkpt lat="43.73617" lon="6.95125">
        <ele>981.1</ele>
        <time>2016-09-25T11:52:26Z</time>
      </trkpt>
      <trkpt lat="43.73615" lon="6.95122">
        <ele>982.4</ele>
        <time>2016-09-25T11:52:28Z</time>
      </trkpt>
      <trkpt lat="43.73613" lon="6.95118">
        <ele>983.9</ele>
        <time>2016-09-25T11:52:30Z</time>
      </trkpt>
      <trkpt lat="43.7361" lon="6.95115">
        <ele>985</ele>
        <time>2016-09-25T11:52:32Z</time>
      </trkpt>
      <trkpt lat="43.73607" lon="6.95113">
        <ele>985.9</ele>
        <time>2016-09-25T11:52:34Z</time>
      </trkpt>
      <trkpt lat="43.73603" lon="6.95111">
        <ele>986.7</ele>
        <time>2016-09-25T11:52:36Z</time>
      </trkpt>
      <trkpt lat="43.736" lon="6.9511">
        <ele>987.2</ele>
        <time>2016-09-25T11:52:38Z</time>
      </trkpt>
      <trkpt lat="43.73596" lon="6.9511">
        <ele>987.2</ele>
        <time>2016-09-25T11:52:40Z</time>
      </trkpt>
      <trkpt lat="43.73592" lon="6.9511">
        <ele>987.4</ele>
        <time>2016-09-25T11:52:42Z</time>
      </trkpt>
      <trkpt lat="43.73589" lon="6.9511">
        <ele>987.4</ele>
        <time>2016-09-25T11:52:44Z</time>
      </trkpt>
      <trkpt lat="43.73586" lon="6.9511">
        <ele>987.4</ele>
        <time>2016-09-25T11:52:46Z</time>
      </trkpt>
      <trkpt lat="43.73583" lon="6.9511">
        <ele>987.6</ele>
        <time>2016-09-25T11:52:48Z</time>
      </trkpt>
      <trkpt lat="43.73579" lon="6.9511">
        <ele>987.8</ele>
        <time>2016-09-25T11:52:50Z</time>
      </trkpt>
      <trkpt lat="43.73576" lon="6.9511">
        <ele>987.9</ele>
        <time>2016-09-25T11:52:52Z</time>
      </trkpt>
      <trkpt lat="43.73572" lon="6.9511">
        <ele>988</ele>
        <time>2016-09-25T11:52:54Z</time>
      </trkpt>
      <trkpt lat="43.73569" lon="6.95109">
        <ele>988.2</ele>
        <time>2016-09-25T11:52:56Z</time>
      </trkpt>
      <trkpt lat="43.73566" lon="6.9511">
        <ele>988.2</ele>
        <time>2016-09-25T11:52:58Z</time>
      </trkpt>
      <trkpt lat="43.73562" lon="6.9511">
        <ele>988.3</ele>
        <time>2016-09-25T11:53:00Z</time>
      </trkpt>
      <trkpt lat="43.73559" lon="6.9511">
        <ele>988.5</ele>
        <time>2016-09-25T11:53:02Z</time>
      </trkpt>
      <trkpt lat="43.73555" lon="6.95109">
        <ele>988.6</ele>
        <time>2016-09-25T11:53:04Z</time>
      </trkpt>
      <trkpt lat="43.73552" lon="6.95109">
        <ele>988.9</ele>
        <time>2016-09-25T11:53:06Z</time>
      </trkpt>
      <trkpt lat="43.73549" lon="6.95109">
        <ele>989</ele>
        <time>2016-09-25T11:53:08Z</time>
      </trkpt>
      <trkpt lat="43.73545" lon="6.95109">
        <ele>989.1</ele>
        <time>2016-09-25T11:53:10Z</time>
      </trkpt>
      <trkpt lat="43.73542" lon="6.95109">
        <ele>989.1</ele>
        <time>2016-09-25T11:53:12Z</time>
      </trkpt>
      <trkpt lat="43.73538" lon="6.95109">
        <ele>989.2</ele>
        <time>2016-09-25T11:53:14Z</time>
      </trkpt>
      <trkpt lat="43.73535" lon="6.95109">
        <ele>989.5</ele>
        <time>2016-09-25T11:53:16Z</time>
      </trkpt>
      <trkpt lat="43.73532" lon="6.95109">
        <ele>989.9</ele>
        <time>2016-09-25T11:53:18Z</time>
      </trkpt>
      <trkpt lat="43.73529" lon="6.95108">
        <ele>990.2</ele>
        <time>2016-09-25T11:53:20Z</time>
      </trkpt>
      <trkpt lat="43.73526" lon="6.95108">
        <ele>990.5</ele>
        <time>2016-09-25T11:53:22Z</time>
      </trkpt>
      <trkpt lat="43.73522" lon="6.95108">
        <ele>990.7</ele>
        <time>2016-09-25T11:53:25Z</time>
      </trkpt>
      <trkpt lat="43.73519" lon="6.95108">
        <ele>990.8</ele>
        <time>2016-09-25T11:53:27Z</time>
      </trkpt>
      <trkpt lat="43.73516" lon="6.95109">
        <ele>990.9</ele>
        <time>2016-09-25T11:53:29Z</time>
      </trkpt>
      <trkpt lat="43.73512" lon="6.95109">
        <ele>991.1</ele>
        <time>2016-09-25T11:53:31Z</time>
      </trkpt>
      <trkpt lat="43.73509" lon="6.95108">
        <ele>991.4</ele>
        <time>2016-09-25T11:53:33Z</time>
      </trkpt>
      <trkpt lat="43.73506" lon="6.9511">
        <ele>991.1</ele>
        <time>2016-09-25T11:53:38Z</time>
      </trkpt>
      <trkpt lat="43.73502" lon="6.9511">
        <ele>991.1</ele>
        <time>2016-09-25T11:53:41Z</time>
      </trkpt>
      <trkpt lat="43.73498" lon="6.95111">
        <ele>991.1</ele>
        <time>2016-09-25T11:53:43Z</time>
      </trkpt>
      <trkpt lat="43.73495" lon="6.9511">
        <ele>991.5</ele>
        <time>2016-09-25T11:53:45Z</time>
      </trkpt>
      <trkpt lat="43.73491" lon="6.9511">
        <ele>992</ele>
        <time>2016-09-25T11:53:47Z</time>
      </trkpt>
      <trkpt lat="43.73487" lon="6.95109">
        <ele>992.4</ele>
        <time>2016-09-25T11:53:49Z</time>
      </trkpt>
      <trkpt lat="43.73484" lon="6.95109">
        <ele>992.7</ele>
        <time>2016-09-25T11:53:51Z</time>
      </trkpt>
      <trkpt lat="43.7348" lon="6.95109">
        <ele>992.8</ele>
        <time>2016-09-25T11:53:53Z</time>
      </trkpt>
      <trkpt lat="43.73477" lon="6.95109">
        <ele>993</ele>
        <time>2016-09-25T11:53:55Z</time>
      </trkpt>
      <trkpt lat="43.73473" lon="6.95109">
        <ele>993.2</ele>
        <time>2016-09-25T11:53:57Z</time>
      </trkpt>
      <trkpt lat="43.7347" lon="6.95109">
        <ele>993.6</ele>
        <time>2016-09-25T11:53:59Z</time>
      </trkpt>
      <trkpt lat="43.73466" lon="6.95108">
        <ele>994</ele>
        <time>2016-09-25T11:54:01Z</time>
      </trkpt>
      <trkpt lat="43.73463" lon="6.95108">
        <ele>994.2</ele>
        <time>2016-09-25T11:54:03Z</time>
      </trkpt>
      <trkpt lat="43.7346" lon="6.95108">
        <ele>994.6</ele>
        <time>2016-09-25T11:54:05Z</time>
      </trkpt>
      <trkpt lat="43.73456" lon="6.95107">
        <ele>995.3</ele>
        <time>2016-09-25T11:54:07Z</time>
      </trkpt>
      <trkpt lat="43.73453" lon="6.95107">
        <ele>996.2</ele>
        <time>2016-09-25T11:54:09Z</time>
      </trkpt>
      <trkpt lat="43.7345" lon="6.95106">
        <ele>997.1</ele>
        <time>2016-09-25T11:54:11Z</time>
      </trkpt>
      <trkpt lat="43.73446" lon="6.95105">
        <ele>998</ele>
        <time>2016-09-25T11:54:13Z</time>
      </trkpt>
      <trkpt lat="43.73443" lon="6.95104">
        <ele>999.1</ele>
        <time>2016-09-25T11:54:15Z</time>
      </trkpt>
      <trkpt lat="43.73439" lon="6.95103">
        <ele>1000.2</ele>
        <time>2016-09-25T11:54:17Z</time>
      </trkpt>
      <trkpt lat="43.73436" lon="6.95101">
        <ele>1001.4</ele>
        <time>2016-09-25T11:54:19Z</time>
      </trkpt>
      <trkpt lat="43.73434" lon="6.95099">
        <ele>1002.7</ele>
        <time>2016-09-25T11:54:21Z</time>
      </trkpt>
      <trkpt lat="43.73431" lon="6.95097">
        <ele>1004</ele>
        <time>2016-09-25T11:54:23Z</time>
      </trkpt>
      <trkpt lat="43.73428" lon="6.95095">
        <ele>1005.2</ele>
        <time>2016-09-25T11:54:25Z</time>
      </trkpt>
      <trkpt lat="43.73425" lon="6.95093">
        <ele>1006.3</ele>
        <time>2016-09-25T11:54:27Z</time>
      </trkpt>
      <trkpt lat="43.73422" lon="6.95091">
        <ele>1007.4</ele>
        <time>2016-09-25T11:54:29Z</time>
      </trkpt>
      <trkpt lat="43.7342" lon="6.9509">
        <ele>1008.4</ele>
        <time>2016-09-25T11:54:31Z</time>
      </trkpt>
      <trkpt lat="43.73417" lon="6.95088">
        <ele>1009.4</ele>
        <time>2016-09-25T11:54:33Z</time>
      </trkpt>
      <trkpt lat="43.73414" lon="6.95087">
        <ele>1010.3</ele>
        <time>2016-09-25T11:54:35Z</time>
      </trkpt>
      <trkpt lat="43.73411" lon="6.95086">
        <ele>1011.2</ele>
        <time>2016-09-25T11:54:37Z</time>
      </trkpt>
      <trkpt lat="43.73407" lon="6.95085">
        <ele>1011.9</ele>
        <time>2016-09-25T11:54:39Z</time>
      </trkpt>
      <trkpt lat="43.73404" lon="6.95086">
        <ele>1012.4</ele>
        <time>2016-09-25T11:54:41Z</time>
      </trkpt>
      <trkpt lat="43.73401" lon="6.95087">
        <ele>1012.6</ele>
        <time>2016-09-25T11:54:43Z</time>
      </trkpt>
      <trkpt lat="43.73398" lon="6.95087">
        <ele>1012.9</ele>
        <time>2016-09-25T11:54:45Z</time>
      </trkpt>
      <trkpt lat="43.73394" lon="6.95088">
        <ele>1013.3</ele>
        <time>2016-09-25T11:54:47Z</time>
      </trkpt>
      <trkpt lat="43.73392" lon="6.9509">
        <ele>1013.2</ele>
        <time>2016-09-25T11:54:49Z</time>
      </trkpt>
      <trkpt lat="43.73389" lon="6.95093">
        <ele>1012.8</ele>
        <time>2016-09-25T11:54:51Z</time>
      </trkpt>
      <trkpt lat="43.73387" lon="6.95095">
        <ele>1012.5</ele>
        <time>2016-09-25T11:54:53Z</time>
      </trkpt>
      <trkpt lat="43.73385" lon="6.95098">
        <ele>1012</ele>
        <time>2016-09-25T11:54:55Z</time>
      </trkpt>
      <trkpt lat="43.73382" lon="6.951">
        <ele>1011.9</ele>
        <time>2016-09-25T11:54:57Z</time>
      </trkpt>
      <trkpt lat="43.7338" lon="6.95102">
        <ele>1011.7</ele>
        <time>2016-09-25T11:54:59Z</time>
      </trkpt>
      <trkpt lat="43.73378" lon="6.95105">
        <ele>1011.4</ele>
        <time>2016-09-25T11:55:01Z</time>
      </trkpt>
      <trkpt lat="43.73376" lon="6.95108">
        <ele>1010.8</ele>
        <time>2016-09-25T11:55:03Z</time>
      </trkpt>
      <trkpt lat="43.73374" lon="6.95111">
        <ele>1010.1</ele>
        <time>2016-09-25T11:55:05Z</time>
      </trkpt>
      <trkpt lat="43.73373" lon="6.95115">
        <ele>1009.3</ele>
        <time>2016-09-25T11:55:07Z</time>
      </trkpt>
      <trkpt lat="43.73371" lon="6.95119">
        <ele>1008.4</ele>
        <time>2016-09-25T11:55:09Z</time>
      </trkpt>
      <trkpt lat="43.7337" lon="6.95123">
        <ele>1007.6</ele>
        <time>2016-09-25T11:55:11Z</time>
      </trkpt>
      <trkpt lat="43.73368" lon="6.95126">
        <ele>1007</ele>
        <time>2016-09-25T11:55:13Z</time>
      </trkpt>
      <trkpt lat="43.73366" lon="6.95129">
        <ele>1006.5</ele>
        <time>2016-09-25T11:55:15Z</time>
      </trkpt>
      <trkpt lat="43.73364" lon="6.95132">
        <ele>1006.1</ele>
        <time>2016-09-25T11:55:17Z</time>
      </trkpt>
      <trkpt lat="43.73362" lon="6.95135">
        <ele>1005.8</ele>
        <time>2016-09-25T11:55:19Z</time>
      </trkpt>
      <trkpt lat="43.73359" lon="6.95138">
        <ele>1005.6</ele>
        <time>2016-09-25T11:55:21Z</time>
      </trkpt>
      <trkpt lat="43.73357" lon="6.95141">
        <ele>1005.2</ele>
        <time>2016-09-25T11:55:23Z</time>
      </trkpt>
      <trkpt lat="43.73354" lon="6.95144">
        <ele>1004.8</ele>
        <time>2016-09-25T11:55:25Z</time>
      </trkpt>
      <trkpt lat="43.73352" lon="6.95147">
        <ele>1004.5</ele>
        <time>2016-09-25T11:55:27Z</time>
      </trkpt>
      <trkpt lat="43.7335" lon="6.9515">
        <ele>1004.1</ele>
        <time>2016-09-25T11:55:29Z</time>
      </trkpt>
      <trkpt lat="43.73347" lon="6.95152">
        <ele>1004</ele>
        <time>2016-09-25T11:55:31Z</time>
      </trkpt>
      <trkpt lat="43.73345" lon="6.95154">
        <ele>1003.6</ele>
        <time>2016-09-25T11:55:33Z</time>
      </trkpt>
      <trkpt lat="43.73343" lon="6.95157">
        <ele>1003.4</ele>
        <time>2016-09-25T11:55:35Z</time>
      </trkpt>
      <trkpt lat="43.7334" lon="6.95159">
        <ele>1003.2</ele>
        <time>2016-09-25T11:55:37Z</time>
      </trkpt>
      <trkpt lat="43.73338" lon="6.95162">
        <ele>1002.9</ele>
        <time>2016-09-25T11:55:39Z</time>
      </trkpt>
      <trkpt lat="43.73335" lon="6.95165">
        <ele>1002.5</ele>
        <time>2016-09-25T11:55:41Z</time>
      </trkpt>
      <trkpt lat="43.73332" lon="6.95168">
        <ele>1002.1</ele>
        <time>2016-09-25T11:55:43Z</time>
      </trkpt>
      <trkpt lat="43.73329" lon="6.9517">
        <ele>1002</ele>
        <time>2016-09-25T11:55:45Z</time>
      </trkpt>
      <trkpt lat="43.73326" lon="6.95173">
        <ele>1001.9</ele>
        <time>2016-09-25T11:55:47Z</time>
      </trkpt>
      <trkpt lat="43.73323" lon="6.95175">
        <ele>1001.8</ele>
        <time>2016-09-25T11:55:49Z</time>
      </trkpt>
      <trkpt lat="43.73319" lon="6.95177">
        <ele>1001.8</ele>
        <time>2016-09-25T11:55:51Z</time>
      </trkpt>
      <trkpt lat="43.73316" lon="6.95178">
        <ele>1002</ele>
        <time>2016-09-25T11:55:53Z</time>
      </trkpt>
      <trkpt lat="43.73312" lon="6.95179">
        <ele>1002.3</ele>
        <time>2016-09-25T11:55:55Z</time>
      </trkpt>
      <trkpt lat="43.73309" lon="6.9518">
        <ele>1002.5</ele>
        <time>2016-09-25T11:55:57Z</time>
      </trkpt>
      <trkpt lat="43.73306" lon="6.95182">
        <ele>1002.6</ele>
        <time>2016-09-25T11:55:59Z</time>
      </trkpt>
      <trkpt lat="43.73302" lon="6.95183">
        <ele>1002.8</ele>
        <time>2016-09-25T11:56:01Z</time>
      </trkpt>
      <trkpt lat="43.73299" lon="6.95184">
        <ele>1003</ele>
        <time>2016-09-25T11:56:03Z</time>
      </trkpt>
      <trkpt lat="43.73296" lon="6.95185">
        <ele>1003.3</ele>
        <time>2016-09-25T11:56:05Z</time>
      </trkpt>
      <trkpt lat="43.73293" lon="6.95185">
        <ele>1003.7</ele>
        <time>2016-09-25T11:56:07Z</time>
      </trkpt>
      <trkpt lat="43.7329" lon="6.95186">
        <ele>1003.9</ele>
        <time>2016-09-25T11:56:09Z</time>
      </trkpt>
      <trkpt lat="43.73287" lon="6.95186">
        <ele>1004.1</ele>
        <time>2016-09-25T11:56:11Z</time>
      </trkpt>
      <trkpt lat="43.73284" lon="6.95187">
        <ele>1004.3</ele>
        <time>2016-09-25T11:56:13Z</time>
      </trkpt>
      <trkpt lat="43.73281" lon="6.95187">
        <ele>1004.6</ele>
        <time>2016-09-25T11:56:15Z</time>
      </trkpt>
      <trkpt lat="43.73278" lon="6.95186">
        <ele>1005.1</ele>
        <time>2016-09-25T11:56:17Z</time>
      </trkpt>
      <trkpt lat="43.73275" lon="6.95185">
        <ele>1005.6</ele>
        <time>2016-09-25T11:56:19Z</time>
      </trkpt>
      <trkpt lat="43.73271" lon="6.95185">
        <ele>1006.1</ele>
        <time>2016-09-25T11:56:21Z</time>
      </trkpt>
      <trkpt lat="43.73268" lon="6.95184">
        <ele>1006.6</ele>
        <time>2016-09-25T11:56:23Z</time>
      </trkpt>
      <trkpt lat="43.73265" lon="6.95183">
        <ele>1007.1</ele>
        <time>2016-09-25T11:56:25Z</time>
      </trkpt>
      <trkpt lat="43.73262" lon="6.95182">
        <ele>1007.6</ele>
        <time>2016-09-25T11:56:27Z</time>
      </trkpt>
      <trkpt lat="43.73259" lon="6.95182">
        <ele>1008.1</ele>
        <time>2016-09-25T11:56:29Z</time>
      </trkpt>
      <trkpt lat="43.73256" lon="6.9518">
        <ele>1008.7</ele>
        <time>2016-09-25T11:56:31Z</time>
      </trkpt>
      <trkpt lat="43.73253" lon="6.9518">
        <ele>1009.1</ele>
        <time>2016-09-25T11:56:33Z</time>
      </trkpt>
      <trkpt lat="43.73249" lon="6.95179">
        <ele>1009.5</ele>
        <time>2016-09-25T11:56:35Z</time>
      </trkpt>
      <trkpt lat="43.73246" lon="6.95179">
        <ele>1009.9</ele>
        <time>2016-09-25T11:56:37Z</time>
      </trkpt>
      <trkpt lat="43.73243" lon="6.95179">
        <ele>1010.1</ele>
        <time>2016-09-25T11:56:39Z</time>
      </trkpt>
      <trkpt lat="43.7324" lon="6.95179">
        <ele>1010.5</ele>
        <time>2016-09-25T11:56:41Z</time>
      </trkpt>
      <trkpt lat="43.73237" lon="6.95178">
        <ele>1010.9</ele>
        <time>2016-09-25T11:56:43Z</time>
      </trkpt>
      <trkpt lat="43.73234" lon="6.95178">
        <ele>1011.3</ele>
        <time>2016-09-25T11:56:45Z</time>
      </trkpt>
      <trkpt lat="43.73231" lon="6.95178">
        <ele>1011.6</ele>
        <time>2016-09-25T11:56:47Z</time>
      </trkpt>
      <trkpt lat="43.73228" lon="6.95178">
        <ele>1011.8</ele>
        <time>2016-09-25T11:56:49Z</time>
      </trkpt>
      <trkpt lat="43.73224" lon="6.95178">
        <ele>1012.2</ele>
        <time>2016-09-25T11:56:51Z</time>
      </trkpt>
      <trkpt lat="43.73221" lon="6.95177">
        <ele>1012.6</ele>
        <time>2016-09-25T11:56:53Z</time>
      </trkpt>
      <trkpt lat="43.73219" lon="6.95176">
        <ele>1013.1</ele>
        <time>2016-09-25T11:56:55Z</time>
      </trkpt>
      <trkpt lat="43.73215" lon="6.95175">
        <ele>1013.6</ele>
        <time>2016-09-25T11:56:57Z</time>
      </trkpt>
      <trkpt lat="43.73212" lon="6.95175">
        <ele>1014</ele>
        <time>2016-09-25T11:56:59Z</time>
      </trkpt>
      <trkpt lat="43.73209" lon="6.95174">
        <ele>1014.4</ele>
        <time>2016-09-25T11:57:01Z</time>
      </trkpt>
      <trkpt lat="43.73206" lon="6.95173">
        <ele>1015.1</ele>
        <time>2016-09-25T11:57:03Z</time>
      </trkpt>
      <trkpt lat="43.73203" lon="6.95172">
        <ele>1015.8</ele>
        <time>2016-09-25T11:57:05Z</time>
      </trkpt>
      <trkpt lat="43.732" lon="6.95171">
        <ele>1016.4</ele>
        <time>2016-09-25T11:57:07Z</time>
      </trkpt>
      <trkpt lat="43.73197" lon="6.95171">
        <ele>1016.9</ele>
        <time>2016-09-25T11:57:09Z</time>
      </trkpt>
      <trkpt lat="43.73194" lon="6.95172">
        <ele>1017.3</ele>
        <time>2016-09-25T11:57:11Z</time>
      </trkpt>
      <trkpt lat="43.73191" lon="6.95173">
        <ele>1017.6</ele>
        <time>2016-09-25T11:57:13Z</time>
      </trkpt>
      <trkpt lat="43.73188" lon="6.95175">
        <ele>1017.8</ele>
        <time>2016-09-25T11:57:15Z</time>
      </trkpt>
      <trkpt lat="43.73185" lon="6.95177">
        <ele>1018</ele>
        <time>2016-09-25T11:57:17Z</time>
      </trkpt>
      <trkpt lat="43.73182" lon="6.95178">
        <ele>1018.4</ele>
        <time>2016-09-25T11:57:19Z</time>
      </trkpt>
      <trkpt lat="43.73179" lon="6.9518">
        <ele>1018.6</ele>
        <time>2016-09-25T11:57:21Z</time>
      </trkpt>
      <trkpt lat="43.73177" lon="6.95183">
        <ele>1018.6</ele>
        <time>2016-09-25T11:57:23Z</time>
      </trkpt>
      <trkpt lat="43.73175" lon="6.95186">
        <ele>1018.4</ele>
        <time>2016-09-25T11:57:25Z</time>
      </trkpt>
      <trkpt lat="43.73174" lon="6.9519">
        <ele>1018.2</ele>
        <time>2016-09-25T11:57:27Z</time>
      </trkpt>
      <trkpt lat="43.73172" lon="6.95193">
        <ele>1018.1</ele>
        <time>2016-09-25T11:57:29Z</time>
      </trkpt>
      <trkpt lat="43.73171" lon="6.95197">
        <ele>1018</ele>
        <time>2016-09-25T11:57:31Z</time>
      </trkpt>
      <trkpt lat="43.7317" lon="6.95201">
        <ele>1017.7</ele>
        <time>2016-09-25T11:57:33Z</time>
      </trkpt>
      <trkpt lat="43.7317" lon="6.95205">
        <ele>1017.2</ele>
        <time>2016-09-25T11:57:35Z</time>
      </trkpt>
      <trkpt lat="43.73169" lon="6.95209">
        <ele>1016.8</ele>
        <time>2016-09-25T11:57:37Z</time>
      </trkpt>
      <trkpt lat="43.73169" lon="6.95213">
        <ele>1016.8</ele>
        <time>2016-09-25T11:57:39Z</time>
      </trkpt>
      <trkpt lat="43.73168" lon="6.95216">
        <ele>1016.8</ele>
        <time>2016-09-25T11:57:41Z</time>
      </trkpt>
      <trkpt lat="43.73168" lon="6.95222">
        <ele>1016.5</ele>
        <time>2016-09-25T11:57:44Z</time>
      </trkpt>
      <trkpt lat="43.73168" lon="6.95226">
        <ele>1016.3</ele>
        <time>2016-09-25T11:57:46Z</time>
      </trkpt>
      <trkpt lat="43.73167" lon="6.95231">
        <ele>1016.2</ele>
        <time>2016-09-25T11:57:49Z</time>
      </trkpt>
      <trkpt lat="43.73167" lon="6.95235">
        <ele>1016.1</ele>
        <time>2016-09-25T11:57:51Z</time>
      </trkpt>
      <trkpt lat="43.73167" lon="6.95239">
        <ele>1015.9</ele>
        <time>2016-09-25T11:57:53Z</time>
      </trkpt>
      <trkpt lat="43.73167" lon="6.95243">
        <ele>1015.7</ele>
        <time>2016-09-25T11:57:55Z</time>
      </trkpt>
      <trkpt lat="43.73167" lon="6.95247">
        <ele>1015.6</ele>
        <time>2016-09-25T11:57:57Z</time>
      </trkpt>
      <trkpt lat="43.73167" lon="6.95251">
        <ele>1015.5</ele>
        <time>2016-09-25T11:57:59Z</time>
      </trkpt>
      <trkpt lat="43.73167" lon="6.95256">
        <ele>1015.2</ele>
        <time>2016-09-25T11:58:02Z</time>
      </trkpt>
      <trkpt lat="43.73166" lon="6.95262">
        <ele>1015</ele>
        <time>2016-09-25T11:58:05Z</time>
      </trkpt>
      <trkpt lat="43.73165" lon="6.95267">
        <ele>1015</ele>
        <time>2016-09-25T11:58:08Z</time>
      </trkpt>
      <trkpt lat="43.73164" lon="6.95272">
        <ele>1015.2</ele>
        <time>2016-09-25T11:58:11Z</time>
      </trkpt>
      <trkpt lat="43.73162" lon="6.95275">
        <ele>1015.4</ele>
        <time>2016-09-25T11:58:13Z</time>
      </trkpt>
      <trkpt lat="43.7316" lon="6.95279">
        <ele>1015.7</ele>
        <time>2016-09-25T11:58:15Z</time>
      </trkpt>
      <trkpt lat="43.73158" lon="6.95283">
        <ele>1015.9</ele>
        <time>2016-09-25T11:58:17Z</time>
      </trkpt>
      <trkpt lat="43.73157" lon="6.95286">
        <ele>1016.1</ele>
        <time>2016-09-25T11:58:19Z</time>
      </trkpt>
      <trkpt lat="43.73155" lon="6.9529">
        <ele>1016.3</ele>
        <time>2016-09-25T11:58:21Z</time>
      </trkpt>
      <trkpt lat="43.73153" lon="6.95293">
        <ele>1016.5</ele>
        <time>2016-09-25T11:58:23Z</time>
      </trkpt>
      <trkpt lat="43.73151" lon="6.95297">
        <ele>1016.5</ele>
        <time>2016-09-25T11:58:25Z</time>
      </trkpt>
      <trkpt lat="43.73149" lon="6.95301">
        <ele>1016.6</ele>
        <time>2016-09-25T11:58:27Z</time>
      </trkpt>
      <trkpt lat="43.73147" lon="6.95304">
        <ele>1016.8</ele>
        <time>2016-09-25T11:58:29Z</time>
      </trkpt>
      <trkpt lat="43.73145" lon="6.95307">
        <ele>1016.9</ele>
        <time>2016-09-25T11:58:31Z</time>
      </trkpt>
      <trkpt lat="43.73143" lon="6.95309">
        <ele>1017</ele>
        <time>2016-09-25T11:58:33Z</time>
      </trkpt>
      <trkpt lat="43.7314" lon="6.95313">
        <ele>1017.2</ele>
        <time>2016-09-25T11:58:36Z</time>
      </trkpt>
      <trkpt lat="43.73138" lon="6.95316">
        <ele>1017.3</ele>
        <time>2016-09-25T11:58:38Z</time>
      </trkpt>
      <trkpt lat="43.73136" lon="6.95319">
        <ele>1017.5</ele>
        <time>2016-09-25T11:58:40Z</time>
      </trkpt>
      <trkpt lat="43.73134" lon="6.95322">
        <ele>1017.5</ele>
        <time>2016-09-25T11:58:42Z</time>
      </trkpt>
      <trkpt lat="43.73132" lon="6.95326">
        <ele>1017.4</ele>
        <time>2016-09-25T11:58:44Z</time>
      </trkpt>
      <trkpt lat="43.73131" lon="6.95329">
        <ele>1017.3</ele>
        <time>2016-09-25T11:58:46Z</time>
      </trkpt>
      <trkpt lat="43.73129" lon="6.95333">
        <ele>1017.3</ele>
        <time>2016-09-25T11:58:48Z</time>
      </trkpt>
      <trkpt lat="43.73127" lon="6.95336">
        <ele>1017.2</ele>
        <time>2016-09-25T11:58:50Z</time>
      </trkpt>
      <trkpt lat="43.73125" lon="6.95339">
        <ele>1017.4</ele>
        <time>2016-09-25T11:58:52Z</time>
      </trkpt>
      <trkpt lat="43.73122" lon="6.95341">
        <ele>1017.2</ele>
        <time>2016-09-25T11:58:54Z</time>
      </trkpt>
      <trkpt lat="43.7312" lon="6.95342">
        <ele>1017.2</ele>
        <time>2016-09-25T11:58:56Z</time>
      </trkpt>
      <trkpt lat="43.73116" lon="6.95342">
        <ele>1017.3</ele>
        <time>2016-09-25T11:58:59Z</time>
      </trkpt>
      <trkpt lat="43.73113" lon="6.9534">
        <ele>1017.5</ele>
        <time>2016-09-25T11:59:01Z</time>
      </trkpt>
      <trkpt lat="43.73111" lon="6.95337">
        <ele>1018</ele>
        <time>2016-09-25T11:59:03Z</time>
      </trkpt>
      <trkpt lat="43.7311" lon="6.95334">
        <ele>1018.4</ele>
        <time>2016-09-25T11:59:05Z</time>
      </trkpt>
      <trkpt lat="43.73109" lon="6.95329">
        <ele>1019</ele>
        <time>2016-09-25T11:59:08Z</time>
      </trkpt>
      <trkpt lat="43.73108" lon="6.95325">
        <ele>1019.5</ele>
        <time>2016-09-25T11:59:11Z</time>
      </trkpt>
      <trkpt lat="43.73109" lon="6.95322">
        <ele>1019.9</ele>
        <time>2016-09-25T11:59:14Z</time>
      </trkpt>
      <trkpt lat="43.73111" lon="6.95317">
        <ele>1020.4</ele>
        <time>2016-09-25T11:59:17Z</time>
      </trkpt>
      <trkpt lat="43.73113" lon="6.95312">
        <ele>1020.9</ele>
        <time>2016-09-25T11:59:20Z</time>
      </trkpt>
      <trkpt lat="43.73115" lon="6.95308">
        <ele>1021.3</ele>
        <time>2016-09-25T11:59:23Z</time>
      </trkpt>
      <trkpt lat="43.73117" lon="6.95305">
        <ele>1021.6</ele>
        <time>2016-09-25T11:59:25Z</time>
      </trkpt>
      <trkpt lat="43.73118" lon="6.95301">
        <ele>1022</ele>
        <time>2016-09-25T11:59:27Z</time>
      </trkpt>
      <trkpt lat="43.73119" lon="6.95298">
        <ele>1022.4</ele>
        <time>2016-09-25T11:59:29Z</time>
      </trkpt>
      <trkpt lat="43.73121" lon="6.95294">
        <ele>1022.8</ele>
        <time>2016-09-25T11:59:31Z</time>
      </trkpt>
      <trkpt lat="43.73123" lon="6.9529">
        <ele>1023.1</ele>
        <time>2016-09-25T11:59:33Z</time>
      </trkpt>
      <trkpt lat="43.73124" lon="6.95287">
        <ele>1023.3</ele>
        <time>2016-09-25T11:59:35Z</time>
      </trkpt>
      <trkpt lat="43.73125" lon="6.95282">
        <ele>1023.6</ele>
        <time>2016-09-25T11:59:37Z</time>
      </trkpt>
      <trkpt lat="43.73126" lon="6.95278">
        <ele>1023.6</ele>
        <time>2016-09-25T11:59:39Z</time>
      </trkpt>
      <trkpt lat="43.73127" lon="6.95274">
        <ele>1023.5</ele>
        <time>2016-09-25T11:59:41Z</time>
      </trkpt>
      <trkpt lat="43.73128" lon="6.9527">
        <ele>1023.5</ele>
        <time>2016-09-25T11:59:43Z</time>
      </trkpt>
      <trkpt lat="43.7313" lon="6.95266">
        <ele>1023.4</ele>
        <time>2016-09-25T11:59:45Z</time>
      </trkpt>
      <trkpt lat="43.73131" lon="6.95263">
        <ele>1023.3</ele>
        <time>2016-09-25T11:59:47Z</time>
      </trkpt>
      <trkpt lat="43.73132" lon="6.95258">
        <ele>1023.4</ele>
        <time>2016-09-25T11:59:49Z</time>
      </trkpt>
      <trkpt lat="43.73132" lon="6.95254">
        <ele>1023.5</ele>
        <time>2016-09-25T11:59:51Z</time>
      </trkpt>
      <trkpt lat="43.73132" lon="6.9525">
        <ele>1023.8</ele>
        <time>2016-09-25T11:59:53Z</time>
      </trkpt>
      <trkpt lat="43.73131" lon="6.95246">
        <ele>1024.4</ele>
        <time>2016-09-25T11:59:55Z</time>
      </trkpt>
      <trkpt lat="43.73129" lon="6.95243">
        <ele>1025</ele>
        <time>2016-09-25T11:59:57Z</time>
      </trkpt>
      <trkpt lat="43.73127" lon="6.95241">
        <ele>1025.7</ele>
        <time>2016-09-25T11:59:59Z</time>
      </trkpt>
      <trkpt lat="43.73124" lon="6.9524">
        <ele>1026.2</ele>
        <time>2016-09-25T12:00:01Z</time>
      </trkpt>
      <trkpt lat="43.73121" lon="6.95242">
        <ele>1026.2</ele>
        <time>2016-09-25T12:00:03Z</time>
      </trkpt>
      <trkpt lat="43.73119" lon="6.95245">
        <ele>1026.3</ele>
        <time>2016-09-25T12:00:05Z</time>
      </trkpt>
      <trkpt lat="43.73116" lon="6.95246">
        <ele>1026.3</ele>
        <time>2016-09-25T12:00:07Z</time>
      </trkpt>
      <trkpt lat="43.73113" lon="6.95248">
        <ele>1026.4</ele>
        <time>2016-09-25T12:00:10Z</time>
      </trkpt>
      <trkpt lat="43.7311" lon="6.95251">
        <ele>1026.4</ele>
        <time>2016-09-25T12:00:13Z</time>
      </trkpt>
      <trkpt lat="43.73107" lon="6.95254">
        <ele>1026.4</ele>
        <time>2016-09-25T12:00:16Z</time>
      </trkpt>
      <trkpt lat="43.73105" lon="6.95258">
        <ele>1026.2</ele>
        <time>2016-09-25T12:00:18Z</time>
      </trkpt>
      <trkpt lat="43.73103" lon="6.95261">
        <ele>1026</ele>
        <time>2016-09-25T12:00:20Z</time>
      </trkpt>
      <trkpt lat="43.73102" lon="6.95264">
        <ele>1025.8</ele>
        <time>2016-09-25T12:00:22Z</time>
      </trkpt>
      <trkpt lat="43.73099" lon="6.95267">
        <ele>1025.8</ele>
        <time>2016-09-25T12:00:24Z</time>
      </trkpt>
      <trkpt lat="43.73097" lon="6.95269">
        <ele>1025.6</ele>
        <time>2016-09-25T12:00:26Z</time>
      </trkpt>
      <trkpt lat="43.73096" lon="6.95272">
        <ele>1025.4</ele>
        <time>2016-09-25T12:00:28Z</time>
      </trkpt>
      <trkpt lat="43.73094" lon="6.95276">
        <ele>1025.2</ele>
        <time>2016-09-25T12:00:30Z</time>
      </trkpt>
      <trkpt lat="43.73091" lon="6.95279">
        <ele>1025</ele>
        <time>2016-09-25T12:00:32Z</time>
      </trkpt>
      <trkpt lat="43.73089" lon="6.95282">
        <ele>1024.8</ele>
        <time>2016-09-25T12:00:34Z</time>
      </trkpt>
      <trkpt lat="43.73087" lon="6.95284">
        <ele>1024.6</ele>
        <time>2016-09-25T12:00:36Z</time>
      </trkpt>
      <trkpt lat="43.73084" lon="6.95287">
        <ele>1024.5</ele>
        <time>2016-09-25T12:00:38Z</time>
      </trkpt>
      <trkpt lat="43.73081" lon="6.95288">
        <ele>1024.4</ele>
        <time>2016-09-25T12:00:40Z</time>
      </trkpt>
      <trkpt lat="43.73078" lon="6.95288">
        <ele>1024.5</ele>
        <time>2016-09-25T12:00:42Z</time>
      </trkpt>
      <trkpt lat="43.73075" lon="6.95288">
        <ele>1024.6</ele>
        <time>2016-09-25T12:00:44Z</time>
      </trkpt>
      <trkpt lat="43.73072" lon="6.95287">
        <ele>1024.9</ele>
        <time>2016-09-25T12:00:46Z</time>
      </trkpt>
      <trkpt lat="43.73069" lon="6.95285">
        <ele>1025.1</ele>
        <time>2016-09-25T12:00:48Z</time>
      </trkpt>
      <trkpt lat="43.73065" lon="6.95285">
        <ele>1025.2</ele>
        <time>2016-09-25T12:00:50Z</time>
      </trkpt>
      <trkpt lat="43.73062" lon="6.95285">
        <ele>1025.4</ele>
        <time>2016-09-25T12:00:52Z</time>
      </trkpt>
      <trkpt lat="43.73059" lon="6.95284">
        <ele>1025.6</ele>
        <time>2016-09-25T12:00:54Z</time>
      </trkpt>
      <trkpt lat="43.73056" lon="6.95283">
        <ele>1025.8</ele>
        <time>2016-09-25T12:00:56Z</time>
      </trkpt>
      <trkpt lat="43.73053" lon="6.95283">
        <ele>1025.9</ele>
        <time>2016-09-25T12:00:58Z</time>
      </trkpt>
      <trkpt lat="43.73049" lon="6.95282">
        <ele>1026.1</ele>
        <time>2016-09-25T12:01:00Z</time>
      </trkpt>
      <trkpt lat="43.73046" lon="6.95281">
        <ele>1026.4</ele>
        <time>2016-09-25T12:01:02Z</time>
      </trkpt>
      <trkpt lat="43.73044" lon="6.95278">
        <ele>1026.9</ele>
        <time>2016-09-25T12:01:04Z</time>
      </trkpt>
      <trkpt lat="43.73035" lon="6.95273">
        <ele>1028</ele>
        <time>2016-09-25T12:01:10Z</time>
      </trkpt>
      <trkpt lat="43.73032" lon="6.95272">
        <ele>1028.3</ele>
        <time>2016-09-25T12:02:20Z</time>
      </trkpt>
      <trkpt lat="43.73029" lon="6.95271">
        <ele>1028.6</ele>
        <time>2016-09-25T12:02:22Z</time>
      </trkpt>
      <trkpt lat="43.73026" lon="6.9527">
        <ele>1029</ele>
        <time>2016-09-25T12:02:24Z</time>
      </trkpt>
      <trkpt lat="43.73023" lon="6.95268">
        <ele>1029.4</ele>
        <time>2016-09-25T12:02:26Z</time>
      </trkpt>
      <trkpt lat="43.73021" lon="6.95266">
        <ele>1029.7</ele>
        <time>2016-09-25T12:02:29Z</time>
      </trkpt>
      <trkpt lat="43.73018" lon="6.95264">
        <ele>1030.2</ele>
        <time>2016-09-25T12:02:46Z</time>
      </trkpt>
      <trkpt lat="43.73013" lon="6.95265">
        <ele>1030.4</ele>
        <time>2016-09-25T12:02:49Z</time>
      </trkpt>
      <trkpt lat="43.73009" lon="6.95265">
        <ele>1030.5</ele>
        <time>2016-09-25T12:02:51Z</time>
      </trkpt>
      <trkpt lat="43.73005" lon="6.95266">
        <ele>1030.6</ele>
        <time>2016-09-25T12:02:53Z</time>
      </trkpt>
      <trkpt lat="43.73002" lon="6.95267">
        <ele>1030.7</ele>
        <time>2016-09-25T12:02:55Z</time>
      </trkpt>
      <trkpt lat="43.72998" lon="6.95268">
        <ele>1030.7</ele>
        <time>2016-09-25T12:02:57Z</time>
      </trkpt>
      <trkpt lat="43.72994" lon="6.95269">
        <ele>1030.8</ele>
        <time>2016-09-25T12:02:59Z</time>
      </trkpt>
      <trkpt lat="43.7299" lon="6.95269">
        <ele>1030.9</ele>
        <time>2016-09-25T12:03:01Z</time>
      </trkpt>
      <trkpt lat="43.72986" lon="6.95268">
        <ele>1031.2</ele>
        <time>2016-09-25T12:03:03Z</time>
      </trkpt>
      <trkpt lat="43.72983" lon="6.95267">
        <ele>1031.5</ele>
        <time>2016-09-25T12:03:05Z</time>
      </trkpt>
      <trkpt lat="43.72981" lon="6.95266">
        <ele>1031.9</ele>
        <time>2016-09-25T12:03:07Z</time>
      </trkpt>
      <trkpt lat="43.72978" lon="6.95264">
        <ele>1032.3</ele>
        <time>2016-09-25T12:03:09Z</time>
      </trkpt>
      <trkpt lat="43.72976" lon="6.95262">
        <ele>1032.8</ele>
        <time>2016-09-25T12:03:11Z</time>
      </trkpt>
      <trkpt lat="43.72973" lon="6.9526">
        <ele>1033.3</ele>
        <time>2016-09-25T12:03:14Z</time>
      </trkpt>
      <trkpt lat="43.72969" lon="6.95261">
        <ele>1033.3</ele>
        <time>2016-09-25T12:03:17Z</time>
      </trkpt>
      <trkpt lat="43.72966" lon="6.9526">
        <ele>1033.5</ele>
        <time>2016-09-25T12:03:20Z</time>
      </trkpt>
      <trkpt lat="43.72963" lon="6.95261">
        <ele>1033.6</ele>
        <time>2016-09-25T12:03:23Z</time>
      </trkpt>
      <trkpt lat="43.7296" lon="6.9526">
        <ele>1033.9</ele>
        <time>2016-09-25T12:03:26Z</time>
      </trkpt>
      <trkpt lat="43.72958" lon="6.95256">
        <ele>1034.5</ele>
        <time>2016-09-25T12:03:29Z</time>
      </trkpt>
      <trkpt lat="43.72957" lon="6.95252">
        <ele>1035.1</ele>
        <time>2016-09-25T12:03:32Z</time>
      </trkpt>
      <trkpt lat="43.72957" lon="6.95248">
        <ele>1035.8</ele>
        <time>2016-09-25T12:03:35Z</time>
      </trkpt>
      <trkpt lat="43.72958" lon="6.95243">
        <ele>1036.6</ele>
        <time>2016-09-25T12:03:39Z</time>
      </trkpt>
      <trkpt lat="43.7296" lon="6.9524">
        <ele>1037</ele>
        <time>2016-09-25T12:03:42Z</time>
      </trkpt>
      <trkpt lat="43.72961" lon="6.95236">
        <ele>1037.5</ele>
        <time>2016-09-25T12:03:45Z</time>
      </trkpt>
      <trkpt lat="43.72963" lon="6.95232">
        <ele>1038</ele>
        <time>2016-09-25T12:03:48Z</time>
      </trkpt>
      <trkpt lat="43.72965" lon="6.95228">
        <ele>1038.5</ele>
        <time>2016-09-25T12:03:51Z</time>
      </trkpt>
      <trkpt lat="43.72967" lon="6.95224">
        <ele>1039.1</ele>
        <time>2016-09-25T12:03:54Z</time>
      </trkpt>
      <trkpt lat="43.72969" lon="6.9522">
        <ele>1039.7</ele>
        <time>2016-09-25T12:03:57Z</time>
      </trkpt>
      <trkpt lat="43.7297" lon="6.95216">
        <ele>1040.1</ele>
        <time>2016-09-25T12:03:59Z</time>
      </trkpt>
      <trkpt lat="43.72971" lon="6.95212">
        <ele>1040.7</ele>
        <time>2016-09-25T12:04:01Z</time>
      </trkpt>
      <trkpt lat="43.72972" lon="6.95207">
        <ele>1041.3</ele>
        <time>2016-09-25T12:04:04Z</time>
      </trkpt>
      <trkpt lat="43.72974" lon="6.95203">
        <ele>1041.6</ele>
        <time>2016-09-25T12:04:07Z</time>
      </trkpt>
      <trkpt lat="43.72977" lon="6.95199">
        <ele>1041.9</ele>
        <time>2016-09-25T12:04:10Z</time>
      </trkpt>
      <trkpt lat="43.72978" lon="6.95195">
        <ele>1042.2</ele>
        <time>2016-09-25T12:04:39Z</time>
      </trkpt>
      <trkpt lat="43.72981" lon="6.95192">
        <ele>1042.3</ele>
        <time>2016-09-25T12:04:42Z</time>
      </trkpt>
      <trkpt lat="43.72984" lon="6.95189">
        <ele>1042.5</ele>
        <time>2016-09-25T12:04:45Z</time>
      </trkpt>
      <trkpt lat="43.72987" lon="6.95186">
        <ele>1042.6</ele>
        <time>2016-09-25T12:04:48Z</time>
      </trkpt>
      <trkpt lat="43.7299" lon="6.95184">
        <ele>1042.6</ele>
        <time>2016-09-25T12:04:51Z</time>
      </trkpt>
      <trkpt lat="43.72993" lon="6.9518">
        <ele>1042.9</ele>
        <time>2016-09-25T12:04:54Z</time>
      </trkpt>
      <trkpt lat="43.72994" lon="6.95175">
        <ele>1043.3</ele>
        <time>2016-09-25T12:04:57Z</time>
      </trkpt>
      <trkpt lat="43.72994" lon="6.9517">
        <ele>1043.8</ele>
        <time>2016-09-25T12:05:00Z</time>
      </trkpt>
      <trkpt lat="43.72993" lon="6.95165">
        <ele>1044.4</ele>
        <time>2016-09-25T12:05:03Z</time>
      </trkpt>
      <trkpt lat="43.72992" lon="6.95159">
        <ele>1045</ele>
        <time>2016-09-25T12:05:06Z</time>
      </trkpt>
      <trkpt lat="43.7299" lon="6.95157">
        <ele>1045.4</ele>
        <time>2016-09-25T12:05:08Z</time>
      </trkpt>
      <trkpt lat="43.72988" lon="6.95154">
        <ele>1045.9</ele>
        <time>2016-09-25T12:05:10Z</time>
      </trkpt>
      <trkpt lat="43.72986" lon="6.95151">
        <ele>1046.3</ele>
        <time>2016-09-25T12:05:12Z</time>
      </trkpt>
      <trkpt lat="43.72984" lon="6.95149">
        <ele>1046.6</ele>
        <time>2016-09-25T12:05:14Z</time>
      </trkpt>
      <trkpt lat="43.7298" lon="6.95148">
        <ele>1047.1</ele>
        <time>2016-09-25T12:05:17Z</time>
      </trkpt>
      <trkpt lat="43.72976" lon="6.95146">
        <ele>1047.4</ele>
        <time>2016-09-25T12:05:20Z</time>
      </trkpt>
      <trkpt lat="43.72973" lon="6.95146">
        <ele>1047.7</ele>
        <time>2016-09-25T12:05:23Z</time>
      </trkpt>
      <trkpt lat="43.72969" lon="6.95146">
        <ele>1048</ele>
        <time>2016-09-25T12:05:26Z</time>
      </trkpt>
      <trkpt lat="43.72965" lon="6.95147">
        <ele>1048.2</ele>
        <time>2016-09-25T12:05:29Z</time>
      </trkpt>
      <trkpt lat="43.72962" lon="6.95148">
        <ele>1048.3</ele>
        <time>2016-09-25T12:05:32Z</time>
      </trkpt>
      <trkpt lat="43.72959" lon="6.95149">
        <ele>1048.4</ele>
        <time>2016-09-25T12:05:35Z</time>
      </trkpt>
      <trkpt lat="43.72956" lon="6.95148">
        <ele>1048.7</ele>
        <time>2016-09-25T12:05:38Z</time>
      </trkpt>
      <trkpt lat="43.72952" lon="6.95146">
        <ele>1049.1</ele>
        <time>2016-09-25T12:05:41Z</time>
      </trkpt>
      <trkpt lat="43.72949" lon="6.95144">
        <ele>1049.5</ele>
        <time>2016-09-25T12:05:44Z</time>
      </trkpt>
      <trkpt lat="43.72947" lon="6.95143">
        <ele>1049.8</ele>
        <time>2016-09-25T12:05:47Z</time>
      </trkpt>
      <trkpt lat="43.72944" lon="6.95141">
        <ele>1050.2</ele>
        <time>2016-09-25T12:05:50Z</time>
      </trkpt>
      <trkpt lat="43.72941" lon="6.95139">
        <ele>1050.6</ele>
        <time>2016-09-25T12:05:53Z</time>
      </trkpt>
      <trkpt lat="43.72937" lon="6.95138">
        <ele>1051</ele>
        <time>2016-09-25T12:05:56Z</time>
      </trkpt>
      <trkpt lat="43.72934" lon="6.95138">
        <ele>1051.3</ele>
        <time>2016-09-25T12:05:59Z</time>
      </trkpt>
      <trkpt lat="43.7293" lon="6.95138">
        <ele>1051.5</ele>
        <time>2016-09-25T12:06:02Z</time>
      </trkpt>
      <trkpt lat="43.72927" lon="6.95137">
        <ele>1051.8</ele>
        <time>2016-09-25T12:06:05Z</time>
      </trkpt>
      <trkpt lat="43.72919" lon="6.95137">
        <ele>1052.3</ele>
        <time>2016-09-25T12:06:12Z</time>
      </trkpt>
      <trkpt lat="43.72916" lon="6.95137">
        <ele>1052.5</ele>
        <time>2016-09-25T12:06:16Z</time>
      </trkpt>
      <trkpt lat="43.72913" lon="6.95137">
        <ele>1052.8</ele>
        <time>2016-09-25T12:06:19Z</time>
      </trkpt>
      <trkpt lat="43.72909" lon="6.95136">
        <ele>1053.1</ele>
        <time>2016-09-25T12:06:22Z</time>
      </trkpt>
      <trkpt lat="43.72906" lon="6.95136">
        <ele>1053.3</ele>
        <time>2016-09-25T12:06:24Z</time>
      </trkpt>
      <trkpt lat="43.72903" lon="6.95136">
        <ele>1053.5</ele>
        <time>2016-09-25T12:06:26Z</time>
      </trkpt>
      <trkpt lat="43.729" lon="6.95137">
        <ele>1053.6</ele>
        <time>2016-09-25T12:06:29Z</time>
      </trkpt>
      <trkpt lat="43.72897" lon="6.95137">
        <ele>1053.8</ele>
        <time>2016-09-25T12:06:32Z</time>
      </trkpt>
      <trkpt lat="43.72893" lon="6.95135">
        <ele>1054.3</ele>
        <time>2016-09-25T12:06:35Z</time>
      </trkpt>
      <trkpt lat="43.7289" lon="6.95133">
        <ele>1054.9</ele>
        <time>2016-09-25T12:06:38Z</time>
      </trkpt>
      <trkpt lat="43.72887" lon="6.95131">
        <ele>1055.3</ele>
        <time>2016-09-25T12:06:41Z</time>
      </trkpt>
      <trkpt lat="43.72885" lon="6.95128">
        <ele>1055.9</ele>
        <time>2016-09-25T12:06:44Z</time>
      </trkpt>
      <trkpt lat="43.72883" lon="6.95124">
        <ele>1056.6</ele>
        <time>2016-09-25T12:06:47Z</time>
      </trkpt>
      <trkpt lat="43.72884" lon="6.95119">
        <ele>1057.3</ele>
        <time>2016-09-25T12:06:50Z</time>
      </trkpt>
      <trkpt lat="43.72885" lon="6.95115">
        <ele>1057.8</ele>
        <time>2016-09-25T12:06:53Z</time>
      </trkpt>
      <trkpt lat="43.72887" lon="6.95111">
        <ele>1058.3</ele>
        <time>2016-09-25T12:06:56Z</time>
      </trkpt>
      <trkpt lat="43.7289" lon="6.95107">
        <ele>1058.7</ele>
        <time>2016-09-25T12:06:59Z</time>
      </trkpt>
      <trkpt lat="43.72892" lon="6.95103">
        <ele>1059.1</ele>
        <time>2016-09-25T12:07:02Z</time>
      </trkpt>
      <trkpt lat="43.72894" lon="6.951">
        <ele>1059.5</ele>
        <time>2016-09-25T12:07:05Z</time>
      </trkpt>
      <trkpt lat="43.72897" lon="6.95096">
        <ele>1059.9</ele>
        <time>2016-09-25T12:07:08Z</time>
      </trkpt>
      <trkpt lat="43.729" lon="6.95091">
        <ele>1060.4</ele>
        <time>2016-09-25T12:07:11Z</time>
      </trkpt>
      <trkpt lat="43.72901" lon="6.95089">
        <ele>1060.8</ele>
        <time>2016-09-25T12:07:13Z</time>
      </trkpt>
      <trkpt lat="43.72904" lon="6.95084">
        <ele>1061.3</ele>
        <time>2016-09-25T12:07:16Z</time>
      </trkpt>
      <trkpt lat="43.72907" lon="6.95081">
        <ele>1061.7</ele>
        <time>2016-09-25T12:07:19Z</time>
      </trkpt>
      <trkpt lat="43.72909" lon="6.95078">
        <ele>1062</ele>
        <time>2016-09-25T12:07:21Z</time>
      </trkpt>
      <trkpt lat="43.72912" lon="6.95074">
        <ele>1062.5</ele>
        <time>2016-09-25T12:07:24Z</time>
      </trkpt>
      <trkpt lat="43.72914" lon="6.95072">
        <ele>1062.7</ele>
        <time>2016-09-25T12:07:26Z</time>
      </trkpt>
      <trkpt lat="43.72917" lon="6.9507">
        <ele>1063</ele>
        <time>2016-09-25T12:07:29Z</time>
      </trkpt>
      <trkpt lat="43.7292" lon="6.95066">
        <ele>1063.4</ele>
        <time>2016-09-25T12:07:32Z</time>
      </trkpt>
      <trkpt lat="43.72922" lon="6.95063">
        <ele>1063.7</ele>
        <time>2016-09-25T12:07:34Z</time>
      </trkpt>
      <trkpt lat="43.72924" lon="6.9506">
        <ele>1064.1</ele>
        <time>2016-09-25T12:07:36Z</time>
      </trkpt>
      <trkpt lat="43.72927" lon="6.95057">
        <ele>1064.6</ele>
        <time>2016-09-25T12:07:38Z</time>
      </trkpt>
      <trkpt lat="43.72929" lon="6.95054">
        <ele>1064.9</ele>
        <time>2016-09-25T12:07:40Z</time>
      </trkpt>
      <trkpt lat="43.72931" lon="6.95051">
        <ele>1065.4</ele>
        <time>2016-09-25T12:07:42Z</time>
      </trkpt>
      <trkpt lat="43.72933" lon="6.95048">
        <ele>1065.8</ele>
        <time>2016-09-25T12:07:44Z</time>
      </trkpt>
      <trkpt lat="43.72935" lon="6.95046">
        <ele>1066.2</ele>
        <time>2016-09-25T12:07:46Z</time>
      </trkpt>
      <trkpt lat="43.72938" lon="6.95043">
        <ele>1066.5</ele>
        <time>2016-09-25T12:07:48Z</time>
      </trkpt>
      <trkpt lat="43.7294" lon="6.95041">
        <ele>1066.7</ele>
        <time>2016-09-25T12:07:50Z</time>
      </trkpt>
      <trkpt lat="43.72942" lon="6.95039">
        <ele>1066.9</ele>
        <time>2016-09-25T12:07:52Z</time>
      </trkpt>
      <trkpt lat="43.72944" lon="6.95036">
        <ele>1067.1</ele>
        <time>2016-09-25T12:07:54Z</time>
      </trkpt>
      <trkpt lat="43.72947" lon="6.95034">
        <ele>1067.2</ele>
        <time>2016-09-25T12:07:56Z</time>
      </trkpt>
      <trkpt lat="43.7295" lon="6.95032">
        <ele>1067.3</ele>
        <time>2016-09-25T12:07:58Z</time>
      </trkpt>
      <trkpt lat="43.72952" lon="6.9503">
        <ele>1067.5</ele>
        <time>2016-09-25T12:08:00Z</time>
      </trkpt>
      <trkpt lat="43.72955" lon="6.95027">
        <ele>1067.7</ele>
        <time>2016-09-25T12:08:02Z</time>
      </trkpt>
      <trkpt lat="43.72957" lon="6.95024">
        <ele>1067.9</ele>
        <time>2016-09-25T12:08:04Z</time>
      </trkpt>
      <trkpt lat="43.72959" lon="6.95021">
        <ele>1068.1</ele>
        <time>2016-09-25T12:08:06Z</time>
      </trkpt>
      <trkpt lat="43.72961" lon="6.95019">
        <ele>1068.2</ele>
        <time>2016-09-25T12:08:08Z</time>
      </trkpt>
      <trkpt lat="43.72963" lon="6.95015">
        <ele>1068.3</ele>
        <time>2016-09-25T12:08:20Z</time>
      </trkpt>
      <trkpt lat="43.72964" lon="6.95012">
        <ele>1068.6</ele>
        <time>2016-09-25T12:08:23Z</time>
      </trkpt>
      <trkpt lat="43.72966" lon="6.95008">
        <ele>1068.8</ele>
        <time>2016-09-25T12:08:26Z</time>
      </trkpt>
      <trkpt lat="43.72967" lon="6.95005">
        <ele>1069</ele>
        <time>2016-09-25T12:08:29Z</time>
      </trkpt>
      <trkpt lat="43.72969" lon="6.95">
        <ele>1069.3</ele>
        <time>2016-09-25T12:08:33Z</time>
      </trkpt>
      <trkpt lat="43.72971" lon="6.94996">
        <ele>1069.5</ele>
        <time>2016-09-25T12:08:36Z</time>
      </trkpt>
      <trkpt lat="43.72972" lon="6.94992">
        <ele>1069.8</ele>
        <time>2016-09-25T12:08:39Z</time>
      </trkpt>
      <trkpt lat="43.72973" lon="6.94988">
        <ele>1070.1</ele>
        <time>2016-09-25T12:08:42Z</time>
      </trkpt>
      <trkpt lat="43.72975" lon="6.94985">
        <ele>1070.3</ele>
        <time>2016-09-25T12:08:45Z</time>
      </trkpt>
      <trkpt lat="43.72977" lon="6.94982">
        <ele>1070.4</ele>
        <time>2016-09-25T12:08:48Z</time>
      </trkpt>
      <trkpt lat="43.72979" lon="6.94979">
        <ele>1070.5</ele>
        <time>2016-09-25T12:08:51Z</time>
      </trkpt>
      <trkpt lat="43.72982" lon="6.94975">
        <ele>1070.6</ele>
        <time>2016-09-25T12:08:54Z</time>
      </trkpt>
      <trkpt lat="43.72983" lon="6.94971">
        <ele>1071</ele>
        <time>2016-09-25T12:08:57Z</time>
      </trkpt>
      <trkpt lat="43.72984" lon="6.94967">
        <ele>1071.3</ele>
        <time>2016-09-25T12:09:00Z</time>
      </trkpt>
      <trkpt lat="43.72985" lon="6.94962">
        <ele>1071.6</ele>
        <time>2016-09-25T12:09:03Z</time>
      </trkpt>
      <trkpt lat="43.72987" lon="6.94959">
        <ele>1071.9</ele>
        <time>2016-09-25T12:09:06Z</time>
      </trkpt>
      <trkpt lat="43.72988" lon="6.94955">
        <ele>1072.2</ele>
        <time>2016-09-25T12:09:09Z</time>
      </trkpt>
      <trkpt lat="43.72988" lon="6.94951">
        <ele>1072.4</ele>
        <time>2016-09-25T12:09:12Z</time>
      </trkpt>
      <trkpt lat="43.72989" lon="6.94947">
        <ele>1072.8</ele>
        <time>2016-09-25T12:09:16Z</time>
      </trkpt>
      <trkpt lat="43.72987" lon="6.94944">
        <ele>1073.3</ele>
        <time>2016-09-25T12:09:22Z</time>
      </trkpt>
      <trkpt lat="43.72985" lon="6.94941">
        <ele>1073.7</ele>
        <time>2016-09-25T12:09:26Z</time>
      </trkpt>
      <trkpt lat="43.72983" lon="6.94938">
        <ele>1074.2</ele>
        <time>2016-09-25T12:09:30Z</time>
      </trkpt>
      <trkpt lat="43.7298" lon="6.94937">
        <ele>1074.6</ele>
        <time>2016-09-25T12:09:33Z</time>
      </trkpt>
      <trkpt lat="43.72977" lon="6.94936">
        <ele>1075</ele>
        <time>2016-09-25T12:09:42Z</time>
      </trkpt>
      <trkpt lat="43.72974" lon="6.94935">
        <ele>1075.4</ele>
        <time>2016-09-25T12:09:46Z</time>
      </trkpt>
      <trkpt lat="43.72971" lon="6.94934">
        <ele>1075.8</ele>
        <time>2016-09-25T12:09:49Z</time>
      </trkpt>
      <trkpt lat="43.72967" lon="6.94934">
        <ele>1076.2</ele>
        <time>2016-09-25T12:09:52Z</time>
      </trkpt>
      <trkpt lat="43.72964" lon="6.94933">
        <ele>1076.6</ele>
        <time>2016-09-25T12:09:55Z</time>
      </trkpt>
      <trkpt lat="43.7296" lon="6.94933">
        <ele>1077</ele>
        <time>2016-09-25T12:09:59Z</time>
      </trkpt>
      <trkpt lat="43.72957" lon="6.94932">
        <ele>1077.2</ele>
        <time>2016-09-25T12:10:02Z</time>
      </trkpt>
      <trkpt lat="43.72955" lon="6.94931">
        <ele>1077.3</ele>
        <time>2016-09-25T12:10:05Z</time>
      </trkpt>
      <trkpt lat="43.72951" lon="6.9493">
        <ele>1077.4</ele>
        <time>2016-09-25T12:10:09Z</time>
      </trkpt>
      <trkpt lat="43.72949" lon="6.94929">
        <ele>1077.5</ele>
        <time>2016-09-25T12:10:12Z</time>
      </trkpt>
      <trkpt lat="43.72946" lon="6.94929">
        <ele>1077.5</ele>
        <time>2016-09-25T12:10:15Z</time>
      </trkpt>
      <trkpt lat="43.72943" lon="6.94929">
        <ele>1077.6</ele>
        <time>2016-09-25T12:10:19Z</time>
      </trkpt>
      <trkpt lat="43.7294" lon="6.94928">
        <ele>1077.7</ele>
        <time>2016-09-25T12:10:44Z</time>
      </trkpt>
      <trkpt lat="43.72936" lon="6.94928">
        <ele>1077.7</ele>
        <time>2016-09-25T12:10:48Z</time>
      </trkpt>
      <trkpt lat="43.72933" lon="6.94929">
        <ele>1077.7</ele>
        <time>2016-09-25T12:10:51Z</time>
      </trkpt>
      <trkpt lat="43.7293" lon="6.94929">
        <ele>1077.7</ele>
        <time>2016-09-25T12:10:54Z</time>
      </trkpt>
      <trkpt lat="43.72927" lon="6.9493">
        <ele>1077.6</ele>
        <time>2016-09-25T12:10:57Z</time>
      </trkpt>
      <trkpt lat="43.72924" lon="6.94931">
        <ele>1077.5</ele>
        <time>2016-09-25T12:11:00Z</time>
      </trkpt>
      <trkpt lat="43.72921" lon="6.94931">
        <ele>1077.6</ele>
        <time>2016-09-25T12:11:03Z</time>
      </trkpt>
      <trkpt lat="43.72918" lon="6.9493">
        <ele>1077.7</ele>
        <time>2016-09-25T12:11:06Z</time>
      </trkpt>
      <trkpt lat="43.72904" lon="6.94926">
        <ele>1078.1</ele>
        <time>2016-09-25T12:11:23Z</time>
      </trkpt>
      <trkpt lat="43.729" lon="6.94926">
        <ele>1078.1</ele>
        <time>2016-09-25T12:11:26Z</time>
      </trkpt>
      <trkpt lat="43.72896" lon="6.94927">
        <ele>1078.1</ele>
        <time>2016-09-25T12:11:29Z</time>
      </trkpt>
      <trkpt lat="43.72892" lon="6.94926">
        <ele>1078.2</ele>
        <time>2016-09-25T12:11:32Z</time>
      </trkpt>
      <trkpt lat="43.72889" lon="6.94926">
        <ele>1078.2</ele>
        <time>2016-09-25T12:11:35Z</time>
      </trkpt>
      <trkpt lat="43.72885" lon="6.94925">
        <ele>1078.4</ele>
        <time>2016-09-25T12:11:38Z</time>
      </trkpt>
      <trkpt lat="43.72882" lon="6.94924">
        <ele>1078.4</ele>
        <time>2016-09-25T12:11:41Z</time>
      </trkpt>
      <trkpt lat="43.72879" lon="6.94922">
        <ele>1078.6</ele>
        <time>2016-09-25T12:11:44Z</time>
      </trkpt>
      <trkpt lat="43.72877" lon="6.94919">
        <ele>1078.8</ele>
        <time>2016-09-25T12:11:47Z</time>
      </trkpt>
      <trkpt lat="43.72874" lon="6.94917">
        <ele>1079</ele>
        <time>2016-09-25T12:11:50Z</time>
      </trkpt>
      <trkpt lat="43.72872" lon="6.94914">
        <ele>1079.2</ele>
        <time>2016-09-25T12:11:53Z</time>
      </trkpt>
      <trkpt lat="43.7287" lon="6.94912">
        <ele>1079.5</ele>
        <time>2016-09-25T12:11:56Z</time>
      </trkpt>
      <trkpt lat="43.72867" lon="6.94909">
        <ele>1079.8</ele>
        <time>2016-09-25T12:11:59Z</time>
      </trkpt>
      <trkpt lat="43.72864" lon="6.94907">
        <ele>1080</ele>
        <time>2016-09-25T12:12:02Z</time>
      </trkpt>
      <trkpt lat="43.72861" lon="6.94905">
        <ele>1080.2</ele>
        <time>2016-09-25T12:12:05Z</time>
      </trkpt>
      <trkpt lat="43.72858" lon="6.94904">
        <ele>1080.5</ele>
        <time>2016-09-25T12:12:08Z</time>
      </trkpt>
      <trkpt lat="43.72855" lon="6.94901">
        <ele>1080.8</ele>
        <time>2016-09-25T12:12:11Z</time>
      </trkpt>
      <trkpt lat="43.72854" lon="6.94897">
        <ele>1081.2</ele>
        <time>2016-09-25T12:12:14Z</time>
      </trkpt>
      <trkpt lat="43.72854" lon="6.94893">
        <ele>1081.5</ele>
        <time>2016-09-25T12:12:18Z</time>
      </trkpt>
      <trkpt lat="43.72854" lon="6.94888">
        <ele>1081.9</ele>
        <time>2016-09-25T12:12:21Z</time>
      </trkpt>
      <trkpt lat="43.72854" lon="6.94883">
        <ele>1082.3</ele>
        <time>2016-09-25T12:12:24Z</time>
      </trkpt>
      <trkpt lat="43.72854" lon="6.94879">
        <ele>1082.7</ele>
        <time>2016-09-25T12:12:27Z</time>
      </trkpt>
      <trkpt lat="43.72854" lon="6.94874">
        <ele>1083</ele>
        <time>2016-09-25T12:12:30Z</time>
      </trkpt>
      <trkpt lat="43.72855" lon="6.9487">
        <ele>1083.4</ele>
        <time>2016-09-25T12:12:33Z</time>
      </trkpt>
      <trkpt lat="43.72856" lon="6.94866">
        <ele>1083.8</ele>
        <time>2016-09-25T12:12:36Z</time>
      </trkpt>
      <trkpt lat="43.72855" lon="6.94861">
        <ele>1084.2</ele>
        <time>2016-09-25T12:12:39Z</time>
      </trkpt>
      <trkpt lat="43.72856" lon="6.94857">
        <ele>1084.6</ele>
        <time>2016-09-25T12:12:42Z</time>
      </trkpt>
      <trkpt lat="43.72854" lon="6.94854">
        <ele>1085</ele>
        <time>2016-09-25T12:12:45Z</time>
      </trkpt>
      <trkpt lat="43.72853" lon="6.9485">
        <ele>1085.4</ele>
        <time>2016-09-25T12:12:48Z</time>
      </trkpt>
      <trkpt lat="43.72851" lon="6.94847">
        <ele>1085.7</ele>
        <time>2016-09-25T12:12:51Z</time>
      </trkpt>
      <trkpt lat="43.72848" lon="6.94844">
        <ele>1086.1</ele>
        <time>2016-09-25T12:12:54Z</time>
      </trkpt>
      <trkpt lat="43.72844" lon="6.94843">
        <ele>1086.4</ele>
        <time>2016-09-25T12:13:17Z</time>
      </trkpt>
      <trkpt lat="43.72843" lon="6.9484">
        <ele>1086.8</ele>
        <time>2016-09-25T12:13:20Z</time>
      </trkpt>
      <trkpt lat="43.72841" lon="6.94837">
        <ele>1087.1</ele>
        <time>2016-09-25T12:13:23Z</time>
      </trkpt>
      <trkpt lat="43.72838" lon="6.94833">
        <ele>1087.5</ele>
        <time>2016-09-25T12:13:26Z</time>
      </trkpt>
      <trkpt lat="43.72837" lon="6.9483">
        <ele>1087.9</ele>
        <time>2016-09-25T12:13:29Z</time>
      </trkpt>
      <trkpt lat="43.72835" lon="6.94826">
        <ele>1088.4</ele>
        <time>2016-09-25T12:13:32Z</time>
      </trkpt>
      <trkpt lat="43.72834" lon="6.94822">
        <ele>1088.8</ele>
        <time>2016-09-25T12:13:35Z</time>
      </trkpt>
      <trkpt lat="43.72834" lon="6.94818">
        <ele>1089.1</ele>
        <time>2016-09-25T12:13:38Z</time>
      </trkpt>
      <trkpt lat="43.72834" lon="6.94813">
        <ele>1089.5</ele>
        <time>2016-09-25T12:13:41Z</time>
      </trkpt>
      <trkpt lat="43.72835" lon="6.94809">
        <ele>1089.9</ele>
        <time>2016-09-25T12:13:44Z</time>
      </trkpt>
      <trkpt lat="43.72836" lon="6.94805">
        <ele>1090.3</ele>
        <time>2016-09-25T12:13:47Z</time>
      </trkpt>
      <trkpt lat="43.72836" lon="6.948">
        <ele>1090.6</ele>
        <time>2016-09-25T12:13:50Z</time>
      </trkpt>
      <trkpt lat="43.72837" lon="6.94796">
        <ele>1091</ele>
        <time>2016-09-25T12:13:53Z</time>
      </trkpt>
      <trkpt lat="43.72838" lon="6.94791">
        <ele>1091.4</ele>
        <time>2016-09-25T12:13:56Z</time>
      </trkpt>
      <trkpt lat="43.72838" lon="6.94787">
        <ele>1091.7</ele>
        <time>2016-09-25T12:13:59Z</time>
      </trkpt>
      <trkpt lat="43.72838" lon="6.94783">
        <ele>1092</ele>
        <time>2016-09-25T12:14:02Z</time>
      </trkpt>
      <trkpt lat="43.72837" lon="6.94779">
        <ele>1092.4</ele>
        <time>2016-09-25T12:14:05Z</time>
      </trkpt>
      <trkpt lat="43.72835" lon="6.94775">
        <ele>1092.7</ele>
        <time>2016-09-25T12:14:08Z</time>
      </trkpt>
      <trkpt lat="43.72834" lon="6.94771">
        <ele>1093.1</ele>
        <time>2016-09-25T12:14:11Z</time>
      </trkpt>
      <trkpt lat="43.72833" lon="6.94768">
        <ele>1093.4</ele>
        <time>2016-09-25T12:14:14Z</time>
      </trkpt>
      <trkpt lat="43.72831" lon="6.94764">
        <ele>1093.7</ele>
        <time>2016-09-25T12:14:17Z</time>
      </trkpt>
      <trkpt lat="43.7283" lon="6.94761">
        <ele>1094</ele>
        <time>2016-09-25T12:14:20Z</time>
      </trkpt>
      <trkpt lat="43.72828" lon="6.94757">
        <ele>1094.4</ele>
        <time>2016-09-25T12:14:23Z</time>
      </trkpt>
      <trkpt lat="43.72827" lon="6.94753">
        <ele>1094.7</ele>
        <time>2016-09-25T12:14:26Z</time>
      </trkpt>
      <trkpt lat="43.72826" lon="6.94748">
        <ele>1095.1</ele>
        <time>2016-09-25T12:14:29Z</time>
      </trkpt>
      <trkpt lat="43.72825" lon="6.94745">
        <ele>1095.4</ele>
        <time>2016-09-25T12:14:31Z</time>
      </trkpt>
      <trkpt lat="43.72822" lon="6.94741">
        <ele>1095.8</ele>
        <time>2016-09-25T12:14:34Z</time>
      </trkpt>
      <trkpt lat="43.72821" lon="6.94737">
        <ele>1096.1</ele>
        <time>2016-09-25T12:14:37Z</time>
      </trkpt>
      <trkpt lat="43.72818" lon="6.94734">
        <ele>1096.4</ele>
        <time>2016-09-25T12:14:41Z</time>
      </trkpt>
      <trkpt lat="43.72815" lon="6.94731">
        <ele>1096.7</ele>
        <time>2016-09-25T12:14:45Z</time>
      </trkpt>
      <trkpt lat="43.72813" lon="6.94729">
        <ele>1096.9</ele>
        <time>2016-09-25T12:14:48Z</time>
      </trkpt>
      <trkpt lat="43.72811" lon="6.94726">
        <ele>1097.2</ele>
        <time>2016-09-25T12:14:51Z</time>
      </trkpt>
      <trkpt lat="43.72808" lon="6.94724">
        <ele>1097.5</ele>
        <time>2016-09-25T12:14:54Z</time>
      </trkpt>
      <trkpt lat="43.72806" lon="6.94721">
        <ele>1097.7</ele>
        <time>2016-09-25T12:14:57Z</time>
      </trkpt>
      <trkpt lat="43.72805" lon="6.94718">
        <ele>1098</ele>
        <time>2016-09-25T12:15:00Z</time>
      </trkpt>
      <trkpt lat="43.72802" lon="6.94714">
        <ele>1098.3</ele>
        <time>2016-09-25T12:15:03Z</time>
      </trkpt>
      <trkpt lat="43.728" lon="6.94711">
        <ele>1098.6</ele>
        <time>2016-09-25T12:15:06Z</time>
      </trkpt>
      <trkpt lat="43.72798" lon="6.94706">
        <ele>1099</ele>
        <time>2016-09-25T12:15:09Z</time>
      </trkpt>
      <trkpt lat="43.72798" lon="6.94701">
        <ele>1099.4</ele>
        <time>2016-09-25T12:15:12Z</time>
      </trkpt>
      <trkpt lat="43.72798" lon="6.94697">
        <ele>1099.7</ele>
        <time>2016-09-25T12:15:14Z</time>
      </trkpt>
      <trkpt lat="43.72797" lon="6.94693">
        <ele>1100</ele>
        <time>2016-09-25T12:15:16Z</time>
      </trkpt>
      <trkpt lat="43.72797" lon="6.94689">
        <ele>1100.3</ele>
        <time>2016-09-25T12:15:18Z</time>
      </trkpt>
      <trkpt lat="43.72796" lon="6.94685">
        <ele>1100.6</ele>
        <time>2016-09-25T12:15:20Z</time>
      </trkpt>
      <trkpt lat="43.72795" lon="6.94681">
        <ele>1100.9</ele>
        <time>2016-09-25T12:15:22Z</time>
      </trkpt>
      <trkpt lat="43.72794" lon="6.94677">
        <ele>1101.2</ele>
        <time>2016-09-25T12:15:24Z</time>
      </trkpt>
      <trkpt lat="43.72793" lon="6.94673">
        <ele>1101.5</ele>
        <time>2016-09-25T12:15:26Z</time>
      </trkpt>
      <trkpt lat="43.72792" lon="6.94669">
        <ele>1101.8</ele>
        <time>2016-09-25T12:15:28Z</time>
      </trkpt>
      <trkpt lat="43.72791" lon="6.94666">
        <ele>1102.1</ele>
        <time>2016-09-25T12:15:30Z</time>
      </trkpt>
      <trkpt lat="43.72789" lon="6.94661">
        <ele>1102.7</ele>
        <time>2016-09-25T12:15:33Z</time>
      </trkpt>
      <trkpt lat="43.72788" lon="6.94656">
        <ele>1103.2</ele>
        <time>2016-09-25T12:15:36Z</time>
      </trkpt>
      <trkpt lat="43.72787" lon="6.94652">
        <ele>1103.5</ele>
        <time>2016-09-25T12:15:38Z</time>
      </trkpt>
      <trkpt lat="43.72786" lon="6.94649">
        <ele>1103.9</ele>
        <time>2016-09-25T12:15:40Z</time>
      </trkpt>
      <trkpt lat="43.72785" lon="6.94644">
        <ele>1104.3</ele>
        <time>2016-09-25T12:15:43Z</time>
      </trkpt>
      <trkpt lat="43.72783" lon="6.94639">
        <ele>1104.9</ele>
        <time>2016-09-25T12:15:46Z</time>
      </trkpt>
      <trkpt lat="43.72781" lon="6.94635">
        <ele>1105.4</ele>
        <time>2016-09-25T12:15:49Z</time>
      </trkpt>
      <trkpt lat="43.72779" lon="6.9463">
        <ele>1106</ele>
        <time>2016-09-25T12:15:52Z</time>
      </trkpt>
      <trkpt lat="43.72776" lon="6.94628">
        <ele>1106.5</ele>
        <time>2016-09-25T12:15:55Z</time>
      </trkpt>
      <trkpt lat="43.72772" lon="6.94628">
        <ele>1106.9</ele>
        <time>2016-09-25T12:15:58Z</time>
      </trkpt>
      <trkpt lat="43.72765" lon="6.94625">
        <ele>1107.8</ele>
        <time>2016-09-25T12:31:57Z</time>
      </trkpt>
      <trkpt lat="43.72764" lon="6.94621">
        <ele>1108.3</ele>
        <time>2016-09-25T12:31:59Z</time>
      </trkpt>
      <trkpt lat="43.72765" lon="6.94617">
        <ele>1108.4</ele>
        <time>2016-09-25T12:32:01Z</time>
      </trkpt>
      <trkpt lat="43.72769" lon="6.94613">
        <ele>1108.3</ele>
        <time>2016-09-25T12:32:03Z</time>
      </trkpt>
      <trkpt lat="43.72771" lon="6.9461">
        <ele>1108.3</ele>
        <time>2016-09-25T12:32:04Z</time>
      </trkpt>
      <trkpt lat="43.72774" lon="6.94607">
        <ele>1108.3</ele>
        <time>2016-09-25T12:32:05Z</time>
      </trkpt>
      <trkpt lat="43.72776" lon="6.94603">
        <ele>1108.3</ele>
        <time>2016-09-25T12:32:06Z</time>
      </trkpt>
      <trkpt lat="43.72777" lon="6.946">
        <ele>1108.5</ele>
        <time>2016-09-25T12:32:07Z</time>
      </trkpt>
      <trkpt lat="43.72778" lon="6.94596">
        <ele>1108.7</ele>
        <time>2016-09-25T12:32:08Z</time>
      </trkpt>
      <trkpt lat="43.72779" lon="6.94589">
        <ele>1109.1</ele>
        <time>2016-09-25T12:32:10Z</time>
      </trkpt>
      <trkpt lat="43.7278" lon="6.94582">
        <ele>1109.6</ele>
        <time>2016-09-25T12:32:12Z</time>
      </trkpt>
      <trkpt lat="43.7278" lon="6.94575">
        <ele>1110.1</ele>
        <time>2016-09-25T12:32:14Z</time>
      </trkpt>
      <trkpt lat="43.7278" lon="6.94569">
        <ele>1110.6</ele>
        <time>2016-09-25T12:32:16Z</time>
      </trkpt>
      <trkpt lat="43.7278" lon="6.94563">
        <ele>1111</ele>
        <time>2016-09-25T12:32:18Z</time>
      </trkpt>
      <trkpt lat="43.7278" lon="6.94557">
        <ele>1111.5</ele>
        <time>2016-09-25T12:32:20Z</time>
      </trkpt>
      <trkpt lat="43.7278" lon="6.94551">
        <ele>1112</ele>
        <time>2016-09-25T12:32:22Z</time>
      </trkpt>
      <trkpt lat="43.72779" lon="6.94545">
        <ele>1112.5</ele>
        <time>2016-09-25T12:32:24Z</time>
      </trkpt>
      <trkpt lat="43.7278" lon="6.94539">
        <ele>1112.8</ele>
        <time>2016-09-25T12:32:26Z</time>
      </trkpt>
      <trkpt lat="43.72781" lon="6.94533">
        <ele>1112.9</ele>
        <time>2016-09-25T12:32:28Z</time>
      </trkpt>
      <trkpt lat="43.72781" lon="6.94527">
        <ele>1112.9</ele>
        <time>2016-09-25T12:32:30Z</time>
      </trkpt>
      <trkpt lat="43.72782" lon="6.94521">
        <ele>1112.9</ele>
        <time>2016-09-25T12:32:32Z</time>
      </trkpt>
      <trkpt lat="43.72783" lon="6.94515">
        <ele>1113</ele>
        <time>2016-09-25T12:32:34Z</time>
      </trkpt>
      <trkpt lat="43.72783" lon="6.94509">
        <ele>1113.1</ele>
        <time>2016-09-25T12:32:36Z</time>
      </trkpt>
      <trkpt lat="43.72784" lon="6.94502">
        <ele>1113.2</ele>
        <time>2016-09-25T12:32:38Z</time>
      </trkpt>
      <trkpt lat="43.72785" lon="6.94495">
        <ele>1113.2</ele>
        <time>2016-09-25T12:32:40Z</time>
      </trkpt>
      <trkpt lat="43.72785" lon="6.94491">
        <ele>1113.2</ele>
        <time>2016-09-25T12:32:41Z</time>
      </trkpt>
      <trkpt lat="43.72785" lon="6.94487">
        <ele>1113.3</ele>
        <time>2016-09-25T12:32:42Z</time>
      </trkpt>
      <trkpt lat="43.72786" lon="6.94483">
        <ele>1113.3</ele>
        <time>2016-09-25T12:32:43Z</time>
      </trkpt>
      <trkpt lat="43.72786" lon="6.94479">
        <ele>1113.3</ele>
        <time>2016-09-25T12:32:44Z</time>
      </trkpt>
      <trkpt lat="43.72787" lon="6.94475">
        <ele>1113.4</ele>
        <time>2016-09-25T12:32:45Z</time>
      </trkpt>
      <trkpt lat="43.72787" lon="6.94471">
        <ele>1113.4</ele>
        <time>2016-09-25T12:32:46Z</time>
      </trkpt>
      <trkpt lat="43.72788" lon="6.94467">
        <ele>1113.4</ele>
        <time>2016-09-25T12:32:47Z</time>
      </trkpt>
      <trkpt lat="43.72788" lon="6.94463">
        <ele>1113.4</ele>
        <time>2016-09-25T12:32:48Z</time>
      </trkpt>
      <trkpt lat="43.72789" lon="6.94459">
        <ele>1113.4</ele>
        <time>2016-09-25T12:32:49Z</time>
      </trkpt>
      <trkpt lat="43.72789" lon="6.94455">
        <ele>1113.5</ele>
        <time>2016-09-25T12:32:50Z</time>
      </trkpt>
      <trkpt lat="43.7279" lon="6.94451">
        <ele>1113.5</ele>
        <time>2016-09-25T12:32:51Z</time>
      </trkpt>
      <trkpt lat="43.7279" lon="6.94447">
        <ele>1113.6</ele>
        <time>2016-09-25T12:32:52Z</time>
      </trkpt>
      <trkpt lat="43.72791" lon="6.94443">
        <ele>1113.7</ele>
        <time>2016-09-25T12:32:53Z</time>
      </trkpt>
      <trkpt lat="43.72792" lon="6.94439">
        <ele>1113.7</ele>
        <time>2016-09-25T12:32:54Z</time>
      </trkpt>
      <trkpt lat="43.72792" lon="6.94435">
        <ele>1113.8</ele>
        <time>2016-09-25T12:32:55Z</time>
      </trkpt>
      <trkpt lat="43.72793" lon="6.94431">
        <ele>1113.9</ele>
        <time>2016-09-25T12:32:56Z</time>
      </trkpt>
      <trkpt lat="43.72794" lon="6.94427">
        <ele>1113.9</ele>
        <time>2016-09-25T12:32:57Z</time>
      </trkpt>
      <trkpt lat="43.72796" lon="6.94423">
        <ele>1114</ele>
        <time>2016-09-25T12:32:58Z</time>
      </trkpt>
      <trkpt lat="43.72797" lon="6.9442">
        <ele>1114.1</ele>
        <time>2016-09-25T12:32:59Z</time>
      </trkpt>
      <trkpt lat="43.72798" lon="6.94416">
        <ele>1114.1</ele>
        <time>2016-09-25T12:33:00Z</time>
      </trkpt>
      <trkpt lat="43.72798" lon="6.94409">
        <ele>1114.3</ele>
        <time>2016-09-25T12:33:02Z</time>
      </trkpt>
      <trkpt lat="43.72797" lon="6.94403">
        <ele>1114.7</ele>
        <time>2016-09-25T12:33:04Z</time>
      </trkpt>
      <trkpt lat="43.72795" lon="6.94397">
        <ele>1115</ele>
        <time>2016-09-25T12:33:06Z</time>
      </trkpt>
      <trkpt lat="43.72793" lon="6.94393">
        <ele>1115.3</ele>
        <time>2016-09-25T12:33:08Z</time>
      </trkpt>
      <trkpt lat="43.72791" lon="6.9439">
        <ele>1115.7</ele>
        <time>2016-09-25T12:33:10Z</time>
      </trkpt>
      <trkpt lat="43.72788" lon="6.94388">
        <ele>1116.2</ele>
        <time>2016-09-25T12:33:13Z</time>
      </trkpt>
      <trkpt lat="43.72786" lon="6.94386">
        <ele>1116.9</ele>
        <time>2016-09-25T12:33:16Z</time>
      </trkpt>
      <trkpt lat="43.72784" lon="6.94384">
        <ele>1117.4</ele>
        <time>2016-09-25T12:33:19Z</time>
      </trkpt>
      <trkpt lat="43.72782" lon="6.94381">
        <ele>1117.9</ele>
        <time>2016-09-25T12:33:22Z</time>
      </trkpt>
      <trkpt lat="43.72779" lon="6.94377">
        <ele>1118.5</ele>
        <time>2016-09-25T12:33:26Z</time>
      </trkpt>
      <trkpt lat="43.72776" lon="6.94379">
        <ele>1119.1</ele>
        <time>2016-09-25T12:33:30Z</time>
      </trkpt>
      <trkpt lat="43.72773" lon="6.94381">
        <ele>1119.7</ele>
        <time>2016-09-25T12:33:33Z</time>
      </trkpt>
      <trkpt lat="43.72769" lon="6.9438">
        <ele>1120.5</ele>
        <time>2016-09-25T12:33:36Z</time>
      </trkpt>
      <trkpt lat="43.72766" lon="6.9438">
        <ele>1121.2</ele>
        <time>2016-09-25T12:33:38Z</time>
      </trkpt>
      <trkpt lat="43.72763" lon="6.9438">
        <ele>1121.9</ele>
        <time>2016-09-25T12:33:40Z</time>
      </trkpt>
      <trkpt lat="43.72759" lon="6.94379">
        <ele>1122.7</ele>
        <time>2016-09-25T12:33:42Z</time>
      </trkpt>
      <trkpt lat="43.72756" lon="6.94378">
        <ele>1123.5</ele>
        <time>2016-09-25T12:33:44Z</time>
      </trkpt>
      <trkpt lat="43.72752" lon="6.94379">
        <ele>1124.3</ele>
        <time>2016-09-25T12:33:46Z</time>
      </trkpt>
      <trkpt lat="43.72748" lon="6.94379">
        <ele>1125.1</ele>
        <time>2016-09-25T12:33:48Z</time>
      </trkpt>
      <trkpt lat="43.72744" lon="6.9438">
        <ele>1125.9</ele>
        <time>2016-09-25T12:33:50Z</time>
      </trkpt>
      <trkpt lat="43.72741" lon="6.94381">
        <ele>1126.5</ele>
        <time>2016-09-25T12:33:52Z</time>
      </trkpt>
      <trkpt lat="43.72737" lon="6.94383">
        <ele>1127</ele>
        <time>2016-09-25T12:33:54Z</time>
      </trkpt>
      <trkpt lat="43.72734" lon="6.94384">
        <ele>1127.6</ele>
        <time>2016-09-25T12:33:56Z</time>
      </trkpt>
      <trkpt lat="43.72731" lon="6.94385">
        <ele>1128.1</ele>
        <time>2016-09-25T12:33:58Z</time>
      </trkpt>
      <trkpt lat="43.72727" lon="6.94387">
        <ele>1128.6</ele>
        <time>2016-09-25T12:34:00Z</time>
      </trkpt>
      <trkpt lat="43.72723" lon="6.94389">
        <ele>1129.1</ele>
        <time>2016-09-25T12:34:02Z</time>
      </trkpt>
      <trkpt lat="43.7272" lon="6.94391">
        <ele>1129.6</ele>
        <time>2016-09-25T12:34:04Z</time>
      </trkpt>
      <trkpt lat="43.72716" lon="6.94394">
        <ele>1130</ele>
        <time>2016-09-25T12:34:06Z</time>
      </trkpt>
      <trkpt lat="43.72713" lon="6.944">
        <ele>1130</ele>
        <time>2016-09-25T12:34:08Z</time>
      </trkpt>
      <trkpt lat="43.72711" lon="6.94402">
        <ele>1129.9</ele>
        <time>2016-09-25T12:34:10Z</time>
      </trkpt>
      <trkpt lat="43.7271" lon="6.94405">
        <ele>1129.9</ele>
        <time>2016-09-25T12:34:13Z</time>
      </trkpt>
      <trkpt lat="43.72708" lon="6.94407">
        <ele>1129.9</ele>
        <time>2016-09-25T12:34:17Z</time>
      </trkpt>
      <trkpt lat="43.72706" lon="6.94409">
        <ele>1129.9</ele>
        <time>2016-09-25T12:34:21Z</time>
      </trkpt>
      <trkpt lat="43.72705" lon="6.94412">
        <ele>1130</ele>
        <time>2016-09-25T12:34:24Z</time>
      </trkpt>
      <trkpt lat="43.72703" lon="6.94414">
        <ele>1130</ele>
        <time>2016-09-25T12:34:27Z</time>
      </trkpt>
      <trkpt lat="43.72702" lon="6.94417">
        <ele>1130.1</ele>
        <time>2016-09-25T12:34:30Z</time>
      </trkpt>
      <trkpt lat="43.727" lon="6.94419">
        <ele>1130.2</ele>
        <time>2016-09-25T12:41:32Z</time>
      </trkpt>
      <trkpt lat="43.72699" lon="6.94422">
        <ele>1130.2</ele>
        <time>2016-09-25T12:41:35Z</time>
      </trkpt>
      <trkpt lat="43.72697" lon="6.94424">
        <ele>1130.3</ele>
        <time>2016-09-25T12:41:38Z</time>
      </trkpt>
      <trkpt lat="43.72696" lon="6.94427">
        <ele>1130.4</ele>
        <time>2016-09-25T12:41:41Z</time>
      </trkpt>
      <trkpt lat="43.72694" lon="6.94429">
        <ele>1130.5</ele>
        <time>2016-09-25T12:41:44Z</time>
      </trkpt>
      <trkpt lat="43.72693" lon="6.94432">
        <ele>1130.6</ele>
        <time>2016-09-25T12:41:47Z</time>
      </trkpt>
      <trkpt lat="43.72691" lon="6.94434">
        <ele>1130.7</ele>
        <time>2016-09-25T12:41:50Z</time>
      </trkpt>
      <trkpt lat="43.7269" lon="6.94436">
        <ele>1130.8</ele>
        <time>2016-09-25T12:46:28Z</time>
      </trkpt>
      <trkpt lat="43.72688" lon="6.94439">
        <ele>1130.9</ele>
        <time>2016-09-25T12:46:29Z</time>
      </trkpt>
      <trkpt lat="43.72693" lon="6.9445">
        <ele>1128.3</ele>
        <time>2016-09-25T12:46:30Z</time>
      </trkpt>
      <trkpt lat="43.72693" lon="6.94456">
        <ele>1127.6</ele>
        <time>2016-09-25T12:46:31Z</time>
      </trkpt>
      <trkpt lat="43.72691" lon="6.94462">
        <ele>1127.5</ele>
        <time>2016-09-25T12:46:32Z</time>
      </trkpt>
      <trkpt lat="43.72689" lon="6.94467">
        <ele>1127.6</ele>
        <time>2016-09-25T12:46:33Z</time>
      </trkpt>
      <trkpt lat="43.72687" lon="6.94473">
        <ele>1127.7</ele>
        <time>2016-09-25T12:46:34Z</time>
      </trkpt>
      <trkpt lat="43.72683" lon="6.94479">
        <ele>1128</ele>
        <time>2016-09-25T12:46:35Z</time>
      </trkpt>
      <trkpt lat="43.72681" lon="6.94484">
        <ele>1128.2</ele>
        <time>2016-09-25T12:46:36Z</time>
      </trkpt>
      <trkpt lat="43.72679" lon="6.9449">
        <ele>1128</ele>
        <time>2016-09-25T12:46:37Z</time>
      </trkpt>
      <trkpt lat="43.72679" lon="6.94497">
        <ele>1127.3</ele>
        <time>2016-09-25T12:46:38Z</time>
      </trkpt>
      <trkpt lat="43.72679" lon="6.94506">
        <ele>1126.5</ele>
        <time>2016-09-25T12:46:39Z</time>
      </trkpt>
      <trkpt lat="43.7268" lon="6.94515">
        <ele>1125.5</ele>
        <time>2016-09-25T12:46:40Z</time>
      </trkpt>
      <trkpt lat="43.72682" lon="6.94524">
        <ele>1124</ele>
        <time>2016-09-25T12:46:41Z</time>
      </trkpt>
      <trkpt lat="43.72688" lon="6.94531">
        <ele>1122</ele>
        <time>2016-09-25T12:46:42Z</time>
      </trkpt>
      <trkpt lat="43.72692" lon="6.94537">
        <ele>1120.8</ele>
        <time>2016-09-25T12:46:43Z</time>
      </trkpt>
      <trkpt lat="43.72695" lon="6.94546">
        <ele>1119.5</ele>
        <time>2016-09-25T12:46:44Z</time>
      </trkpt>
      <trkpt lat="43.72697" lon="6.94556">
        <ele>1118.5</ele>
        <time>2016-09-25T12:46:45Z</time>
      </trkpt>
      <trkpt lat="43.727" lon="6.94566">
        <ele>1117.5</ele>
        <time>2016-09-25T12:46:46Z</time>
      </trkpt>
      <trkpt lat="43.72703" lon="6.94575">
        <ele>1116.7</ele>
        <time>2016-09-25T12:46:47Z</time>
      </trkpt>
      <trkpt lat="43.72709" lon="6.94584">
        <ele>1115.4</ele>
        <time>2016-09-25T12:46:48Z</time>
      </trkpt>
      <trkpt lat="43.72713" lon="6.94594">
        <ele>1114.7</ele>
        <time>2016-09-25T12:46:49Z</time>
      </trkpt>
      <trkpt lat="43.72715" lon="6.94602">
        <ele>1114.2</ele>
        <time>2016-09-25T12:46:50Z</time>
      </trkpt>
      <trkpt lat="43.72711" lon="6.94608">
        <ele>1114.4</ele>
        <time>2016-09-25T12:46:51Z</time>
      </trkpt>
      <trkpt lat="43.72707" lon="6.94613">
        <ele>1114.6</ele>
        <time>2016-09-25T12:46:52Z</time>
      </trkpt>
      <trkpt lat="43.72707" lon="6.94621">
        <ele>1114.3</ele>
        <time>2016-09-25T12:46:53Z</time>
      </trkpt>
      <trkpt lat="43.72707" lon="6.9463">
        <ele>1113.6</ele>
        <time>2016-09-25T12:46:54Z</time>
      </trkpt>
      <trkpt lat="43.72707" lon="6.94641">
        <ele>1112.6</ele>
        <time>2016-09-25T12:46:55Z</time>
      </trkpt>
      <trkpt lat="43.72709" lon="6.94652">
        <ele>1111.4</ele>
        <time>2016-09-25T12:46:56Z</time>
      </trkpt>
      <trkpt lat="43.7271" lon="6.94662">
        <ele>1110.3</ele>
        <time>2016-09-25T12:46:57Z</time>
      </trkpt>
      <trkpt lat="43.72711" lon="6.94671">
        <ele>1109.3</ele>
        <time>2016-09-25T12:46:58Z</time>
      </trkpt>
      <trkpt lat="43.72711" lon="6.94682">
        <ele>1108.3</ele>
        <time>2016-09-25T12:46:59Z</time>
      </trkpt>
      <trkpt lat="43.7271" lon="6.94692">
        <ele>1107.5</ele>
        <time>2016-09-25T12:47:00Z</time>
      </trkpt>
      <trkpt lat="43.72709" lon="6.947">
        <ele>1106.7</ele>
        <time>2016-09-25T12:47:01Z</time>
      </trkpt>
      <trkpt lat="43.72709" lon="6.94711">
        <ele>1105.7</ele>
        <time>2016-09-25T12:47:02Z</time>
      </trkpt>
      <trkpt lat="43.72708" lon="6.9472">
        <ele>1104.5</ele>
        <time>2016-09-25T12:47:03Z</time>
      </trkpt>
      <trkpt lat="43.72705" lon="6.9473">
        <ele>1103.3</ele>
        <time>2016-09-25T12:47:04Z</time>
      </trkpt>
      <trkpt lat="43.72702" lon="6.94738">
        <ele>1102.3</ele>
        <time>2016-09-25T12:47:05Z</time>
      </trkpt>
      <trkpt lat="43.72696" lon="6.94745">
        <ele>1101.6</ele>
        <time>2016-09-25T12:47:06Z</time>
      </trkpt>
      <trkpt lat="43.7269" lon="6.94747">
        <ele>1101.4</ele>
        <time>2016-09-25T12:47:07Z</time>
      </trkpt>
      <trkpt lat="43.72684" lon="6.94749">
        <ele>1101.3</ele>
        <time>2016-09-25T12:47:08Z</time>
      </trkpt>
      <trkpt lat="43.72678" lon="6.94751">
        <ele>1101.3</ele>
        <time>2016-09-25T12:47:09Z</time>
      </trkpt>
      <trkpt lat="43.72672" lon="6.94751">
        <ele>1101.5</ele>
        <time>2016-09-25T12:47:10Z</time>
      </trkpt>
      <trkpt lat="43.72666" lon="6.94751">
        <ele>1101.7</ele>
        <time>2016-09-25T12:47:11Z</time>
      </trkpt>
      <trkpt lat="43.72661" lon="6.94749">
        <ele>1102.1</ele>
        <time>2016-09-25T12:47:12Z</time>
      </trkpt>
      <trkpt lat="43.72656" lon="6.94749">
        <ele>1102.3</ele>
        <time>2016-09-25T12:47:13Z</time>
      </trkpt>
      <trkpt lat="43.72651" lon="6.94748">
        <ele>1102.5</ele>
        <time>2016-09-25T12:47:14Z</time>
      </trkpt>
      <trkpt lat="43.72646" lon="6.94748">
        <ele>1102.7</ele>
        <time>2016-09-25T12:47:15Z</time>
      </trkpt>
      <trkpt lat="43.72641" lon="6.94748">
        <ele>1102.9</ele>
        <time>2016-09-25T12:47:16Z</time>
      </trkpt>
      <trkpt lat="43.72636" lon="6.94748">
        <ele>1103</ele>
        <time>2016-09-25T12:47:17Z</time>
      </trkpt>
      <trkpt lat="43.72631" lon="6.94748">
        <ele>1103.2</ele>
        <time>2016-09-25T12:47:18Z</time>
      </trkpt>
      <trkpt lat="43.72625" lon="6.94748">
        <ele>1103.4</ele>
        <time>2016-09-25T12:47:19Z</time>
      </trkpt>
      <trkpt lat="43.7262" lon="6.94746">
        <ele>1103.1</ele>
        <time>2016-09-25T12:47:20Z</time>
      </trkpt>
      <trkpt lat="43.72616" lon="6.94745">
        <ele>1103</ele>
        <time>2016-09-25T12:47:21Z</time>
      </trkpt>
      <trkpt lat="43.72613" lon="6.94743">
        <ele>1103</ele>
        <time>2016-09-25T12:47:22Z</time>
      </trkpt>
      <trkpt lat="43.7261" lon="6.94744">
        <ele>1102.6</ele>
        <time>2016-09-25T12:47:23Z</time>
      </trkpt>
      <trkpt lat="43.72607" lon="6.94746">
        <ele>1101.8</ele>
        <time>2016-09-25T12:47:24Z</time>
      </trkpt>
      <trkpt lat="43.72605" lon="6.94749">
        <ele>1100.9</ele>
        <time>2016-09-25T12:47:25Z</time>
      </trkpt>
      <trkpt lat="43.72602" lon="6.94752">
        <ele>1099.9</ele>
        <time>2016-09-25T12:47:26Z</time>
      </trkpt>
      <trkpt lat="43.72599" lon="6.94756">
        <ele>1098.7</ele>
        <time>2016-09-25T12:47:27Z</time>
      </trkpt>
      <trkpt lat="43.72597" lon="6.9476">
        <ele>1097.6</ele>
        <time>2016-09-25T12:47:28Z</time>
      </trkpt>
      <trkpt lat="43.72594" lon="6.94763">
        <ele>1096.5</ele>
        <time>2016-09-25T12:47:29Z</time>
      </trkpt>
      <trkpt lat="43.72591" lon="6.94767">
        <ele>1095.2</ele>
        <time>2016-09-25T12:47:30Z</time>
      </trkpt>
      <trkpt lat="43.72588" lon="6.94772">
        <ele>1093.6</ele>
        <time>2016-09-25T12:47:31Z</time>
      </trkpt>
      <trkpt lat="43.72587" lon="6.94779">
        <ele>1091.7</ele>
        <time>2016-09-25T12:47:32Z</time>
      </trkpt>
      <trkpt lat="43.72586" lon="6.94786">
        <ele>1090</ele>
        <time>2016-09-25T12:47:33Z</time>
      </trkpt>
      <trkpt lat="43.72586" lon="6.94794">
        <ele>1088.3</ele>
        <time>2016-09-25T12:47:34Z</time>
      </trkpt>
      <trkpt lat="43.72586" lon="6.948">
        <ele>1087.3</ele>
        <time>2016-09-25T12:47:35Z</time>
      </trkpt>
      <trkpt lat="43.72585" lon="6.94807">
        <ele>1086</ele>
        <time>2016-09-25T12:47:36Z</time>
      </trkpt>
      <trkpt lat="43.72584" lon="6.94815">
        <ele>1084.7</ele>
        <time>2016-09-25T12:47:37Z</time>
      </trkpt>
      <trkpt lat="43.72583" lon="6.94823">
        <ele>1083.3</ele>
        <time>2016-09-25T12:47:38Z</time>
      </trkpt>
      <trkpt lat="43.72582" lon="6.94831">
        <ele>1082</ele>
        <time>2016-09-25T12:47:39Z</time>
      </trkpt>
      <trkpt lat="43.7258" lon="6.94838">
        <ele>1080.5</ele>
        <time>2016-09-25T12:47:40Z</time>
      </trkpt>
      <trkpt lat="43.72576" lon="6.94843">
        <ele>1078.9</ele>
        <time>2016-09-25T12:47:41Z</time>
      </trkpt>
      <trkpt lat="43.72572" lon="6.94848">
        <ele>1077</ele>
        <time>2016-09-25T12:47:42Z</time>
      </trkpt>
      <trkpt lat="43.72568" lon="6.94849">
        <ele>1075.8</ele>
        <time>2016-09-25T12:47:43Z</time>
      </trkpt>
      <trkpt lat="43.72565" lon="6.94852">
        <ele>1074.5</ele>
        <time>2016-09-25T12:47:44Z</time>
      </trkpt>
      <trkpt lat="43.72562" lon="6.94854">
        <ele>1073.4</ele>
        <time>2016-09-25T12:47:45Z</time>
      </trkpt>
      <trkpt lat="43.72558" lon="6.94854">
        <ele>1072.4</ele>
        <time>2016-09-25T12:47:46Z</time>
      </trkpt>
      <trkpt lat="43.72556" lon="6.9485">
        <ele>1072.5</ele>
        <time>2016-09-25T12:47:47Z</time>
      </trkpt>
      <trkpt lat="43.72554" lon="6.94844">
        <ele>1073.2</ele>
        <time>2016-09-25T12:47:48Z</time>
      </trkpt>
      <trkpt lat="43.72554" lon="6.94836">
        <ele>1074.5</ele>
        <time>2016-09-25T12:47:49Z</time>
      </trkpt>
      <trkpt lat="43.72554" lon="6.94829">
        <ele>1075.7</ele>
        <time>2016-09-25T12:47:50Z</time>
      </trkpt>
      <trkpt lat="43.72555" lon="6.94823">
        <ele>1077</ele>
        <time>2016-09-25T12:47:51Z</time>
      </trkpt>
      <trkpt lat="43.72556" lon="6.94817">
        <ele>1078.3</ele>
        <time>2016-09-25T12:47:52Z</time>
      </trkpt>
      <trkpt lat="43.72554" lon="6.94812">
        <ele>1078.8</ele>
        <time>2016-09-25T12:47:53Z</time>
      </trkpt>
      <trkpt lat="43.72551" lon="6.94807">
        <ele>1079</ele>
        <time>2016-09-25T12:47:54Z</time>
      </trkpt>
      <trkpt lat="43.72546" lon="6.94803">
        <ele>1078.8</ele>
        <time>2016-09-25T12:47:55Z</time>
      </trkpt>
      <trkpt lat="43.72541" lon="6.94798">
        <ele>1078.6</ele>
        <time>2016-09-25T12:47:56Z</time>
      </trkpt>
      <trkpt lat="43.72536" lon="6.94794">
        <ele>1078.1</ele>
        <time>2016-09-25T12:47:57Z</time>
      </trkpt>
      <trkpt lat="43.72532" lon="6.94791">
        <ele>1077.9</ele>
        <time>2016-09-25T12:47:58Z</time>
      </trkpt>
      <trkpt lat="43.72529" lon="6.94789">
        <ele>1077.7</ele>
        <time>2016-09-25T12:47:59Z</time>
      </trkpt>
      <trkpt lat="43.72527" lon="6.94787">
        <ele>1078.1</ele>
        <time>2016-09-25T12:48:00Z</time>
      </trkpt>
      <trkpt lat="43.72523" lon="6.94784">
        <ele>1078.3</ele>
        <time>2016-09-25T12:48:02Z</time>
      </trkpt>
      <trkpt lat="43.72522" lon="6.9479">
        <ele>1075.6</ele>
        <time>2016-09-25T12:48:04Z</time>
      </trkpt>
      <trkpt lat="43.72522" lon="6.94796">
        <ele>1074.3</ele>
        <time>2016-09-25T12:48:05Z</time>
      </trkpt>
      <trkpt lat="43.72522" lon="6.948">
        <ele>1073.4</ele>
        <time>2016-09-25T12:48:06Z</time>
      </trkpt>
      <trkpt lat="43.72521" lon="6.94807">
        <ele>1071.7</ele>
        <time>2016-09-25T12:48:07Z</time>
      </trkpt>
      <trkpt lat="43.72521" lon="6.94816">
        <ele>1069.7</ele>
        <time>2016-09-25T12:48:08Z</time>
      </trkpt>
      <trkpt lat="43.7252" lon="6.94826">
        <ele>1067.4</ele>
        <time>2016-09-25T12:48:09Z</time>
      </trkpt>
      <trkpt lat="43.72519" lon="6.94835">
        <ele>1065</ele>
        <time>2016-09-25T12:48:10Z</time>
      </trkpt>
      <trkpt lat="43.72518" lon="6.94842">
        <ele>1063.1</ele>
        <time>2016-09-25T12:48:11Z</time>
      </trkpt>
      <trkpt lat="43.72515" lon="6.94846">
        <ele>1061.4</ele>
        <time>2016-09-25T12:48:12Z</time>
      </trkpt>
      <trkpt lat="43.72511" lon="6.94842">
        <ele>1060.9</ele>
        <time>2016-09-25T12:48:14Z</time>
      </trkpt>
      <trkpt lat="43.7251" lon="6.94836">
        <ele>1062</ele>
        <time>2016-09-25T12:48:15Z</time>
      </trkpt>
      <trkpt lat="43.72507" lon="6.94829">
        <ele>1063</ele>
        <time>2016-09-25T12:48:16Z</time>
      </trkpt>
      <trkpt lat="43.72504" lon="6.94821">
        <ele>1063.9</ele>
        <time>2016-09-25T12:48:17Z</time>
      </trkpt>
      <trkpt lat="43.725" lon="6.94815">
        <ele>1064.2</ele>
        <time>2016-09-25T12:48:18Z</time>
      </trkpt>
      <trkpt lat="43.72495" lon="6.94808">
        <ele>1064.6</ele>
        <time>2016-09-25T12:48:19Z</time>
      </trkpt>
      <trkpt lat="43.7249" lon="6.94802">
        <ele>1064.9</ele>
        <time>2016-09-25T12:48:20Z</time>
      </trkpt>
      <trkpt lat="43.72485" lon="6.94796">
        <ele>1065.3</ele>
        <time>2016-09-25T12:48:21Z</time>
      </trkpt>
      <trkpt lat="43.7248" lon="6.9479">
        <ele>1065.6</ele>
        <time>2016-09-25T12:48:22Z</time>
      </trkpt>
      <trkpt lat="43.72475" lon="6.94786">
        <ele>1065.8</ele>
        <time>2016-09-25T12:48:23Z</time>
      </trkpt>
      <trkpt lat="43.72471" lon="6.94784">
        <ele>1065.7</ele>
        <time>2016-09-25T12:48:24Z</time>
      </trkpt>
      <trkpt lat="43.72468" lon="6.94782">
        <ele>1065.7</ele>
        <time>2016-09-25T12:48:25Z</time>
      </trkpt>
      <trkpt lat="43.72464" lon="6.94778">
        <ele>1066.1</ele>
        <time>2016-09-25T12:48:26Z</time>
      </trkpt>
      <trkpt lat="43.72461" lon="6.94775">
        <ele>1066.4</ele>
        <time>2016-09-25T12:48:27Z</time>
      </trkpt>
      <trkpt lat="43.72457" lon="6.94774">
        <ele>1066.1</ele>
        <time>2016-09-25T12:48:28Z</time>
      </trkpt>
      <trkpt lat="43.72453" lon="6.94774">
        <ele>1065.4</ele>
        <time>2016-09-25T12:48:29Z</time>
      </trkpt>
      <trkpt lat="43.72448" lon="6.94775">
        <ele>1064.3</ele>
        <time>2016-09-25T12:48:30Z</time>
      </trkpt>
      <trkpt lat="43.72441" lon="6.94775">
        <ele>1063.3</ele>
        <time>2016-09-25T12:48:31Z</time>
      </trkpt>
      <trkpt lat="43.72434" lon="6.94774">
        <ele>1062.6</ele>
        <time>2016-09-25T12:48:32Z</time>
      </trkpt>
      <trkpt lat="43.72427" lon="6.94773">
        <ele>1061.7</ele>
        <time>2016-09-25T12:48:33Z</time>
      </trkpt>
      <trkpt lat="43.72421" lon="6.94771">
        <ele>1061.2</ele>
        <time>2016-09-25T12:48:34Z</time>
      </trkpt>
      <trkpt lat="43.72413" lon="6.94769">
        <ele>1060.9</ele>
        <time>2016-09-25T12:48:35Z</time>
      </trkpt>
      <trkpt lat="43.72407" lon="6.94766">
        <ele>1061</ele>
        <time>2016-09-25T12:48:36Z</time>
      </trkpt>
      <trkpt lat="43.72401" lon="6.94763">
        <ele>1060.9</ele>
        <time>2016-09-25T12:48:37Z</time>
      </trkpt>
      <trkpt lat="43.72395" lon="6.94763">
        <ele>1060.2</ele>
        <time>2016-09-25T12:48:38Z</time>
      </trkpt>
      <trkpt lat="43.72388" lon="6.94762">
        <ele>1059.3</ele>
        <time>2016-09-25T12:48:39Z</time>
      </trkpt>
      <trkpt lat="43.72382" lon="6.94765">
        <ele>1057.3</ele>
        <time>2016-09-25T12:48:40Z</time>
      </trkpt>
      <trkpt lat="43.72376" lon="6.94767">
        <ele>1055.7</ele>
        <time>2016-09-25T12:48:41Z</time>
      </trkpt>
      <trkpt lat="43.7237" lon="6.94767">
        <ele>1054.4</ele>
        <time>2016-09-25T12:48:42Z</time>
      </trkpt>
      <trkpt lat="43.72364" lon="6.94766">
        <ele>1053.4</ele>
        <time>2016-09-25T12:48:43Z</time>
      </trkpt>
      <trkpt lat="43.72358" lon="6.94764">
        <ele>1052.7</ele>
        <time>2016-09-25T12:48:44Z</time>
      </trkpt>
      <trkpt lat="43.72352" lon="6.94763">
        <ele>1051.4</ele>
        <time>2016-09-25T12:48:45Z</time>
      </trkpt>
      <trkpt lat="43.72344" lon="6.94765">
        <ele>1049.2</ele>
        <time>2016-09-25T12:48:46Z</time>
      </trkpt>
      <trkpt lat="43.72336" lon="6.94767">
        <ele>1046.5</ele>
        <time>2016-09-25T12:48:47Z</time>
      </trkpt>
      <trkpt lat="43.72326" lon="6.94769">
        <ele>1043.6</ele>
        <time>2016-09-25T12:48:48Z</time>
      </trkpt>
      <trkpt lat="43.72317" lon="6.94769">
        <ele>1041.6</ele>
        <time>2016-09-25T12:48:49Z</time>
      </trkpt>
      <trkpt lat="43.72307" lon="6.94765">
        <ele>1040.5</ele>
        <time>2016-09-25T12:48:50Z</time>
      </trkpt>
      <trkpt lat="43.72297" lon="6.94758">
        <ele>1040.4</ele>
        <time>2016-09-25T12:48:51Z</time>
      </trkpt>
      <trkpt lat="43.72287" lon="6.94749">
        <ele>1040.7</ele>
        <time>2016-09-25T12:48:52Z</time>
      </trkpt>
      <trkpt lat="43.72278" lon="6.94739">
        <ele>1040.9</ele>
        <time>2016-09-25T12:48:53Z</time>
      </trkpt>
      <trkpt lat="43.72269" lon="6.9473">
        <ele>1040.5</ele>
        <time>2016-09-25T12:48:54Z</time>
      </trkpt>
      <trkpt lat="43.72261" lon="6.94721">
        <ele>1040.1</ele>
        <time>2016-09-25T12:48:55Z</time>
      </trkpt>
      <trkpt lat="43.72252" lon="6.94712">
        <ele>1039.2</ele>
        <time>2016-09-25T12:48:56Z</time>
      </trkpt>
      <trkpt lat="43.72244" lon="6.94705">
        <ele>1038.3</ele>
        <time>2016-09-25T12:48:57Z</time>
      </trkpt>
      <trkpt lat="43.72235" lon="6.94697">
        <ele>1037.3</ele>
        <time>2016-09-25T12:48:58Z</time>
      </trkpt>
      <trkpt lat="43.72227" lon="6.9469">
        <ele>1036.2</ele>
        <time>2016-09-25T12:48:59Z</time>
      </trkpt>
      <trkpt lat="43.7222" lon="6.94683">
        <ele>1035.1</ele>
        <time>2016-09-25T12:49:00Z</time>
      </trkpt>
      <trkpt lat="43.72212" lon="6.94676">
        <ele>1033.8</ele>
        <time>2016-09-25T12:49:01Z</time>
      </trkpt>
      <trkpt lat="43.72205" lon="6.94669">
        <ele>1033.3</ele>
        <time>2016-09-25T12:49:02Z</time>
      </trkpt>
      <trkpt lat="43.72197" lon="6.94661">
        <ele>1033.8</ele>
        <time>2016-09-25T12:49:03Z</time>
      </trkpt>
      <trkpt lat="43.7219" lon="6.94654">
        <ele>1034.2</ele>
        <time>2016-09-25T12:49:04Z</time>
      </trkpt>
      <trkpt lat="43.72185" lon="6.94646">
        <ele>1034.8</ele>
        <time>2016-09-25T12:49:05Z</time>
      </trkpt>
      <trkpt lat="43.72178" lon="6.94638">
        <ele>1035.1</ele>
        <time>2016-09-25T12:49:06Z</time>
      </trkpt>
      <trkpt lat="43.72172" lon="6.9463">
        <ele>1035.6</ele>
        <time>2016-09-25T12:49:07Z</time>
      </trkpt>
      <trkpt lat="43.72168" lon="6.94621">
        <ele>1036.7</ele>
        <time>2016-09-25T12:49:08Z</time>
      </trkpt>
      <trkpt lat="43.72162" lon="6.94614">
        <ele>1037.4</ele>
        <time>2016-09-25T12:49:09Z</time>
      </trkpt>
      <trkpt lat="43.72157" lon="6.94609">
        <ele>1037.4</ele>
        <time>2016-09-25T12:49:10Z</time>
      </trkpt>
      <trkpt lat="43.72152" lon="6.94607">
        <ele>1036.5</ele>
        <time>2016-09-25T12:49:11Z</time>
      </trkpt>
      <trkpt lat="43.72146" lon="6.94606">
        <ele>1035.5</ele>
        <time>2016-09-25T12:49:12Z</time>
      </trkpt>
      <trkpt lat="43.72142" lon="6.94605">
        <ele>1034.8</ele>
        <time>2016-09-25T12:49:13Z</time>
      </trkpt>
      <trkpt lat="43.72138" lon="6.94604">
        <ele>1033.9</ele>
        <time>2016-09-25T12:49:14Z</time>
      </trkpt>
      <trkpt lat="43.72134" lon="6.94604">
        <ele>1033</ele>
        <time>2016-09-25T12:49:15Z</time>
      </trkpt>
      <trkpt lat="43.72128" lon="6.94603">
        <ele>1031.9</ele>
        <time>2016-09-25T12:49:16Z</time>
      </trkpt>
      <trkpt lat="43.72123" lon="6.94603">
        <ele>1031</ele>
        <time>2016-09-25T12:49:17Z</time>
      </trkpt>
      <trkpt lat="43.72118" lon="6.94602">
        <ele>1031</ele>
        <time>2016-09-25T12:49:18Z</time>
      </trkpt>
      <trkpt lat="43.72112" lon="6.94599">
        <ele>1031.2</ele>
        <time>2016-09-25T12:49:19Z</time>
      </trkpt>
      <trkpt lat="43.72106" lon="6.94596">
        <ele>1031.4</ele>
        <time>2016-09-25T12:49:20Z</time>
      </trkpt>
      <trkpt lat="43.72101" lon="6.94593">
        <ele>1031.6</ele>
        <time>2016-09-25T12:49:21Z</time>
      </trkpt>
      <trkpt lat="43.72097" lon="6.94589">
        <ele>1031.8</ele>
        <time>2016-09-25T12:49:22Z</time>
      </trkpt>
      <trkpt lat="43.72094" lon="6.94588">
        <ele>1031.9</ele>
        <time>2016-09-25T12:49:23Z</time>
      </trkpt>
      <trkpt lat="43.7209" lon="6.94587">
        <ele>1031.7</ele>
        <time>2016-09-25T12:49:24Z</time>
      </trkpt>
      <trkpt lat="43.72085" lon="6.94587">
        <ele>1031.4</ele>
        <time>2016-09-25T12:49:25Z</time>
      </trkpt>
      <trkpt lat="43.72081" lon="6.94587">
        <ele>1031.1</ele>
        <time>2016-09-25T12:49:26Z</time>
      </trkpt>
      <trkpt lat="43.72076" lon="6.94585">
        <ele>1030.9</ele>
        <time>2016-09-25T12:49:27Z</time>
      </trkpt>
      <trkpt lat="43.72072" lon="6.94583">
        <ele>1031</ele>
        <time>2016-09-25T12:49:28Z</time>
      </trkpt>
      <trkpt lat="43.72068" lon="6.9458">
        <ele>1031</ele>
        <time>2016-09-25T12:49:29Z</time>
      </trkpt>
      <trkpt lat="43.72065" lon="6.94579">
        <ele>1030.9</ele>
        <time>2016-09-25T12:49:30Z</time>
      </trkpt>
      <trkpt lat="43.72061" lon="6.94578">
        <ele>1030.7</ele>
        <time>2016-09-25T12:49:31Z</time>
      </trkpt>
      <trkpt lat="43.72056" lon="6.94577">
        <ele>1030.4</ele>
        <time>2016-09-25T12:49:32Z</time>
      </trkpt>
      <trkpt lat="43.72052" lon="6.94576">
        <ele>1030.2</ele>
        <time>2016-09-25T12:49:33Z</time>
      </trkpt>
      <trkpt lat="43.72048" lon="6.94575">
        <ele>1030</ele>
        <time>2016-09-25T12:49:34Z</time>
      </trkpt>
      <trkpt lat="43.72043" lon="6.94573">
        <ele>1029.7</ele>
        <time>2016-09-25T12:49:35Z</time>
      </trkpt>
      <trkpt lat="43.72041" lon="6.94572">
        <ele>1029.5</ele>
        <time>2016-09-25T12:49:36Z</time>
      </trkpt>
      <trkpt lat="43.72038" lon="6.94571">
        <ele>1029.1</ele>
        <time>2016-09-25T12:49:37Z</time>
      </trkpt>
      <trkpt lat="43.72035" lon="6.94572">
        <ele>1028.4</ele>
        <time>2016-09-25T12:49:38Z</time>
      </trkpt>
      <trkpt lat="43.72031" lon="6.94575">
        <ele>1027.4</ele>
        <time>2016-09-25T12:49:39Z</time>
      </trkpt>
      <trkpt lat="43.72027" lon="6.94576">
        <ele>1026.5</ele>
        <time>2016-09-25T12:49:40Z</time>
      </trkpt>
      <trkpt lat="43.72023" lon="6.94577">
        <ele>1025.6</ele>
        <time>2016-09-25T12:49:41Z</time>
      </trkpt>
      <trkpt lat="43.72017" lon="6.94578">
        <ele>1024.5</ele>
        <time>2016-09-25T12:49:42Z</time>
      </trkpt>
      <trkpt lat="43.72014" lon="6.9458">
        <ele>1023.6</ele>
        <time>2016-09-25T12:49:43Z</time>
      </trkpt>
      <trkpt lat="43.72009" lon="6.94581">
        <ele>1022.7</ele>
        <time>2016-09-25T12:49:44Z</time>
      </trkpt>
      <trkpt lat="43.72005" lon="6.94583">
        <ele>1021.7</ele>
        <time>2016-09-25T12:49:45Z</time>
      </trkpt>
      <trkpt lat="43.72002" lon="6.94587">
        <ele>1020.7</ele>
        <time>2016-09-25T12:49:46Z</time>
      </trkpt>
      <trkpt lat="43.71999" lon="6.94592">
        <ele>1019.7</ele>
        <time>2016-09-25T12:49:47Z</time>
      </trkpt>
      <trkpt lat="43.71996" lon="6.94597">
        <ele>1018.6</ele>
        <time>2016-09-25T12:49:48Z</time>
      </trkpt>
      <trkpt lat="43.71992" lon="6.94599">
        <ele>1017.6</ele>
        <time>2016-09-25T12:49:49Z</time>
      </trkpt>
      <trkpt lat="43.71988" lon="6.94598">
        <ele>1017</ele>
        <time>2016-09-25T12:49:50Z</time>
      </trkpt>
      <trkpt lat="43.71984" lon="6.94595">
        <ele>1016.7</ele>
        <time>2016-09-25T12:49:51Z</time>
      </trkpt>
      <trkpt lat="43.71981" lon="6.9459">
        <ele>1016.6</ele>
        <time>2016-09-25T12:49:52Z</time>
      </trkpt>
      <trkpt lat="43.71978" lon="6.94587">
        <ele>1016.2</ele>
        <time>2016-09-25T12:49:53Z</time>
      </trkpt>
      <trkpt lat="43.71973" lon="6.94585">
        <ele>1015.6</ele>
        <time>2016-09-25T12:49:54Z</time>
      </trkpt>
      <trkpt lat="43.71971" lon="6.94582">
        <ele>1015.5</ele>
        <time>2016-09-25T12:49:55Z</time>
      </trkpt>
      <trkpt lat="43.71968" lon="6.94577">
        <ele>1015.5</ele>
        <time>2016-09-25T12:49:56Z</time>
      </trkpt>
      <trkpt lat="43.71966" lon="6.94572">
        <ele>1015.5</ele>
        <time>2016-09-25T12:49:57Z</time>
      </trkpt>
      <trkpt lat="43.71962" lon="6.94569">
        <ele>1015</ele>
        <time>2016-09-25T12:49:58Z</time>
      </trkpt>
      <trkpt lat="43.71956" lon="6.94566">
        <ele>1014.4</ele>
        <time>2016-09-25T12:49:59Z</time>
      </trkpt>
      <trkpt lat="43.7195" lon="6.94564">
        <ele>1014.1</ele>
        <time>2016-09-25T12:50:00Z</time>
      </trkpt>
      <trkpt lat="43.71945" lon="6.9456">
        <ele>1013.9</ele>
        <time>2016-09-25T12:50:01Z</time>
      </trkpt>
      <trkpt lat="43.7194" lon="6.94558">
        <ele>1013.8</ele>
        <time>2016-09-25T12:50:02Z</time>
      </trkpt>
      <trkpt lat="43.71935" lon="6.94555">
        <ele>1013.6</ele>
        <time>2016-09-25T12:50:03Z</time>
      </trkpt>
      <trkpt lat="43.7193" lon="6.94553">
        <ele>1013.3</ele>
        <time>2016-09-25T12:50:04Z</time>
      </trkpt>
      <trkpt lat="43.71926" lon="6.94549">
        <ele>1013.2</ele>
        <time>2016-09-25T12:50:05Z</time>
      </trkpt>
      <trkpt lat="43.71922" lon="6.94548">
        <ele>1012.9</ele>
        <time>2016-09-25T12:50:06Z</time>
      </trkpt>
      <trkpt lat="43.71918" lon="6.94551">
        <ele>1012.4</ele>
        <time>2016-09-25T12:50:07Z</time>
      </trkpt>
      <trkpt lat="43.71914" lon="6.94555">
        <ele>1011.5</ele>
        <time>2016-09-25T12:50:08Z</time>
      </trkpt>
      <trkpt lat="43.7191" lon="6.94562">
        <ele>1010.5</ele>
        <time>2016-09-25T12:50:09Z</time>
      </trkpt>
      <trkpt lat="43.71905" lon="6.94568">
        <ele>1009.5</ele>
        <time>2016-09-25T12:50:10Z</time>
      </trkpt>
      <trkpt lat="43.719" lon="6.94575">
        <ele>1008.5</ele>
        <time>2016-09-25T12:50:11Z</time>
      </trkpt>
      <trkpt lat="43.71896" lon="6.94581">
        <ele>1007.5</ele>
        <time>2016-09-25T12:50:12Z</time>
      </trkpt>
      <trkpt lat="43.71891" lon="6.94587">
        <ele>1006.7</ele>
        <time>2016-09-25T12:50:13Z</time>
      </trkpt>
      <trkpt lat="43.71886" lon="6.94593">
        <ele>1005.7</ele>
        <time>2016-09-25T12:50:14Z</time>
      </trkpt>
      <trkpt lat="43.71881" lon="6.94596">
        <ele>1005</ele>
        <time>2016-09-25T12:50:15Z</time>
      </trkpt>
      <trkpt lat="43.71874" lon="6.94598">
        <ele>1004.2</ele>
        <time>2016-09-25T12:50:16Z</time>
      </trkpt>
      <trkpt lat="43.71868" lon="6.94601">
        <ele>1003.6</ele>
        <time>2016-09-25T12:50:17Z</time>
      </trkpt>
      <trkpt lat="43.71863" lon="6.94607">
        <ele>1002.8</ele>
        <time>2016-09-25T12:50:18Z</time>
      </trkpt>
      <trkpt lat="43.71857" lon="6.94612">
        <ele>1002.1</ele>
        <time>2016-09-25T12:50:19Z</time>
      </trkpt>
      <trkpt lat="43.71851" lon="6.94616">
        <ele>1001.5</ele>
        <time>2016-09-25T12:50:20Z</time>
      </trkpt>
      <trkpt lat="43.71846" lon="6.94621">
        <ele>1000.9</ele>
        <time>2016-09-25T12:50:21Z</time>
      </trkpt>
      <trkpt lat="43.71841" lon="6.94625">
        <ele>1000.4</ele>
        <time>2016-09-25T12:50:22Z</time>
      </trkpt>
      <trkpt lat="43.71838" lon="6.94628">
        <ele>1000.1</ele>
        <time>2016-09-25T12:50:23Z</time>
      </trkpt>
      <trkpt lat="43.71837" lon="6.94633">
        <ele>999.7</ele>
        <time>2016-09-25T12:50:24Z</time>
      </trkpt>
      <trkpt lat="43.71838" lon="6.94641">
        <ele>999.3</ele>
        <time>2016-09-25T12:50:25Z</time>
      </trkpt>
      <trkpt lat="43.71839" lon="6.94647">
        <ele>998.9</ele>
        <time>2016-09-25T12:50:26Z</time>
      </trkpt>
      <trkpt lat="43.71837" lon="6.94653">
        <ele>998.5</ele>
        <time>2016-09-25T12:50:27Z</time>
      </trkpt>
      <trkpt lat="43.71831" lon="6.94655">
        <ele>998</ele>
        <time>2016-09-25T12:50:28Z</time>
      </trkpt>
      <trkpt lat="43.71825" lon="6.94659">
        <ele>997.6</ele>
        <time>2016-09-25T12:50:29Z</time>
      </trkpt>
      <trkpt lat="43.71819" lon="6.94664">
        <ele>997</ele>
        <time>2016-09-25T12:50:30Z</time>
      </trkpt>
      <trkpt lat="43.71812" lon="6.94669">
        <ele>996.3</ele>
        <time>2016-09-25T12:50:31Z</time>
      </trkpt>
      <trkpt lat="43.71804" lon="6.94674">
        <ele>995.7</ele>
        <time>2016-09-25T12:50:32Z</time>
      </trkpt>
      <trkpt lat="43.71798" lon="6.94675">
        <ele>995.3</ele>
        <time>2016-09-25T12:50:33Z</time>
      </trkpt>
      <trkpt lat="43.7179" lon="6.94677">
        <ele>994.9</ele>
        <time>2016-09-25T12:50:34Z</time>
      </trkpt>
      <trkpt lat="43.71782" lon="6.94681">
        <ele>995.1</ele>
        <time>2016-09-25T12:50:35Z</time>
      </trkpt>
      <trkpt lat="43.71775" lon="6.94683">
        <ele>995.3</ele>
        <time>2016-09-25T12:50:36Z</time>
      </trkpt>
      <trkpt lat="43.71768" lon="6.94688">
        <ele>995.3</ele>
        <time>2016-09-25T12:50:37Z</time>
      </trkpt>
      <trkpt lat="43.71761" lon="6.94693">
        <ele>995.4</ele>
        <time>2016-09-25T12:50:38Z</time>
      </trkpt>
      <trkpt lat="43.71754" lon="6.94698">
        <ele>995.5</ele>
        <time>2016-09-25T12:50:39Z</time>
      </trkpt>
      <trkpt lat="43.71747" lon="6.94706">
        <ele>995.3</ele>
        <time>2016-09-25T12:50:40Z</time>
      </trkpt>
      <trkpt lat="43.71741" lon="6.94714">
        <ele>995.1</ele>
        <time>2016-09-25T12:50:41Z</time>
      </trkpt>
      <trkpt lat="43.71733" lon="6.9472">
        <ele>995.1</ele>
        <time>2016-09-25T12:50:42Z</time>
      </trkpt>
      <trkpt lat="43.71728" lon="6.94726">
        <ele>995</ele>
        <time>2016-09-25T12:50:43Z</time>
      </trkpt>
      <trkpt lat="43.71725" lon="6.94734">
        <ele>994.7</ele>
        <time>2016-09-25T12:50:44Z</time>
      </trkpt>
      <trkpt lat="43.71724" lon="6.94741">
        <ele>994.3</ele>
        <time>2016-09-25T12:50:45Z</time>
      </trkpt>
      <trkpt lat="43.71725" lon="6.94748">
        <ele>993.9</ele>
        <time>2016-09-25T12:50:46Z</time>
      </trkpt>
      <trkpt lat="43.71725" lon="6.94757">
        <ele>993.3</ele>
        <time>2016-09-25T12:50:47Z</time>
      </trkpt>
      <trkpt lat="43.71724" lon="6.94765">
        <ele>992.9</ele>
        <time>2016-09-25T12:50:48Z</time>
      </trkpt>
      <trkpt lat="43.71725" lon="6.94772">
        <ele>992.4</ele>
        <time>2016-09-25T12:50:49Z</time>
      </trkpt>
      <trkpt lat="43.71726" lon="6.94777">
        <ele>992</ele>
        <time>2016-09-25T12:50:50Z</time>
      </trkpt>
      <trkpt lat="43.71728" lon="6.94783">
        <ele>991.4</ele>
        <time>2016-09-25T12:50:51Z</time>
      </trkpt>
      <trkpt lat="43.71729" lon="6.94789">
        <ele>991</ele>
        <time>2016-09-25T12:50:52Z</time>
      </trkpt>
      <trkpt lat="43.71729" lon="6.94795">
        <ele>990.5</ele>
        <time>2016-09-25T12:50:53Z</time>
      </trkpt>
      <trkpt lat="43.71727" lon="6.94801">
        <ele>990</ele>
        <time>2016-09-25T12:50:54Z</time>
      </trkpt>
      <trkpt lat="43.71726" lon="6.94808">
        <ele>989.6</ele>
        <time>2016-09-25T12:50:55Z</time>
      </trkpt>
      <trkpt lat="43.71724" lon="6.94814">
        <ele>989.3</ele>
        <time>2016-09-25T12:50:56Z</time>
      </trkpt>
      <trkpt lat="43.71721" lon="6.9482">
        <ele>989</ele>
        <time>2016-09-25T12:50:57Z</time>
      </trkpt>
      <trkpt lat="43.71719" lon="6.94827">
        <ele>988.5</ele>
        <time>2016-09-25T12:50:58Z</time>
      </trkpt>
      <trkpt lat="43.71718" lon="6.94833">
        <ele>988</ele>
        <time>2016-09-25T12:50:59Z</time>
      </trkpt>
      <trkpt lat="43.71717" lon="6.9484">
        <ele>987.4</ele>
        <time>2016-09-25T12:51:00Z</time>
      </trkpt>
      <trkpt lat="43.71716" lon="6.94847">
        <ele>987</ele>
        <time>2016-09-25T12:51:01Z</time>
      </trkpt>
      <trkpt lat="43.71716" lon="6.94853">
        <ele>986.4</ele>
        <time>2016-09-25T12:51:02Z</time>
      </trkpt>
      <trkpt lat="43.71719" lon="6.94859">
        <ele>985.5</ele>
        <time>2016-09-25T12:51:03Z</time>
      </trkpt>
      <trkpt lat="43.71722" lon="6.94864">
        <ele>984.7</ele>
        <time>2016-09-25T12:51:04Z</time>
      </trkpt>
      <trkpt lat="43.71724" lon="6.9487">
        <ele>984</ele>
        <time>2016-09-25T12:51:05Z</time>
      </trkpt>
      <trkpt lat="43.71727" lon="6.94876">
        <ele>983.2</ele>
        <time>2016-09-25T12:51:06Z</time>
      </trkpt>
      <trkpt lat="43.7173" lon="6.94881">
        <ele>982.5</ele>
        <time>2016-09-25T12:51:07Z</time>
      </trkpt>
      <trkpt lat="43.71734" lon="6.94885">
        <ele>981.9</ele>
        <time>2016-09-25T12:51:08Z</time>
      </trkpt>
      <trkpt lat="43.71737" lon="6.94891">
        <ele>981.3</ele>
        <time>2016-09-25T12:51:09Z</time>
      </trkpt>
      <trkpt lat="43.7174" lon="6.94898">
        <ele>980.6</ele>
        <time>2016-09-25T12:51:10Z</time>
      </trkpt>
      <trkpt lat="43.71744" lon="6.94904">
        <ele>979.9</ele>
        <time>2016-09-25T12:51:11Z</time>
      </trkpt>
      <trkpt lat="43.71747" lon="6.9491">
        <ele>979.2</ele>
        <time>2016-09-25T12:51:12Z</time>
      </trkpt>
      <trkpt lat="43.7175" lon="6.94916">
        <ele>978.5</ele>
        <time>2016-09-25T12:51:13Z</time>
      </trkpt>
      <trkpt lat="43.71754" lon="6.94923">
        <ele>977.8</ele>
        <time>2016-09-25T12:51:14Z</time>
      </trkpt>
      <trkpt lat="43.71758" lon="6.9493">
        <ele>976.9</ele>
        <time>2016-09-25T12:51:15Z</time>
      </trkpt>
      <trkpt lat="43.71762" lon="6.94938">
        <ele>976.1</ele>
        <time>2016-09-25T12:51:16Z</time>
      </trkpt>
      <trkpt lat="43.71767" lon="6.94945">
        <ele>975.2</ele>
        <time>2016-09-25T12:51:17Z</time>
      </trkpt>
      <trkpt lat="43.71772" lon="6.94952">
        <ele>974.3</ele>
        <time>2016-09-25T12:51:18Z</time>
      </trkpt>
      <trkpt lat="43.71775" lon="6.94958">
        <ele>973.6</ele>
        <time>2016-09-25T12:51:19Z</time>
      </trkpt>
      <trkpt lat="43.7178" lon="6.94964">
        <ele>972.6</ele>
        <time>2016-09-25T12:51:20Z</time>
      </trkpt>
      <trkpt lat="43.71785" lon="6.94967">
        <ele>971.7</ele>
        <time>2016-09-25T12:51:21Z</time>
      </trkpt>
      <trkpt lat="43.71791" lon="6.94971">
        <ele>970.7</ele>
        <time>2016-09-25T12:51:22Z</time>
      </trkpt>
      <trkpt lat="43.71795" lon="6.94971">
        <ele>970.5</ele>
        <time>2016-09-25T12:51:23Z</time>
      </trkpt>
      <trkpt lat="43.71799" lon="6.94975">
        <ele>969.9</ele>
        <time>2016-09-25T12:51:24Z</time>
      </trkpt>
      <trkpt lat="43.71803" lon="6.94978">
        <ele>969.4</ele>
        <time>2016-09-25T12:51:25Z</time>
      </trkpt>
      <trkpt lat="43.71808" lon="6.9498">
        <ele>968.9</ele>
        <time>2016-09-25T12:51:26Z</time>
      </trkpt>
      <trkpt lat="43.71811" lon="6.94984">
        <ele>968.3</ele>
        <time>2016-09-25T12:51:27Z</time>
      </trkpt>
      <trkpt lat="43.71813" lon="6.94987">
        <ele>967.9</ele>
        <time>2016-09-25T12:51:28Z</time>
      </trkpt>
      <trkpt lat="43.71817" lon="6.94991">
        <ele>967.3</ele>
        <time>2016-09-25T12:51:30Z</time>
      </trkpt>
      <trkpt lat="43.7182" lon="6.94995">
        <ele>966.7</ele>
        <time>2016-09-25T12:51:31Z</time>
      </trkpt>
      <trkpt lat="43.71822" lon="6.95">
        <ele>966.1</ele>
        <time>2016-09-25T12:51:32Z</time>
      </trkpt>
      <trkpt lat="43.71826" lon="6.95006">
        <ele>965.2</ele>
        <time>2016-09-25T12:51:33Z</time>
      </trkpt>
      <trkpt lat="43.71829" lon="6.95014">
        <ele>964.2</ele>
        <time>2016-09-25T12:51:34Z</time>
      </trkpt>
      <trkpt lat="43.71834" lon="6.95023">
        <ele>963</ele>
        <time>2016-09-25T12:51:35Z</time>
      </trkpt>
      <trkpt lat="43.71839" lon="6.95031">
        <ele>961.9</ele>
        <time>2016-09-25T12:51:36Z</time>
      </trkpt>
      <trkpt lat="43.71843" lon="6.95038">
        <ele>961</ele>
        <time>2016-09-25T12:51:37Z</time>
      </trkpt>
      <trkpt lat="43.71846" lon="6.95046">
        <ele>959.9</ele>
        <time>2016-09-25T12:51:38Z</time>
      </trkpt>
      <trkpt lat="43.71846" lon="6.95055">
        <ele>959</ele>
        <time>2016-09-25T12:51:39Z</time>
      </trkpt>
      <trkpt lat="43.71845" lon="6.95064">
        <ele>958</ele>
        <time>2016-09-25T12:51:40Z</time>
      </trkpt>
      <trkpt lat="43.71844" lon="6.95073">
        <ele>957.2</ele>
        <time>2016-09-25T12:51:41Z</time>
      </trkpt>
      <trkpt lat="43.71842" lon="6.95081">
        <ele>956.5</ele>
        <time>2016-09-25T12:51:42Z</time>
      </trkpt>
      <trkpt lat="43.71837" lon="6.95087">
        <ele>956.3</ele>
        <time>2016-09-25T12:51:43Z</time>
      </trkpt>
      <trkpt lat="43.71832" lon="6.9509">
        <ele>956.5</ele>
        <time>2016-09-25T12:51:44Z</time>
      </trkpt>
      <trkpt lat="43.71829" lon="6.95095">
        <ele>956.3</ele>
        <time>2016-09-25T12:51:45Z</time>
      </trkpt>
      <trkpt lat="43.71829" lon="6.95101">
        <ele>955.8</ele>
        <time>2016-09-25T12:51:46Z</time>
      </trkpt>
      <trkpt lat="43.71831" lon="6.95105">
        <ele>955.2</ele>
        <time>2016-09-25T12:51:47Z</time>
      </trkpt>
      <trkpt lat="43.71835" lon="6.95106">
        <ele>954.6</ele>
        <time>2016-09-25T12:51:48Z</time>
      </trkpt>
      <trkpt lat="43.7184" lon="6.95106">
        <ele>954.1</ele>
        <time>2016-09-25T12:51:49Z</time>
      </trkpt>
      <trkpt lat="43.71845" lon="6.95104">
        <ele>953.8</ele>
        <time>2016-09-25T12:51:50Z</time>
      </trkpt>
      <trkpt lat="43.7185" lon="6.95102">
        <ele>953.5</ele>
        <time>2016-09-25T12:51:51Z</time>
      </trkpt>
      <trkpt lat="43.71855" lon="6.95104">
        <ele>952.9</ele>
        <time>2016-09-25T12:51:52Z</time>
      </trkpt>
      <trkpt lat="43.71861" lon="6.95107">
        <ele>951.9</ele>
        <time>2016-09-25T12:51:53Z</time>
      </trkpt>
      <trkpt lat="43.71868" lon="6.9511">
        <ele>950.8</ele>
        <time>2016-09-25T12:51:54Z</time>
      </trkpt>
      <trkpt lat="43.71873" lon="6.95111">
        <ele>950.1</ele>
        <time>2016-09-25T12:51:55Z</time>
      </trkpt>
      <trkpt lat="43.71876" lon="6.95113">
        <ele>949.5</ele>
        <time>2016-09-25T12:51:56Z</time>
      </trkpt>
      <trkpt lat="43.71878" lon="6.95117">
        <ele>948.9</ele>
        <time>2016-09-25T12:51:57Z</time>
      </trkpt>
      <trkpt lat="43.7188" lon="6.9512">
        <ele>948.3</ele>
        <time>2016-09-25T12:51:58Z</time>
      </trkpt>
      <trkpt lat="43.71883" lon="6.95124">
        <ele>947.7</ele>
        <time>2016-09-25T12:51:59Z</time>
      </trkpt>
      <trkpt lat="43.71885" lon="6.9513">
        <ele>947.2</ele>
        <time>2016-09-25T12:52:00Z</time>
      </trkpt>
      <trkpt lat="43.71886" lon="6.95138">
        <ele>946.6</ele>
        <time>2016-09-25T12:52:01Z</time>
      </trkpt>
      <trkpt lat="43.71889" lon="6.95146">
        <ele>945.9</ele>
        <time>2016-09-25T12:52:02Z</time>
      </trkpt>
      <trkpt lat="43.71892" lon="6.95153">
        <ele>945.2</ele>
        <time>2016-09-25T12:52:03Z</time>
      </trkpt>
      <trkpt lat="43.71897" lon="6.95161">
        <ele>944.3</ele>
        <time>2016-09-25T12:52:04Z</time>
      </trkpt>
      <trkpt lat="43.71903" lon="6.95167">
        <ele>943.2</ele>
        <time>2016-09-25T12:52:05Z</time>
      </trkpt>
      <trkpt lat="43.71908" lon="6.95175">
        <ele>942.2</ele>
        <time>2016-09-25T12:52:06Z</time>
      </trkpt>
      <trkpt lat="43.71914" lon="6.95182">
        <ele>941</ele>
        <time>2016-09-25T12:52:07Z</time>
      </trkpt>
      <trkpt lat="43.71922" lon="6.95187">
        <ele>939.8</ele>
        <time>2016-09-25T12:52:08Z</time>
      </trkpt>
      <trkpt lat="43.71929" lon="6.95191">
        <ele>938.5</ele>
        <time>2016-09-25T12:52:09Z</time>
      </trkpt>
      <trkpt lat="43.71936" lon="6.95194">
        <ele>937.3</ele>
        <time>2016-09-25T12:52:10Z</time>
      </trkpt>
      <trkpt lat="43.71943" lon="6.952">
        <ele>935.9</ele>
        <time>2016-09-25T12:52:11Z</time>
      </trkpt>
      <trkpt lat="43.71952" lon="6.95206">
        <ele>934.2</ele>
        <time>2016-09-25T12:52:12Z</time>
      </trkpt>
      <trkpt lat="43.7196" lon="6.9521">
        <ele>932.8</ele>
        <time>2016-09-25T12:52:13Z</time>
      </trkpt>
      <trkpt lat="43.71968" lon="6.95215">
        <ele>931.9</ele>
        <time>2016-09-25T12:52:14Z</time>
      </trkpt>
      <trkpt lat="43.71975" lon="6.95219">
        <ele>931.1</ele>
        <time>2016-09-25T12:52:15Z</time>
      </trkpt>
      <trkpt lat="43.71983" lon="6.95226">
        <ele>930.2</ele>
        <time>2016-09-25T12:52:16Z</time>
      </trkpt>
      <trkpt lat="43.71989" lon="6.95233">
        <ele>929.3</ele>
        <time>2016-09-25T12:52:17Z</time>
      </trkpt>
      <trkpt lat="43.71993" lon="6.95238">
        <ele>928.9</ele>
        <time>2016-09-25T12:52:18Z</time>
      </trkpt>
      <trkpt lat="43.71996" lon="6.95241">
        <ele>928.4</ele>
        <time>2016-09-25T12:52:19Z</time>
      </trkpt>
      <trkpt lat="43.71999" lon="6.95241">
        <ele>928.1</ele>
        <time>2016-09-25T12:52:20Z</time>
      </trkpt>
      <trkpt lat="43.72002" lon="6.95242">
        <ele>927.8</ele>
        <time>2016-09-25T12:52:21Z</time>
      </trkpt>
      <trkpt lat="43.72005" lon="6.95242">
        <ele>927.5</ele>
        <time>2016-09-25T12:52:22Z</time>
      </trkpt>
      <trkpt lat="43.72009" lon="6.95244">
        <ele>927</ele>
        <time>2016-09-25T12:52:23Z</time>
      </trkpt>
      <trkpt lat="43.72011" lon="6.95247">
        <ele>926.7</ele>
        <time>2016-09-25T12:52:24Z</time>
      </trkpt>
      <trkpt lat="43.72014" lon="6.95249">
        <ele>926.4</ele>
        <time>2016-09-25T12:52:25Z</time>
      </trkpt>
      <trkpt lat="43.72018" lon="6.95251">
        <ele>925.9</ele>
        <time>2016-09-25T12:52:26Z</time>
      </trkpt>
      <trkpt lat="43.72021" lon="6.95251">
        <ele>925.6</ele>
        <time>2016-09-25T12:52:27Z</time>
      </trkpt>
      <trkpt lat="43.72025" lon="6.95248">
        <ele>925.2</ele>
        <time>2016-09-25T12:52:28Z</time>
      </trkpt>
      <trkpt lat="43.7203" lon="6.95246">
        <ele>924.9</ele>
        <time>2016-09-25T12:52:29Z</time>
      </trkpt>
      <trkpt lat="43.72034" lon="6.95245">
        <ele>924.5</ele>
        <time>2016-09-25T12:52:30Z</time>
      </trkpt>
      <trkpt lat="43.72037" lon="6.95244">
        <ele>924.2</ele>
        <time>2016-09-25T12:52:31Z</time>
      </trkpt>
      <trkpt lat="43.7204" lon="6.95243">
        <ele>923.9</ele>
        <time>2016-09-25T12:52:32Z</time>
      </trkpt>
      <trkpt lat="43.72043" lon="6.95247">
        <ele>923.6</ele>
        <time>2016-09-25T12:52:34Z</time>
      </trkpt>
      <trkpt lat="43.72046" lon="6.95248">
        <ele>923.4</ele>
        <time>2016-09-25T12:52:35Z</time>
      </trkpt>
      <trkpt lat="43.72052" lon="6.95252">
        <ele>923</ele>
        <time>2016-09-25T12:52:36Z</time>
      </trkpt>
      <trkpt lat="43.72057" lon="6.95256">
        <ele>922.5</ele>
        <time>2016-09-25T12:52:37Z</time>
      </trkpt>
      <trkpt lat="43.72062" lon="6.95258">
        <ele>922.2</ele>
        <time>2016-09-25T12:52:38Z</time>
      </trkpt>
      <trkpt lat="43.72068" lon="6.9526">
        <ele>921.7</ele>
        <time>2016-09-25T12:52:39Z</time>
      </trkpt>
      <trkpt lat="43.72073" lon="6.95264">
        <ele>921.1</ele>
        <time>2016-09-25T12:52:40Z</time>
      </trkpt>
      <trkpt lat="43.72077" lon="6.95267">
        <ele>920.6</ele>
        <time>2016-09-25T12:52:41Z</time>
      </trkpt>
      <trkpt lat="43.72081" lon="6.95268">
        <ele>920.3</ele>
        <time>2016-09-25T12:52:42Z</time>
      </trkpt>
      <trkpt lat="43.72084" lon="6.95265">
        <ele>920.4</ele>
        <time>2016-09-25T12:52:43Z</time>
      </trkpt>
      <trkpt lat="43.72088" lon="6.95261">
        <ele>920.5</ele>
        <time>2016-09-25T12:52:44Z</time>
      </trkpt>
      <trkpt lat="43.72092" lon="6.95258">
        <ele>920.6</ele>
        <time>2016-09-25T12:52:45Z</time>
      </trkpt>
      <trkpt lat="43.72096" lon="6.95255">
        <ele>920.7</ele>
        <time>2016-09-25T12:52:46Z</time>
      </trkpt>
      <trkpt lat="43.721" lon="6.95254">
        <ele>920.6</ele>
        <time>2016-09-25T12:52:47Z</time>
      </trkpt>
      <trkpt lat="43.72103" lon="6.95253">
        <ele>920.5</ele>
        <time>2016-09-25T12:52:48Z</time>
      </trkpt>
      <trkpt lat="43.72106" lon="6.95253">
        <ele>920.4</ele>
        <time>2016-09-25T12:52:49Z</time>
      </trkpt>
      <trkpt lat="43.72111" lon="6.95253">
        <ele>920.2</ele>
        <time>2016-09-25T12:52:51Z</time>
      </trkpt>
      <trkpt lat="43.72116" lon="6.95255">
        <ele>919.7</ele>
        <time>2016-09-25T12:52:53Z</time>
      </trkpt>
      <trkpt lat="43.72119" lon="6.95258">
        <ele>919.2</ele>
        <time>2016-09-25T12:52:54Z</time>
      </trkpt>
      <trkpt lat="43.72124" lon="6.95261">
        <ele>918.4</ele>
        <time>2016-09-25T12:52:55Z</time>
      </trkpt>
      <trkpt lat="43.72129" lon="6.95266">
        <ele>917.7</ele>
        <time>2016-09-25T12:52:56Z</time>
      </trkpt>
      <trkpt lat="43.72133" lon="6.95271">
        <ele>917.1</ele>
        <time>2016-09-25T12:52:57Z</time>
      </trkpt>
      <trkpt lat="43.72137" lon="6.95276">
        <ele>916.5</ele>
        <time>2016-09-25T12:52:58Z</time>
      </trkpt>
      <trkpt lat="43.7214" lon="6.95279">
        <ele>916.1</ele>
        <time>2016-09-25T12:52:59Z</time>
      </trkpt>
      <trkpt lat="43.72145" lon="6.95284">
        <ele>915.4</ele>
        <time>2016-09-25T12:53:00Z</time>
      </trkpt>
      <trkpt lat="43.72149" lon="6.95288">
        <ele>914.8</ele>
        <time>2016-09-25T12:53:01Z</time>
      </trkpt>
      <trkpt lat="43.72152" lon="6.95291">
        <ele>914.4</ele>
        <time>2016-09-25T12:53:02Z</time>
      </trkpt>
      <trkpt lat="43.72155" lon="6.95296">
        <ele>913.8</ele>
        <time>2016-09-25T12:53:03Z</time>
      </trkpt>
      <trkpt lat="43.72158" lon="6.95301">
        <ele>913.2</ele>
        <time>2016-09-25T12:53:04Z</time>
      </trkpt>
      <trkpt lat="43.72162" lon="6.95306">
        <ele>912.6</ele>
        <time>2016-09-25T12:53:05Z</time>
      </trkpt>
      <trkpt lat="43.72166" lon="6.9531">
        <ele>912</ele>
        <time>2016-09-25T12:53:06Z</time>
      </trkpt>
      <trkpt lat="43.7217" lon="6.95316">
        <ele>911.3</ele>
        <time>2016-09-25T12:53:07Z</time>
      </trkpt>
      <trkpt lat="43.72173" lon="6.95322">
        <ele>910.4</ele>
        <time>2016-09-25T12:53:08Z</time>
      </trkpt>
      <trkpt lat="43.72176" lon="6.95326">
        <ele>909.8</ele>
        <time>2016-09-25T12:53:09Z</time>
      </trkpt>
      <trkpt lat="43.72179" lon="6.95327">
        <ele>909.5</ele>
        <time>2016-09-25T12:53:10Z</time>
      </trkpt>
      <trkpt lat="43.72182" lon="6.9533">
        <ele>909</ele>
        <time>2016-09-25T12:53:11Z</time>
      </trkpt>
      <trkpt lat="43.72185" lon="6.95335">
        <ele>908</ele>
        <time>2016-09-25T12:53:12Z</time>
      </trkpt>
      <trkpt lat="43.72187" lon="6.95343">
        <ele>906.8</ele>
        <time>2016-09-25T12:53:13Z</time>
      </trkpt>
      <trkpt lat="43.72189" lon="6.95351">
        <ele>905.5</ele>
        <time>2016-09-25T12:53:14Z</time>
      </trkpt>
      <trkpt lat="43.72192" lon="6.95359">
        <ele>903.9</ele>
        <time>2016-09-25T12:53:15Z</time>
      </trkpt>
      <trkpt lat="43.72194" lon="6.95365">
        <ele>902.8</ele>
        <time>2016-09-25T12:53:16Z</time>
      </trkpt>
      <trkpt lat="43.72195" lon="6.95371">
        <ele>901.7</ele>
        <time>2016-09-25T12:53:17Z</time>
      </trkpt>
      <trkpt lat="43.72196" lon="6.95378">
        <ele>900.9</ele>
        <time>2016-09-25T12:53:18Z</time>
      </trkpt>
      <trkpt lat="43.72197" lon="6.95386">
        <ele>900.3</ele>
        <time>2016-09-25T12:53:19Z</time>
      </trkpt>
      <trkpt lat="43.72199" lon="6.95392">
        <ele>899.6</ele>
        <time>2016-09-25T12:53:20Z</time>
      </trkpt>
      <trkpt lat="43.72202" lon="6.95399">
        <ele>899</ele>
        <time>2016-09-25T12:53:21Z</time>
      </trkpt>
      <trkpt lat="43.72203" lon="6.95408">
        <ele>898.4</ele>
        <time>2016-09-25T12:53:22Z</time>
      </trkpt>
      <trkpt lat="43.72201" lon="6.95416">
        <ele>898</ele>
        <time>2016-09-25T12:53:23Z</time>
      </trkpt>
      <trkpt lat="43.72202" lon="6.95422">
        <ele>897.6</ele>
        <time>2016-09-25T12:53:24Z</time>
      </trkpt>
      <trkpt lat="43.72205" lon="6.95425">
        <ele>897.2</ele>
        <time>2016-09-25T12:53:25Z</time>
      </trkpt>
      <trkpt lat="43.72207" lon="6.95428">
        <ele>896.9</ele>
        <time>2016-09-25T12:53:26Z</time>
      </trkpt>
      <trkpt lat="43.7221" lon="6.95433">
        <ele>896.3</ele>
        <time>2016-09-25T12:53:27Z</time>
      </trkpt>
      <trkpt lat="43.72211" lon="6.95437">
        <ele>895.9</ele>
        <time>2016-09-25T12:53:28Z</time>
      </trkpt>
      <trkpt lat="43.72212" lon="6.95446">
        <ele>895.2</ele>
        <time>2016-09-25T12:53:30Z</time>
      </trkpt>
      <trkpt lat="43.72213" lon="6.9545">
        <ele>894.7</ele>
        <time>2016-09-25T12:53:31Z</time>
      </trkpt>
      <trkpt lat="43.72215" lon="6.95457">
        <ele>894.1</ele>
        <time>2016-09-25T12:53:32Z</time>
      </trkpt>
      <trkpt lat="43.72218" lon="6.95461">
        <ele>893.3</ele>
        <time>2016-09-25T12:53:33Z</time>
      </trkpt>
      <trkpt lat="43.72222" lon="6.95468">
        <ele>892.1</ele>
        <time>2016-09-25T12:53:34Z</time>
      </trkpt>
      <trkpt lat="43.72226" lon="6.95473">
        <ele>891</ele>
        <time>2016-09-25T12:53:35Z</time>
      </trkpt>
      <trkpt lat="43.7223" lon="6.9548">
        <ele>890</ele>
        <time>2016-09-25T12:53:36Z</time>
      </trkpt>
      <trkpt lat="43.72232" lon="6.95486">
        <ele>889.1</ele>
        <time>2016-09-25T12:53:37Z</time>
      </trkpt>
      <trkpt lat="43.72234" lon="6.95491">
        <ele>888.5</ele>
        <time>2016-09-25T12:53:38Z</time>
      </trkpt>
      <trkpt lat="43.72238" lon="6.95493">
        <ele>887.8</ele>
        <time>2016-09-25T12:53:39Z</time>
      </trkpt>
      <trkpt lat="43.72242" lon="6.95493">
        <ele>887.3</ele>
        <time>2016-09-25T12:53:40Z</time>
      </trkpt>
      <trkpt lat="43.72245" lon="6.95494">
        <ele>886.7</ele>
        <time>2016-09-25T12:53:41Z</time>
      </trkpt>
      <trkpt lat="43.72248" lon="6.95496">
        <ele>886</ele>
        <time>2016-09-25T12:53:42Z</time>
      </trkpt>
      <trkpt lat="43.7225" lon="6.95502">
        <ele>885.4</ele>
        <time>2016-09-25T12:53:43Z</time>
      </trkpt>
      <trkpt lat="43.72251" lon="6.95508">
        <ele>884.8</ele>
        <time>2016-09-25T12:53:44Z</time>
      </trkpt>
      <trkpt lat="43.72252" lon="6.95514">
        <ele>884.2</ele>
        <time>2016-09-25T12:53:45Z</time>
      </trkpt>
      <trkpt lat="43.72253" lon="6.95521">
        <ele>883.5</ele>
        <time>2016-09-25T12:53:46Z</time>
      </trkpt>
      <trkpt lat="43.72255" lon="6.95528">
        <ele>882.9</ele>
        <time>2016-09-25T12:53:47Z</time>
      </trkpt>
      <trkpt lat="43.72257" lon="6.95534">
        <ele>882.1</ele>
        <time>2016-09-25T12:53:48Z</time>
      </trkpt>
      <trkpt lat="43.72259" lon="6.9554">
        <ele>881.4</ele>
        <time>2016-09-25T12:53:49Z</time>
      </trkpt>
      <trkpt lat="43.7226" lon="6.95546">
        <ele>880.5</ele>
        <time>2016-09-25T12:53:50Z</time>
      </trkpt>
      <trkpt lat="43.7226" lon="6.95554">
        <ele>879.4</ele>
        <time>2016-09-25T12:53:51Z</time>
      </trkpt>
      <trkpt lat="43.72262" lon="6.9556">
        <ele>878.3</ele>
        <time>2016-09-25T12:53:52Z</time>
      </trkpt>
      <trkpt lat="43.72261" lon="6.95567">
        <ele>877.6</ele>
        <time>2016-09-25T12:53:53Z</time>
      </trkpt>
      <trkpt lat="43.72259" lon="6.95572">
        <ele>877</ele>
        <time>2016-09-25T12:53:54Z</time>
      </trkpt>
      <trkpt lat="43.72257" lon="6.95575">
        <ele>876.9</ele>
        <time>2016-09-25T12:53:55Z</time>
      </trkpt>
      <trkpt lat="43.72258" lon="6.95578">
        <ele>876.3</ele>
        <time>2016-09-25T12:53:56Z</time>
      </trkpt>
      <trkpt lat="43.72262" lon="6.95585">
        <ele>874.8</ele>
        <time>2016-09-25T12:53:58Z</time>
      </trkpt>
      <trkpt lat="43.72265" lon="6.95589">
        <ele>874</ele>
        <time>2016-09-25T12:53:59Z</time>
      </trkpt>
      <trkpt lat="43.72268" lon="6.95591">
        <ele>873.2</ele>
        <time>2016-09-25T12:54:00Z</time>
      </trkpt>
      <trkpt lat="43.72271" lon="6.95593">
        <ele>872.6</ele>
        <time>2016-09-25T12:54:01Z</time>
      </trkpt>
      <trkpt lat="43.72275" lon="6.95595">
        <ele>872</ele>
        <time>2016-09-25T12:54:02Z</time>
      </trkpt>
      <trkpt lat="43.72278" lon="6.95597">
        <ele>871.3</ele>
        <time>2016-09-25T12:54:03Z</time>
      </trkpt>
      <trkpt lat="43.72282" lon="6.95601">
        <ele>870.2</ele>
        <time>2016-09-25T12:54:04Z</time>
      </trkpt>
      <trkpt lat="43.72288" lon="6.95607">
        <ele>868.8</ele>
        <time>2016-09-25T12:54:05Z</time>
      </trkpt>
      <trkpt lat="43.7229" lon="6.95612">
        <ele>867.9</ele>
        <time>2016-09-25T12:54:06Z</time>
      </trkpt>
      <trkpt lat="43.72293" lon="6.95616">
        <ele>866.9</ele>
        <time>2016-09-25T12:54:07Z</time>
      </trkpt>
      <trkpt lat="43.72294" lon="6.95622">
        <ele>865.9</ele>
        <time>2016-09-25T12:54:08Z</time>
      </trkpt>
      <trkpt lat="43.72295" lon="6.95628">
        <ele>864.8</ele>
        <time>2016-09-25T12:54:09Z</time>
      </trkpt>
      <trkpt lat="43.72296" lon="6.95634">
        <ele>863.8</ele>
        <time>2016-09-25T12:54:10Z</time>
      </trkpt>
      <trkpt lat="43.72298" lon="6.95639">
        <ele>862.8</ele>
        <time>2016-09-25T12:54:11Z</time>
      </trkpt>
      <trkpt lat="43.72303" lon="6.95643">
        <ele>861.4</ele>
        <time>2016-09-25T12:54:13Z</time>
      </trkpt>
      <trkpt lat="43.72307" lon="6.95646">
        <ele>860.3</ele>
        <time>2016-09-25T12:54:14Z</time>
      </trkpt>
      <trkpt lat="43.72311" lon="6.95649">
        <ele>859.3</ele>
        <time>2016-09-25T12:54:15Z</time>
      </trkpt>
      <trkpt lat="43.72314" lon="6.95654">
        <ele>858.3</ele>
        <time>2016-09-25T12:54:16Z</time>
      </trkpt>
      <trkpt lat="43.72316" lon="6.9566">
        <ele>857.2</ele>
        <time>2016-09-25T12:54:17Z</time>
      </trkpt>
      <trkpt lat="43.72319" lon="6.95666">
        <ele>856.1</ele>
        <time>2016-09-25T12:54:18Z</time>
      </trkpt>
      <trkpt lat="43.72323" lon="6.95672">
        <ele>855</ele>
        <time>2016-09-25T12:54:19Z</time>
      </trkpt>
      <trkpt lat="43.72328" lon="6.95677">
        <ele>853.9</ele>
        <time>2016-09-25T12:54:20Z</time>
      </trkpt>
      <trkpt lat="43.72331" lon="6.95682">
        <ele>853.1</ele>
        <time>2016-09-25T12:54:21Z</time>
      </trkpt>
      <trkpt lat="43.72331" lon="6.95689">
        <ele>852.4</ele>
        <time>2016-09-25T12:54:22Z</time>
      </trkpt>
      <trkpt lat="43.72329" lon="6.95697">
        <ele>851.9</ele>
        <time>2016-09-25T12:54:23Z</time>
      </trkpt>
      <trkpt lat="43.72327" lon="6.95701">
        <ele>851.7</ele>
        <time>2016-09-25T12:54:24Z</time>
      </trkpt>
      <trkpt lat="43.72325" lon="6.95704">
        <ele>851.5</ele>
        <time>2016-09-25T12:54:25Z</time>
      </trkpt>
      <trkpt lat="43.72325" lon="6.95709">
        <ele>850.9</ele>
        <time>2016-09-25T12:54:26Z</time>
      </trkpt>
      <trkpt lat="43.72328" lon="6.95716">
        <ele>849.8</ele>
        <time>2016-09-25T12:54:27Z</time>
      </trkpt>
      <trkpt lat="43.72332" lon="6.95721">
        <ele>848.9</ele>
        <time>2016-09-25T12:54:28Z</time>
      </trkpt>
      <trkpt lat="43.72335" lon="6.95728">
        <ele>847.8</ele>
        <time>2016-09-25T12:54:29Z</time>
      </trkpt>
      <trkpt lat="43.72338" lon="6.95734">
        <ele>846.9</ele>
        <time>2016-09-25T12:54:30Z</time>
      </trkpt>
      <trkpt lat="43.72342" lon="6.95741">
        <ele>845.8</ele>
        <time>2016-09-25T12:54:32Z</time>
      </trkpt>
      <trkpt lat="43.72345" lon="6.95745">
        <ele>845</ele>
        <time>2016-09-25T12:54:33Z</time>
      </trkpt>
      <trkpt lat="43.72349" lon="6.95751">
        <ele>843.9</ele>
        <time>2016-09-25T12:54:34Z</time>
      </trkpt>
      <trkpt lat="43.7235" lon="6.9576">
        <ele>842.7</ele>
        <time>2016-09-25T12:54:35Z</time>
      </trkpt>
      <trkpt lat="43.7235" lon="6.9577">
        <ele>841.4</ele>
        <time>2016-09-25T12:54:36Z</time>
      </trkpt>
      <trkpt lat="43.72351" lon="6.95777">
        <ele>840.4</ele>
        <time>2016-09-25T12:54:37Z</time>
      </trkpt>
      <trkpt lat="43.72351" lon="6.95785">
        <ele>839.3</ele>
        <time>2016-09-25T12:54:38Z</time>
      </trkpt>
      <trkpt lat="43.72349" lon="6.95792">
        <ele>838.5</ele>
        <time>2016-09-25T12:54:39Z</time>
      </trkpt>
      <trkpt lat="43.72346" lon="6.95798">
        <ele>837.5</ele>
        <time>2016-09-25T12:54:40Z</time>
      </trkpt>
      <trkpt lat="43.72342" lon="6.95805">
        <ele>836.5</ele>
        <time>2016-09-25T12:54:41Z</time>
      </trkpt>
      <trkpt lat="43.72338" lon="6.95813">
        <ele>835.1</ele>
        <time>2016-09-25T12:54:42Z</time>
      </trkpt>
      <trkpt lat="43.72333" lon="6.95818">
        <ele>834.4</ele>
        <time>2016-09-25T12:54:43Z</time>
      </trkpt>
      <trkpt lat="43.72327" lon="6.95823">
        <ele>833.5</ele>
        <time>2016-09-25T12:54:44Z</time>
      </trkpt>
      <trkpt lat="43.72322" lon="6.95831">
        <ele>832.3</ele>
        <time>2016-09-25T12:54:45Z</time>
      </trkpt>
      <trkpt lat="43.72317" lon="6.95836">
        <ele>831.4</ele>
        <time>2016-09-25T12:54:46Z</time>
      </trkpt>
      <trkpt lat="43.7231" lon="6.95844">
        <ele>830</ele>
        <time>2016-09-25T12:54:47Z</time>
      </trkpt>
      <trkpt lat="43.72307" lon="6.95851">
        <ele>828.7</ele>
        <time>2016-09-25T12:54:48Z</time>
      </trkpt>
      <trkpt lat="43.72303" lon="6.95857">
        <ele>827.5</ele>
        <time>2016-09-25T12:54:49Z</time>
      </trkpt>
      <trkpt lat="43.723" lon="6.95866">
        <ele>825.7</ele>
        <time>2016-09-25T12:54:50Z</time>
      </trkpt>
      <trkpt lat="43.72298" lon="6.95873">
        <ele>824.2</ele>
        <time>2016-09-25T12:54:51Z</time>
      </trkpt>
      <trkpt lat="43.72296" lon="6.95881">
        <ele>822.6</ele>
        <time>2016-09-25T12:54:52Z</time>
      </trkpt>
      <trkpt lat="43.72295" lon="6.95889">
        <ele>820.7</ele>
        <time>2016-09-25T12:54:53Z</time>
      </trkpt>
      <trkpt lat="43.72293" lon="6.95896">
        <ele>819.2</ele>
        <time>2016-09-25T12:54:54Z</time>
      </trkpt>
      <trkpt lat="43.72291" lon="6.95903">
        <ele>817.8</ele>
        <time>2016-09-25T12:54:55Z</time>
      </trkpt>
      <trkpt lat="43.7229" lon="6.95909">
        <ele>816.3</ele>
        <time>2016-09-25T12:54:56Z</time>
      </trkpt>
      <trkpt lat="43.72289" lon="6.95913">
        <ele>815.4</ele>
        <time>2016-09-25T12:54:57Z</time>
      </trkpt>
      <trkpt lat="43.72286" lon="6.95918">
        <ele>814.5</ele>
        <time>2016-09-25T12:54:58Z</time>
      </trkpt>
      <trkpt lat="43.72285" lon="6.95923">
        <ele>813.5</ele>
        <time>2016-09-25T12:54:59Z</time>
      </trkpt>
      <trkpt lat="43.72287" lon="6.95928">
        <ele>812.3</ele>
        <time>2016-09-25T12:55:00Z</time>
      </trkpt>
      <trkpt lat="43.72289" lon="6.95934">
        <ele>810.7</ele>
        <time>2016-09-25T12:55:01Z</time>
      </trkpt>
      <trkpt lat="43.7229" lon="6.95942">
        <ele>808.9</ele>
        <time>2016-09-25T12:55:02Z</time>
      </trkpt>
      <trkpt lat="43.72288" lon="6.95949">
        <ele>807.5</ele>
        <time>2016-09-25T12:55:03Z</time>
      </trkpt>
      <trkpt lat="43.72284" lon="6.95957">
        <ele>805.8</ele>
        <time>2016-09-25T12:55:04Z</time>
      </trkpt>
      <trkpt lat="43.72279" lon="6.95964">
        <ele>804.9</ele>
        <time>2016-09-25T12:55:05Z</time>
      </trkpt>
      <trkpt lat="43.72274" lon="6.95972">
        <ele>804</ele>
        <time>2016-09-25T12:55:06Z</time>
      </trkpt>
      <trkpt lat="43.72268" lon="6.9598">
        <ele>802.9</ele>
        <time>2016-09-25T12:55:07Z</time>
      </trkpt>
      <trkpt lat="43.72262" lon="6.95985">
        <ele>802.1</ele>
        <time>2016-09-25T12:55:08Z</time>
      </trkpt>
      <trkpt lat="43.72255" lon="6.9599">
        <ele>801.6</ele>
        <time>2016-09-25T12:55:09Z</time>
      </trkpt>
      <trkpt lat="43.72251" lon="6.95994">
        <ele>800.9</ele>
        <time>2016-09-25T12:55:10Z</time>
      </trkpt>
      <trkpt lat="43.72247" lon="6.96001">
        <ele>799.6</ele>
        <time>2016-09-25T12:55:11Z</time>
      </trkpt>
      <trkpt lat="43.72243" lon="6.96009">
        <ele>798.2</ele>
        <time>2016-09-25T12:55:12Z</time>
      </trkpt>
      <trkpt lat="43.72241" lon="6.96016">
        <ele>796.7</ele>
        <time>2016-09-25T12:55:13Z</time>
      </trkpt>
      <trkpt lat="43.7224" lon="6.96024">
        <ele>795.2</ele>
        <time>2016-09-25T12:55:14Z</time>
      </trkpt>
      <trkpt lat="43.72241" lon="6.96033">
        <ele>793.1</ele>
        <time>2016-09-25T12:55:15Z</time>
      </trkpt>
      <trkpt lat="43.72242" lon="6.96042">
        <ele>791.3</ele>
        <time>2016-09-25T12:55:16Z</time>
      </trkpt>
      <trkpt lat="43.72243" lon="6.96051">
        <ele>790</ele>
        <time>2016-09-25T12:55:17Z</time>
      </trkpt>
      <trkpt lat="43.72245" lon="6.96062">
        <ele>788.5</ele>
        <time>2016-09-25T12:55:18Z</time>
      </trkpt>
      <trkpt lat="43.72245" lon="6.96073">
        <ele>786.8</ele>
        <time>2016-09-25T12:55:19Z</time>
      </trkpt>
      <trkpt lat="43.72245" lon="6.96084">
        <ele>785.1</ele>
        <time>2016-09-25T12:55:20Z</time>
      </trkpt>
      <trkpt lat="43.72243" lon="6.96095">
        <ele>783.5</ele>
        <time>2016-09-25T12:55:21Z</time>
      </trkpt>
      <trkpt lat="43.72241" lon="6.96104">
        <ele>782.1</ele>
        <time>2016-09-25T12:55:22Z</time>
      </trkpt>
      <trkpt lat="43.7224" lon="6.96112">
        <ele>781</ele>
        <time>2016-09-25T12:55:23Z</time>
      </trkpt>
      <trkpt lat="43.72241" lon="6.96118">
        <ele>780</ele>
        <time>2016-09-25T12:55:24Z</time>
      </trkpt>
      <trkpt lat="43.72243" lon="6.96125">
        <ele>779.1</ele>
        <time>2016-09-25T12:55:25Z</time>
      </trkpt>
      <trkpt lat="43.72246" lon="6.9613">
        <ele>778.6</ele>
        <time>2016-09-25T12:55:26Z</time>
      </trkpt>
      <trkpt lat="43.72249" lon="6.96136">
        <ele>778.1</ele>
        <time>2016-09-25T12:55:27Z</time>
      </trkpt>
      <trkpt lat="43.72253" lon="6.96145">
        <ele>777.3</ele>
        <time>2016-09-25T12:55:28Z</time>
      </trkpt>
      <trkpt lat="43.72256" lon="6.96155">
        <ele>776.5</ele>
        <time>2016-09-25T12:55:29Z</time>
      </trkpt>
      <trkpt lat="43.72257" lon="6.96166">
        <ele>775.5</ele>
        <time>2016-09-25T12:55:30Z</time>
      </trkpt>
      <trkpt lat="43.72254" lon="6.96178">
        <ele>774.6</ele>
        <time>2016-09-25T12:55:31Z</time>
      </trkpt>
      <trkpt lat="43.72251" lon="6.96189">
        <ele>773.7</ele>
        <time>2016-09-25T12:55:32Z</time>
      </trkpt>
      <trkpt lat="43.72248" lon="6.96201">
        <ele>772.6</ele>
        <time>2016-09-25T12:55:33Z</time>
      </trkpt>
      <trkpt lat="43.72245" lon="6.96214">
        <ele>771.8</ele>
        <time>2016-09-25T12:55:34Z</time>
      </trkpt>
      <trkpt lat="43.72243" lon="6.96228">
        <ele>771.5</ele>
        <time>2016-09-25T12:55:35Z</time>
      </trkpt>
      <trkpt lat="43.72242" lon="6.96239">
        <ele>771.2</ele>
        <time>2016-09-25T12:55:36Z</time>
      </trkpt>
      <trkpt lat="43.7224" lon="6.96251">
        <ele>770.9</ele>
        <time>2016-09-25T12:55:37Z</time>
      </trkpt>
      <trkpt lat="43.72238" lon="6.96261">
        <ele>770.5</ele>
        <time>2016-09-25T12:55:38Z</time>
      </trkpt>
      <trkpt lat="43.72235" lon="6.96272">
        <ele>770.2</ele>
        <time>2016-09-25T12:55:39Z</time>
      </trkpt>
      <trkpt lat="43.72232" lon="6.96281">
        <ele>769.9</ele>
        <time>2016-09-25T12:55:40Z</time>
      </trkpt>
      <trkpt lat="43.72229" lon="6.96289">
        <ele>769.6</ele>
        <time>2016-09-25T12:55:41Z</time>
      </trkpt>
      <trkpt lat="43.72227" lon="6.96298">
        <ele>769.2</ele>
        <time>2016-09-25T12:55:42Z</time>
      </trkpt>
      <trkpt lat="43.72225" lon="6.96306">
        <ele>768.7</ele>
        <time>2016-09-25T12:55:43Z</time>
      </trkpt>
      <trkpt lat="43.72223" lon="6.96313">
        <ele>768.4</ele>
        <time>2016-09-25T12:55:44Z</time>
      </trkpt>
      <trkpt lat="43.72221" lon="6.96319">
        <ele>768.1</ele>
        <time>2016-09-25T12:55:45Z</time>
      </trkpt>
      <trkpt lat="43.72219" lon="6.96325">
        <ele>767.7</ele>
        <time>2016-09-25T12:55:46Z</time>
      </trkpt>
      <trkpt lat="43.72215" lon="6.96332">
        <ele>767.3</ele>
        <time>2016-09-25T12:55:47Z</time>
      </trkpt>
      <trkpt lat="43.72212" lon="6.96339">
        <ele>766.8</ele>
        <time>2016-09-25T12:55:48Z</time>
      </trkpt>
      <trkpt lat="43.72209" lon="6.96345">
        <ele>766.5</ele>
        <time>2016-09-25T12:55:49Z</time>
      </trkpt>
      <trkpt lat="43.72206" lon="6.9635">
        <ele>766.2</ele>
        <time>2016-09-25T12:55:50Z</time>
      </trkpt>
      <trkpt lat="43.72203" lon="6.96354">
        <ele>766</ele>
        <time>2016-09-25T12:55:51Z</time>
      </trkpt>
      <trkpt lat="43.722" lon="6.96361">
        <ele>765.7</ele>
        <time>2016-09-25T12:55:52Z</time>
      </trkpt>
      <trkpt lat="43.72197" lon="6.96367">
        <ele>765.4</ele>
        <time>2016-09-25T12:55:53Z</time>
      </trkpt>
      <trkpt lat="43.72194" lon="6.96375">
        <ele>765</ele>
        <time>2016-09-25T12:55:54Z</time>
      </trkpt>
      <trkpt lat="43.72193" lon="6.96381">
        <ele>764.9</ele>
        <time>2016-09-25T12:55:55Z</time>
      </trkpt>
      <trkpt lat="43.72192" lon="6.96386">
        <ele>764.8</ele>
        <time>2016-09-25T12:55:56Z</time>
      </trkpt>
      <trkpt lat="43.72193" lon="6.96392">
        <ele>764.6</ele>
        <time>2016-09-25T12:55:57Z</time>
      </trkpt>
      <trkpt lat="43.72194" lon="6.96398">
        <ele>764.5</ele>
        <time>2016-09-25T12:55:58Z</time>
      </trkpt>
      <trkpt lat="43.72194" lon="6.96405">
        <ele>764.4</ele>
        <time>2016-09-25T12:55:59Z</time>
      </trkpt>
      <trkpt lat="43.72195" lon="6.96411">
        <ele>764.3</ele>
        <time>2016-09-25T12:56:00Z</time>
      </trkpt>
      <trkpt lat="43.72194" lon="6.96418">
        <ele>764.1</ele>
        <time>2016-09-25T12:56:01Z</time>
      </trkpt>
      <trkpt lat="43.72196" lon="6.96426">
        <ele>764</ele>
        <time>2016-09-25T12:56:02Z</time>
      </trkpt>
      <trkpt lat="43.72198" lon="6.96431">
        <ele>764</ele>
        <time>2016-09-25T12:56:03Z</time>
      </trkpt>
      <trkpt lat="43.722" lon="6.96436">
        <ele>764</ele>
        <time>2016-09-25T12:56:05Z</time>
      </trkpt>
      <trkpt lat="43.722" lon="6.9644">
        <ele>763.9</ele>
        <time>2016-09-25T12:56:07Z</time>
      </trkpt>
      <trkpt lat="43.72201" lon="6.96446">
        <ele>763.8</ele>
        <time>2016-09-25T12:56:09Z</time>
      </trkpt>
      <trkpt lat="43.722" lon="6.96454">
        <ele>763.7</ele>
        <time>2016-09-25T12:56:11Z</time>
      </trkpt>
      <trkpt lat="43.72202" lon="6.9646">
        <ele>763.6</ele>
        <time>2016-09-25T12:56:13Z</time>
      </trkpt>
      <trkpt lat="43.72204" lon="6.96465">
        <ele>763.5</ele>
        <time>2016-09-25T12:56:15Z</time>
      </trkpt>
      <trkpt lat="43.72205" lon="6.96469">
        <ele>763.3</ele>
        <time>2016-09-25T12:56:17Z</time>
      </trkpt>
      <trkpt lat="43.72207" lon="6.96474">
        <ele>763.2</ele>
        <time>2016-09-25T12:56:20Z</time>
      </trkpt>
      <trkpt lat="43.72207" lon="6.96477">
        <ele>763</ele>
        <time>2016-09-25T12:56:22Z</time>
      </trkpt>
      <trkpt lat="43.72208" lon="6.96481">
        <ele>762.9</ele>
        <time>2016-09-25T12:56:24Z</time>
      </trkpt>
      <trkpt lat="43.7221" lon="6.96484">
        <ele>762.8</ele>
        <time>2016-09-25T12:56:26Z</time>
      </trkpt>
      <trkpt lat="43.7221" lon="6.96489">
        <ele>762.6</ele>
        <time>2016-09-25T13:02:28Z</time>
      </trkpt>
      <trkpt lat="43.7221" lon="6.96493">
        <ele>762.4</ele>
        <time>2016-09-25T13:02:31Z</time>
      </trkpt>
      <trkpt lat="43.72211" lon="6.96496">
        <ele>762.2</ele>
        <time>2016-09-25T13:02:33Z</time>
      </trkpt>
      <trkpt lat="43.72211" lon="6.96501">
        <ele>762</ele>
        <time>2016-09-25T13:02:36Z</time>
      </trkpt>
      <trkpt lat="43.72212" lon="6.96505">
        <ele>761.8</ele>
        <time>2016-09-25T13:05:14Z</time>
      </trkpt>
      <trkpt lat="43.72214" lon="6.96516">
        <ele>761.4</ele>
        <time>2016-09-25T13:08:38Z</time>
      </trkpt>
      <trkpt lat="43.72215" lon="6.96519">
        <ele>761.3</ele>
        <time>2016-09-25T13:08:40Z</time>
      </trkpt>
      <trkpt lat="43.72216" lon="6.96523">
        <ele>761.1</ele>
        <time>2016-09-25T13:08:45Z</time>
      </trkpt>
      <trkpt lat="43.72218" lon="6.96527">
        <ele>761</ele>
        <time>2016-09-25T13:08:48Z</time>
      </trkpt>
      <trkpt lat="43.72219" lon="6.96531">
        <ele>760.9</ele>
        <time>2016-09-25T13:08:51Z</time>
      </trkpt>
      <trkpt lat="43.7222" lon="6.96536">
        <ele>760.7</ele>
        <time>2016-09-25T13:08:54Z</time>
      </trkpt>
      <trkpt lat="43.72222" lon="6.9654">
        <ele>760.6</ele>
        <time>2016-09-25T13:08:56Z</time>
      </trkpt>
      <trkpt lat="43.72223" lon="6.96544">
        <ele>760.4</ele>
        <time>2016-09-25T13:08:58Z</time>
      </trkpt>
      <trkpt lat="43.72224" lon="6.96549">
        <ele>760.3</ele>
        <time>2016-09-25T13:09:00Z</time>
      </trkpt>
      <trkpt lat="43.72226" lon="6.96553">
        <ele>760.2</ele>
        <time>2016-09-25T13:09:02Z</time>
      </trkpt>
      <trkpt lat="43.72228" lon="6.96557">
        <ele>760.1</ele>
        <time>2016-09-25T13:09:04Z</time>
      </trkpt>
      <trkpt lat="43.72229" lon="6.96561">
        <ele>760</ele>
        <time>2016-09-25T13:09:06Z</time>
      </trkpt>
      <trkpt lat="43.72231" lon="6.96566">
        <ele>760</ele>
        <time>2016-09-25T13:09:08Z</time>
      </trkpt>
      <trkpt lat="43.72232" lon="6.9657">
        <ele>759.9</ele>
        <time>2016-09-25T13:09:10Z</time>
      </trkpt>
      <trkpt lat="43.72233" lon="6.96574">
        <ele>759.8</ele>
        <time>2016-09-25T13:09:12Z</time>
      </trkpt>
      <trkpt lat="43.72234" lon="6.96579">
        <ele>759.7</ele>
        <time>2016-09-25T13:09:14Z</time>
      </trkpt>
      <trkpt lat="43.72235" lon="6.96583">
        <ele>759.6</ele>
        <time>2016-09-25T13:09:16Z</time>
      </trkpt>
      <trkpt lat="43.72236" lon="6.96588">
        <ele>759.5</ele>
        <time>2016-09-25T13:09:18Z</time>
      </trkpt>
      <trkpt lat="43.72236" lon="6.96592">
        <ele>759.4</ele>
        <time>2016-09-25T13:09:20Z</time>
      </trkpt>
      <trkpt lat="43.72237" lon="6.96596">
        <ele>759.3</ele>
        <time>2016-09-25T13:09:22Z</time>
      </trkpt>
      <trkpt lat="43.72237" lon="6.966">
        <ele>759.2</ele>
        <time>2016-09-25T13:09:24Z</time>
      </trkpt>
      <trkpt lat="43.72238" lon="6.96604">
        <ele>759.1</ele>
        <time>2016-09-25T13:09:26Z</time>
      </trkpt>
      <trkpt lat="43.72238" lon="6.96609">
        <ele>759</ele>
        <time>2016-09-25T13:09:29Z</time>
      </trkpt>
      <trkpt lat="43.72237" lon="6.96613">
        <ele>758.8</ele>
        <time>2016-09-25T13:09:31Z</time>
      </trkpt>
      <trkpt lat="43.72236" lon="6.96617">
        <ele>758.6</ele>
        <time>2016-09-25T13:09:33Z</time>
      </trkpt>
      <trkpt lat="43.72234" lon="6.9662">
        <ele>758.3</ele>
        <time>2016-09-25T13:09:35Z</time>
      </trkpt>
      <trkpt lat="43.72233" lon="6.96624">
        <ele>758.1</ele>
        <time>2016-09-25T13:09:37Z</time>
      </trkpt>
      <trkpt lat="43.7223" lon="6.96627">
        <ele>757.7</ele>
        <time>2016-09-25T13:09:39Z</time>
      </trkpt>
      <trkpt lat="43.72229" lon="6.96631">
        <ele>757.3</ele>
        <time>2016-09-25T13:09:41Z</time>
      </trkpt>
      <trkpt lat="43.72228" lon="6.96634">
        <ele>756.9</ele>
        <time>2016-09-25T13:09:43Z</time>
      </trkpt>
      <trkpt lat="43.72227" lon="6.96638">
        <ele>756.5</ele>
        <time>2016-09-25T13:09:45Z</time>
      </trkpt>
      <trkpt lat="43.72226" lon="6.96642">
        <ele>756.1</ele>
        <time>2016-09-25T13:09:47Z</time>
      </trkpt>
      <trkpt lat="43.72225" lon="6.96646">
        <ele>755.7</ele>
        <time>2016-09-25T13:09:49Z</time>
      </trkpt>
      <trkpt lat="43.72224" lon="6.9665">
        <ele>755.3</ele>
        <time>2016-09-25T13:09:51Z</time>
      </trkpt>
      <trkpt lat="43.72224" lon="6.96654">
        <ele>755</ele>
        <time>2016-09-25T13:09:53Z</time>
      </trkpt>
      <trkpt lat="43.72224" lon="6.96658">
        <ele>754.7</ele>
        <time>2016-09-25T13:09:55Z</time>
      </trkpt>
      <trkpt lat="43.72225" lon="6.96662">
        <ele>754.5</ele>
        <time>2016-09-25T13:09:57Z</time>
      </trkpt>
      <trkpt lat="43.72225" lon="6.96665">
        <ele>754.2</ele>
        <time>2016-09-25T13:09:59Z</time>
      </trkpt>
      <trkpt lat="43.72226" lon="6.96669">
        <ele>754</ele>
        <time>2016-09-25T13:10:01Z</time>
      </trkpt>
      <trkpt lat="43.72227" lon="6.96674">
        <ele>753.8</ele>
        <time>2016-09-25T13:10:03Z</time>
      </trkpt>
      <trkpt lat="43.72228" lon="6.96678">
        <ele>753.7</ele>
        <time>2016-09-25T13:10:05Z</time>
      </trkpt>
      <trkpt lat="43.72229" lon="6.96682">
        <ele>753.7</ele>
        <time>2016-09-25T13:10:07Z</time>
      </trkpt>
      <trkpt lat="43.72231" lon="6.96687">
        <ele>753.7</ele>
        <time>2016-09-25T13:10:09Z</time>
      </trkpt>
      <trkpt lat="43.72233" lon="6.96692">
        <ele>753.6</ele>
        <time>2016-09-25T13:10:11Z</time>
      </trkpt>
      <trkpt lat="43.72234" lon="6.96697">
        <ele>753.5</ele>
        <time>2016-09-25T13:10:13Z</time>
      </trkpt>
      <trkpt lat="43.72235" lon="6.96702">
        <ele>753.5</ele>
        <time>2016-09-25T13:10:15Z</time>
      </trkpt>
      <trkpt lat="43.72236" lon="6.96707">
        <ele>753.4</ele>
        <time>2016-09-25T13:10:17Z</time>
      </trkpt>
      <trkpt lat="43.72237" lon="6.96713">
        <ele>753</ele>
        <time>2016-09-25T13:10:19Z</time>
      </trkpt>
      <trkpt lat="43.72238" lon="6.96717">
        <ele>752.7</ele>
        <time>2016-09-25T13:10:20Z</time>
      </trkpt>
      <trkpt lat="43.72239" lon="6.96721">
        <ele>752.3</ele>
        <time>2016-09-25T13:10:21Z</time>
      </trkpt>
      <trkpt lat="43.7224" lon="6.96726">
        <ele>752</ele>
        <time>2016-09-25T13:10:22Z</time>
      </trkpt>
      <trkpt lat="43.72241" lon="6.96731">
        <ele>751.6</ele>
        <time>2016-09-25T13:10:23Z</time>
      </trkpt>
      <trkpt lat="43.72242" lon="6.96736">
        <ele>751.2</ele>
        <time>2016-09-25T13:10:24Z</time>
      </trkpt>
      <trkpt lat="43.72243" lon="6.96741">
        <ele>751</ele>
        <time>2016-09-25T13:10:25Z</time>
      </trkpt>
      <trkpt lat="43.72243" lon="6.96745">
        <ele>750.7</ele>
        <time>2016-09-25T13:10:26Z</time>
      </trkpt>
      <trkpt lat="43.72244" lon="6.9675">
        <ele>750.5</ele>
        <time>2016-09-25T13:10:27Z</time>
      </trkpt>
      <trkpt lat="43.72245" lon="6.96753">
        <ele>750.2</ele>
        <time>2016-09-25T13:10:28Z</time>
      </trkpt>
      <trkpt lat="43.72246" lon="6.96759">
        <ele>750</ele>
        <time>2016-09-25T13:10:30Z</time>
      </trkpt>
      <trkpt lat="43.72247" lon="6.96764">
        <ele>749.8</ele>
        <time>2016-09-25T13:10:32Z</time>
      </trkpt>
      <trkpt lat="43.72247" lon="6.96768">
        <ele>749.5</ele>
        <time>2016-09-25T13:10:34Z</time>
      </trkpt>
      <trkpt lat="43.72247" lon="6.96773">
        <ele>749.2</ele>
        <time>2016-09-25T13:10:36Z</time>
      </trkpt>
      <trkpt lat="43.72248" lon="6.96778">
        <ele>748.9</ele>
        <time>2016-09-25T13:10:38Z</time>
      </trkpt>
      <trkpt lat="43.72248" lon="6.96783">
        <ele>748.6</ele>
        <time>2016-09-25T13:10:40Z</time>
      </trkpt>
      <trkpt lat="43.72249" lon="6.96788">
        <ele>748.5</ele>
        <time>2016-09-25T13:10:42Z</time>
      </trkpt>
      <trkpt lat="43.7225" lon="6.96793">
        <ele>748.7</ele>
        <time>2016-09-25T13:10:44Z</time>
      </trkpt>
      <trkpt lat="43.72252" lon="6.96798">
        <ele>749.4</ele>
        <time>2016-09-25T13:10:46Z</time>
      </trkpt>
      <trkpt lat="43.72253" lon="6.96804">
        <ele>750.2</ele>
        <time>2016-09-25T13:10:48Z</time>
      </trkpt>
      <trkpt lat="43.72254" lon="6.9681">
        <ele>750.8</ele>
        <time>2016-09-25T13:10:50Z</time>
      </trkpt>
      <trkpt lat="43.72255" lon="6.96816">
        <ele>751.4</ele>
        <time>2016-09-25T13:10:52Z</time>
      </trkpt>
      <trkpt lat="43.72256" lon="6.96822">
        <ele>751.8</ele>
        <time>2016-09-25T13:10:54Z</time>
      </trkpt>
      <trkpt lat="43.72256" lon="6.96827">
        <ele>752.3</ele>
        <time>2016-09-25T13:10:56Z</time>
      </trkpt>
      <trkpt lat="43.72257" lon="6.96833">
        <ele>752.6</ele>
        <time>2016-09-25T13:10:58Z</time>
      </trkpt>
      <trkpt lat="43.72257" lon="6.9684">
        <ele>752.9</ele>
        <time>2016-09-25T13:11:00Z</time>
      </trkpt>
      <trkpt lat="43.72257" lon="6.96847">
        <ele>753.3</ele>
        <time>2016-09-25T13:11:02Z</time>
      </trkpt>
      <trkpt lat="43.72258" lon="6.96855">
        <ele>753.8</ele>
        <time>2016-09-25T13:11:04Z</time>
      </trkpt>
      <trkpt lat="43.72259" lon="6.96859">
        <ele>754.1</ele>
        <time>2016-09-25T13:11:05Z</time>
      </trkpt>
      <trkpt lat="43.72259" lon="6.96864">
        <ele>754.5</ele>
        <time>2016-09-25T13:11:06Z</time>
      </trkpt>
      <trkpt lat="43.7226" lon="6.9687">
        <ele>754.9</ele>
        <time>2016-09-25T13:11:07Z</time>
      </trkpt>
      <trkpt lat="43.7226" lon="6.96876">
        <ele>755.2</ele>
        <time>2016-09-25T13:11:08Z</time>
      </trkpt>
      <trkpt lat="43.72261" lon="6.96882">
        <ele>755.3</ele>
        <time>2016-09-25T13:11:09Z</time>
      </trkpt>
      <trkpt lat="43.72261" lon="6.96888">
        <ele>755.2</ele>
        <time>2016-09-25T13:11:10Z</time>
      </trkpt>
      <trkpt lat="43.72261" lon="6.96895">
        <ele>755.2</ele>
        <time>2016-09-25T13:11:11Z</time>
      </trkpt>
      <trkpt lat="43.72261" lon="6.96906">
        <ele>755</ele>
        <time>2016-09-25T13:11:12Z</time>
      </trkpt>
      <trkpt lat="43.72261" lon="6.96914">
        <ele>754.7</ele>
        <time>2016-09-25T13:11:13Z</time>
      </trkpt>
      <trkpt lat="43.72261" lon="6.96922">
        <ele>754.7</ele>
        <time>2016-09-25T13:11:14Z</time>
      </trkpt>
      <trkpt lat="43.72261" lon="6.9693">
        <ele>754.6</ele>
        <time>2016-09-25T13:11:15Z</time>
      </trkpt>
      <trkpt lat="43.72262" lon="6.96939">
        <ele>754.8</ele>
        <time>2016-09-25T13:11:16Z</time>
      </trkpt>
      <trkpt lat="43.72261" lon="6.96948">
        <ele>754.3</ele>
        <time>2016-09-25T13:11:17Z</time>
      </trkpt>
      <trkpt lat="43.72261" lon="6.96956">
        <ele>754.1</ele>
        <time>2016-09-25T13:11:18Z</time>
      </trkpt>
      <trkpt lat="43.72261" lon="6.96966">
        <ele>754</ele>
        <time>2016-09-25T13:11:19Z</time>
      </trkpt>
      <trkpt lat="43.72263" lon="6.96974">
        <ele>754.3</ele>
        <time>2016-09-25T13:11:20Z</time>
      </trkpt>
      <trkpt lat="43.72264" lon="6.96983">
        <ele>754.6</ele>
        <time>2016-09-25T13:11:21Z</time>
      </trkpt>
      <trkpt lat="43.72266" lon="6.96992">
        <ele>755.2</ele>
        <time>2016-09-25T13:11:22Z</time>
      </trkpt>
      <trkpt lat="43.72269" lon="6.97">
        <ele>755.8</ele>
        <time>2016-09-25T13:11:23Z</time>
      </trkpt>
      <trkpt lat="43.72271" lon="6.97009">
        <ele>756.4</ele>
        <time>2016-09-25T13:11:24Z</time>
      </trkpt>
      <trkpt lat="43.72273" lon="6.97016">
        <ele>756.7</ele>
        <time>2016-09-25T13:11:25Z</time>
      </trkpt>
      <trkpt lat="43.72274" lon="6.97024">
        <ele>757</ele>
        <time>2016-09-25T13:11:26Z</time>
      </trkpt>
      <trkpt lat="43.72275" lon="6.97032">
        <ele>757.1</ele>
        <time>2016-09-25T13:11:27Z</time>
      </trkpt>
      <trkpt lat="43.72275" lon="6.97039">
        <ele>756.9</ele>
        <time>2016-09-25T13:11:28Z</time>
      </trkpt>
      <trkpt lat="43.72275" lon="6.97047">
        <ele>756.8</ele>
        <time>2016-09-25T13:11:29Z</time>
      </trkpt>
      <trkpt lat="43.72275" lon="6.97056">
        <ele>756.5</ele>
        <time>2016-09-25T13:11:30Z</time>
      </trkpt>
      <trkpt lat="43.72274" lon="6.97064">
        <ele>756.4</ele>
        <time>2016-09-25T13:11:31Z</time>
      </trkpt>
      <trkpt lat="43.72274" lon="6.9707">
        <ele>756.3</ele>
        <time>2016-09-25T13:11:32Z</time>
      </trkpt>
      <trkpt lat="43.72274" lon="6.97078">
        <ele>756.1</ele>
        <time>2016-09-25T13:11:33Z</time>
      </trkpt>
      <trkpt lat="43.72274" lon="6.97087">
        <ele>756.1</ele>
        <time>2016-09-25T13:11:34Z</time>
      </trkpt>
      <trkpt lat="43.72274" lon="6.97096">
        <ele>756</ele>
        <time>2016-09-25T13:11:35Z</time>
      </trkpt>
      <trkpt lat="43.72274" lon="6.97107">
        <ele>755.9</ele>
        <time>2016-09-25T13:11:36Z</time>
      </trkpt>
      <trkpt lat="43.72274" lon="6.97118">
        <ele>755.8</ele>
        <time>2016-09-25T13:11:37Z</time>
      </trkpt>
      <trkpt lat="43.72273" lon="6.97129">
        <ele>755.5</ele>
        <time>2016-09-25T13:11:38Z</time>
      </trkpt>
      <trkpt lat="43.72272" lon="6.9714">
        <ele>755.2</ele>
        <time>2016-09-25T13:11:39Z</time>
      </trkpt>
      <trkpt lat="43.72271" lon="6.9715">
        <ele>754.9</ele>
        <time>2016-09-25T13:11:40Z</time>
      </trkpt>
      <trkpt lat="43.72269" lon="6.9716">
        <ele>754.5</ele>
        <time>2016-09-25T13:11:41Z</time>
      </trkpt>
      <trkpt lat="43.72268" lon="6.9717">
        <ele>754</ele>
        <time>2016-09-25T13:11:42Z</time>
      </trkpt>
      <trkpt lat="43.72266" lon="6.97179">
        <ele>753.4</ele>
        <time>2016-09-25T13:11:43Z</time>
      </trkpt>
      <trkpt lat="43.72263" lon="6.97188">
        <ele>752.8</ele>
        <time>2016-09-25T13:11:44Z</time>
      </trkpt>
      <trkpt lat="43.7226" lon="6.97198">
        <ele>752</ele>
        <time>2016-09-25T13:11:45Z</time>
      </trkpt>
      <trkpt lat="43.72257" lon="6.97209">
        <ele>751.4</ele>
        <time>2016-09-25T13:11:46Z</time>
      </trkpt>
      <trkpt lat="43.72255" lon="6.97218">
        <ele>750.9</ele>
        <time>2016-09-25T13:11:47Z</time>
      </trkpt>
      <trkpt lat="43.72253" lon="6.97227">
        <ele>750.4</ele>
        <time>2016-09-25T13:11:48Z</time>
      </trkpt>
      <trkpt lat="43.72252" lon="6.97236">
        <ele>750.3</ele>
        <time>2016-09-25T13:11:49Z</time>
      </trkpt>
      <trkpt lat="43.72252" lon="6.97245">
        <ele>750.4</ele>
        <time>2016-09-25T13:11:50Z</time>
      </trkpt>
      <trkpt lat="43.72252" lon="6.97253">
        <ele>750.5</ele>
        <time>2016-09-25T13:11:51Z</time>
      </trkpt>
      <trkpt lat="43.72253" lon="6.9726">
        <ele>751</ele>
        <time>2016-09-25T13:11:52Z</time>
      </trkpt>
      <trkpt lat="43.72255" lon="6.97267">
        <ele>751.6</ele>
        <time>2016-09-25T13:11:53Z</time>
      </trkpt>
      <trkpt lat="43.72257" lon="6.97273">
        <ele>752</ele>
        <time>2016-09-25T13:11:54Z</time>
      </trkpt>
      <trkpt lat="43.72258" lon="6.9728">
        <ele>752.3</ele>
        <time>2016-09-25T13:11:55Z</time>
      </trkpt>
      <trkpt lat="43.7226" lon="6.97286">
        <ele>753</ele>
        <time>2016-09-25T13:11:56Z</time>
      </trkpt>
      <trkpt lat="43.72261" lon="6.97292">
        <ele>753.3</ele>
        <time>2016-09-25T13:11:57Z</time>
      </trkpt>
      <trkpt lat="43.72262" lon="6.97297">
        <ele>753.7</ele>
        <time>2016-09-25T13:11:58Z</time>
      </trkpt>
      <trkpt lat="43.72263" lon="6.97302">
        <ele>753.9</ele>
        <time>2016-09-25T13:11:59Z</time>
      </trkpt>
      <trkpt lat="43.72263" lon="6.97308">
        <ele>754.1</ele>
        <time>2016-09-25T13:12:00Z</time>
      </trkpt>
      <trkpt lat="43.72264" lon="6.97314">
        <ele>754.3</ele>
        <time>2016-09-25T13:12:01Z</time>
      </trkpt>
      <trkpt lat="43.72263" lon="6.97319">
        <ele>754.2</ele>
        <time>2016-09-25T13:12:02Z</time>
      </trkpt>
      <trkpt lat="43.72262" lon="6.97324">
        <ele>754.1</ele>
        <time>2016-09-25T13:12:03Z</time>
      </trkpt>
      <trkpt lat="43.72261" lon="6.97329">
        <ele>754</ele>
        <time>2016-09-25T13:12:04Z</time>
      </trkpt>
      <trkpt lat="43.7226" lon="6.97334">
        <ele>753.9</ele>
        <time>2016-09-25T13:12:05Z</time>
      </trkpt>
      <trkpt lat="43.7226" lon="6.97338">
        <ele>753.8</ele>
        <time>2016-09-25T13:12:06Z</time>
      </trkpt>
      <trkpt lat="43.72258" lon="6.97342">
        <ele>753.5</ele>
        <time>2016-09-25T13:12:07Z</time>
      </trkpt>
      <trkpt lat="43.72256" lon="6.97346">
        <ele>753.2</ele>
        <time>2016-09-25T13:12:08Z</time>
      </trkpt>
      <trkpt lat="43.72254" lon="6.9735">
        <ele>752.9</ele>
        <time>2016-09-25T13:12:09Z</time>
      </trkpt>
      <trkpt lat="43.72252" lon="6.97354">
        <ele>752.5</ele>
        <time>2016-09-25T13:12:10Z</time>
      </trkpt>
      <trkpt lat="43.7225" lon="6.97358">
        <ele>752.1</ele>
        <time>2016-09-25T13:12:11Z</time>
      </trkpt>
      <trkpt lat="43.72247" lon="6.97361">
        <ele>751.6</ele>
        <time>2016-09-25T13:12:12Z</time>
      </trkpt>
      <trkpt lat="43.72245" lon="6.97364">
        <ele>751.2</ele>
        <time>2016-09-25T13:12:13Z</time>
      </trkpt>
      <trkpt lat="43.72242" lon="6.97367">
        <ele>750.7</ele>
        <time>2016-09-25T13:12:14Z</time>
      </trkpt>
      <trkpt lat="43.72239" lon="6.9737">
        <ele>750.1</ele>
        <time>2016-09-25T13:12:15Z</time>
      </trkpt>
      <trkpt lat="43.72236" lon="6.97373">
        <ele>749.6</ele>
        <time>2016-09-25T13:12:16Z</time>
      </trkpt>
      <trkpt lat="43.72233" lon="6.97375">
        <ele>749</ele>
        <time>2016-09-25T13:12:17Z</time>
      </trkpt>
      <trkpt lat="43.7223" lon="6.97377">
        <ele>748.5</ele>
        <time>2016-09-25T13:12:18Z</time>
      </trkpt>
      <trkpt lat="43.72227" lon="6.97379">
        <ele>748.1</ele>
        <time>2016-09-25T13:12:19Z</time>
      </trkpt>
      <trkpt lat="43.72224" lon="6.9738">
        <ele>747.7</ele>
        <time>2016-09-25T13:12:20Z</time>
      </trkpt>
      <trkpt lat="43.72221" lon="6.97383">
        <ele>747.3</ele>
        <time>2016-09-25T13:12:21Z</time>
      </trkpt>
      <trkpt lat="43.72218" lon="6.97385">
        <ele>746.9</ele>
        <time>2016-09-25T13:12:22Z</time>
      </trkpt>
      <trkpt lat="43.72215" lon="6.97387">
        <ele>746.5</ele>
        <time>2016-09-25T13:12:23Z</time>
      </trkpt>
      <trkpt lat="43.72212" lon="6.97389">
        <ele>746.2</ele>
        <time>2016-09-25T13:12:24Z</time>
      </trkpt>
      <trkpt lat="43.72209" lon="6.97392">
        <ele>745.8</ele>
        <time>2016-09-25T13:12:25Z</time>
      </trkpt>
      <trkpt lat="43.72206" lon="6.97394">
        <ele>745.4</ele>
        <time>2016-09-25T13:12:26Z</time>
      </trkpt>
      <trkpt lat="43.72203" lon="6.97396">
        <ele>745</ele>
        <time>2016-09-25T13:12:27Z</time>
      </trkpt>
      <trkpt lat="43.722" lon="6.97399">
        <ele>744.7</ele>
        <time>2016-09-25T13:12:28Z</time>
      </trkpt>
      <trkpt lat="43.72197" lon="6.97402">
        <ele>744.4</ele>
        <time>2016-09-25T13:12:29Z</time>
      </trkpt>
      <trkpt lat="43.72194" lon="6.97404">
        <ele>743.9</ele>
        <time>2016-09-25T13:12:30Z</time>
      </trkpt>
      <trkpt lat="43.72191" lon="6.97406">
        <ele>743.2</ele>
        <time>2016-09-25T13:12:31Z</time>
      </trkpt>
      <trkpt lat="43.72187" lon="6.97407">
        <ele>742.4</ele>
        <time>2016-09-25T13:12:32Z</time>
      </trkpt>
      <trkpt lat="43.7218" lon="6.97409">
        <ele>740.8</ele>
        <time>2016-09-25T13:12:33Z</time>
      </trkpt>
      <trkpt lat="43.72175" lon="6.97411">
        <ele>739.9</ele>
        <time>2016-09-25T13:12:34Z</time>
      </trkpt>
      <trkpt lat="43.72171" lon="6.97413">
        <ele>739</ele>
        <time>2016-09-25T13:12:35Z</time>
      </trkpt>
      <trkpt lat="43.72166" lon="6.97415">
        <ele>737.9</ele>
        <time>2016-09-25T13:12:36Z</time>
      </trkpt>
      <trkpt lat="43.72161" lon="6.97419">
        <ele>736.8</ele>
        <time>2016-09-25T13:12:37Z</time>
      </trkpt>
      <trkpt lat="43.72156" lon="6.97423">
        <ele>735.9</ele>
        <time>2016-09-25T13:12:38Z</time>
      </trkpt>
      <trkpt lat="43.7215" lon="6.97428">
        <ele>734.6</ele>
        <time>2016-09-25T13:12:39Z</time>
      </trkpt>
      <trkpt lat="43.72146" lon="6.97434">
        <ele>733.9</ele>
        <time>2016-09-25T13:12:40Z</time>
      </trkpt>
      <trkpt lat="43.72142" lon="6.9744">
        <ele>733.1</ele>
        <time>2016-09-25T13:12:41Z</time>
      </trkpt>
      <trkpt lat="43.72139" lon="6.97449">
        <ele>732.7</ele>
        <time>2016-09-25T13:12:42Z</time>
      </trkpt>
      <trkpt lat="43.72139" lon="6.97457">
        <ele>732.8</ele>
        <time>2016-09-25T13:12:43Z</time>
      </trkpt>
      <trkpt lat="43.7214" lon="6.97467">
        <ele>732.9</ele>
        <time>2016-09-25T13:12:44Z</time>
      </trkpt>
      <trkpt lat="43.72142" lon="6.97477">
        <ele>733.4</ele>
        <time>2016-09-25T13:12:45Z</time>
      </trkpt>
      <trkpt lat="43.72144" lon="6.97485">
        <ele>733.9</ele>
        <time>2016-09-25T13:12:46Z</time>
      </trkpt>
      <trkpt lat="43.72149" lon="6.97494">
        <ele>735</ele>
        <time>2016-09-25T13:12:47Z</time>
      </trkpt>
      <trkpt lat="43.72153" lon="6.97504">
        <ele>736.2</ele>
        <time>2016-09-25T13:12:48Z</time>
      </trkpt>
      <trkpt lat="43.72158" lon="6.97515">
        <ele>737.5</ele>
        <time>2016-09-25T13:12:49Z</time>
      </trkpt>
      <trkpt lat="43.72162" lon="6.97525">
        <ele>738.7</ele>
        <time>2016-09-25T13:12:50Z</time>
      </trkpt>
      <trkpt lat="43.72166" lon="6.97534">
        <ele>739.9</ele>
        <time>2016-09-25T13:12:51Z</time>
      </trkpt>
      <trkpt lat="43.7217" lon="6.97545">
        <ele>740.9</ele>
        <time>2016-09-25T13:12:52Z</time>
      </trkpt>
      <trkpt lat="43.72173" lon="6.97556">
        <ele>741.1</ele>
        <time>2016-09-25T13:12:53Z</time>
      </trkpt>
      <trkpt lat="43.72175" lon="6.97568">
        <ele>741</ele>
        <time>2016-09-25T13:12:54Z</time>
      </trkpt>
      <trkpt lat="43.72177" lon="6.97581">
        <ele>740.5</ele>
        <time>2016-09-25T13:12:55Z</time>
      </trkpt>
      <trkpt lat="43.72177" lon="6.97595">
        <ele>739.5</ele>
        <time>2016-09-25T13:12:56Z</time>
      </trkpt>
      <trkpt lat="43.72176" lon="6.97608">
        <ele>738.2</ele>
        <time>2016-09-25T13:12:57Z</time>
      </trkpt>
      <trkpt lat="43.72173" lon="6.97621">
        <ele>736.4</ele>
        <time>2016-09-25T13:12:58Z</time>
      </trkpt>
      <trkpt lat="43.72168" lon="6.97634">
        <ele>735.3</ele>
        <time>2016-09-25T13:12:59Z</time>
      </trkpt>
      <trkpt lat="43.72164" lon="6.97647">
        <ele>734.9</ele>
        <time>2016-09-25T13:13:00Z</time>
      </trkpt>
      <trkpt lat="43.72158" lon="6.97659">
        <ele>734.6</ele>
        <time>2016-09-25T13:13:01Z</time>
      </trkpt>
      <trkpt lat="43.72152" lon="6.9767">
        <ele>734.4</ele>
        <time>2016-09-25T13:13:02Z</time>
      </trkpt>
      <trkpt lat="43.72147" lon="6.97681">
        <ele>734.8</ele>
        <time>2016-09-25T13:13:03Z</time>
      </trkpt>
      <trkpt lat="43.72142" lon="6.97691">
        <ele>735.1</ele>
        <time>2016-09-25T13:13:04Z</time>
      </trkpt>
      <trkpt lat="43.72137" lon="6.97696">
        <ele>735.3</ele>
        <time>2016-09-25T13:13:05Z</time>
      </trkpt>
      <trkpt lat="43.72134" lon="6.97698">
        <ele>735.2</ele>
        <time>2016-09-25T13:13:06Z</time>
      </trkpt>
      <trkpt lat="43.72128" lon="6.97701">
        <ele>735.1</ele>
        <time>2016-09-25T13:13:07Z</time>
      </trkpt>
      <trkpt lat="43.72125" lon="6.97703">
        <ele>735.3</ele>
        <time>2016-09-25T13:13:08Z</time>
      </trkpt>
      <trkpt lat="43.72125" lon="6.97709">
        <ele>736</ele>
        <time>2016-09-25T13:13:09Z</time>
      </trkpt>
      <trkpt lat="43.72127" lon="6.97712">
        <ele>736.5</ele>
        <time>2016-09-25T13:13:10Z</time>
      </trkpt>
      <trkpt lat="43.72131" lon="6.97714">
        <ele>736.9</ele>
        <time>2016-09-25T13:13:11Z</time>
      </trkpt>
      <trkpt lat="43.72134" lon="6.97716">
        <ele>737.3</ele>
        <time>2016-09-25T13:13:12Z</time>
      </trkpt>
      <trkpt lat="43.72137" lon="6.9772">
        <ele>737.8</ele>
        <time>2016-09-25T13:13:13Z</time>
      </trkpt>
      <trkpt lat="43.72138" lon="6.97727">
        <ele>738.5</ele>
        <time>2016-09-25T13:13:15Z</time>
      </trkpt>
      <trkpt lat="43.72141" lon="6.97731">
        <ele>738.8</ele>
        <time>2016-09-25T13:13:18Z</time>
      </trkpt>
      <trkpt lat="43.72143" lon="6.97728">
        <ele>738.7</ele>
        <time>2016-09-25T13:13:20Z</time>
      </trkpt>
      <trkpt lat="43.72146" lon="6.97727">
        <ele>738.7</ele>
        <time>2016-09-25T13:13:23Z</time>
      </trkpt>
      <trkpt lat="43.72149" lon="6.97732">
        <ele>739.2</ele>
        <time>2016-09-25T13:13:25Z</time>
      </trkpt>
      <trkpt lat="43.72153" lon="6.97738">
        <ele>739.7</ele>
        <time>2016-09-25T13:13:27Z</time>
      </trkpt>
      <trkpt lat="43.72156" lon="6.97741">
        <ele>739.9</ele>
        <time>2016-09-25T13:13:28Z</time>
      </trkpt>
      <trkpt lat="43.72159" lon="6.97744">
        <ele>740.2</ele>
        <time>2016-09-25T13:13:29Z</time>
      </trkpt>
      <trkpt lat="43.72169" lon="6.97753">
        <ele>740.6</ele>
        <time>2016-09-25T13:13:30Z</time>
      </trkpt>
      <trkpt lat="43.72173" lon="6.97757">
        <ele>740.8</ele>
        <time>2016-09-25T13:13:31Z</time>
      </trkpt>
      <trkpt lat="43.72176" lon="6.97762">
        <ele>740.9</ele>
        <time>2016-09-25T13:13:32Z</time>
      </trkpt>
      <trkpt lat="43.72179" lon="6.97766">
        <ele>741</ele>
        <time>2016-09-25T13:13:33Z</time>
      </trkpt>
      <trkpt lat="43.72182" lon="6.97767">
        <ele>740.9</ele>
        <time>2016-09-25T13:13:34Z</time>
      </trkpt>
      <trkpt lat="43.72186" lon="6.97766">
        <ele>740.8</ele>
        <time>2016-09-25T13:13:35Z</time>
      </trkpt>
      <trkpt lat="43.72189" lon="6.97763">
        <ele>740.7</ele>
        <time>2016-09-25T13:13:36Z</time>
      </trkpt>
    </trkseg>
  </trk>
</gpx>